<?xml version="1.0" encoding="UTF-8" standalone="no" ?>
<gpx xmlns="http://www.topografix.com/GPX/1/1" xmlns:xsi="http://www.w3.org/2001/XMLSchema-instance" xsi:schemaLocation="http://www.topografix.com/GPX/1/1 http://www.topografix.com/GPX/1/1/gpx.xsd" version="1.1" creator="VisuGPX - https://www.visugpx.com">
  <metadata>
    <name>Au pied du Cagire, vallées de l'Arbas et du Ger</name>
    <desc><![CDATA[Circuit de 64 km pour 2100m de D+/D- entre Arbas et Aspet, en partie (mais pas que) sur des secteurs balisés de l'espace VTT Pyrénées - Comminges. De beaux points de vue sur le Cagire tout au long du parcours ]]></desc>
  </metadata>
  <trk>
    <name><![CDATA[Au pied du Cagire, vallées de l'Arbas et du Ger]]></name>
    <trkseg>
      <trkpt lat="43.03641" lon="0.9247">
        <ele>368</ele>
        <time>2021-03-13T11:59:20Z</time>
      </trkpt>
      <trkpt lat="43.0364" lon="0.9247">
        <ele>368</ele>
        <time>2021-03-13T11:59:21Z</time>
      </trkpt>
      <trkpt lat="43.03639" lon="0.92469">
        <ele>368</ele>
        <time>2021-03-13T11:59:22Z</time>
      </trkpt>
      <trkpt lat="43.03639" lon="0.92469">
        <ele>368</ele>
        <time>2021-03-13T11:59:23Z</time>
      </trkpt>
      <trkpt lat="43.03638" lon="0.92468">
        <ele>368</ele>
        <time>2021-03-13T11:59:24Z</time>
      </trkpt>
      <trkpt lat="43.03638" lon="0.92468">
        <ele>368</ele>
        <time>2021-03-13T11:59:25Z</time>
      </trkpt>
      <trkpt lat="43.03637" lon="0.92467">
        <ele>368</ele>
        <time>2021-03-13T11:59:26Z</time>
      </trkpt>
      <trkpt lat="43.03637" lon="0.92467">
        <ele>368</ele>
        <time>2021-03-13T11:59:27Z</time>
      </trkpt>
      <trkpt lat="43.03636" lon="0.92466">
        <ele>368</ele>
        <time>2021-03-13T11:59:28Z</time>
      </trkpt>
      <trkpt lat="43.03635" lon="0.92466">
        <ele>368</ele>
        <time>2021-03-13T11:59:29Z</time>
      </trkpt>
      <trkpt lat="43.03635" lon="0.92465">
        <ele>368</ele>
        <time>2021-03-13T11:59:30Z</time>
      </trkpt>
      <trkpt lat="43.03634" lon="0.92465">
        <ele>368</ele>
        <time>2021-03-13T11:59:31Z</time>
      </trkpt>
      <trkpt lat="43.03634" lon="0.92465">
        <ele>368</ele>
        <time>2021-03-13T11:59:32Z</time>
      </trkpt>
      <trkpt lat="43.03627" lon="0.92461">
        <ele>368</ele>
        <time>2021-03-13T11:59:33Z</time>
      </trkpt>
      <trkpt lat="43.03627" lon="0.92461">
        <ele>368</ele>
        <time>2021-03-13T11:59:34Z</time>
      </trkpt>
      <trkpt lat="43.03619" lon="0.92452">
        <ele>368</ele>
        <time>2021-03-13T11:59:35Z</time>
      </trkpt>
      <trkpt lat="43.03617" lon="0.9245">
        <ele>368</ele>
        <time>2021-03-13T11:59:36Z</time>
      </trkpt>
      <trkpt lat="43.03614" lon="0.92446">
        <ele>368</ele>
        <time>2021-03-13T11:59:37Z</time>
      </trkpt>
      <trkpt lat="43.03611" lon="0.92441">
        <ele>368</ele>
        <time>2021-03-13T11:59:38Z</time>
      </trkpt>
      <trkpt lat="43.03608" lon="0.92435">
        <ele>368</ele>
        <time>2021-03-13T11:59:39Z</time>
      </trkpt>
      <trkpt lat="43.03608" lon="0.92435">
        <ele>368</ele>
        <time>2021-03-13T11:59:40Z</time>
      </trkpt>
      <trkpt lat="43.03601" lon="0.92422">
        <ele>368</ele>
        <time>2021-03-13T11:59:41Z</time>
      </trkpt>
      <trkpt lat="43.036" lon="0.92419">
        <ele>368</ele>
        <time>2021-03-13T11:59:42Z</time>
      </trkpt>
      <trkpt lat="43.03597" lon="0.92413">
        <ele>368</ele>
        <time>2021-03-13T11:59:43Z</time>
      </trkpt>
      <trkpt lat="43.03593" lon="0.92407">
        <ele>368</ele>
        <time>2021-03-13T11:59:44Z</time>
      </trkpt>
      <trkpt lat="43.0359" lon="0.924">
        <ele>368</ele>
        <time>2021-03-13T11:59:45Z</time>
      </trkpt>
      <trkpt lat="43.03586" lon="0.92394">
        <ele>368</ele>
        <time>2021-03-13T11:59:46Z</time>
      </trkpt>
      <trkpt lat="43.03583" lon="0.92388">
        <ele>368</ele>
        <time>2021-03-13T11:59:47Z</time>
      </trkpt>
      <trkpt lat="43.03583" lon="0.92388">
        <ele>368</ele>
        <time>2021-03-13T11:59:48Z</time>
      </trkpt>
      <trkpt lat="43.03578" lon="0.92381">
        <ele>366</ele>
        <time>2021-03-13T11:59:49Z</time>
      </trkpt>
      <trkpt lat="43.03578" lon="0.92381">
        <ele>366</ele>
        <time>2021-03-13T11:59:50Z</time>
      </trkpt>
      <trkpt lat="43.03571" lon="0.92385">
        <ele>366</ele>
        <time>2021-03-13T11:59:51Z</time>
      </trkpt>
      <trkpt lat="43.03571" lon="0.92385">
        <ele>366</ele>
        <time>2021-03-13T11:59:52Z</time>
      </trkpt>
      <trkpt lat="43.03567" lon="0.92393">
        <ele>366</ele>
        <time>2021-03-13T11:59:53Z</time>
      </trkpt>
      <trkpt lat="43.03567" lon="0.92393">
        <ele>366</ele>
        <time>2021-03-13T11:59:54Z</time>
      </trkpt>
      <trkpt lat="43.03565" lon="0.92405">
        <ele>366</ele>
        <time>2021-03-13T11:59:55Z</time>
      </trkpt>
      <trkpt lat="43.03565" lon="0.92405">
        <ele>366</ele>
        <time>2021-03-13T11:59:56Z</time>
      </trkpt>
      <trkpt lat="43.03562" lon="0.92421">
        <ele>366</ele>
        <time>2021-03-13T11:59:57Z</time>
      </trkpt>
      <trkpt lat="43.03562" lon="0.92424">
        <ele>366</ele>
        <time>2021-03-13T11:59:58Z</time>
      </trkpt>
      <trkpt lat="43.03562" lon="0.92424">
        <ele>366</ele>
        <time>2021-03-13T11:59:59Z</time>
      </trkpt>
      <trkpt lat="43.0356" lon="0.92437">
        <ele>366</ele>
        <time>2021-03-13T12:00:00Z</time>
      </trkpt>
      <trkpt lat="43.03558" lon="0.92445">
        <ele>366</ele>
        <time>2021-03-13T12:00:01Z</time>
      </trkpt>
      <trkpt lat="43.03557" lon="0.92452">
        <ele>366</ele>
        <time>2021-03-13T12:00:02Z</time>
      </trkpt>
      <trkpt lat="43.03556" lon="0.92459">
        <ele>366</ele>
        <time>2021-03-13T12:00:03Z</time>
      </trkpt>
      <trkpt lat="43.03554" lon="0.92467">
        <ele>366</ele>
        <time>2021-03-13T12:00:04Z</time>
      </trkpt>
      <trkpt lat="43.03553" lon="0.92475">
        <ele>366</ele>
        <time>2021-03-13T12:00:05Z</time>
      </trkpt>
      <trkpt lat="43.03552" lon="0.92484">
        <ele>366</ele>
        <time>2021-03-13T12:00:06Z</time>
      </trkpt>
      <trkpt lat="43.0355" lon="0.92492">
        <ele>366</ele>
        <time>2021-03-13T12:00:07Z</time>
      </trkpt>
      <trkpt lat="43.03549" lon="0.92501">
        <ele>366</ele>
        <time>2021-03-13T12:00:08Z</time>
      </trkpt>
      <trkpt lat="43.03547" lon="0.92511">
        <ele>365</ele>
        <time>2021-03-13T12:00:09Z</time>
      </trkpt>
      <trkpt lat="43.03545" lon="0.9252">
        <ele>365</ele>
        <time>2021-03-13T12:00:10Z</time>
      </trkpt>
      <trkpt lat="43.03543" lon="0.9253">
        <ele>365</ele>
        <time>2021-03-13T12:00:11Z</time>
      </trkpt>
      <trkpt lat="43.03542" lon="0.9254">
        <ele>365</ele>
        <time>2021-03-13T12:00:12Z</time>
      </trkpt>
      <trkpt lat="43.03541" lon="0.92551">
        <ele>365</ele>
        <time>2021-03-13T12:00:13Z</time>
      </trkpt>
      <trkpt lat="43.0354" lon="0.92562">
        <ele>365</ele>
        <time>2021-03-13T12:00:14Z</time>
      </trkpt>
      <trkpt lat="43.03539" lon="0.92574">
        <ele>365</ele>
        <time>2021-03-13T12:00:15Z</time>
      </trkpt>
      <trkpt lat="43.03538" lon="0.92586">
        <ele>365</ele>
        <time>2021-03-13T12:00:16Z</time>
      </trkpt>
      <trkpt lat="43.03537" lon="0.92598">
        <ele>365</ele>
        <time>2021-03-13T12:00:17Z</time>
      </trkpt>
      <trkpt lat="43.03537" lon="0.9261">
        <ele>365</ele>
        <time>2021-03-13T12:00:18Z</time>
      </trkpt>
      <trkpt lat="43.03537" lon="0.92623">
        <ele>361</ele>
        <time>2021-03-13T12:00:19Z</time>
      </trkpt>
      <trkpt lat="43.03536" lon="0.92636">
        <ele>361</ele>
        <time>2021-03-13T12:00:20Z</time>
      </trkpt>
      <trkpt lat="43.03535" lon="0.92649">
        <ele>361</ele>
        <time>2021-03-13T12:00:21Z</time>
      </trkpt>
      <trkpt lat="43.03534" lon="0.92662">
        <ele>361</ele>
        <time>2021-03-13T12:00:22Z</time>
      </trkpt>
      <trkpt lat="43.03533" lon="0.92675">
        <ele>361</ele>
        <time>2021-03-13T12:00:23Z</time>
      </trkpt>
      <trkpt lat="43.03532" lon="0.92688">
        <ele>358</ele>
        <time>2021-03-13T12:00:24Z</time>
      </trkpt>
      <trkpt lat="43.0353" lon="0.92701">
        <ele>358</ele>
        <time>2021-03-13T12:00:25Z</time>
      </trkpt>
      <trkpt lat="43.03526" lon="0.92713">
        <ele>358</ele>
        <time>2021-03-13T12:00:26Z</time>
      </trkpt>
      <trkpt lat="43.03523" lon="0.92725">
        <ele>358</ele>
        <time>2021-03-13T12:00:27Z</time>
      </trkpt>
      <trkpt lat="43.03519" lon="0.92736">
        <ele>358</ele>
        <time>2021-03-13T12:00:28Z</time>
      </trkpt>
      <trkpt lat="43.03514" lon="0.92747">
        <ele>357</ele>
        <time>2021-03-13T12:00:29Z</time>
      </trkpt>
      <trkpt lat="43.0351" lon="0.92759">
        <ele>357</ele>
        <time>2021-03-13T12:00:30Z</time>
      </trkpt>
      <trkpt lat="43.03506" lon="0.9277">
        <ele>357</ele>
        <time>2021-03-13T12:00:31Z</time>
      </trkpt>
      <trkpt lat="43.03502" lon="0.9278">
        <ele>357</ele>
        <time>2021-03-13T12:00:32Z</time>
      </trkpt>
      <trkpt lat="43.03497" lon="0.9279">
        <ele>357</ele>
        <time>2021-03-13T12:00:33Z</time>
      </trkpt>
      <trkpt lat="43.03494" lon="0.92801">
        <ele>355</ele>
        <time>2021-03-13T12:00:34Z</time>
      </trkpt>
      <trkpt lat="43.0349" lon="0.92812">
        <ele>355</ele>
        <time>2021-03-13T12:00:35Z</time>
      </trkpt>
      <trkpt lat="43.03486" lon="0.92823">
        <ele>355</ele>
        <time>2021-03-13T12:00:36Z</time>
      </trkpt>
      <trkpt lat="43.03482" lon="0.92834">
        <ele>355</ele>
        <time>2021-03-13T12:00:37Z</time>
      </trkpt>
      <trkpt lat="43.03479" lon="0.92845">
        <ele>355</ele>
        <time>2021-03-13T12:00:38Z</time>
      </trkpt>
      <trkpt lat="43.03476" lon="0.92856">
        <ele>354</ele>
        <time>2021-03-13T12:00:39Z</time>
      </trkpt>
      <trkpt lat="43.03473" lon="0.92867">
        <ele>354</ele>
        <time>2021-03-13T12:00:40Z</time>
      </trkpt>
      <trkpt lat="43.03471" lon="0.92877">
        <ele>354</ele>
        <time>2021-03-13T12:00:41Z</time>
      </trkpt>
      <trkpt lat="43.03468" lon="0.92889">
        <ele>354</ele>
        <time>2021-03-13T12:00:42Z</time>
      </trkpt>
      <trkpt lat="43.03466" lon="0.92899">
        <ele>354</ele>
        <time>2021-03-13T12:00:43Z</time>
      </trkpt>
      <trkpt lat="43.03463" lon="0.9291">
        <ele>353</ele>
        <time>2021-03-13T12:00:44Z</time>
      </trkpt>
      <trkpt lat="43.0346" lon="0.92921">
        <ele>353</ele>
        <time>2021-03-13T12:00:45Z</time>
      </trkpt>
      <trkpt lat="43.03458" lon="0.92931">
        <ele>353</ele>
        <time>2021-03-13T12:00:46Z</time>
      </trkpt>
      <trkpt lat="43.03455" lon="0.92942">
        <ele>353</ele>
        <time>2021-03-13T12:00:47Z</time>
      </trkpt>
      <trkpt lat="43.03453" lon="0.92952">
        <ele>353</ele>
        <time>2021-03-13T12:00:48Z</time>
      </trkpt>
      <trkpt lat="43.03451" lon="0.92962">
        <ele>352</ele>
        <time>2021-03-13T12:00:49Z</time>
      </trkpt>
      <trkpt lat="43.03448" lon="0.92972">
        <ele>352</ele>
        <time>2021-03-13T12:00:50Z</time>
      </trkpt>
      <trkpt lat="43.03446" lon="0.92981">
        <ele>352</ele>
        <time>2021-03-13T12:00:51Z</time>
      </trkpt>
      <trkpt lat="43.03443" lon="0.92991">
        <ele>352</ele>
        <time>2021-03-13T12:00:52Z</time>
      </trkpt>
      <trkpt lat="43.03441" lon="0.93">
        <ele>352</ele>
        <time>2021-03-13T12:00:53Z</time>
      </trkpt>
      <trkpt lat="43.03438" lon="0.93009">
        <ele>352</ele>
        <time>2021-03-13T12:00:54Z</time>
      </trkpt>
      <trkpt lat="43.03434" lon="0.93017">
        <ele>352</ele>
        <time>2021-03-13T12:00:55Z</time>
      </trkpt>
      <trkpt lat="43.0343" lon="0.93023">
        <ele>352</ele>
        <time>2021-03-13T12:00:56Z</time>
      </trkpt>
      <trkpt lat="43.03425" lon="0.93025">
        <ele>352</ele>
        <time>2021-03-13T12:00:57Z</time>
      </trkpt>
      <trkpt lat="43.03419" lon="0.93022">
        <ele>352</ele>
        <time>2021-03-13T12:00:58Z</time>
      </trkpt>
      <trkpt lat="43.03414" lon="0.93018">
        <ele>350</ele>
        <time>2021-03-13T12:00:59Z</time>
      </trkpt>
      <trkpt lat="43.03409" lon="0.93013">
        <ele>350</ele>
        <time>2021-03-13T12:01:00Z</time>
      </trkpt>
      <trkpt lat="43.03403" lon="0.93008">
        <ele>350</ele>
        <time>2021-03-13T12:01:01Z</time>
      </trkpt>
      <trkpt lat="43.03397" lon="0.93003">
        <ele>350</ele>
        <time>2021-03-13T12:01:02Z</time>
      </trkpt>
      <trkpt lat="43.03391" lon="0.92998">
        <ele>350</ele>
        <time>2021-03-13T12:01:03Z</time>
      </trkpt>
      <trkpt lat="43.03386" lon="0.92992">
        <ele>350</ele>
        <time>2021-03-13T12:01:04Z</time>
      </trkpt>
      <trkpt lat="43.0338" lon="0.92986">
        <ele>350</ele>
        <time>2021-03-13T12:01:05Z</time>
      </trkpt>
      <trkpt lat="43.03375" lon="0.92979">
        <ele>350</ele>
        <time>2021-03-13T12:01:06Z</time>
      </trkpt>
      <trkpt lat="43.0337" lon="0.92973">
        <ele>350</ele>
        <time>2021-03-13T12:01:07Z</time>
      </trkpt>
      <trkpt lat="43.03365" lon="0.92967">
        <ele>350</ele>
        <time>2021-03-13T12:01:08Z</time>
      </trkpt>
      <trkpt lat="43.0336" lon="0.92961">
        <ele>349</ele>
        <time>2021-03-13T12:01:09Z</time>
      </trkpt>
      <trkpt lat="43.03354" lon="0.92957">
        <ele>349</ele>
        <time>2021-03-13T12:01:10Z</time>
      </trkpt>
      <trkpt lat="43.03348" lon="0.92953">
        <ele>349</ele>
        <time>2021-03-13T12:01:11Z</time>
      </trkpt>
      <trkpt lat="43.03342" lon="0.92949">
        <ele>349</ele>
        <time>2021-03-13T12:01:12Z</time>
      </trkpt>
      <trkpt lat="43.03336" lon="0.92946">
        <ele>349</ele>
        <time>2021-03-13T12:01:13Z</time>
      </trkpt>
      <trkpt lat="43.0333" lon="0.92943">
        <ele>349</ele>
        <time>2021-03-13T12:01:14Z</time>
      </trkpt>
      <trkpt lat="43.03324" lon="0.92939">
        <ele>349</ele>
        <time>2021-03-13T12:01:15Z</time>
      </trkpt>
      <trkpt lat="43.03318" lon="0.92936">
        <ele>349</ele>
        <time>2021-03-13T12:01:16Z</time>
      </trkpt>
      <trkpt lat="43.03312" lon="0.92933">
        <ele>349</ele>
        <time>2021-03-13T12:01:17Z</time>
      </trkpt>
      <trkpt lat="43.03307" lon="0.9293">
        <ele>349</ele>
        <time>2021-03-13T12:01:18Z</time>
      </trkpt>
      <trkpt lat="43.03301" lon="0.92926">
        <ele>348</ele>
        <time>2021-03-13T12:01:19Z</time>
      </trkpt>
      <trkpt lat="43.03295" lon="0.92924">
        <ele>348</ele>
        <time>2021-03-13T12:01:20Z</time>
      </trkpt>
      <trkpt lat="43.03289" lon="0.92921">
        <ele>348</ele>
        <time>2021-03-13T12:01:21Z</time>
      </trkpt>
      <trkpt lat="43.03284" lon="0.92918">
        <ele>348</ele>
        <time>2021-03-13T12:01:22Z</time>
      </trkpt>
      <trkpt lat="43.03278" lon="0.92915">
        <ele>348</ele>
        <time>2021-03-13T12:01:23Z</time>
      </trkpt>
      <trkpt lat="43.03272" lon="0.92913">
        <ele>348</ele>
        <time>2021-03-13T12:01:24Z</time>
      </trkpt>
      <trkpt lat="43.03267" lon="0.92912">
        <ele>348</ele>
        <time>2021-03-13T12:01:25Z</time>
      </trkpt>
      <trkpt lat="43.03261" lon="0.92911">
        <ele>348</ele>
        <time>2021-03-13T12:01:26Z</time>
      </trkpt>
      <trkpt lat="43.03256" lon="0.9291">
        <ele>348</ele>
        <time>2021-03-13T12:01:27Z</time>
      </trkpt>
      <trkpt lat="43.03256" lon="0.9291">
        <ele>348</ele>
        <time>2021-03-13T12:01:28Z</time>
      </trkpt>
      <trkpt lat="43.03244" lon="0.92908">
        <ele>349</ele>
        <time>2021-03-13T12:01:29Z</time>
      </trkpt>
      <trkpt lat="43.03237" lon="0.92907">
        <ele>349</ele>
        <time>2021-03-13T12:01:30Z</time>
      </trkpt>
      <trkpt lat="43.03231" lon="0.92905">
        <ele>349</ele>
        <time>2021-03-13T12:01:31Z</time>
      </trkpt>
      <trkpt lat="43.03225" lon="0.92903">
        <ele>349</ele>
        <time>2021-03-13T12:01:32Z</time>
      </trkpt>
      <trkpt lat="43.03219" lon="0.929">
        <ele>349</ele>
        <time>2021-03-13T12:01:33Z</time>
      </trkpt>
      <trkpt lat="43.03219" lon="0.929">
        <ele>349</ele>
        <time>2021-03-13T12:01:34Z</time>
      </trkpt>
      <trkpt lat="43.03208" lon="0.92894">
        <ele>349</ele>
        <time>2021-03-13T12:01:35Z</time>
      </trkpt>
      <trkpt lat="43.03202" lon="0.92889">
        <ele>349</ele>
        <time>2021-03-13T12:01:36Z</time>
      </trkpt>
      <trkpt lat="43.03197" lon="0.92885">
        <ele>349</ele>
        <time>2021-03-13T12:01:37Z</time>
      </trkpt>
      <trkpt lat="43.03191" lon="0.92881">
        <ele>349</ele>
        <time>2021-03-13T12:01:38Z</time>
      </trkpt>
      <trkpt lat="43.03186" lon="0.92877">
        <ele>349</ele>
        <time>2021-03-13T12:01:39Z</time>
      </trkpt>
      <trkpt lat="43.03181" lon="0.92873">
        <ele>349</ele>
        <time>2021-03-13T12:01:40Z</time>
      </trkpt>
      <trkpt lat="43.03176" lon="0.92869">
        <ele>349</ele>
        <time>2021-03-13T12:01:41Z</time>
      </trkpt>
      <trkpt lat="43.03172" lon="0.92866">
        <ele>349</ele>
        <time>2021-03-13T12:01:42Z</time>
      </trkpt>
      <trkpt lat="43.03167" lon="0.92863">
        <ele>349</ele>
        <time>2021-03-13T12:01:43Z</time>
      </trkpt>
      <trkpt lat="43.03162" lon="0.92861">
        <ele>349</ele>
        <time>2021-03-13T12:01:44Z</time>
      </trkpt>
      <trkpt lat="43.03157" lon="0.9286">
        <ele>349</ele>
        <time>2021-03-13T12:01:45Z</time>
      </trkpt>
      <trkpt lat="43.03151" lon="0.92858">
        <ele>349</ele>
        <time>2021-03-13T12:01:46Z</time>
      </trkpt>
      <trkpt lat="43.03146" lon="0.92856">
        <ele>349</ele>
        <time>2021-03-13T12:01:47Z</time>
      </trkpt>
      <trkpt lat="43.03141" lon="0.92854">
        <ele>349</ele>
        <time>2021-03-13T12:01:48Z</time>
      </trkpt>
      <trkpt lat="43.03136" lon="0.92852">
        <ele>349</ele>
        <time>2021-03-13T12:01:49Z</time>
      </trkpt>
      <trkpt lat="43.0313" lon="0.92849">
        <ele>349</ele>
        <time>2021-03-13T12:01:50Z</time>
      </trkpt>
      <trkpt lat="43.03125" lon="0.92846">
        <ele>349</ele>
        <time>2021-03-13T12:01:51Z</time>
      </trkpt>
      <trkpt lat="43.03125" lon="0.92846">
        <ele>349</ele>
        <time>2021-03-13T12:01:52Z</time>
      </trkpt>
      <trkpt lat="43.03114" lon="0.92841">
        <ele>349</ele>
        <time>2021-03-13T12:01:53Z</time>
      </trkpt>
      <trkpt lat="43.03109" lon="0.92838">
        <ele>349</ele>
        <time>2021-03-13T12:01:54Z</time>
      </trkpt>
      <trkpt lat="43.03104" lon="0.92835">
        <ele>349</ele>
        <time>2021-03-13T12:01:55Z</time>
      </trkpt>
      <trkpt lat="43.031" lon="0.92832">
        <ele>349</ele>
        <time>2021-03-13T12:01:56Z</time>
      </trkpt>
      <trkpt lat="43.03095" lon="0.92829">
        <ele>349</ele>
        <time>2021-03-13T12:01:57Z</time>
      </trkpt>
      <trkpt lat="43.0309" lon="0.92826">
        <ele>349</ele>
        <time>2021-03-13T12:01:58Z</time>
      </trkpt>
      <trkpt lat="43.03086" lon="0.92824">
        <ele>351</ele>
        <time>2021-03-13T12:01:59Z</time>
      </trkpt>
      <trkpt lat="43.03081" lon="0.92822">
        <ele>351</ele>
        <time>2021-03-13T12:02:00Z</time>
      </trkpt>
      <trkpt lat="43.03077" lon="0.92819">
        <ele>351</ele>
        <time>2021-03-13T12:02:01Z</time>
      </trkpt>
      <trkpt lat="43.03072" lon="0.92817">
        <ele>351</ele>
        <time>2021-03-13T12:02:02Z</time>
      </trkpt>
      <trkpt lat="43.03069" lon="0.92815">
        <ele>351</ele>
        <time>2021-03-13T12:02:03Z</time>
      </trkpt>
      <trkpt lat="43.03069" lon="0.92815">
        <ele>351</ele>
        <time>2021-03-13T12:02:04Z</time>
      </trkpt>
      <trkpt lat="43.03066" lon="0.92812">
        <ele>351</ele>
        <time>2021-03-13T12:02:05Z</time>
      </trkpt>
      <trkpt lat="43.03066" lon="0.92812">
        <ele>351</ele>
        <time>2021-03-13T12:02:06Z</time>
      </trkpt>
      <trkpt lat="43.03066" lon="0.92812">
        <ele>351</ele>
        <time>2021-03-13T12:02:07Z</time>
      </trkpt>
      <trkpt lat="43.03066" lon="0.92812">
        <ele>351</ele>
        <time>2021-03-13T12:02:08Z</time>
      </trkpt>
      <trkpt lat="43.03066" lon="0.92812">
        <ele>351</ele>
        <time>2021-03-13T12:02:09Z</time>
      </trkpt>
      <trkpt lat="43.03066" lon="0.92812">
        <ele>351</ele>
        <time>2021-03-13T12:02:10Z</time>
      </trkpt>
      <trkpt lat="43.03066" lon="0.92812">
        <ele>351</ele>
        <time>2021-03-13T12:02:11Z</time>
      </trkpt>
      <trkpt lat="43.03066" lon="0.92812">
        <ele>351</ele>
        <time>2021-03-13T12:02:12Z</time>
      </trkpt>
      <trkpt lat="43.03066" lon="0.92812">
        <ele>351</ele>
        <time>2021-03-13T12:02:13Z</time>
      </trkpt>
      <trkpt lat="43.03066" lon="0.92812">
        <ele>351</ele>
        <time>2021-03-13T12:02:14Z</time>
      </trkpt>
      <trkpt lat="43.03066" lon="0.92812">
        <ele>351</ele>
        <time>2021-03-13T12:02:15Z</time>
      </trkpt>
      <trkpt lat="43.03066" lon="0.92812">
        <ele>351</ele>
        <time>2021-03-13T12:02:16Z</time>
      </trkpt>
      <trkpt lat="43.03066" lon="0.92812">
        <ele>351</ele>
        <time>2021-03-13T12:02:17Z</time>
      </trkpt>
      <trkpt lat="43.03066" lon="0.92812">
        <ele>351</ele>
        <time>2021-03-13T12:02:18Z</time>
      </trkpt>
      <trkpt lat="43.03066" lon="0.92812">
        <ele>350</ele>
        <time>2021-03-13T12:02:19Z</time>
      </trkpt>
      <trkpt lat="43.03066" lon="0.92812">
        <ele>350</ele>
        <time>2021-03-13T12:02:20Z</time>
      </trkpt>
      <trkpt lat="43.03066" lon="0.92812">
        <ele>350</ele>
        <time>2021-03-13T12:02:21Z</time>
      </trkpt>
      <trkpt lat="43.03066" lon="0.92812">
        <ele>350</ele>
        <time>2021-03-13T12:02:22Z</time>
      </trkpt>
      <trkpt lat="43.03066" lon="0.92812">
        <ele>350</ele>
        <time>2021-03-13T12:02:23Z</time>
      </trkpt>
      <trkpt lat="43.03066" lon="0.92812">
        <ele>350</ele>
        <time>2021-03-13T12:02:24Z</time>
      </trkpt>
      <trkpt lat="43.03066" lon="0.92812">
        <ele>350</ele>
        <time>2021-03-13T12:02:25Z</time>
      </trkpt>
      <trkpt lat="43.03066" lon="0.92812">
        <ele>350</ele>
        <time>2021-03-13T12:02:26Z</time>
      </trkpt>
      <trkpt lat="43.03066" lon="0.92812">
        <ele>350</ele>
        <time>2021-03-13T12:02:27Z</time>
      </trkpt>
      <trkpt lat="43.03066" lon="0.92812">
        <ele>350</ele>
        <time>2021-03-13T12:02:28Z</time>
      </trkpt>
      <trkpt lat="43.03066" lon="0.92812">
        <ele>350</ele>
        <time>2021-03-13T12:02:29Z</time>
      </trkpt>
      <trkpt lat="43.03066" lon="0.92812">
        <ele>350</ele>
        <time>2021-03-13T12:02:30Z</time>
      </trkpt>
      <trkpt lat="43.03066" lon="0.92812">
        <ele>350</ele>
        <time>2021-03-13T12:02:31Z</time>
      </trkpt>
      <trkpt lat="43.03066" lon="0.92812">
        <ele>350</ele>
        <time>2021-03-13T12:02:32Z</time>
      </trkpt>
      <trkpt lat="43.03066" lon="0.92812">
        <ele>350</ele>
        <time>2021-03-13T12:02:33Z</time>
      </trkpt>
      <trkpt lat="43.03066" lon="0.92812">
        <ele>350</ele>
        <time>2021-03-13T12:02:34Z</time>
      </trkpt>
      <trkpt lat="43.03066" lon="0.92812">
        <ele>350</ele>
        <time>2021-03-13T12:02:35Z</time>
      </trkpt>
      <trkpt lat="43.03066" lon="0.92812">
        <ele>350</ele>
        <time>2021-03-13T12:02:36Z</time>
      </trkpt>
      <trkpt lat="43.03066" lon="0.92812">
        <ele>350</ele>
        <time>2021-03-13T12:02:37Z</time>
      </trkpt>
      <trkpt lat="43.03066" lon="0.92812">
        <ele>350</ele>
        <time>2021-03-13T12:02:38Z</time>
      </trkpt>
      <trkpt lat="43.03066" lon="0.92812">
        <ele>351</ele>
        <time>2021-03-13T12:02:39Z</time>
      </trkpt>
      <trkpt lat="43.03062" lon="0.92812">
        <ele>351</ele>
        <time>2021-03-13T12:02:40Z</time>
      </trkpt>
      <trkpt lat="43.03062" lon="0.92812">
        <ele>351</ele>
        <time>2021-03-13T12:02:41Z</time>
      </trkpt>
      <trkpt lat="43.03059" lon="0.92812">
        <ele>351</ele>
        <time>2021-03-13T12:02:42Z</time>
      </trkpt>
      <trkpt lat="43.03059" lon="0.92812">
        <ele>351</ele>
        <time>2021-03-13T12:02:43Z</time>
      </trkpt>
      <trkpt lat="43.03053" lon="0.92811">
        <ele>351</ele>
        <time>2021-03-13T12:02:44Z</time>
      </trkpt>
      <trkpt lat="43.03051" lon="0.9281">
        <ele>351</ele>
        <time>2021-03-13T12:02:45Z</time>
      </trkpt>
      <trkpt lat="43.03048" lon="0.92809">
        <ele>351</ele>
        <time>2021-03-13T12:02:46Z</time>
      </trkpt>
      <trkpt lat="43.03044" lon="0.92808">
        <ele>351</ele>
        <time>2021-03-13T12:02:47Z</time>
      </trkpt>
      <trkpt lat="43.0304" lon="0.92808">
        <ele>351</ele>
        <time>2021-03-13T12:02:48Z</time>
      </trkpt>
      <trkpt lat="43.03036" lon="0.92807">
        <ele>353</ele>
        <time>2021-03-13T12:02:49Z</time>
      </trkpt>
      <trkpt lat="43.03032" lon="0.92807">
        <ele>353</ele>
        <time>2021-03-13T12:02:50Z</time>
      </trkpt>
      <trkpt lat="43.03027" lon="0.92807">
        <ele>353</ele>
        <time>2021-03-13T12:02:51Z</time>
      </trkpt>
      <trkpt lat="43.03027" lon="0.92807">
        <ele>353</ele>
        <time>2021-03-13T12:02:52Z</time>
      </trkpt>
      <trkpt lat="43.03018" lon="0.92808">
        <ele>353</ele>
        <time>2021-03-13T12:02:53Z</time>
      </trkpt>
      <trkpt lat="43.03014" lon="0.92809">
        <ele>353</ele>
        <time>2021-03-13T12:02:54Z</time>
      </trkpt>
      <trkpt lat="43.03014" lon="0.92809">
        <ele>353</ele>
        <time>2021-03-13T12:02:55Z</time>
      </trkpt>
      <trkpt lat="43.03005" lon="0.92809">
        <ele>353</ele>
        <time>2021-03-13T12:02:56Z</time>
      </trkpt>
      <trkpt lat="43.03001" lon="0.9281">
        <ele>353</ele>
        <time>2021-03-13T12:02:57Z</time>
      </trkpt>
      <trkpt lat="43.02997" lon="0.9281">
        <ele>353</ele>
        <time>2021-03-13T12:02:58Z</time>
      </trkpt>
      <trkpt lat="43.02993" lon="0.92811">
        <ele>353</ele>
        <time>2021-03-13T12:02:59Z</time>
      </trkpt>
      <trkpt lat="43.02989" lon="0.9281">
        <ele>354</ele>
        <time>2021-03-13T12:03:00Z</time>
      </trkpt>
      <trkpt lat="43.02989" lon="0.9281">
        <ele>354</ele>
        <time>2021-03-13T12:03:01Z</time>
      </trkpt>
      <trkpt lat="43.02982" lon="0.9281">
        <ele>354</ele>
        <time>2021-03-13T12:03:02Z</time>
      </trkpt>
      <trkpt lat="43.02982" lon="0.9281">
        <ele>354</ele>
        <time>2021-03-13T12:03:03Z</time>
      </trkpt>
      <trkpt lat="43.02976" lon="0.92808">
        <ele>354</ele>
        <time>2021-03-13T12:03:04Z</time>
      </trkpt>
      <trkpt lat="43.02976" lon="0.92808">
        <ele>354</ele>
        <time>2021-03-13T12:03:05Z</time>
      </trkpt>
      <trkpt lat="43.0297" lon="0.92803">
        <ele>354</ele>
        <time>2021-03-13T12:03:06Z</time>
      </trkpt>
      <trkpt lat="43.02968" lon="0.92802">
        <ele>354</ele>
        <time>2021-03-13T12:03:07Z</time>
      </trkpt>
      <trkpt lat="43.02967" lon="0.92799">
        <ele>354</ele>
        <time>2021-03-13T12:03:08Z</time>
      </trkpt>
      <trkpt lat="43.02964" lon="0.92796">
        <ele>354</ele>
        <time>2021-03-13T12:03:09Z</time>
      </trkpt>
      <trkpt lat="43.02962" lon="0.92793">
        <ele>357</ele>
        <time>2021-03-13T12:03:10Z</time>
      </trkpt>
      <trkpt lat="43.0296" lon="0.9279">
        <ele>357</ele>
        <time>2021-03-13T12:03:11Z</time>
      </trkpt>
      <trkpt lat="43.02958" lon="0.92787">
        <ele>357</ele>
        <time>2021-03-13T12:03:12Z</time>
      </trkpt>
      <trkpt lat="43.02956" lon="0.92784">
        <ele>357</ele>
        <time>2021-03-13T12:03:13Z</time>
      </trkpt>
      <trkpt lat="43.02954" lon="0.9278">
        <ele>357</ele>
        <time>2021-03-13T12:03:14Z</time>
      </trkpt>
      <trkpt lat="43.02952" lon="0.92776">
        <ele>360</ele>
        <time>2021-03-13T12:03:15Z</time>
      </trkpt>
      <trkpt lat="43.0295" lon="0.92773">
        <ele>360</ele>
        <time>2021-03-13T12:03:16Z</time>
      </trkpt>
      <trkpt lat="43.02948" lon="0.92769">
        <ele>360</ele>
        <time>2021-03-13T12:03:17Z</time>
      </trkpt>
      <trkpt lat="43.02948" lon="0.92769">
        <ele>360</ele>
        <time>2021-03-13T12:03:18Z</time>
      </trkpt>
      <trkpt lat="43.02944" lon="0.92761">
        <ele>360</ele>
        <time>2021-03-13T12:03:19Z</time>
      </trkpt>
      <trkpt lat="43.02943" lon="0.9276">
        <ele>361</ele>
        <time>2021-03-13T12:03:20Z</time>
      </trkpt>
      <trkpt lat="43.02941" lon="0.92756">
        <ele>361</ele>
        <time>2021-03-13T12:03:21Z</time>
      </trkpt>
      <trkpt lat="43.02939" lon="0.92753">
        <ele>361</ele>
        <time>2021-03-13T12:03:22Z</time>
      </trkpt>
      <trkpt lat="43.02937" lon="0.92749">
        <ele>361</ele>
        <time>2021-03-13T12:03:23Z</time>
      </trkpt>
      <trkpt lat="43.02935" lon="0.92746">
        <ele>361</ele>
        <time>2021-03-13T12:03:24Z</time>
      </trkpt>
      <trkpt lat="43.02933" lon="0.92743">
        <ele>363</ele>
        <time>2021-03-13T12:03:25Z</time>
      </trkpt>
      <trkpt lat="43.02932" lon="0.9274">
        <ele>363</ele>
        <time>2021-03-13T12:03:26Z</time>
      </trkpt>
      <trkpt lat="43.02932" lon="0.9274">
        <ele>363</ele>
        <time>2021-03-13T12:03:27Z</time>
      </trkpt>
      <trkpt lat="43.02929" lon="0.92734">
        <ele>363</ele>
        <time>2021-03-13T12:03:28Z</time>
      </trkpt>
      <trkpt lat="43.02929" lon="0.92734">
        <ele>363</ele>
        <time>2021-03-13T12:03:29Z</time>
      </trkpt>
      <trkpt lat="43.02926" lon="0.92729">
        <ele>365</ele>
        <time>2021-03-13T12:03:30Z</time>
      </trkpt>
      <trkpt lat="43.02926" lon="0.92729">
        <ele>365</ele>
        <time>2021-03-13T12:03:31Z</time>
      </trkpt>
      <trkpt lat="43.02924" lon="0.92724">
        <ele>365</ele>
        <time>2021-03-13T12:03:32Z</time>
      </trkpt>
      <trkpt lat="43.02924" lon="0.92724">
        <ele>365</ele>
        <time>2021-03-13T12:03:33Z</time>
      </trkpt>
      <trkpt lat="43.0292" lon="0.92721">
        <ele>365</ele>
        <time>2021-03-13T12:03:34Z</time>
      </trkpt>
      <trkpt lat="43.0292" lon="0.92721">
        <ele>366</ele>
        <time>2021-03-13T12:03:35Z</time>
      </trkpt>
      <trkpt lat="43.02913" lon="0.92718">
        <ele>366</ele>
        <time>2021-03-13T12:03:36Z</time>
      </trkpt>
      <trkpt lat="43.02911" lon="0.92718">
        <ele>366</ele>
        <time>2021-03-13T12:03:37Z</time>
      </trkpt>
      <trkpt lat="43.02908" lon="0.92718">
        <ele>366</ele>
        <time>2021-03-13T12:03:38Z</time>
      </trkpt>
      <trkpt lat="43.02908" lon="0.92718">
        <ele>366</ele>
        <time>2021-03-13T12:03:39Z</time>
      </trkpt>
      <trkpt lat="43.029" lon="0.92717">
        <ele>368</ele>
        <time>2021-03-13T12:03:40Z</time>
      </trkpt>
      <trkpt lat="43.02898" lon="0.92717">
        <ele>368</ele>
        <time>2021-03-13T12:03:41Z</time>
      </trkpt>
      <trkpt lat="43.02898" lon="0.92717">
        <ele>368</ele>
        <time>2021-03-13T12:03:42Z</time>
      </trkpt>
      <trkpt lat="43.02892" lon="0.92717">
        <ele>368</ele>
        <time>2021-03-13T12:03:43Z</time>
      </trkpt>
      <trkpt lat="43.02892" lon="0.92717">
        <ele>368</ele>
        <time>2021-03-13T12:03:44Z</time>
      </trkpt>
      <trkpt lat="43.02886" lon="0.92716">
        <ele>370</ele>
        <time>2021-03-13T12:03:45Z</time>
      </trkpt>
      <trkpt lat="43.02886" lon="0.92716">
        <ele>370</ele>
        <time>2021-03-13T12:03:46Z</time>
      </trkpt>
      <trkpt lat="43.0288" lon="0.92716">
        <ele>370</ele>
        <time>2021-03-13T12:03:47Z</time>
      </trkpt>
      <trkpt lat="43.0288" lon="0.92716">
        <ele>370</ele>
        <time>2021-03-13T12:03:48Z</time>
      </trkpt>
      <trkpt lat="43.02875" lon="0.92716">
        <ele>370</ele>
        <time>2021-03-13T12:03:49Z</time>
      </trkpt>
      <trkpt lat="43.02875" lon="0.92716">
        <ele>371</ele>
        <time>2021-03-13T12:03:50Z</time>
      </trkpt>
      <trkpt lat="43.02867" lon="0.92714">
        <ele>371</ele>
        <time>2021-03-13T12:03:51Z</time>
      </trkpt>
      <trkpt lat="43.02866" lon="0.92714">
        <ele>371</ele>
        <time>2021-03-13T12:03:52Z</time>
      </trkpt>
      <trkpt lat="43.02862" lon="0.92714">
        <ele>371</ele>
        <time>2021-03-13T12:03:53Z</time>
      </trkpt>
      <trkpt lat="43.02859" lon="0.92714">
        <ele>371</ele>
        <time>2021-03-13T12:03:54Z</time>
      </trkpt>
      <trkpt lat="43.02856" lon="0.92714">
        <ele>372</ele>
        <time>2021-03-13T12:03:55Z</time>
      </trkpt>
      <trkpt lat="43.02856" lon="0.92714">
        <ele>372</ele>
        <time>2021-03-13T12:03:56Z</time>
      </trkpt>
      <trkpt lat="43.02849" lon="0.92713">
        <ele>372</ele>
        <time>2021-03-13T12:03:57Z</time>
      </trkpt>
      <trkpt lat="43.02849" lon="0.92713">
        <ele>372</ele>
        <time>2021-03-13T12:03:58Z</time>
      </trkpt>
      <trkpt lat="43.02841" lon="0.92712">
        <ele>372</ele>
        <time>2021-03-13T12:03:59Z</time>
      </trkpt>
      <trkpt lat="43.0284" lon="0.92712">
        <ele>374</ele>
        <time>2021-03-13T12:04:00Z</time>
      </trkpt>
      <trkpt lat="43.02836" lon="0.92712">
        <ele>374</ele>
        <time>2021-03-13T12:04:01Z</time>
      </trkpt>
      <trkpt lat="43.02833" lon="0.92711">
        <ele>374</ele>
        <time>2021-03-13T12:04:02Z</time>
      </trkpt>
      <trkpt lat="43.0283" lon="0.92711">
        <ele>374</ele>
        <time>2021-03-13T12:04:03Z</time>
      </trkpt>
      <trkpt lat="43.02826" lon="0.92711">
        <ele>374</ele>
        <time>2021-03-13T12:04:04Z</time>
      </trkpt>
      <trkpt lat="43.02823" lon="0.92711">
        <ele>373</ele>
        <time>2021-03-13T12:04:05Z</time>
      </trkpt>
      <trkpt lat="43.02819" lon="0.9271">
        <ele>373</ele>
        <time>2021-03-13T12:04:06Z</time>
      </trkpt>
      <trkpt lat="43.02816" lon="0.9271">
        <ele>373</ele>
        <time>2021-03-13T12:04:07Z</time>
      </trkpt>
      <trkpt lat="43.02812" lon="0.9271">
        <ele>373</ele>
        <time>2021-03-13T12:04:08Z</time>
      </trkpt>
      <trkpt lat="43.02808" lon="0.9271">
        <ele>373</ele>
        <time>2021-03-13T12:04:09Z</time>
      </trkpt>
      <trkpt lat="43.02805" lon="0.92709">
        <ele>374</ele>
        <time>2021-03-13T12:04:10Z</time>
      </trkpt>
      <trkpt lat="43.02801" lon="0.92709">
        <ele>374</ele>
        <time>2021-03-13T12:04:11Z</time>
      </trkpt>
      <trkpt lat="43.02798" lon="0.92709">
        <ele>374</ele>
        <time>2021-03-13T12:04:12Z</time>
      </trkpt>
      <trkpt lat="43.02794" lon="0.92708">
        <ele>374</ele>
        <time>2021-03-13T12:04:13Z</time>
      </trkpt>
      <trkpt lat="43.02791" lon="0.92708">
        <ele>374</ele>
        <time>2021-03-13T12:04:14Z</time>
      </trkpt>
      <trkpt lat="43.02787" lon="0.92707">
        <ele>374</ele>
        <time>2021-03-13T12:04:15Z</time>
      </trkpt>
      <trkpt lat="43.02784" lon="0.92707">
        <ele>374</ele>
        <time>2021-03-13T12:04:16Z</time>
      </trkpt>
      <trkpt lat="43.0278" lon="0.92707">
        <ele>374</ele>
        <time>2021-03-13T12:04:17Z</time>
      </trkpt>
      <trkpt lat="43.02777" lon="0.92707">
        <ele>374</ele>
        <time>2021-03-13T12:04:18Z</time>
      </trkpt>
      <trkpt lat="43.02773" lon="0.92706">
        <ele>374</ele>
        <time>2021-03-13T12:04:19Z</time>
      </trkpt>
      <trkpt lat="43.0277" lon="0.92706">
        <ele>376</ele>
        <time>2021-03-13T12:04:20Z</time>
      </trkpt>
      <trkpt lat="43.02766" lon="0.92705">
        <ele>376</ele>
        <time>2021-03-13T12:04:21Z</time>
      </trkpt>
      <trkpt lat="43.02763" lon="0.92705">
        <ele>376</ele>
        <time>2021-03-13T12:04:22Z</time>
      </trkpt>
      <trkpt lat="43.0276" lon="0.92704">
        <ele>376</ele>
        <time>2021-03-13T12:04:23Z</time>
      </trkpt>
      <trkpt lat="43.02757" lon="0.92704">
        <ele>376</ele>
        <time>2021-03-13T12:04:24Z</time>
      </trkpt>
      <trkpt lat="43.02757" lon="0.92704">
        <ele>376</ele>
        <time>2021-03-13T12:04:25Z</time>
      </trkpt>
      <trkpt lat="43.0275" lon="0.92702">
        <ele>376</ele>
        <time>2021-03-13T12:04:26Z</time>
      </trkpt>
      <trkpt lat="43.0275" lon="0.92702">
        <ele>376</ele>
        <time>2021-03-13T12:04:27Z</time>
      </trkpt>
      <trkpt lat="43.02743" lon="0.927">
        <ele>376</ele>
        <time>2021-03-13T12:04:28Z</time>
      </trkpt>
      <trkpt lat="43.02742" lon="0.92699">
        <ele>376</ele>
        <time>2021-03-13T12:04:29Z</time>
      </trkpt>
      <trkpt lat="43.02739" lon="0.92698">
        <ele>378</ele>
        <time>2021-03-13T12:04:30Z</time>
      </trkpt>
      <trkpt lat="43.02736" lon="0.92697">
        <ele>378</ele>
        <time>2021-03-13T12:04:31Z</time>
      </trkpt>
      <trkpt lat="43.02733" lon="0.92695">
        <ele>378</ele>
        <time>2021-03-13T12:04:32Z</time>
      </trkpt>
      <trkpt lat="43.0273" lon="0.92694">
        <ele>378</ele>
        <time>2021-03-13T12:04:33Z</time>
      </trkpt>
      <trkpt lat="43.0273" lon="0.92694">
        <ele>378</ele>
        <time>2021-03-13T12:04:34Z</time>
      </trkpt>
      <trkpt lat="43.02723" lon="0.92693">
        <ele>378</ele>
        <time>2021-03-13T12:04:35Z</time>
      </trkpt>
      <trkpt lat="43.02723" lon="0.92693">
        <ele>378</ele>
        <time>2021-03-13T12:04:36Z</time>
      </trkpt>
      <trkpt lat="43.02716" lon="0.92689">
        <ele>378</ele>
        <time>2021-03-13T12:04:37Z</time>
      </trkpt>
      <trkpt lat="43.02715" lon="0.92688">
        <ele>378</ele>
        <time>2021-03-13T12:04:38Z</time>
      </trkpt>
      <trkpt lat="43.02715" lon="0.92688">
        <ele>378</ele>
        <time>2021-03-13T12:04:39Z</time>
      </trkpt>
      <trkpt lat="43.02709" lon="0.92686">
        <ele>380</ele>
        <time>2021-03-13T12:04:40Z</time>
      </trkpt>
      <trkpt lat="43.02709" lon="0.92686">
        <ele>380</ele>
        <time>2021-03-13T12:04:41Z</time>
      </trkpt>
      <trkpt lat="43.02703" lon="0.92684">
        <ele>380</ele>
        <time>2021-03-13T12:04:42Z</time>
      </trkpt>
      <trkpt lat="43.02703" lon="0.92684">
        <ele>380</ele>
        <time>2021-03-13T12:04:43Z</time>
      </trkpt>
      <trkpt lat="43.02697" lon="0.92682">
        <ele>380</ele>
        <time>2021-03-13T12:04:44Z</time>
      </trkpt>
      <trkpt lat="43.02697" lon="0.92682">
        <ele>383</ele>
        <time>2021-03-13T12:04:45Z</time>
      </trkpt>
      <trkpt lat="43.02695" lon="0.92682">
        <ele>383</ele>
        <time>2021-03-13T12:04:46Z</time>
      </trkpt>
      <trkpt lat="43.02693" lon="0.92682">
        <ele>383</ele>
        <time>2021-03-13T12:04:47Z</time>
      </trkpt>
      <trkpt lat="43.02691" lon="0.92682">
        <ele>383</ele>
        <time>2021-03-13T12:04:48Z</time>
      </trkpt>
      <trkpt lat="43.02684" lon="0.92682">
        <ele>383</ele>
        <time>2021-03-13T12:04:49Z</time>
      </trkpt>
      <trkpt lat="43.02684" lon="0.92682">
        <ele>384</ele>
        <time>2021-03-13T12:04:50Z</time>
      </trkpt>
      <trkpt lat="43.02678" lon="0.92683">
        <ele>384</ele>
        <time>2021-03-13T12:04:51Z</time>
      </trkpt>
      <trkpt lat="43.02678" lon="0.92683">
        <ele>384</ele>
        <time>2021-03-13T12:04:52Z</time>
      </trkpt>
      <trkpt lat="43.02671" lon="0.92683">
        <ele>384</ele>
        <time>2021-03-13T12:04:53Z</time>
      </trkpt>
      <trkpt lat="43.02671" lon="0.92683">
        <ele>384</ele>
        <time>2021-03-13T12:04:54Z</time>
      </trkpt>
      <trkpt lat="43.02665" lon="0.92683">
        <ele>386</ele>
        <time>2021-03-13T12:04:55Z</time>
      </trkpt>
      <trkpt lat="43.02665" lon="0.92683">
        <ele>386</ele>
        <time>2021-03-13T12:04:56Z</time>
      </trkpt>
      <trkpt lat="43.02663" lon="0.92683">
        <ele>386</ele>
        <time>2021-03-13T12:04:57Z</time>
      </trkpt>
      <trkpt lat="43.0266" lon="0.92683">
        <ele>386</ele>
        <time>2021-03-13T12:04:58Z</time>
      </trkpt>
      <trkpt lat="43.02658" lon="0.92683">
        <ele>386</ele>
        <time>2021-03-13T12:04:59Z</time>
      </trkpt>
      <trkpt lat="43.02656" lon="0.92683">
        <ele>389</ele>
        <time>2021-03-13T12:05:00Z</time>
      </trkpt>
      <trkpt lat="43.02654" lon="0.92684">
        <ele>389</ele>
        <time>2021-03-13T12:05:01Z</time>
      </trkpt>
      <trkpt lat="43.02652" lon="0.92684">
        <ele>389</ele>
        <time>2021-03-13T12:05:02Z</time>
      </trkpt>
      <trkpt lat="43.02647" lon="0.92686">
        <ele>389</ele>
        <time>2021-03-13T12:05:03Z</time>
      </trkpt>
      <trkpt lat="43.02647" lon="0.92686">
        <ele>389</ele>
        <time>2021-03-13T12:05:04Z</time>
      </trkpt>
      <trkpt lat="43.02643" lon="0.92689">
        <ele>390</ele>
        <time>2021-03-13T12:05:05Z</time>
      </trkpt>
      <trkpt lat="43.02643" lon="0.92689">
        <ele>390</ele>
        <time>2021-03-13T12:05:06Z</time>
      </trkpt>
      <trkpt lat="43.02639" lon="0.92692">
        <ele>390</ele>
        <time>2021-03-13T12:05:07Z</time>
      </trkpt>
      <trkpt lat="43.02639" lon="0.92692">
        <ele>390</ele>
        <time>2021-03-13T12:05:08Z</time>
      </trkpt>
      <trkpt lat="43.02635" lon="0.92695">
        <ele>390</ele>
        <time>2021-03-13T12:05:09Z</time>
      </trkpt>
      <trkpt lat="43.02635" lon="0.92695">
        <ele>391</ele>
        <time>2021-03-13T12:05:10Z</time>
      </trkpt>
      <trkpt lat="43.02631" lon="0.92697">
        <ele>391</ele>
        <time>2021-03-13T12:05:11Z</time>
      </trkpt>
      <trkpt lat="43.02631" lon="0.92697">
        <ele>391</ele>
        <time>2021-03-13T12:05:12Z</time>
      </trkpt>
      <trkpt lat="43.02626" lon="0.92698">
        <ele>391</ele>
        <time>2021-03-13T12:05:13Z</time>
      </trkpt>
      <trkpt lat="43.02626" lon="0.92698">
        <ele>391</ele>
        <time>2021-03-13T12:05:14Z</time>
      </trkpt>
      <trkpt lat="43.02624" lon="0.92699">
        <ele>393</ele>
        <time>2021-03-13T12:05:15Z</time>
      </trkpt>
      <trkpt lat="43.02622" lon="0.92699">
        <ele>393</ele>
        <time>2021-03-13T12:05:16Z</time>
      </trkpt>
      <trkpt lat="43.0262" lon="0.927">
        <ele>393</ele>
        <time>2021-03-13T12:05:17Z</time>
      </trkpt>
      <trkpt lat="43.02619" lon="0.927">
        <ele>393</ele>
        <time>2021-03-13T12:05:18Z</time>
      </trkpt>
      <trkpt lat="43.02617" lon="0.927">
        <ele>393</ele>
        <time>2021-03-13T12:05:19Z</time>
      </trkpt>
      <trkpt lat="43.02615" lon="0.92701">
        <ele>396</ele>
        <time>2021-03-13T12:05:20Z</time>
      </trkpt>
      <trkpt lat="43.02613" lon="0.92701">
        <ele>396</ele>
        <time>2021-03-13T12:05:21Z</time>
      </trkpt>
      <trkpt lat="43.02611" lon="0.92701">
        <ele>396</ele>
        <time>2021-03-13T12:05:22Z</time>
      </trkpt>
      <trkpt lat="43.02609" lon="0.92701">
        <ele>396</ele>
        <time>2021-03-13T12:05:23Z</time>
      </trkpt>
      <trkpt lat="43.02607" lon="0.92701">
        <ele>396</ele>
        <time>2021-03-13T12:05:24Z</time>
      </trkpt>
      <trkpt lat="43.02605" lon="0.927">
        <ele>397</ele>
        <time>2021-03-13T12:05:25Z</time>
      </trkpt>
      <trkpt lat="43.02603" lon="0.927">
        <ele>397</ele>
        <time>2021-03-13T12:05:26Z</time>
      </trkpt>
      <trkpt lat="43.02602" lon="0.92701">
        <ele>397</ele>
        <time>2021-03-13T12:05:27Z</time>
      </trkpt>
      <trkpt lat="43.026" lon="0.92701">
        <ele>397</ele>
        <time>2021-03-13T12:05:28Z</time>
      </trkpt>
      <trkpt lat="43.02599" lon="0.92702">
        <ele>397</ele>
        <time>2021-03-13T12:05:29Z</time>
      </trkpt>
      <trkpt lat="43.02597" lon="0.92703">
        <ele>399</ele>
        <time>2021-03-13T12:05:30Z</time>
      </trkpt>
      <trkpt lat="43.02596" lon="0.92704">
        <ele>399</ele>
        <time>2021-03-13T12:05:31Z</time>
      </trkpt>
      <trkpt lat="43.02595" lon="0.92705">
        <ele>399</ele>
        <time>2021-03-13T12:05:32Z</time>
      </trkpt>
      <trkpt lat="43.02594" lon="0.92706">
        <ele>399</ele>
        <time>2021-03-13T12:05:33Z</time>
      </trkpt>
      <trkpt lat="43.02593" lon="0.92707">
        <ele>399</ele>
        <time>2021-03-13T12:05:34Z</time>
      </trkpt>
      <trkpt lat="43.02592" lon="0.92708">
        <ele>401</ele>
        <time>2021-03-13T12:05:35Z</time>
      </trkpt>
      <trkpt lat="43.02591" lon="0.92709">
        <ele>401</ele>
        <time>2021-03-13T12:05:36Z</time>
      </trkpt>
      <trkpt lat="43.0259" lon="0.9271">
        <ele>401</ele>
        <time>2021-03-13T12:05:37Z</time>
      </trkpt>
      <trkpt lat="43.02589" lon="0.92711">
        <ele>401</ele>
        <time>2021-03-13T12:05:38Z</time>
      </trkpt>
      <trkpt lat="43.02588" lon="0.92712">
        <ele>401</ele>
        <time>2021-03-13T12:05:39Z</time>
      </trkpt>
      <trkpt lat="43.02587" lon="0.92713">
        <ele>403</ele>
        <time>2021-03-13T12:05:40Z</time>
      </trkpt>
      <trkpt lat="43.02585" lon="0.92714">
        <ele>403</ele>
        <time>2021-03-13T12:05:41Z</time>
      </trkpt>
      <trkpt lat="43.02584" lon="0.92715">
        <ele>403</ele>
        <time>2021-03-13T12:05:42Z</time>
      </trkpt>
      <trkpt lat="43.02582" lon="0.92716">
        <ele>403</ele>
        <time>2021-03-13T12:05:43Z</time>
      </trkpt>
      <trkpt lat="43.0258" lon="0.92717">
        <ele>403</ele>
        <time>2021-03-13T12:05:44Z</time>
      </trkpt>
      <trkpt lat="43.02578" lon="0.92718">
        <ele>403</ele>
        <time>2021-03-13T12:05:45Z</time>
      </trkpt>
      <trkpt lat="43.02576" lon="0.92719">
        <ele>403</ele>
        <time>2021-03-13T12:05:46Z</time>
      </trkpt>
      <trkpt lat="43.02574" lon="0.92721">
        <ele>403</ele>
        <time>2021-03-13T12:05:47Z</time>
      </trkpt>
      <trkpt lat="43.02572" lon="0.92722">
        <ele>403</ele>
        <time>2021-03-13T12:05:48Z</time>
      </trkpt>
      <trkpt lat="43.0257" lon="0.92723">
        <ele>403</ele>
        <time>2021-03-13T12:05:49Z</time>
      </trkpt>
      <trkpt lat="43.02568" lon="0.92724">
        <ele>404</ele>
        <time>2021-03-13T12:05:50Z</time>
      </trkpt>
      <trkpt lat="43.02567" lon="0.92725">
        <ele>404</ele>
        <time>2021-03-13T12:05:51Z</time>
      </trkpt>
      <trkpt lat="43.02564" lon="0.92726">
        <ele>404</ele>
        <time>2021-03-13T12:05:52Z</time>
      </trkpt>
      <trkpt lat="43.02562" lon="0.92727">
        <ele>404</ele>
        <time>2021-03-13T12:05:53Z</time>
      </trkpt>
      <trkpt lat="43.0256" lon="0.92728">
        <ele>404</ele>
        <time>2021-03-13T12:05:54Z</time>
      </trkpt>
      <trkpt lat="43.02559" lon="0.92729">
        <ele>404</ele>
        <time>2021-03-13T12:05:55Z</time>
      </trkpt>
      <trkpt lat="43.02558" lon="0.9273">
        <ele>404</ele>
        <time>2021-03-13T12:05:56Z</time>
      </trkpt>
      <trkpt lat="43.02556" lon="0.92731">
        <ele>404</ele>
        <time>2021-03-13T12:05:57Z</time>
      </trkpt>
      <trkpt lat="43.02555" lon="0.92732">
        <ele>404</ele>
        <time>2021-03-13T12:05:58Z</time>
      </trkpt>
      <trkpt lat="43.02553" lon="0.92733">
        <ele>404</ele>
        <time>2021-03-13T12:05:59Z</time>
      </trkpt>
      <trkpt lat="43.02551" lon="0.92734">
        <ele>408</ele>
        <time>2021-03-13T12:06:00Z</time>
      </trkpt>
      <trkpt lat="43.0255" lon="0.92735">
        <ele>408</ele>
        <time>2021-03-13T12:06:01Z</time>
      </trkpt>
      <trkpt lat="43.02548" lon="0.92737">
        <ele>408</ele>
        <time>2021-03-13T12:06:02Z</time>
      </trkpt>
      <trkpt lat="43.02546" lon="0.92738">
        <ele>408</ele>
        <time>2021-03-13T12:06:03Z</time>
      </trkpt>
      <trkpt lat="43.02545" lon="0.92739">
        <ele>408</ele>
        <time>2021-03-13T12:06:04Z</time>
      </trkpt>
      <trkpt lat="43.02543" lon="0.92741">
        <ele>409</ele>
        <time>2021-03-13T12:06:05Z</time>
      </trkpt>
      <trkpt lat="43.02542" lon="0.92742">
        <ele>409</ele>
        <time>2021-03-13T12:06:06Z</time>
      </trkpt>
      <trkpt lat="43.02541" lon="0.92743">
        <ele>409</ele>
        <time>2021-03-13T12:06:07Z</time>
      </trkpt>
      <trkpt lat="43.02539" lon="0.92745">
        <ele>409</ele>
        <time>2021-03-13T12:06:08Z</time>
      </trkpt>
      <trkpt lat="43.02538" lon="0.92747">
        <ele>409</ele>
        <time>2021-03-13T12:06:09Z</time>
      </trkpt>
      <trkpt lat="43.02536" lon="0.92748">
        <ele>409</ele>
        <time>2021-03-13T12:06:10Z</time>
      </trkpt>
      <trkpt lat="43.02535" lon="0.9275">
        <ele>409</ele>
        <time>2021-03-13T12:06:11Z</time>
      </trkpt>
      <trkpt lat="43.02533" lon="0.92751">
        <ele>409</ele>
        <time>2021-03-13T12:06:12Z</time>
      </trkpt>
      <trkpt lat="43.02532" lon="0.92753">
        <ele>409</ele>
        <time>2021-03-13T12:06:13Z</time>
      </trkpt>
      <trkpt lat="43.02531" lon="0.92755">
        <ele>409</ele>
        <time>2021-03-13T12:06:14Z</time>
      </trkpt>
      <trkpt lat="43.02529" lon="0.92757">
        <ele>409</ele>
        <time>2021-03-13T12:06:15Z</time>
      </trkpt>
      <trkpt lat="43.02528" lon="0.92759">
        <ele>409</ele>
        <time>2021-03-13T12:06:16Z</time>
      </trkpt>
      <trkpt lat="43.02527" lon="0.9276">
        <ele>409</ele>
        <time>2021-03-13T12:06:17Z</time>
      </trkpt>
      <trkpt lat="43.02525" lon="0.92762">
        <ele>409</ele>
        <time>2021-03-13T12:06:18Z</time>
      </trkpt>
      <trkpt lat="43.02523" lon="0.92764">
        <ele>409</ele>
        <time>2021-03-13T12:06:19Z</time>
      </trkpt>
      <trkpt lat="43.02521" lon="0.92766">
        <ele>411</ele>
        <time>2021-03-13T12:06:20Z</time>
      </trkpt>
      <trkpt lat="43.0252" lon="0.92767">
        <ele>411</ele>
        <time>2021-03-13T12:06:21Z</time>
      </trkpt>
      <trkpt lat="43.02518" lon="0.92769">
        <ele>411</ele>
        <time>2021-03-13T12:06:22Z</time>
      </trkpt>
      <trkpt lat="43.02515" lon="0.92771">
        <ele>411</ele>
        <time>2021-03-13T12:06:23Z</time>
      </trkpt>
      <trkpt lat="43.02513" lon="0.92772">
        <ele>411</ele>
        <time>2021-03-13T12:06:24Z</time>
      </trkpt>
      <trkpt lat="43.02512" lon="0.92774">
        <ele>411</ele>
        <time>2021-03-13T12:06:25Z</time>
      </trkpt>
      <trkpt lat="43.02511" lon="0.92776">
        <ele>411</ele>
        <time>2021-03-13T12:06:26Z</time>
      </trkpt>
      <trkpt lat="43.02509" lon="0.92778">
        <ele>411</ele>
        <time>2021-03-13T12:06:27Z</time>
      </trkpt>
      <trkpt lat="43.02508" lon="0.9278">
        <ele>411</ele>
        <time>2021-03-13T12:06:28Z</time>
      </trkpt>
      <trkpt lat="43.02507" lon="0.92781">
        <ele>411</ele>
        <time>2021-03-13T12:06:29Z</time>
      </trkpt>
      <trkpt lat="43.02506" lon="0.92783">
        <ele>414</ele>
        <time>2021-03-13T12:06:30Z</time>
      </trkpt>
      <trkpt lat="43.02505" lon="0.92785">
        <ele>414</ele>
        <time>2021-03-13T12:06:31Z</time>
      </trkpt>
      <trkpt lat="43.02504" lon="0.92787">
        <ele>414</ele>
        <time>2021-03-13T12:06:32Z</time>
      </trkpt>
      <trkpt lat="43.02503" lon="0.92789">
        <ele>414</ele>
        <time>2021-03-13T12:06:33Z</time>
      </trkpt>
      <trkpt lat="43.02502" lon="0.92791">
        <ele>414</ele>
        <time>2021-03-13T12:06:34Z</time>
      </trkpt>
      <trkpt lat="43.02501" lon="0.92792">
        <ele>416</ele>
        <time>2021-03-13T12:06:35Z</time>
      </trkpt>
      <trkpt lat="43.025" lon="0.92794">
        <ele>416</ele>
        <time>2021-03-13T12:06:36Z</time>
      </trkpt>
      <trkpt lat="43.02499" lon="0.92795">
        <ele>416</ele>
        <time>2021-03-13T12:06:37Z</time>
      </trkpt>
      <trkpt lat="43.02498" lon="0.92797">
        <ele>416</ele>
        <time>2021-03-13T12:06:38Z</time>
      </trkpt>
      <trkpt lat="43.02496" lon="0.92799">
        <ele>416</ele>
        <time>2021-03-13T12:06:39Z</time>
      </trkpt>
      <trkpt lat="43.02495" lon="0.928">
        <ele>417</ele>
        <time>2021-03-13T12:06:40Z</time>
      </trkpt>
      <trkpt lat="43.02494" lon="0.92802">
        <ele>417</ele>
        <time>2021-03-13T12:06:41Z</time>
      </trkpt>
      <trkpt lat="43.02493" lon="0.92804">
        <ele>417</ele>
        <time>2021-03-13T12:06:42Z</time>
      </trkpt>
      <trkpt lat="43.02491" lon="0.92805">
        <ele>417</ele>
        <time>2021-03-13T12:06:43Z</time>
      </trkpt>
      <trkpt lat="43.0249" lon="0.92807">
        <ele>417</ele>
        <time>2021-03-13T12:06:44Z</time>
      </trkpt>
      <trkpt lat="43.02488" lon="0.92809">
        <ele>419</ele>
        <time>2021-03-13T12:06:45Z</time>
      </trkpt>
      <trkpt lat="43.02487" lon="0.9281">
        <ele>419</ele>
        <time>2021-03-13T12:06:46Z</time>
      </trkpt>
      <trkpt lat="43.02486" lon="0.92811">
        <ele>419</ele>
        <time>2021-03-13T12:06:47Z</time>
      </trkpt>
      <trkpt lat="43.02485" lon="0.92812">
        <ele>419</ele>
        <time>2021-03-13T12:06:48Z</time>
      </trkpt>
      <trkpt lat="43.02484" lon="0.92813">
        <ele>419</ele>
        <time>2021-03-13T12:06:49Z</time>
      </trkpt>
      <trkpt lat="43.02483" lon="0.92814">
        <ele>421</ele>
        <time>2021-03-13T12:06:50Z</time>
      </trkpt>
      <trkpt lat="43.02482" lon="0.92816">
        <ele>421</ele>
        <time>2021-03-13T12:06:51Z</time>
      </trkpt>
      <trkpt lat="43.02481" lon="0.92817">
        <ele>421</ele>
        <time>2021-03-13T12:06:52Z</time>
      </trkpt>
      <trkpt lat="43.02479" lon="0.92818">
        <ele>421</ele>
        <time>2021-03-13T12:06:53Z</time>
      </trkpt>
      <trkpt lat="43.02478" lon="0.92819">
        <ele>421</ele>
        <time>2021-03-13T12:06:54Z</time>
      </trkpt>
      <trkpt lat="43.02477" lon="0.9282">
        <ele>421</ele>
        <time>2021-03-13T12:06:55Z</time>
      </trkpt>
      <trkpt lat="43.02476" lon="0.92821">
        <ele>421</ele>
        <time>2021-03-13T12:06:56Z</time>
      </trkpt>
      <trkpt lat="43.02475" lon="0.92822">
        <ele>421</ele>
        <time>2021-03-13T12:06:57Z</time>
      </trkpt>
      <trkpt lat="43.02473" lon="0.92823">
        <ele>421</ele>
        <time>2021-03-13T12:06:58Z</time>
      </trkpt>
      <trkpt lat="43.02472" lon="0.92823">
        <ele>421</ele>
        <time>2021-03-13T12:06:59Z</time>
      </trkpt>
      <trkpt lat="43.02471" lon="0.92824">
        <ele>423</ele>
        <time>2021-03-13T12:07:00Z</time>
      </trkpt>
      <trkpt lat="43.0247" lon="0.92825">
        <ele>423</ele>
        <time>2021-03-13T12:07:01Z</time>
      </trkpt>
      <trkpt lat="43.02468" lon="0.92826">
        <ele>423</ele>
        <time>2021-03-13T12:07:02Z</time>
      </trkpt>
      <trkpt lat="43.02467" lon="0.92827">
        <ele>423</ele>
        <time>2021-03-13T12:07:03Z</time>
      </trkpt>
      <trkpt lat="43.02466" lon="0.92828">
        <ele>423</ele>
        <time>2021-03-13T12:07:04Z</time>
      </trkpt>
      <trkpt lat="43.02464" lon="0.9283">
        <ele>425</ele>
        <time>2021-03-13T12:07:05Z</time>
      </trkpt>
      <trkpt lat="43.02463" lon="0.92831">
        <ele>425</ele>
        <time>2021-03-13T12:07:06Z</time>
      </trkpt>
      <trkpt lat="43.02461" lon="0.92832">
        <ele>425</ele>
        <time>2021-03-13T12:07:07Z</time>
      </trkpt>
      <trkpt lat="43.02459" lon="0.92834">
        <ele>425</ele>
        <time>2021-03-13T12:07:08Z</time>
      </trkpt>
      <trkpt lat="43.02457" lon="0.92835">
        <ele>425</ele>
        <time>2021-03-13T12:07:09Z</time>
      </trkpt>
      <trkpt lat="43.02456" lon="0.92837">
        <ele>427</ele>
        <time>2021-03-13T12:07:10Z</time>
      </trkpt>
      <trkpt lat="43.02454" lon="0.92838">
        <ele>427</ele>
        <time>2021-03-13T12:07:11Z</time>
      </trkpt>
      <trkpt lat="43.02453" lon="0.92839">
        <ele>427</ele>
        <time>2021-03-13T12:07:12Z</time>
      </trkpt>
      <trkpt lat="43.02451" lon="0.92841">
        <ele>427</ele>
        <time>2021-03-13T12:07:13Z</time>
      </trkpt>
      <trkpt lat="43.0245" lon="0.92842">
        <ele>427</ele>
        <time>2021-03-13T12:07:14Z</time>
      </trkpt>
      <trkpt lat="43.02448" lon="0.92844">
        <ele>428</ele>
        <time>2021-03-13T12:07:15Z</time>
      </trkpt>
      <trkpt lat="43.02447" lon="0.92845">
        <ele>428</ele>
        <time>2021-03-13T12:07:16Z</time>
      </trkpt>
      <trkpt lat="43.02445" lon="0.92846">
        <ele>428</ele>
        <time>2021-03-13T12:07:17Z</time>
      </trkpt>
      <trkpt lat="43.02446" lon="0.92846">
        <ele>428</ele>
        <time>2021-03-13T12:07:18Z</time>
      </trkpt>
      <trkpt lat="43.02446" lon="0.92845">
        <ele>428</ele>
        <time>2021-03-13T12:07:19Z</time>
      </trkpt>
      <trkpt lat="43.02447" lon="0.92845">
        <ele>429</ele>
        <time>2021-03-13T12:07:20Z</time>
      </trkpt>
      <trkpt lat="43.02448" lon="0.92844">
        <ele>429</ele>
        <time>2021-03-13T12:07:21Z</time>
      </trkpt>
      <trkpt lat="43.02448" lon="0.92843">
        <ele>429</ele>
        <time>2021-03-13T12:07:22Z</time>
      </trkpt>
      <trkpt lat="43.02449" lon="0.92843">
        <ele>429</ele>
        <time>2021-03-13T12:07:23Z</time>
      </trkpt>
      <trkpt lat="43.02449" lon="0.92842">
        <ele>429</ele>
        <time>2021-03-13T12:07:24Z</time>
      </trkpt>
      <trkpt lat="43.0245" lon="0.92842">
        <ele>428</ele>
        <time>2021-03-13T12:07:25Z</time>
      </trkpt>
      <trkpt lat="43.02451" lon="0.92841">
        <ele>428</ele>
        <time>2021-03-13T12:07:26Z</time>
      </trkpt>
      <trkpt lat="43.02451" lon="0.92841">
        <ele>428</ele>
        <time>2021-03-13T12:07:27Z</time>
      </trkpt>
      <trkpt lat="43.02452" lon="0.9284">
        <ele>428</ele>
        <time>2021-03-13T12:07:28Z</time>
      </trkpt>
      <trkpt lat="43.02452" lon="0.9284">
        <ele>428</ele>
        <time>2021-03-13T12:07:29Z</time>
      </trkpt>
      <trkpt lat="43.02458" lon="0.92835">
        <ele>427</ele>
        <time>2021-03-13T12:07:30Z</time>
      </trkpt>
      <trkpt lat="43.02463" lon="0.92831">
        <ele>427</ele>
        <time>2021-03-13T12:07:31Z</time>
      </trkpt>
      <trkpt lat="43.02469" lon="0.92827">
        <ele>427</ele>
        <time>2021-03-13T12:07:32Z</time>
      </trkpt>
      <trkpt lat="43.02477" lon="0.9282">
        <ele>427</ele>
        <time>2021-03-13T12:07:33Z</time>
      </trkpt>
      <trkpt lat="43.0248" lon="0.92816">
        <ele>427</ele>
        <time>2021-03-13T12:07:34Z</time>
      </trkpt>
      <trkpt lat="43.02488" lon="0.92806">
        <ele>423</ele>
        <time>2021-03-13T12:07:35Z</time>
      </trkpt>
      <trkpt lat="43.02491" lon="0.92802">
        <ele>423</ele>
        <time>2021-03-13T12:07:36Z</time>
      </trkpt>
      <trkpt lat="43.02496" lon="0.92794">
        <ele>423</ele>
        <time>2021-03-13T12:07:37Z</time>
      </trkpt>
      <trkpt lat="43.02496" lon="0.92794">
        <ele>423</ele>
        <time>2021-03-13T12:07:38Z</time>
      </trkpt>
      <trkpt lat="43.02496" lon="0.92789">
        <ele>423</ele>
        <time>2021-03-13T12:07:39Z</time>
      </trkpt>
      <trkpt lat="43.02497" lon="0.92784">
        <ele>421</ele>
        <time>2021-03-13T12:07:40Z</time>
      </trkpt>
      <trkpt lat="43.02498" lon="0.92779">
        <ele>420</ele>
        <time>2021-03-13T12:07:41Z</time>
      </trkpt>
      <trkpt lat="43.02498" lon="0.92775">
        <ele>420</ele>
        <time>2021-03-13T12:07:42Z</time>
      </trkpt>
      <trkpt lat="43.02498" lon="0.92771">
        <ele>420</ele>
        <time>2021-03-13T12:07:43Z</time>
      </trkpt>
      <trkpt lat="43.02498" lon="0.92767">
        <ele>420</ele>
        <time>2021-03-13T12:07:44Z</time>
      </trkpt>
      <trkpt lat="43.02499" lon="0.92764">
        <ele>420</ele>
        <time>2021-03-13T12:07:45Z</time>
      </trkpt>
      <trkpt lat="43.025" lon="0.92761">
        <ele>421</ele>
        <time>2021-03-13T12:07:46Z</time>
      </trkpt>
      <trkpt lat="43.02501" lon="0.92758">
        <ele>421</ele>
        <time>2021-03-13T12:07:47Z</time>
      </trkpt>
      <trkpt lat="43.02502" lon="0.92755">
        <ele>420</ele>
        <time>2021-03-13T12:07:48Z</time>
      </trkpt>
      <trkpt lat="43.02503" lon="0.92753">
        <ele>420</ele>
        <time>2021-03-13T12:07:49Z</time>
      </trkpt>
      <trkpt lat="43.02504" lon="0.92751">
        <ele>420</ele>
        <time>2021-03-13T12:07:50Z</time>
      </trkpt>
      <trkpt lat="43.02504" lon="0.92748">
        <ele>420</ele>
        <time>2021-03-13T12:07:51Z</time>
      </trkpt>
      <trkpt lat="43.02505" lon="0.92746">
        <ele>420</ele>
        <time>2021-03-13T12:07:52Z</time>
      </trkpt>
      <trkpt lat="43.02506" lon="0.92744">
        <ele>420</ele>
        <time>2021-03-13T12:07:53Z</time>
      </trkpt>
      <trkpt lat="43.02507" lon="0.92741">
        <ele>420</ele>
        <time>2021-03-13T12:07:54Z</time>
      </trkpt>
      <trkpt lat="43.02509" lon="0.92739">
        <ele>420</ele>
        <time>2021-03-13T12:07:55Z</time>
      </trkpt>
      <trkpt lat="43.0251" lon="0.92736">
        <ele>420</ele>
        <time>2021-03-13T12:07:56Z</time>
      </trkpt>
      <trkpt lat="43.02511" lon="0.92734">
        <ele>420</ele>
        <time>2021-03-13T12:07:57Z</time>
      </trkpt>
      <trkpt lat="43.02512" lon="0.92732">
        <ele>420</ele>
        <time>2021-03-13T12:07:58Z</time>
      </trkpt>
      <trkpt lat="43.02513" lon="0.9273">
        <ele>420</ele>
        <time>2021-03-13T12:07:59Z</time>
      </trkpt>
      <trkpt lat="43.02514" lon="0.92728">
        <ele>422</ele>
        <time>2021-03-13T12:08:00Z</time>
      </trkpt>
      <trkpt lat="43.02515" lon="0.92726">
        <ele>422</ele>
        <time>2021-03-13T12:08:01Z</time>
      </trkpt>
      <trkpt lat="43.02516" lon="0.92723">
        <ele>422</ele>
        <time>2021-03-13T12:08:02Z</time>
      </trkpt>
      <trkpt lat="43.02517" lon="0.92722">
        <ele>422</ele>
        <time>2021-03-13T12:08:03Z</time>
      </trkpt>
      <trkpt lat="43.02519" lon="0.9272">
        <ele>422</ele>
        <time>2021-03-13T12:08:04Z</time>
      </trkpt>
      <trkpt lat="43.0252" lon="0.92718">
        <ele>423</ele>
        <time>2021-03-13T12:08:05Z</time>
      </trkpt>
      <trkpt lat="43.02522" lon="0.92716">
        <ele>423</ele>
        <time>2021-03-13T12:08:06Z</time>
      </trkpt>
      <trkpt lat="43.02523" lon="0.92713">
        <ele>423</ele>
        <time>2021-03-13T12:08:07Z</time>
      </trkpt>
      <trkpt lat="43.02524" lon="0.9271">
        <ele>423</ele>
        <time>2021-03-13T12:08:08Z</time>
      </trkpt>
      <trkpt lat="43.02525" lon="0.92707">
        <ele>423</ele>
        <time>2021-03-13T12:08:09Z</time>
      </trkpt>
      <trkpt lat="43.02527" lon="0.92704">
        <ele>424</ele>
        <time>2021-03-13T12:08:10Z</time>
      </trkpt>
      <trkpt lat="43.02527" lon="0.92701">
        <ele>424</ele>
        <time>2021-03-13T12:08:11Z</time>
      </trkpt>
      <trkpt lat="43.02527" lon="0.92699">
        <ele>424</ele>
        <time>2021-03-13T12:08:12Z</time>
      </trkpt>
      <trkpt lat="43.02528" lon="0.92696">
        <ele>424</ele>
        <time>2021-03-13T12:08:13Z</time>
      </trkpt>
      <trkpt lat="43.02528" lon="0.92693">
        <ele>424</ele>
        <time>2021-03-13T12:08:14Z</time>
      </trkpt>
      <trkpt lat="43.02529" lon="0.92691">
        <ele>424</ele>
        <time>2021-03-13T12:08:15Z</time>
      </trkpt>
      <trkpt lat="43.02529" lon="0.92689">
        <ele>424</ele>
        <time>2021-03-13T12:08:16Z</time>
      </trkpt>
      <trkpt lat="43.02529" lon="0.92687">
        <ele>424</ele>
        <time>2021-03-13T12:08:17Z</time>
      </trkpt>
      <trkpt lat="43.0253" lon="0.92685">
        <ele>424</ele>
        <time>2021-03-13T12:08:18Z</time>
      </trkpt>
      <trkpt lat="43.0253" lon="0.92682">
        <ele>424</ele>
        <time>2021-03-13T12:08:19Z</time>
      </trkpt>
      <trkpt lat="43.0253" lon="0.9268">
        <ele>427</ele>
        <time>2021-03-13T12:08:20Z</time>
      </trkpt>
      <trkpt lat="43.0253" lon="0.92677">
        <ele>427</ele>
        <time>2021-03-13T12:08:21Z</time>
      </trkpt>
      <trkpt lat="43.02529" lon="0.92675">
        <ele>427</ele>
        <time>2021-03-13T12:08:22Z</time>
      </trkpt>
      <trkpt lat="43.02529" lon="0.92672">
        <ele>427</ele>
        <time>2021-03-13T12:08:23Z</time>
      </trkpt>
      <trkpt lat="43.02529" lon="0.9267">
        <ele>427</ele>
        <time>2021-03-13T12:08:24Z</time>
      </trkpt>
      <trkpt lat="43.02529" lon="0.92667">
        <ele>428</ele>
        <time>2021-03-13T12:08:25Z</time>
      </trkpt>
      <trkpt lat="43.0253" lon="0.92665">
        <ele>428</ele>
        <time>2021-03-13T12:08:26Z</time>
      </trkpt>
      <trkpt lat="43.0253" lon="0.92662">
        <ele>428</ele>
        <time>2021-03-13T12:08:27Z</time>
      </trkpt>
      <trkpt lat="43.0253" lon="0.9266">
        <ele>428</ele>
        <time>2021-03-13T12:08:28Z</time>
      </trkpt>
      <trkpt lat="43.02531" lon="0.92657">
        <ele>428</ele>
        <time>2021-03-13T12:08:29Z</time>
      </trkpt>
      <trkpt lat="43.02532" lon="0.92655">
        <ele>430</ele>
        <time>2021-03-13T12:08:30Z</time>
      </trkpt>
      <trkpt lat="43.02532" lon="0.92653">
        <ele>430</ele>
        <time>2021-03-13T12:08:31Z</time>
      </trkpt>
      <trkpt lat="43.02533" lon="0.9265">
        <ele>430</ele>
        <time>2021-03-13T12:08:32Z</time>
      </trkpt>
      <trkpt lat="43.02533" lon="0.92647">
        <ele>430</ele>
        <time>2021-03-13T12:08:33Z</time>
      </trkpt>
      <trkpt lat="43.02533" lon="0.92645">
        <ele>430</ele>
        <time>2021-03-13T12:08:34Z</time>
      </trkpt>
      <trkpt lat="43.02533" lon="0.92642">
        <ele>430</ele>
        <time>2021-03-13T12:08:35Z</time>
      </trkpt>
      <trkpt lat="43.02533" lon="0.92639">
        <ele>430</ele>
        <time>2021-03-13T12:08:36Z</time>
      </trkpt>
      <trkpt lat="43.02532" lon="0.92637">
        <ele>430</ele>
        <time>2021-03-13T12:08:37Z</time>
      </trkpt>
      <trkpt lat="43.02532" lon="0.92635">
        <ele>430</ele>
        <time>2021-03-13T12:08:38Z</time>
      </trkpt>
      <trkpt lat="43.02531" lon="0.92632">
        <ele>430</ele>
        <time>2021-03-13T12:08:39Z</time>
      </trkpt>
      <trkpt lat="43.0253" lon="0.9263">
        <ele>432</ele>
        <time>2021-03-13T12:08:40Z</time>
      </trkpt>
      <trkpt lat="43.0253" lon="0.92628">
        <ele>432</ele>
        <time>2021-03-13T12:08:41Z</time>
      </trkpt>
      <trkpt lat="43.0253" lon="0.92625">
        <ele>432</ele>
        <time>2021-03-13T12:08:42Z</time>
      </trkpt>
      <trkpt lat="43.0253" lon="0.92623">
        <ele>432</ele>
        <time>2021-03-13T12:08:43Z</time>
      </trkpt>
      <trkpt lat="43.0253" lon="0.92621">
        <ele>432</ele>
        <time>2021-03-13T12:08:44Z</time>
      </trkpt>
      <trkpt lat="43.0253" lon="0.92619">
        <ele>432</ele>
        <time>2021-03-13T12:08:45Z</time>
      </trkpt>
      <trkpt lat="43.0253" lon="0.92617">
        <ele>432</ele>
        <time>2021-03-13T12:08:46Z</time>
      </trkpt>
      <trkpt lat="43.0253" lon="0.92615">
        <ele>432</ele>
        <time>2021-03-13T12:08:47Z</time>
      </trkpt>
      <trkpt lat="43.0253" lon="0.92612">
        <ele>432</ele>
        <time>2021-03-13T12:08:48Z</time>
      </trkpt>
      <trkpt lat="43.0253" lon="0.92609">
        <ele>432</ele>
        <time>2021-03-13T12:08:49Z</time>
      </trkpt>
      <trkpt lat="43.02529" lon="0.92606">
        <ele>432</ele>
        <time>2021-03-13T12:08:50Z</time>
      </trkpt>
      <trkpt lat="43.02529" lon="0.92604">
        <ele>432</ele>
        <time>2021-03-13T12:08:51Z</time>
      </trkpt>
      <trkpt lat="43.02529" lon="0.926">
        <ele>432</ele>
        <time>2021-03-13T12:08:52Z</time>
      </trkpt>
      <trkpt lat="43.02529" lon="0.92597">
        <ele>432</ele>
        <time>2021-03-13T12:08:53Z</time>
      </trkpt>
      <trkpt lat="43.02529" lon="0.92594">
        <ele>432</ele>
        <time>2021-03-13T12:08:54Z</time>
      </trkpt>
      <trkpt lat="43.02529" lon="0.9259">
        <ele>432</ele>
        <time>2021-03-13T12:08:55Z</time>
      </trkpt>
      <trkpt lat="43.02529" lon="0.92586">
        <ele>432</ele>
        <time>2021-03-13T12:08:56Z</time>
      </trkpt>
      <trkpt lat="43.0253" lon="0.92582">
        <ele>432</ele>
        <time>2021-03-13T12:08:57Z</time>
      </trkpt>
      <trkpt lat="43.02531" lon="0.92578">
        <ele>432</ele>
        <time>2021-03-13T12:08:58Z</time>
      </trkpt>
      <trkpt lat="43.02531" lon="0.92574">
        <ele>432</ele>
        <time>2021-03-13T12:08:59Z</time>
      </trkpt>
      <trkpt lat="43.02531" lon="0.9257">
        <ele>433</ele>
        <time>2021-03-13T12:09:00Z</time>
      </trkpt>
      <trkpt lat="43.02531" lon="0.92566">
        <ele>433</ele>
        <time>2021-03-13T12:09:01Z</time>
      </trkpt>
      <trkpt lat="43.02531" lon="0.92562">
        <ele>433</ele>
        <time>2021-03-13T12:09:02Z</time>
      </trkpt>
      <trkpt lat="43.02532" lon="0.92557">
        <ele>433</ele>
        <time>2021-03-13T12:09:03Z</time>
      </trkpt>
      <trkpt lat="43.02533" lon="0.92553">
        <ele>433</ele>
        <time>2021-03-13T12:09:04Z</time>
      </trkpt>
      <trkpt lat="43.02533" lon="0.92549">
        <ele>433</ele>
        <time>2021-03-13T12:09:05Z</time>
      </trkpt>
      <trkpt lat="43.02535" lon="0.92543">
        <ele>433</ele>
        <time>2021-03-13T12:09:06Z</time>
      </trkpt>
      <trkpt lat="43.02536" lon="0.92537">
        <ele>433</ele>
        <time>2021-03-13T12:09:07Z</time>
      </trkpt>
      <trkpt lat="43.02537" lon="0.92531">
        <ele>433</ele>
        <time>2021-03-13T12:09:08Z</time>
      </trkpt>
      <trkpt lat="43.02538" lon="0.92522">
        <ele>433</ele>
        <time>2021-03-13T12:09:09Z</time>
      </trkpt>
      <trkpt lat="43.0254" lon="0.92512">
        <ele>429</ele>
        <time>2021-03-13T12:09:10Z</time>
      </trkpt>
      <trkpt lat="43.02541" lon="0.92502">
        <ele>429</ele>
        <time>2021-03-13T12:09:11Z</time>
      </trkpt>
      <trkpt lat="43.02539" lon="0.92489">
        <ele>429</ele>
        <time>2021-03-13T12:09:12Z</time>
      </trkpt>
      <trkpt lat="43.02538" lon="0.92486">
        <ele>429</ele>
        <time>2021-03-13T12:09:13Z</time>
      </trkpt>
      <trkpt lat="43.02535" lon="0.92474">
        <ele>429</ele>
        <time>2021-03-13T12:09:14Z</time>
      </trkpt>
      <trkpt lat="43.02532" lon="0.9247">
        <ele>426</ele>
        <time>2021-03-13T12:09:15Z</time>
      </trkpt>
      <trkpt lat="43.02525" lon="0.92459">
        <ele>426</ele>
        <time>2021-03-13T12:09:16Z</time>
      </trkpt>
      <trkpt lat="43.02522" lon="0.92455">
        <ele>426</ele>
        <time>2021-03-13T12:09:17Z</time>
      </trkpt>
      <trkpt lat="43.02514" lon="0.92443">
        <ele>426</ele>
        <time>2021-03-13T12:09:18Z</time>
      </trkpt>
      <trkpt lat="43.02511" lon="0.92439">
        <ele>426</ele>
        <time>2021-03-13T12:09:19Z</time>
      </trkpt>
      <trkpt lat="43.02502" lon="0.92429">
        <ele>422</ele>
        <time>2021-03-13T12:09:20Z</time>
      </trkpt>
      <trkpt lat="43.02498" lon="0.92426">
        <ele>421</ele>
        <time>2021-03-13T12:09:21Z</time>
      </trkpt>
      <trkpt lat="43.02489" lon="0.92418">
        <ele>421</ele>
        <time>2021-03-13T12:09:22Z</time>
      </trkpt>
      <trkpt lat="43.02487" lon="0.92416">
        <ele>420</ele>
        <time>2021-03-13T12:09:23Z</time>
      </trkpt>
      <trkpt lat="43.0248" lon="0.92409">
        <ele>420</ele>
        <time>2021-03-13T12:09:24Z</time>
      </trkpt>
      <trkpt lat="43.02478" lon="0.92407">
        <ele>421</ele>
        <time>2021-03-13T12:09:25Z</time>
      </trkpt>
      <trkpt lat="43.02475" lon="0.92403">
        <ele>421</ele>
        <time>2021-03-13T12:09:26Z</time>
      </trkpt>
      <trkpt lat="43.02475" lon="0.92403">
        <ele>421</ele>
        <time>2021-03-13T12:09:27Z</time>
      </trkpt>
      <trkpt lat="43.02468" lon="0.92397">
        <ele>421</ele>
        <time>2021-03-13T12:09:28Z</time>
      </trkpt>
      <trkpt lat="43.02468" lon="0.92397">
        <ele>421</ele>
        <time>2021-03-13T12:09:29Z</time>
      </trkpt>
      <trkpt lat="43.02466" lon="0.92394">
        <ele>421</ele>
        <time>2021-03-13T12:09:30Z</time>
      </trkpt>
      <trkpt lat="43.02463" lon="0.92391">
        <ele>421</ele>
        <time>2021-03-13T12:09:31Z</time>
      </trkpt>
      <trkpt lat="43.02461" lon="0.92389">
        <ele>421</ele>
        <time>2021-03-13T12:09:32Z</time>
      </trkpt>
      <trkpt lat="43.02459" lon="0.92386">
        <ele>421</ele>
        <time>2021-03-13T12:09:33Z</time>
      </trkpt>
      <trkpt lat="43.02457" lon="0.92384">
        <ele>421</ele>
        <time>2021-03-13T12:09:34Z</time>
      </trkpt>
      <trkpt lat="43.02456" lon="0.92381">
        <ele>421</ele>
        <time>2021-03-13T12:09:35Z</time>
      </trkpt>
      <trkpt lat="43.02453" lon="0.9238">
        <ele>421</ele>
        <time>2021-03-13T12:09:36Z</time>
      </trkpt>
      <trkpt lat="43.02451" lon="0.92378">
        <ele>421</ele>
        <time>2021-03-13T12:09:37Z</time>
      </trkpt>
      <trkpt lat="43.02449" lon="0.92376">
        <ele>421</ele>
        <time>2021-03-13T12:09:38Z</time>
      </trkpt>
      <trkpt lat="43.02446" lon="0.92375">
        <ele>421</ele>
        <time>2021-03-13T12:09:39Z</time>
      </trkpt>
      <trkpt lat="43.02444" lon="0.92373">
        <ele>421</ele>
        <time>2021-03-13T12:09:40Z</time>
      </trkpt>
      <trkpt lat="43.02442" lon="0.92372">
        <ele>421</ele>
        <time>2021-03-13T12:09:41Z</time>
      </trkpt>
      <trkpt lat="43.0244" lon="0.92371">
        <ele>421</ele>
        <time>2021-03-13T12:09:42Z</time>
      </trkpt>
      <trkpt lat="43.02439" lon="0.9237">
        <ele>421</ele>
        <time>2021-03-13T12:09:43Z</time>
      </trkpt>
      <trkpt lat="43.02437" lon="0.9237">
        <ele>421</ele>
        <time>2021-03-13T12:09:44Z</time>
      </trkpt>
      <trkpt lat="43.02435" lon="0.92369">
        <ele>421</ele>
        <time>2021-03-13T12:09:45Z</time>
      </trkpt>
      <trkpt lat="43.02434" lon="0.92368">
        <ele>421</ele>
        <time>2021-03-13T12:09:46Z</time>
      </trkpt>
      <trkpt lat="43.02433" lon="0.92368">
        <ele>421</ele>
        <time>2021-03-13T12:09:47Z</time>
      </trkpt>
      <trkpt lat="43.02431" lon="0.92368">
        <ele>421</ele>
        <time>2021-03-13T12:09:48Z</time>
      </trkpt>
      <trkpt lat="43.0243" lon="0.92367">
        <ele>421</ele>
        <time>2021-03-13T12:09:49Z</time>
      </trkpt>
      <trkpt lat="43.02429" lon="0.92367">
        <ele>425</ele>
        <time>2021-03-13T12:09:50Z</time>
      </trkpt>
      <trkpt lat="43.02427" lon="0.92366">
        <ele>425</ele>
        <time>2021-03-13T12:09:51Z</time>
      </trkpt>
      <trkpt lat="43.02426" lon="0.92366">
        <ele>425</ele>
        <time>2021-03-13T12:09:52Z</time>
      </trkpt>
      <trkpt lat="43.02424" lon="0.92365">
        <ele>425</ele>
        <time>2021-03-13T12:09:53Z</time>
      </trkpt>
      <trkpt lat="43.02422" lon="0.92365">
        <ele>425</ele>
        <time>2021-03-13T12:09:54Z</time>
      </trkpt>
      <trkpt lat="43.0242" lon="0.92364">
        <ele>427</ele>
        <time>2021-03-13T12:09:55Z</time>
      </trkpt>
      <trkpt lat="43.02418" lon="0.92363">
        <ele>427</ele>
        <time>2021-03-13T12:09:56Z</time>
      </trkpt>
      <trkpt lat="43.02416" lon="0.92362">
        <ele>427</ele>
        <time>2021-03-13T12:09:57Z</time>
      </trkpt>
      <trkpt lat="43.02415" lon="0.92361">
        <ele>427</ele>
        <time>2021-03-13T12:09:58Z</time>
      </trkpt>
      <trkpt lat="43.02413" lon="0.9236">
        <ele>427</ele>
        <time>2021-03-13T12:09:59Z</time>
      </trkpt>
      <trkpt lat="43.02411" lon="0.92359">
        <ele>429</ele>
        <time>2021-03-13T12:10:00Z</time>
      </trkpt>
      <trkpt lat="43.02409" lon="0.92358">
        <ele>429</ele>
        <time>2021-03-13T12:10:01Z</time>
      </trkpt>
      <trkpt lat="43.02407" lon="0.92357">
        <ele>429</ele>
        <time>2021-03-13T12:10:02Z</time>
      </trkpt>
      <trkpt lat="43.02406" lon="0.92356">
        <ele>429</ele>
        <time>2021-03-13T12:10:03Z</time>
      </trkpt>
      <trkpt lat="43.02404" lon="0.92356">
        <ele>429</ele>
        <time>2021-03-13T12:10:04Z</time>
      </trkpt>
      <trkpt lat="43.02402" lon="0.92354">
        <ele>430</ele>
        <time>2021-03-13T12:10:05Z</time>
      </trkpt>
      <trkpt lat="43.02401" lon="0.92353">
        <ele>430</ele>
        <time>2021-03-13T12:10:06Z</time>
      </trkpt>
      <trkpt lat="43.02399" lon="0.92352">
        <ele>430</ele>
        <time>2021-03-13T12:10:07Z</time>
      </trkpt>
      <trkpt lat="43.02397" lon="0.92351">
        <ele>430</ele>
        <time>2021-03-13T12:10:08Z</time>
      </trkpt>
      <trkpt lat="43.02396" lon="0.9235">
        <ele>430</ele>
        <time>2021-03-13T12:10:09Z</time>
      </trkpt>
      <trkpt lat="43.02394" lon="0.92349">
        <ele>432</ele>
        <time>2021-03-13T12:10:10Z</time>
      </trkpt>
      <trkpt lat="43.02393" lon="0.92349">
        <ele>432</ele>
        <time>2021-03-13T12:10:11Z</time>
      </trkpt>
      <trkpt lat="43.02391" lon="0.92348">
        <ele>432</ele>
        <time>2021-03-13T12:10:12Z</time>
      </trkpt>
      <trkpt lat="43.0239" lon="0.92347">
        <ele>432</ele>
        <time>2021-03-13T12:10:13Z</time>
      </trkpt>
      <trkpt lat="43.02389" lon="0.92347">
        <ele>432</ele>
        <time>2021-03-13T12:10:14Z</time>
      </trkpt>
      <trkpt lat="43.02387" lon="0.92346">
        <ele>433</ele>
        <time>2021-03-13T12:10:15Z</time>
      </trkpt>
      <trkpt lat="43.02386" lon="0.92346">
        <ele>433</ele>
        <time>2021-03-13T12:10:16Z</time>
      </trkpt>
      <trkpt lat="43.02384" lon="0.92345">
        <ele>433</ele>
        <time>2021-03-13T12:10:17Z</time>
      </trkpt>
      <trkpt lat="43.02383" lon="0.92344">
        <ele>433</ele>
        <time>2021-03-13T12:10:18Z</time>
      </trkpt>
      <trkpt lat="43.02382" lon="0.92343">
        <ele>433</ele>
        <time>2021-03-13T12:10:19Z</time>
      </trkpt>
      <trkpt lat="43.0238" lon="0.92343">
        <ele>434</ele>
        <time>2021-03-13T12:10:20Z</time>
      </trkpt>
      <trkpt lat="43.02379" lon="0.92342">
        <ele>434</ele>
        <time>2021-03-13T12:10:21Z</time>
      </trkpt>
      <trkpt lat="43.02378" lon="0.92341">
        <ele>434</ele>
        <time>2021-03-13T12:10:22Z</time>
      </trkpt>
      <trkpt lat="43.02377" lon="0.9234">
        <ele>434</ele>
        <time>2021-03-13T12:10:23Z</time>
      </trkpt>
      <trkpt lat="43.02376" lon="0.92339">
        <ele>434</ele>
        <time>2021-03-13T12:10:24Z</time>
      </trkpt>
      <trkpt lat="43.02374" lon="0.92339">
        <ele>436</ele>
        <time>2021-03-13T12:10:25Z</time>
      </trkpt>
      <trkpt lat="43.02373" lon="0.92338">
        <ele>436</ele>
        <time>2021-03-13T12:10:26Z</time>
      </trkpt>
      <trkpt lat="43.02371" lon="0.92338">
        <ele>436</ele>
        <time>2021-03-13T12:10:27Z</time>
      </trkpt>
      <trkpt lat="43.02369" lon="0.92337">
        <ele>436</ele>
        <time>2021-03-13T12:10:28Z</time>
      </trkpt>
      <trkpt lat="43.02368" lon="0.92337">
        <ele>436</ele>
        <time>2021-03-13T12:10:29Z</time>
      </trkpt>
      <trkpt lat="43.02366" lon="0.92336">
        <ele>438</ele>
        <time>2021-03-13T12:10:30Z</time>
      </trkpt>
      <trkpt lat="43.02365" lon="0.92335">
        <ele>438</ele>
        <time>2021-03-13T12:10:31Z</time>
      </trkpt>
      <trkpt lat="43.02363" lon="0.92335">
        <ele>438</ele>
        <time>2021-03-13T12:10:32Z</time>
      </trkpt>
      <trkpt lat="43.02362" lon="0.92334">
        <ele>438</ele>
        <time>2021-03-13T12:10:33Z</time>
      </trkpt>
      <trkpt lat="43.02361" lon="0.92333">
        <ele>438</ele>
        <time>2021-03-13T12:10:34Z</time>
      </trkpt>
      <trkpt lat="43.02359" lon="0.92333">
        <ele>439</ele>
        <time>2021-03-13T12:10:35Z</time>
      </trkpt>
      <trkpt lat="43.02358" lon="0.92332">
        <ele>439</ele>
        <time>2021-03-13T12:10:36Z</time>
      </trkpt>
      <trkpt lat="43.02357" lon="0.92332">
        <ele>439</ele>
        <time>2021-03-13T12:10:37Z</time>
      </trkpt>
      <trkpt lat="43.02356" lon="0.92332">
        <ele>439</ele>
        <time>2021-03-13T12:10:38Z</time>
      </trkpt>
      <trkpt lat="43.02355" lon="0.92331">
        <ele>439</ele>
        <time>2021-03-13T12:10:39Z</time>
      </trkpt>
      <trkpt lat="43.02354" lon="0.92331">
        <ele>440</ele>
        <time>2021-03-13T12:10:40Z</time>
      </trkpt>
      <trkpt lat="43.02352" lon="0.9233">
        <ele>440</ele>
        <time>2021-03-13T12:10:41Z</time>
      </trkpt>
      <trkpt lat="43.0235" lon="0.92329">
        <ele>440</ele>
        <time>2021-03-13T12:10:42Z</time>
      </trkpt>
      <trkpt lat="43.02349" lon="0.92328">
        <ele>440</ele>
        <time>2021-03-13T12:10:43Z</time>
      </trkpt>
      <trkpt lat="43.02347" lon="0.92327">
        <ele>440</ele>
        <time>2021-03-13T12:10:44Z</time>
      </trkpt>
      <trkpt lat="43.02345" lon="0.92326">
        <ele>442</ele>
        <time>2021-03-13T12:10:45Z</time>
      </trkpt>
      <trkpt lat="43.02344" lon="0.92324">
        <ele>442</ele>
        <time>2021-03-13T12:10:46Z</time>
      </trkpt>
      <trkpt lat="43.02342" lon="0.92323">
        <ele>442</ele>
        <time>2021-03-13T12:10:47Z</time>
      </trkpt>
      <trkpt lat="43.02341" lon="0.92322">
        <ele>442</ele>
        <time>2021-03-13T12:10:48Z</time>
      </trkpt>
      <trkpt lat="43.02339" lon="0.92321">
        <ele>442</ele>
        <time>2021-03-13T12:10:49Z</time>
      </trkpt>
      <trkpt lat="43.02338" lon="0.92321">
        <ele>443</ele>
        <time>2021-03-13T12:10:50Z</time>
      </trkpt>
      <trkpt lat="43.02336" lon="0.9232">
        <ele>443</ele>
        <time>2021-03-13T12:10:51Z</time>
      </trkpt>
      <trkpt lat="43.02335" lon="0.9232">
        <ele>443</ele>
        <time>2021-03-13T12:10:52Z</time>
      </trkpt>
      <trkpt lat="43.02333" lon="0.92319">
        <ele>443</ele>
        <time>2021-03-13T12:10:53Z</time>
      </trkpt>
      <trkpt lat="43.02332" lon="0.92319">
        <ele>443</ele>
        <time>2021-03-13T12:10:54Z</time>
      </trkpt>
      <trkpt lat="43.02331" lon="0.92318">
        <ele>445</ele>
        <time>2021-03-13T12:10:55Z</time>
      </trkpt>
      <trkpt lat="43.0233" lon="0.92318">
        <ele>445</ele>
        <time>2021-03-13T12:10:56Z</time>
      </trkpt>
      <trkpt lat="43.02329" lon="0.92317">
        <ele>445</ele>
        <time>2021-03-13T12:10:57Z</time>
      </trkpt>
      <trkpt lat="43.02328" lon="0.92317">
        <ele>445</ele>
        <time>2021-03-13T12:10:58Z</time>
      </trkpt>
      <trkpt lat="43.02327" lon="0.92316">
        <ele>445</ele>
        <time>2021-03-13T12:10:59Z</time>
      </trkpt>
      <trkpt lat="43.02326" lon="0.92315">
        <ele>446</ele>
        <time>2021-03-13T12:11:00Z</time>
      </trkpt>
      <trkpt lat="43.02325" lon="0.92315">
        <ele>446</ele>
        <time>2021-03-13T12:11:01Z</time>
      </trkpt>
      <trkpt lat="43.02323" lon="0.92315">
        <ele>446</ele>
        <time>2021-03-13T12:11:02Z</time>
      </trkpt>
      <trkpt lat="43.02322" lon="0.92314">
        <ele>446</ele>
        <time>2021-03-13T12:11:03Z</time>
      </trkpt>
      <trkpt lat="43.02321" lon="0.92314">
        <ele>446</ele>
        <time>2021-03-13T12:11:04Z</time>
      </trkpt>
      <trkpt lat="43.0232" lon="0.92314">
        <ele>447</ele>
        <time>2021-03-13T12:11:05Z</time>
      </trkpt>
      <trkpt lat="43.02319" lon="0.92313">
        <ele>447</ele>
        <time>2021-03-13T12:11:06Z</time>
      </trkpt>
      <trkpt lat="43.02317" lon="0.92313">
        <ele>447</ele>
        <time>2021-03-13T12:11:07Z</time>
      </trkpt>
      <trkpt lat="43.02316" lon="0.92312">
        <ele>447</ele>
        <time>2021-03-13T12:11:08Z</time>
      </trkpt>
      <trkpt lat="43.02314" lon="0.92312">
        <ele>447</ele>
        <time>2021-03-13T12:11:09Z</time>
      </trkpt>
      <trkpt lat="43.02313" lon="0.92311">
        <ele>449</ele>
        <time>2021-03-13T12:11:10Z</time>
      </trkpt>
      <trkpt lat="43.02311" lon="0.92311">
        <ele>449</ele>
        <time>2021-03-13T12:11:11Z</time>
      </trkpt>
      <trkpt lat="43.02309" lon="0.9231">
        <ele>449</ele>
        <time>2021-03-13T12:11:12Z</time>
      </trkpt>
      <trkpt lat="43.02308" lon="0.9231">
        <ele>449</ele>
        <time>2021-03-13T12:11:13Z</time>
      </trkpt>
      <trkpt lat="43.02306" lon="0.92309">
        <ele>449</ele>
        <time>2021-03-13T12:11:14Z</time>
      </trkpt>
      <trkpt lat="43.02304" lon="0.92308">
        <ele>450</ele>
        <time>2021-03-13T12:11:15Z</time>
      </trkpt>
      <trkpt lat="43.02302" lon="0.92307">
        <ele>450</ele>
        <time>2021-03-13T12:11:16Z</time>
      </trkpt>
      <trkpt lat="43.02299" lon="0.92305">
        <ele>450</ele>
        <time>2021-03-13T12:11:17Z</time>
      </trkpt>
      <trkpt lat="43.02297" lon="0.92304">
        <ele>450</ele>
        <time>2021-03-13T12:11:18Z</time>
      </trkpt>
      <trkpt lat="43.02295" lon="0.92303">
        <ele>450</ele>
        <time>2021-03-13T12:11:19Z</time>
      </trkpt>
      <trkpt lat="43.02293" lon="0.92303">
        <ele>452</ele>
        <time>2021-03-13T12:11:20Z</time>
      </trkpt>
      <trkpt lat="43.02291" lon="0.92302">
        <ele>452</ele>
        <time>2021-03-13T12:11:21Z</time>
      </trkpt>
      <trkpt lat="43.02289" lon="0.92302">
        <ele>452</ele>
        <time>2021-03-13T12:11:22Z</time>
      </trkpt>
      <trkpt lat="43.02288" lon="0.92301">
        <ele>452</ele>
        <time>2021-03-13T12:11:23Z</time>
      </trkpt>
      <trkpt lat="43.02286" lon="0.923">
        <ele>452</ele>
        <time>2021-03-13T12:11:24Z</time>
      </trkpt>
      <trkpt lat="43.02284" lon="0.92299">
        <ele>453</ele>
        <time>2021-03-13T12:11:25Z</time>
      </trkpt>
      <trkpt lat="43.02282" lon="0.92297">
        <ele>453</ele>
        <time>2021-03-13T12:11:26Z</time>
      </trkpt>
      <trkpt lat="43.02279" lon="0.92297">
        <ele>453</ele>
        <time>2021-03-13T12:11:27Z</time>
      </trkpt>
      <trkpt lat="43.02277" lon="0.92297">
        <ele>453</ele>
        <time>2021-03-13T12:11:28Z</time>
      </trkpt>
      <trkpt lat="43.02275" lon="0.92296">
        <ele>453</ele>
        <time>2021-03-13T12:11:29Z</time>
      </trkpt>
      <trkpt lat="43.02273" lon="0.92296">
        <ele>455</ele>
        <time>2021-03-13T12:11:30Z</time>
      </trkpt>
      <trkpt lat="43.02272" lon="0.92295">
        <ele>455</ele>
        <time>2021-03-13T12:11:31Z</time>
      </trkpt>
      <trkpt lat="43.0227" lon="0.92295">
        <ele>455</ele>
        <time>2021-03-13T12:11:32Z</time>
      </trkpt>
      <trkpt lat="43.02269" lon="0.92294">
        <ele>455</ele>
        <time>2021-03-13T12:11:33Z</time>
      </trkpt>
      <trkpt lat="43.02268" lon="0.92294">
        <ele>455</ele>
        <time>2021-03-13T12:11:34Z</time>
      </trkpt>
      <trkpt lat="43.02266" lon="0.92293">
        <ele>456</ele>
        <time>2021-03-13T12:11:35Z</time>
      </trkpt>
      <trkpt lat="43.02265" lon="0.92292">
        <ele>456</ele>
        <time>2021-03-13T12:11:36Z</time>
      </trkpt>
      <trkpt lat="43.02264" lon="0.92292">
        <ele>456</ele>
        <time>2021-03-13T12:11:37Z</time>
      </trkpt>
      <trkpt lat="43.02263" lon="0.92291">
        <ele>456</ele>
        <time>2021-03-13T12:11:38Z</time>
      </trkpt>
      <trkpt lat="43.02261" lon="0.9229">
        <ele>456</ele>
        <time>2021-03-13T12:11:39Z</time>
      </trkpt>
      <trkpt lat="43.0226" lon="0.92289">
        <ele>458</ele>
        <time>2021-03-13T12:11:40Z</time>
      </trkpt>
      <trkpt lat="43.02258" lon="0.92288">
        <ele>458</ele>
        <time>2021-03-13T12:11:41Z</time>
      </trkpt>
      <trkpt lat="43.02256" lon="0.92287">
        <ele>458</ele>
        <time>2021-03-13T12:11:42Z</time>
      </trkpt>
      <trkpt lat="43.02254" lon="0.92286">
        <ele>458</ele>
        <time>2021-03-13T12:11:43Z</time>
      </trkpt>
      <trkpt lat="43.02253" lon="0.92285">
        <ele>458</ele>
        <time>2021-03-13T12:11:44Z</time>
      </trkpt>
      <trkpt lat="43.02251" lon="0.92285">
        <ele>458</ele>
        <time>2021-03-13T12:11:45Z</time>
      </trkpt>
      <trkpt lat="43.02249" lon="0.92284">
        <ele>458</ele>
        <time>2021-03-13T12:11:46Z</time>
      </trkpt>
      <trkpt lat="43.02248" lon="0.92283">
        <ele>458</ele>
        <time>2021-03-13T12:11:47Z</time>
      </trkpt>
      <trkpt lat="43.02246" lon="0.92283">
        <ele>458</ele>
        <time>2021-03-13T12:11:48Z</time>
      </trkpt>
      <trkpt lat="43.02245" lon="0.92282">
        <ele>458</ele>
        <time>2021-03-13T12:11:49Z</time>
      </trkpt>
      <trkpt lat="43.02243" lon="0.92281">
        <ele>460</ele>
        <time>2021-03-13T12:11:50Z</time>
      </trkpt>
      <trkpt lat="43.02242" lon="0.9228">
        <ele>460</ele>
        <time>2021-03-13T12:11:51Z</time>
      </trkpt>
      <trkpt lat="43.02241" lon="0.92279">
        <ele>460</ele>
        <time>2021-03-13T12:11:52Z</time>
      </trkpt>
      <trkpt lat="43.0224" lon="0.92278">
        <ele>460</ele>
        <time>2021-03-13T12:11:53Z</time>
      </trkpt>
      <trkpt lat="43.02238" lon="0.92277">
        <ele>460</ele>
        <time>2021-03-13T12:11:54Z</time>
      </trkpt>
      <trkpt lat="43.02237" lon="0.92276">
        <ele>461</ele>
        <time>2021-03-13T12:11:55Z</time>
      </trkpt>
      <trkpt lat="43.02236" lon="0.92277">
        <ele>461</ele>
        <time>2021-03-13T12:11:56Z</time>
      </trkpt>
      <trkpt lat="43.02234" lon="0.92278">
        <ele>461</ele>
        <time>2021-03-13T12:11:57Z</time>
      </trkpt>
      <trkpt lat="43.02233" lon="0.92278">
        <ele>461</ele>
        <time>2021-03-13T12:11:58Z</time>
      </trkpt>
      <trkpt lat="43.02232" lon="0.92279">
        <ele>461</ele>
        <time>2021-03-13T12:11:59Z</time>
      </trkpt>
      <trkpt lat="43.02231" lon="0.92279">
        <ele>463</ele>
        <time>2021-03-13T12:12:00Z</time>
      </trkpt>
      <trkpt lat="43.02231" lon="0.92281">
        <ele>463</ele>
        <time>2021-03-13T12:12:01Z</time>
      </trkpt>
      <trkpt lat="43.02232" lon="0.92283">
        <ele>463</ele>
        <time>2021-03-13T12:12:02Z</time>
      </trkpt>
      <trkpt lat="43.02232" lon="0.92284">
        <ele>463</ele>
        <time>2021-03-13T12:12:03Z</time>
      </trkpt>
      <trkpt lat="43.02233" lon="0.92286">
        <ele>463</ele>
        <time>2021-03-13T12:12:04Z</time>
      </trkpt>
      <trkpt lat="43.02234" lon="0.92287">
        <ele>464</ele>
        <time>2021-03-13T12:12:05Z</time>
      </trkpt>
      <trkpt lat="43.02235" lon="0.92289">
        <ele>464</ele>
        <time>2021-03-13T12:12:06Z</time>
      </trkpt>
      <trkpt lat="43.02236" lon="0.9229">
        <ele>464</ele>
        <time>2021-03-13T12:12:07Z</time>
      </trkpt>
      <trkpt lat="43.02237" lon="0.92292">
        <ele>464</ele>
        <time>2021-03-13T12:12:08Z</time>
      </trkpt>
      <trkpt lat="43.02238" lon="0.92293">
        <ele>464</ele>
        <time>2021-03-13T12:12:09Z</time>
      </trkpt>
      <trkpt lat="43.02239" lon="0.92294">
        <ele>464</ele>
        <time>2021-03-13T12:12:10Z</time>
      </trkpt>
      <trkpt lat="43.0224" lon="0.92296">
        <ele>464</ele>
        <time>2021-03-13T12:12:11Z</time>
      </trkpt>
      <trkpt lat="43.02241" lon="0.92297">
        <ele>464</ele>
        <time>2021-03-13T12:12:12Z</time>
      </trkpt>
      <trkpt lat="43.02242" lon="0.92298">
        <ele>464</ele>
        <time>2021-03-13T12:12:13Z</time>
      </trkpt>
      <trkpt lat="43.02243" lon="0.923">
        <ele>464</ele>
        <time>2021-03-13T12:12:14Z</time>
      </trkpt>
      <trkpt lat="43.02244" lon="0.92301">
        <ele>464</ele>
        <time>2021-03-13T12:12:15Z</time>
      </trkpt>
      <trkpt lat="43.02245" lon="0.92302">
        <ele>464</ele>
        <time>2021-03-13T12:12:16Z</time>
      </trkpt>
      <trkpt lat="43.02246" lon="0.92304">
        <ele>464</ele>
        <time>2021-03-13T12:12:17Z</time>
      </trkpt>
      <trkpt lat="43.02247" lon="0.92305">
        <ele>464</ele>
        <time>2021-03-13T12:12:18Z</time>
      </trkpt>
      <trkpt lat="43.02248" lon="0.92307">
        <ele>464</ele>
        <time>2021-03-13T12:12:19Z</time>
      </trkpt>
      <trkpt lat="43.02248" lon="0.92308">
        <ele>466</ele>
        <time>2021-03-13T12:12:20Z</time>
      </trkpt>
      <trkpt lat="43.02249" lon="0.92309">
        <ele>466</ele>
        <time>2021-03-13T12:12:21Z</time>
      </trkpt>
      <trkpt lat="43.0225" lon="0.9231">
        <ele>466</ele>
        <time>2021-03-13T12:12:22Z</time>
      </trkpt>
      <trkpt lat="43.02251" lon="0.92311">
        <ele>466</ele>
        <time>2021-03-13T12:12:23Z</time>
      </trkpt>
      <trkpt lat="43.02252" lon="0.92312">
        <ele>466</ele>
        <time>2021-03-13T12:12:24Z</time>
      </trkpt>
      <trkpt lat="43.02253" lon="0.92313">
        <ele>466</ele>
        <time>2021-03-13T12:12:25Z</time>
      </trkpt>
      <trkpt lat="43.02254" lon="0.92314">
        <ele>466</ele>
        <time>2021-03-13T12:12:26Z</time>
      </trkpt>
      <trkpt lat="43.02255" lon="0.92314">
        <ele>466</ele>
        <time>2021-03-13T12:12:27Z</time>
      </trkpt>
      <trkpt lat="43.02256" lon="0.92315">
        <ele>466</ele>
        <time>2021-03-13T12:12:28Z</time>
      </trkpt>
      <trkpt lat="43.02257" lon="0.92316">
        <ele>466</ele>
        <time>2021-03-13T12:12:29Z</time>
      </trkpt>
      <trkpt lat="43.02257" lon="0.92317">
        <ele>468</ele>
        <time>2021-03-13T12:12:30Z</time>
      </trkpt>
      <trkpt lat="43.02257" lon="0.92318">
        <ele>468</ele>
        <time>2021-03-13T12:12:31Z</time>
      </trkpt>
      <trkpt lat="43.02258" lon="0.92319">
        <ele>468</ele>
        <time>2021-03-13T12:12:32Z</time>
      </trkpt>
      <trkpt lat="43.02258" lon="0.9232">
        <ele>468</ele>
        <time>2021-03-13T12:12:33Z</time>
      </trkpt>
      <trkpt lat="43.02258" lon="0.92321">
        <ele>468</ele>
        <time>2021-03-13T12:12:34Z</time>
      </trkpt>
      <trkpt lat="43.02259" lon="0.92322">
        <ele>468</ele>
        <time>2021-03-13T12:12:35Z</time>
      </trkpt>
      <trkpt lat="43.02259" lon="0.92323">
        <ele>468</ele>
        <time>2021-03-13T12:12:36Z</time>
      </trkpt>
      <trkpt lat="43.0226" lon="0.92324">
        <ele>468</ele>
        <time>2021-03-13T12:12:37Z</time>
      </trkpt>
      <trkpt lat="43.0226" lon="0.92325">
        <ele>468</ele>
        <time>2021-03-13T12:12:38Z</time>
      </trkpt>
      <trkpt lat="43.0226" lon="0.92326">
        <ele>468</ele>
        <time>2021-03-13T12:12:39Z</time>
      </trkpt>
      <trkpt lat="43.02262" lon="0.92328">
        <ele>469</ele>
        <time>2021-03-13T12:12:40Z</time>
      </trkpt>
      <trkpt lat="43.02263" lon="0.92329">
        <ele>469</ele>
        <time>2021-03-13T12:12:41Z</time>
      </trkpt>
      <trkpt lat="43.02265" lon="0.92331">
        <ele>469</ele>
        <time>2021-03-13T12:12:42Z</time>
      </trkpt>
      <trkpt lat="43.02267" lon="0.92333">
        <ele>469</ele>
        <time>2021-03-13T12:12:43Z</time>
      </trkpt>
      <trkpt lat="43.02268" lon="0.92334">
        <ele>469</ele>
        <time>2021-03-13T12:12:44Z</time>
      </trkpt>
      <trkpt lat="43.02269" lon="0.92336">
        <ele>469</ele>
        <time>2021-03-13T12:12:45Z</time>
      </trkpt>
      <trkpt lat="43.0227" lon="0.92338">
        <ele>469</ele>
        <time>2021-03-13T12:12:46Z</time>
      </trkpt>
      <trkpt lat="43.02271" lon="0.92339">
        <ele>469</ele>
        <time>2021-03-13T12:12:47Z</time>
      </trkpt>
      <trkpt lat="43.02272" lon="0.92341">
        <ele>469</ele>
        <time>2021-03-13T12:12:48Z</time>
      </trkpt>
      <trkpt lat="43.02273" lon="0.92343">
        <ele>469</ele>
        <time>2021-03-13T12:12:49Z</time>
      </trkpt>
      <trkpt lat="43.02273" lon="0.92345">
        <ele>470</ele>
        <time>2021-03-13T12:12:50Z</time>
      </trkpt>
      <trkpt lat="43.02274" lon="0.92348">
        <ele>470</ele>
        <time>2021-03-13T12:12:51Z</time>
      </trkpt>
      <trkpt lat="43.02275" lon="0.9235">
        <ele>470</ele>
        <time>2021-03-13T12:12:52Z</time>
      </trkpt>
      <trkpt lat="43.02275" lon="0.92352">
        <ele>470</ele>
        <time>2021-03-13T12:12:53Z</time>
      </trkpt>
      <trkpt lat="43.02276" lon="0.92354">
        <ele>470</ele>
        <time>2021-03-13T12:12:54Z</time>
      </trkpt>
      <trkpt lat="43.02277" lon="0.92356">
        <ele>470</ele>
        <time>2021-03-13T12:12:55Z</time>
      </trkpt>
      <trkpt lat="43.02279" lon="0.92358">
        <ele>470</ele>
        <time>2021-03-13T12:12:56Z</time>
      </trkpt>
      <trkpt lat="43.0228" lon="0.92361">
        <ele>470</ele>
        <time>2021-03-13T12:12:57Z</time>
      </trkpt>
      <trkpt lat="43.02281" lon="0.92363">
        <ele>470</ele>
        <time>2021-03-13T12:12:58Z</time>
      </trkpt>
      <trkpt lat="43.02282" lon="0.92365">
        <ele>470</ele>
        <time>2021-03-13T12:12:59Z</time>
      </trkpt>
      <trkpt lat="43.02284" lon="0.92367">
        <ele>472</ele>
        <time>2021-03-13T12:13:00Z</time>
      </trkpt>
      <trkpt lat="43.02285" lon="0.92369">
        <ele>472</ele>
        <time>2021-03-13T12:13:01Z</time>
      </trkpt>
      <trkpt lat="43.02287" lon="0.92371">
        <ele>472</ele>
        <time>2021-03-13T12:13:02Z</time>
      </trkpt>
      <trkpt lat="43.02288" lon="0.92373">
        <ele>472</ele>
        <time>2021-03-13T12:13:03Z</time>
      </trkpt>
      <trkpt lat="43.02289" lon="0.92374">
        <ele>472</ele>
        <time>2021-03-13T12:13:04Z</time>
      </trkpt>
      <trkpt lat="43.0229" lon="0.92376">
        <ele>472</ele>
        <time>2021-03-13T12:13:05Z</time>
      </trkpt>
      <trkpt lat="43.02291" lon="0.92378">
        <ele>472</ele>
        <time>2021-03-13T12:13:06Z</time>
      </trkpt>
      <trkpt lat="43.02292" lon="0.9238">
        <ele>472</ele>
        <time>2021-03-13T12:13:07Z</time>
      </trkpt>
      <trkpt lat="43.02293" lon="0.92382">
        <ele>472</ele>
        <time>2021-03-13T12:13:08Z</time>
      </trkpt>
      <trkpt lat="43.02293" lon="0.92384">
        <ele>472</ele>
        <time>2021-03-13T12:13:09Z</time>
      </trkpt>
      <trkpt lat="43.02294" lon="0.92386">
        <ele>474</ele>
        <time>2021-03-13T12:13:10Z</time>
      </trkpt>
      <trkpt lat="43.02295" lon="0.92388">
        <ele>474</ele>
        <time>2021-03-13T12:13:11Z</time>
      </trkpt>
      <trkpt lat="43.02296" lon="0.9239">
        <ele>474</ele>
        <time>2021-03-13T12:13:12Z</time>
      </trkpt>
      <trkpt lat="43.02298" lon="0.92391">
        <ele>474</ele>
        <time>2021-03-13T12:13:13Z</time>
      </trkpt>
      <trkpt lat="43.02299" lon="0.92393">
        <ele>474</ele>
        <time>2021-03-13T12:13:14Z</time>
      </trkpt>
      <trkpt lat="43.023" lon="0.92395">
        <ele>474</ele>
        <time>2021-03-13T12:13:15Z</time>
      </trkpt>
      <trkpt lat="43.02301" lon="0.92397">
        <ele>474</ele>
        <time>2021-03-13T12:13:16Z</time>
      </trkpt>
      <trkpt lat="43.02302" lon="0.92399">
        <ele>474</ele>
        <time>2021-03-13T12:13:17Z</time>
      </trkpt>
      <trkpt lat="43.02303" lon="0.924">
        <ele>474</ele>
        <time>2021-03-13T12:13:18Z</time>
      </trkpt>
      <trkpt lat="43.02304" lon="0.92402">
        <ele>474</ele>
        <time>2021-03-13T12:13:19Z</time>
      </trkpt>
      <trkpt lat="43.02305" lon="0.92404">
        <ele>476</ele>
        <time>2021-03-13T12:13:20Z</time>
      </trkpt>
      <trkpt lat="43.02306" lon="0.92406">
        <ele>476</ele>
        <time>2021-03-13T12:13:21Z</time>
      </trkpt>
      <trkpt lat="43.02307" lon="0.92407">
        <ele>476</ele>
        <time>2021-03-13T12:13:22Z</time>
      </trkpt>
      <trkpt lat="43.02308" lon="0.92409">
        <ele>476</ele>
        <time>2021-03-13T12:13:23Z</time>
      </trkpt>
      <trkpt lat="43.0231" lon="0.92411">
        <ele>476</ele>
        <time>2021-03-13T12:13:24Z</time>
      </trkpt>
      <trkpt lat="43.02311" lon="0.92413">
        <ele>478</ele>
        <time>2021-03-13T12:13:25Z</time>
      </trkpt>
      <trkpt lat="43.02312" lon="0.92414">
        <ele>478</ele>
        <time>2021-03-13T12:13:26Z</time>
      </trkpt>
      <trkpt lat="43.02314" lon="0.92416">
        <ele>478</ele>
        <time>2021-03-13T12:13:27Z</time>
      </trkpt>
      <trkpt lat="43.02315" lon="0.92418">
        <ele>478</ele>
        <time>2021-03-13T12:13:28Z</time>
      </trkpt>
      <trkpt lat="43.02316" lon="0.9242">
        <ele>478</ele>
        <time>2021-03-13T12:13:29Z</time>
      </trkpt>
      <trkpt lat="43.02318" lon="0.92422">
        <ele>480</ele>
        <time>2021-03-13T12:13:30Z</time>
      </trkpt>
      <trkpt lat="43.02319" lon="0.92424">
        <ele>480</ele>
        <time>2021-03-13T12:13:31Z</time>
      </trkpt>
      <trkpt lat="43.0232" lon="0.92426">
        <ele>480</ele>
        <time>2021-03-13T12:13:32Z</time>
      </trkpt>
      <trkpt lat="43.02321" lon="0.92428">
        <ele>480</ele>
        <time>2021-03-13T12:13:33Z</time>
      </trkpt>
      <trkpt lat="43.02323" lon="0.9243">
        <ele>480</ele>
        <time>2021-03-13T12:13:34Z</time>
      </trkpt>
      <trkpt lat="43.02324" lon="0.92432">
        <ele>481</ele>
        <time>2021-03-13T12:13:35Z</time>
      </trkpt>
      <trkpt lat="43.02326" lon="0.92433">
        <ele>481</ele>
        <time>2021-03-13T12:13:36Z</time>
      </trkpt>
      <trkpt lat="43.02328" lon="0.92435">
        <ele>481</ele>
        <time>2021-03-13T12:13:37Z</time>
      </trkpt>
      <trkpt lat="43.02329" lon="0.92437">
        <ele>481</ele>
        <time>2021-03-13T12:13:38Z</time>
      </trkpt>
      <trkpt lat="43.02331" lon="0.92439">
        <ele>481</ele>
        <time>2021-03-13T12:13:39Z</time>
      </trkpt>
      <trkpt lat="43.02332" lon="0.9244">
        <ele>482</ele>
        <time>2021-03-13T12:13:40Z</time>
      </trkpt>
      <trkpt lat="43.02334" lon="0.92442">
        <ele>482</ele>
        <time>2021-03-13T12:13:41Z</time>
      </trkpt>
      <trkpt lat="43.02334" lon="0.92444">
        <ele>482</ele>
        <time>2021-03-13T12:13:42Z</time>
      </trkpt>
      <trkpt lat="43.02335" lon="0.92445">
        <ele>482</ele>
        <time>2021-03-13T12:13:43Z</time>
      </trkpt>
      <trkpt lat="43.02336" lon="0.92447">
        <ele>482</ele>
        <time>2021-03-13T12:13:44Z</time>
      </trkpt>
      <trkpt lat="43.02336" lon="0.92449">
        <ele>482</ele>
        <time>2021-03-13T12:13:45Z</time>
      </trkpt>
      <trkpt lat="43.02337" lon="0.9245">
        <ele>482</ele>
        <time>2021-03-13T12:13:46Z</time>
      </trkpt>
      <trkpt lat="43.02339" lon="0.92452">
        <ele>482</ele>
        <time>2021-03-13T12:13:47Z</time>
      </trkpt>
      <trkpt lat="43.0234" lon="0.92453">
        <ele>482</ele>
        <time>2021-03-13T12:13:48Z</time>
      </trkpt>
      <trkpt lat="43.02342" lon="0.92455">
        <ele>482</ele>
        <time>2021-03-13T12:13:49Z</time>
      </trkpt>
      <trkpt lat="43.02343" lon="0.92456">
        <ele>483</ele>
        <time>2021-03-13T12:13:50Z</time>
      </trkpt>
      <trkpt lat="43.02345" lon="0.92458">
        <ele>483</ele>
        <time>2021-03-13T12:13:51Z</time>
      </trkpt>
      <trkpt lat="43.02346" lon="0.9246">
        <ele>483</ele>
        <time>2021-03-13T12:13:52Z</time>
      </trkpt>
      <trkpt lat="43.02348" lon="0.92461">
        <ele>483</ele>
        <time>2021-03-13T12:13:53Z</time>
      </trkpt>
      <trkpt lat="43.02349" lon="0.92463">
        <ele>483</ele>
        <time>2021-03-13T12:13:54Z</time>
      </trkpt>
      <trkpt lat="43.02349" lon="0.92465">
        <ele>483</ele>
        <time>2021-03-13T12:13:55Z</time>
      </trkpt>
      <trkpt lat="43.02349" lon="0.92466">
        <ele>483</ele>
        <time>2021-03-13T12:13:56Z</time>
      </trkpt>
      <trkpt lat="43.02349" lon="0.92468">
        <ele>483</ele>
        <time>2021-03-13T12:13:57Z</time>
      </trkpt>
      <trkpt lat="43.02349" lon="0.9247">
        <ele>483</ele>
        <time>2021-03-13T12:13:58Z</time>
      </trkpt>
      <trkpt lat="43.02349" lon="0.92471">
        <ele>483</ele>
        <time>2021-03-13T12:13:59Z</time>
      </trkpt>
      <trkpt lat="43.02349" lon="0.92473">
        <ele>487</ele>
        <time>2021-03-13T12:14:00Z</time>
      </trkpt>
      <trkpt lat="43.02348" lon="0.92472">
        <ele>487</ele>
        <time>2021-03-13T12:14:01Z</time>
      </trkpt>
      <trkpt lat="43.02347" lon="0.92471">
        <ele>487</ele>
        <time>2021-03-13T12:14:02Z</time>
      </trkpt>
      <trkpt lat="43.02345" lon="0.9247">
        <ele>487</ele>
        <time>2021-03-13T12:14:03Z</time>
      </trkpt>
      <trkpt lat="43.02344" lon="0.92469">
        <ele>487</ele>
        <time>2021-03-13T12:14:04Z</time>
      </trkpt>
      <trkpt lat="43.02342" lon="0.92468">
        <ele>487</ele>
        <time>2021-03-13T12:14:05Z</time>
      </trkpt>
      <trkpt lat="43.02341" lon="0.92468">
        <ele>487</ele>
        <time>2021-03-13T12:14:06Z</time>
      </trkpt>
      <trkpt lat="43.02339" lon="0.92467">
        <ele>487</ele>
        <time>2021-03-13T12:14:07Z</time>
      </trkpt>
      <trkpt lat="43.02338" lon="0.92467">
        <ele>487</ele>
        <time>2021-03-13T12:14:08Z</time>
      </trkpt>
      <trkpt lat="43.02337" lon="0.92466">
        <ele>487</ele>
        <time>2021-03-13T12:14:09Z</time>
      </trkpt>
      <trkpt lat="43.02335" lon="0.92465">
        <ele>489</ele>
        <time>2021-03-13T12:14:10Z</time>
      </trkpt>
      <trkpt lat="43.02333" lon="0.92465">
        <ele>489</ele>
        <time>2021-03-13T12:14:11Z</time>
      </trkpt>
      <trkpt lat="43.02332" lon="0.92464">
        <ele>489</ele>
        <time>2021-03-13T12:14:12Z</time>
      </trkpt>
      <trkpt lat="43.0233" lon="0.92464">
        <ele>489</ele>
        <time>2021-03-13T12:14:13Z</time>
      </trkpt>
      <trkpt lat="43.02328" lon="0.92463">
        <ele>489</ele>
        <time>2021-03-13T12:14:14Z</time>
      </trkpt>
      <trkpt lat="43.02327" lon="0.92463">
        <ele>489</ele>
        <time>2021-03-13T12:14:15Z</time>
      </trkpt>
      <trkpt lat="43.02325" lon="0.92462">
        <ele>489</ele>
        <time>2021-03-13T12:14:16Z</time>
      </trkpt>
      <trkpt lat="43.02324" lon="0.92461">
        <ele>489</ele>
        <time>2021-03-13T12:14:17Z</time>
      </trkpt>
      <trkpt lat="43.02323" lon="0.9246">
        <ele>489</ele>
        <time>2021-03-13T12:14:18Z</time>
      </trkpt>
      <trkpt lat="43.02321" lon="0.92459">
        <ele>489</ele>
        <time>2021-03-13T12:14:19Z</time>
      </trkpt>
      <trkpt lat="43.0232" lon="0.92458">
        <ele>490</ele>
        <time>2021-03-13T12:14:20Z</time>
      </trkpt>
      <trkpt lat="43.02318" lon="0.92457">
        <ele>490</ele>
        <time>2021-03-13T12:14:21Z</time>
      </trkpt>
      <trkpt lat="43.02316" lon="0.92457">
        <ele>490</ele>
        <time>2021-03-13T12:14:22Z</time>
      </trkpt>
      <trkpt lat="43.02315" lon="0.92456">
        <ele>490</ele>
        <time>2021-03-13T12:14:23Z</time>
      </trkpt>
      <trkpt lat="43.02313" lon="0.92455">
        <ele>490</ele>
        <time>2021-03-13T12:14:24Z</time>
      </trkpt>
      <trkpt lat="43.02311" lon="0.92454">
        <ele>490</ele>
        <time>2021-03-13T12:14:25Z</time>
      </trkpt>
      <trkpt lat="43.02309" lon="0.92453">
        <ele>490</ele>
        <time>2021-03-13T12:14:26Z</time>
      </trkpt>
      <trkpt lat="43.02307" lon="0.92452">
        <ele>490</ele>
        <time>2021-03-13T12:14:27Z</time>
      </trkpt>
      <trkpt lat="43.02305" lon="0.92451">
        <ele>490</ele>
        <time>2021-03-13T12:14:28Z</time>
      </trkpt>
      <trkpt lat="43.02302" lon="0.9245">
        <ele>490</ele>
        <time>2021-03-13T12:14:29Z</time>
      </trkpt>
      <trkpt lat="43.023" lon="0.92449">
        <ele>492</ele>
        <time>2021-03-13T12:14:30Z</time>
      </trkpt>
      <trkpt lat="43.02298" lon="0.92448">
        <ele>492</ele>
        <time>2021-03-13T12:14:31Z</time>
      </trkpt>
      <trkpt lat="43.02295" lon="0.92448">
        <ele>492</ele>
        <time>2021-03-13T12:14:32Z</time>
      </trkpt>
      <trkpt lat="43.02293" lon="0.92447">
        <ele>492</ele>
        <time>2021-03-13T12:14:33Z</time>
      </trkpt>
      <trkpt lat="43.02291" lon="0.92446">
        <ele>492</ele>
        <time>2021-03-13T12:14:34Z</time>
      </trkpt>
      <trkpt lat="43.02289" lon="0.92446">
        <ele>492</ele>
        <time>2021-03-13T12:14:35Z</time>
      </trkpt>
      <trkpt lat="43.02288" lon="0.92445">
        <ele>492</ele>
        <time>2021-03-13T12:14:36Z</time>
      </trkpt>
      <trkpt lat="43.02286" lon="0.92444">
        <ele>492</ele>
        <time>2021-03-13T12:14:37Z</time>
      </trkpt>
      <trkpt lat="43.02285" lon="0.92444">
        <ele>492</ele>
        <time>2021-03-13T12:14:38Z</time>
      </trkpt>
      <trkpt lat="43.02284" lon="0.92443">
        <ele>492</ele>
        <time>2021-03-13T12:14:39Z</time>
      </trkpt>
      <trkpt lat="43.02282" lon="0.92443">
        <ele>495</ele>
        <time>2021-03-13T12:14:40Z</time>
      </trkpt>
      <trkpt lat="43.0228" lon="0.92442">
        <ele>495</ele>
        <time>2021-03-13T12:14:41Z</time>
      </trkpt>
      <trkpt lat="43.02278" lon="0.92441">
        <ele>495</ele>
        <time>2021-03-13T12:14:42Z</time>
      </trkpt>
      <trkpt lat="43.02276" lon="0.9244">
        <ele>495</ele>
        <time>2021-03-13T12:14:43Z</time>
      </trkpt>
      <trkpt lat="43.02275" lon="0.92439">
        <ele>495</ele>
        <time>2021-03-13T12:14:44Z</time>
      </trkpt>
      <trkpt lat="43.02273" lon="0.92439">
        <ele>495</ele>
        <time>2021-03-13T12:14:45Z</time>
      </trkpt>
      <trkpt lat="43.02271" lon="0.92438">
        <ele>495</ele>
        <time>2021-03-13T12:14:46Z</time>
      </trkpt>
      <trkpt lat="43.02269" lon="0.92438">
        <ele>495</ele>
        <time>2021-03-13T12:14:47Z</time>
      </trkpt>
      <trkpt lat="43.02267" lon="0.92437">
        <ele>495</ele>
        <time>2021-03-13T12:14:48Z</time>
      </trkpt>
      <trkpt lat="43.02266" lon="0.92437">
        <ele>495</ele>
        <time>2021-03-13T12:14:49Z</time>
      </trkpt>
      <trkpt lat="43.02264" lon="0.92436">
        <ele>497</ele>
        <time>2021-03-13T12:14:50Z</time>
      </trkpt>
      <trkpt lat="43.02263" lon="0.92436">
        <ele>497</ele>
        <time>2021-03-13T12:14:51Z</time>
      </trkpt>
      <trkpt lat="43.02261" lon="0.92435">
        <ele>497</ele>
        <time>2021-03-13T12:14:52Z</time>
      </trkpt>
      <trkpt lat="43.0226" lon="0.92434">
        <ele>497</ele>
        <time>2021-03-13T12:14:53Z</time>
      </trkpt>
      <trkpt lat="43.02259" lon="0.92434">
        <ele>497</ele>
        <time>2021-03-13T12:14:54Z</time>
      </trkpt>
      <trkpt lat="43.02257" lon="0.92433">
        <ele>499</ele>
        <time>2021-03-13T12:14:55Z</time>
      </trkpt>
      <trkpt lat="43.02256" lon="0.92432">
        <ele>499</ele>
        <time>2021-03-13T12:14:56Z</time>
      </trkpt>
      <trkpt lat="43.02255" lon="0.92431">
        <ele>499</ele>
        <time>2021-03-13T12:14:57Z</time>
      </trkpt>
      <trkpt lat="43.02253" lon="0.9243">
        <ele>499</ele>
        <time>2021-03-13T12:14:58Z</time>
      </trkpt>
      <trkpt lat="43.02252" lon="0.92429">
        <ele>499</ele>
        <time>2021-03-13T12:14:59Z</time>
      </trkpt>
      <trkpt lat="43.0225" lon="0.92429">
        <ele>499</ele>
        <time>2021-03-13T12:15:00Z</time>
      </trkpt>
      <trkpt lat="43.02249" lon="0.92428">
        <ele>499</ele>
        <time>2021-03-13T12:15:01Z</time>
      </trkpt>
      <trkpt lat="43.02247" lon="0.92427">
        <ele>499</ele>
        <time>2021-03-13T12:15:02Z</time>
      </trkpt>
      <trkpt lat="43.02245" lon="0.92426">
        <ele>499</ele>
        <time>2021-03-13T12:15:03Z</time>
      </trkpt>
      <trkpt lat="43.02243" lon="0.92425">
        <ele>499</ele>
        <time>2021-03-13T12:15:04Z</time>
      </trkpt>
      <trkpt lat="43.02241" lon="0.92424">
        <ele>499</ele>
        <time>2021-03-13T12:15:05Z</time>
      </trkpt>
      <trkpt lat="43.0224" lon="0.92423">
        <ele>499</ele>
        <time>2021-03-13T12:15:06Z</time>
      </trkpt>
      <trkpt lat="43.02238" lon="0.92422">
        <ele>499</ele>
        <time>2021-03-13T12:15:07Z</time>
      </trkpt>
      <trkpt lat="43.02237" lon="0.92421">
        <ele>499</ele>
        <time>2021-03-13T12:15:08Z</time>
      </trkpt>
      <trkpt lat="43.02235" lon="0.9242">
        <ele>499</ele>
        <time>2021-03-13T12:15:09Z</time>
      </trkpt>
      <trkpt lat="43.02233" lon="0.92419">
        <ele>501</ele>
        <time>2021-03-13T12:15:10Z</time>
      </trkpt>
      <trkpt lat="43.02232" lon="0.92418">
        <ele>501</ele>
        <time>2021-03-13T12:15:11Z</time>
      </trkpt>
      <trkpt lat="43.0223" lon="0.92417">
        <ele>501</ele>
        <time>2021-03-13T12:15:12Z</time>
      </trkpt>
      <trkpt lat="43.02228" lon="0.92416">
        <ele>501</ele>
        <time>2021-03-13T12:15:13Z</time>
      </trkpt>
      <trkpt lat="43.02226" lon="0.92416">
        <ele>501</ele>
        <time>2021-03-13T12:15:14Z</time>
      </trkpt>
      <trkpt lat="43.02225" lon="0.92415">
        <ele>501</ele>
        <time>2021-03-13T12:15:15Z</time>
      </trkpt>
      <trkpt lat="43.02223" lon="0.92414">
        <ele>501</ele>
        <time>2021-03-13T12:15:16Z</time>
      </trkpt>
      <trkpt lat="43.02221" lon="0.92414">
        <ele>501</ele>
        <time>2021-03-13T12:15:17Z</time>
      </trkpt>
      <trkpt lat="43.02219" lon="0.92413">
        <ele>501</ele>
        <time>2021-03-13T12:15:18Z</time>
      </trkpt>
      <trkpt lat="43.02217" lon="0.92412">
        <ele>501</ele>
        <time>2021-03-13T12:15:19Z</time>
      </trkpt>
      <trkpt lat="43.02215" lon="0.92411">
        <ele>503</ele>
        <time>2021-03-13T12:15:20Z</time>
      </trkpt>
      <trkpt lat="43.02213" lon="0.9241">
        <ele>503</ele>
        <time>2021-03-13T12:15:21Z</time>
      </trkpt>
      <trkpt lat="43.02212" lon="0.9241">
        <ele>503</ele>
        <time>2021-03-13T12:15:22Z</time>
      </trkpt>
      <trkpt lat="43.0221" lon="0.92409">
        <ele>503</ele>
        <time>2021-03-13T12:15:23Z</time>
      </trkpt>
      <trkpt lat="43.02209" lon="0.92408">
        <ele>503</ele>
        <time>2021-03-13T12:15:24Z</time>
      </trkpt>
      <trkpt lat="43.02207" lon="0.92407">
        <ele>506</ele>
        <time>2021-03-13T12:15:25Z</time>
      </trkpt>
      <trkpt lat="43.02206" lon="0.92406">
        <ele>506</ele>
        <time>2021-03-13T12:15:26Z</time>
      </trkpt>
      <trkpt lat="43.02204" lon="0.92405">
        <ele>506</ele>
        <time>2021-03-13T12:15:27Z</time>
      </trkpt>
      <trkpt lat="43.02203" lon="0.92404">
        <ele>506</ele>
        <time>2021-03-13T12:15:28Z</time>
      </trkpt>
      <trkpt lat="43.02201" lon="0.92403">
        <ele>506</ele>
        <time>2021-03-13T12:15:29Z</time>
      </trkpt>
      <trkpt lat="43.02199" lon="0.92403">
        <ele>507</ele>
        <time>2021-03-13T12:15:30Z</time>
      </trkpt>
      <trkpt lat="43.02198" lon="0.92403">
        <ele>507</ele>
        <time>2021-03-13T12:15:31Z</time>
      </trkpt>
      <trkpt lat="43.02197" lon="0.92403">
        <ele>507</ele>
        <time>2021-03-13T12:15:32Z</time>
      </trkpt>
      <trkpt lat="43.02195" lon="0.92403">
        <ele>507</ele>
        <time>2021-03-13T12:15:33Z</time>
      </trkpt>
      <trkpt lat="43.02196" lon="0.92404">
        <ele>507</ele>
        <time>2021-03-13T12:15:34Z</time>
      </trkpt>
      <trkpt lat="43.02196" lon="0.92405">
        <ele>507</ele>
        <time>2021-03-13T12:15:35Z</time>
      </trkpt>
      <trkpt lat="43.02197" lon="0.92406">
        <ele>507</ele>
        <time>2021-03-13T12:15:36Z</time>
      </trkpt>
      <trkpt lat="43.02197" lon="0.92407">
        <ele>507</ele>
        <time>2021-03-13T12:15:37Z</time>
      </trkpt>
      <trkpt lat="43.02198" lon="0.92408">
        <ele>507</ele>
        <time>2021-03-13T12:15:38Z</time>
      </trkpt>
      <trkpt lat="43.02199" lon="0.92409">
        <ele>507</ele>
        <time>2021-03-13T12:15:39Z</time>
      </trkpt>
      <trkpt lat="43.022" lon="0.92411">
        <ele>509</ele>
        <time>2021-03-13T12:15:40Z</time>
      </trkpt>
      <trkpt lat="43.02202" lon="0.92412">
        <ele>509</ele>
        <time>2021-03-13T12:15:41Z</time>
      </trkpt>
      <trkpt lat="43.02203" lon="0.92413">
        <ele>509</ele>
        <time>2021-03-13T12:15:42Z</time>
      </trkpt>
      <trkpt lat="43.02205" lon="0.92415">
        <ele>509</ele>
        <time>2021-03-13T12:15:43Z</time>
      </trkpt>
      <trkpt lat="43.02206" lon="0.92416">
        <ele>509</ele>
        <time>2021-03-13T12:15:44Z</time>
      </trkpt>
      <trkpt lat="43.02208" lon="0.92418">
        <ele>510</ele>
        <time>2021-03-13T12:15:45Z</time>
      </trkpt>
      <trkpt lat="43.02209" lon="0.9242">
        <ele>510</ele>
        <time>2021-03-13T12:15:46Z</time>
      </trkpt>
      <trkpt lat="43.02211" lon="0.92421">
        <ele>510</ele>
        <time>2021-03-13T12:15:47Z</time>
      </trkpt>
      <trkpt lat="43.02212" lon="0.92423">
        <ele>510</ele>
        <time>2021-03-13T12:15:48Z</time>
      </trkpt>
      <trkpt lat="43.02213" lon="0.92425">
        <ele>510</ele>
        <time>2021-03-13T12:15:49Z</time>
      </trkpt>
      <trkpt lat="43.02215" lon="0.92426">
        <ele>510</ele>
        <time>2021-03-13T12:15:50Z</time>
      </trkpt>
      <trkpt lat="43.02217" lon="0.92428">
        <ele>510</ele>
        <time>2021-03-13T12:15:51Z</time>
      </trkpt>
      <trkpt lat="43.02219" lon="0.9243">
        <ele>510</ele>
        <time>2021-03-13T12:15:52Z</time>
      </trkpt>
      <trkpt lat="43.02221" lon="0.92432">
        <ele>510</ele>
        <time>2021-03-13T12:15:53Z</time>
      </trkpt>
      <trkpt lat="43.02223" lon="0.92433">
        <ele>510</ele>
        <time>2021-03-13T12:15:54Z</time>
      </trkpt>
      <trkpt lat="43.02225" lon="0.92435">
        <ele>510</ele>
        <time>2021-03-13T12:15:55Z</time>
      </trkpt>
      <trkpt lat="43.02226" lon="0.92436">
        <ele>510</ele>
        <time>2021-03-13T12:15:56Z</time>
      </trkpt>
      <trkpt lat="43.02228" lon="0.92438">
        <ele>510</ele>
        <time>2021-03-13T12:15:57Z</time>
      </trkpt>
      <trkpt lat="43.02229" lon="0.9244">
        <ele>510</ele>
        <time>2021-03-13T12:15:58Z</time>
      </trkpt>
      <trkpt lat="43.02229" lon="0.92442">
        <ele>510</ele>
        <time>2021-03-13T12:15:59Z</time>
      </trkpt>
      <trkpt lat="43.0223" lon="0.92443">
        <ele>512</ele>
        <time>2021-03-13T12:16:00Z</time>
      </trkpt>
      <trkpt lat="43.0223" lon="0.92445">
        <ele>512</ele>
        <time>2021-03-13T12:16:01Z</time>
      </trkpt>
      <trkpt lat="43.02231" lon="0.92447">
        <ele>512</ele>
        <time>2021-03-13T12:16:02Z</time>
      </trkpt>
      <trkpt lat="43.02232" lon="0.92449">
        <ele>512</ele>
        <time>2021-03-13T12:16:03Z</time>
      </trkpt>
      <trkpt lat="43.02234" lon="0.9245">
        <ele>512</ele>
        <time>2021-03-13T12:16:04Z</time>
      </trkpt>
      <trkpt lat="43.02235" lon="0.92452">
        <ele>512</ele>
        <time>2021-03-13T12:16:05Z</time>
      </trkpt>
      <trkpt lat="43.02236" lon="0.92454">
        <ele>512</ele>
        <time>2021-03-13T12:16:06Z</time>
      </trkpt>
      <trkpt lat="43.02237" lon="0.92456">
        <ele>512</ele>
        <time>2021-03-13T12:16:07Z</time>
      </trkpt>
      <trkpt lat="43.02238" lon="0.92457">
        <ele>512</ele>
        <time>2021-03-13T12:16:08Z</time>
      </trkpt>
      <trkpt lat="43.02239" lon="0.92459">
        <ele>512</ele>
        <time>2021-03-13T12:16:09Z</time>
      </trkpt>
      <trkpt lat="43.0224" lon="0.92461">
        <ele>513</ele>
        <time>2021-03-13T12:16:10Z</time>
      </trkpt>
      <trkpt lat="43.02242" lon="0.92462">
        <ele>513</ele>
        <time>2021-03-13T12:16:11Z</time>
      </trkpt>
      <trkpt lat="43.02243" lon="0.92464">
        <ele>513</ele>
        <time>2021-03-13T12:16:12Z</time>
      </trkpt>
      <trkpt lat="43.02244" lon="0.92465">
        <ele>513</ele>
        <time>2021-03-13T12:16:13Z</time>
      </trkpt>
      <trkpt lat="43.02245" lon="0.92467">
        <ele>513</ele>
        <time>2021-03-13T12:16:14Z</time>
      </trkpt>
      <trkpt lat="43.02246" lon="0.92469">
        <ele>513</ele>
        <time>2021-03-13T12:16:15Z</time>
      </trkpt>
      <trkpt lat="43.02247" lon="0.9247">
        <ele>513</ele>
        <time>2021-03-13T12:16:16Z</time>
      </trkpt>
      <trkpt lat="43.02249" lon="0.92472">
        <ele>513</ele>
        <time>2021-03-13T12:16:17Z</time>
      </trkpt>
      <trkpt lat="43.0225" lon="0.92473">
        <ele>513</ele>
        <time>2021-03-13T12:16:18Z</time>
      </trkpt>
      <trkpt lat="43.02251" lon="0.92475">
        <ele>513</ele>
        <time>2021-03-13T12:16:19Z</time>
      </trkpt>
      <trkpt lat="43.02252" lon="0.92476">
        <ele>515</ele>
        <time>2021-03-13T12:16:20Z</time>
      </trkpt>
      <trkpt lat="43.02253" lon="0.92478">
        <ele>515</ele>
        <time>2021-03-13T12:16:21Z</time>
      </trkpt>
      <trkpt lat="43.02255" lon="0.9248">
        <ele>515</ele>
        <time>2021-03-13T12:16:22Z</time>
      </trkpt>
      <trkpt lat="43.02256" lon="0.92481">
        <ele>515</ele>
        <time>2021-03-13T12:16:23Z</time>
      </trkpt>
      <trkpt lat="43.02258" lon="0.92483">
        <ele>515</ele>
        <time>2021-03-13T12:16:24Z</time>
      </trkpt>
      <trkpt lat="43.0226" lon="0.92485">
        <ele>515</ele>
        <time>2021-03-13T12:16:25Z</time>
      </trkpt>
      <trkpt lat="43.02261" lon="0.92487">
        <ele>515</ele>
        <time>2021-03-13T12:16:26Z</time>
      </trkpt>
      <trkpt lat="43.02264" lon="0.92489">
        <ele>515</ele>
        <time>2021-03-13T12:16:27Z</time>
      </trkpt>
      <trkpt lat="43.02266" lon="0.9249">
        <ele>515</ele>
        <time>2021-03-13T12:16:28Z</time>
      </trkpt>
      <trkpt lat="43.02268" lon="0.92492">
        <ele>515</ele>
        <time>2021-03-13T12:16:29Z</time>
      </trkpt>
      <trkpt lat="43.0227" lon="0.92494">
        <ele>518</ele>
        <time>2021-03-13T12:16:30Z</time>
      </trkpt>
      <trkpt lat="43.02272" lon="0.92495">
        <ele>518</ele>
        <time>2021-03-13T12:16:31Z</time>
      </trkpt>
      <trkpt lat="43.02273" lon="0.92497">
        <ele>518</ele>
        <time>2021-03-13T12:16:32Z</time>
      </trkpt>
      <trkpt lat="43.02275" lon="0.92499">
        <ele>518</ele>
        <time>2021-03-13T12:16:33Z</time>
      </trkpt>
      <trkpt lat="43.02276" lon="0.92501">
        <ele>518</ele>
        <time>2021-03-13T12:16:34Z</time>
      </trkpt>
      <trkpt lat="43.02277" lon="0.92503">
        <ele>520</ele>
        <time>2021-03-13T12:16:35Z</time>
      </trkpt>
      <trkpt lat="43.02278" lon="0.92505">
        <ele>520</ele>
        <time>2021-03-13T12:16:36Z</time>
      </trkpt>
      <trkpt lat="43.0228" lon="0.92507">
        <ele>520</ele>
        <time>2021-03-13T12:16:37Z</time>
      </trkpt>
      <trkpt lat="43.02281" lon="0.92509">
        <ele>520</ele>
        <time>2021-03-13T12:16:38Z</time>
      </trkpt>
      <trkpt lat="43.02282" lon="0.9251">
        <ele>520</ele>
        <time>2021-03-13T12:16:39Z</time>
      </trkpt>
      <trkpt lat="43.02283" lon="0.92512">
        <ele>521</ele>
        <time>2021-03-13T12:16:40Z</time>
      </trkpt>
      <trkpt lat="43.02284" lon="0.92513">
        <ele>521</ele>
        <time>2021-03-13T12:16:41Z</time>
      </trkpt>
      <trkpt lat="43.02286" lon="0.92515">
        <ele>521</ele>
        <time>2021-03-13T12:16:42Z</time>
      </trkpt>
      <trkpt lat="43.02287" lon="0.92516">
        <ele>521</ele>
        <time>2021-03-13T12:16:43Z</time>
      </trkpt>
      <trkpt lat="43.02288" lon="0.92518">
        <ele>521</ele>
        <time>2021-03-13T12:16:44Z</time>
      </trkpt>
      <trkpt lat="43.02289" lon="0.92519">
        <ele>522</ele>
        <time>2021-03-13T12:16:45Z</time>
      </trkpt>
      <trkpt lat="43.0229" lon="0.92521">
        <ele>522</ele>
        <time>2021-03-13T12:16:46Z</time>
      </trkpt>
      <trkpt lat="43.02291" lon="0.92523">
        <ele>522</ele>
        <time>2021-03-13T12:16:47Z</time>
      </trkpt>
      <trkpt lat="43.02291" lon="0.92524">
        <ele>522</ele>
        <time>2021-03-13T12:16:48Z</time>
      </trkpt>
      <trkpt lat="43.02292" lon="0.92526">
        <ele>522</ele>
        <time>2021-03-13T12:16:49Z</time>
      </trkpt>
      <trkpt lat="43.02293" lon="0.92528">
        <ele>522</ele>
        <time>2021-03-13T12:16:50Z</time>
      </trkpt>
      <trkpt lat="43.02294" lon="0.9253">
        <ele>522</ele>
        <time>2021-03-13T12:16:51Z</time>
      </trkpt>
      <trkpt lat="43.02295" lon="0.92532">
        <ele>522</ele>
        <time>2021-03-13T12:16:52Z</time>
      </trkpt>
      <trkpt lat="43.02296" lon="0.92534">
        <ele>522</ele>
        <time>2021-03-13T12:16:53Z</time>
      </trkpt>
      <trkpt lat="43.02297" lon="0.92536">
        <ele>522</ele>
        <time>2021-03-13T12:16:54Z</time>
      </trkpt>
      <trkpt lat="43.02298" lon="0.92538">
        <ele>522</ele>
        <time>2021-03-13T12:16:55Z</time>
      </trkpt>
      <trkpt lat="43.02298" lon="0.9254">
        <ele>522</ele>
        <time>2021-03-13T12:16:56Z</time>
      </trkpt>
      <trkpt lat="43.02299" lon="0.92542">
        <ele>522</ele>
        <time>2021-03-13T12:16:57Z</time>
      </trkpt>
      <trkpt lat="43.023" lon="0.92544">
        <ele>522</ele>
        <time>2021-03-13T12:16:58Z</time>
      </trkpt>
      <trkpt lat="43.02301" lon="0.92546">
        <ele>522</ele>
        <time>2021-03-13T12:16:59Z</time>
      </trkpt>
      <trkpt lat="43.02301" lon="0.92548">
        <ele>525</ele>
        <time>2021-03-13T12:17:00Z</time>
      </trkpt>
      <trkpt lat="43.02302" lon="0.9255">
        <ele>525</ele>
        <time>2021-03-13T12:17:01Z</time>
      </trkpt>
      <trkpt lat="43.02302" lon="0.92552">
        <ele>525</ele>
        <time>2021-03-13T12:17:02Z</time>
      </trkpt>
      <trkpt lat="43.02303" lon="0.92554">
        <ele>525</ele>
        <time>2021-03-13T12:17:03Z</time>
      </trkpt>
      <trkpt lat="43.02304" lon="0.92556">
        <ele>525</ele>
        <time>2021-03-13T12:17:04Z</time>
      </trkpt>
      <trkpt lat="43.02305" lon="0.92557">
        <ele>526</ele>
        <time>2021-03-13T12:17:05Z</time>
      </trkpt>
      <trkpt lat="43.02306" lon="0.92559">
        <ele>526</ele>
        <time>2021-03-13T12:17:06Z</time>
      </trkpt>
      <trkpt lat="43.02308" lon="0.92561">
        <ele>526</ele>
        <time>2021-03-13T12:17:07Z</time>
      </trkpt>
      <trkpt lat="43.02309" lon="0.92563">
        <ele>526</ele>
        <time>2021-03-13T12:17:08Z</time>
      </trkpt>
      <trkpt lat="43.0231" lon="0.92565">
        <ele>526</ele>
        <time>2021-03-13T12:17:09Z</time>
      </trkpt>
      <trkpt lat="43.02311" lon="0.92567">
        <ele>527</ele>
        <time>2021-03-13T12:17:10Z</time>
      </trkpt>
      <trkpt lat="43.02311" lon="0.92568">
        <ele>527</ele>
        <time>2021-03-13T12:17:11Z</time>
      </trkpt>
      <trkpt lat="43.02312" lon="0.9257">
        <ele>527</ele>
        <time>2021-03-13T12:17:12Z</time>
      </trkpt>
      <trkpt lat="43.02313" lon="0.92572">
        <ele>527</ele>
        <time>2021-03-13T12:17:13Z</time>
      </trkpt>
      <trkpt lat="43.02313" lon="0.92574">
        <ele>527</ele>
        <time>2021-03-13T12:17:14Z</time>
      </trkpt>
      <trkpt lat="43.02314" lon="0.92577">
        <ele>527</ele>
        <time>2021-03-13T12:17:15Z</time>
      </trkpt>
      <trkpt lat="43.02315" lon="0.92579">
        <ele>527</ele>
        <time>2021-03-13T12:17:16Z</time>
      </trkpt>
      <trkpt lat="43.02316" lon="0.92582">
        <ele>527</ele>
        <time>2021-03-13T12:17:17Z</time>
      </trkpt>
      <trkpt lat="43.02318" lon="0.92584">
        <ele>527</ele>
        <time>2021-03-13T12:17:18Z</time>
      </trkpt>
      <trkpt lat="43.02319" lon="0.92587">
        <ele>527</ele>
        <time>2021-03-13T12:17:19Z</time>
      </trkpt>
      <trkpt lat="43.0232" lon="0.9259">
        <ele>529</ele>
        <time>2021-03-13T12:17:20Z</time>
      </trkpt>
      <trkpt lat="43.02321" lon="0.92592">
        <ele>529</ele>
        <time>2021-03-13T12:17:21Z</time>
      </trkpt>
      <trkpt lat="43.02322" lon="0.92595">
        <ele>529</ele>
        <time>2021-03-13T12:17:22Z</time>
      </trkpt>
      <trkpt lat="43.02323" lon="0.92597">
        <ele>529</ele>
        <time>2021-03-13T12:17:23Z</time>
      </trkpt>
      <trkpt lat="43.02324" lon="0.92599">
        <ele>529</ele>
        <time>2021-03-13T12:17:24Z</time>
      </trkpt>
      <trkpt lat="43.02325" lon="0.92602">
        <ele>529</ele>
        <time>2021-03-13T12:17:25Z</time>
      </trkpt>
      <trkpt lat="43.02326" lon="0.92604">
        <ele>529</ele>
        <time>2021-03-13T12:17:26Z</time>
      </trkpt>
      <trkpt lat="43.02327" lon="0.92606">
        <ele>529</ele>
        <time>2021-03-13T12:17:27Z</time>
      </trkpt>
      <trkpt lat="43.02328" lon="0.92609">
        <ele>529</ele>
        <time>2021-03-13T12:17:28Z</time>
      </trkpt>
      <trkpt lat="43.02329" lon="0.92612">
        <ele>529</ele>
        <time>2021-03-13T12:17:29Z</time>
      </trkpt>
      <trkpt lat="43.02329" lon="0.92614">
        <ele>531</ele>
        <time>2021-03-13T12:17:30Z</time>
      </trkpt>
      <trkpt lat="43.02329" lon="0.92617">
        <ele>531</ele>
        <time>2021-03-13T12:17:31Z</time>
      </trkpt>
      <trkpt lat="43.02329" lon="0.92619">
        <ele>531</ele>
        <time>2021-03-13T12:17:32Z</time>
      </trkpt>
      <trkpt lat="43.02329" lon="0.92622">
        <ele>531</ele>
        <time>2021-03-13T12:17:33Z</time>
      </trkpt>
      <trkpt lat="43.02328" lon="0.92622">
        <ele>531</ele>
        <time>2021-03-13T12:17:34Z</time>
      </trkpt>
      <trkpt lat="43.02328" lon="0.92623">
        <ele>534</ele>
        <time>2021-03-13T12:17:35Z</time>
      </trkpt>
      <trkpt lat="43.02327" lon="0.92623">
        <ele>534</ele>
        <time>2021-03-13T12:17:36Z</time>
      </trkpt>
      <trkpt lat="43.02327" lon="0.92623">
        <ele>534</ele>
        <time>2021-03-13T12:17:37Z</time>
      </trkpt>
      <trkpt lat="43.02326" lon="0.92624">
        <ele>534</ele>
        <time>2021-03-13T12:17:38Z</time>
      </trkpt>
      <trkpt lat="43.02326" lon="0.92624">
        <ele>534</ele>
        <time>2021-03-13T12:17:39Z</time>
      </trkpt>
      <trkpt lat="43.02325" lon="0.92624">
        <ele>534</ele>
        <time>2021-03-13T12:17:40Z</time>
      </trkpt>
      <trkpt lat="43.02325" lon="0.92624">
        <ele>534</ele>
        <time>2021-03-13T12:17:41Z</time>
      </trkpt>
      <trkpt lat="43.02325" lon="0.92625">
        <ele>534</ele>
        <time>2021-03-13T12:17:42Z</time>
      </trkpt>
      <trkpt lat="43.02324" lon="0.92625">
        <ele>534</ele>
        <time>2021-03-13T12:17:43Z</time>
      </trkpt>
      <trkpt lat="43.02324" lon="0.92625">
        <ele>534</ele>
        <time>2021-03-13T12:17:44Z</time>
      </trkpt>
      <trkpt lat="43.02323" lon="0.92626">
        <ele>534</ele>
        <time>2021-03-13T12:17:45Z</time>
      </trkpt>
      <trkpt lat="43.02323" lon="0.92626">
        <ele>534</ele>
        <time>2021-03-13T12:17:46Z</time>
      </trkpt>
      <trkpt lat="43.02323" lon="0.92626">
        <ele>534</ele>
        <time>2021-03-13T12:17:47Z</time>
      </trkpt>
      <trkpt lat="43.02322" lon="0.92626">
        <ele>534</ele>
        <time>2021-03-13T12:17:48Z</time>
      </trkpt>
      <trkpt lat="43.02322" lon="0.92626">
        <ele>534</ele>
        <time>2021-03-13T12:17:49Z</time>
      </trkpt>
      <trkpt lat="43.02322" lon="0.92626">
        <ele>534</ele>
        <time>2021-03-13T12:17:50Z</time>
      </trkpt>
      <trkpt lat="43.02322" lon="0.92626">
        <ele>534</ele>
        <time>2021-03-13T12:17:51Z</time>
      </trkpt>
      <trkpt lat="43.02322" lon="0.92626">
        <ele>534</ele>
        <time>2021-03-13T12:17:52Z</time>
      </trkpt>
      <trkpt lat="43.02322" lon="0.92626">
        <ele>534</ele>
        <time>2021-03-13T12:17:53Z</time>
      </trkpt>
      <trkpt lat="43.02322" lon="0.92626">
        <ele>534</ele>
        <time>2021-03-13T12:17:54Z</time>
      </trkpt>
      <trkpt lat="43.02321" lon="0.92626">
        <ele>534</ele>
        <time>2021-03-13T12:17:55Z</time>
      </trkpt>
      <trkpt lat="43.02321" lon="0.92626">
        <ele>534</ele>
        <time>2021-03-13T12:17:56Z</time>
      </trkpt>
      <trkpt lat="43.02321" lon="0.92626">
        <ele>534</ele>
        <time>2021-03-13T12:17:57Z</time>
      </trkpt>
      <trkpt lat="43.02321" lon="0.92626">
        <ele>534</ele>
        <time>2021-03-13T12:17:58Z</time>
      </trkpt>
      <trkpt lat="43.02321" lon="0.92626">
        <ele>534</ele>
        <time>2021-03-13T12:17:59Z</time>
      </trkpt>
      <trkpt lat="43.02321" lon="0.92626">
        <ele>533</ele>
        <time>2021-03-13T12:18:00Z</time>
      </trkpt>
      <trkpt lat="43.02321" lon="0.92626">
        <ele>533</ele>
        <time>2021-03-13T12:18:01Z</time>
      </trkpt>
      <trkpt lat="43.0232" lon="0.92626">
        <ele>533</ele>
        <time>2021-03-13T12:18:02Z</time>
      </trkpt>
      <trkpt lat="43.0232" lon="0.92626">
        <ele>533</ele>
        <time>2021-03-13T12:18:03Z</time>
      </trkpt>
      <trkpt lat="43.0232" lon="0.92627">
        <ele>533</ele>
        <time>2021-03-13T12:18:04Z</time>
      </trkpt>
      <trkpt lat="43.0232" lon="0.92627">
        <ele>533</ele>
        <time>2021-03-13T12:18:05Z</time>
      </trkpt>
      <trkpt lat="43.0232" lon="0.92627">
        <ele>533</ele>
        <time>2021-03-13T12:18:06Z</time>
      </trkpt>
      <trkpt lat="43.0232" lon="0.92627">
        <ele>533</ele>
        <time>2021-03-13T12:18:07Z</time>
      </trkpt>
      <trkpt lat="43.0232" lon="0.92627">
        <ele>533</ele>
        <time>2021-03-13T12:18:08Z</time>
      </trkpt>
      <trkpt lat="43.0232" lon="0.92627">
        <ele>533</ele>
        <time>2021-03-13T12:18:09Z</time>
      </trkpt>
      <trkpt lat="43.02319" lon="0.92627">
        <ele>533</ele>
        <time>2021-03-13T12:18:10Z</time>
      </trkpt>
      <trkpt lat="43.02319" lon="0.92627">
        <ele>533</ele>
        <time>2021-03-13T12:18:11Z</time>
      </trkpt>
      <trkpt lat="43.02319" lon="0.92627">
        <ele>533</ele>
        <time>2021-03-13T12:18:12Z</time>
      </trkpt>
      <trkpt lat="43.02319" lon="0.92627">
        <ele>533</ele>
        <time>2021-03-13T12:18:13Z</time>
      </trkpt>
      <trkpt lat="43.02319" lon="0.92627">
        <ele>533</ele>
        <time>2021-03-13T12:18:14Z</time>
      </trkpt>
      <trkpt lat="43.02319" lon="0.92627">
        <ele>533</ele>
        <time>2021-03-13T12:18:15Z</time>
      </trkpt>
      <trkpt lat="43.02319" lon="0.92627">
        <ele>533</ele>
        <time>2021-03-13T12:18:16Z</time>
      </trkpt>
      <trkpt lat="43.02318" lon="0.92627">
        <ele>533</ele>
        <time>2021-03-13T12:18:17Z</time>
      </trkpt>
      <trkpt lat="43.02318" lon="0.92627">
        <ele>533</ele>
        <time>2021-03-13T12:18:18Z</time>
      </trkpt>
      <trkpt lat="43.02318" lon="0.92627">
        <ele>533</ele>
        <time>2021-03-13T12:18:19Z</time>
      </trkpt>
      <trkpt lat="43.02318" lon="0.92627">
        <ele>533</ele>
        <time>2021-03-13T12:18:20Z</time>
      </trkpt>
      <trkpt lat="43.02318" lon="0.92627">
        <ele>533</ele>
        <time>2021-03-13T12:18:21Z</time>
      </trkpt>
      <trkpt lat="43.02318" lon="0.92627">
        <ele>533</ele>
        <time>2021-03-13T12:18:22Z</time>
      </trkpt>
      <trkpt lat="43.02318" lon="0.92627">
        <ele>533</ele>
        <time>2021-03-13T12:18:23Z</time>
      </trkpt>
      <trkpt lat="43.02317" lon="0.92627">
        <ele>533</ele>
        <time>2021-03-13T12:18:24Z</time>
      </trkpt>
      <trkpt lat="43.02317" lon="0.92627">
        <ele>533</ele>
        <time>2021-03-13T12:18:25Z</time>
      </trkpt>
      <trkpt lat="43.02317" lon="0.92627">
        <ele>533</ele>
        <time>2021-03-13T12:18:26Z</time>
      </trkpt>
      <trkpt lat="43.02317" lon="0.92627">
        <ele>533</ele>
        <time>2021-03-13T12:18:27Z</time>
      </trkpt>
      <trkpt lat="43.02317" lon="0.92627">
        <ele>533</ele>
        <time>2021-03-13T12:18:28Z</time>
      </trkpt>
      <trkpt lat="43.02317" lon="0.92627">
        <ele>533</ele>
        <time>2021-03-13T12:18:29Z</time>
      </trkpt>
      <trkpt lat="43.02317" lon="0.92627">
        <ele>534</ele>
        <time>2021-03-13T12:18:30Z</time>
      </trkpt>
      <trkpt lat="43.02316" lon="0.92627">
        <ele>534</ele>
        <time>2021-03-13T12:18:31Z</time>
      </trkpt>
      <trkpt lat="43.02316" lon="0.92627">
        <ele>534</ele>
        <time>2021-03-13T12:18:32Z</time>
      </trkpt>
      <trkpt lat="43.02316" lon="0.92627">
        <ele>534</ele>
        <time>2021-03-13T12:18:33Z</time>
      </trkpt>
      <trkpt lat="43.02316" lon="0.92627">
        <ele>534</ele>
        <time>2021-03-13T12:18:34Z</time>
      </trkpt>
      <trkpt lat="43.02316" lon="0.92627">
        <ele>534</ele>
        <time>2021-03-13T12:18:35Z</time>
      </trkpt>
      <trkpt lat="43.02315" lon="0.92626">
        <ele>534</ele>
        <time>2021-03-13T12:18:36Z</time>
      </trkpt>
      <trkpt lat="43.02314" lon="0.92624">
        <ele>534</ele>
        <time>2021-03-13T12:18:37Z</time>
      </trkpt>
      <trkpt lat="43.02313" lon="0.92622">
        <ele>534</ele>
        <time>2021-03-13T12:18:38Z</time>
      </trkpt>
      <trkpt lat="43.02313" lon="0.9262">
        <ele>534</ele>
        <time>2021-03-13T12:18:39Z</time>
      </trkpt>
      <trkpt lat="43.02311" lon="0.92618">
        <ele>536</ele>
        <time>2021-03-13T12:18:40Z</time>
      </trkpt>
      <trkpt lat="43.02309" lon="0.92615">
        <ele>536</ele>
        <time>2021-03-13T12:18:41Z</time>
      </trkpt>
      <trkpt lat="43.02307" lon="0.92613">
        <ele>536</ele>
        <time>2021-03-13T12:18:42Z</time>
      </trkpt>
      <trkpt lat="43.02306" lon="0.92612">
        <ele>536</ele>
        <time>2021-03-13T12:18:43Z</time>
      </trkpt>
      <trkpt lat="43.02305" lon="0.9261">
        <ele>536</ele>
        <time>2021-03-13T12:18:44Z</time>
      </trkpt>
      <trkpt lat="43.02304" lon="0.92609">
        <ele>536</ele>
        <time>2021-03-13T12:18:45Z</time>
      </trkpt>
      <trkpt lat="43.02303" lon="0.92607">
        <ele>536</ele>
        <time>2021-03-13T12:18:46Z</time>
      </trkpt>
      <trkpt lat="43.02301" lon="0.92606">
        <ele>536</ele>
        <time>2021-03-13T12:18:47Z</time>
      </trkpt>
      <trkpt lat="43.023" lon="0.92605">
        <ele>536</ele>
        <time>2021-03-13T12:18:48Z</time>
      </trkpt>
      <trkpt lat="43.02299" lon="0.92604">
        <ele>536</ele>
        <time>2021-03-13T12:18:49Z</time>
      </trkpt>
      <trkpt lat="43.02298" lon="0.92603">
        <ele>538</ele>
        <time>2021-03-13T12:18:50Z</time>
      </trkpt>
      <trkpt lat="43.02297" lon="0.92601">
        <ele>538</ele>
        <time>2021-03-13T12:18:51Z</time>
      </trkpt>
      <trkpt lat="43.02295" lon="0.926">
        <ele>538</ele>
        <time>2021-03-13T12:18:52Z</time>
      </trkpt>
      <trkpt lat="43.02294" lon="0.92599">
        <ele>538</ele>
        <time>2021-03-13T12:18:53Z</time>
      </trkpt>
      <trkpt lat="43.02292" lon="0.92598">
        <ele>538</ele>
        <time>2021-03-13T12:18:54Z</time>
      </trkpt>
      <trkpt lat="43.02291" lon="0.92596">
        <ele>538</ele>
        <time>2021-03-13T12:18:55Z</time>
      </trkpt>
      <trkpt lat="43.02289" lon="0.92595">
        <ele>538</ele>
        <time>2021-03-13T12:18:56Z</time>
      </trkpt>
      <trkpt lat="43.02287" lon="0.92593">
        <ele>538</ele>
        <time>2021-03-13T12:18:57Z</time>
      </trkpt>
      <trkpt lat="43.02285" lon="0.92591">
        <ele>538</ele>
        <time>2021-03-13T12:18:58Z</time>
      </trkpt>
      <trkpt lat="43.02284" lon="0.9259">
        <ele>538</ele>
        <time>2021-03-13T12:18:59Z</time>
      </trkpt>
      <trkpt lat="43.02283" lon="0.92588">
        <ele>541</ele>
        <time>2021-03-13T12:19:00Z</time>
      </trkpt>
      <trkpt lat="43.02281" lon="0.92587">
        <ele>541</ele>
        <time>2021-03-13T12:19:01Z</time>
      </trkpt>
      <trkpt lat="43.0228" lon="0.92585">
        <ele>541</ele>
        <time>2021-03-13T12:19:02Z</time>
      </trkpt>
      <trkpt lat="43.02279" lon="0.92584">
        <ele>541</ele>
        <time>2021-03-13T12:19:03Z</time>
      </trkpt>
      <trkpt lat="43.02277" lon="0.92583">
        <ele>541</ele>
        <time>2021-03-13T12:19:04Z</time>
      </trkpt>
      <trkpt lat="43.02276" lon="0.92582">
        <ele>542</ele>
        <time>2021-03-13T12:19:05Z</time>
      </trkpt>
      <trkpt lat="43.02274" lon="0.92581">
        <ele>542</ele>
        <time>2021-03-13T12:19:06Z</time>
      </trkpt>
      <trkpt lat="43.02273" lon="0.9258">
        <ele>542</ele>
        <time>2021-03-13T12:19:07Z</time>
      </trkpt>
      <trkpt lat="43.02271" lon="0.92579">
        <ele>542</ele>
        <time>2021-03-13T12:19:08Z</time>
      </trkpt>
      <trkpt lat="43.0227" lon="0.92579">
        <ele>542</ele>
        <time>2021-03-13T12:19:09Z</time>
      </trkpt>
      <trkpt lat="43.02268" lon="0.92578">
        <ele>544</ele>
        <time>2021-03-13T12:19:10Z</time>
      </trkpt>
      <trkpt lat="43.02267" lon="0.92577">
        <ele>544</ele>
        <time>2021-03-13T12:19:11Z</time>
      </trkpt>
      <trkpt lat="43.02266" lon="0.92577">
        <ele>544</ele>
        <time>2021-03-13T12:19:12Z</time>
      </trkpt>
      <trkpt lat="43.02265" lon="0.92576">
        <ele>544</ele>
        <time>2021-03-13T12:19:13Z</time>
      </trkpt>
      <trkpt lat="43.02264" lon="0.92575">
        <ele>544</ele>
        <time>2021-03-13T12:19:14Z</time>
      </trkpt>
      <trkpt lat="43.02262" lon="0.92574">
        <ele>546</ele>
        <time>2021-03-13T12:19:15Z</time>
      </trkpt>
      <trkpt lat="43.02261" lon="0.92573">
        <ele>546</ele>
        <time>2021-03-13T12:19:16Z</time>
      </trkpt>
      <trkpt lat="43.0226" lon="0.92572">
        <ele>546</ele>
        <time>2021-03-13T12:19:17Z</time>
      </trkpt>
      <trkpt lat="43.02259" lon="0.92571">
        <ele>546</ele>
        <time>2021-03-13T12:19:18Z</time>
      </trkpt>
      <trkpt lat="43.02258" lon="0.9257">
        <ele>546</ele>
        <time>2021-03-13T12:19:19Z</time>
      </trkpt>
      <trkpt lat="43.02256" lon="0.92569">
        <ele>548</ele>
        <time>2021-03-13T12:19:20Z</time>
      </trkpt>
      <trkpt lat="43.02255" lon="0.92568">
        <ele>548</ele>
        <time>2021-03-13T12:19:21Z</time>
      </trkpt>
      <trkpt lat="43.02254" lon="0.92567">
        <ele>548</ele>
        <time>2021-03-13T12:19:22Z</time>
      </trkpt>
      <trkpt lat="43.02253" lon="0.92567">
        <ele>548</ele>
        <time>2021-03-13T12:19:23Z</time>
      </trkpt>
      <trkpt lat="43.02251" lon="0.92566">
        <ele>548</ele>
        <time>2021-03-13T12:19:24Z</time>
      </trkpt>
      <trkpt lat="43.0225" lon="0.92565">
        <ele>548</ele>
        <time>2021-03-13T12:19:25Z</time>
      </trkpt>
      <trkpt lat="43.02248" lon="0.92564">
        <ele>548</ele>
        <time>2021-03-13T12:19:26Z</time>
      </trkpt>
      <trkpt lat="43.02247" lon="0.92563">
        <ele>548</ele>
        <time>2021-03-13T12:19:27Z</time>
      </trkpt>
      <trkpt lat="43.02245" lon="0.92562">
        <ele>548</ele>
        <time>2021-03-13T12:19:28Z</time>
      </trkpt>
      <trkpt lat="43.02243" lon="0.9256">
        <ele>548</ele>
        <time>2021-03-13T12:19:29Z</time>
      </trkpt>
      <trkpt lat="43.02241" lon="0.92559">
        <ele>549</ele>
        <time>2021-03-13T12:19:30Z</time>
      </trkpt>
      <trkpt lat="43.02239" lon="0.92558">
        <ele>549</ele>
        <time>2021-03-13T12:19:31Z</time>
      </trkpt>
      <trkpt lat="43.02234" lon="0.92556">
        <ele>549</ele>
        <time>2021-03-13T12:19:32Z</time>
      </trkpt>
      <trkpt lat="43.02234" lon="0.92556">
        <ele>549</ele>
        <time>2021-03-13T12:19:33Z</time>
      </trkpt>
      <trkpt lat="43.02232" lon="0.92555">
        <ele>549</ele>
        <time>2021-03-13T12:19:34Z</time>
      </trkpt>
      <trkpt lat="43.02231" lon="0.92554">
        <ele>549</ele>
        <time>2021-03-13T12:19:35Z</time>
      </trkpt>
      <trkpt lat="43.02229" lon="0.92553">
        <ele>549</ele>
        <time>2021-03-13T12:19:36Z</time>
      </trkpt>
      <trkpt lat="43.02228" lon="0.92553">
        <ele>549</ele>
        <time>2021-03-13T12:19:37Z</time>
      </trkpt>
      <trkpt lat="43.02226" lon="0.92552">
        <ele>549</ele>
        <time>2021-03-13T12:19:38Z</time>
      </trkpt>
      <trkpt lat="43.02224" lon="0.92551">
        <ele>549</ele>
        <time>2021-03-13T12:19:39Z</time>
      </trkpt>
      <trkpt lat="43.02223" lon="0.92551">
        <ele>551</ele>
        <time>2021-03-13T12:19:40Z</time>
      </trkpt>
      <trkpt lat="43.02221" lon="0.92551">
        <ele>551</ele>
        <time>2021-03-13T12:19:41Z</time>
      </trkpt>
      <trkpt lat="43.02219" lon="0.92551">
        <ele>551</ele>
        <time>2021-03-13T12:19:42Z</time>
      </trkpt>
      <trkpt lat="43.02217" lon="0.9255">
        <ele>551</ele>
        <time>2021-03-13T12:19:43Z</time>
      </trkpt>
      <trkpt lat="43.02216" lon="0.9255">
        <ele>551</ele>
        <time>2021-03-13T12:19:44Z</time>
      </trkpt>
      <trkpt lat="43.02214" lon="0.9255">
        <ele>551</ele>
        <time>2021-03-13T12:19:45Z</time>
      </trkpt>
      <trkpt lat="43.02212" lon="0.9255">
        <ele>551</ele>
        <time>2021-03-13T12:19:46Z</time>
      </trkpt>
      <trkpt lat="43.0221" lon="0.9255">
        <ele>551</ele>
        <time>2021-03-13T12:19:47Z</time>
      </trkpt>
      <trkpt lat="43.02209" lon="0.92551">
        <ele>551</ele>
        <time>2021-03-13T12:19:48Z</time>
      </trkpt>
      <trkpt lat="43.02207" lon="0.92551">
        <ele>551</ele>
        <time>2021-03-13T12:19:49Z</time>
      </trkpt>
      <trkpt lat="43.02206" lon="0.92551">
        <ele>554</ele>
        <time>2021-03-13T12:19:50Z</time>
      </trkpt>
      <trkpt lat="43.02204" lon="0.92551">
        <ele>554</ele>
        <time>2021-03-13T12:19:51Z</time>
      </trkpt>
      <trkpt lat="43.02203" lon="0.92551">
        <ele>554</ele>
        <time>2021-03-13T12:19:52Z</time>
      </trkpt>
      <trkpt lat="43.02201" lon="0.92551">
        <ele>554</ele>
        <time>2021-03-13T12:19:53Z</time>
      </trkpt>
      <trkpt lat="43.022" lon="0.92551">
        <ele>554</ele>
        <time>2021-03-13T12:19:54Z</time>
      </trkpt>
      <trkpt lat="43.02198" lon="0.92551">
        <ele>556</ele>
        <time>2021-03-13T12:19:55Z</time>
      </trkpt>
      <trkpt lat="43.02197" lon="0.92551">
        <ele>556</ele>
        <time>2021-03-13T12:19:56Z</time>
      </trkpt>
      <trkpt lat="43.02195" lon="0.9255">
        <ele>556</ele>
        <time>2021-03-13T12:19:57Z</time>
      </trkpt>
      <trkpt lat="43.02193" lon="0.9255">
        <ele>556</ele>
        <time>2021-03-13T12:19:58Z</time>
      </trkpt>
      <trkpt lat="43.02192" lon="0.9255">
        <ele>556</ele>
        <time>2021-03-13T12:19:59Z</time>
      </trkpt>
      <trkpt lat="43.02191" lon="0.9255">
        <ele>558</ele>
        <time>2021-03-13T12:20:00Z</time>
      </trkpt>
      <trkpt lat="43.02189" lon="0.9255">
        <ele>558</ele>
        <time>2021-03-13T12:20:01Z</time>
      </trkpt>
      <trkpt lat="43.02188" lon="0.9255">
        <ele>558</ele>
        <time>2021-03-13T12:20:02Z</time>
      </trkpt>
      <trkpt lat="43.02186" lon="0.9255">
        <ele>558</ele>
        <time>2021-03-13T12:20:03Z</time>
      </trkpt>
      <trkpt lat="43.02184" lon="0.92549">
        <ele>558</ele>
        <time>2021-03-13T12:20:04Z</time>
      </trkpt>
      <trkpt lat="43.02182" lon="0.92549">
        <ele>559</ele>
        <time>2021-03-13T12:20:05Z</time>
      </trkpt>
      <trkpt lat="43.02181" lon="0.92549">
        <ele>559</ele>
        <time>2021-03-13T12:20:06Z</time>
      </trkpt>
      <trkpt lat="43.02179" lon="0.92549">
        <ele>559</ele>
        <time>2021-03-13T12:20:07Z</time>
      </trkpt>
      <trkpt lat="43.02177" lon="0.9255">
        <ele>559</ele>
        <time>2021-03-13T12:20:08Z</time>
      </trkpt>
      <trkpt lat="43.02175" lon="0.9255">
        <ele>559</ele>
        <time>2021-03-13T12:20:09Z</time>
      </trkpt>
      <trkpt lat="43.02174" lon="0.9255">
        <ele>559</ele>
        <time>2021-03-13T12:20:10Z</time>
      </trkpt>
      <trkpt lat="43.02172" lon="0.9255">
        <ele>559</ele>
        <time>2021-03-13T12:20:11Z</time>
      </trkpt>
      <trkpt lat="43.0217" lon="0.9255">
        <ele>559</ele>
        <time>2021-03-13T12:20:12Z</time>
      </trkpt>
      <trkpt lat="43.02169" lon="0.9255">
        <ele>559</ele>
        <time>2021-03-13T12:20:13Z</time>
      </trkpt>
      <trkpt lat="43.02167" lon="0.9255">
        <ele>559</ele>
        <time>2021-03-13T12:20:14Z</time>
      </trkpt>
      <trkpt lat="43.02165" lon="0.9255">
        <ele>559</ele>
        <time>2021-03-13T12:20:15Z</time>
      </trkpt>
      <trkpt lat="43.02163" lon="0.9255">
        <ele>559</ele>
        <time>2021-03-13T12:20:16Z</time>
      </trkpt>
      <trkpt lat="43.02161" lon="0.9255">
        <ele>559</ele>
        <time>2021-03-13T12:20:17Z</time>
      </trkpt>
      <trkpt lat="43.02159" lon="0.9255">
        <ele>559</ele>
        <time>2021-03-13T12:20:18Z</time>
      </trkpt>
      <trkpt lat="43.02157" lon="0.9255">
        <ele>559</ele>
        <time>2021-03-13T12:20:19Z</time>
      </trkpt>
      <trkpt lat="43.02155" lon="0.9255">
        <ele>561</ele>
        <time>2021-03-13T12:20:20Z</time>
      </trkpt>
      <trkpt lat="43.02154" lon="0.92549">
        <ele>561</ele>
        <time>2021-03-13T12:20:21Z</time>
      </trkpt>
      <trkpt lat="43.02152" lon="0.92549">
        <ele>561</ele>
        <time>2021-03-13T12:20:22Z</time>
      </trkpt>
      <trkpt lat="43.0215" lon="0.92549">
        <ele>561</ele>
        <time>2021-03-13T12:20:23Z</time>
      </trkpt>
      <trkpt lat="43.0215" lon="0.92549">
        <ele>561</ele>
        <time>2021-03-13T12:20:24Z</time>
      </trkpt>
      <trkpt lat="43.02149" lon="0.92549">
        <ele>561</ele>
        <time>2021-03-13T12:20:25Z</time>
      </trkpt>
      <trkpt lat="43.02148" lon="0.92549">
        <ele>561</ele>
        <time>2021-03-13T12:20:26Z</time>
      </trkpt>
      <trkpt lat="43.02148" lon="0.92549">
        <ele>561</ele>
        <time>2021-03-13T12:20:27Z</time>
      </trkpt>
      <trkpt lat="43.02147" lon="0.92549">
        <ele>561</ele>
        <time>2021-03-13T12:20:28Z</time>
      </trkpt>
      <trkpt lat="43.02146" lon="0.92549">
        <ele>561</ele>
        <time>2021-03-13T12:20:29Z</time>
      </trkpt>
      <trkpt lat="43.02146" lon="0.92549">
        <ele>563</ele>
        <time>2021-03-13T12:20:30Z</time>
      </trkpt>
      <trkpt lat="43.02146" lon="0.92549">
        <ele>563</ele>
        <time>2021-03-13T12:20:31Z</time>
      </trkpt>
      <trkpt lat="43.02146" lon="0.92549">
        <ele>563</ele>
        <time>2021-03-13T12:20:32Z</time>
      </trkpt>
      <trkpt lat="43.02146" lon="0.92549">
        <ele>563</ele>
        <time>2021-03-13T12:20:33Z</time>
      </trkpt>
      <trkpt lat="43.02142" lon="0.9255">
        <ele>563</ele>
        <time>2021-03-13T12:20:34Z</time>
      </trkpt>
      <trkpt lat="43.02142" lon="0.9255">
        <ele>563</ele>
        <time>2021-03-13T12:20:35Z</time>
      </trkpt>
      <trkpt lat="43.02141" lon="0.9255">
        <ele>563</ele>
        <time>2021-03-13T12:20:36Z</time>
      </trkpt>
      <trkpt lat="43.02139" lon="0.9255">
        <ele>563</ele>
        <time>2021-03-13T12:20:37Z</time>
      </trkpt>
      <trkpt lat="43.02138" lon="0.92549">
        <ele>563</ele>
        <time>2021-03-13T12:20:38Z</time>
      </trkpt>
      <trkpt lat="43.02136" lon="0.92549">
        <ele>563</ele>
        <time>2021-03-13T12:20:39Z</time>
      </trkpt>
      <trkpt lat="43.02135" lon="0.92548">
        <ele>565</ele>
        <time>2021-03-13T12:20:40Z</time>
      </trkpt>
      <trkpt lat="43.02133" lon="0.92548">
        <ele>565</ele>
        <time>2021-03-13T12:20:41Z</time>
      </trkpt>
      <trkpt lat="43.02129" lon="0.92548">
        <ele>565</ele>
        <time>2021-03-13T12:20:42Z</time>
      </trkpt>
      <trkpt lat="43.02129" lon="0.92548">
        <ele>565</ele>
        <time>2021-03-13T12:20:43Z</time>
      </trkpt>
      <trkpt lat="43.02127" lon="0.92547">
        <ele>565</ele>
        <time>2021-03-13T12:20:44Z</time>
      </trkpt>
      <trkpt lat="43.02125" lon="0.92547">
        <ele>565</ele>
        <time>2021-03-13T12:20:45Z</time>
      </trkpt>
      <trkpt lat="43.02123" lon="0.92546">
        <ele>565</ele>
        <time>2021-03-13T12:20:46Z</time>
      </trkpt>
      <trkpt lat="43.02118" lon="0.92545">
        <ele>565</ele>
        <time>2021-03-13T12:20:47Z</time>
      </trkpt>
      <trkpt lat="43.02118" lon="0.92545">
        <ele>565</ele>
        <time>2021-03-13T12:20:48Z</time>
      </trkpt>
      <trkpt lat="43.02117" lon="0.92545">
        <ele>565</ele>
        <time>2021-03-13T12:20:49Z</time>
      </trkpt>
      <trkpt lat="43.02115" lon="0.92545">
        <ele>566</ele>
        <time>2021-03-13T12:20:50Z</time>
      </trkpt>
      <trkpt lat="43.02114" lon="0.92545">
        <ele>566</ele>
        <time>2021-03-13T12:20:51Z</time>
      </trkpt>
      <trkpt lat="43.02109" lon="0.92546">
        <ele>566</ele>
        <time>2021-03-13T12:20:52Z</time>
      </trkpt>
      <trkpt lat="43.02109" lon="0.92546">
        <ele>566</ele>
        <time>2021-03-13T12:20:53Z</time>
      </trkpt>
      <trkpt lat="43.02104" lon="0.92545">
        <ele>566</ele>
        <time>2021-03-13T12:20:54Z</time>
      </trkpt>
      <trkpt lat="43.02104" lon="0.92545">
        <ele>566</ele>
        <time>2021-03-13T12:20:55Z</time>
      </trkpt>
      <trkpt lat="43.02099" lon="0.92546">
        <ele>566</ele>
        <time>2021-03-13T12:20:56Z</time>
      </trkpt>
      <trkpt lat="43.02099" lon="0.92546">
        <ele>566</ele>
        <time>2021-03-13T12:20:57Z</time>
      </trkpt>
      <trkpt lat="43.02094" lon="0.92546">
        <ele>566</ele>
        <time>2021-03-13T12:20:58Z</time>
      </trkpt>
      <trkpt lat="43.02094" lon="0.92546">
        <ele>566</ele>
        <time>2021-03-13T12:20:59Z</time>
      </trkpt>
      <trkpt lat="43.02093" lon="0.92546">
        <ele>568</ele>
        <time>2021-03-13T12:21:00Z</time>
      </trkpt>
      <trkpt lat="43.02091" lon="0.92546">
        <ele>568</ele>
        <time>2021-03-13T12:21:01Z</time>
      </trkpt>
      <trkpt lat="43.0209" lon="0.92547">
        <ele>568</ele>
        <time>2021-03-13T12:21:02Z</time>
      </trkpt>
      <trkpt lat="43.02088" lon="0.92547">
        <ele>568</ele>
        <time>2021-03-13T12:21:03Z</time>
      </trkpt>
      <trkpt lat="43.02087" lon="0.92548">
        <ele>568</ele>
        <time>2021-03-13T12:21:04Z</time>
      </trkpt>
      <trkpt lat="43.02085" lon="0.92548">
        <ele>570</ele>
        <time>2021-03-13T12:21:05Z</time>
      </trkpt>
      <trkpt lat="43.02084" lon="0.92549">
        <ele>570</ele>
        <time>2021-03-13T12:21:06Z</time>
      </trkpt>
      <trkpt lat="43.02083" lon="0.92549">
        <ele>570</ele>
        <time>2021-03-13T12:21:07Z</time>
      </trkpt>
      <trkpt lat="43.02082" lon="0.9255">
        <ele>570</ele>
        <time>2021-03-13T12:21:08Z</time>
      </trkpt>
      <trkpt lat="43.0208" lon="0.9255">
        <ele>570</ele>
        <time>2021-03-13T12:21:09Z</time>
      </trkpt>
      <trkpt lat="43.02079" lon="0.92551">
        <ele>571</ele>
        <time>2021-03-13T12:21:10Z</time>
      </trkpt>
      <trkpt lat="43.02078" lon="0.92552">
        <ele>571</ele>
        <time>2021-03-13T12:21:11Z</time>
      </trkpt>
      <trkpt lat="43.02077" lon="0.92553">
        <ele>571</ele>
        <time>2021-03-13T12:21:12Z</time>
      </trkpt>
      <trkpt lat="43.02075" lon="0.92554">
        <ele>571</ele>
        <time>2021-03-13T12:21:13Z</time>
      </trkpt>
      <trkpt lat="43.02074" lon="0.92556">
        <ele>571</ele>
        <time>2021-03-13T12:21:14Z</time>
      </trkpt>
      <trkpt lat="43.02072" lon="0.92557">
        <ele>572</ele>
        <time>2021-03-13T12:21:15Z</time>
      </trkpt>
      <trkpt lat="43.0207" lon="0.92558">
        <ele>572</ele>
        <time>2021-03-13T12:21:16Z</time>
      </trkpt>
      <trkpt lat="43.02068" lon="0.92559">
        <ele>572</ele>
        <time>2021-03-13T12:21:17Z</time>
      </trkpt>
      <trkpt lat="43.02066" lon="0.92559">
        <ele>572</ele>
        <time>2021-03-13T12:21:18Z</time>
      </trkpt>
      <trkpt lat="43.02064" lon="0.9256">
        <ele>572</ele>
        <time>2021-03-13T12:21:19Z</time>
      </trkpt>
      <trkpt lat="43.02062" lon="0.9256">
        <ele>574</ele>
        <time>2021-03-13T12:21:20Z</time>
      </trkpt>
      <trkpt lat="43.02061" lon="0.92561">
        <ele>574</ele>
        <time>2021-03-13T12:21:21Z</time>
      </trkpt>
      <trkpt lat="43.02059" lon="0.92561">
        <ele>574</ele>
        <time>2021-03-13T12:21:22Z</time>
      </trkpt>
      <trkpt lat="43.02057" lon="0.92561">
        <ele>574</ele>
        <time>2021-03-13T12:21:23Z</time>
      </trkpt>
      <trkpt lat="43.02056" lon="0.92561">
        <ele>574</ele>
        <time>2021-03-13T12:21:24Z</time>
      </trkpt>
      <trkpt lat="43.02054" lon="0.92562">
        <ele>575</ele>
        <time>2021-03-13T12:21:25Z</time>
      </trkpt>
      <trkpt lat="43.02052" lon="0.92563">
        <ele>575</ele>
        <time>2021-03-13T12:21:26Z</time>
      </trkpt>
      <trkpt lat="43.02051" lon="0.92564">
        <ele>575</ele>
        <time>2021-03-13T12:21:27Z</time>
      </trkpt>
      <trkpt lat="43.02049" lon="0.92565">
        <ele>575</ele>
        <time>2021-03-13T12:21:28Z</time>
      </trkpt>
      <trkpt lat="43.02048" lon="0.92565">
        <ele>575</ele>
        <time>2021-03-13T12:21:29Z</time>
      </trkpt>
      <trkpt lat="43.02047" lon="0.92566">
        <ele>575</ele>
        <time>2021-03-13T12:21:30Z</time>
      </trkpt>
      <trkpt lat="43.02045" lon="0.92567">
        <ele>575</ele>
        <time>2021-03-13T12:21:31Z</time>
      </trkpt>
      <trkpt lat="43.02044" lon="0.92567">
        <ele>575</ele>
        <time>2021-03-13T12:21:32Z</time>
      </trkpt>
      <trkpt lat="43.02043" lon="0.92568">
        <ele>575</ele>
        <time>2021-03-13T12:21:33Z</time>
      </trkpt>
      <trkpt lat="43.02041" lon="0.92568">
        <ele>575</ele>
        <time>2021-03-13T12:21:34Z</time>
      </trkpt>
      <trkpt lat="43.0204" lon="0.92568">
        <ele>575</ele>
        <time>2021-03-13T12:21:35Z</time>
      </trkpt>
      <trkpt lat="43.02038" lon="0.92568">
        <ele>575</ele>
        <time>2021-03-13T12:21:36Z</time>
      </trkpt>
      <trkpt lat="43.02037" lon="0.92569">
        <ele>575</ele>
        <time>2021-03-13T12:21:37Z</time>
      </trkpt>
      <trkpt lat="43.02035" lon="0.92569">
        <ele>575</ele>
        <time>2021-03-13T12:21:38Z</time>
      </trkpt>
      <trkpt lat="43.02033" lon="0.92569">
        <ele>575</ele>
        <time>2021-03-13T12:21:39Z</time>
      </trkpt>
      <trkpt lat="43.02031" lon="0.92569">
        <ele>578</ele>
        <time>2021-03-13T12:21:40Z</time>
      </trkpt>
      <trkpt lat="43.02029" lon="0.92569">
        <ele>578</ele>
        <time>2021-03-13T12:21:41Z</time>
      </trkpt>
      <trkpt lat="43.02027" lon="0.92569">
        <ele>578</ele>
        <time>2021-03-13T12:21:42Z</time>
      </trkpt>
      <trkpt lat="43.02026" lon="0.92569">
        <ele>578</ele>
        <time>2021-03-13T12:21:43Z</time>
      </trkpt>
      <trkpt lat="43.02024" lon="0.9257">
        <ele>578</ele>
        <time>2021-03-13T12:21:44Z</time>
      </trkpt>
      <trkpt lat="43.02022" lon="0.9257">
        <ele>581</ele>
        <time>2021-03-13T12:21:45Z</time>
      </trkpt>
      <trkpt lat="43.0202" lon="0.92569">
        <ele>581</ele>
        <time>2021-03-13T12:21:46Z</time>
      </trkpt>
      <trkpt lat="43.02017" lon="0.92569">
        <ele>581</ele>
        <time>2021-03-13T12:21:47Z</time>
      </trkpt>
      <trkpt lat="43.02015" lon="0.92569">
        <ele>581</ele>
        <time>2021-03-13T12:21:48Z</time>
      </trkpt>
      <trkpt lat="43.02011" lon="0.92568">
        <ele>581</ele>
        <time>2021-03-13T12:21:49Z</time>
      </trkpt>
      <trkpt lat="43.02011" lon="0.92568">
        <ele>582</ele>
        <time>2021-03-13T12:21:50Z</time>
      </trkpt>
      <trkpt lat="43.02007" lon="0.92567">
        <ele>582</ele>
        <time>2021-03-13T12:21:51Z</time>
      </trkpt>
      <trkpt lat="43.02007" lon="0.92567">
        <ele>582</ele>
        <time>2021-03-13T12:21:52Z</time>
      </trkpt>
      <trkpt lat="43.02005" lon="0.92567">
        <ele>582</ele>
        <time>2021-03-13T12:21:53Z</time>
      </trkpt>
      <trkpt lat="43.02003" lon="0.92567">
        <ele>582</ele>
        <time>2021-03-13T12:21:54Z</time>
      </trkpt>
      <trkpt lat="43.02001" lon="0.92566">
        <ele>584</ele>
        <time>2021-03-13T12:21:55Z</time>
      </trkpt>
      <trkpt lat="43.02" lon="0.92566">
        <ele>584</ele>
        <time>2021-03-13T12:21:56Z</time>
      </trkpt>
      <trkpt lat="43.01998" lon="0.92566">
        <ele>584</ele>
        <time>2021-03-13T12:21:57Z</time>
      </trkpt>
      <trkpt lat="43.01997" lon="0.92565">
        <ele>584</ele>
        <time>2021-03-13T12:21:58Z</time>
      </trkpt>
      <trkpt lat="43.01995" lon="0.92564">
        <ele>584</ele>
        <time>2021-03-13T12:21:59Z</time>
      </trkpt>
      <trkpt lat="43.01994" lon="0.92563">
        <ele>586</ele>
        <time>2021-03-13T12:22:00Z</time>
      </trkpt>
      <trkpt lat="43.01992" lon="0.92562">
        <ele>586</ele>
        <time>2021-03-13T12:22:01Z</time>
      </trkpt>
      <trkpt lat="43.0199" lon="0.92561">
        <ele>586</ele>
        <time>2021-03-13T12:22:02Z</time>
      </trkpt>
      <trkpt lat="43.01989" lon="0.92561">
        <ele>586</ele>
        <time>2021-03-13T12:22:03Z</time>
      </trkpt>
      <trkpt lat="43.01988" lon="0.9256">
        <ele>586</ele>
        <time>2021-03-13T12:22:04Z</time>
      </trkpt>
      <trkpt lat="43.01986" lon="0.92559">
        <ele>586</ele>
        <time>2021-03-13T12:22:05Z</time>
      </trkpt>
      <trkpt lat="43.01984" lon="0.92558">
        <ele>586</ele>
        <time>2021-03-13T12:22:06Z</time>
      </trkpt>
      <trkpt lat="43.01982" lon="0.92557">
        <ele>586</ele>
        <time>2021-03-13T12:22:07Z</time>
      </trkpt>
      <trkpt lat="43.01979" lon="0.92556">
        <ele>586</ele>
        <time>2021-03-13T12:22:08Z</time>
      </trkpt>
      <trkpt lat="43.01979" lon="0.92556">
        <ele>586</ele>
        <time>2021-03-13T12:22:09Z</time>
      </trkpt>
      <trkpt lat="43.01975" lon="0.92556">
        <ele>587</ele>
        <time>2021-03-13T12:22:10Z</time>
      </trkpt>
      <trkpt lat="43.01975" lon="0.92556">
        <ele>587</ele>
        <time>2021-03-13T12:22:11Z</time>
      </trkpt>
      <trkpt lat="43.01973" lon="0.92556">
        <ele>587</ele>
        <time>2021-03-13T12:22:12Z</time>
      </trkpt>
      <trkpt lat="43.01972" lon="0.92557">
        <ele>587</ele>
        <time>2021-03-13T12:22:13Z</time>
      </trkpt>
      <trkpt lat="43.0197" lon="0.92558">
        <ele>587</ele>
        <time>2021-03-13T12:22:14Z</time>
      </trkpt>
      <trkpt lat="43.01971" lon="0.9256">
        <ele>587</ele>
        <time>2021-03-13T12:22:15Z</time>
      </trkpt>
      <trkpt lat="43.01971" lon="0.92561">
        <ele>587</ele>
        <time>2021-03-13T12:22:16Z</time>
      </trkpt>
      <trkpt lat="43.01972" lon="0.92563">
        <ele>587</ele>
        <time>2021-03-13T12:22:17Z</time>
      </trkpt>
      <trkpt lat="43.01972" lon="0.92565">
        <ele>587</ele>
        <time>2021-03-13T12:22:18Z</time>
      </trkpt>
      <trkpt lat="43.01974" lon="0.92567">
        <ele>587</ele>
        <time>2021-03-13T12:22:19Z</time>
      </trkpt>
      <trkpt lat="43.01975" lon="0.92569">
        <ele>588</ele>
        <time>2021-03-13T12:22:20Z</time>
      </trkpt>
      <trkpt lat="43.01977" lon="0.92571">
        <ele>588</ele>
        <time>2021-03-13T12:22:21Z</time>
      </trkpt>
      <trkpt lat="43.01979" lon="0.92572">
        <ele>588</ele>
        <time>2021-03-13T12:22:22Z</time>
      </trkpt>
      <trkpt lat="43.01982" lon="0.92573">
        <ele>588</ele>
        <time>2021-03-13T12:22:23Z</time>
      </trkpt>
      <trkpt lat="43.01984" lon="0.92574">
        <ele>588</ele>
        <time>2021-03-13T12:22:24Z</time>
      </trkpt>
      <trkpt lat="43.01988" lon="0.92576">
        <ele>588</ele>
        <time>2021-03-13T12:22:25Z</time>
      </trkpt>
      <trkpt lat="43.01988" lon="0.92576">
        <ele>588</ele>
        <time>2021-03-13T12:22:26Z</time>
      </trkpt>
      <trkpt lat="43.0199" lon="0.92578">
        <ele>588</ele>
        <time>2021-03-13T12:22:27Z</time>
      </trkpt>
      <trkpt lat="43.01991" lon="0.9258">
        <ele>588</ele>
        <time>2021-03-13T12:22:28Z</time>
      </trkpt>
      <trkpt lat="43.01992" lon="0.92581">
        <ele>588</ele>
        <time>2021-03-13T12:22:29Z</time>
      </trkpt>
      <trkpt lat="43.01994" lon="0.92583">
        <ele>591</ele>
        <time>2021-03-13T12:22:30Z</time>
      </trkpt>
      <trkpt lat="43.01995" lon="0.92585">
        <ele>591</ele>
        <time>2021-03-13T12:22:31Z</time>
      </trkpt>
      <trkpt lat="43.01996" lon="0.92587">
        <ele>591</ele>
        <time>2021-03-13T12:22:32Z</time>
      </trkpt>
      <trkpt lat="43.01998" lon="0.92588">
        <ele>591</ele>
        <time>2021-03-13T12:22:33Z</time>
      </trkpt>
      <trkpt lat="43.01999" lon="0.9259">
        <ele>591</ele>
        <time>2021-03-13T12:22:34Z</time>
      </trkpt>
      <trkpt lat="43.02" lon="0.92591">
        <ele>594</ele>
        <time>2021-03-13T12:22:35Z</time>
      </trkpt>
      <trkpt lat="43.02001" lon="0.92593">
        <ele>594</ele>
        <time>2021-03-13T12:22:36Z</time>
      </trkpt>
      <trkpt lat="43.02001" lon="0.92595">
        <ele>594</ele>
        <time>2021-03-13T12:22:37Z</time>
      </trkpt>
      <trkpt lat="43.02002" lon="0.92597">
        <ele>594</ele>
        <time>2021-03-13T12:22:38Z</time>
      </trkpt>
      <trkpt lat="43.02003" lon="0.92599">
        <ele>594</ele>
        <time>2021-03-13T12:22:39Z</time>
      </trkpt>
      <trkpt lat="43.02004" lon="0.92601">
        <ele>594</ele>
        <time>2021-03-13T12:22:40Z</time>
      </trkpt>
      <trkpt lat="43.02005" lon="0.92602">
        <ele>594</ele>
        <time>2021-03-13T12:22:41Z</time>
      </trkpt>
      <trkpt lat="43.02005" lon="0.92604">
        <ele>594</ele>
        <time>2021-03-13T12:22:42Z</time>
      </trkpt>
      <trkpt lat="43.02007" lon="0.92606">
        <ele>594</ele>
        <time>2021-03-13T12:22:43Z</time>
      </trkpt>
      <trkpt lat="43.02008" lon="0.92608">
        <ele>594</ele>
        <time>2021-03-13T12:22:44Z</time>
      </trkpt>
      <trkpt lat="43.0201" lon="0.9261">
        <ele>595</ele>
        <time>2021-03-13T12:22:45Z</time>
      </trkpt>
      <trkpt lat="43.02015" lon="0.92615">
        <ele>595</ele>
        <time>2021-03-13T12:22:46Z</time>
      </trkpt>
      <trkpt lat="43.02015" lon="0.92615">
        <ele>595</ele>
        <time>2021-03-13T12:22:47Z</time>
      </trkpt>
      <trkpt lat="43.02018" lon="0.92617">
        <ele>595</ele>
        <time>2021-03-13T12:22:48Z</time>
      </trkpt>
      <trkpt lat="43.0202" lon="0.92619">
        <ele>595</ele>
        <time>2021-03-13T12:22:49Z</time>
      </trkpt>
      <trkpt lat="43.02022" lon="0.92621">
        <ele>596</ele>
        <time>2021-03-13T12:22:50Z</time>
      </trkpt>
      <trkpt lat="43.02024" lon="0.92623">
        <ele>596</ele>
        <time>2021-03-13T12:22:51Z</time>
      </trkpt>
      <trkpt lat="43.02026" lon="0.92625">
        <ele>596</ele>
        <time>2021-03-13T12:22:52Z</time>
      </trkpt>
      <trkpt lat="43.02028" lon="0.92627">
        <ele>596</ele>
        <time>2021-03-13T12:22:53Z</time>
      </trkpt>
      <trkpt lat="43.0203" lon="0.9263">
        <ele>596</ele>
        <time>2021-03-13T12:22:54Z</time>
      </trkpt>
      <trkpt lat="43.02032" lon="0.92632">
        <ele>598</ele>
        <time>2021-03-13T12:22:55Z</time>
      </trkpt>
      <trkpt lat="43.02034" lon="0.92634">
        <ele>598</ele>
        <time>2021-03-13T12:22:56Z</time>
      </trkpt>
      <trkpt lat="43.02036" lon="0.92637">
        <ele>598</ele>
        <time>2021-03-13T12:22:57Z</time>
      </trkpt>
      <trkpt lat="43.02037" lon="0.92639">
        <ele>598</ele>
        <time>2021-03-13T12:22:58Z</time>
      </trkpt>
      <trkpt lat="43.02039" lon="0.92642">
        <ele>598</ele>
        <time>2021-03-13T12:22:59Z</time>
      </trkpt>
      <trkpt lat="43.0204" lon="0.92644">
        <ele>599</ele>
        <time>2021-03-13T12:23:00Z</time>
      </trkpt>
      <trkpt lat="43.02041" lon="0.92647">
        <ele>599</ele>
        <time>2021-03-13T12:23:01Z</time>
      </trkpt>
      <trkpt lat="43.02043" lon="0.92649">
        <ele>599</ele>
        <time>2021-03-13T12:23:02Z</time>
      </trkpt>
      <trkpt lat="43.02044" lon="0.92651">
        <ele>599</ele>
        <time>2021-03-13T12:23:03Z</time>
      </trkpt>
      <trkpt lat="43.02046" lon="0.92653">
        <ele>599</ele>
        <time>2021-03-13T12:23:04Z</time>
      </trkpt>
      <trkpt lat="43.02047" lon="0.92656">
        <ele>600</ele>
        <time>2021-03-13T12:23:05Z</time>
      </trkpt>
      <trkpt lat="43.02048" lon="0.92658">
        <ele>600</ele>
        <time>2021-03-13T12:23:06Z</time>
      </trkpt>
      <trkpt lat="43.02049" lon="0.92661">
        <ele>600</ele>
        <time>2021-03-13T12:23:07Z</time>
      </trkpt>
      <trkpt lat="43.0205" lon="0.92663">
        <ele>600</ele>
        <time>2021-03-13T12:23:08Z</time>
      </trkpt>
      <trkpt lat="43.0205" lon="0.92666">
        <ele>600</ele>
        <time>2021-03-13T12:23:09Z</time>
      </trkpt>
      <trkpt lat="43.02051" lon="0.92669">
        <ele>602</ele>
        <time>2021-03-13T12:23:10Z</time>
      </trkpt>
      <trkpt lat="43.02051" lon="0.92672">
        <ele>602</ele>
        <time>2021-03-13T12:23:11Z</time>
      </trkpt>
      <trkpt lat="43.02052" lon="0.92675">
        <ele>602</ele>
        <time>2021-03-13T12:23:12Z</time>
      </trkpt>
      <trkpt lat="43.02052" lon="0.92678">
        <ele>602</ele>
        <time>2021-03-13T12:23:13Z</time>
      </trkpt>
      <trkpt lat="43.02053" lon="0.9268">
        <ele>602</ele>
        <time>2021-03-13T12:23:14Z</time>
      </trkpt>
      <trkpt lat="43.02054" lon="0.92683">
        <ele>604</ele>
        <time>2021-03-13T12:23:15Z</time>
      </trkpt>
      <trkpt lat="43.02055" lon="0.92686">
        <ele>604</ele>
        <time>2021-03-13T12:23:16Z</time>
      </trkpt>
      <trkpt lat="43.02055" lon="0.92688">
        <ele>604</ele>
        <time>2021-03-13T12:23:17Z</time>
      </trkpt>
      <trkpt lat="43.02056" lon="0.92691">
        <ele>604</ele>
        <time>2021-03-13T12:23:18Z</time>
      </trkpt>
      <trkpt lat="43.02057" lon="0.92694">
        <ele>604</ele>
        <time>2021-03-13T12:23:19Z</time>
      </trkpt>
      <trkpt lat="43.02057" lon="0.92696">
        <ele>605</ele>
        <time>2021-03-13T12:23:20Z</time>
      </trkpt>
      <trkpt lat="43.02057" lon="0.92699">
        <ele>605</ele>
        <time>2021-03-13T12:23:21Z</time>
      </trkpt>
      <trkpt lat="43.02057" lon="0.92702">
        <ele>605</ele>
        <time>2021-03-13T12:23:22Z</time>
      </trkpt>
      <trkpt lat="43.02057" lon="0.92704">
        <ele>605</ele>
        <time>2021-03-13T12:23:23Z</time>
      </trkpt>
      <trkpt lat="43.02058" lon="0.92707">
        <ele>605</ele>
        <time>2021-03-13T12:23:24Z</time>
      </trkpt>
      <trkpt lat="43.02058" lon="0.9271">
        <ele>606</ele>
        <time>2021-03-13T12:23:25Z</time>
      </trkpt>
      <trkpt lat="43.02058" lon="0.92713">
        <ele>606</ele>
        <time>2021-03-13T12:23:26Z</time>
      </trkpt>
      <trkpt lat="43.02059" lon="0.92715">
        <ele>606</ele>
        <time>2021-03-13T12:23:27Z</time>
      </trkpt>
      <trkpt lat="43.02059" lon="0.92718">
        <ele>606</ele>
        <time>2021-03-13T12:23:28Z</time>
      </trkpt>
      <trkpt lat="43.02059" lon="0.9272">
        <ele>606</ele>
        <time>2021-03-13T12:23:29Z</time>
      </trkpt>
      <trkpt lat="43.02059" lon="0.92723">
        <ele>608</ele>
        <time>2021-03-13T12:23:30Z</time>
      </trkpt>
      <trkpt lat="43.02059" lon="0.92726">
        <ele>608</ele>
        <time>2021-03-13T12:23:31Z</time>
      </trkpt>
      <trkpt lat="43.02059" lon="0.92729">
        <ele>608</ele>
        <time>2021-03-13T12:23:32Z</time>
      </trkpt>
      <trkpt lat="43.02059" lon="0.92731">
        <ele>608</ele>
        <time>2021-03-13T12:23:33Z</time>
      </trkpt>
      <trkpt lat="43.02058" lon="0.92734">
        <ele>608</ele>
        <time>2021-03-13T12:23:34Z</time>
      </trkpt>
      <trkpt lat="43.02058" lon="0.92737">
        <ele>609</ele>
        <time>2021-03-13T12:23:35Z</time>
      </trkpt>
      <trkpt lat="43.02058" lon="0.9274">
        <ele>609</ele>
        <time>2021-03-13T12:23:36Z</time>
      </trkpt>
      <trkpt lat="43.02057" lon="0.92743">
        <ele>609</ele>
        <time>2021-03-13T12:23:37Z</time>
      </trkpt>
      <trkpt lat="43.02057" lon="0.92746">
        <ele>609</ele>
        <time>2021-03-13T12:23:38Z</time>
      </trkpt>
      <trkpt lat="43.02057" lon="0.92749">
        <ele>609</ele>
        <time>2021-03-13T12:23:39Z</time>
      </trkpt>
      <trkpt lat="43.02057" lon="0.92751">
        <ele>610</ele>
        <time>2021-03-13T12:23:40Z</time>
      </trkpt>
      <trkpt lat="43.02057" lon="0.92754">
        <ele>610</ele>
        <time>2021-03-13T12:23:41Z</time>
      </trkpt>
      <trkpt lat="43.02057" lon="0.92757">
        <ele>610</ele>
        <time>2021-03-13T12:23:42Z</time>
      </trkpt>
      <trkpt lat="43.02056" lon="0.9276">
        <ele>610</ele>
        <time>2021-03-13T12:23:43Z</time>
      </trkpt>
      <trkpt lat="43.02055" lon="0.92762">
        <ele>610</ele>
        <time>2021-03-13T12:23:44Z</time>
      </trkpt>
      <trkpt lat="43.02055" lon="0.92765">
        <ele>610</ele>
        <time>2021-03-13T12:23:45Z</time>
      </trkpt>
      <trkpt lat="43.02054" lon="0.92768">
        <ele>610</ele>
        <time>2021-03-13T12:23:46Z</time>
      </trkpt>
      <trkpt lat="43.02054" lon="0.92771">
        <ele>610</ele>
        <time>2021-03-13T12:23:47Z</time>
      </trkpt>
      <trkpt lat="43.02054" lon="0.92773">
        <ele>610</ele>
        <time>2021-03-13T12:23:48Z</time>
      </trkpt>
      <trkpt lat="43.02054" lon="0.92776">
        <ele>610</ele>
        <time>2021-03-13T12:23:49Z</time>
      </trkpt>
      <trkpt lat="43.02054" lon="0.92778">
        <ele>613</ele>
        <time>2021-03-13T12:23:50Z</time>
      </trkpt>
      <trkpt lat="43.02054" lon="0.92781">
        <ele>613</ele>
        <time>2021-03-13T12:23:51Z</time>
      </trkpt>
      <trkpt lat="43.02054" lon="0.92784">
        <ele>613</ele>
        <time>2021-03-13T12:23:52Z</time>
      </trkpt>
      <trkpt lat="43.02054" lon="0.92787">
        <ele>613</ele>
        <time>2021-03-13T12:23:53Z</time>
      </trkpt>
      <trkpt lat="43.02053" lon="0.9279">
        <ele>613</ele>
        <time>2021-03-13T12:23:54Z</time>
      </trkpt>
      <trkpt lat="43.02052" lon="0.92792">
        <ele>614</ele>
        <time>2021-03-13T12:23:55Z</time>
      </trkpt>
      <trkpt lat="43.02051" lon="0.92795">
        <ele>614</ele>
        <time>2021-03-13T12:23:56Z</time>
      </trkpt>
      <trkpt lat="43.0205" lon="0.92798">
        <ele>614</ele>
        <time>2021-03-13T12:23:57Z</time>
      </trkpt>
      <trkpt lat="43.02049" lon="0.92801">
        <ele>614</ele>
        <time>2021-03-13T12:23:58Z</time>
      </trkpt>
      <trkpt lat="43.02048" lon="0.92804">
        <ele>614</ele>
        <time>2021-03-13T12:23:59Z</time>
      </trkpt>
      <trkpt lat="43.02047" lon="0.92807">
        <ele>615</ele>
        <time>2021-03-13T12:24:00Z</time>
      </trkpt>
      <trkpt lat="43.02046" lon="0.9281">
        <ele>615</ele>
        <time>2021-03-13T12:24:01Z</time>
      </trkpt>
      <trkpt lat="43.02045" lon="0.92813">
        <ele>615</ele>
        <time>2021-03-13T12:24:02Z</time>
      </trkpt>
      <trkpt lat="43.02044" lon="0.92817">
        <ele>615</ele>
        <time>2021-03-13T12:24:03Z</time>
      </trkpt>
      <trkpt lat="43.02043" lon="0.9282">
        <ele>615</ele>
        <time>2021-03-13T12:24:04Z</time>
      </trkpt>
      <trkpt lat="43.02042" lon="0.92823">
        <ele>615</ele>
        <time>2021-03-13T12:24:05Z</time>
      </trkpt>
      <trkpt lat="43.02042" lon="0.92826">
        <ele>615</ele>
        <time>2021-03-13T12:24:06Z</time>
      </trkpt>
      <trkpt lat="43.02041" lon="0.92829">
        <ele>615</ele>
        <time>2021-03-13T12:24:07Z</time>
      </trkpt>
      <trkpt lat="43.02041" lon="0.92833">
        <ele>615</ele>
        <time>2021-03-13T12:24:08Z</time>
      </trkpt>
      <trkpt lat="43.02041" lon="0.92836">
        <ele>615</ele>
        <time>2021-03-13T12:24:09Z</time>
      </trkpt>
      <trkpt lat="43.0204" lon="0.9284">
        <ele>615</ele>
        <time>2021-03-13T12:24:10Z</time>
      </trkpt>
      <trkpt lat="43.0204" lon="0.92843">
        <ele>615</ele>
        <time>2021-03-13T12:24:11Z</time>
      </trkpt>
      <trkpt lat="43.02038" lon="0.92851">
        <ele>615</ele>
        <time>2021-03-13T12:24:12Z</time>
      </trkpt>
      <trkpt lat="43.02038" lon="0.92851">
        <ele>615</ele>
        <time>2021-03-13T12:24:13Z</time>
      </trkpt>
      <trkpt lat="43.02037" lon="0.92859">
        <ele>615</ele>
        <time>2021-03-13T12:24:14Z</time>
      </trkpt>
      <trkpt lat="43.02037" lon="0.92859">
        <ele>615</ele>
        <time>2021-03-13T12:24:15Z</time>
      </trkpt>
      <trkpt lat="43.02036" lon="0.92869">
        <ele>615</ele>
        <time>2021-03-13T12:24:16Z</time>
      </trkpt>
      <trkpt lat="43.02036" lon="0.92869">
        <ele>615</ele>
        <time>2021-03-13T12:24:17Z</time>
      </trkpt>
      <trkpt lat="43.02033" lon="0.92879">
        <ele>615</ele>
        <time>2021-03-13T12:24:18Z</time>
      </trkpt>
      <trkpt lat="43.02033" lon="0.92879">
        <ele>615</ele>
        <time>2021-03-13T12:24:19Z</time>
      </trkpt>
      <trkpt lat="43.0203" lon="0.92891">
        <ele>615</ele>
        <time>2021-03-13T12:24:20Z</time>
      </trkpt>
      <trkpt lat="43.0203" lon="0.92891">
        <ele>615</ele>
        <time>2021-03-13T12:24:21Z</time>
      </trkpt>
      <trkpt lat="43.02026" lon="0.92907">
        <ele>615</ele>
        <time>2021-03-13T12:24:22Z</time>
      </trkpt>
      <trkpt lat="43.02025" lon="0.92909">
        <ele>615</ele>
        <time>2021-03-13T12:24:23Z</time>
      </trkpt>
      <trkpt lat="43.02025" lon="0.92909">
        <ele>615</ele>
        <time>2021-03-13T12:24:24Z</time>
      </trkpt>
      <trkpt lat="43.02021" lon="0.9292">
        <ele>615</ele>
        <time>2021-03-13T12:24:25Z</time>
      </trkpt>
      <trkpt lat="43.02021" lon="0.9292">
        <ele>615</ele>
        <time>2021-03-13T12:24:26Z</time>
      </trkpt>
      <trkpt lat="43.02017" lon="0.92929">
        <ele>615</ele>
        <time>2021-03-13T12:24:27Z</time>
      </trkpt>
      <trkpt lat="43.02017" lon="0.92929">
        <ele>615</ele>
        <time>2021-03-13T12:24:28Z</time>
      </trkpt>
      <trkpt lat="43.02015" lon="0.92937">
        <ele>615</ele>
        <time>2021-03-13T12:24:29Z</time>
      </trkpt>
      <trkpt lat="43.02015" lon="0.92937">
        <ele>615</ele>
        <time>2021-03-13T12:24:30Z</time>
      </trkpt>
      <trkpt lat="43.02014" lon="0.92945">
        <ele>615</ele>
        <time>2021-03-13T12:24:31Z</time>
      </trkpt>
      <trkpt lat="43.02014" lon="0.92945">
        <ele>615</ele>
        <time>2021-03-13T12:24:32Z</time>
      </trkpt>
      <trkpt lat="43.02014" lon="0.92953">
        <ele>615</ele>
        <time>2021-03-13T12:24:33Z</time>
      </trkpt>
      <trkpt lat="43.02014" lon="0.92953">
        <ele>615</ele>
        <time>2021-03-13T12:24:34Z</time>
      </trkpt>
      <trkpt lat="43.02012" lon="0.92961">
        <ele>615</ele>
        <time>2021-03-13T12:24:35Z</time>
      </trkpt>
      <trkpt lat="43.02012" lon="0.92961">
        <ele>615</ele>
        <time>2021-03-13T12:24:36Z</time>
      </trkpt>
      <trkpt lat="43.02009" lon="0.9297">
        <ele>615</ele>
        <time>2021-03-13T12:24:37Z</time>
      </trkpt>
      <trkpt lat="43.02009" lon="0.9297">
        <ele>615</ele>
        <time>2021-03-13T12:24:38Z</time>
      </trkpt>
      <trkpt lat="43.02008" lon="0.92978">
        <ele>615</ele>
        <time>2021-03-13T12:24:39Z</time>
      </trkpt>
      <trkpt lat="43.02008" lon="0.92978">
        <ele>617</ele>
        <time>2021-03-13T12:24:40Z</time>
      </trkpt>
      <trkpt lat="43.02006" lon="0.92986">
        <ele>617</ele>
        <time>2021-03-13T12:24:41Z</time>
      </trkpt>
      <trkpt lat="43.02006" lon="0.92986">
        <ele>617</ele>
        <time>2021-03-13T12:24:42Z</time>
      </trkpt>
      <trkpt lat="43.02005" lon="0.9299">
        <ele>617</ele>
        <time>2021-03-13T12:24:43Z</time>
      </trkpt>
      <trkpt lat="43.02004" lon="0.92994">
        <ele>617</ele>
        <time>2021-03-13T12:24:44Z</time>
      </trkpt>
      <trkpt lat="43.02003" lon="0.92997">
        <ele>617</ele>
        <time>2021-03-13T12:24:45Z</time>
      </trkpt>
      <trkpt lat="43.01998" lon="0.93005">
        <ele>617</ele>
        <time>2021-03-13T12:24:46Z</time>
      </trkpt>
      <trkpt lat="43.01998" lon="0.93005">
        <ele>617</ele>
        <time>2021-03-13T12:24:47Z</time>
      </trkpt>
      <trkpt lat="43.01995" lon="0.93012">
        <ele>617</ele>
        <time>2021-03-13T12:24:48Z</time>
      </trkpt>
      <trkpt lat="43.01995" lon="0.93012">
        <ele>617</ele>
        <time>2021-03-13T12:24:49Z</time>
      </trkpt>
      <trkpt lat="43.01993" lon="0.93018">
        <ele>619</ele>
        <time>2021-03-13T12:24:50Z</time>
      </trkpt>
      <trkpt lat="43.01993" lon="0.93018">
        <ele>619</ele>
        <time>2021-03-13T12:24:51Z</time>
      </trkpt>
      <trkpt lat="43.0199" lon="0.93024">
        <ele>619</ele>
        <time>2021-03-13T12:24:52Z</time>
      </trkpt>
      <trkpt lat="43.0199" lon="0.93024">
        <ele>619</ele>
        <time>2021-03-13T12:24:53Z</time>
      </trkpt>
      <trkpt lat="43.01986" lon="0.93031">
        <ele>619</ele>
        <time>2021-03-13T12:24:54Z</time>
      </trkpt>
      <trkpt lat="43.01986" lon="0.93031">
        <ele>619</ele>
        <time>2021-03-13T12:24:55Z</time>
      </trkpt>
      <trkpt lat="43.01982" lon="0.93038">
        <ele>619</ele>
        <time>2021-03-13T12:24:56Z</time>
      </trkpt>
      <trkpt lat="43.01982" lon="0.93038">
        <ele>619</ele>
        <time>2021-03-13T12:24:57Z</time>
      </trkpt>
      <trkpt lat="43.01978" lon="0.93045">
        <ele>619</ele>
        <time>2021-03-13T12:24:58Z</time>
      </trkpt>
      <trkpt lat="43.01978" lon="0.93045">
        <ele>619</ele>
        <time>2021-03-13T12:24:59Z</time>
      </trkpt>
      <trkpt lat="43.01974" lon="0.93051">
        <ele>622</ele>
        <time>2021-03-13T12:25:00Z</time>
      </trkpt>
      <trkpt lat="43.01974" lon="0.93051">
        <ele>622</ele>
        <time>2021-03-13T12:25:01Z</time>
      </trkpt>
      <trkpt lat="43.01971" lon="0.93058">
        <ele>622</ele>
        <time>2021-03-13T12:25:02Z</time>
      </trkpt>
      <trkpt lat="43.01971" lon="0.93058">
        <ele>622</ele>
        <time>2021-03-13T12:25:03Z</time>
      </trkpt>
      <trkpt lat="43.01969" lon="0.93061">
        <ele>622</ele>
        <time>2021-03-13T12:25:04Z</time>
      </trkpt>
      <trkpt lat="43.01968" lon="0.93063">
        <ele>623</ele>
        <time>2021-03-13T12:25:05Z</time>
      </trkpt>
      <trkpt lat="43.01967" lon="0.93066">
        <ele>623</ele>
        <time>2021-03-13T12:25:06Z</time>
      </trkpt>
      <trkpt lat="43.01965" lon="0.93069">
        <ele>623</ele>
        <time>2021-03-13T12:25:07Z</time>
      </trkpt>
      <trkpt lat="43.01964" lon="0.93072">
        <ele>623</ele>
        <time>2021-03-13T12:25:08Z</time>
      </trkpt>
      <trkpt lat="43.01963" lon="0.93076">
        <ele>623</ele>
        <time>2021-03-13T12:25:09Z</time>
      </trkpt>
      <trkpt lat="43.01962" lon="0.93078">
        <ele>625</ele>
        <time>2021-03-13T12:25:10Z</time>
      </trkpt>
      <trkpt lat="43.01961" lon="0.9308">
        <ele>625</ele>
        <time>2021-03-13T12:25:11Z</time>
      </trkpt>
      <trkpt lat="43.0196" lon="0.93082">
        <ele>625</ele>
        <time>2021-03-13T12:25:12Z</time>
      </trkpt>
      <trkpt lat="43.01958" lon="0.93084">
        <ele>625</ele>
        <time>2021-03-13T12:25:13Z</time>
      </trkpt>
      <trkpt lat="43.01957" lon="0.93086">
        <ele>625</ele>
        <time>2021-03-13T12:25:14Z</time>
      </trkpt>
      <trkpt lat="43.01955" lon="0.93087">
        <ele>626</ele>
        <time>2021-03-13T12:25:15Z</time>
      </trkpt>
      <trkpt lat="43.01953" lon="0.93089">
        <ele>626</ele>
        <time>2021-03-13T12:25:16Z</time>
      </trkpt>
      <trkpt lat="43.01951" lon="0.9309">
        <ele>626</ele>
        <time>2021-03-13T12:25:17Z</time>
      </trkpt>
      <trkpt lat="43.01949" lon="0.93091">
        <ele>626</ele>
        <time>2021-03-13T12:25:18Z</time>
      </trkpt>
      <trkpt lat="43.01947" lon="0.93092">
        <ele>626</ele>
        <time>2021-03-13T12:25:19Z</time>
      </trkpt>
      <trkpt lat="43.01945" lon="0.93093">
        <ele>628</ele>
        <time>2021-03-13T12:25:20Z</time>
      </trkpt>
      <trkpt lat="43.01943" lon="0.93093">
        <ele>628</ele>
        <time>2021-03-13T12:25:21Z</time>
      </trkpt>
      <trkpt lat="43.01941" lon="0.93094">
        <ele>628</ele>
        <time>2021-03-13T12:25:22Z</time>
      </trkpt>
      <trkpt lat="43.01939" lon="0.93095">
        <ele>628</ele>
        <time>2021-03-13T12:25:23Z</time>
      </trkpt>
      <trkpt lat="43.01937" lon="0.93095">
        <ele>628</ele>
        <time>2021-03-13T12:25:24Z</time>
      </trkpt>
      <trkpt lat="43.01936" lon="0.93097">
        <ele>630</ele>
        <time>2021-03-13T12:25:25Z</time>
      </trkpt>
      <trkpt lat="43.01934" lon="0.93098">
        <ele>630</ele>
        <time>2021-03-13T12:25:26Z</time>
      </trkpt>
      <trkpt lat="43.01933" lon="0.93099">
        <ele>630</ele>
        <time>2021-03-13T12:25:27Z</time>
      </trkpt>
      <trkpt lat="43.01931" lon="0.931">
        <ele>630</ele>
        <time>2021-03-13T12:25:28Z</time>
      </trkpt>
      <trkpt lat="43.01929" lon="0.93101">
        <ele>630</ele>
        <time>2021-03-13T12:25:29Z</time>
      </trkpt>
      <trkpt lat="43.01928" lon="0.93102">
        <ele>631</ele>
        <time>2021-03-13T12:25:30Z</time>
      </trkpt>
      <trkpt lat="43.01926" lon="0.93103">
        <ele>631</ele>
        <time>2021-03-13T12:25:31Z</time>
      </trkpt>
      <trkpt lat="43.01924" lon="0.93103">
        <ele>631</ele>
        <time>2021-03-13T12:25:32Z</time>
      </trkpt>
      <trkpt lat="43.01922" lon="0.93104">
        <ele>631</ele>
        <time>2021-03-13T12:25:33Z</time>
      </trkpt>
      <trkpt lat="43.0192" lon="0.93104">
        <ele>631</ele>
        <time>2021-03-13T12:25:34Z</time>
      </trkpt>
      <trkpt lat="43.01918" lon="0.93104">
        <ele>633</ele>
        <time>2021-03-13T12:25:35Z</time>
      </trkpt>
      <trkpt lat="43.01916" lon="0.93104">
        <ele>633</ele>
        <time>2021-03-13T12:25:36Z</time>
      </trkpt>
      <trkpt lat="43.01914" lon="0.93103">
        <ele>633</ele>
        <time>2021-03-13T12:25:37Z</time>
      </trkpt>
      <trkpt lat="43.01912" lon="0.93103">
        <ele>633</ele>
        <time>2021-03-13T12:25:38Z</time>
      </trkpt>
      <trkpt lat="43.0191" lon="0.93103">
        <ele>633</ele>
        <time>2021-03-13T12:25:39Z</time>
      </trkpt>
      <trkpt lat="43.01908" lon="0.93103">
        <ele>635</ele>
        <time>2021-03-13T12:25:40Z</time>
      </trkpt>
      <trkpt lat="43.01906" lon="0.93104">
        <ele>635</ele>
        <time>2021-03-13T12:25:41Z</time>
      </trkpt>
      <trkpt lat="43.01904" lon="0.93104">
        <ele>635</ele>
        <time>2021-03-13T12:25:42Z</time>
      </trkpt>
      <trkpt lat="43.01902" lon="0.93103">
        <ele>635</ele>
        <time>2021-03-13T12:25:43Z</time>
      </trkpt>
      <trkpt lat="43.01901" lon="0.93103">
        <ele>635</ele>
        <time>2021-03-13T12:25:44Z</time>
      </trkpt>
      <trkpt lat="43.01899" lon="0.93102">
        <ele>637</ele>
        <time>2021-03-13T12:25:45Z</time>
      </trkpt>
      <trkpt lat="43.01893" lon="0.93102">
        <ele>637</ele>
        <time>2021-03-13T12:25:46Z</time>
      </trkpt>
      <trkpt lat="43.01893" lon="0.93102">
        <ele>637</ele>
        <time>2021-03-13T12:25:47Z</time>
      </trkpt>
      <trkpt lat="43.01888" lon="0.93102">
        <ele>637</ele>
        <time>2021-03-13T12:25:48Z</time>
      </trkpt>
      <trkpt lat="43.01888" lon="0.93102">
        <ele>637</ele>
        <time>2021-03-13T12:25:49Z</time>
      </trkpt>
      <trkpt lat="43.01882" lon="0.93101">
        <ele>639</ele>
        <time>2021-03-13T12:25:50Z</time>
      </trkpt>
      <trkpt lat="43.01882" lon="0.93101">
        <ele>639</ele>
        <time>2021-03-13T12:25:51Z</time>
      </trkpt>
      <trkpt lat="43.0188" lon="0.93101">
        <ele>639</ele>
        <time>2021-03-13T12:25:52Z</time>
      </trkpt>
      <trkpt lat="43.01878" lon="0.93101">
        <ele>639</ele>
        <time>2021-03-13T12:25:53Z</time>
      </trkpt>
      <trkpt lat="43.01876" lon="0.93101">
        <ele>639</ele>
        <time>2021-03-13T12:25:54Z</time>
      </trkpt>
      <trkpt lat="43.01873" lon="0.93101">
        <ele>640</ele>
        <time>2021-03-13T12:25:55Z</time>
      </trkpt>
      <trkpt lat="43.01871" lon="0.93101">
        <ele>640</ele>
        <time>2021-03-13T12:25:56Z</time>
      </trkpt>
      <trkpt lat="43.01869" lon="0.931">
        <ele>640</ele>
        <time>2021-03-13T12:25:57Z</time>
      </trkpt>
      <trkpt lat="43.01863" lon="0.931">
        <ele>640</ele>
        <time>2021-03-13T12:25:58Z</time>
      </trkpt>
      <trkpt lat="43.01863" lon="0.931">
        <ele>640</ele>
        <time>2021-03-13T12:25:59Z</time>
      </trkpt>
      <trkpt lat="43.01859" lon="0.93099">
        <ele>640</ele>
        <time>2021-03-13T12:26:00Z</time>
      </trkpt>
      <trkpt lat="43.01859" lon="0.93099">
        <ele>640</ele>
        <time>2021-03-13T12:26:01Z</time>
      </trkpt>
      <trkpt lat="43.01854" lon="0.93098">
        <ele>640</ele>
        <time>2021-03-13T12:26:02Z</time>
      </trkpt>
      <trkpt lat="43.01854" lon="0.93098">
        <ele>640</ele>
        <time>2021-03-13T12:26:03Z</time>
      </trkpt>
      <trkpt lat="43.01852" lon="0.93097">
        <ele>640</ele>
        <time>2021-03-13T12:26:04Z</time>
      </trkpt>
      <trkpt lat="43.01849" lon="0.93097">
        <ele>640</ele>
        <time>2021-03-13T12:26:05Z</time>
      </trkpt>
      <trkpt lat="43.01847" lon="0.93096">
        <ele>640</ele>
        <time>2021-03-13T12:26:06Z</time>
      </trkpt>
      <trkpt lat="43.01842" lon="0.93095">
        <ele>640</ele>
        <time>2021-03-13T12:26:07Z</time>
      </trkpt>
      <trkpt lat="43.01842" lon="0.93095">
        <ele>640</ele>
        <time>2021-03-13T12:26:08Z</time>
      </trkpt>
      <trkpt lat="43.0184" lon="0.93093">
        <ele>640</ele>
        <time>2021-03-13T12:26:09Z</time>
      </trkpt>
      <trkpt lat="43.01838" lon="0.93091">
        <ele>641</ele>
        <time>2021-03-13T12:26:10Z</time>
      </trkpt>
      <trkpt lat="43.01836" lon="0.93089">
        <ele>641</ele>
        <time>2021-03-13T12:26:11Z</time>
      </trkpt>
      <trkpt lat="43.01831" lon="0.93086">
        <ele>641</ele>
        <time>2021-03-13T12:26:12Z</time>
      </trkpt>
      <trkpt lat="43.01831" lon="0.93086">
        <ele>641</ele>
        <time>2021-03-13T12:26:13Z</time>
      </trkpt>
      <trkpt lat="43.01829" lon="0.93084">
        <ele>641</ele>
        <time>2021-03-13T12:26:14Z</time>
      </trkpt>
      <trkpt lat="43.01827" lon="0.93082">
        <ele>641</ele>
        <time>2021-03-13T12:26:15Z</time>
      </trkpt>
      <trkpt lat="43.01825" lon="0.93081">
        <ele>641</ele>
        <time>2021-03-13T12:26:16Z</time>
      </trkpt>
      <trkpt lat="43.01821" lon="0.93076">
        <ele>641</ele>
        <time>2021-03-13T12:26:17Z</time>
      </trkpt>
      <trkpt lat="43.01821" lon="0.93076">
        <ele>641</ele>
        <time>2021-03-13T12:26:18Z</time>
      </trkpt>
      <trkpt lat="43.01819" lon="0.93075">
        <ele>641</ele>
        <time>2021-03-13T12:26:19Z</time>
      </trkpt>
      <trkpt lat="43.01817" lon="0.93073">
        <ele>643</ele>
        <time>2021-03-13T12:26:20Z</time>
      </trkpt>
      <trkpt lat="43.01815" lon="0.93071">
        <ele>643</ele>
        <time>2021-03-13T12:26:21Z</time>
      </trkpt>
      <trkpt lat="43.01814" lon="0.93069">
        <ele>643</ele>
        <time>2021-03-13T12:26:22Z</time>
      </trkpt>
      <trkpt lat="43.01812" lon="0.93067">
        <ele>643</ele>
        <time>2021-03-13T12:26:23Z</time>
      </trkpt>
      <trkpt lat="43.0181" lon="0.93065">
        <ele>643</ele>
        <time>2021-03-13T12:26:24Z</time>
      </trkpt>
      <trkpt lat="43.01809" lon="0.93063">
        <ele>643</ele>
        <time>2021-03-13T12:26:25Z</time>
      </trkpt>
      <trkpt lat="43.01808" lon="0.9306">
        <ele>643</ele>
        <time>2021-03-13T12:26:26Z</time>
      </trkpt>
      <trkpt lat="43.01806" lon="0.93058">
        <ele>643</ele>
        <time>2021-03-13T12:26:27Z</time>
      </trkpt>
      <trkpt lat="43.01805" lon="0.93056">
        <ele>643</ele>
        <time>2021-03-13T12:26:28Z</time>
      </trkpt>
      <trkpt lat="43.01803" lon="0.93054">
        <ele>643</ele>
        <time>2021-03-13T12:26:29Z</time>
      </trkpt>
      <trkpt lat="43.01802" lon="0.93052">
        <ele>645</ele>
        <time>2021-03-13T12:26:30Z</time>
      </trkpt>
      <trkpt lat="43.018" lon="0.93049">
        <ele>645</ele>
        <time>2021-03-13T12:26:31Z</time>
      </trkpt>
      <trkpt lat="43.01798" lon="0.93047">
        <ele>645</ele>
        <time>2021-03-13T12:26:32Z</time>
      </trkpt>
      <trkpt lat="43.01796" lon="0.93045">
        <ele>645</ele>
        <time>2021-03-13T12:26:33Z</time>
      </trkpt>
      <trkpt lat="43.01795" lon="0.93043">
        <ele>645</ele>
        <time>2021-03-13T12:26:34Z</time>
      </trkpt>
      <trkpt lat="43.01793" lon="0.9304">
        <ele>645</ele>
        <time>2021-03-13T12:26:35Z</time>
      </trkpt>
      <trkpt lat="43.01791" lon="0.93038">
        <ele>645</ele>
        <time>2021-03-13T12:26:36Z</time>
      </trkpt>
      <trkpt lat="43.01788" lon="0.93033">
        <ele>645</ele>
        <time>2021-03-13T12:26:37Z</time>
      </trkpt>
      <trkpt lat="43.01788" lon="0.93033">
        <ele>645</ele>
        <time>2021-03-13T12:26:38Z</time>
      </trkpt>
      <trkpt lat="43.01786" lon="0.93031">
        <ele>645</ele>
        <time>2021-03-13T12:26:39Z</time>
      </trkpt>
      <trkpt lat="43.01784" lon="0.9303">
        <ele>647</ele>
        <time>2021-03-13T12:26:40Z</time>
      </trkpt>
      <trkpt lat="43.01782" lon="0.93028">
        <ele>647</ele>
        <time>2021-03-13T12:26:41Z</time>
      </trkpt>
      <trkpt lat="43.01779" lon="0.93027">
        <ele>647</ele>
        <time>2021-03-13T12:26:42Z</time>
      </trkpt>
      <trkpt lat="43.01777" lon="0.93026">
        <ele>647</ele>
        <time>2021-03-13T12:26:43Z</time>
      </trkpt>
      <trkpt lat="43.01775" lon="0.93025">
        <ele>647</ele>
        <time>2021-03-13T12:26:44Z</time>
      </trkpt>
      <trkpt lat="43.01773" lon="0.93024">
        <ele>647</ele>
        <time>2021-03-13T12:26:45Z</time>
      </trkpt>
      <trkpt lat="43.01771" lon="0.93022">
        <ele>647</ele>
        <time>2021-03-13T12:26:46Z</time>
      </trkpt>
      <trkpt lat="43.01769" lon="0.93021">
        <ele>647</ele>
        <time>2021-03-13T12:26:47Z</time>
      </trkpt>
      <trkpt lat="43.01767" lon="0.9302">
        <ele>647</ele>
        <time>2021-03-13T12:26:48Z</time>
      </trkpt>
      <trkpt lat="43.01766" lon="0.93018">
        <ele>647</ele>
        <time>2021-03-13T12:26:49Z</time>
      </trkpt>
      <trkpt lat="43.01764" lon="0.93016">
        <ele>649</ele>
        <time>2021-03-13T12:26:50Z</time>
      </trkpt>
      <trkpt lat="43.01762" lon="0.93016">
        <ele>649</ele>
        <time>2021-03-13T12:26:51Z</time>
      </trkpt>
      <trkpt lat="43.0176" lon="0.93016">
        <ele>649</ele>
        <time>2021-03-13T12:26:52Z</time>
      </trkpt>
      <trkpt lat="43.01758" lon="0.93015">
        <ele>649</ele>
        <time>2021-03-13T12:26:53Z</time>
      </trkpt>
      <trkpt lat="43.01756" lon="0.93015">
        <ele>649</ele>
        <time>2021-03-13T12:26:54Z</time>
      </trkpt>
      <trkpt lat="43.01754" lon="0.93015">
        <ele>649</ele>
        <time>2021-03-13T12:26:55Z</time>
      </trkpt>
      <trkpt lat="43.01752" lon="0.93014">
        <ele>649</ele>
        <time>2021-03-13T12:26:56Z</time>
      </trkpt>
      <trkpt lat="43.0175" lon="0.93014">
        <ele>649</ele>
        <time>2021-03-13T12:26:57Z</time>
      </trkpt>
      <trkpt lat="43.01747" lon="0.93014">
        <ele>649</ele>
        <time>2021-03-13T12:26:58Z</time>
      </trkpt>
      <trkpt lat="43.01745" lon="0.93014">
        <ele>649</ele>
        <time>2021-03-13T12:26:59Z</time>
      </trkpt>
      <trkpt lat="43.01742" lon="0.93014">
        <ele>651</ele>
        <time>2021-03-13T12:27:00Z</time>
      </trkpt>
      <trkpt lat="43.0174" lon="0.93013">
        <ele>651</ele>
        <time>2021-03-13T12:27:01Z</time>
      </trkpt>
      <trkpt lat="43.01737" lon="0.93013">
        <ele>651</ele>
        <time>2021-03-13T12:27:02Z</time>
      </trkpt>
      <trkpt lat="43.01734" lon="0.93012">
        <ele>651</ele>
        <time>2021-03-13T12:27:03Z</time>
      </trkpt>
      <trkpt lat="43.01729" lon="0.93012">
        <ele>651</ele>
        <time>2021-03-13T12:27:04Z</time>
      </trkpt>
      <trkpt lat="43.01729" lon="0.93012">
        <ele>651</ele>
        <time>2021-03-13T12:27:05Z</time>
      </trkpt>
      <trkpt lat="43.01726" lon="0.93012">
        <ele>651</ele>
        <time>2021-03-13T12:27:06Z</time>
      </trkpt>
      <trkpt lat="43.01724" lon="0.93011">
        <ele>651</ele>
        <time>2021-03-13T12:27:07Z</time>
      </trkpt>
      <trkpt lat="43.01722" lon="0.9301">
        <ele>651</ele>
        <time>2021-03-13T12:27:08Z</time>
      </trkpt>
      <trkpt lat="43.0172" lon="0.9301">
        <ele>651</ele>
        <time>2021-03-13T12:27:09Z</time>
      </trkpt>
      <trkpt lat="43.01717" lon="0.93009">
        <ele>653</ele>
        <time>2021-03-13T12:27:10Z</time>
      </trkpt>
      <trkpt lat="43.01715" lon="0.93009">
        <ele>653</ele>
        <time>2021-03-13T12:27:11Z</time>
      </trkpt>
      <trkpt lat="43.01713" lon="0.93008">
        <ele>653</ele>
        <time>2021-03-13T12:27:12Z</time>
      </trkpt>
      <trkpt lat="43.0171" lon="0.93008">
        <ele>653</ele>
        <time>2021-03-13T12:27:13Z</time>
      </trkpt>
      <trkpt lat="43.01708" lon="0.93008">
        <ele>653</ele>
        <time>2021-03-13T12:27:14Z</time>
      </trkpt>
      <trkpt lat="43.01702" lon="0.93007">
        <ele>653</ele>
        <time>2021-03-13T12:27:15Z</time>
      </trkpt>
      <trkpt lat="43.01702" lon="0.93007">
        <ele>653</ele>
        <time>2021-03-13T12:27:16Z</time>
      </trkpt>
      <trkpt lat="43.017" lon="0.93007">
        <ele>653</ele>
        <time>2021-03-13T12:27:17Z</time>
      </trkpt>
      <trkpt lat="43.01698" lon="0.93007">
        <ele>653</ele>
        <time>2021-03-13T12:27:18Z</time>
      </trkpt>
      <trkpt lat="43.01695" lon="0.93007">
        <ele>653</ele>
        <time>2021-03-13T12:27:19Z</time>
      </trkpt>
      <trkpt lat="43.01693" lon="0.93006">
        <ele>655</ele>
        <time>2021-03-13T12:27:20Z</time>
      </trkpt>
      <trkpt lat="43.01691" lon="0.93005">
        <ele>655</ele>
        <time>2021-03-13T12:27:21Z</time>
      </trkpt>
      <trkpt lat="43.01688" lon="0.93004">
        <ele>655</ele>
        <time>2021-03-13T12:27:22Z</time>
      </trkpt>
      <trkpt lat="43.01686" lon="0.93003">
        <ele>655</ele>
        <time>2021-03-13T12:27:23Z</time>
      </trkpt>
      <trkpt lat="43.01684" lon="0.93002">
        <ele>655</ele>
        <time>2021-03-13T12:27:24Z</time>
      </trkpt>
      <trkpt lat="43.01682" lon="0.93001">
        <ele>655</ele>
        <time>2021-03-13T12:27:25Z</time>
      </trkpt>
      <trkpt lat="43.0168" lon="0.92999">
        <ele>655</ele>
        <time>2021-03-13T12:27:26Z</time>
      </trkpt>
      <trkpt lat="43.01678" lon="0.92997">
        <ele>655</ele>
        <time>2021-03-13T12:27:27Z</time>
      </trkpt>
      <trkpt lat="43.01676" lon="0.92996">
        <ele>655</ele>
        <time>2021-03-13T12:27:28Z</time>
      </trkpt>
      <trkpt lat="43.01673" lon="0.92994">
        <ele>655</ele>
        <time>2021-03-13T12:27:29Z</time>
      </trkpt>
      <trkpt lat="43.01671" lon="0.92993">
        <ele>656</ele>
        <time>2021-03-13T12:27:30Z</time>
      </trkpt>
      <trkpt lat="43.01668" lon="0.92991">
        <ele>656</ele>
        <time>2021-03-13T12:27:31Z</time>
      </trkpt>
      <trkpt lat="43.01666" lon="0.9299">
        <ele>656</ele>
        <time>2021-03-13T12:27:32Z</time>
      </trkpt>
      <trkpt lat="43.01664" lon="0.92988">
        <ele>656</ele>
        <time>2021-03-13T12:27:33Z</time>
      </trkpt>
      <trkpt lat="43.01662" lon="0.92987">
        <ele>656</ele>
        <time>2021-03-13T12:27:34Z</time>
      </trkpt>
      <trkpt lat="43.0166" lon="0.92983">
        <ele>656</ele>
        <time>2021-03-13T12:27:35Z</time>
      </trkpt>
      <trkpt lat="43.01658" lon="0.9298">
        <ele>656</ele>
        <time>2021-03-13T12:27:36Z</time>
      </trkpt>
      <trkpt lat="43.01656" lon="0.92977">
        <ele>656</ele>
        <time>2021-03-13T12:27:37Z</time>
      </trkpt>
      <trkpt lat="43.01654" lon="0.92975">
        <ele>656</ele>
        <time>2021-03-13T12:27:38Z</time>
      </trkpt>
      <trkpt lat="43.01652" lon="0.92973">
        <ele>656</ele>
        <time>2021-03-13T12:27:39Z</time>
      </trkpt>
      <trkpt lat="43.01649" lon="0.92971">
        <ele>656</ele>
        <time>2021-03-13T12:27:40Z</time>
      </trkpt>
      <trkpt lat="43.01647" lon="0.92967">
        <ele>656</ele>
        <time>2021-03-13T12:27:41Z</time>
      </trkpt>
      <trkpt lat="43.01645" lon="0.92964">
        <ele>656</ele>
        <time>2021-03-13T12:27:42Z</time>
      </trkpt>
      <trkpt lat="43.01644" lon="0.92961">
        <ele>656</ele>
        <time>2021-03-13T12:27:43Z</time>
      </trkpt>
      <trkpt lat="43.01638" lon="0.92952">
        <ele>656</ele>
        <time>2021-03-13T12:27:44Z</time>
      </trkpt>
      <trkpt lat="43.01638" lon="0.92952">
        <ele>656</ele>
        <time>2021-03-13T12:27:45Z</time>
      </trkpt>
      <trkpt lat="43.01634" lon="0.92943">
        <ele>656</ele>
        <time>2021-03-13T12:27:46Z</time>
      </trkpt>
      <trkpt lat="43.01634" lon="0.92943">
        <ele>656</ele>
        <time>2021-03-13T12:27:47Z</time>
      </trkpt>
      <trkpt lat="43.01633" lon="0.92939">
        <ele>656</ele>
        <time>2021-03-13T12:27:48Z</time>
      </trkpt>
      <trkpt lat="43.01632" lon="0.92935">
        <ele>656</ele>
        <time>2021-03-13T12:27:49Z</time>
      </trkpt>
      <trkpt lat="43.0163" lon="0.92931">
        <ele>656</ele>
        <time>2021-03-13T12:27:50Z</time>
      </trkpt>
      <trkpt lat="43.01629" lon="0.92927">
        <ele>656</ele>
        <time>2021-03-13T12:27:51Z</time>
      </trkpt>
      <trkpt lat="43.01628" lon="0.92923">
        <ele>656</ele>
        <time>2021-03-13T12:27:52Z</time>
      </trkpt>
      <trkpt lat="43.01627" lon="0.9292">
        <ele>656</ele>
        <time>2021-03-13T12:27:53Z</time>
      </trkpt>
      <trkpt lat="43.01626" lon="0.92916">
        <ele>656</ele>
        <time>2021-03-13T12:27:54Z</time>
      </trkpt>
      <trkpt lat="43.01625" lon="0.92913">
        <ele>656</ele>
        <time>2021-03-13T12:27:55Z</time>
      </trkpt>
      <trkpt lat="43.01624" lon="0.92909">
        <ele>656</ele>
        <time>2021-03-13T12:27:56Z</time>
      </trkpt>
      <trkpt lat="43.01622" lon="0.92899">
        <ele>656</ele>
        <time>2021-03-13T12:27:57Z</time>
      </trkpt>
      <trkpt lat="43.01622" lon="0.92899">
        <ele>656</ele>
        <time>2021-03-13T12:27:58Z</time>
      </trkpt>
      <trkpt lat="43.01619" lon="0.92888">
        <ele>656</ele>
        <time>2021-03-13T12:27:59Z</time>
      </trkpt>
      <trkpt lat="43.01619" lon="0.92888">
        <ele>655</ele>
        <time>2021-03-13T12:28:00Z</time>
      </trkpt>
      <trkpt lat="43.01616" lon="0.92875">
        <ele>655</ele>
        <time>2021-03-13T12:28:01Z</time>
      </trkpt>
      <trkpt lat="43.01616" lon="0.92875">
        <ele>655</ele>
        <time>2021-03-13T12:28:02Z</time>
      </trkpt>
      <trkpt lat="43.01613" lon="0.92864">
        <ele>655</ele>
        <time>2021-03-13T12:28:03Z</time>
      </trkpt>
      <trkpt lat="43.01613" lon="0.92864">
        <ele>655</ele>
        <time>2021-03-13T12:28:04Z</time>
      </trkpt>
      <trkpt lat="43.01611" lon="0.92854">
        <ele>655</ele>
        <time>2021-03-13T12:28:05Z</time>
      </trkpt>
      <trkpt lat="43.01611" lon="0.92854">
        <ele>655</ele>
        <time>2021-03-13T12:28:06Z</time>
      </trkpt>
      <trkpt lat="43.0161" lon="0.9285">
        <ele>655</ele>
        <time>2021-03-13T12:28:07Z</time>
      </trkpt>
      <trkpt lat="43.01609" lon="0.92846">
        <ele>655</ele>
        <time>2021-03-13T12:28:08Z</time>
      </trkpt>
      <trkpt lat="43.01609" lon="0.92841">
        <ele>655</ele>
        <time>2021-03-13T12:28:09Z</time>
      </trkpt>
      <trkpt lat="43.01608" lon="0.92838">
        <ele>655</ele>
        <time>2021-03-13T12:28:10Z</time>
      </trkpt>
      <trkpt lat="43.01608" lon="0.92835">
        <ele>655</ele>
        <time>2021-03-13T12:28:11Z</time>
      </trkpt>
      <trkpt lat="43.01607" lon="0.92832">
        <ele>655</ele>
        <time>2021-03-13T12:28:12Z</time>
      </trkpt>
      <trkpt lat="43.01606" lon="0.92829">
        <ele>655</ele>
        <time>2021-03-13T12:28:13Z</time>
      </trkpt>
      <trkpt lat="43.01606" lon="0.92825">
        <ele>655</ele>
        <time>2021-03-13T12:28:14Z</time>
      </trkpt>
      <trkpt lat="43.01605" lon="0.92821">
        <ele>655</ele>
        <time>2021-03-13T12:28:15Z</time>
      </trkpt>
      <trkpt lat="43.01605" lon="0.92818">
        <ele>655</ele>
        <time>2021-03-13T12:28:16Z</time>
      </trkpt>
      <trkpt lat="43.01605" lon="0.92814">
        <ele>655</ele>
        <time>2021-03-13T12:28:17Z</time>
      </trkpt>
      <trkpt lat="43.01604" lon="0.9281">
        <ele>655</ele>
        <time>2021-03-13T12:28:18Z</time>
      </trkpt>
      <trkpt lat="43.01604" lon="0.92806">
        <ele>655</ele>
        <time>2021-03-13T12:28:19Z</time>
      </trkpt>
      <trkpt lat="43.01603" lon="0.92803">
        <ele>655</ele>
        <time>2021-03-13T12:28:20Z</time>
      </trkpt>
      <trkpt lat="43.01603" lon="0.92799">
        <ele>655</ele>
        <time>2021-03-13T12:28:21Z</time>
      </trkpt>
      <trkpt lat="43.01603" lon="0.92795">
        <ele>655</ele>
        <time>2021-03-13T12:28:22Z</time>
      </trkpt>
      <trkpt lat="43.01603" lon="0.92791">
        <ele>655</ele>
        <time>2021-03-13T12:28:23Z</time>
      </trkpt>
      <trkpt lat="43.01603" lon="0.92786">
        <ele>655</ele>
        <time>2021-03-13T12:28:24Z</time>
      </trkpt>
      <trkpt lat="43.01602" lon="0.92783">
        <ele>655</ele>
        <time>2021-03-13T12:28:25Z</time>
      </trkpt>
      <trkpt lat="43.01602" lon="0.9278">
        <ele>655</ele>
        <time>2021-03-13T12:28:26Z</time>
      </trkpt>
      <trkpt lat="43.01601" lon="0.92777">
        <ele>655</ele>
        <time>2021-03-13T12:28:27Z</time>
      </trkpt>
      <trkpt lat="43.016" lon="0.92774">
        <ele>655</ele>
        <time>2021-03-13T12:28:28Z</time>
      </trkpt>
      <trkpt lat="43.016" lon="0.92771">
        <ele>655</ele>
        <time>2021-03-13T12:28:29Z</time>
      </trkpt>
      <trkpt lat="43.01599" lon="0.92768">
        <ele>657</ele>
        <time>2021-03-13T12:28:30Z</time>
      </trkpt>
      <trkpt lat="43.01599" lon="0.92765">
        <ele>657</ele>
        <time>2021-03-13T12:28:31Z</time>
      </trkpt>
      <trkpt lat="43.01598" lon="0.92762">
        <ele>657</ele>
        <time>2021-03-13T12:28:32Z</time>
      </trkpt>
      <trkpt lat="43.01598" lon="0.92759">
        <ele>657</ele>
        <time>2021-03-13T12:28:33Z</time>
      </trkpt>
      <trkpt lat="43.01598" lon="0.9275">
        <ele>657</ele>
        <time>2021-03-13T12:28:34Z</time>
      </trkpt>
      <trkpt lat="43.01598" lon="0.9275">
        <ele>657</ele>
        <time>2021-03-13T12:28:35Z</time>
      </trkpt>
      <trkpt lat="43.01598" lon="0.92743">
        <ele>657</ele>
        <time>2021-03-13T12:28:36Z</time>
      </trkpt>
      <trkpt lat="43.01598" lon="0.92743">
        <ele>657</ele>
        <time>2021-03-13T12:28:37Z</time>
      </trkpt>
      <trkpt lat="43.01597" lon="0.92735">
        <ele>657</ele>
        <time>2021-03-13T12:28:38Z</time>
      </trkpt>
      <trkpt lat="43.01597" lon="0.92735">
        <ele>657</ele>
        <time>2021-03-13T12:28:39Z</time>
      </trkpt>
      <trkpt lat="43.01598" lon="0.92727">
        <ele>659</ele>
        <time>2021-03-13T12:28:40Z</time>
      </trkpt>
      <trkpt lat="43.01598" lon="0.92727">
        <ele>659</ele>
        <time>2021-03-13T12:28:41Z</time>
      </trkpt>
      <trkpt lat="43.01599" lon="0.92719">
        <ele>659</ele>
        <time>2021-03-13T12:28:42Z</time>
      </trkpt>
      <trkpt lat="43.01599" lon="0.92719">
        <ele>659</ele>
        <time>2021-03-13T12:28:43Z</time>
      </trkpt>
      <trkpt lat="43.016" lon="0.92713">
        <ele>659</ele>
        <time>2021-03-13T12:28:44Z</time>
      </trkpt>
      <trkpt lat="43.016" lon="0.92713">
        <ele>659</ele>
        <time>2021-03-13T12:28:45Z</time>
      </trkpt>
      <trkpt lat="43.016" lon="0.92705">
        <ele>659</ele>
        <time>2021-03-13T12:28:46Z</time>
      </trkpt>
      <trkpt lat="43.016" lon="0.92705">
        <ele>659</ele>
        <time>2021-03-13T12:28:47Z</time>
      </trkpt>
      <trkpt lat="43.01601" lon="0.92698">
        <ele>659</ele>
        <time>2021-03-13T12:28:48Z</time>
      </trkpt>
      <trkpt lat="43.01601" lon="0.92698">
        <ele>659</ele>
        <time>2021-03-13T12:28:49Z</time>
      </trkpt>
      <trkpt lat="43.01602" lon="0.92691">
        <ele>661</ele>
        <time>2021-03-13T12:28:50Z</time>
      </trkpt>
      <trkpt lat="43.01602" lon="0.92691">
        <ele>661</ele>
        <time>2021-03-13T12:28:51Z</time>
      </trkpt>
      <trkpt lat="43.01601" lon="0.92685">
        <ele>661</ele>
        <time>2021-03-13T12:28:52Z</time>
      </trkpt>
      <trkpt lat="43.01601" lon="0.92685">
        <ele>661</ele>
        <time>2021-03-13T12:28:53Z</time>
      </trkpt>
      <trkpt lat="43.01598" lon="0.92678">
        <ele>661</ele>
        <time>2021-03-13T12:28:54Z</time>
      </trkpt>
      <trkpt lat="43.01598" lon="0.92678">
        <ele>661</ele>
        <time>2021-03-13T12:28:55Z</time>
      </trkpt>
      <trkpt lat="43.01596" lon="0.92672">
        <ele>661</ele>
        <time>2021-03-13T12:28:56Z</time>
      </trkpt>
      <trkpt lat="43.01596" lon="0.92672">
        <ele>661</ele>
        <time>2021-03-13T12:28:57Z</time>
      </trkpt>
      <trkpt lat="43.01595" lon="0.92666">
        <ele>661</ele>
        <time>2021-03-13T12:28:58Z</time>
      </trkpt>
      <trkpt lat="43.01595" lon="0.92666">
        <ele>661</ele>
        <time>2021-03-13T12:28:59Z</time>
      </trkpt>
      <trkpt lat="43.01592" lon="0.92661">
        <ele>663</ele>
        <time>2021-03-13T12:29:00Z</time>
      </trkpt>
      <trkpt lat="43.01592" lon="0.92661">
        <ele>663</ele>
        <time>2021-03-13T12:29:01Z</time>
      </trkpt>
      <trkpt lat="43.01589" lon="0.92656">
        <ele>663</ele>
        <time>2021-03-13T12:29:02Z</time>
      </trkpt>
      <trkpt lat="43.01589" lon="0.92656">
        <ele>663</ele>
        <time>2021-03-13T12:29:03Z</time>
      </trkpt>
      <trkpt lat="43.01585" lon="0.92651">
        <ele>663</ele>
        <time>2021-03-13T12:29:04Z</time>
      </trkpt>
      <trkpt lat="43.01585" lon="0.92651">
        <ele>664</ele>
        <time>2021-03-13T12:29:05Z</time>
      </trkpt>
      <trkpt lat="43.01584" lon="0.92649">
        <ele>664</ele>
        <time>2021-03-13T12:29:06Z</time>
      </trkpt>
      <trkpt lat="43.01582" lon="0.92647">
        <ele>664</ele>
        <time>2021-03-13T12:29:07Z</time>
      </trkpt>
      <trkpt lat="43.01581" lon="0.92645">
        <ele>664</ele>
        <time>2021-03-13T12:29:08Z</time>
      </trkpt>
      <trkpt lat="43.01576" lon="0.9264">
        <ele>664</ele>
        <time>2021-03-13T12:29:09Z</time>
      </trkpt>
      <trkpt lat="43.01576" lon="0.9264">
        <ele>665</ele>
        <time>2021-03-13T12:29:10Z</time>
      </trkpt>
      <trkpt lat="43.01572" lon="0.92636">
        <ele>665</ele>
        <time>2021-03-13T12:29:11Z</time>
      </trkpt>
      <trkpt lat="43.01572" lon="0.92636">
        <ele>665</ele>
        <time>2021-03-13T12:29:12Z</time>
      </trkpt>
      <trkpt lat="43.0157" lon="0.92635">
        <ele>665</ele>
        <time>2021-03-13T12:29:13Z</time>
      </trkpt>
      <trkpt lat="43.01568" lon="0.92634">
        <ele>665</ele>
        <time>2021-03-13T12:29:14Z</time>
      </trkpt>
      <trkpt lat="43.01566" lon="0.92633">
        <ele>665</ele>
        <time>2021-03-13T12:29:15Z</time>
      </trkpt>
      <trkpt lat="43.01562" lon="0.92631">
        <ele>665</ele>
        <time>2021-03-13T12:29:16Z</time>
      </trkpt>
      <trkpt lat="43.01562" lon="0.92631">
        <ele>665</ele>
        <time>2021-03-13T12:29:17Z</time>
      </trkpt>
      <trkpt lat="43.01557" lon="0.92629">
        <ele>665</ele>
        <time>2021-03-13T12:29:18Z</time>
      </trkpt>
      <trkpt lat="43.01557" lon="0.92629">
        <ele>665</ele>
        <time>2021-03-13T12:29:19Z</time>
      </trkpt>
      <trkpt lat="43.01555" lon="0.92629">
        <ele>667</ele>
        <time>2021-03-13T12:29:20Z</time>
      </trkpt>
      <trkpt lat="43.01553" lon="0.92628">
        <ele>667</ele>
        <time>2021-03-13T12:29:21Z</time>
      </trkpt>
      <trkpt lat="43.01552" lon="0.92628">
        <ele>667</ele>
        <time>2021-03-13T12:29:22Z</time>
      </trkpt>
      <trkpt lat="43.0155" lon="0.92629">
        <ele>667</ele>
        <time>2021-03-13T12:29:23Z</time>
      </trkpt>
      <trkpt lat="43.01548" lon="0.9263">
        <ele>667</ele>
        <time>2021-03-13T12:29:24Z</time>
      </trkpt>
      <trkpt lat="43.01547" lon="0.92631">
        <ele>667</ele>
        <time>2021-03-13T12:29:25Z</time>
      </trkpt>
      <trkpt lat="43.01545" lon="0.92632">
        <ele>667</ele>
        <time>2021-03-13T12:29:26Z</time>
      </trkpt>
      <trkpt lat="43.01543" lon="0.92634">
        <ele>667</ele>
        <time>2021-03-13T12:29:27Z</time>
      </trkpt>
      <trkpt lat="43.01542" lon="0.92636">
        <ele>667</ele>
        <time>2021-03-13T12:29:28Z</time>
      </trkpt>
      <trkpt lat="43.01538" lon="0.92641">
        <ele>667</ele>
        <time>2021-03-13T12:29:29Z</time>
      </trkpt>
      <trkpt lat="43.01538" lon="0.92641">
        <ele>670</ele>
        <time>2021-03-13T12:29:30Z</time>
      </trkpt>
      <trkpt lat="43.01536" lon="0.92643">
        <ele>670</ele>
        <time>2021-03-13T12:29:31Z</time>
      </trkpt>
      <trkpt lat="43.01535" lon="0.92645">
        <ele>670</ele>
        <time>2021-03-13T12:29:32Z</time>
      </trkpt>
      <trkpt lat="43.01533" lon="0.92647">
        <ele>670</ele>
        <time>2021-03-13T12:29:33Z</time>
      </trkpt>
      <trkpt lat="43.0153" lon="0.92653">
        <ele>670</ele>
        <time>2021-03-13T12:29:34Z</time>
      </trkpt>
      <trkpt lat="43.0153" lon="0.92653">
        <ele>671</ele>
        <time>2021-03-13T12:29:35Z</time>
      </trkpt>
      <trkpt lat="43.01527" lon="0.92659">
        <ele>671</ele>
        <time>2021-03-13T12:29:36Z</time>
      </trkpt>
      <trkpt lat="43.01527" lon="0.92659">
        <ele>671</ele>
        <time>2021-03-13T12:29:37Z</time>
      </trkpt>
      <trkpt lat="43.01523" lon="0.92664">
        <ele>671</ele>
        <time>2021-03-13T12:29:38Z</time>
      </trkpt>
      <trkpt lat="43.01523" lon="0.92664">
        <ele>671</ele>
        <time>2021-03-13T12:29:39Z</time>
      </trkpt>
      <trkpt lat="43.0152" lon="0.92669">
        <ele>672</ele>
        <time>2021-03-13T12:29:40Z</time>
      </trkpt>
      <trkpt lat="43.0152" lon="0.92669">
        <ele>672</ele>
        <time>2021-03-13T12:29:41Z</time>
      </trkpt>
      <trkpt lat="43.01519" lon="0.92671">
        <ele>672</ele>
        <time>2021-03-13T12:29:42Z</time>
      </trkpt>
      <trkpt lat="43.01517" lon="0.92674">
        <ele>672</ele>
        <time>2021-03-13T12:29:43Z</time>
      </trkpt>
      <trkpt lat="43.01516" lon="0.92677">
        <ele>672</ele>
        <time>2021-03-13T12:29:44Z</time>
      </trkpt>
      <trkpt lat="43.01515" lon="0.9268">
        <ele>673</ele>
        <time>2021-03-13T12:29:45Z</time>
      </trkpt>
      <trkpt lat="43.01514" lon="0.92682">
        <ele>673</ele>
        <time>2021-03-13T12:29:46Z</time>
      </trkpt>
      <trkpt lat="43.01513" lon="0.92685">
        <ele>673</ele>
        <time>2021-03-13T12:29:47Z</time>
      </trkpt>
      <trkpt lat="43.01512" lon="0.92691">
        <ele>673</ele>
        <time>2021-03-13T12:29:48Z</time>
      </trkpt>
      <trkpt lat="43.01512" lon="0.92691">
        <ele>673</ele>
        <time>2021-03-13T12:29:49Z</time>
      </trkpt>
      <trkpt lat="43.01509" lon="0.92696">
        <ele>675</ele>
        <time>2021-03-13T12:29:50Z</time>
      </trkpt>
      <trkpt lat="43.01509" lon="0.92696">
        <ele>675</ele>
        <time>2021-03-13T12:29:51Z</time>
      </trkpt>
      <trkpt lat="43.01508" lon="0.92701">
        <ele>675</ele>
        <time>2021-03-13T12:29:52Z</time>
      </trkpt>
      <trkpt lat="43.01508" lon="0.92701">
        <ele>675</ele>
        <time>2021-03-13T12:29:53Z</time>
      </trkpt>
      <trkpt lat="43.01505" lon="0.92705">
        <ele>675</ele>
        <time>2021-03-13T12:29:54Z</time>
      </trkpt>
      <trkpt lat="43.01505" lon="0.92705">
        <ele>675</ele>
        <time>2021-03-13T12:29:55Z</time>
      </trkpt>
      <trkpt lat="43.015" lon="0.92708">
        <ele>675</ele>
        <time>2021-03-13T12:29:56Z</time>
      </trkpt>
      <trkpt lat="43.015" lon="0.92708">
        <ele>675</ele>
        <time>2021-03-13T12:29:57Z</time>
      </trkpt>
      <trkpt lat="43.01495" lon="0.92708">
        <ele>675</ele>
        <time>2021-03-13T12:29:58Z</time>
      </trkpt>
      <trkpt lat="43.01495" lon="0.92708">
        <ele>675</ele>
        <time>2021-03-13T12:29:59Z</time>
      </trkpt>
      <trkpt lat="43.01489" lon="0.92705">
        <ele>677</ele>
        <time>2021-03-13T12:30:00Z</time>
      </trkpt>
      <trkpt lat="43.01489" lon="0.92705">
        <ele>677</ele>
        <time>2021-03-13T12:30:01Z</time>
      </trkpt>
      <trkpt lat="43.01483" lon="0.927">
        <ele>677</ele>
        <time>2021-03-13T12:30:02Z</time>
      </trkpt>
      <trkpt lat="43.01481" lon="0.92699">
        <ele>677</ele>
        <time>2021-03-13T12:30:03Z</time>
      </trkpt>
      <trkpt lat="43.01479" lon="0.92696">
        <ele>677</ele>
        <time>2021-03-13T12:30:04Z</time>
      </trkpt>
      <trkpt lat="43.01479" lon="0.92696">
        <ele>677</ele>
        <time>2021-03-13T12:30:05Z</time>
      </trkpt>
      <trkpt lat="43.01475" lon="0.92692">
        <ele>677</ele>
        <time>2021-03-13T12:30:06Z</time>
      </trkpt>
      <trkpt lat="43.01475" lon="0.92692">
        <ele>677</ele>
        <time>2021-03-13T12:30:07Z</time>
      </trkpt>
      <trkpt lat="43.0147" lon="0.92688">
        <ele>677</ele>
        <time>2021-03-13T12:30:08Z</time>
      </trkpt>
      <trkpt lat="43.0147" lon="0.92688">
        <ele>677</ele>
        <time>2021-03-13T12:30:09Z</time>
      </trkpt>
      <trkpt lat="43.01464" lon="0.92683">
        <ele>677</ele>
        <time>2021-03-13T12:30:10Z</time>
      </trkpt>
      <trkpt lat="43.01463" lon="0.92682">
        <ele>677</ele>
        <time>2021-03-13T12:30:11Z</time>
      </trkpt>
      <trkpt lat="43.01461" lon="0.9268">
        <ele>677</ele>
        <time>2021-03-13T12:30:12Z</time>
      </trkpt>
      <trkpt lat="43.01458" lon="0.92678">
        <ele>677</ele>
        <time>2021-03-13T12:30:13Z</time>
      </trkpt>
      <trkpt lat="43.01456" lon="0.92675">
        <ele>677</ele>
        <time>2021-03-13T12:30:14Z</time>
      </trkpt>
      <trkpt lat="43.01453" lon="0.92673">
        <ele>677</ele>
        <time>2021-03-13T12:30:15Z</time>
      </trkpt>
      <trkpt lat="43.01451" lon="0.92671">
        <ele>677</ele>
        <time>2021-03-13T12:30:16Z</time>
      </trkpt>
      <trkpt lat="43.01448" lon="0.92669">
        <ele>677</ele>
        <time>2021-03-13T12:30:17Z</time>
      </trkpt>
      <trkpt lat="43.01446" lon="0.92667">
        <ele>677</ele>
        <time>2021-03-13T12:30:18Z</time>
      </trkpt>
      <trkpt lat="43.01444" lon="0.92665">
        <ele>677</ele>
        <time>2021-03-13T12:30:19Z</time>
      </trkpt>
      <trkpt lat="43.01441" lon="0.92663">
        <ele>678</ele>
        <time>2021-03-13T12:30:20Z</time>
      </trkpt>
      <trkpt lat="43.01439" lon="0.92661">
        <ele>678</ele>
        <time>2021-03-13T12:30:21Z</time>
      </trkpt>
      <trkpt lat="43.01437" lon="0.92659">
        <ele>678</ele>
        <time>2021-03-13T12:30:22Z</time>
      </trkpt>
      <trkpt lat="43.01434" lon="0.92657">
        <ele>678</ele>
        <time>2021-03-13T12:30:23Z</time>
      </trkpt>
      <trkpt lat="43.01432" lon="0.92655">
        <ele>678</ele>
        <time>2021-03-13T12:30:24Z</time>
      </trkpt>
      <trkpt lat="43.01429" lon="0.92653">
        <ele>678</ele>
        <time>2021-03-13T12:30:25Z</time>
      </trkpt>
      <trkpt lat="43.01427" lon="0.92651">
        <ele>678</ele>
        <time>2021-03-13T12:30:26Z</time>
      </trkpt>
      <trkpt lat="43.01424" lon="0.92649">
        <ele>678</ele>
        <time>2021-03-13T12:30:27Z</time>
      </trkpt>
      <trkpt lat="43.01422" lon="0.92647">
        <ele>678</ele>
        <time>2021-03-13T12:30:28Z</time>
      </trkpt>
      <trkpt lat="43.0142" lon="0.92645">
        <ele>678</ele>
        <time>2021-03-13T12:30:29Z</time>
      </trkpt>
      <trkpt lat="43.01417" lon="0.92643">
        <ele>679</ele>
        <time>2021-03-13T12:30:30Z</time>
      </trkpt>
      <trkpt lat="43.01415" lon="0.92642">
        <ele>679</ele>
        <time>2021-03-13T12:30:31Z</time>
      </trkpt>
      <trkpt lat="43.01412" lon="0.9264">
        <ele>679</ele>
        <time>2021-03-13T12:30:32Z</time>
      </trkpt>
      <trkpt lat="43.01409" lon="0.92639">
        <ele>679</ele>
        <time>2021-03-13T12:30:33Z</time>
      </trkpt>
      <trkpt lat="43.01407" lon="0.92637">
        <ele>679</ele>
        <time>2021-03-13T12:30:34Z</time>
      </trkpt>
      <trkpt lat="43.01404" lon="0.92635">
        <ele>679</ele>
        <time>2021-03-13T12:30:35Z</time>
      </trkpt>
      <trkpt lat="43.01402" lon="0.92634">
        <ele>679</ele>
        <time>2021-03-13T12:30:36Z</time>
      </trkpt>
      <trkpt lat="43.01399" lon="0.92633">
        <ele>679</ele>
        <time>2021-03-13T12:30:37Z</time>
      </trkpt>
      <trkpt lat="43.01395" lon="0.92631">
        <ele>679</ele>
        <time>2021-03-13T12:30:38Z</time>
      </trkpt>
      <trkpt lat="43.01392" lon="0.9263">
        <ele>679</ele>
        <time>2021-03-13T12:30:39Z</time>
      </trkpt>
      <trkpt lat="43.01389" lon="0.92628">
        <ele>679</ele>
        <time>2021-03-13T12:30:40Z</time>
      </trkpt>
      <trkpt lat="43.01386" lon="0.92626">
        <ele>679</ele>
        <time>2021-03-13T12:30:41Z</time>
      </trkpt>
      <trkpt lat="43.01383" lon="0.92624">
        <ele>679</ele>
        <time>2021-03-13T12:30:42Z</time>
      </trkpt>
      <trkpt lat="43.0138" lon="0.92622">
        <ele>679</ele>
        <time>2021-03-13T12:30:43Z</time>
      </trkpt>
      <trkpt lat="43.01376" lon="0.92621">
        <ele>679</ele>
        <time>2021-03-13T12:30:44Z</time>
      </trkpt>
      <trkpt lat="43.01373" lon="0.9262">
        <ele>679</ele>
        <time>2021-03-13T12:30:45Z</time>
      </trkpt>
      <trkpt lat="43.0137" lon="0.92618">
        <ele>679</ele>
        <time>2021-03-13T12:30:46Z</time>
      </trkpt>
      <trkpt lat="43.0137" lon="0.92618">
        <ele>679</ele>
        <time>2021-03-13T12:30:47Z</time>
      </trkpt>
      <trkpt lat="43.01364" lon="0.92618">
        <ele>678</ele>
        <time>2021-03-13T12:30:48Z</time>
      </trkpt>
      <trkpt lat="43.01364" lon="0.92618">
        <ele>678</ele>
        <time>2021-03-13T12:30:49Z</time>
      </trkpt>
      <trkpt lat="43.01358" lon="0.9262">
        <ele>678</ele>
        <time>2021-03-13T12:30:50Z</time>
      </trkpt>
      <trkpt lat="43.01358" lon="0.9262">
        <ele>678</ele>
        <time>2021-03-13T12:30:51Z</time>
      </trkpt>
      <trkpt lat="43.01351" lon="0.92619">
        <ele>678</ele>
        <time>2021-03-13T12:30:52Z</time>
      </trkpt>
      <trkpt lat="43.01351" lon="0.92619">
        <ele>678</ele>
        <time>2021-03-13T12:30:53Z</time>
      </trkpt>
      <trkpt lat="43.01346" lon="0.92618">
        <ele>678</ele>
        <time>2021-03-13T12:30:54Z</time>
      </trkpt>
      <trkpt lat="43.01346" lon="0.92618">
        <ele>678</ele>
        <time>2021-03-13T12:30:55Z</time>
      </trkpt>
      <trkpt lat="43.01339" lon="0.92618">
        <ele>678</ele>
        <time>2021-03-13T12:30:56Z</time>
      </trkpt>
      <trkpt lat="43.01339" lon="0.92618">
        <ele>678</ele>
        <time>2021-03-13T12:30:57Z</time>
      </trkpt>
      <trkpt lat="43.01333" lon="0.92621">
        <ele>677</ele>
        <time>2021-03-13T12:30:58Z</time>
      </trkpt>
      <trkpt lat="43.01333" lon="0.92621">
        <ele>677</ele>
        <time>2021-03-13T12:30:59Z</time>
      </trkpt>
      <trkpt lat="43.01326" lon="0.92623">
        <ele>675</ele>
        <time>2021-03-13T12:31:00Z</time>
      </trkpt>
      <trkpt lat="43.01326" lon="0.92623">
        <ele>675</ele>
        <time>2021-03-13T12:31:01Z</time>
      </trkpt>
      <trkpt lat="43.01318" lon="0.92626">
        <ele>675</ele>
        <time>2021-03-13T12:31:02Z</time>
      </trkpt>
      <trkpt lat="43.01318" lon="0.92626">
        <ele>675</ele>
        <time>2021-03-13T12:31:03Z</time>
      </trkpt>
      <trkpt lat="43.01312" lon="0.92632">
        <ele>675</ele>
        <time>2021-03-13T12:31:04Z</time>
      </trkpt>
      <trkpt lat="43.01312" lon="0.92632">
        <ele>675</ele>
        <time>2021-03-13T12:31:05Z</time>
      </trkpt>
      <trkpt lat="43.01306" lon="0.92641">
        <ele>675</ele>
        <time>2021-03-13T12:31:06Z</time>
      </trkpt>
      <trkpt lat="43.01306" lon="0.92641">
        <ele>675</ele>
        <time>2021-03-13T12:31:07Z</time>
      </trkpt>
      <trkpt lat="43.013" lon="0.92647">
        <ele>675</ele>
        <time>2021-03-13T12:31:08Z</time>
      </trkpt>
      <trkpt lat="43.013" lon="0.92647">
        <ele>675</ele>
        <time>2021-03-13T12:31:09Z</time>
      </trkpt>
      <trkpt lat="43.01295" lon="0.92653">
        <ele>674</ele>
        <time>2021-03-13T12:31:10Z</time>
      </trkpt>
      <trkpt lat="43.01295" lon="0.92653">
        <ele>674</ele>
        <time>2021-03-13T12:31:11Z</time>
      </trkpt>
      <trkpt lat="43.01291" lon="0.92658">
        <ele>674</ele>
        <time>2021-03-13T12:31:12Z</time>
      </trkpt>
      <trkpt lat="43.01291" lon="0.92658">
        <ele>674</ele>
        <time>2021-03-13T12:31:13Z</time>
      </trkpt>
      <trkpt lat="43.01288" lon="0.92664">
        <ele>674</ele>
        <time>2021-03-13T12:31:14Z</time>
      </trkpt>
      <trkpt lat="43.01288" lon="0.92664">
        <ele>674</ele>
        <time>2021-03-13T12:31:15Z</time>
      </trkpt>
      <trkpt lat="43.01284" lon="0.92671">
        <ele>674</ele>
        <time>2021-03-13T12:31:16Z</time>
      </trkpt>
      <trkpt lat="43.01284" lon="0.92671">
        <ele>674</ele>
        <time>2021-03-13T12:31:17Z</time>
      </trkpt>
      <trkpt lat="43.0128" lon="0.92681">
        <ele>674</ele>
        <time>2021-03-13T12:31:18Z</time>
      </trkpt>
      <trkpt lat="43.01279" lon="0.92683">
        <ele>674</ele>
        <time>2021-03-13T12:31:19Z</time>
      </trkpt>
      <trkpt lat="43.01279" lon="0.92683">
        <ele>675</ele>
        <time>2021-03-13T12:31:20Z</time>
      </trkpt>
      <trkpt lat="43.01274" lon="0.92692">
        <ele>675</ele>
        <time>2021-03-13T12:31:21Z</time>
      </trkpt>
      <trkpt lat="43.01274" lon="0.92692">
        <ele>675</ele>
        <time>2021-03-13T12:31:22Z</time>
      </trkpt>
      <trkpt lat="43.0127" lon="0.927">
        <ele>675</ele>
        <time>2021-03-13T12:31:23Z</time>
      </trkpt>
      <trkpt lat="43.0127" lon="0.927">
        <ele>675</ele>
        <time>2021-03-13T12:31:24Z</time>
      </trkpt>
      <trkpt lat="43.01266" lon="0.92709">
        <ele>675</ele>
        <time>2021-03-13T12:31:25Z</time>
      </trkpt>
      <trkpt lat="43.01266" lon="0.92709">
        <ele>675</ele>
        <time>2021-03-13T12:31:26Z</time>
      </trkpt>
      <trkpt lat="43.01261" lon="0.92718">
        <ele>675</ele>
        <time>2021-03-13T12:31:27Z</time>
      </trkpt>
      <trkpt lat="43.01261" lon="0.92718">
        <ele>675</ele>
        <time>2021-03-13T12:31:28Z</time>
      </trkpt>
      <trkpt lat="43.01256" lon="0.92727">
        <ele>675</ele>
        <time>2021-03-13T12:31:29Z</time>
      </trkpt>
      <trkpt lat="43.01256" lon="0.92727">
        <ele>673</ele>
        <time>2021-03-13T12:31:30Z</time>
      </trkpt>
      <trkpt lat="43.01252" lon="0.92733">
        <ele>673</ele>
        <time>2021-03-13T12:31:31Z</time>
      </trkpt>
      <trkpt lat="43.01252" lon="0.92733">
        <ele>673</ele>
        <time>2021-03-13T12:31:32Z</time>
      </trkpt>
      <trkpt lat="43.01246" lon="0.92736">
        <ele>673</ele>
        <time>2021-03-13T12:31:33Z</time>
      </trkpt>
      <trkpt lat="43.01246" lon="0.92736">
        <ele>674</ele>
        <time>2021-03-13T12:31:34Z</time>
      </trkpt>
      <trkpt lat="43.01245" lon="0.92738">
        <ele>674</ele>
        <time>2021-03-13T12:31:35Z</time>
      </trkpt>
      <trkpt lat="43.01243" lon="0.92741">
        <ele>674</ele>
        <time>2021-03-13T12:31:36Z</time>
      </trkpt>
      <trkpt lat="43.01241" lon="0.92743">
        <ele>674</ele>
        <time>2021-03-13T12:31:37Z</time>
      </trkpt>
      <trkpt lat="43.01238" lon="0.92749">
        <ele>674</ele>
        <time>2021-03-13T12:31:38Z</time>
      </trkpt>
      <trkpt lat="43.01238" lon="0.92749">
        <ele>674</ele>
        <time>2021-03-13T12:31:39Z</time>
      </trkpt>
      <trkpt lat="43.01232" lon="0.92756">
        <ele>674</ele>
        <time>2021-03-13T12:31:40Z</time>
      </trkpt>
      <trkpt lat="43.01232" lon="0.92756">
        <ele>674</ele>
        <time>2021-03-13T12:31:41Z</time>
      </trkpt>
      <trkpt lat="43.01227" lon="0.92763">
        <ele>674</ele>
        <time>2021-03-13T12:31:42Z</time>
      </trkpt>
      <trkpt lat="43.01227" lon="0.92763">
        <ele>674</ele>
        <time>2021-03-13T12:31:43Z</time>
      </trkpt>
      <trkpt lat="43.01222" lon="0.92774">
        <ele>674</ele>
        <time>2021-03-13T12:31:44Z</time>
      </trkpt>
      <trkpt lat="43.01222" lon="0.92774">
        <ele>674</ele>
        <time>2021-03-13T12:31:45Z</time>
      </trkpt>
      <trkpt lat="43.01216" lon="0.9279">
        <ele>674</ele>
        <time>2021-03-13T12:31:46Z</time>
      </trkpt>
      <trkpt lat="43.01215" lon="0.92792">
        <ele>674</ele>
        <time>2021-03-13T12:31:47Z</time>
      </trkpt>
      <trkpt lat="43.01214" lon="0.92796">
        <ele>674</ele>
        <time>2021-03-13T12:31:48Z</time>
      </trkpt>
      <trkpt lat="43.01206" lon="0.92813">
        <ele>674</ele>
        <time>2021-03-13T12:31:49Z</time>
      </trkpt>
      <trkpt lat="43.01204" lon="0.92816">
        <ele>671</ele>
        <time>2021-03-13T12:31:50Z</time>
      </trkpt>
      <trkpt lat="43.012" lon="0.92822">
        <ele>671</ele>
        <time>2021-03-13T12:31:51Z</time>
      </trkpt>
      <trkpt lat="43.012" lon="0.92822">
        <ele>671</ele>
        <time>2021-03-13T12:31:52Z</time>
      </trkpt>
      <trkpt lat="43.01193" lon="0.92833">
        <ele>671</ele>
        <time>2021-03-13T12:31:53Z</time>
      </trkpt>
      <trkpt lat="43.01193" lon="0.92833">
        <ele>671</ele>
        <time>2021-03-13T12:31:54Z</time>
      </trkpt>
      <trkpt lat="43.01189" lon="0.9284">
        <ele>668</ele>
        <time>2021-03-13T12:31:55Z</time>
      </trkpt>
      <trkpt lat="43.01189" lon="0.9284">
        <ele>668</ele>
        <time>2021-03-13T12:31:56Z</time>
      </trkpt>
      <trkpt lat="43.01189" lon="0.92842">
        <ele>669</ele>
        <time>2021-03-13T12:31:57Z</time>
      </trkpt>
      <trkpt lat="43.01189" lon="0.92844">
        <ele>669</ele>
        <time>2021-03-13T12:31:58Z</time>
      </trkpt>
      <trkpt lat="43.01188" lon="0.92846">
        <ele>669</ele>
        <time>2021-03-13T12:31:59Z</time>
      </trkpt>
      <trkpt lat="43.01188" lon="0.92848">
        <ele>666</ele>
        <time>2021-03-13T12:32:00Z</time>
      </trkpt>
      <trkpt lat="43.01188" lon="0.92849">
        <ele>666</ele>
        <time>2021-03-13T12:32:01Z</time>
      </trkpt>
      <trkpt lat="43.01187" lon="0.9285">
        <ele>666</ele>
        <time>2021-03-13T12:32:02Z</time>
      </trkpt>
      <trkpt lat="43.01187" lon="0.92851">
        <ele>666</ele>
        <time>2021-03-13T12:32:03Z</time>
      </trkpt>
      <trkpt lat="43.01187" lon="0.92852">
        <ele>666</ele>
        <time>2021-03-13T12:32:04Z</time>
      </trkpt>
      <trkpt lat="43.01186" lon="0.92853">
        <ele>666</ele>
        <time>2021-03-13T12:32:05Z</time>
      </trkpt>
      <trkpt lat="43.01186" lon="0.92854">
        <ele>666</ele>
        <time>2021-03-13T12:32:06Z</time>
      </trkpt>
      <trkpt lat="43.01186" lon="0.92854">
        <ele>666</ele>
        <time>2021-03-13T12:32:07Z</time>
      </trkpt>
      <trkpt lat="43.01186" lon="0.92855">
        <ele>666</ele>
        <time>2021-03-13T12:32:08Z</time>
      </trkpt>
      <trkpt lat="43.01186" lon="0.92855">
        <ele>666</ele>
        <time>2021-03-13T12:32:09Z</time>
      </trkpt>
      <trkpt lat="43.01186" lon="0.92856">
        <ele>666</ele>
        <time>2021-03-13T12:32:10Z</time>
      </trkpt>
      <trkpt lat="43.01186" lon="0.92856">
        <ele>666</ele>
        <time>2021-03-13T12:32:11Z</time>
      </trkpt>
      <trkpt lat="43.01186" lon="0.92857">
        <ele>666</ele>
        <time>2021-03-13T12:32:12Z</time>
      </trkpt>
      <trkpt lat="43.01186" lon="0.92857">
        <ele>666</ele>
        <time>2021-03-13T12:32:13Z</time>
      </trkpt>
      <trkpt lat="43.01186" lon="0.92858">
        <ele>666</ele>
        <time>2021-03-13T12:32:14Z</time>
      </trkpt>
      <trkpt lat="43.01186" lon="0.92858">
        <ele>666</ele>
        <time>2021-03-13T12:32:15Z</time>
      </trkpt>
      <trkpt lat="43.01185" lon="0.92858">
        <ele>666</ele>
        <time>2021-03-13T12:32:16Z</time>
      </trkpt>
      <trkpt lat="43.01185" lon="0.92859">
        <ele>666</ele>
        <time>2021-03-13T12:32:17Z</time>
      </trkpt>
      <trkpt lat="43.01185" lon="0.92859">
        <ele>666</ele>
        <time>2021-03-13T12:32:18Z</time>
      </trkpt>
      <trkpt lat="43.01185" lon="0.9286">
        <ele>666</ele>
        <time>2021-03-13T12:32:19Z</time>
      </trkpt>
      <trkpt lat="43.01185" lon="0.9286">
        <ele>665</ele>
        <time>2021-03-13T12:32:20Z</time>
      </trkpt>
      <trkpt lat="43.01185" lon="0.92862">
        <ele>665</ele>
        <time>2021-03-13T12:32:21Z</time>
      </trkpt>
      <trkpt lat="43.01184" lon="0.92864">
        <ele>665</ele>
        <time>2021-03-13T12:32:22Z</time>
      </trkpt>
      <trkpt lat="43.01183" lon="0.92866">
        <ele>665</ele>
        <time>2021-03-13T12:32:23Z</time>
      </trkpt>
      <trkpt lat="43.01182" lon="0.92867">
        <ele>665</ele>
        <time>2021-03-13T12:32:24Z</time>
      </trkpt>
      <trkpt lat="43.0118" lon="0.92877">
        <ele>666</ele>
        <time>2021-03-13T12:32:25Z</time>
      </trkpt>
      <trkpt lat="43.0118" lon="0.92877">
        <ele>666</ele>
        <time>2021-03-13T12:32:26Z</time>
      </trkpt>
      <trkpt lat="43.01177" lon="0.92886">
        <ele>666</ele>
        <time>2021-03-13T12:32:27Z</time>
      </trkpt>
      <trkpt lat="43.01177" lon="0.92886">
        <ele>666</ele>
        <time>2021-03-13T12:32:28Z</time>
      </trkpt>
      <trkpt lat="43.01174" lon="0.92896">
        <ele>666</ele>
        <time>2021-03-13T12:32:29Z</time>
      </trkpt>
      <trkpt lat="43.01174" lon="0.92896">
        <ele>664</ele>
        <time>2021-03-13T12:32:30Z</time>
      </trkpt>
      <trkpt lat="43.01168" lon="0.9291">
        <ele>664</ele>
        <time>2021-03-13T12:32:31Z</time>
      </trkpt>
      <trkpt lat="43.01167" lon="0.92913">
        <ele>664</ele>
        <time>2021-03-13T12:32:32Z</time>
      </trkpt>
      <trkpt lat="43.01164" lon="0.9292">
        <ele>664</ele>
        <time>2021-03-13T12:32:33Z</time>
      </trkpt>
      <trkpt lat="43.01164" lon="0.9292">
        <ele>664</ele>
        <time>2021-03-13T12:32:34Z</time>
      </trkpt>
      <trkpt lat="43.01156" lon="0.92936">
        <ele>664</ele>
        <time>2021-03-13T12:32:35Z</time>
      </trkpt>
      <trkpt lat="43.01155" lon="0.92938">
        <ele>664</ele>
        <time>2021-03-13T12:32:36Z</time>
      </trkpt>
      <trkpt lat="43.01152" lon="0.92944">
        <ele>664</ele>
        <time>2021-03-13T12:32:37Z</time>
      </trkpt>
      <trkpt lat="43.01152" lon="0.92944">
        <ele>664</ele>
        <time>2021-03-13T12:32:38Z</time>
      </trkpt>
      <trkpt lat="43.01147" lon="0.92952">
        <ele>664</ele>
        <time>2021-03-13T12:32:39Z</time>
      </trkpt>
      <trkpt lat="43.01147" lon="0.92952">
        <ele>661</ele>
        <time>2021-03-13T12:32:40Z</time>
      </trkpt>
      <trkpt lat="43.01142" lon="0.92959">
        <ele>661</ele>
        <time>2021-03-13T12:32:41Z</time>
      </trkpt>
      <trkpt lat="43.01142" lon="0.92959">
        <ele>661</ele>
        <time>2021-03-13T12:32:42Z</time>
      </trkpt>
      <trkpt lat="43.01137" lon="0.92965">
        <ele>661</ele>
        <time>2021-03-13T12:32:43Z</time>
      </trkpt>
      <trkpt lat="43.01137" lon="0.92965">
        <ele>661</ele>
        <time>2021-03-13T12:32:44Z</time>
      </trkpt>
      <trkpt lat="43.01133" lon="0.92972">
        <ele>661</ele>
        <time>2021-03-13T12:32:45Z</time>
      </trkpt>
      <trkpt lat="43.01133" lon="0.92972">
        <ele>661</ele>
        <time>2021-03-13T12:32:46Z</time>
      </trkpt>
      <trkpt lat="43.01128" lon="0.92979">
        <ele>661</ele>
        <time>2021-03-13T12:32:47Z</time>
      </trkpt>
      <trkpt lat="43.01128" lon="0.92979">
        <ele>661</ele>
        <time>2021-03-13T12:32:48Z</time>
      </trkpt>
      <trkpt lat="43.01124" lon="0.92987">
        <ele>661</ele>
        <time>2021-03-13T12:32:49Z</time>
      </trkpt>
      <trkpt lat="43.01124" lon="0.92987">
        <ele>661</ele>
        <time>2021-03-13T12:32:50Z</time>
      </trkpt>
      <trkpt lat="43.01116" lon="0.92996">
        <ele>661</ele>
        <time>2021-03-13T12:32:51Z</time>
      </trkpt>
      <trkpt lat="43.01116" lon="0.92996">
        <ele>661</ele>
        <time>2021-03-13T12:32:52Z</time>
      </trkpt>
      <trkpt lat="43.01107" lon="0.9301">
        <ele>661</ele>
        <time>2021-03-13T12:32:53Z</time>
      </trkpt>
      <trkpt lat="43.01104" lon="0.93012">
        <ele>661</ele>
        <time>2021-03-13T12:32:54Z</time>
      </trkpt>
      <trkpt lat="43.01099" lon="0.93017">
        <ele>661</ele>
        <time>2021-03-13T12:32:55Z</time>
      </trkpt>
      <trkpt lat="43.01099" lon="0.93017">
        <ele>661</ele>
        <time>2021-03-13T12:32:56Z</time>
      </trkpt>
      <trkpt lat="43.0109" lon="0.93029">
        <ele>661</ele>
        <time>2021-03-13T12:32:57Z</time>
      </trkpt>
      <trkpt lat="43.01089" lon="0.93031">
        <ele>661</ele>
        <time>2021-03-13T12:32:58Z</time>
      </trkpt>
      <trkpt lat="43.01087" lon="0.93035">
        <ele>661</ele>
        <time>2021-03-13T12:32:59Z</time>
      </trkpt>
      <trkpt lat="43.01087" lon="0.93035">
        <ele>655</ele>
        <time>2021-03-13T12:33:00Z</time>
      </trkpt>
      <trkpt lat="43.01084" lon="0.93047">
        <ele>655</ele>
        <time>2021-03-13T12:33:01Z</time>
      </trkpt>
      <trkpt lat="43.01084" lon="0.93047">
        <ele>655</ele>
        <time>2021-03-13T12:33:02Z</time>
      </trkpt>
      <trkpt lat="43.0108" lon="0.93067">
        <ele>655</ele>
        <time>2021-03-13T12:33:03Z</time>
      </trkpt>
      <trkpt lat="43.01079" lon="0.93072">
        <ele>653</ele>
        <time>2021-03-13T12:33:04Z</time>
      </trkpt>
      <trkpt lat="43.01075" lon="0.93084">
        <ele>652</ele>
        <time>2021-03-13T12:33:05Z</time>
      </trkpt>
      <trkpt lat="43.01073" lon="0.93088">
        <ele>651</ele>
        <time>2021-03-13T12:33:06Z</time>
      </trkpt>
      <trkpt lat="43.01067" lon="0.93096">
        <ele>651</ele>
        <time>2021-03-13T12:33:07Z</time>
      </trkpt>
      <trkpt lat="43.01064" lon="0.93098">
        <ele>650</ele>
        <time>2021-03-13T12:33:08Z</time>
      </trkpt>
      <trkpt lat="43.01056" lon="0.93101">
        <ele>650</ele>
        <time>2021-03-13T12:33:09Z</time>
      </trkpt>
      <trkpt lat="43.01054" lon="0.93101">
        <ele>650</ele>
        <time>2021-03-13T12:33:10Z</time>
      </trkpt>
      <trkpt lat="43.01049" lon="0.93101">
        <ele>650</ele>
        <time>2021-03-13T12:33:11Z</time>
      </trkpt>
      <trkpt lat="43.01049" lon="0.93101">
        <ele>650</ele>
        <time>2021-03-13T12:33:12Z</time>
      </trkpt>
      <trkpt lat="43.01042" lon="0.93102">
        <ele>650</ele>
        <time>2021-03-13T12:33:13Z</time>
      </trkpt>
      <trkpt lat="43.01042" lon="0.93102">
        <ele>650</ele>
        <time>2021-03-13T12:33:14Z</time>
      </trkpt>
      <trkpt lat="43.01037" lon="0.93104">
        <ele>651</ele>
        <time>2021-03-13T12:33:15Z</time>
      </trkpt>
      <trkpt lat="43.01037" lon="0.93104">
        <ele>651</ele>
        <time>2021-03-13T12:33:16Z</time>
      </trkpt>
      <trkpt lat="43.01032" lon="0.93106">
        <ele>651</ele>
        <time>2021-03-13T12:33:17Z</time>
      </trkpt>
      <trkpt lat="43.01032" lon="0.93106">
        <ele>651</ele>
        <time>2021-03-13T12:33:18Z</time>
      </trkpt>
      <trkpt lat="43.01028" lon="0.93108">
        <ele>652</ele>
        <time>2021-03-13T12:33:19Z</time>
      </trkpt>
      <trkpt lat="43.01028" lon="0.93108">
        <ele>652</ele>
        <time>2021-03-13T12:33:20Z</time>
      </trkpt>
      <trkpt lat="43.01023" lon="0.93111">
        <ele>652</ele>
        <time>2021-03-13T12:33:21Z</time>
      </trkpt>
      <trkpt lat="43.01023" lon="0.93111">
        <ele>652</ele>
        <time>2021-03-13T12:33:22Z</time>
      </trkpt>
      <trkpt lat="43.01018" lon="0.93113">
        <ele>652</ele>
        <time>2021-03-13T12:33:23Z</time>
      </trkpt>
      <trkpt lat="43.01018" lon="0.93113">
        <ele>652</ele>
        <time>2021-03-13T12:33:24Z</time>
      </trkpt>
      <trkpt lat="43.01013" lon="0.93115">
        <ele>653</ele>
        <time>2021-03-13T12:33:25Z</time>
      </trkpt>
      <trkpt lat="43.01013" lon="0.93115">
        <ele>653</ele>
        <time>2021-03-13T12:33:26Z</time>
      </trkpt>
      <trkpt lat="43.01009" lon="0.93117">
        <ele>653</ele>
        <time>2021-03-13T12:33:27Z</time>
      </trkpt>
      <trkpt lat="43.01009" lon="0.93117">
        <ele>653</ele>
        <time>2021-03-13T12:33:28Z</time>
      </trkpt>
      <trkpt lat="43.01007" lon="0.93118">
        <ele>653</ele>
        <time>2021-03-13T12:33:29Z</time>
      </trkpt>
      <trkpt lat="43.01005" lon="0.93119">
        <ele>654</ele>
        <time>2021-03-13T12:33:30Z</time>
      </trkpt>
      <trkpt lat="43.01003" lon="0.9312">
        <ele>654</ele>
        <time>2021-03-13T12:33:31Z</time>
      </trkpt>
      <trkpt lat="43.01001" lon="0.93121">
        <ele>654</ele>
        <time>2021-03-13T12:33:32Z</time>
      </trkpt>
      <trkpt lat="43.00999" lon="0.93122">
        <ele>654</ele>
        <time>2021-03-13T12:33:33Z</time>
      </trkpt>
      <trkpt lat="43.00997" lon="0.93122">
        <ele>654</ele>
        <time>2021-03-13T12:33:34Z</time>
      </trkpt>
      <trkpt lat="43.00992" lon="0.93124">
        <ele>654</ele>
        <time>2021-03-13T12:33:35Z</time>
      </trkpt>
      <trkpt lat="43.00992" lon="0.93124">
        <ele>654</ele>
        <time>2021-03-13T12:33:36Z</time>
      </trkpt>
      <trkpt lat="43.0099" lon="0.93125">
        <ele>654</ele>
        <time>2021-03-13T12:33:37Z</time>
      </trkpt>
      <trkpt lat="43.00988" lon="0.93126">
        <ele>654</ele>
        <time>2021-03-13T12:33:38Z</time>
      </trkpt>
      <trkpt lat="43.00986" lon="0.93128">
        <ele>654</ele>
        <time>2021-03-13T12:33:39Z</time>
      </trkpt>
      <trkpt lat="43.00984" lon="0.93128">
        <ele>656</ele>
        <time>2021-03-13T12:33:40Z</time>
      </trkpt>
      <trkpt lat="43.00981" lon="0.93128">
        <ele>656</ele>
        <time>2021-03-13T12:33:41Z</time>
      </trkpt>
      <trkpt lat="43.00979" lon="0.93129">
        <ele>656</ele>
        <time>2021-03-13T12:33:42Z</time>
      </trkpt>
      <trkpt lat="43.00977" lon="0.93129">
        <ele>656</ele>
        <time>2021-03-13T12:33:43Z</time>
      </trkpt>
      <trkpt lat="43.00974" lon="0.93129">
        <ele>656</ele>
        <time>2021-03-13T12:33:44Z</time>
      </trkpt>
      <trkpt lat="43.00972" lon="0.9313">
        <ele>656</ele>
        <time>2021-03-13T12:33:45Z</time>
      </trkpt>
      <trkpt lat="43.00969" lon="0.9313">
        <ele>656</ele>
        <time>2021-03-13T12:33:46Z</time>
      </trkpt>
      <trkpt lat="43.00967" lon="0.93131">
        <ele>656</ele>
        <time>2021-03-13T12:33:47Z</time>
      </trkpt>
      <trkpt lat="43.00965" lon="0.93131">
        <ele>656</ele>
        <time>2021-03-13T12:33:48Z</time>
      </trkpt>
      <trkpt lat="43.00962" lon="0.93132">
        <ele>656</ele>
        <time>2021-03-13T12:33:49Z</time>
      </trkpt>
      <trkpt lat="43.0096" lon="0.93132">
        <ele>659</ele>
        <time>2021-03-13T12:33:50Z</time>
      </trkpt>
      <trkpt lat="43.00958" lon="0.93133">
        <ele>659</ele>
        <time>2021-03-13T12:33:51Z</time>
      </trkpt>
      <trkpt lat="43.00955" lon="0.93134">
        <ele>659</ele>
        <time>2021-03-13T12:33:52Z</time>
      </trkpt>
      <trkpt lat="43.00953" lon="0.93135">
        <ele>659</ele>
        <time>2021-03-13T12:33:53Z</time>
      </trkpt>
      <trkpt lat="43.00951" lon="0.93136">
        <ele>659</ele>
        <time>2021-03-13T12:33:54Z</time>
      </trkpt>
      <trkpt lat="43.00946" lon="0.9314">
        <ele>659</ele>
        <time>2021-03-13T12:33:55Z</time>
      </trkpt>
      <trkpt lat="43.00946" lon="0.9314">
        <ele>659</ele>
        <time>2021-03-13T12:33:56Z</time>
      </trkpt>
      <trkpt lat="43.00944" lon="0.93141">
        <ele>659</ele>
        <time>2021-03-13T12:33:57Z</time>
      </trkpt>
      <trkpt lat="43.00941" lon="0.93143">
        <ele>659</ele>
        <time>2021-03-13T12:33:58Z</time>
      </trkpt>
      <trkpt lat="43.00939" lon="0.93144">
        <ele>659</ele>
        <time>2021-03-13T12:33:59Z</time>
      </trkpt>
      <trkpt lat="43.00937" lon="0.93146">
        <ele>659</ele>
        <time>2021-03-13T12:34:00Z</time>
      </trkpt>
      <trkpt lat="43.00934" lon="0.93148">
        <ele>659</ele>
        <time>2021-03-13T12:34:01Z</time>
      </trkpt>
      <trkpt lat="43.00932" lon="0.93149">
        <ele>659</ele>
        <time>2021-03-13T12:34:02Z</time>
      </trkpt>
      <trkpt lat="43.00927" lon="0.93154">
        <ele>659</ele>
        <time>2021-03-13T12:34:03Z</time>
      </trkpt>
      <trkpt lat="43.00927" lon="0.93154">
        <ele>659</ele>
        <time>2021-03-13T12:34:04Z</time>
      </trkpt>
      <trkpt lat="43.00922" lon="0.9316">
        <ele>659</ele>
        <time>2021-03-13T12:34:05Z</time>
      </trkpt>
      <trkpt lat="43.00922" lon="0.9316">
        <ele>659</ele>
        <time>2021-03-13T12:34:06Z</time>
      </trkpt>
      <trkpt lat="43.00915" lon="0.93165">
        <ele>659</ele>
        <time>2021-03-13T12:34:07Z</time>
      </trkpt>
      <trkpt lat="43.00915" lon="0.93165">
        <ele>659</ele>
        <time>2021-03-13T12:34:08Z</time>
      </trkpt>
      <trkpt lat="43.00907" lon="0.93169">
        <ele>659</ele>
        <time>2021-03-13T12:34:09Z</time>
      </trkpt>
      <trkpt lat="43.00907" lon="0.93169">
        <ele>659</ele>
        <time>2021-03-13T12:34:10Z</time>
      </trkpt>
      <trkpt lat="43.009" lon="0.93172">
        <ele>659</ele>
        <time>2021-03-13T12:34:11Z</time>
      </trkpt>
      <trkpt lat="43.009" lon="0.93172">
        <ele>659</ele>
        <time>2021-03-13T12:34:12Z</time>
      </trkpt>
      <trkpt lat="43.00893" lon="0.93174">
        <ele>659</ele>
        <time>2021-03-13T12:34:13Z</time>
      </trkpt>
      <trkpt lat="43.00893" lon="0.93174">
        <ele>659</ele>
        <time>2021-03-13T12:34:14Z</time>
      </trkpt>
      <trkpt lat="43.00887" lon="0.93175">
        <ele>659</ele>
        <time>2021-03-13T12:34:15Z</time>
      </trkpt>
      <trkpt lat="43.00887" lon="0.93175">
        <ele>659</ele>
        <time>2021-03-13T12:34:16Z</time>
      </trkpt>
      <trkpt lat="43.0088" lon="0.93176">
        <ele>659</ele>
        <time>2021-03-13T12:34:17Z</time>
      </trkpt>
      <trkpt lat="43.0088" lon="0.93176">
        <ele>659</ele>
        <time>2021-03-13T12:34:18Z</time>
      </trkpt>
      <trkpt lat="43.00871" lon="0.93172">
        <ele>659</ele>
        <time>2021-03-13T12:34:19Z</time>
      </trkpt>
      <trkpt lat="43.00869" lon="0.93171">
        <ele>654</ele>
        <time>2021-03-13T12:34:20Z</time>
      </trkpt>
      <trkpt lat="43.00869" lon="0.93171">
        <ele>654</ele>
        <time>2021-03-13T12:34:21Z</time>
      </trkpt>
      <trkpt lat="43.00864" lon="0.93169">
        <ele>654</ele>
        <time>2021-03-13T12:34:22Z</time>
      </trkpt>
      <trkpt lat="43.00864" lon="0.93169">
        <ele>654</ele>
        <time>2021-03-13T12:34:23Z</time>
      </trkpt>
      <trkpt lat="43.00859" lon="0.93166">
        <ele>654</ele>
        <time>2021-03-13T12:34:24Z</time>
      </trkpt>
      <trkpt lat="43.00859" lon="0.93166">
        <ele>652</ele>
        <time>2021-03-13T12:34:25Z</time>
      </trkpt>
      <trkpt lat="43.00855" lon="0.93163">
        <ele>652</ele>
        <time>2021-03-13T12:34:26Z</time>
      </trkpt>
      <trkpt lat="43.00855" lon="0.93163">
        <ele>652</ele>
        <time>2021-03-13T12:34:27Z</time>
      </trkpt>
      <trkpt lat="43.00851" lon="0.9316">
        <ele>652</ele>
        <time>2021-03-13T12:34:28Z</time>
      </trkpt>
      <trkpt lat="43.00851" lon="0.9316">
        <ele>652</ele>
        <time>2021-03-13T12:34:29Z</time>
      </trkpt>
      <trkpt lat="43.00846" lon="0.93154">
        <ele>652</ele>
        <time>2021-03-13T12:34:30Z</time>
      </trkpt>
      <trkpt lat="43.00845" lon="0.93153">
        <ele>652</ele>
        <time>2021-03-13T12:34:31Z</time>
      </trkpt>
      <trkpt lat="43.00843" lon="0.9315">
        <ele>652</ele>
        <time>2021-03-13T12:34:32Z</time>
      </trkpt>
      <trkpt lat="43.0084" lon="0.93147">
        <ele>652</ele>
        <time>2021-03-13T12:34:33Z</time>
      </trkpt>
      <trkpt lat="43.00838" lon="0.93143">
        <ele>652</ele>
        <time>2021-03-13T12:34:34Z</time>
      </trkpt>
      <trkpt lat="43.00835" lon="0.9314">
        <ele>652</ele>
        <time>2021-03-13T12:34:35Z</time>
      </trkpt>
      <trkpt lat="43.00832" lon="0.93136">
        <ele>652</ele>
        <time>2021-03-13T12:34:36Z</time>
      </trkpt>
      <trkpt lat="43.00829" lon="0.93131">
        <ele>652</ele>
        <time>2021-03-13T12:34:37Z</time>
      </trkpt>
      <trkpt lat="43.00824" lon="0.93127">
        <ele>652</ele>
        <time>2021-03-13T12:34:38Z</time>
      </trkpt>
      <trkpt lat="43.0082" lon="0.93121">
        <ele>652</ele>
        <time>2021-03-13T12:34:39Z</time>
      </trkpt>
      <trkpt lat="43.0082" lon="0.93121">
        <ele>650</ele>
        <time>2021-03-13T12:34:40Z</time>
      </trkpt>
      <trkpt lat="43.0081" lon="0.9311">
        <ele>650</ele>
        <time>2021-03-13T12:34:41Z</time>
      </trkpt>
      <trkpt lat="43.00808" lon="0.93108">
        <ele>650</ele>
        <time>2021-03-13T12:34:42Z</time>
      </trkpt>
      <trkpt lat="43.00804" lon="0.93106">
        <ele>650</ele>
        <time>2021-03-13T12:34:43Z</time>
      </trkpt>
      <trkpt lat="43.00804" lon="0.93106">
        <ele>650</ele>
        <time>2021-03-13T12:34:44Z</time>
      </trkpt>
      <trkpt lat="43.00797" lon="0.93103">
        <ele>650</ele>
        <time>2021-03-13T12:34:45Z</time>
      </trkpt>
      <trkpt lat="43.00797" lon="0.93103">
        <ele>650</ele>
        <time>2021-03-13T12:34:46Z</time>
      </trkpt>
      <trkpt lat="43.00791" lon="0.93098">
        <ele>650</ele>
        <time>2021-03-13T12:34:47Z</time>
      </trkpt>
      <trkpt lat="43.00791" lon="0.93098">
        <ele>650</ele>
        <time>2021-03-13T12:34:48Z</time>
      </trkpt>
      <trkpt lat="43.00784" lon="0.93094">
        <ele>650</ele>
        <time>2021-03-13T12:34:49Z</time>
      </trkpt>
      <trkpt lat="43.00784" lon="0.93094">
        <ele>651</ele>
        <time>2021-03-13T12:34:50Z</time>
      </trkpt>
      <trkpt lat="43.00778" lon="0.9309">
        <ele>651</ele>
        <time>2021-03-13T12:34:51Z</time>
      </trkpt>
      <trkpt lat="43.00778" lon="0.9309">
        <ele>651</ele>
        <time>2021-03-13T12:34:52Z</time>
      </trkpt>
      <trkpt lat="43.00771" lon="0.93084">
        <ele>651</ele>
        <time>2021-03-13T12:34:53Z</time>
      </trkpt>
      <trkpt lat="43.00771" lon="0.93084">
        <ele>651</ele>
        <time>2021-03-13T12:34:54Z</time>
      </trkpt>
      <trkpt lat="43.00764" lon="0.93077">
        <ele>651</ele>
        <time>2021-03-13T12:34:55Z</time>
      </trkpt>
      <trkpt lat="43.00764" lon="0.93077">
        <ele>651</ele>
        <time>2021-03-13T12:34:56Z</time>
      </trkpt>
      <trkpt lat="43.0076" lon="0.93065">
        <ele>651</ele>
        <time>2021-03-13T12:34:57Z</time>
      </trkpt>
      <trkpt lat="43.0076" lon="0.93065">
        <ele>651</ele>
        <time>2021-03-13T12:34:58Z</time>
      </trkpt>
      <trkpt lat="43.00758" lon="0.93052">
        <ele>651</ele>
        <time>2021-03-13T12:34:59Z</time>
      </trkpt>
      <trkpt lat="43.00758" lon="0.93052">
        <ele>649</ele>
        <time>2021-03-13T12:35:00Z</time>
      </trkpt>
      <trkpt lat="43.00756" lon="0.93041">
        <ele>649</ele>
        <time>2021-03-13T12:35:01Z</time>
      </trkpt>
      <trkpt lat="43.00756" lon="0.93041">
        <ele>649</ele>
        <time>2021-03-13T12:35:02Z</time>
      </trkpt>
      <trkpt lat="43.00754" lon="0.9303">
        <ele>649</ele>
        <time>2021-03-13T12:35:03Z</time>
      </trkpt>
      <trkpt lat="43.00754" lon="0.9303">
        <ele>649</ele>
        <time>2021-03-13T12:35:04Z</time>
      </trkpt>
      <trkpt lat="43.00752" lon="0.9302">
        <ele>649</ele>
        <time>2021-03-13T12:35:05Z</time>
      </trkpt>
      <trkpt lat="43.00752" lon="0.9302">
        <ele>649</ele>
        <time>2021-03-13T12:35:06Z</time>
      </trkpt>
      <trkpt lat="43.00749" lon="0.93011">
        <ele>649</ele>
        <time>2021-03-13T12:35:07Z</time>
      </trkpt>
      <trkpt lat="43.00749" lon="0.93011">
        <ele>649</ele>
        <time>2021-03-13T12:35:08Z</time>
      </trkpt>
      <trkpt lat="43.00746" lon="0.93004">
        <ele>649</ele>
        <time>2021-03-13T12:35:09Z</time>
      </trkpt>
      <trkpt lat="43.00746" lon="0.93004">
        <ele>649</ele>
        <time>2021-03-13T12:35:10Z</time>
      </trkpt>
      <trkpt lat="43.00742" lon="0.92997">
        <ele>649</ele>
        <time>2021-03-13T12:35:11Z</time>
      </trkpt>
      <trkpt lat="43.00742" lon="0.92997">
        <ele>649</ele>
        <time>2021-03-13T12:35:12Z</time>
      </trkpt>
      <trkpt lat="43.00738" lon="0.92991">
        <ele>649</ele>
        <time>2021-03-13T12:35:13Z</time>
      </trkpt>
      <trkpt lat="43.00738" lon="0.92991">
        <ele>649</ele>
        <time>2021-03-13T12:35:14Z</time>
      </trkpt>
      <trkpt lat="43.00734" lon="0.92986">
        <ele>649</ele>
        <time>2021-03-13T12:35:15Z</time>
      </trkpt>
      <trkpt lat="43.00734" lon="0.92986">
        <ele>649</ele>
        <time>2021-03-13T12:35:16Z</time>
      </trkpt>
      <trkpt lat="43.00732" lon="0.92984">
        <ele>649</ele>
        <time>2021-03-13T12:35:17Z</time>
      </trkpt>
      <trkpt lat="43.0073" lon="0.92982">
        <ele>649</ele>
        <time>2021-03-13T12:35:18Z</time>
      </trkpt>
      <trkpt lat="43.00728" lon="0.92981">
        <ele>649</ele>
        <time>2021-03-13T12:35:19Z</time>
      </trkpt>
      <trkpt lat="43.00723" lon="0.92978">
        <ele>651</ele>
        <time>2021-03-13T12:35:20Z</time>
      </trkpt>
      <trkpt lat="43.00723" lon="0.92978">
        <ele>651</ele>
        <time>2021-03-13T12:35:21Z</time>
      </trkpt>
      <trkpt lat="43.00721" lon="0.92977">
        <ele>651</ele>
        <time>2021-03-13T12:35:22Z</time>
      </trkpt>
      <trkpt lat="43.00718" lon="0.92976">
        <ele>651</ele>
        <time>2021-03-13T12:35:23Z</time>
      </trkpt>
      <trkpt lat="43.00716" lon="0.92975">
        <ele>651</ele>
        <time>2021-03-13T12:35:24Z</time>
      </trkpt>
      <trkpt lat="43.00714" lon="0.92975">
        <ele>651</ele>
        <time>2021-03-13T12:35:25Z</time>
      </trkpt>
      <trkpt lat="43.00712" lon="0.92975">
        <ele>651</ele>
        <time>2021-03-13T12:35:26Z</time>
      </trkpt>
      <trkpt lat="43.00709" lon="0.92974">
        <ele>651</ele>
        <time>2021-03-13T12:35:27Z</time>
      </trkpt>
      <trkpt lat="43.00707" lon="0.92974">
        <ele>651</ele>
        <time>2021-03-13T12:35:28Z</time>
      </trkpt>
      <trkpt lat="43.00705" lon="0.92974">
        <ele>651</ele>
        <time>2021-03-13T12:35:29Z</time>
      </trkpt>
      <trkpt lat="43.00703" lon="0.92973">
        <ele>654</ele>
        <time>2021-03-13T12:35:30Z</time>
      </trkpt>
      <trkpt lat="43.00701" lon="0.92973">
        <ele>654</ele>
        <time>2021-03-13T12:35:31Z</time>
      </trkpt>
      <trkpt lat="43.00699" lon="0.92972">
        <ele>654</ele>
        <time>2021-03-13T12:35:32Z</time>
      </trkpt>
      <trkpt lat="43.00696" lon="0.92971">
        <ele>654</ele>
        <time>2021-03-13T12:35:33Z</time>
      </trkpt>
      <trkpt lat="43.00695" lon="0.92969">
        <ele>654</ele>
        <time>2021-03-13T12:35:34Z</time>
      </trkpt>
      <trkpt lat="43.00694" lon="0.92967">
        <ele>656</ele>
        <time>2021-03-13T12:35:35Z</time>
      </trkpt>
      <trkpt lat="43.00693" lon="0.92965">
        <ele>656</ele>
        <time>2021-03-13T12:35:36Z</time>
      </trkpt>
      <trkpt lat="43.00692" lon="0.92963">
        <ele>656</ele>
        <time>2021-03-13T12:35:37Z</time>
      </trkpt>
      <trkpt lat="43.00692" lon="0.92961">
        <ele>656</ele>
        <time>2021-03-13T12:35:38Z</time>
      </trkpt>
      <trkpt lat="43.00691" lon="0.9296">
        <ele>656</ele>
        <time>2021-03-13T12:35:39Z</time>
      </trkpt>
      <trkpt lat="43.00691" lon="0.92958">
        <ele>658</ele>
        <time>2021-03-13T12:35:40Z</time>
      </trkpt>
      <trkpt lat="43.0069" lon="0.92957">
        <ele>658</ele>
        <time>2021-03-13T12:35:41Z</time>
      </trkpt>
      <trkpt lat="43.00689" lon="0.92955">
        <ele>658</ele>
        <time>2021-03-13T12:35:42Z</time>
      </trkpt>
      <trkpt lat="43.00689" lon="0.92953">
        <ele>658</ele>
        <time>2021-03-13T12:35:43Z</time>
      </trkpt>
      <trkpt lat="43.00689" lon="0.92951">
        <ele>658</ele>
        <time>2021-03-13T12:35:44Z</time>
      </trkpt>
      <trkpt lat="43.00689" lon="0.92948">
        <ele>660</ele>
        <time>2021-03-13T12:35:45Z</time>
      </trkpt>
      <trkpt lat="43.00689" lon="0.92946">
        <ele>660</ele>
        <time>2021-03-13T12:35:46Z</time>
      </trkpt>
      <trkpt lat="43.00689" lon="0.92943">
        <ele>660</ele>
        <time>2021-03-13T12:35:47Z</time>
      </trkpt>
      <trkpt lat="43.00689" lon="0.9294">
        <ele>660</ele>
        <time>2021-03-13T12:35:48Z</time>
      </trkpt>
      <trkpt lat="43.00689" lon="0.92937">
        <ele>660</ele>
        <time>2021-03-13T12:35:49Z</time>
      </trkpt>
      <trkpt lat="43.00689" lon="0.92934">
        <ele>661</ele>
        <time>2021-03-13T12:35:50Z</time>
      </trkpt>
      <trkpt lat="43.00689" lon="0.92932">
        <ele>661</ele>
        <time>2021-03-13T12:35:51Z</time>
      </trkpt>
      <trkpt lat="43.00688" lon="0.92929">
        <ele>661</ele>
        <time>2021-03-13T12:35:52Z</time>
      </trkpt>
      <trkpt lat="43.00688" lon="0.92927">
        <ele>661</ele>
        <time>2021-03-13T12:35:53Z</time>
      </trkpt>
      <trkpt lat="43.00688" lon="0.92925">
        <ele>661</ele>
        <time>2021-03-13T12:35:54Z</time>
      </trkpt>
      <trkpt lat="43.00688" lon="0.92923">
        <ele>662</ele>
        <time>2021-03-13T12:35:55Z</time>
      </trkpt>
      <trkpt lat="43.00688" lon="0.92921">
        <ele>662</ele>
        <time>2021-03-13T12:35:56Z</time>
      </trkpt>
      <trkpt lat="43.00688" lon="0.92919">
        <ele>662</ele>
        <time>2021-03-13T12:35:57Z</time>
      </trkpt>
      <trkpt lat="43.00687" lon="0.92916">
        <ele>662</ele>
        <time>2021-03-13T12:35:58Z</time>
      </trkpt>
      <trkpt lat="43.00687" lon="0.92914">
        <ele>662</ele>
        <time>2021-03-13T12:35:59Z</time>
      </trkpt>
      <trkpt lat="43.00687" lon="0.92912">
        <ele>664</ele>
        <time>2021-03-13T12:36:00Z</time>
      </trkpt>
      <trkpt lat="43.00686" lon="0.9291">
        <ele>664</ele>
        <time>2021-03-13T12:36:01Z</time>
      </trkpt>
      <trkpt lat="43.00686" lon="0.92908">
        <ele>664</ele>
        <time>2021-03-13T12:36:02Z</time>
      </trkpt>
      <trkpt lat="43.00686" lon="0.92906">
        <ele>664</ele>
        <time>2021-03-13T12:36:03Z</time>
      </trkpt>
      <trkpt lat="43.00686" lon="0.92904">
        <ele>664</ele>
        <time>2021-03-13T12:36:04Z</time>
      </trkpt>
      <trkpt lat="43.00686" lon="0.92902">
        <ele>666</ele>
        <time>2021-03-13T12:36:05Z</time>
      </trkpt>
      <trkpt lat="43.00685" lon="0.929">
        <ele>666</ele>
        <time>2021-03-13T12:36:06Z</time>
      </trkpt>
      <trkpt lat="43.00685" lon="0.92898">
        <ele>666</ele>
        <time>2021-03-13T12:36:07Z</time>
      </trkpt>
      <trkpt lat="43.00685" lon="0.92896">
        <ele>666</ele>
        <time>2021-03-13T12:36:08Z</time>
      </trkpt>
      <trkpt lat="43.00685" lon="0.92894">
        <ele>666</ele>
        <time>2021-03-13T12:36:09Z</time>
      </trkpt>
      <trkpt lat="43.00685" lon="0.92892">
        <ele>669</ele>
        <time>2021-03-13T12:36:10Z</time>
      </trkpt>
      <trkpt lat="43.00685" lon="0.92889">
        <ele>669</ele>
        <time>2021-03-13T12:36:11Z</time>
      </trkpt>
      <trkpt lat="43.00685" lon="0.92887">
        <ele>669</ele>
        <time>2021-03-13T12:36:12Z</time>
      </trkpt>
      <trkpt lat="43.00685" lon="0.92885">
        <ele>669</ele>
        <time>2021-03-13T12:36:13Z</time>
      </trkpt>
      <trkpt lat="43.00685" lon="0.92883">
        <ele>669</ele>
        <time>2021-03-13T12:36:14Z</time>
      </trkpt>
      <trkpt lat="43.00685" lon="0.92881">
        <ele>669</ele>
        <time>2021-03-13T12:36:15Z</time>
      </trkpt>
      <trkpt lat="43.00685" lon="0.92879">
        <ele>669</ele>
        <time>2021-03-13T12:36:16Z</time>
      </trkpt>
      <trkpt lat="43.00685" lon="0.92877">
        <ele>669</ele>
        <time>2021-03-13T12:36:17Z</time>
      </trkpt>
      <trkpt lat="43.00685" lon="0.92875">
        <ele>669</ele>
        <time>2021-03-13T12:36:18Z</time>
      </trkpt>
      <trkpt lat="43.00685" lon="0.92873">
        <ele>669</ele>
        <time>2021-03-13T12:36:19Z</time>
      </trkpt>
      <trkpt lat="43.00685" lon="0.92871">
        <ele>671</ele>
        <time>2021-03-13T12:36:20Z</time>
      </trkpt>
      <trkpt lat="43.00684" lon="0.92869">
        <ele>671</ele>
        <time>2021-03-13T12:36:21Z</time>
      </trkpt>
      <trkpt lat="43.00684" lon="0.92867">
        <ele>671</ele>
        <time>2021-03-13T12:36:22Z</time>
      </trkpt>
      <trkpt lat="43.00684" lon="0.92865">
        <ele>671</ele>
        <time>2021-03-13T12:36:23Z</time>
      </trkpt>
      <trkpt lat="43.00684" lon="0.92863">
        <ele>671</ele>
        <time>2021-03-13T12:36:24Z</time>
      </trkpt>
      <trkpt lat="43.00683" lon="0.92861">
        <ele>672</ele>
        <time>2021-03-13T12:36:25Z</time>
      </trkpt>
      <trkpt lat="43.00683" lon="0.92859">
        <ele>672</ele>
        <time>2021-03-13T12:36:26Z</time>
      </trkpt>
      <trkpt lat="43.00682" lon="0.92858">
        <ele>672</ele>
        <time>2021-03-13T12:36:27Z</time>
      </trkpt>
      <trkpt lat="43.00681" lon="0.92857">
        <ele>672</ele>
        <time>2021-03-13T12:36:28Z</time>
      </trkpt>
      <trkpt lat="43.00679" lon="0.92856">
        <ele>672</ele>
        <time>2021-03-13T12:36:29Z</time>
      </trkpt>
      <trkpt lat="43.00678" lon="0.92855">
        <ele>674</ele>
        <time>2021-03-13T12:36:30Z</time>
      </trkpt>
      <trkpt lat="43.00677" lon="0.92854">
        <ele>674</ele>
        <time>2021-03-13T12:36:31Z</time>
      </trkpt>
      <trkpt lat="43.00677" lon="0.92853">
        <ele>674</ele>
        <time>2021-03-13T12:36:32Z</time>
      </trkpt>
      <trkpt lat="43.00677" lon="0.92852">
        <ele>674</ele>
        <time>2021-03-13T12:36:33Z</time>
      </trkpt>
      <trkpt lat="43.00676" lon="0.92852">
        <ele>674</ele>
        <time>2021-03-13T12:36:34Z</time>
      </trkpt>
      <trkpt lat="43.00676" lon="0.92851">
        <ele>675</ele>
        <time>2021-03-13T12:36:35Z</time>
      </trkpt>
      <trkpt lat="43.00676" lon="0.9285">
        <ele>675</ele>
        <time>2021-03-13T12:36:36Z</time>
      </trkpt>
      <trkpt lat="43.00676" lon="0.9285">
        <ele>675</ele>
        <time>2021-03-13T12:36:37Z</time>
      </trkpt>
      <trkpt lat="43.00675" lon="0.92849">
        <ele>675</ele>
        <time>2021-03-13T12:36:38Z</time>
      </trkpt>
      <trkpt lat="43.00675" lon="0.92848">
        <ele>675</ele>
        <time>2021-03-13T12:36:39Z</time>
      </trkpt>
      <trkpt lat="43.00675" lon="0.92848">
        <ele>676</ele>
        <time>2021-03-13T12:36:40Z</time>
      </trkpt>
      <trkpt lat="43.00674" lon="0.92847">
        <ele>676</ele>
        <time>2021-03-13T12:36:41Z</time>
      </trkpt>
      <trkpt lat="43.00674" lon="0.92846">
        <ele>676</ele>
        <time>2021-03-13T12:36:42Z</time>
      </trkpt>
      <trkpt lat="43.00673" lon="0.92846">
        <ele>676</ele>
        <time>2021-03-13T12:36:43Z</time>
      </trkpt>
      <trkpt lat="43.00673" lon="0.92846">
        <ele>676</ele>
        <time>2021-03-13T12:36:44Z</time>
      </trkpt>
      <trkpt lat="43.00672" lon="0.92846">
        <ele>676</ele>
        <time>2021-03-13T12:36:45Z</time>
      </trkpt>
      <trkpt lat="43.00672" lon="0.92845">
        <ele>676</ele>
        <time>2021-03-13T12:36:46Z</time>
      </trkpt>
      <trkpt lat="43.00671" lon="0.92845">
        <ele>676</ele>
        <time>2021-03-13T12:36:47Z</time>
      </trkpt>
      <trkpt lat="43.00671" lon="0.92845">
        <ele>676</ele>
        <time>2021-03-13T12:36:48Z</time>
      </trkpt>
      <trkpt lat="43.0067" lon="0.92845">
        <ele>676</ele>
        <time>2021-03-13T12:36:49Z</time>
      </trkpt>
      <trkpt lat="43.0067" lon="0.92845">
        <ele>676</ele>
        <time>2021-03-13T12:36:50Z</time>
      </trkpt>
      <trkpt lat="43.00669" lon="0.92845">
        <ele>676</ele>
        <time>2021-03-13T12:36:51Z</time>
      </trkpt>
      <trkpt lat="43.00668" lon="0.92844">
        <ele>676</ele>
        <time>2021-03-13T12:36:52Z</time>
      </trkpt>
      <trkpt lat="43.00667" lon="0.92843">
        <ele>676</ele>
        <time>2021-03-13T12:36:53Z</time>
      </trkpt>
      <trkpt lat="43.00666" lon="0.92842">
        <ele>676</ele>
        <time>2021-03-13T12:36:54Z</time>
      </trkpt>
      <trkpt lat="43.00665" lon="0.92842">
        <ele>676</ele>
        <time>2021-03-13T12:36:55Z</time>
      </trkpt>
      <trkpt lat="43.00664" lon="0.92841">
        <ele>676</ele>
        <time>2021-03-13T12:36:56Z</time>
      </trkpt>
      <trkpt lat="43.00663" lon="0.9284">
        <ele>676</ele>
        <time>2021-03-13T12:36:57Z</time>
      </trkpt>
      <trkpt lat="43.00662" lon="0.92838">
        <ele>676</ele>
        <time>2021-03-13T12:36:58Z</time>
      </trkpt>
      <trkpt lat="43.00661" lon="0.92837">
        <ele>676</ele>
        <time>2021-03-13T12:36:59Z</time>
      </trkpt>
      <trkpt lat="43.0066" lon="0.92836">
        <ele>678</ele>
        <time>2021-03-13T12:37:00Z</time>
      </trkpt>
      <trkpt lat="43.00659" lon="0.92834">
        <ele>678</ele>
        <time>2021-03-13T12:37:01Z</time>
      </trkpt>
      <trkpt lat="43.00658" lon="0.92833">
        <ele>678</ele>
        <time>2021-03-13T12:37:02Z</time>
      </trkpt>
      <trkpt lat="43.00657" lon="0.92831">
        <ele>678</ele>
        <time>2021-03-13T12:37:03Z</time>
      </trkpt>
      <trkpt lat="43.00656" lon="0.92829">
        <ele>678</ele>
        <time>2021-03-13T12:37:04Z</time>
      </trkpt>
      <trkpt lat="43.00655" lon="0.92828">
        <ele>678</ele>
        <time>2021-03-13T12:37:05Z</time>
      </trkpt>
      <trkpt lat="43.00654" lon="0.92827">
        <ele>678</ele>
        <time>2021-03-13T12:37:06Z</time>
      </trkpt>
      <trkpt lat="43.00653" lon="0.92825">
        <ele>678</ele>
        <time>2021-03-13T12:37:07Z</time>
      </trkpt>
      <trkpt lat="43.00651" lon="0.92824">
        <ele>678</ele>
        <time>2021-03-13T12:37:08Z</time>
      </trkpt>
      <trkpt lat="43.0065" lon="0.92823">
        <ele>678</ele>
        <time>2021-03-13T12:37:09Z</time>
      </trkpt>
      <trkpt lat="43.00649" lon="0.92822">
        <ele>679</ele>
        <time>2021-03-13T12:37:10Z</time>
      </trkpt>
      <trkpt lat="43.00648" lon="0.92821">
        <ele>679</ele>
        <time>2021-03-13T12:37:11Z</time>
      </trkpt>
      <trkpt lat="43.00646" lon="0.92819">
        <ele>679</ele>
        <time>2021-03-13T12:37:12Z</time>
      </trkpt>
      <trkpt lat="43.00645" lon="0.92818">
        <ele>679</ele>
        <time>2021-03-13T12:37:13Z</time>
      </trkpt>
      <trkpt lat="43.00644" lon="0.92817">
        <ele>679</ele>
        <time>2021-03-13T12:37:14Z</time>
      </trkpt>
      <trkpt lat="43.00643" lon="0.92816">
        <ele>679</ele>
        <time>2021-03-13T12:37:15Z</time>
      </trkpt>
      <trkpt lat="43.00642" lon="0.92814">
        <ele>679</ele>
        <time>2021-03-13T12:37:16Z</time>
      </trkpt>
      <trkpt lat="43.0064" lon="0.92813">
        <ele>679</ele>
        <time>2021-03-13T12:37:17Z</time>
      </trkpt>
      <trkpt lat="43.00639" lon="0.92811">
        <ele>679</ele>
        <time>2021-03-13T12:37:18Z</time>
      </trkpt>
      <trkpt lat="43.00637" lon="0.9281">
        <ele>679</ele>
        <time>2021-03-13T12:37:19Z</time>
      </trkpt>
      <trkpt lat="43.00636" lon="0.92808">
        <ele>682</ele>
        <time>2021-03-13T12:37:20Z</time>
      </trkpt>
      <trkpt lat="43.00634" lon="0.92807">
        <ele>682</ele>
        <time>2021-03-13T12:37:21Z</time>
      </trkpt>
      <trkpt lat="43.00632" lon="0.92806">
        <ele>682</ele>
        <time>2021-03-13T12:37:22Z</time>
      </trkpt>
      <trkpt lat="43.00631" lon="0.92805">
        <ele>682</ele>
        <time>2021-03-13T12:37:23Z</time>
      </trkpt>
      <trkpt lat="43.0063" lon="0.92803">
        <ele>682</ele>
        <time>2021-03-13T12:37:24Z</time>
      </trkpt>
      <trkpt lat="43.00629" lon="0.92802">
        <ele>684</ele>
        <time>2021-03-13T12:37:25Z</time>
      </trkpt>
      <trkpt lat="43.00628" lon="0.92801">
        <ele>684</ele>
        <time>2021-03-13T12:37:26Z</time>
      </trkpt>
      <trkpt lat="43.00627" lon="0.92799">
        <ele>684</ele>
        <time>2021-03-13T12:37:27Z</time>
      </trkpt>
      <trkpt lat="43.00625" lon="0.92798">
        <ele>684</ele>
        <time>2021-03-13T12:37:28Z</time>
      </trkpt>
      <trkpt lat="43.00624" lon="0.92797">
        <ele>684</ele>
        <time>2021-03-13T12:37:29Z</time>
      </trkpt>
      <trkpt lat="43.00622" lon="0.92796">
        <ele>686</ele>
        <time>2021-03-13T12:37:30Z</time>
      </trkpt>
      <trkpt lat="43.00621" lon="0.92795">
        <ele>686</ele>
        <time>2021-03-13T12:37:31Z</time>
      </trkpt>
      <trkpt lat="43.00619" lon="0.92794">
        <ele>686</ele>
        <time>2021-03-13T12:37:32Z</time>
      </trkpt>
      <trkpt lat="43.00618" lon="0.92793">
        <ele>686</ele>
        <time>2021-03-13T12:37:33Z</time>
      </trkpt>
      <trkpt lat="43.00617" lon="0.92793">
        <ele>686</ele>
        <time>2021-03-13T12:37:34Z</time>
      </trkpt>
      <trkpt lat="43.00616" lon="0.92792">
        <ele>687</ele>
        <time>2021-03-13T12:37:35Z</time>
      </trkpt>
      <trkpt lat="43.00614" lon="0.92791">
        <ele>687</ele>
        <time>2021-03-13T12:37:36Z</time>
      </trkpt>
      <trkpt lat="43.00612" lon="0.92791">
        <ele>687</ele>
        <time>2021-03-13T12:37:37Z</time>
      </trkpt>
      <trkpt lat="43.00611" lon="0.92791">
        <ele>687</ele>
        <time>2021-03-13T12:37:38Z</time>
      </trkpt>
      <trkpt lat="43.00609" lon="0.9279">
        <ele>687</ele>
        <time>2021-03-13T12:37:39Z</time>
      </trkpt>
      <trkpt lat="43.00607" lon="0.9279">
        <ele>688</ele>
        <time>2021-03-13T12:37:40Z</time>
      </trkpt>
      <trkpt lat="43.00605" lon="0.92789">
        <ele>688</ele>
        <time>2021-03-13T12:37:41Z</time>
      </trkpt>
      <trkpt lat="43.00603" lon="0.92789">
        <ele>688</ele>
        <time>2021-03-13T12:37:42Z</time>
      </trkpt>
      <trkpt lat="43.00601" lon="0.92788">
        <ele>688</ele>
        <time>2021-03-13T12:37:43Z</time>
      </trkpt>
      <trkpt lat="43.00599" lon="0.92787">
        <ele>688</ele>
        <time>2021-03-13T12:37:44Z</time>
      </trkpt>
      <trkpt lat="43.00598" lon="0.92786">
        <ele>690</ele>
        <time>2021-03-13T12:37:45Z</time>
      </trkpt>
      <trkpt lat="43.00596" lon="0.92785">
        <ele>690</ele>
        <time>2021-03-13T12:37:46Z</time>
      </trkpt>
      <trkpt lat="43.00594" lon="0.92784">
        <ele>690</ele>
        <time>2021-03-13T12:37:47Z</time>
      </trkpt>
      <trkpt lat="43.00592" lon="0.92783">
        <ele>690</ele>
        <time>2021-03-13T12:37:48Z</time>
      </trkpt>
      <trkpt lat="43.00591" lon="0.92782">
        <ele>690</ele>
        <time>2021-03-13T12:37:49Z</time>
      </trkpt>
      <trkpt lat="43.00589" lon="0.9278">
        <ele>690</ele>
        <time>2021-03-13T12:37:50Z</time>
      </trkpt>
      <trkpt lat="43.00588" lon="0.92779">
        <ele>690</ele>
        <time>2021-03-13T12:37:51Z</time>
      </trkpt>
      <trkpt lat="43.00587" lon="0.92778">
        <ele>690</ele>
        <time>2021-03-13T12:37:52Z</time>
      </trkpt>
      <trkpt lat="43.00586" lon="0.92777">
        <ele>690</ele>
        <time>2021-03-13T12:37:53Z</time>
      </trkpt>
      <trkpt lat="43.00585" lon="0.92775">
        <ele>690</ele>
        <time>2021-03-13T12:37:54Z</time>
      </trkpt>
      <trkpt lat="43.00584" lon="0.92773">
        <ele>690</ele>
        <time>2021-03-13T12:37:55Z</time>
      </trkpt>
      <trkpt lat="43.00583" lon="0.92771">
        <ele>690</ele>
        <time>2021-03-13T12:37:56Z</time>
      </trkpt>
      <trkpt lat="43.00583" lon="0.92769">
        <ele>690</ele>
        <time>2021-03-13T12:37:57Z</time>
      </trkpt>
      <trkpt lat="43.00582" lon="0.92767">
        <ele>690</ele>
        <time>2021-03-13T12:37:58Z</time>
      </trkpt>
      <trkpt lat="43.00581" lon="0.92765">
        <ele>690</ele>
        <time>2021-03-13T12:37:59Z</time>
      </trkpt>
      <trkpt lat="43.00579" lon="0.92763">
        <ele>694</ele>
        <time>2021-03-13T12:38:00Z</time>
      </trkpt>
      <trkpt lat="43.00578" lon="0.92761">
        <ele>693</ele>
        <time>2021-03-13T12:38:01Z</time>
      </trkpt>
      <trkpt lat="43.00578" lon="0.92759">
        <ele>693</ele>
        <time>2021-03-13T12:38:02Z</time>
      </trkpt>
      <trkpt lat="43.00577" lon="0.92758">
        <ele>693</ele>
        <time>2021-03-13T12:38:03Z</time>
      </trkpt>
      <trkpt lat="43.00576" lon="0.92756">
        <ele>693</ele>
        <time>2021-03-13T12:38:04Z</time>
      </trkpt>
      <trkpt lat="43.00575" lon="0.92755">
        <ele>693</ele>
        <time>2021-03-13T12:38:05Z</time>
      </trkpt>
      <trkpt lat="43.00574" lon="0.92753">
        <ele>693</ele>
        <time>2021-03-13T12:38:06Z</time>
      </trkpt>
      <trkpt lat="43.00573" lon="0.92752">
        <ele>693</ele>
        <time>2021-03-13T12:38:07Z</time>
      </trkpt>
      <trkpt lat="43.00572" lon="0.9275">
        <ele>693</ele>
        <time>2021-03-13T12:38:08Z</time>
      </trkpt>
      <trkpt lat="43.0057" lon="0.92748">
        <ele>693</ele>
        <time>2021-03-13T12:38:09Z</time>
      </trkpt>
      <trkpt lat="43.00569" lon="0.92746">
        <ele>694</ele>
        <time>2021-03-13T12:38:10Z</time>
      </trkpt>
      <trkpt lat="43.00567" lon="0.92744">
        <ele>694</ele>
        <time>2021-03-13T12:38:11Z</time>
      </trkpt>
      <trkpt lat="43.00565" lon="0.92742">
        <ele>694</ele>
        <time>2021-03-13T12:38:12Z</time>
      </trkpt>
      <trkpt lat="43.00563" lon="0.92741">
        <ele>694</ele>
        <time>2021-03-13T12:38:13Z</time>
      </trkpt>
      <trkpt lat="43.00562" lon="0.9274">
        <ele>694</ele>
        <time>2021-03-13T12:38:14Z</time>
      </trkpt>
      <trkpt lat="43.0056" lon="0.92739">
        <ele>694</ele>
        <time>2021-03-13T12:38:15Z</time>
      </trkpt>
      <trkpt lat="43.00559" lon="0.92738">
        <ele>694</ele>
        <time>2021-03-13T12:38:16Z</time>
      </trkpt>
      <trkpt lat="43.00557" lon="0.92737">
        <ele>694</ele>
        <time>2021-03-13T12:38:17Z</time>
      </trkpt>
      <trkpt lat="43.00556" lon="0.92738">
        <ele>694</ele>
        <time>2021-03-13T12:38:18Z</time>
      </trkpt>
      <trkpt lat="43.00555" lon="0.92739">
        <ele>694</ele>
        <time>2021-03-13T12:38:19Z</time>
      </trkpt>
      <trkpt lat="43.00554" lon="0.9274">
        <ele>696</ele>
        <time>2021-03-13T12:38:20Z</time>
      </trkpt>
      <trkpt lat="43.00552" lon="0.92741">
        <ele>696</ele>
        <time>2021-03-13T12:38:21Z</time>
      </trkpt>
      <trkpt lat="43.00551" lon="0.92742">
        <ele>696</ele>
        <time>2021-03-13T12:38:22Z</time>
      </trkpt>
      <trkpt lat="43.0055" lon="0.92743">
        <ele>696</ele>
        <time>2021-03-13T12:38:23Z</time>
      </trkpt>
      <trkpt lat="43.00548" lon="0.92744">
        <ele>696</ele>
        <time>2021-03-13T12:38:24Z</time>
      </trkpt>
      <trkpt lat="43.00547" lon="0.92745">
        <ele>696</ele>
        <time>2021-03-13T12:38:25Z</time>
      </trkpt>
      <trkpt lat="43.00546" lon="0.92746">
        <ele>696</ele>
        <time>2021-03-13T12:38:26Z</time>
      </trkpt>
      <trkpt lat="43.00545" lon="0.92747">
        <ele>696</ele>
        <time>2021-03-13T12:38:27Z</time>
      </trkpt>
      <trkpt lat="43.00543" lon="0.92748">
        <ele>696</ele>
        <time>2021-03-13T12:38:28Z</time>
      </trkpt>
      <trkpt lat="43.00542" lon="0.92749">
        <ele>696</ele>
        <time>2021-03-13T12:38:29Z</time>
      </trkpt>
      <trkpt lat="43.00541" lon="0.9275">
        <ele>698</ele>
        <time>2021-03-13T12:38:30Z</time>
      </trkpt>
      <trkpt lat="43.0054" lon="0.92751">
        <ele>698</ele>
        <time>2021-03-13T12:38:31Z</time>
      </trkpt>
      <trkpt lat="43.00538" lon="0.92753">
        <ele>698</ele>
        <time>2021-03-13T12:38:32Z</time>
      </trkpt>
      <trkpt lat="43.00537" lon="0.92754">
        <ele>698</ele>
        <time>2021-03-13T12:38:33Z</time>
      </trkpt>
      <trkpt lat="43.00536" lon="0.92756">
        <ele>698</ele>
        <time>2021-03-13T12:38:34Z</time>
      </trkpt>
      <trkpt lat="43.00535" lon="0.92758">
        <ele>698</ele>
        <time>2021-03-13T12:38:35Z</time>
      </trkpt>
      <trkpt lat="43.00534" lon="0.92759">
        <ele>698</ele>
        <time>2021-03-13T12:38:36Z</time>
      </trkpt>
      <trkpt lat="43.00532" lon="0.92761">
        <ele>698</ele>
        <time>2021-03-13T12:38:37Z</time>
      </trkpt>
      <trkpt lat="43.00531" lon="0.92762">
        <ele>698</ele>
        <time>2021-03-13T12:38:38Z</time>
      </trkpt>
      <trkpt lat="43.00529" lon="0.92764">
        <ele>698</ele>
        <time>2021-03-13T12:38:39Z</time>
      </trkpt>
      <trkpt lat="43.00528" lon="0.92766">
        <ele>699</ele>
        <time>2021-03-13T12:38:40Z</time>
      </trkpt>
      <trkpt lat="43.00526" lon="0.92767">
        <ele>699</ele>
        <time>2021-03-13T12:38:41Z</time>
      </trkpt>
      <trkpt lat="43.00525" lon="0.92768">
        <ele>699</ele>
        <time>2021-03-13T12:38:42Z</time>
      </trkpt>
      <trkpt lat="43.00524" lon="0.9277">
        <ele>699</ele>
        <time>2021-03-13T12:38:43Z</time>
      </trkpt>
      <trkpt lat="43.00522" lon="0.92771">
        <ele>699</ele>
        <time>2021-03-13T12:38:44Z</time>
      </trkpt>
      <trkpt lat="43.00521" lon="0.92772">
        <ele>699</ele>
        <time>2021-03-13T12:38:45Z</time>
      </trkpt>
      <trkpt lat="43.00519" lon="0.92774">
        <ele>699</ele>
        <time>2021-03-13T12:38:46Z</time>
      </trkpt>
      <trkpt lat="43.00517" lon="0.92775">
        <ele>699</ele>
        <time>2021-03-13T12:38:47Z</time>
      </trkpt>
      <trkpt lat="43.00516" lon="0.92777">
        <ele>699</ele>
        <time>2021-03-13T12:38:48Z</time>
      </trkpt>
      <trkpt lat="43.00514" lon="0.92778">
        <ele>699</ele>
        <time>2021-03-13T12:38:49Z</time>
      </trkpt>
      <trkpt lat="43.00513" lon="0.92779">
        <ele>701</ele>
        <time>2021-03-13T12:38:50Z</time>
      </trkpt>
      <trkpt lat="43.00511" lon="0.92781">
        <ele>701</ele>
        <time>2021-03-13T12:38:51Z</time>
      </trkpt>
      <trkpt lat="43.00509" lon="0.92782">
        <ele>701</ele>
        <time>2021-03-13T12:38:52Z</time>
      </trkpt>
      <trkpt lat="43.00507" lon="0.92784">
        <ele>701</ele>
        <time>2021-03-13T12:38:53Z</time>
      </trkpt>
      <trkpt lat="43.00506" lon="0.92784">
        <ele>701</ele>
        <time>2021-03-13T12:38:54Z</time>
      </trkpt>
      <trkpt lat="43.00504" lon="0.92784">
        <ele>701</ele>
        <time>2021-03-13T12:38:55Z</time>
      </trkpt>
      <trkpt lat="43.00502" lon="0.92784">
        <ele>701</ele>
        <time>2021-03-13T12:38:56Z</time>
      </trkpt>
      <trkpt lat="43.005" lon="0.92783">
        <ele>701</ele>
        <time>2021-03-13T12:38:57Z</time>
      </trkpt>
      <trkpt lat="43.00499" lon="0.92782">
        <ele>701</ele>
        <time>2021-03-13T12:38:58Z</time>
      </trkpt>
      <trkpt lat="43.00497" lon="0.92781">
        <ele>701</ele>
        <time>2021-03-13T12:38:59Z</time>
      </trkpt>
      <trkpt lat="43.00496" lon="0.9278">
        <ele>702</ele>
        <time>2021-03-13T12:39:00Z</time>
      </trkpt>
      <trkpt lat="43.00494" lon="0.92779">
        <ele>702</ele>
        <time>2021-03-13T12:39:01Z</time>
      </trkpt>
      <trkpt lat="43.00489" lon="0.92776">
        <ele>702</ele>
        <time>2021-03-13T12:39:02Z</time>
      </trkpt>
      <trkpt lat="43.00489" lon="0.92776">
        <ele>702</ele>
        <time>2021-03-13T12:39:03Z</time>
      </trkpt>
      <trkpt lat="43.00484" lon="0.92771">
        <ele>702</ele>
        <time>2021-03-13T12:39:04Z</time>
      </trkpt>
      <trkpt lat="43.00484" lon="0.92771">
        <ele>702</ele>
        <time>2021-03-13T12:39:05Z</time>
      </trkpt>
      <trkpt lat="43.0048" lon="0.92767">
        <ele>702</ele>
        <time>2021-03-13T12:39:06Z</time>
      </trkpt>
      <trkpt lat="43.0048" lon="0.92767">
        <ele>702</ele>
        <time>2021-03-13T12:39:07Z</time>
      </trkpt>
      <trkpt lat="43.00477" lon="0.92762">
        <ele>702</ele>
        <time>2021-03-13T12:39:08Z</time>
      </trkpt>
      <trkpt lat="43.00477" lon="0.92762">
        <ele>702</ele>
        <time>2021-03-13T12:39:09Z</time>
      </trkpt>
      <trkpt lat="43.00474" lon="0.92756">
        <ele>703</ele>
        <time>2021-03-13T12:39:10Z</time>
      </trkpt>
      <trkpt lat="43.00474" lon="0.92756">
        <ele>703</ele>
        <time>2021-03-13T12:39:11Z</time>
      </trkpt>
      <trkpt lat="43.00471" lon="0.92751">
        <ele>703</ele>
        <time>2021-03-13T12:39:12Z</time>
      </trkpt>
      <trkpt lat="43.00471" lon="0.92751">
        <ele>703</ele>
        <time>2021-03-13T12:39:13Z</time>
      </trkpt>
      <trkpt lat="43.00468" lon="0.92746">
        <ele>703</ele>
        <time>2021-03-13T12:39:14Z</time>
      </trkpt>
      <trkpt lat="43.00468" lon="0.92746">
        <ele>703</ele>
        <time>2021-03-13T12:39:15Z</time>
      </trkpt>
      <trkpt lat="43.00464" lon="0.92739">
        <ele>703</ele>
        <time>2021-03-13T12:39:16Z</time>
      </trkpt>
      <trkpt lat="43.00464" lon="0.92739">
        <ele>703</ele>
        <time>2021-03-13T12:39:17Z</time>
      </trkpt>
      <trkpt lat="43.00461" lon="0.92733">
        <ele>703</ele>
        <time>2021-03-13T12:39:18Z</time>
      </trkpt>
      <trkpt lat="43.00461" lon="0.92733">
        <ele>703</ele>
        <time>2021-03-13T12:39:19Z</time>
      </trkpt>
      <trkpt lat="43.00457" lon="0.92725">
        <ele>704</ele>
        <time>2021-03-13T12:39:20Z</time>
      </trkpt>
      <trkpt lat="43.00456" lon="0.92723">
        <ele>704</ele>
        <time>2021-03-13T12:39:21Z</time>
      </trkpt>
      <trkpt lat="43.00456" lon="0.92723">
        <ele>704</ele>
        <time>2021-03-13T12:39:22Z</time>
      </trkpt>
      <trkpt lat="43.00454" lon="0.92716">
        <ele>704</ele>
        <time>2021-03-13T12:39:23Z</time>
      </trkpt>
      <trkpt lat="43.00454" lon="0.92716">
        <ele>704</ele>
        <time>2021-03-13T12:39:24Z</time>
      </trkpt>
      <trkpt lat="43.00452" lon="0.92709">
        <ele>704</ele>
        <time>2021-03-13T12:39:25Z</time>
      </trkpt>
      <trkpt lat="43.00452" lon="0.92709">
        <ele>704</ele>
        <time>2021-03-13T12:39:26Z</time>
      </trkpt>
      <trkpt lat="43.00449" lon="0.92702">
        <ele>704</ele>
        <time>2021-03-13T12:39:27Z</time>
      </trkpt>
      <trkpt lat="43.00449" lon="0.92702">
        <ele>704</ele>
        <time>2021-03-13T12:39:28Z</time>
      </trkpt>
      <trkpt lat="43.00446" lon="0.92695">
        <ele>704</ele>
        <time>2021-03-13T12:39:29Z</time>
      </trkpt>
      <trkpt lat="43.00446" lon="0.92695">
        <ele>704</ele>
        <time>2021-03-13T12:39:30Z</time>
      </trkpt>
      <trkpt lat="43.00444" lon="0.92687">
        <ele>704</ele>
        <time>2021-03-13T12:39:31Z</time>
      </trkpt>
      <trkpt lat="43.00444" lon="0.92687">
        <ele>704</ele>
        <time>2021-03-13T12:39:32Z</time>
      </trkpt>
      <trkpt lat="43.00442" lon="0.9268">
        <ele>704</ele>
        <time>2021-03-13T12:39:33Z</time>
      </trkpt>
      <trkpt lat="43.00442" lon="0.9268">
        <ele>704</ele>
        <time>2021-03-13T12:39:34Z</time>
      </trkpt>
      <trkpt lat="43.00439" lon="0.92673">
        <ele>704</ele>
        <time>2021-03-13T12:39:35Z</time>
      </trkpt>
      <trkpt lat="43.00439" lon="0.92673">
        <ele>704</ele>
        <time>2021-03-13T12:39:36Z</time>
      </trkpt>
      <trkpt lat="43.00436" lon="0.92664">
        <ele>704</ele>
        <time>2021-03-13T12:39:37Z</time>
      </trkpt>
      <trkpt lat="43.00436" lon="0.92664">
        <ele>704</ele>
        <time>2021-03-13T12:39:38Z</time>
      </trkpt>
      <trkpt lat="43.00433" lon="0.92658">
        <ele>704</ele>
        <time>2021-03-13T12:39:39Z</time>
      </trkpt>
      <trkpt lat="43.00433" lon="0.92658">
        <ele>704</ele>
        <time>2021-03-13T12:39:40Z</time>
      </trkpt>
      <trkpt lat="43.0043" lon="0.92653">
        <ele>704</ele>
        <time>2021-03-13T12:39:41Z</time>
      </trkpt>
      <trkpt lat="43.0043" lon="0.92653">
        <ele>704</ele>
        <time>2021-03-13T12:39:42Z</time>
      </trkpt>
      <trkpt lat="43.00428" lon="0.92648">
        <ele>704</ele>
        <time>2021-03-13T12:39:43Z</time>
      </trkpt>
      <trkpt lat="43.00428" lon="0.92648">
        <ele>704</ele>
        <time>2021-03-13T12:39:44Z</time>
      </trkpt>
      <trkpt lat="43.00424" lon="0.92646">
        <ele>704</ele>
        <time>2021-03-13T12:39:45Z</time>
      </trkpt>
      <trkpt lat="43.00424" lon="0.92646">
        <ele>704</ele>
        <time>2021-03-13T12:39:46Z</time>
      </trkpt>
      <trkpt lat="43.00421" lon="0.92643">
        <ele>704</ele>
        <time>2021-03-13T12:39:47Z</time>
      </trkpt>
      <trkpt lat="43.00421" lon="0.92643">
        <ele>704</ele>
        <time>2021-03-13T12:39:48Z</time>
      </trkpt>
      <trkpt lat="43.00418" lon="0.92638">
        <ele>704</ele>
        <time>2021-03-13T12:39:49Z</time>
      </trkpt>
      <trkpt lat="43.00418" lon="0.92638">
        <ele>704</ele>
        <time>2021-03-13T12:39:50Z</time>
      </trkpt>
      <trkpt lat="43.00417" lon="0.92634">
        <ele>704</ele>
        <time>2021-03-13T12:39:51Z</time>
      </trkpt>
      <trkpt lat="43.00417" lon="0.92634">
        <ele>704</ele>
        <time>2021-03-13T12:39:52Z</time>
      </trkpt>
      <trkpt lat="43.00417" lon="0.92634">
        <ele>704</ele>
        <time>2021-03-13T12:39:53Z</time>
      </trkpt>
      <trkpt lat="43.00417" lon="0.92634">
        <ele>704</ele>
        <time>2021-03-13T12:39:54Z</time>
      </trkpt>
      <trkpt lat="43.00417" lon="0.92634">
        <ele>704</ele>
        <time>2021-03-13T12:39:55Z</time>
      </trkpt>
      <trkpt lat="43.00417" lon="0.92634">
        <ele>704</ele>
        <time>2021-03-13T12:39:56Z</time>
      </trkpt>
      <trkpt lat="43.00417" lon="0.92634">
        <ele>704</ele>
        <time>2021-03-13T12:39:57Z</time>
      </trkpt>
      <trkpt lat="43.00417" lon="0.92634">
        <ele>704</ele>
        <time>2021-03-13T12:39:58Z</time>
      </trkpt>
      <trkpt lat="43.00417" lon="0.92634">
        <ele>704</ele>
        <time>2021-03-13T12:39:59Z</time>
      </trkpt>
      <trkpt lat="43.00417" lon="0.92634">
        <ele>703</ele>
        <time>2021-03-13T12:40:00Z</time>
      </trkpt>
      <trkpt lat="43.00417" lon="0.92634">
        <ele>703</ele>
        <time>2021-03-13T12:40:01Z</time>
      </trkpt>
      <trkpt lat="43.00417" lon="0.92634">
        <ele>703</ele>
        <time>2021-03-13T12:40:02Z</time>
      </trkpt>
      <trkpt lat="43.00417" lon="0.92634">
        <ele>703</ele>
        <time>2021-03-13T12:40:03Z</time>
      </trkpt>
      <trkpt lat="43.00417" lon="0.92634">
        <ele>703</ele>
        <time>2021-03-13T12:40:04Z</time>
      </trkpt>
      <trkpt lat="43.00417" lon="0.92634">
        <ele>703</ele>
        <time>2021-03-13T12:40:05Z</time>
      </trkpt>
      <trkpt lat="43.00417" lon="0.92634">
        <ele>703</ele>
        <time>2021-03-13T12:40:06Z</time>
      </trkpt>
      <trkpt lat="43.00417" lon="0.92634">
        <ele>703</ele>
        <time>2021-03-13T12:40:07Z</time>
      </trkpt>
      <trkpt lat="43.00417" lon="0.92634">
        <ele>703</ele>
        <time>2021-03-13T12:40:08Z</time>
      </trkpt>
      <trkpt lat="43.00417" lon="0.92634">
        <ele>703</ele>
        <time>2021-03-13T12:40:09Z</time>
      </trkpt>
      <trkpt lat="43.00417" lon="0.92634">
        <ele>703</ele>
        <time>2021-03-13T12:40:10Z</time>
      </trkpt>
      <trkpt lat="43.00421" lon="0.92631">
        <ele>703</ele>
        <time>2021-03-13T12:40:11Z</time>
      </trkpt>
      <trkpt lat="43.00421" lon="0.92631">
        <ele>703</ele>
        <time>2021-03-13T12:40:12Z</time>
      </trkpt>
      <trkpt lat="43.00423" lon="0.9263">
        <ele>703</ele>
        <time>2021-03-13T12:40:13Z</time>
      </trkpt>
      <trkpt lat="43.00424" lon="0.92629">
        <ele>703</ele>
        <time>2021-03-13T12:40:14Z</time>
      </trkpt>
      <trkpt lat="43.00426" lon="0.92628">
        <ele>703</ele>
        <time>2021-03-13T12:40:15Z</time>
      </trkpt>
      <trkpt lat="43.00429" lon="0.92623">
        <ele>703</ele>
        <time>2021-03-13T12:40:16Z</time>
      </trkpt>
      <trkpt lat="43.00429" lon="0.92623">
        <ele>703</ele>
        <time>2021-03-13T12:40:17Z</time>
      </trkpt>
      <trkpt lat="43.00432" lon="0.92617">
        <ele>703</ele>
        <time>2021-03-13T12:40:18Z</time>
      </trkpt>
      <trkpt lat="43.00432" lon="0.92617">
        <ele>703</ele>
        <time>2021-03-13T12:40:19Z</time>
      </trkpt>
      <trkpt lat="43.00435" lon="0.92609">
        <ele>704</ele>
        <time>2021-03-13T12:40:20Z</time>
      </trkpt>
      <trkpt lat="43.00435" lon="0.92609">
        <ele>704</ele>
        <time>2021-03-13T12:40:21Z</time>
      </trkpt>
      <trkpt lat="43.00437" lon="0.926">
        <ele>704</ele>
        <time>2021-03-13T12:40:22Z</time>
      </trkpt>
      <trkpt lat="43.00437" lon="0.926">
        <ele>704</ele>
        <time>2021-03-13T12:40:23Z</time>
      </trkpt>
      <trkpt lat="43.00441" lon="0.9259">
        <ele>704</ele>
        <time>2021-03-13T12:40:24Z</time>
      </trkpt>
      <trkpt lat="43.00441" lon="0.9259">
        <ele>704</ele>
        <time>2021-03-13T12:40:25Z</time>
      </trkpt>
      <trkpt lat="43.00446" lon="0.9258">
        <ele>704</ele>
        <time>2021-03-13T12:40:26Z</time>
      </trkpt>
      <trkpt lat="43.00446" lon="0.9258">
        <ele>704</ele>
        <time>2021-03-13T12:40:27Z</time>
      </trkpt>
      <trkpt lat="43.0045" lon="0.92572">
        <ele>704</ele>
        <time>2021-03-13T12:40:28Z</time>
      </trkpt>
      <trkpt lat="43.0045" lon="0.92572">
        <ele>704</ele>
        <time>2021-03-13T12:40:29Z</time>
      </trkpt>
      <trkpt lat="43.00454" lon="0.92563">
        <ele>704</ele>
        <time>2021-03-13T12:40:30Z</time>
      </trkpt>
      <trkpt lat="43.00454" lon="0.92563">
        <ele>704</ele>
        <time>2021-03-13T12:40:31Z</time>
      </trkpt>
      <trkpt lat="43.00457" lon="0.92555">
        <ele>704</ele>
        <time>2021-03-13T12:40:32Z</time>
      </trkpt>
      <trkpt lat="43.00457" lon="0.92555">
        <ele>704</ele>
        <time>2021-03-13T12:40:33Z</time>
      </trkpt>
      <trkpt lat="43.00462" lon="0.92547">
        <ele>704</ele>
        <time>2021-03-13T12:40:34Z</time>
      </trkpt>
      <trkpt lat="43.00462" lon="0.92547">
        <ele>704</ele>
        <time>2021-03-13T12:40:35Z</time>
      </trkpt>
      <trkpt lat="43.00463" lon="0.92543">
        <ele>704</ele>
        <time>2021-03-13T12:40:36Z</time>
      </trkpt>
      <trkpt lat="43.00464" lon="0.92539">
        <ele>704</ele>
        <time>2021-03-13T12:40:37Z</time>
      </trkpt>
      <trkpt lat="43.00466" lon="0.92536">
        <ele>704</ele>
        <time>2021-03-13T12:40:38Z</time>
      </trkpt>
      <trkpt lat="43.00467" lon="0.92532">
        <ele>704</ele>
        <time>2021-03-13T12:40:39Z</time>
      </trkpt>
      <trkpt lat="43.00468" lon="0.92528">
        <ele>705</ele>
        <time>2021-03-13T12:40:40Z</time>
      </trkpt>
      <trkpt lat="43.00469" lon="0.92524">
        <ele>705</ele>
        <time>2021-03-13T12:40:41Z</time>
      </trkpt>
      <trkpt lat="43.0047" lon="0.9252">
        <ele>705</ele>
        <time>2021-03-13T12:40:42Z</time>
      </trkpt>
      <trkpt lat="43.00471" lon="0.92515">
        <ele>705</ele>
        <time>2021-03-13T12:40:43Z</time>
      </trkpt>
      <trkpt lat="43.00473" lon="0.92511">
        <ele>705</ele>
        <time>2021-03-13T12:40:44Z</time>
      </trkpt>
      <trkpt lat="43.00474" lon="0.92507">
        <ele>705</ele>
        <time>2021-03-13T12:40:45Z</time>
      </trkpt>
      <trkpt lat="43.00475" lon="0.92502">
        <ele>705</ele>
        <time>2021-03-13T12:40:46Z</time>
      </trkpt>
      <trkpt lat="43.00477" lon="0.92497">
        <ele>705</ele>
        <time>2021-03-13T12:40:47Z</time>
      </trkpt>
      <trkpt lat="43.00478" lon="0.92493">
        <ele>705</ele>
        <time>2021-03-13T12:40:48Z</time>
      </trkpt>
      <trkpt lat="43.00479" lon="0.92489">
        <ele>705</ele>
        <time>2021-03-13T12:40:49Z</time>
      </trkpt>
      <trkpt lat="43.0048" lon="0.92485">
        <ele>706</ele>
        <time>2021-03-13T12:40:50Z</time>
      </trkpt>
      <trkpt lat="43.00481" lon="0.92481">
        <ele>706</ele>
        <time>2021-03-13T12:40:51Z</time>
      </trkpt>
      <trkpt lat="43.00482" lon="0.92476">
        <ele>706</ele>
        <time>2021-03-13T12:40:52Z</time>
      </trkpt>
      <trkpt lat="43.00482" lon="0.92472">
        <ele>706</ele>
        <time>2021-03-13T12:40:53Z</time>
      </trkpt>
      <trkpt lat="43.00483" lon="0.92468">
        <ele>706</ele>
        <time>2021-03-13T12:40:54Z</time>
      </trkpt>
      <trkpt lat="43.00483" lon="0.92463">
        <ele>706</ele>
        <time>2021-03-13T12:40:55Z</time>
      </trkpt>
      <trkpt lat="43.00484" lon="0.92459">
        <ele>706</ele>
        <time>2021-03-13T12:40:56Z</time>
      </trkpt>
      <trkpt lat="43.00484" lon="0.92455">
        <ele>706</ele>
        <time>2021-03-13T12:40:57Z</time>
      </trkpt>
      <trkpt lat="43.00485" lon="0.9245">
        <ele>706</ele>
        <time>2021-03-13T12:40:58Z</time>
      </trkpt>
      <trkpt lat="43.00485" lon="0.92445">
        <ele>706</ele>
        <time>2021-03-13T12:40:59Z</time>
      </trkpt>
      <trkpt lat="43.00486" lon="0.92441">
        <ele>708</ele>
        <time>2021-03-13T12:41:00Z</time>
      </trkpt>
      <trkpt lat="43.00486" lon="0.92436">
        <ele>708</ele>
        <time>2021-03-13T12:41:01Z</time>
      </trkpt>
      <trkpt lat="43.00486" lon="0.92431">
        <ele>708</ele>
        <time>2021-03-13T12:41:02Z</time>
      </trkpt>
      <trkpt lat="43.00486" lon="0.92426">
        <ele>708</ele>
        <time>2021-03-13T12:41:03Z</time>
      </trkpt>
      <trkpt lat="43.00486" lon="0.92422">
        <ele>708</ele>
        <time>2021-03-13T12:41:04Z</time>
      </trkpt>
      <trkpt lat="43.00485" lon="0.92417">
        <ele>708</ele>
        <time>2021-03-13T12:41:05Z</time>
      </trkpt>
      <trkpt lat="43.00484" lon="0.92412">
        <ele>708</ele>
        <time>2021-03-13T12:41:06Z</time>
      </trkpt>
      <trkpt lat="43.00484" lon="0.92406">
        <ele>708</ele>
        <time>2021-03-13T12:41:07Z</time>
      </trkpt>
      <trkpt lat="43.00483" lon="0.92401">
        <ele>708</ele>
        <time>2021-03-13T12:41:08Z</time>
      </trkpt>
      <trkpt lat="43.00482" lon="0.92396">
        <ele>708</ele>
        <time>2021-03-13T12:41:09Z</time>
      </trkpt>
      <trkpt lat="43.00482" lon="0.9239">
        <ele>708</ele>
        <time>2021-03-13T12:41:10Z</time>
      </trkpt>
      <trkpt lat="43.00482" lon="0.92385">
        <ele>708</ele>
        <time>2021-03-13T12:41:11Z</time>
      </trkpt>
      <trkpt lat="43.00481" lon="0.9238">
        <ele>708</ele>
        <time>2021-03-13T12:41:12Z</time>
      </trkpt>
      <trkpt lat="43.00481" lon="0.92375">
        <ele>708</ele>
        <time>2021-03-13T12:41:13Z</time>
      </trkpt>
      <trkpt lat="43.00481" lon="0.9237">
        <ele>708</ele>
        <time>2021-03-13T12:41:14Z</time>
      </trkpt>
      <trkpt lat="43.0048" lon="0.92364">
        <ele>708</ele>
        <time>2021-03-13T12:41:15Z</time>
      </trkpt>
      <trkpt lat="43.0048" lon="0.92359">
        <ele>708</ele>
        <time>2021-03-13T12:41:16Z</time>
      </trkpt>
      <trkpt lat="43.0048" lon="0.92353">
        <ele>708</ele>
        <time>2021-03-13T12:41:17Z</time>
      </trkpt>
      <trkpt lat="43.0048" lon="0.92348">
        <ele>708</ele>
        <time>2021-03-13T12:41:18Z</time>
      </trkpt>
      <trkpt lat="43.0048" lon="0.92343">
        <ele>708</ele>
        <time>2021-03-13T12:41:19Z</time>
      </trkpt>
      <trkpt lat="43.00479" lon="0.92339">
        <ele>707</ele>
        <time>2021-03-13T12:41:20Z</time>
      </trkpt>
      <trkpt lat="43.00479" lon="0.92334">
        <ele>707</ele>
        <time>2021-03-13T12:41:21Z</time>
      </trkpt>
      <trkpt lat="43.00479" lon="0.92329">
        <ele>707</ele>
        <time>2021-03-13T12:41:22Z</time>
      </trkpt>
      <trkpt lat="43.00478" lon="0.92324">
        <ele>707</ele>
        <time>2021-03-13T12:41:23Z</time>
      </trkpt>
      <trkpt lat="43.00478" lon="0.92319">
        <ele>707</ele>
        <time>2021-03-13T12:41:24Z</time>
      </trkpt>
      <trkpt lat="43.00478" lon="0.92314">
        <ele>707</ele>
        <time>2021-03-13T12:41:25Z</time>
      </trkpt>
      <trkpt lat="43.00478" lon="0.9231">
        <ele>707</ele>
        <time>2021-03-13T12:41:26Z</time>
      </trkpt>
      <trkpt lat="43.00478" lon="0.92305">
        <ele>707</ele>
        <time>2021-03-13T12:41:27Z</time>
      </trkpt>
      <trkpt lat="43.00478" lon="0.923">
        <ele>707</ele>
        <time>2021-03-13T12:41:28Z</time>
      </trkpt>
      <trkpt lat="43.00477" lon="0.92295">
        <ele>707</ele>
        <time>2021-03-13T12:41:29Z</time>
      </trkpt>
      <trkpt lat="43.00477" lon="0.9229">
        <ele>706</ele>
        <time>2021-03-13T12:41:30Z</time>
      </trkpt>
      <trkpt lat="43.00477" lon="0.92285">
        <ele>706</ele>
        <time>2021-03-13T12:41:31Z</time>
      </trkpt>
      <trkpt lat="43.00476" lon="0.92279">
        <ele>706</ele>
        <time>2021-03-13T12:41:32Z</time>
      </trkpt>
      <trkpt lat="43.00476" lon="0.92274">
        <ele>706</ele>
        <time>2021-03-13T12:41:33Z</time>
      </trkpt>
      <trkpt lat="43.00476" lon="0.92268">
        <ele>706</ele>
        <time>2021-03-13T12:41:34Z</time>
      </trkpt>
      <trkpt lat="43.00476" lon="0.92263">
        <ele>706</ele>
        <time>2021-03-13T12:41:35Z</time>
      </trkpt>
      <trkpt lat="43.00475" lon="0.92257">
        <ele>706</ele>
        <time>2021-03-13T12:41:36Z</time>
      </trkpt>
      <trkpt lat="43.00475" lon="0.92251">
        <ele>706</ele>
        <time>2021-03-13T12:41:37Z</time>
      </trkpt>
      <trkpt lat="43.00475" lon="0.92245">
        <ele>706</ele>
        <time>2021-03-13T12:41:38Z</time>
      </trkpt>
      <trkpt lat="43.00474" lon="0.92236">
        <ele>706</ele>
        <time>2021-03-13T12:41:39Z</time>
      </trkpt>
      <trkpt lat="43.00473" lon="0.92228">
        <ele>706</ele>
        <time>2021-03-13T12:41:40Z</time>
      </trkpt>
      <trkpt lat="43.00472" lon="0.9222">
        <ele>706</ele>
        <time>2021-03-13T12:41:41Z</time>
      </trkpt>
      <trkpt lat="43.00471" lon="0.92213">
        <ele>706</ele>
        <time>2021-03-13T12:41:42Z</time>
      </trkpt>
      <trkpt lat="43.00471" lon="0.92213">
        <ele>706</ele>
        <time>2021-03-13T12:41:43Z</time>
      </trkpt>
      <trkpt lat="43.0047" lon="0.92194">
        <ele>706</ele>
        <time>2021-03-13T12:41:44Z</time>
      </trkpt>
      <trkpt lat="43.00469" lon="0.9219">
        <ele>706</ele>
        <time>2021-03-13T12:41:45Z</time>
      </trkpt>
      <trkpt lat="43.00467" lon="0.92179">
        <ele>706</ele>
        <time>2021-03-13T12:41:46Z</time>
      </trkpt>
      <trkpt lat="43.00466" lon="0.92175">
        <ele>706</ele>
        <time>2021-03-13T12:41:47Z</time>
      </trkpt>
      <trkpt lat="43.00464" lon="0.92164">
        <ele>706</ele>
        <time>2021-03-13T12:41:48Z</time>
      </trkpt>
      <trkpt lat="43.00463" lon="0.9216">
        <ele>706</ele>
        <time>2021-03-13T12:41:49Z</time>
      </trkpt>
      <trkpt lat="43.00462" lon="0.92147">
        <ele>702</ele>
        <time>2021-03-13T12:41:50Z</time>
      </trkpt>
      <trkpt lat="43.00462" lon="0.92143">
        <ele>702</ele>
        <time>2021-03-13T12:41:51Z</time>
      </trkpt>
      <trkpt lat="43.00462" lon="0.92132">
        <ele>702</ele>
        <time>2021-03-13T12:41:52Z</time>
      </trkpt>
      <trkpt lat="43.00461" lon="0.92128">
        <ele>702</ele>
        <time>2021-03-13T12:41:53Z</time>
      </trkpt>
      <trkpt lat="43.00461" lon="0.92121">
        <ele>702</ele>
        <time>2021-03-13T12:41:54Z</time>
      </trkpt>
      <trkpt lat="43.00461" lon="0.92121">
        <ele>699</ele>
        <time>2021-03-13T12:41:55Z</time>
      </trkpt>
      <trkpt lat="43.00458" lon="0.92108">
        <ele>699</ele>
        <time>2021-03-13T12:41:56Z</time>
      </trkpt>
      <trkpt lat="43.00458" lon="0.92108">
        <ele>699</ele>
        <time>2021-03-13T12:41:57Z</time>
      </trkpt>
      <trkpt lat="43.00453" lon="0.92091">
        <ele>699</ele>
        <time>2021-03-13T12:41:58Z</time>
      </trkpt>
      <trkpt lat="43.00452" lon="0.92088">
        <ele>699</ele>
        <time>2021-03-13T12:41:59Z</time>
      </trkpt>
      <trkpt lat="43.00448" lon="0.92078">
        <ele>696</ele>
        <time>2021-03-13T12:42:00Z</time>
      </trkpt>
      <trkpt lat="43.00447" lon="0.92075">
        <ele>696</ele>
        <time>2021-03-13T12:42:01Z</time>
      </trkpt>
      <trkpt lat="43.00445" lon="0.92068">
        <ele>695</ele>
        <time>2021-03-13T12:42:02Z</time>
      </trkpt>
      <trkpt lat="43.00445" lon="0.92068">
        <ele>694</ele>
        <time>2021-03-13T12:42:03Z</time>
      </trkpt>
      <trkpt lat="43.00442" lon="0.92059">
        <ele>693</ele>
        <time>2021-03-13T12:42:04Z</time>
      </trkpt>
      <trkpt lat="43.0044" lon="0.9205">
        <ele>692</ele>
        <time>2021-03-13T12:42:05Z</time>
      </trkpt>
      <trkpt lat="43.00437" lon="0.92041">
        <ele>691</ele>
        <time>2021-03-13T12:42:06Z</time>
      </trkpt>
      <trkpt lat="43.00434" lon="0.9203">
        <ele>691</ele>
        <time>2021-03-13T12:42:07Z</time>
      </trkpt>
      <trkpt lat="43.00434" lon="0.92026">
        <ele>689</ele>
        <time>2021-03-13T12:42:08Z</time>
      </trkpt>
      <trkpt lat="43.00432" lon="0.92014">
        <ele>688</ele>
        <time>2021-03-13T12:42:09Z</time>
      </trkpt>
      <trkpt lat="43.00431" lon="0.9201">
        <ele>688</ele>
        <time>2021-03-13T12:42:10Z</time>
      </trkpt>
      <trkpt lat="43.0043" lon="0.92002">
        <ele>688</ele>
        <time>2021-03-13T12:42:11Z</time>
      </trkpt>
      <trkpt lat="43.0043" lon="0.92002">
        <ele>688</ele>
        <time>2021-03-13T12:42:12Z</time>
      </trkpt>
      <trkpt lat="43.0043" lon="0.91996">
        <ele>686</ele>
        <time>2021-03-13T12:42:13Z</time>
      </trkpt>
      <trkpt lat="43.00429" lon="0.9199">
        <ele>686</ele>
        <time>2021-03-13T12:42:14Z</time>
      </trkpt>
      <trkpt lat="43.00429" lon="0.91985">
        <ele>686</ele>
        <time>2021-03-13T12:42:15Z</time>
      </trkpt>
      <trkpt lat="43.00428" lon="0.91982">
        <ele>685</ele>
        <time>2021-03-13T12:42:16Z</time>
      </trkpt>
      <trkpt lat="43.00428" lon="0.9198">
        <ele>685</ele>
        <time>2021-03-13T12:42:17Z</time>
      </trkpt>
      <trkpt lat="43.00427" lon="0.91977">
        <ele>685</ele>
        <time>2021-03-13T12:42:18Z</time>
      </trkpt>
      <trkpt lat="43.00426" lon="0.91975">
        <ele>684</ele>
        <time>2021-03-13T12:42:19Z</time>
      </trkpt>
      <trkpt lat="43.00426" lon="0.91972">
        <ele>684</ele>
        <time>2021-03-13T12:42:20Z</time>
      </trkpt>
      <trkpt lat="43.00425" lon="0.9197">
        <ele>684</ele>
        <time>2021-03-13T12:42:21Z</time>
      </trkpt>
      <trkpt lat="43.00424" lon="0.91965">
        <ele>684</ele>
        <time>2021-03-13T12:42:22Z</time>
      </trkpt>
      <trkpt lat="43.00422" lon="0.91959">
        <ele>684</ele>
        <time>2021-03-13T12:42:23Z</time>
      </trkpt>
      <trkpt lat="43.00421" lon="0.91954">
        <ele>684</ele>
        <time>2021-03-13T12:42:24Z</time>
      </trkpt>
      <trkpt lat="43.00419" lon="0.91945">
        <ele>682</ele>
        <time>2021-03-13T12:42:25Z</time>
      </trkpt>
      <trkpt lat="43.00417" lon="0.91935">
        <ele>682</ele>
        <time>2021-03-13T12:42:26Z</time>
      </trkpt>
      <trkpt lat="43.00414" lon="0.91926">
        <ele>682</ele>
        <time>2021-03-13T12:42:27Z</time>
      </trkpt>
      <trkpt lat="43.00411" lon="0.91911">
        <ele>682</ele>
        <time>2021-03-13T12:42:28Z</time>
      </trkpt>
      <trkpt lat="43.0041" lon="0.91906">
        <ele>682</ele>
        <time>2021-03-13T12:42:29Z</time>
      </trkpt>
      <trkpt lat="43.00406" lon="0.91891">
        <ele>678</ele>
        <time>2021-03-13T12:42:30Z</time>
      </trkpt>
      <trkpt lat="43.00405" lon="0.91886">
        <ele>677</ele>
        <time>2021-03-13T12:42:31Z</time>
      </trkpt>
      <trkpt lat="43.00403" lon="0.91872">
        <ele>676</ele>
        <time>2021-03-13T12:42:32Z</time>
      </trkpt>
      <trkpt lat="43.00402" lon="0.91867">
        <ele>675</ele>
        <time>2021-03-13T12:42:33Z</time>
      </trkpt>
      <trkpt lat="43.00401" lon="0.91858">
        <ele>675</ele>
        <time>2021-03-13T12:42:34Z</time>
      </trkpt>
      <trkpt lat="43.00401" lon="0.91858">
        <ele>674</ele>
        <time>2021-03-13T12:42:35Z</time>
      </trkpt>
      <trkpt lat="43.00399" lon="0.91853">
        <ele>673</ele>
        <time>2021-03-13T12:42:36Z</time>
      </trkpt>
      <trkpt lat="43.00398" lon="0.91847">
        <ele>673</ele>
        <time>2021-03-13T12:42:37Z</time>
      </trkpt>
      <trkpt lat="43.00397" lon="0.91842">
        <ele>672</ele>
        <time>2021-03-13T12:42:38Z</time>
      </trkpt>
      <trkpt lat="43.00394" lon="0.91835">
        <ele>671</ele>
        <time>2021-03-13T12:42:39Z</time>
      </trkpt>
      <trkpt lat="43.00391" lon="0.91828">
        <ele>671</ele>
        <time>2021-03-13T12:42:40Z</time>
      </trkpt>
      <trkpt lat="43.00389" lon="0.91821">
        <ele>670</ele>
        <time>2021-03-13T12:42:41Z</time>
      </trkpt>
      <trkpt lat="43.00386" lon="0.91814">
        <ele>670</ele>
        <time>2021-03-13T12:42:42Z</time>
      </trkpt>
      <trkpt lat="43.00386" lon="0.91814">
        <ele>670</ele>
        <time>2021-03-13T12:42:43Z</time>
      </trkpt>
      <trkpt lat="43.00383" lon="0.91806">
        <ele>668</ele>
        <time>2021-03-13T12:42:44Z</time>
      </trkpt>
      <trkpt lat="43.00381" lon="0.91797">
        <ele>667</ele>
        <time>2021-03-13T12:42:45Z</time>
      </trkpt>
      <trkpt lat="43.00378" lon="0.91789">
        <ele>666</ele>
        <time>2021-03-13T12:42:46Z</time>
      </trkpt>
      <trkpt lat="43.00377" lon="0.91776">
        <ele>666</ele>
        <time>2021-03-13T12:42:47Z</time>
      </trkpt>
      <trkpt lat="43.00377" lon="0.91771">
        <ele>666</ele>
        <time>2021-03-13T12:42:48Z</time>
      </trkpt>
      <trkpt lat="43.00376" lon="0.91759">
        <ele>665</ele>
        <time>2021-03-13T12:42:49Z</time>
      </trkpt>
      <trkpt lat="43.00375" lon="0.91755">
        <ele>666</ele>
        <time>2021-03-13T12:42:50Z</time>
      </trkpt>
      <trkpt lat="43.00374" lon="0.91743">
        <ele>666</ele>
        <time>2021-03-13T12:42:51Z</time>
      </trkpt>
      <trkpt lat="43.00374" lon="0.9174">
        <ele>665</ele>
        <time>2021-03-13T12:42:52Z</time>
      </trkpt>
      <trkpt lat="43.00374" lon="0.91728">
        <ele>663</ele>
        <time>2021-03-13T12:42:53Z</time>
      </trkpt>
      <trkpt lat="43.00374" lon="0.91724">
        <ele>663</ele>
        <time>2021-03-13T12:42:54Z</time>
      </trkpt>
      <trkpt lat="43.00375" lon="0.91713">
        <ele>662</ele>
        <time>2021-03-13T12:42:55Z</time>
      </trkpt>
      <trkpt lat="43.00375" lon="0.91709">
        <ele>661</ele>
        <time>2021-03-13T12:42:56Z</time>
      </trkpt>
      <trkpt lat="43.00377" lon="0.91698">
        <ele>661</ele>
        <time>2021-03-13T12:42:57Z</time>
      </trkpt>
      <trkpt lat="43.00378" lon="0.91694">
        <ele>661</ele>
        <time>2021-03-13T12:42:58Z</time>
      </trkpt>
      <trkpt lat="43.00382" lon="0.91682">
        <ele>660</ele>
        <time>2021-03-13T12:42:59Z</time>
      </trkpt>
      <trkpt lat="43.00383" lon="0.91678">
        <ele>659</ele>
        <time>2021-03-13T12:43:00Z</time>
      </trkpt>
      <trkpt lat="43.00388" lon="0.91666">
        <ele>659</ele>
        <time>2021-03-13T12:43:01Z</time>
      </trkpt>
      <trkpt lat="43.0039" lon="0.91663">
        <ele>658</ele>
        <time>2021-03-13T12:43:02Z</time>
      </trkpt>
      <trkpt lat="43.00396" lon="0.91653">
        <ele>657</ele>
        <time>2021-03-13T12:43:03Z</time>
      </trkpt>
      <trkpt lat="43.00398" lon="0.91649">
        <ele>656</ele>
        <time>2021-03-13T12:43:04Z</time>
      </trkpt>
      <trkpt lat="43.00403" lon="0.91639">
        <ele>656</ele>
        <time>2021-03-13T12:43:05Z</time>
      </trkpt>
      <trkpt lat="43.00405" lon="0.91636">
        <ele>655</ele>
        <time>2021-03-13T12:43:06Z</time>
      </trkpt>
      <trkpt lat="43.00411" lon="0.91626">
        <ele>654</ele>
        <time>2021-03-13T12:43:07Z</time>
      </trkpt>
      <trkpt lat="43.00412" lon="0.91623">
        <ele>654</ele>
        <time>2021-03-13T12:43:08Z</time>
      </trkpt>
      <trkpt lat="43.00417" lon="0.91612">
        <ele>654</ele>
        <time>2021-03-13T12:43:09Z</time>
      </trkpt>
      <trkpt lat="43.00419" lon="0.91609">
        <ele>653</ele>
        <time>2021-03-13T12:43:10Z</time>
      </trkpt>
      <trkpt lat="43.00423" lon="0.91597">
        <ele>652</ele>
        <time>2021-03-13T12:43:11Z</time>
      </trkpt>
      <trkpt lat="43.00424" lon="0.91593">
        <ele>651</ele>
        <time>2021-03-13T12:43:12Z</time>
      </trkpt>
      <trkpt lat="43.00428" lon="0.91581">
        <ele>651</ele>
        <time>2021-03-13T12:43:13Z</time>
      </trkpt>
      <trkpt lat="43.0043" lon="0.91577">
        <ele>650</ele>
        <time>2021-03-13T12:43:14Z</time>
      </trkpt>
      <trkpt lat="43.00435" lon="0.91565">
        <ele>649</ele>
        <time>2021-03-13T12:43:15Z</time>
      </trkpt>
      <trkpt lat="43.00437" lon="0.91562">
        <ele>649</ele>
        <time>2021-03-13T12:43:16Z</time>
      </trkpt>
      <trkpt lat="43.00443" lon="0.91552">
        <ele>649</ele>
        <time>2021-03-13T12:43:17Z</time>
      </trkpt>
      <trkpt lat="43.00445" lon="0.91549">
        <ele>648</ele>
        <time>2021-03-13T12:43:18Z</time>
      </trkpt>
      <trkpt lat="43.00451" lon="0.91539">
        <ele>648</ele>
        <time>2021-03-13T12:43:19Z</time>
      </trkpt>
      <trkpt lat="43.00453" lon="0.91536">
        <ele>646</ele>
        <time>2021-03-13T12:43:20Z</time>
      </trkpt>
      <trkpt lat="43.00458" lon="0.91528">
        <ele>645</ele>
        <time>2021-03-13T12:43:21Z</time>
      </trkpt>
      <trkpt lat="43.0046" lon="0.91526">
        <ele>644</ele>
        <time>2021-03-13T12:43:22Z</time>
      </trkpt>
      <trkpt lat="43.00463" lon="0.91522">
        <ele>644</ele>
        <time>2021-03-13T12:43:23Z</time>
      </trkpt>
      <trkpt lat="43.00463" lon="0.91522">
        <ele>644</ele>
        <time>2021-03-13T12:43:24Z</time>
      </trkpt>
      <trkpt lat="43.00475" lon="0.91513">
        <ele>643</ele>
        <time>2021-03-13T12:43:25Z</time>
      </trkpt>
      <trkpt lat="43.00478" lon="0.91511">
        <ele>642</ele>
        <time>2021-03-13T12:43:26Z</time>
      </trkpt>
      <trkpt lat="43.00487" lon="0.91505">
        <ele>642</ele>
        <time>2021-03-13T12:43:27Z</time>
      </trkpt>
      <trkpt lat="43.0049" lon="0.91503">
        <ele>641</ele>
        <time>2021-03-13T12:43:28Z</time>
      </trkpt>
      <trkpt lat="43.005" lon="0.91498">
        <ele>641</ele>
        <time>2021-03-13T12:43:29Z</time>
      </trkpt>
      <trkpt lat="43.00503" lon="0.91497">
        <ele>641</ele>
        <time>2021-03-13T12:43:30Z</time>
      </trkpt>
      <trkpt lat="43.00512" lon="0.91493">
        <ele>640</ele>
        <time>2021-03-13T12:43:31Z</time>
      </trkpt>
      <trkpt lat="43.00516" lon="0.91492">
        <ele>639</ele>
        <time>2021-03-13T12:43:32Z</time>
      </trkpt>
      <trkpt lat="43.00526" lon="0.9149">
        <ele>637</ele>
        <time>2021-03-13T12:43:33Z</time>
      </trkpt>
      <trkpt lat="43.0053" lon="0.9149">
        <ele>636</ele>
        <time>2021-03-13T12:43:34Z</time>
      </trkpt>
      <trkpt lat="43.0054" lon="0.91489">
        <ele>636</ele>
        <time>2021-03-13T12:43:35Z</time>
      </trkpt>
      <trkpt lat="43.00543" lon="0.91489">
        <ele>635</ele>
        <time>2021-03-13T12:43:36Z</time>
      </trkpt>
      <trkpt lat="43.00554" lon="0.91488">
        <ele>635</ele>
        <time>2021-03-13T12:43:37Z</time>
      </trkpt>
      <trkpt lat="43.00557" lon="0.91487">
        <ele>635</ele>
        <time>2021-03-13T12:43:38Z</time>
      </trkpt>
      <trkpt lat="43.00567" lon="0.91486">
        <ele>634</ele>
        <time>2021-03-13T12:43:39Z</time>
      </trkpt>
      <trkpt lat="43.0057" lon="0.91486">
        <ele>634</ele>
        <time>2021-03-13T12:43:40Z</time>
      </trkpt>
      <trkpt lat="43.00575" lon="0.91487">
        <ele>634</ele>
        <time>2021-03-13T12:43:41Z</time>
      </trkpt>
      <trkpt lat="43.00575" lon="0.91487">
        <ele>634</ele>
        <time>2021-03-13T12:43:42Z</time>
      </trkpt>
      <trkpt lat="43.00578" lon="0.91485">
        <ele>633</ele>
        <time>2021-03-13T12:43:43Z</time>
      </trkpt>
      <trkpt lat="43.00582" lon="0.91482">
        <ele>632</ele>
        <time>2021-03-13T12:43:44Z</time>
      </trkpt>
      <trkpt lat="43.00585" lon="0.9148">
        <ele>631</ele>
        <time>2021-03-13T12:43:45Z</time>
      </trkpt>
      <trkpt lat="43.00585" lon="0.91476">
        <ele>630</ele>
        <time>2021-03-13T12:43:46Z</time>
      </trkpt>
      <trkpt lat="43.00584" lon="0.91472">
        <ele>629</ele>
        <time>2021-03-13T12:43:47Z</time>
      </trkpt>
      <trkpt lat="43.00584" lon="0.91468">
        <ele>629</ele>
        <time>2021-03-13T12:43:48Z</time>
      </trkpt>
      <trkpt lat="43.00581" lon="0.91468">
        <ele>630</ele>
        <time>2021-03-13T12:43:49Z</time>
      </trkpt>
      <trkpt lat="43.00578" lon="0.91468">
        <ele>630</ele>
        <time>2021-03-13T12:43:50Z</time>
      </trkpt>
      <trkpt lat="43.00575" lon="0.91469">
        <ele>630</ele>
        <time>2021-03-13T12:43:51Z</time>
      </trkpt>
      <trkpt lat="43.00567" lon="0.91468">
        <ele>630</ele>
        <time>2021-03-13T12:43:52Z</time>
      </trkpt>
      <trkpt lat="43.00567" lon="0.91468">
        <ele>630</ele>
        <time>2021-03-13T12:43:53Z</time>
      </trkpt>
      <trkpt lat="43.00558" lon="0.91465">
        <ele>630</ele>
        <time>2021-03-13T12:43:54Z</time>
      </trkpt>
      <trkpt lat="43.00558" lon="0.91465">
        <ele>628</ele>
        <time>2021-03-13T12:43:55Z</time>
      </trkpt>
      <trkpt lat="43.00545" lon="0.91463">
        <ele>628</ele>
        <time>2021-03-13T12:43:56Z</time>
      </trkpt>
      <trkpt lat="43.00542" lon="0.91463">
        <ele>628</ele>
        <time>2021-03-13T12:43:57Z</time>
      </trkpt>
      <trkpt lat="43.00533" lon="0.91462">
        <ele>628</ele>
        <time>2021-03-13T12:43:58Z</time>
      </trkpt>
      <trkpt lat="43.0053" lon="0.91461">
        <ele>628</ele>
        <time>2021-03-13T12:43:59Z</time>
      </trkpt>
      <trkpt lat="43.00521" lon="0.9146">
        <ele>625</ele>
        <time>2021-03-13T12:44:00Z</time>
      </trkpt>
      <trkpt lat="43.00517" lon="0.91459">
        <ele>625</ele>
        <time>2021-03-13T12:44:01Z</time>
      </trkpt>
      <trkpt lat="43.00507" lon="0.91457">
        <ele>625</ele>
        <time>2021-03-13T12:44:02Z</time>
      </trkpt>
      <trkpt lat="43.00504" lon="0.91456">
        <ele>624</ele>
        <time>2021-03-13T12:44:03Z</time>
      </trkpt>
      <trkpt lat="43.00494" lon="0.91454">
        <ele>623</ele>
        <time>2021-03-13T12:44:04Z</time>
      </trkpt>
      <trkpt lat="43.0049" lon="0.91454">
        <ele>622</ele>
        <time>2021-03-13T12:44:05Z</time>
      </trkpt>
      <trkpt lat="43.0048" lon="0.91453">
        <ele>621</ele>
        <time>2021-03-13T12:44:06Z</time>
      </trkpt>
      <trkpt lat="43.00477" lon="0.91453">
        <ele>621</ele>
        <time>2021-03-13T12:44:07Z</time>
      </trkpt>
      <trkpt lat="43.00468" lon="0.91453">
        <ele>620</ele>
        <time>2021-03-13T12:44:08Z</time>
      </trkpt>
      <trkpt lat="43.00465" lon="0.91453">
        <ele>619</ele>
        <time>2021-03-13T12:44:09Z</time>
      </trkpt>
      <trkpt lat="43.00456" lon="0.91454">
        <ele>619</ele>
        <time>2021-03-13T12:44:10Z</time>
      </trkpt>
      <trkpt lat="43.00453" lon="0.91455">
        <ele>618</ele>
        <time>2021-03-13T12:44:11Z</time>
      </trkpt>
      <trkpt lat="43.00443" lon="0.9146">
        <ele>618</ele>
        <time>2021-03-13T12:44:12Z</time>
      </trkpt>
      <trkpt lat="43.0044" lon="0.91463">
        <ele>617</ele>
        <time>2021-03-13T12:44:13Z</time>
      </trkpt>
      <trkpt lat="43.0043" lon="0.91471">
        <ele>616</ele>
        <time>2021-03-13T12:44:14Z</time>
      </trkpt>
      <trkpt lat="43.00427" lon="0.91473">
        <ele>616</ele>
        <time>2021-03-13T12:44:15Z</time>
      </trkpt>
      <trkpt lat="43.00419" lon="0.91481">
        <ele>616</ele>
        <time>2021-03-13T12:44:16Z</time>
      </trkpt>
      <trkpt lat="43.00416" lon="0.91483">
        <ele>615</ele>
        <time>2021-03-13T12:44:17Z</time>
      </trkpt>
      <trkpt lat="43.00409" lon="0.91491">
        <ele>614</ele>
        <time>2021-03-13T12:44:18Z</time>
      </trkpt>
      <trkpt lat="43.00406" lon="0.91493">
        <ele>613</ele>
        <time>2021-03-13T12:44:19Z</time>
      </trkpt>
      <trkpt lat="43.00398" lon="0.91501">
        <ele>612</ele>
        <time>2021-03-13T12:44:20Z</time>
      </trkpt>
      <trkpt lat="43.00396" lon="0.91504">
        <ele>612</ele>
        <time>2021-03-13T12:44:21Z</time>
      </trkpt>
      <trkpt lat="43.00388" lon="0.91512">
        <ele>612</ele>
        <time>2021-03-13T12:44:22Z</time>
      </trkpt>
      <trkpt lat="43.00386" lon="0.91515">
        <ele>610</ele>
        <time>2021-03-13T12:44:23Z</time>
      </trkpt>
      <trkpt lat="43.00378" lon="0.91523">
        <ele>610</ele>
        <time>2021-03-13T12:44:24Z</time>
      </trkpt>
      <trkpt lat="43.00376" lon="0.91525">
        <ele>610</ele>
        <time>2021-03-13T12:44:25Z</time>
      </trkpt>
      <trkpt lat="43.00368" lon="0.91532">
        <ele>609</ele>
        <time>2021-03-13T12:44:26Z</time>
      </trkpt>
      <trkpt lat="43.00365" lon="0.91533">
        <ele>608</ele>
        <time>2021-03-13T12:44:27Z</time>
      </trkpt>
      <trkpt lat="43.00356" lon="0.91538">
        <ele>607</ele>
        <time>2021-03-13T12:44:28Z</time>
      </trkpt>
      <trkpt lat="43.00352" lon="0.91538">
        <ele>607</ele>
        <time>2021-03-13T12:44:29Z</time>
      </trkpt>
      <trkpt lat="43.00342" lon="0.91538">
        <ele>605</ele>
        <time>2021-03-13T12:44:30Z</time>
      </trkpt>
      <trkpt lat="43.00339" lon="0.91538">
        <ele>605</ele>
        <time>2021-03-13T12:44:31Z</time>
      </trkpt>
      <trkpt lat="43.00328" lon="0.91535">
        <ele>605</ele>
        <time>2021-03-13T12:44:32Z</time>
      </trkpt>
      <trkpt lat="43.00324" lon="0.91533">
        <ele>604</ele>
        <time>2021-03-13T12:44:33Z</time>
      </trkpt>
      <trkpt lat="43.00313" lon="0.91527">
        <ele>603</ele>
        <time>2021-03-13T12:44:34Z</time>
      </trkpt>
      <trkpt lat="43.0031" lon="0.91524">
        <ele>603</ele>
        <time>2021-03-13T12:44:35Z</time>
      </trkpt>
      <trkpt lat="43.003" lon="0.91516">
        <ele>602</ele>
        <time>2021-03-13T12:44:36Z</time>
      </trkpt>
      <trkpt lat="43.00297" lon="0.91514">
        <ele>601</ele>
        <time>2021-03-13T12:44:37Z</time>
      </trkpt>
      <trkpt lat="43.00289" lon="0.91508">
        <ele>600</ele>
        <time>2021-03-13T12:44:38Z</time>
      </trkpt>
      <trkpt lat="43.00287" lon="0.91506">
        <ele>599</ele>
        <time>2021-03-13T12:44:39Z</time>
      </trkpt>
      <trkpt lat="43.00282" lon="0.91502">
        <ele>598</ele>
        <time>2021-03-13T12:44:40Z</time>
      </trkpt>
      <trkpt lat="43.00282" lon="0.91502">
        <ele>598</ele>
        <time>2021-03-13T12:44:41Z</time>
      </trkpt>
      <trkpt lat="43.00278" lon="0.91499">
        <ele>598</ele>
        <time>2021-03-13T12:44:42Z</time>
      </trkpt>
      <trkpt lat="43.00274" lon="0.91496">
        <ele>597</ele>
        <time>2021-03-13T12:44:43Z</time>
      </trkpt>
      <trkpt lat="43.0027" lon="0.91493">
        <ele>596</ele>
        <time>2021-03-13T12:44:44Z</time>
      </trkpt>
      <trkpt lat="43.00265" lon="0.91491">
        <ele>597</ele>
        <time>2021-03-13T12:44:45Z</time>
      </trkpt>
      <trkpt lat="43.00259" lon="0.91489">
        <ele>597</ele>
        <time>2021-03-13T12:44:46Z</time>
      </trkpt>
      <trkpt lat="43.00253" lon="0.91486">
        <ele>596</ele>
        <time>2021-03-13T12:44:47Z</time>
      </trkpt>
      <trkpt lat="43.00245" lon="0.91482">
        <ele>595</ele>
        <time>2021-03-13T12:44:48Z</time>
      </trkpt>
      <trkpt lat="43.00242" lon="0.91481">
        <ele>595</ele>
        <time>2021-03-13T12:44:49Z</time>
      </trkpt>
      <trkpt lat="43.00233" lon="0.91478">
        <ele>595</ele>
        <time>2021-03-13T12:44:50Z</time>
      </trkpt>
      <trkpt lat="43.0023" lon="0.91477">
        <ele>595</ele>
        <time>2021-03-13T12:44:51Z</time>
      </trkpt>
      <trkpt lat="43.00222" lon="0.91476">
        <ele>595</ele>
        <time>2021-03-13T12:44:52Z</time>
      </trkpt>
      <trkpt lat="43.00219" lon="0.91477">
        <ele>595</ele>
        <time>2021-03-13T12:44:53Z</time>
      </trkpt>
      <trkpt lat="43.00215" lon="0.91477">
        <ele>595</ele>
        <time>2021-03-13T12:44:54Z</time>
      </trkpt>
      <trkpt lat="43.00215" lon="0.91477">
        <ele>595</ele>
        <time>2021-03-13T12:44:55Z</time>
      </trkpt>
      <trkpt lat="43.00206" lon="0.91482">
        <ele>595</ele>
        <time>2021-03-13T12:44:56Z</time>
      </trkpt>
      <trkpt lat="43.00206" lon="0.91482">
        <ele>595</ele>
        <time>2021-03-13T12:44:57Z</time>
      </trkpt>
      <trkpt lat="43.00197" lon="0.91495">
        <ele>595</ele>
        <time>2021-03-13T12:44:58Z</time>
      </trkpt>
      <trkpt lat="43.00196" lon="0.91498">
        <ele>595</ele>
        <time>2021-03-13T12:44:59Z</time>
      </trkpt>
      <trkpt lat="43.00193" lon="0.91504">
        <ele>594</ele>
        <time>2021-03-13T12:45:00Z</time>
      </trkpt>
      <trkpt lat="43.00193" lon="0.91504">
        <ele>594</ele>
        <time>2021-03-13T12:45:01Z</time>
      </trkpt>
      <trkpt lat="43.00187" lon="0.91515">
        <ele>594</ele>
        <time>2021-03-13T12:45:02Z</time>
      </trkpt>
      <trkpt lat="43.00187" lon="0.91515">
        <ele>594</ele>
        <time>2021-03-13T12:45:03Z</time>
      </trkpt>
      <trkpt lat="43.00183" lon="0.91524">
        <ele>594</ele>
        <time>2021-03-13T12:45:04Z</time>
      </trkpt>
      <trkpt lat="43.00183" lon="0.91524">
        <ele>594</ele>
        <time>2021-03-13T12:45:05Z</time>
      </trkpt>
      <trkpt lat="43.00179" lon="0.91534">
        <ele>594</ele>
        <time>2021-03-13T12:45:06Z</time>
      </trkpt>
      <trkpt lat="43.00179" lon="0.91534">
        <ele>594</ele>
        <time>2021-03-13T12:45:07Z</time>
      </trkpt>
      <trkpt lat="43.00178" lon="0.91545">
        <ele>594</ele>
        <time>2021-03-13T12:45:08Z</time>
      </trkpt>
      <trkpt lat="43.00178" lon="0.91545">
        <ele>594</ele>
        <time>2021-03-13T12:45:09Z</time>
      </trkpt>
      <trkpt lat="43.00176" lon="0.91555">
        <ele>594</ele>
        <time>2021-03-13T12:45:10Z</time>
      </trkpt>
      <trkpt lat="43.00176" lon="0.91555">
        <ele>594</ele>
        <time>2021-03-13T12:45:11Z</time>
      </trkpt>
      <trkpt lat="43.00174" lon="0.91565">
        <ele>594</ele>
        <time>2021-03-13T12:45:12Z</time>
      </trkpt>
      <trkpt lat="43.00174" lon="0.91565">
        <ele>594</ele>
        <time>2021-03-13T12:45:13Z</time>
      </trkpt>
      <trkpt lat="43.00177" lon="0.91574">
        <ele>594</ele>
        <time>2021-03-13T12:45:14Z</time>
      </trkpt>
      <trkpt lat="43.00177" lon="0.91574">
        <ele>594</ele>
        <time>2021-03-13T12:45:15Z</time>
      </trkpt>
      <trkpt lat="43.00181" lon="0.91582">
        <ele>594</ele>
        <time>2021-03-13T12:45:16Z</time>
      </trkpt>
      <trkpt lat="43.00181" lon="0.91582">
        <ele>594</ele>
        <time>2021-03-13T12:45:17Z</time>
      </trkpt>
      <trkpt lat="43.00182" lon="0.91587">
        <ele>594</ele>
        <time>2021-03-13T12:45:18Z</time>
      </trkpt>
      <trkpt lat="43.00184" lon="0.91591">
        <ele>594</ele>
        <time>2021-03-13T12:45:19Z</time>
      </trkpt>
      <trkpt lat="43.00186" lon="0.91595">
        <ele>593</ele>
        <time>2021-03-13T12:45:20Z</time>
      </trkpt>
      <trkpt lat="43.00193" lon="0.916">
        <ele>593</ele>
        <time>2021-03-13T12:45:21Z</time>
      </trkpt>
      <trkpt lat="43.00193" lon="0.916">
        <ele>593</ele>
        <time>2021-03-13T12:45:22Z</time>
      </trkpt>
      <trkpt lat="43.002" lon="0.91605">
        <ele>593</ele>
        <time>2021-03-13T12:45:23Z</time>
      </trkpt>
      <trkpt lat="43.002" lon="0.91605">
        <ele>593</ele>
        <time>2021-03-13T12:45:24Z</time>
      </trkpt>
      <trkpt lat="43.00209" lon="0.91611">
        <ele>593</ele>
        <time>2021-03-13T12:45:25Z</time>
      </trkpt>
      <trkpt lat="43.00209" lon="0.91611">
        <ele>593</ele>
        <time>2021-03-13T12:45:26Z</time>
      </trkpt>
      <trkpt lat="43.00217" lon="0.91615">
        <ele>593</ele>
        <time>2021-03-13T12:45:27Z</time>
      </trkpt>
      <trkpt lat="43.00217" lon="0.91615">
        <ele>593</ele>
        <time>2021-03-13T12:45:28Z</time>
      </trkpt>
      <trkpt lat="43.00225" lon="0.91619">
        <ele>593</ele>
        <time>2021-03-13T12:45:29Z</time>
      </trkpt>
      <trkpt lat="43.00225" lon="0.91619">
        <ele>593</ele>
        <time>2021-03-13T12:45:30Z</time>
      </trkpt>
      <trkpt lat="43.00233" lon="0.91624">
        <ele>593</ele>
        <time>2021-03-13T12:45:31Z</time>
      </trkpt>
      <trkpt lat="43.00233" lon="0.91624">
        <ele>593</ele>
        <time>2021-03-13T12:45:32Z</time>
      </trkpt>
      <trkpt lat="43.0024" lon="0.91631">
        <ele>593</ele>
        <time>2021-03-13T12:45:33Z</time>
      </trkpt>
      <trkpt lat="43.0024" lon="0.91631">
        <ele>593</ele>
        <time>2021-03-13T12:45:34Z</time>
      </trkpt>
      <trkpt lat="43.00246" lon="0.91648">
        <ele>593</ele>
        <time>2021-03-13T12:45:35Z</time>
      </trkpt>
      <trkpt lat="43.00246" lon="0.91652">
        <ele>593</ele>
        <time>2021-03-13T12:45:36Z</time>
      </trkpt>
      <trkpt lat="43.00248" lon="0.91662">
        <ele>593</ele>
        <time>2021-03-13T12:45:37Z</time>
      </trkpt>
      <trkpt lat="43.00249" lon="0.91665">
        <ele>593</ele>
        <time>2021-03-13T12:45:38Z</time>
      </trkpt>
      <trkpt lat="43.0025" lon="0.91671">
        <ele>593</ele>
        <time>2021-03-13T12:45:39Z</time>
      </trkpt>
      <trkpt lat="43.0025" lon="0.91671">
        <ele>592</ele>
        <time>2021-03-13T12:45:40Z</time>
      </trkpt>
      <trkpt lat="43.00251" lon="0.91673">
        <ele>592</ele>
        <time>2021-03-13T12:45:41Z</time>
      </trkpt>
      <trkpt lat="43.00252" lon="0.91675">
        <ele>592</ele>
        <time>2021-03-13T12:45:42Z</time>
      </trkpt>
      <trkpt lat="43.00252" lon="0.91677">
        <ele>592</ele>
        <time>2021-03-13T12:45:43Z</time>
      </trkpt>
      <trkpt lat="43.00253" lon="0.9168">
        <ele>592</ele>
        <time>2021-03-13T12:45:44Z</time>
      </trkpt>
      <trkpt lat="43.00253" lon="0.91683">
        <ele>592</ele>
        <time>2021-03-13T12:45:45Z</time>
      </trkpt>
      <trkpt lat="43.00253" lon="0.91686">
        <ele>592</ele>
        <time>2021-03-13T12:45:46Z</time>
      </trkpt>
      <trkpt lat="43.00254" lon="0.91689">
        <ele>592</ele>
        <time>2021-03-13T12:45:47Z</time>
      </trkpt>
      <trkpt lat="43.00254" lon="0.91692">
        <ele>592</ele>
        <time>2021-03-13T12:45:48Z</time>
      </trkpt>
      <trkpt lat="43.00253" lon="0.91696">
        <ele>592</ele>
        <time>2021-03-13T12:45:49Z</time>
      </trkpt>
      <trkpt lat="43.00252" lon="0.917">
        <ele>590</ele>
        <time>2021-03-13T12:45:50Z</time>
      </trkpt>
      <trkpt lat="43.00251" lon="0.91703">
        <ele>590</ele>
        <time>2021-03-13T12:45:51Z</time>
      </trkpt>
      <trkpt lat="43.00251" lon="0.91707">
        <ele>590</ele>
        <time>2021-03-13T12:45:52Z</time>
      </trkpt>
      <trkpt lat="43.00248" lon="0.91712">
        <ele>590</ele>
        <time>2021-03-13T12:45:53Z</time>
      </trkpt>
      <trkpt lat="43.00246" lon="0.91717">
        <ele>590</ele>
        <time>2021-03-13T12:45:54Z</time>
      </trkpt>
      <trkpt lat="43.00244" lon="0.91722">
        <ele>590</ele>
        <time>2021-03-13T12:45:55Z</time>
      </trkpt>
      <trkpt lat="43.00244" lon="0.91731">
        <ele>590</ele>
        <time>2021-03-13T12:45:56Z</time>
      </trkpt>
      <trkpt lat="43.00244" lon="0.9174">
        <ele>590</ele>
        <time>2021-03-13T12:45:57Z</time>
      </trkpt>
      <trkpt lat="43.00244" lon="0.91749">
        <ele>590</ele>
        <time>2021-03-13T12:45:58Z</time>
      </trkpt>
      <trkpt lat="43.00246" lon="0.9176">
        <ele>590</ele>
        <time>2021-03-13T12:45:59Z</time>
      </trkpt>
      <trkpt lat="43.00248" lon="0.91763">
        <ele>584</ele>
        <time>2021-03-13T12:46:00Z</time>
      </trkpt>
      <trkpt lat="43.0025" lon="0.91769">
        <ele>584</ele>
        <time>2021-03-13T12:46:01Z</time>
      </trkpt>
      <trkpt lat="43.0025" lon="0.91769">
        <ele>583</ele>
        <time>2021-03-13T12:46:02Z</time>
      </trkpt>
      <trkpt lat="43.00254" lon="0.91786">
        <ele>582</ele>
        <time>2021-03-13T12:46:03Z</time>
      </trkpt>
      <trkpt lat="43.00254" lon="0.9179">
        <ele>582</ele>
        <time>2021-03-13T12:46:04Z</time>
      </trkpt>
      <trkpt lat="43.00256" lon="0.91801">
        <ele>582</ele>
        <time>2021-03-13T12:46:05Z</time>
      </trkpt>
      <trkpt lat="43.00256" lon="0.91805">
        <ele>581</ele>
        <time>2021-03-13T12:46:06Z</time>
      </trkpt>
      <trkpt lat="43.00257" lon="0.91812">
        <ele>580</ele>
        <time>2021-03-13T12:46:07Z</time>
      </trkpt>
      <trkpt lat="43.00257" lon="0.91812">
        <ele>580</ele>
        <time>2021-03-13T12:46:08Z</time>
      </trkpt>
      <trkpt lat="43.00258" lon="0.91818">
        <ele>580</ele>
        <time>2021-03-13T12:46:09Z</time>
      </trkpt>
      <trkpt lat="43.00258" lon="0.91824">
        <ele>579</ele>
        <time>2021-03-13T12:46:10Z</time>
      </trkpt>
      <trkpt lat="43.00258" lon="0.9183">
        <ele>578</ele>
        <time>2021-03-13T12:46:11Z</time>
      </trkpt>
      <trkpt lat="43.00258" lon="0.91835">
        <ele>579</ele>
        <time>2021-03-13T12:46:12Z</time>
      </trkpt>
      <trkpt lat="43.00259" lon="0.9184">
        <ele>578</ele>
        <time>2021-03-13T12:46:13Z</time>
      </trkpt>
      <trkpt lat="43.00259" lon="0.91846">
        <ele>577</ele>
        <time>2021-03-13T12:46:14Z</time>
      </trkpt>
      <trkpt lat="43.00258" lon="0.91845">
        <ele>577</ele>
        <time>2021-03-13T12:46:15Z</time>
      </trkpt>
      <trkpt lat="43.00257" lon="0.91844">
        <ele>577</ele>
        <time>2021-03-13T12:46:16Z</time>
      </trkpt>
      <trkpt lat="43.00256" lon="0.91843">
        <ele>576</ele>
        <time>2021-03-13T12:46:17Z</time>
      </trkpt>
      <trkpt lat="43.00255" lon="0.91842">
        <ele>575</ele>
        <time>2021-03-13T12:46:18Z</time>
      </trkpt>
      <trkpt lat="43.00254" lon="0.91841">
        <ele>574</ele>
        <time>2021-03-13T12:46:19Z</time>
      </trkpt>
      <trkpt lat="43.00253" lon="0.9184">
        <ele>574</ele>
        <time>2021-03-13T12:46:20Z</time>
      </trkpt>
      <trkpt lat="43.00252" lon="0.91839">
        <ele>574</ele>
        <time>2021-03-13T12:46:21Z</time>
      </trkpt>
      <trkpt lat="43.00251" lon="0.91838">
        <ele>574</ele>
        <time>2021-03-13T12:46:22Z</time>
      </trkpt>
      <trkpt lat="43.0025" lon="0.91832">
        <ele>574</ele>
        <time>2021-03-13T12:46:23Z</time>
      </trkpt>
      <trkpt lat="43.0025" lon="0.91827">
        <ele>574</ele>
        <time>2021-03-13T12:46:24Z</time>
      </trkpt>
      <trkpt lat="43.00249" lon="0.91822">
        <ele>574</ele>
        <time>2021-03-13T12:46:25Z</time>
      </trkpt>
      <trkpt lat="43.00249" lon="0.91816">
        <ele>574</ele>
        <time>2021-03-13T12:46:26Z</time>
      </trkpt>
      <trkpt lat="43.00249" lon="0.9181">
        <ele>574</ele>
        <time>2021-03-13T12:46:27Z</time>
      </trkpt>
      <trkpt lat="43.00249" lon="0.91805">
        <ele>574</ele>
        <time>2021-03-13T12:46:28Z</time>
      </trkpt>
      <trkpt lat="43.00248" lon="0.918">
        <ele>574</ele>
        <time>2021-03-13T12:46:29Z</time>
      </trkpt>
      <trkpt lat="43.00247" lon="0.91794">
        <ele>573</ele>
        <time>2021-03-13T12:46:30Z</time>
      </trkpt>
      <trkpt lat="43.00247" lon="0.91789">
        <ele>573</ele>
        <time>2021-03-13T12:46:31Z</time>
      </trkpt>
      <trkpt lat="43.00244" lon="0.91786">
        <ele>573</ele>
        <time>2021-03-13T12:46:32Z</time>
      </trkpt>
      <trkpt lat="43.00241" lon="0.91782">
        <ele>573</ele>
        <time>2021-03-13T12:46:33Z</time>
      </trkpt>
      <trkpt lat="43.00238" lon="0.91778">
        <ele>573</ele>
        <time>2021-03-13T12:46:34Z</time>
      </trkpt>
      <trkpt lat="43.00234" lon="0.91772">
        <ele>573</ele>
        <time>2021-03-13T12:46:35Z</time>
      </trkpt>
      <trkpt lat="43.00229" lon="0.91766">
        <ele>573</ele>
        <time>2021-03-13T12:46:36Z</time>
      </trkpt>
      <trkpt lat="43.00224" lon="0.9176">
        <ele>573</ele>
        <time>2021-03-13T12:46:37Z</time>
      </trkpt>
      <trkpt lat="43.00221" lon="0.9175">
        <ele>573</ele>
        <time>2021-03-13T12:46:38Z</time>
      </trkpt>
      <trkpt lat="43.0022" lon="0.91746">
        <ele>573</ele>
        <time>2021-03-13T12:46:39Z</time>
      </trkpt>
      <trkpt lat="43.00218" lon="0.91734">
        <ele>570</ele>
        <time>2021-03-13T12:46:40Z</time>
      </trkpt>
      <trkpt lat="43.00218" lon="0.9173">
        <ele>570</ele>
        <time>2021-03-13T12:46:41Z</time>
      </trkpt>
      <trkpt lat="43.00217" lon="0.91718">
        <ele>570</ele>
        <time>2021-03-13T12:46:42Z</time>
      </trkpt>
      <trkpt lat="43.00216" lon="0.91715">
        <ele>570</ele>
        <time>2021-03-13T12:46:43Z</time>
      </trkpt>
      <trkpt lat="43.00215" lon="0.91703">
        <ele>570</ele>
        <time>2021-03-13T12:46:44Z</time>
      </trkpt>
      <trkpt lat="43.00215" lon="0.917">
        <ele>568</ele>
        <time>2021-03-13T12:46:45Z</time>
      </trkpt>
      <trkpt lat="43.00212" lon="0.91689">
        <ele>568</ele>
        <time>2021-03-13T12:46:46Z</time>
      </trkpt>
      <trkpt lat="43.00211" lon="0.91686">
        <ele>568</ele>
        <time>2021-03-13T12:46:47Z</time>
      </trkpt>
      <trkpt lat="43.00207" lon="0.91676">
        <ele>568</ele>
        <time>2021-03-13T12:46:48Z</time>
      </trkpt>
      <trkpt lat="43.00205" lon="0.91673">
        <ele>568</ele>
        <time>2021-03-13T12:46:49Z</time>
      </trkpt>
      <trkpt lat="43.00202" lon="0.91668">
        <ele>566</ele>
        <time>2021-03-13T12:46:50Z</time>
      </trkpt>
      <trkpt lat="43.00202" lon="0.91668">
        <ele>566</ele>
        <time>2021-03-13T12:46:51Z</time>
      </trkpt>
      <trkpt lat="43.00194" lon="0.91658">
        <ele>566</ele>
        <time>2021-03-13T12:46:52Z</time>
      </trkpt>
      <trkpt lat="43.00194" lon="0.91658">
        <ele>566</ele>
        <time>2021-03-13T12:46:53Z</time>
      </trkpt>
      <trkpt lat="43.0019" lon="0.91655">
        <ele>566</ele>
        <time>2021-03-13T12:46:54Z</time>
      </trkpt>
      <trkpt lat="43.00186" lon="0.91652">
        <ele>563</ele>
        <time>2021-03-13T12:46:55Z</time>
      </trkpt>
      <trkpt lat="43.00182" lon="0.91649">
        <ele>563</ele>
        <time>2021-03-13T12:46:56Z</time>
      </trkpt>
      <trkpt lat="43.00176" lon="0.91647">
        <ele>563</ele>
        <time>2021-03-13T12:46:57Z</time>
      </trkpt>
      <trkpt lat="43.00169" lon="0.91644">
        <ele>563</ele>
        <time>2021-03-13T12:46:58Z</time>
      </trkpt>
      <trkpt lat="43.00163" lon="0.91642">
        <ele>563</ele>
        <time>2021-03-13T12:46:59Z</time>
      </trkpt>
      <trkpt lat="43.00155" lon="0.91637">
        <ele>559</ele>
        <time>2021-03-13T12:47:00Z</time>
      </trkpt>
      <trkpt lat="43.00152" lon="0.91635">
        <ele>559</ele>
        <time>2021-03-13T12:47:01Z</time>
      </trkpt>
      <trkpt lat="43.00145" lon="0.91629">
        <ele>559</ele>
        <time>2021-03-13T12:47:02Z</time>
      </trkpt>
      <trkpt lat="43.00143" lon="0.91627">
        <ele>559</ele>
        <time>2021-03-13T12:47:03Z</time>
      </trkpt>
      <trkpt lat="43.00136" lon="0.91621">
        <ele>559</ele>
        <time>2021-03-13T12:47:04Z</time>
      </trkpt>
      <trkpt lat="43.00134" lon="0.91619">
        <ele>559</ele>
        <time>2021-03-13T12:47:05Z</time>
      </trkpt>
      <trkpt lat="43.00127" lon="0.91614">
        <ele>558</ele>
        <time>2021-03-13T12:47:06Z</time>
      </trkpt>
      <trkpt lat="43.00124" lon="0.91613">
        <ele>558</ele>
        <time>2021-03-13T12:47:07Z</time>
      </trkpt>
      <trkpt lat="43.00119" lon="0.91611">
        <ele>556</ele>
        <time>2021-03-13T12:47:08Z</time>
      </trkpt>
      <trkpt lat="43.00119" lon="0.91611">
        <ele>555</ele>
        <time>2021-03-13T12:47:09Z</time>
      </trkpt>
      <trkpt lat="43.00114" lon="0.91607">
        <ele>554</ele>
        <time>2021-03-13T12:47:10Z</time>
      </trkpt>
      <trkpt lat="43.00108" lon="0.91604">
        <ele>554</ele>
        <time>2021-03-13T12:47:11Z</time>
      </trkpt>
      <trkpt lat="43.00103" lon="0.916">
        <ele>554</ele>
        <time>2021-03-13T12:47:12Z</time>
      </trkpt>
      <trkpt lat="43.001" lon="0.91595">
        <ele>554</ele>
        <time>2021-03-13T12:47:13Z</time>
      </trkpt>
      <trkpt lat="43.001" lon="0.91595">
        <ele>554</ele>
        <time>2021-03-13T12:47:14Z</time>
      </trkpt>
      <trkpt lat="43.00095" lon="0.91583">
        <ele>553</ele>
        <time>2021-03-13T12:47:15Z</time>
      </trkpt>
      <trkpt lat="43.00095" lon="0.91583">
        <ele>553</ele>
        <time>2021-03-13T12:47:16Z</time>
      </trkpt>
      <trkpt lat="43.00091" lon="0.91563">
        <ele>553</ele>
        <time>2021-03-13T12:47:17Z</time>
      </trkpt>
      <trkpt lat="43.0009" lon="0.91559">
        <ele>553</ele>
        <time>2021-03-13T12:47:18Z</time>
      </trkpt>
      <trkpt lat="43.00088" lon="0.91547">
        <ele>553</ele>
        <time>2021-03-13T12:47:19Z</time>
      </trkpt>
      <trkpt lat="43.00088" lon="0.91543">
        <ele>552</ele>
        <time>2021-03-13T12:47:20Z</time>
      </trkpt>
      <trkpt lat="43.00086" lon="0.91531">
        <ele>552</ele>
        <time>2021-03-13T12:47:21Z</time>
      </trkpt>
      <trkpt lat="43.00086" lon="0.91528">
        <ele>552</ele>
        <time>2021-03-13T12:47:22Z</time>
      </trkpt>
      <trkpt lat="43.00085" lon="0.91521">
        <ele>552</ele>
        <time>2021-03-13T12:47:23Z</time>
      </trkpt>
      <trkpt lat="43.00085" lon="0.91521">
        <ele>552</ele>
        <time>2021-03-13T12:47:24Z</time>
      </trkpt>
      <trkpt lat="43.00081" lon="0.91511">
        <ele>550</ele>
        <time>2021-03-13T12:47:25Z</time>
      </trkpt>
      <trkpt lat="43.00081" lon="0.91511">
        <ele>550</ele>
        <time>2021-03-13T12:47:26Z</time>
      </trkpt>
      <trkpt lat="43.00071" lon="0.91496">
        <ele>550</ele>
        <time>2021-03-13T12:47:27Z</time>
      </trkpt>
      <trkpt lat="43.0007" lon="0.91495">
        <ele>550</ele>
        <time>2021-03-13T12:47:28Z</time>
      </trkpt>
      <trkpt lat="43.00068" lon="0.91491">
        <ele>550</ele>
        <time>2021-03-13T12:47:29Z</time>
      </trkpt>
      <trkpt lat="43.00059" lon="0.91477">
        <ele>546</ele>
        <time>2021-03-13T12:47:30Z</time>
      </trkpt>
      <trkpt lat="43.00057" lon="0.91474">
        <ele>544</ele>
        <time>2021-03-13T12:47:31Z</time>
      </trkpt>
      <trkpt lat="43.00051" lon="0.91467">
        <ele>544</ele>
        <time>2021-03-13T12:47:32Z</time>
      </trkpt>
      <trkpt lat="43.00048" lon="0.91466">
        <ele>543</ele>
        <time>2021-03-13T12:47:33Z</time>
      </trkpt>
      <trkpt lat="43.00042" lon="0.91461">
        <ele>542</ele>
        <time>2021-03-13T12:47:34Z</time>
      </trkpt>
      <trkpt lat="43.00039" lon="0.91459">
        <ele>541</ele>
        <time>2021-03-13T12:47:35Z</time>
      </trkpt>
      <trkpt lat="43.00034" lon="0.91457">
        <ele>539</ele>
        <time>2021-03-13T12:47:36Z</time>
      </trkpt>
      <trkpt lat="43.00034" lon="0.91457">
        <ele>538</ele>
        <time>2021-03-13T12:47:37Z</time>
      </trkpt>
      <trkpt lat="43.00025" lon="0.91453">
        <ele>537</ele>
        <time>2021-03-13T12:47:38Z</time>
      </trkpt>
      <trkpt lat="43.00025" lon="0.91453">
        <ele>537</ele>
        <time>2021-03-13T12:47:39Z</time>
      </trkpt>
      <trkpt lat="43.00014" lon="0.91445">
        <ele>536</ele>
        <time>2021-03-13T12:47:40Z</time>
      </trkpt>
      <trkpt lat="43.00012" lon="0.91443">
        <ele>536</ele>
        <time>2021-03-13T12:47:41Z</time>
      </trkpt>
      <trkpt lat="43.00008" lon="0.91439">
        <ele>536</ele>
        <time>2021-03-13T12:47:42Z</time>
      </trkpt>
      <trkpt lat="43.00008" lon="0.91439">
        <ele>535</ele>
        <time>2021-03-13T12:47:43Z</time>
      </trkpt>
      <trkpt lat="42.99997" lon="0.91426">
        <ele>535</ele>
        <time>2021-03-13T12:47:44Z</time>
      </trkpt>
      <trkpt lat="42.99995" lon="0.91422">
        <ele>534</ele>
        <time>2021-03-13T12:47:45Z</time>
      </trkpt>
      <trkpt lat="42.99989" lon="0.91413">
        <ele>532</ele>
        <time>2021-03-13T12:47:46Z</time>
      </trkpt>
      <trkpt lat="42.99987" lon="0.91409">
        <ele>531</ele>
        <time>2021-03-13T12:47:47Z</time>
      </trkpt>
      <trkpt lat="42.99982" lon="0.91399">
        <ele>531</ele>
        <time>2021-03-13T12:47:48Z</time>
      </trkpt>
      <trkpt lat="42.9998" lon="0.91395">
        <ele>530</ele>
        <time>2021-03-13T12:47:49Z</time>
      </trkpt>
      <trkpt lat="42.99977" lon="0.91383">
        <ele>530</ele>
        <time>2021-03-13T12:47:50Z</time>
      </trkpt>
      <trkpt lat="42.99975" lon="0.9138">
        <ele>529</ele>
        <time>2021-03-13T12:47:51Z</time>
      </trkpt>
      <trkpt lat="42.99972" lon="0.91369">
        <ele>528</ele>
        <time>2021-03-13T12:47:52Z</time>
      </trkpt>
      <trkpt lat="42.99972" lon="0.91365">
        <ele>527</ele>
        <time>2021-03-13T12:47:53Z</time>
      </trkpt>
      <trkpt lat="42.9997" lon="0.91353">
        <ele>526</ele>
        <time>2021-03-13T12:47:54Z</time>
      </trkpt>
      <trkpt lat="42.9997" lon="0.91348">
        <ele>525</ele>
        <time>2021-03-13T12:47:55Z</time>
      </trkpt>
      <trkpt lat="42.99971" lon="0.91333">
        <ele>524</ele>
        <time>2021-03-13T12:47:56Z</time>
      </trkpt>
      <trkpt lat="42.99971" lon="0.91329">
        <ele>524</ele>
        <time>2021-03-13T12:47:57Z</time>
      </trkpt>
      <trkpt lat="42.99971" lon="0.91317">
        <ele>524</ele>
        <time>2021-03-13T12:47:58Z</time>
      </trkpt>
      <trkpt lat="42.99971" lon="0.91313">
        <ele>524</ele>
        <time>2021-03-13T12:47:59Z</time>
      </trkpt>
      <trkpt lat="42.99971" lon="0.91301">
        <ele>522</ele>
        <time>2021-03-13T12:48:00Z</time>
      </trkpt>
      <trkpt lat="42.99971" lon="0.91296">
        <ele>522</ele>
        <time>2021-03-13T12:48:01Z</time>
      </trkpt>
      <trkpt lat="42.99971" lon="0.91285">
        <ele>522</ele>
        <time>2021-03-13T12:48:02Z</time>
      </trkpt>
      <trkpt lat="42.99971" lon="0.91282">
        <ele>521</ele>
        <time>2021-03-13T12:48:03Z</time>
      </trkpt>
      <trkpt lat="42.99971" lon="0.91277">
        <ele>520</ele>
        <time>2021-03-13T12:48:04Z</time>
      </trkpt>
      <trkpt lat="42.99973" lon="0.91255">
        <ele>520</ele>
        <time>2021-03-13T12:48:05Z</time>
      </trkpt>
      <trkpt lat="42.99973" lon="0.91251">
        <ele>519</ele>
        <time>2021-03-13T12:48:06Z</time>
      </trkpt>
      <trkpt lat="42.99973" lon="0.91239">
        <ele>519</ele>
        <time>2021-03-13T12:48:07Z</time>
      </trkpt>
      <trkpt lat="42.99973" lon="0.91234">
        <ele>518</ele>
        <time>2021-03-13T12:48:08Z</time>
      </trkpt>
      <trkpt lat="42.99974" lon="0.91222">
        <ele>517</ele>
        <time>2021-03-13T12:48:09Z</time>
      </trkpt>
      <trkpt lat="42.99974" lon="0.91218">
        <ele>516</ele>
        <time>2021-03-13T12:48:10Z</time>
      </trkpt>
      <trkpt lat="42.99976" lon="0.91206">
        <ele>516</ele>
        <time>2021-03-13T12:48:11Z</time>
      </trkpt>
      <trkpt lat="42.99977" lon="0.91202">
        <ele>515</ele>
        <time>2021-03-13T12:48:12Z</time>
      </trkpt>
      <trkpt lat="42.99979" lon="0.91191">
        <ele>514</ele>
        <time>2021-03-13T12:48:13Z</time>
      </trkpt>
      <trkpt lat="42.9998" lon="0.91188">
        <ele>513</ele>
        <time>2021-03-13T12:48:14Z</time>
      </trkpt>
      <trkpt lat="42.99983" lon="0.91177">
        <ele>513</ele>
        <time>2021-03-13T12:48:15Z</time>
      </trkpt>
      <trkpt lat="42.99984" lon="0.91173">
        <ele>513</ele>
        <time>2021-03-13T12:48:16Z</time>
      </trkpt>
      <trkpt lat="42.99988" lon="0.91162">
        <ele>512</ele>
        <time>2021-03-13T12:48:17Z</time>
      </trkpt>
      <trkpt lat="42.9999" lon="0.91158">
        <ele>512</ele>
        <time>2021-03-13T12:48:18Z</time>
      </trkpt>
      <trkpt lat="42.99995" lon="0.91146">
        <ele>511</ele>
        <time>2021-03-13T12:48:19Z</time>
      </trkpt>
      <trkpt lat="42.99996" lon="0.91143">
        <ele>510</ele>
        <time>2021-03-13T12:48:20Z</time>
      </trkpt>
      <trkpt lat="43" lon="0.91133">
        <ele>510</ele>
        <time>2021-03-13T12:48:21Z</time>
      </trkpt>
      <trkpt lat="43.00001" lon="0.91129">
        <ele>510</ele>
        <time>2021-03-13T12:48:22Z</time>
      </trkpt>
      <trkpt lat="43.00005" lon="0.91118">
        <ele>509</ele>
        <time>2021-03-13T12:48:23Z</time>
      </trkpt>
      <trkpt lat="43.00007" lon="0.91114">
        <ele>509</ele>
        <time>2021-03-13T12:48:24Z</time>
      </trkpt>
      <trkpt lat="43.00011" lon="0.91105">
        <ele>508</ele>
        <time>2021-03-13T12:48:25Z</time>
      </trkpt>
      <trkpt lat="43.00013" lon="0.91101">
        <ele>507</ele>
        <time>2021-03-13T12:48:26Z</time>
      </trkpt>
      <trkpt lat="43.00017" lon="0.91092">
        <ele>506</ele>
        <time>2021-03-13T12:48:27Z</time>
      </trkpt>
      <trkpt lat="43.00018" lon="0.9109">
        <ele>505</ele>
        <time>2021-03-13T12:48:28Z</time>
      </trkpt>
      <trkpt lat="43.0002" lon="0.91085">
        <ele>505</ele>
        <time>2021-03-13T12:48:29Z</time>
      </trkpt>
      <trkpt lat="43.0002" lon="0.91085">
        <ele>504</ele>
        <time>2021-03-13T12:48:30Z</time>
      </trkpt>
      <trkpt lat="43.00024" lon="0.9108">
        <ele>504</ele>
        <time>2021-03-13T12:48:31Z</time>
      </trkpt>
      <trkpt lat="43.00027" lon="0.91075">
        <ele>503</ele>
        <time>2021-03-13T12:48:32Z</time>
      </trkpt>
      <trkpt lat="43.00031" lon="0.9107">
        <ele>502</ele>
        <time>2021-03-13T12:48:33Z</time>
      </trkpt>
      <trkpt lat="43.00035" lon="0.91067">
        <ele>502</ele>
        <time>2021-03-13T12:48:34Z</time>
      </trkpt>
      <trkpt lat="43.00039" lon="0.91064">
        <ele>501</ele>
        <time>2021-03-13T12:48:35Z</time>
      </trkpt>
      <trkpt lat="43.00043" lon="0.91061">
        <ele>501</ele>
        <time>2021-03-13T12:48:36Z</time>
      </trkpt>
      <trkpt lat="43.00041" lon="0.91062">
        <ele>501</ele>
        <time>2021-03-13T12:48:37Z</time>
      </trkpt>
      <trkpt lat="43.00039" lon="0.91063">
        <ele>501</ele>
        <time>2021-03-13T12:48:38Z</time>
      </trkpt>
      <trkpt lat="43.00036" lon="0.91063">
        <ele>501</ele>
        <time>2021-03-13T12:48:39Z</time>
      </trkpt>
      <trkpt lat="43.00034" lon="0.91064">
        <ele>500</ele>
        <time>2021-03-13T12:48:40Z</time>
      </trkpt>
      <trkpt lat="43.00032" lon="0.91064">
        <ele>500</ele>
        <time>2021-03-13T12:48:41Z</time>
      </trkpt>
      <trkpt lat="43.0003" lon="0.91065">
        <ele>500</ele>
        <time>2021-03-13T12:48:42Z</time>
      </trkpt>
      <trkpt lat="43.00028" lon="0.91065">
        <ele>500</ele>
        <time>2021-03-13T12:48:43Z</time>
      </trkpt>
      <trkpt lat="43.00021" lon="0.91073">
        <ele>500</ele>
        <time>2021-03-13T12:48:44Z</time>
      </trkpt>
      <trkpt lat="43.00018" lon="0.91075">
        <ele>498</ele>
        <time>2021-03-13T12:48:45Z</time>
      </trkpt>
      <trkpt lat="43.00011" lon="0.91082">
        <ele>498</ele>
        <time>2021-03-13T12:48:46Z</time>
      </trkpt>
      <trkpt lat="43.00009" lon="0.91085">
        <ele>498</ele>
        <time>2021-03-13T12:48:47Z</time>
      </trkpt>
      <trkpt lat="43.00003" lon="0.91093">
        <ele>498</ele>
        <time>2021-03-13T12:48:48Z</time>
      </trkpt>
      <trkpt lat="43.00001" lon="0.91095">
        <ele>498</ele>
        <time>2021-03-13T12:48:49Z</time>
      </trkpt>
      <trkpt lat="42.99997" lon="0.911">
        <ele>496</ele>
        <time>2021-03-13T12:48:50Z</time>
      </trkpt>
      <trkpt lat="42.99997" lon="0.911">
        <ele>496</ele>
        <time>2021-03-13T12:48:51Z</time>
      </trkpt>
      <trkpt lat="42.99995" lon="0.91099">
        <ele>496</ele>
        <time>2021-03-13T12:48:52Z</time>
      </trkpt>
      <trkpt lat="42.99992" lon="0.91098">
        <ele>496</ele>
        <time>2021-03-13T12:48:53Z</time>
      </trkpt>
      <trkpt lat="42.9999" lon="0.91098">
        <ele>496</ele>
        <time>2021-03-13T12:48:54Z</time>
      </trkpt>
      <trkpt lat="42.99987" lon="0.91097">
        <ele>493</ele>
        <time>2021-03-13T12:48:55Z</time>
      </trkpt>
      <trkpt lat="42.9999" lon="0.91089">
        <ele>493</ele>
        <time>2021-03-13T12:48:56Z</time>
      </trkpt>
      <trkpt lat="42.99994" lon="0.91082">
        <ele>493</ele>
        <time>2021-03-13T12:48:57Z</time>
      </trkpt>
      <trkpt lat="42.99997" lon="0.91074">
        <ele>493</ele>
        <time>2021-03-13T12:48:58Z</time>
      </trkpt>
      <trkpt lat="43" lon="0.91067">
        <ele>493</ele>
        <time>2021-03-13T12:48:59Z</time>
      </trkpt>
      <trkpt lat="43" lon="0.91067">
        <ele>490</ele>
        <time>2021-03-13T12:49:00Z</time>
      </trkpt>
      <trkpt lat="43.00002" lon="0.9106">
        <ele>490</ele>
        <time>2021-03-13T12:49:01Z</time>
      </trkpt>
      <trkpt lat="43.00005" lon="0.91053">
        <ele>489</ele>
        <time>2021-03-13T12:49:02Z</time>
      </trkpt>
      <trkpt lat="43.00007" lon="0.91046">
        <ele>488</ele>
        <time>2021-03-13T12:49:03Z</time>
      </trkpt>
      <trkpt lat="43.00009" lon="0.9104">
        <ele>487</ele>
        <time>2021-03-13T12:49:04Z</time>
      </trkpt>
      <trkpt lat="43.00009" lon="0.9104">
        <ele>486</ele>
        <time>2021-03-13T12:49:05Z</time>
      </trkpt>
      <trkpt lat="43.00014" lon="0.91028">
        <ele>486</ele>
        <time>2021-03-13T12:49:06Z</time>
      </trkpt>
      <trkpt lat="43.00014" lon="0.91028">
        <ele>485</ele>
        <time>2021-03-13T12:49:07Z</time>
      </trkpt>
      <trkpt lat="43.00018" lon="0.91015">
        <ele>484</ele>
        <time>2021-03-13T12:49:08Z</time>
      </trkpt>
      <trkpt lat="43.00018" lon="0.91015">
        <ele>482</ele>
        <time>2021-03-13T12:49:09Z</time>
      </trkpt>
      <trkpt lat="43.00022" lon="0.91006">
        <ele>481</ele>
        <time>2021-03-13T12:49:10Z</time>
      </trkpt>
      <trkpt lat="43.00025" lon="0.90998">
        <ele>480</ele>
        <time>2021-03-13T12:49:11Z</time>
      </trkpt>
      <trkpt lat="43.00028" lon="0.9099">
        <ele>480</ele>
        <time>2021-03-13T12:49:12Z</time>
      </trkpt>
      <trkpt lat="43.00031" lon="0.90983">
        <ele>479</ele>
        <time>2021-03-13T12:49:13Z</time>
      </trkpt>
      <trkpt lat="43.00031" lon="0.90983">
        <ele>478</ele>
        <time>2021-03-13T12:49:14Z</time>
      </trkpt>
      <trkpt lat="43.00034" lon="0.90976">
        <ele>477</ele>
        <time>2021-03-13T12:49:15Z</time>
      </trkpt>
      <trkpt lat="43.00037" lon="0.9097">
        <ele>476</ele>
        <time>2021-03-13T12:49:16Z</time>
      </trkpt>
      <trkpt lat="43.00041" lon="0.90963">
        <ele>475</ele>
        <time>2021-03-13T12:49:17Z</time>
      </trkpt>
      <trkpt lat="43.00043" lon="0.90958">
        <ele>473</ele>
        <time>2021-03-13T12:49:18Z</time>
      </trkpt>
      <trkpt lat="43.00043" lon="0.90958">
        <ele>473</ele>
        <time>2021-03-13T12:49:19Z</time>
      </trkpt>
      <trkpt lat="43.00052" lon="0.90944">
        <ele>472</ele>
        <time>2021-03-13T12:49:20Z</time>
      </trkpt>
      <trkpt lat="43.00053" lon="0.90941">
        <ele>471</ele>
        <time>2021-03-13T12:49:21Z</time>
      </trkpt>
      <trkpt lat="43.00057" lon="0.90936">
        <ele>470</ele>
        <time>2021-03-13T12:49:22Z</time>
      </trkpt>
      <trkpt lat="43.00057" lon="0.90936">
        <ele>469</ele>
        <time>2021-03-13T12:49:23Z</time>
      </trkpt>
      <trkpt lat="43.00067" lon="0.90924">
        <ele>468</ele>
        <time>2021-03-13T12:49:24Z</time>
      </trkpt>
      <trkpt lat="43.00069" lon="0.90921">
        <ele>467</ele>
        <time>2021-03-13T12:49:25Z</time>
      </trkpt>
      <trkpt lat="43.00073" lon="0.90917">
        <ele>466</ele>
        <time>2021-03-13T12:49:26Z</time>
      </trkpt>
      <trkpt lat="43.00073" lon="0.90917">
        <ele>465</ele>
        <time>2021-03-13T12:49:27Z</time>
      </trkpt>
      <trkpt lat="43.00077" lon="0.90913">
        <ele>464</ele>
        <time>2021-03-13T12:49:28Z</time>
      </trkpt>
      <trkpt lat="43.00081" lon="0.90909">
        <ele>464</ele>
        <time>2021-03-13T12:49:29Z</time>
      </trkpt>
      <trkpt lat="43.00085" lon="0.90905">
        <ele>462</ele>
        <time>2021-03-13T12:49:30Z</time>
      </trkpt>
      <trkpt lat="43.00088" lon="0.909">
        <ele>461</ele>
        <time>2021-03-13T12:49:31Z</time>
      </trkpt>
      <trkpt lat="43.00091" lon="0.90895">
        <ele>461</ele>
        <time>2021-03-13T12:49:32Z</time>
      </trkpt>
      <trkpt lat="43.00094" lon="0.90891">
        <ele>461</ele>
        <time>2021-03-13T12:49:33Z</time>
      </trkpt>
      <trkpt lat="43.00097" lon="0.90886">
        <ele>460</ele>
        <time>2021-03-13T12:49:34Z</time>
      </trkpt>
      <trkpt lat="43.00099" lon="0.90882">
        <ele>459</ele>
        <time>2021-03-13T12:49:35Z</time>
      </trkpt>
      <trkpt lat="43.00102" lon="0.90878">
        <ele>457</ele>
        <time>2021-03-13T12:49:36Z</time>
      </trkpt>
      <trkpt lat="43.00108" lon="0.90873">
        <ele>455</ele>
        <time>2021-03-13T12:49:37Z</time>
      </trkpt>
      <trkpt lat="43.00113" lon="0.90868">
        <ele>455</ele>
        <time>2021-03-13T12:49:38Z</time>
      </trkpt>
      <trkpt lat="43.00119" lon="0.90862">
        <ele>455</ele>
        <time>2021-03-13T12:49:39Z</time>
      </trkpt>
      <trkpt lat="43.00126" lon="0.90855">
        <ele>455</ele>
        <time>2021-03-13T12:49:40Z</time>
      </trkpt>
      <trkpt lat="43.00129" lon="0.90852">
        <ele>455</ele>
        <time>2021-03-13T12:49:41Z</time>
      </trkpt>
      <trkpt lat="43.00137" lon="0.90846">
        <ele>453</ele>
        <time>2021-03-13T12:49:42Z</time>
      </trkpt>
      <trkpt lat="43.00139" lon="0.90844">
        <ele>452</ele>
        <time>2021-03-13T12:49:43Z</time>
      </trkpt>
      <trkpt lat="43.00147" lon="0.90839">
        <ele>451</ele>
        <time>2021-03-13T12:49:44Z</time>
      </trkpt>
      <trkpt lat="43.00149" lon="0.90837">
        <ele>450</ele>
        <time>2021-03-13T12:49:45Z</time>
      </trkpt>
      <trkpt lat="43.00156" lon="0.90832">
        <ele>449</ele>
        <time>2021-03-13T12:49:46Z</time>
      </trkpt>
      <trkpt lat="43.00158" lon="0.9083">
        <ele>449</ele>
        <time>2021-03-13T12:49:47Z</time>
      </trkpt>
      <trkpt lat="43.00162" lon="0.90825">
        <ele>449</ele>
        <time>2021-03-13T12:49:48Z</time>
      </trkpt>
      <trkpt lat="43.00162" lon="0.90825">
        <ele>448</ele>
        <time>2021-03-13T12:49:49Z</time>
      </trkpt>
      <trkpt lat="43.00169" lon="0.90814">
        <ele>447</ele>
        <time>2021-03-13T12:49:50Z</time>
      </trkpt>
      <trkpt lat="43.00169" lon="0.90814">
        <ele>446</ele>
        <time>2021-03-13T12:49:51Z</time>
      </trkpt>
      <trkpt lat="43.00172" lon="0.9081">
        <ele>445</ele>
        <time>2021-03-13T12:49:52Z</time>
      </trkpt>
      <trkpt lat="43.00175" lon="0.90806">
        <ele>443</ele>
        <time>2021-03-13T12:49:53Z</time>
      </trkpt>
      <trkpt lat="43.00178" lon="0.90802">
        <ele>443</ele>
        <time>2021-03-13T12:49:54Z</time>
      </trkpt>
      <trkpt lat="43.00183" lon="0.90802">
        <ele>443</ele>
        <time>2021-03-13T12:49:55Z</time>
      </trkpt>
      <trkpt lat="43.00188" lon="0.90802">
        <ele>443</ele>
        <time>2021-03-13T12:49:56Z</time>
      </trkpt>
      <trkpt lat="43.00192" lon="0.90801">
        <ele>442</ele>
        <time>2021-03-13T12:49:57Z</time>
      </trkpt>
      <trkpt lat="43.00197" lon="0.90802">
        <ele>441</ele>
        <time>2021-03-13T12:49:58Z</time>
      </trkpt>
      <trkpt lat="43.00202" lon="0.90802">
        <ele>440</ele>
        <time>2021-03-13T12:49:59Z</time>
      </trkpt>
      <trkpt lat="43.00206" lon="0.90802">
        <ele>437</ele>
        <time>2021-03-13T12:50:00Z</time>
      </trkpt>
      <trkpt lat="43.00211" lon="0.90801">
        <ele>437</ele>
        <time>2021-03-13T12:50:01Z</time>
      </trkpt>
      <trkpt lat="43.00216" lon="0.90799">
        <ele>437</ele>
        <time>2021-03-13T12:50:02Z</time>
      </trkpt>
      <trkpt lat="43.00222" lon="0.90798">
        <ele>436</ele>
        <time>2021-03-13T12:50:03Z</time>
      </trkpt>
      <trkpt lat="43.00225" lon="0.9079">
        <ele>435</ele>
        <time>2021-03-13T12:50:04Z</time>
      </trkpt>
      <trkpt lat="43.00229" lon="0.90782">
        <ele>434</ele>
        <time>2021-03-13T12:50:05Z</time>
      </trkpt>
      <trkpt lat="43.00232" lon="0.90774">
        <ele>433</ele>
        <time>2021-03-13T12:50:06Z</time>
      </trkpt>
      <trkpt lat="43.00233" lon="0.90768">
        <ele>433</ele>
        <time>2021-03-13T12:50:07Z</time>
      </trkpt>
      <trkpt lat="43.00233" lon="0.90768">
        <ele>433</ele>
        <time>2021-03-13T12:50:08Z</time>
      </trkpt>
      <trkpt lat="43.00229" lon="0.90755">
        <ele>432</ele>
        <time>2021-03-13T12:50:09Z</time>
      </trkpt>
      <trkpt lat="43.00229" lon="0.90755">
        <ele>432</ele>
        <time>2021-03-13T12:50:10Z</time>
      </trkpt>
      <trkpt lat="43.00218" lon="0.90747">
        <ele>432</ele>
        <time>2021-03-13T12:50:11Z</time>
      </trkpt>
      <trkpt lat="43.00215" lon="0.90746">
        <ele>431</ele>
        <time>2021-03-13T12:50:12Z</time>
      </trkpt>
      <trkpt lat="43.00206" lon="0.90746">
        <ele>431</ele>
        <time>2021-03-13T12:50:13Z</time>
      </trkpt>
      <trkpt lat="43.00202" lon="0.90746">
        <ele>430</ele>
        <time>2021-03-13T12:50:14Z</time>
      </trkpt>
      <trkpt lat="43.00193" lon="0.90748">
        <ele>429</ele>
        <time>2021-03-13T12:50:15Z</time>
      </trkpt>
      <trkpt lat="43.0019" lon="0.90748">
        <ele>428</ele>
        <time>2021-03-13T12:50:16Z</time>
      </trkpt>
      <trkpt lat="43.00185" lon="0.9075">
        <ele>428</ele>
        <time>2021-03-13T12:50:17Z</time>
      </trkpt>
      <trkpt lat="43.00185" lon="0.9075">
        <ele>428</ele>
        <time>2021-03-13T12:50:18Z</time>
      </trkpt>
      <trkpt lat="43.00181" lon="0.90752">
        <ele>428</ele>
        <time>2021-03-13T12:50:19Z</time>
      </trkpt>
      <trkpt lat="43.00177" lon="0.90753">
        <ele>428</ele>
        <time>2021-03-13T12:50:20Z</time>
      </trkpt>
      <trkpt lat="43.00174" lon="0.90755">
        <ele>428</ele>
        <time>2021-03-13T12:50:21Z</time>
      </trkpt>
      <trkpt lat="43.0017" lon="0.90757">
        <ele>428</ele>
        <time>2021-03-13T12:50:22Z</time>
      </trkpt>
      <trkpt lat="43.00165" lon="0.90759">
        <ele>428</ele>
        <time>2021-03-13T12:50:23Z</time>
      </trkpt>
      <trkpt lat="43.00161" lon="0.90762">
        <ele>428</ele>
        <time>2021-03-13T12:50:24Z</time>
      </trkpt>
      <trkpt lat="43.00157" lon="0.90764">
        <ele>428</ele>
        <time>2021-03-13T12:50:25Z</time>
      </trkpt>
      <trkpt lat="43.00152" lon="0.90766">
        <ele>428</ele>
        <time>2021-03-13T12:50:26Z</time>
      </trkpt>
      <trkpt lat="43.00152" lon="0.90766">
        <ele>428</ele>
        <time>2021-03-13T12:50:27Z</time>
      </trkpt>
      <trkpt lat="43.00142" lon="0.9077">
        <ele>428</ele>
        <time>2021-03-13T12:50:28Z</time>
      </trkpt>
      <trkpt lat="43.00142" lon="0.9077">
        <ele>428</ele>
        <time>2021-03-13T12:50:29Z</time>
      </trkpt>
      <trkpt lat="43.00129" lon="0.90774">
        <ele>426</ele>
        <time>2021-03-13T12:50:30Z</time>
      </trkpt>
      <trkpt lat="43.00127" lon="0.90775">
        <ele>426</ele>
        <time>2021-03-13T12:50:31Z</time>
      </trkpt>
      <trkpt lat="43.00121" lon="0.90778">
        <ele>426</ele>
        <time>2021-03-13T12:50:32Z</time>
      </trkpt>
      <trkpt lat="43.00121" lon="0.90778">
        <ele>426</ele>
        <time>2021-03-13T12:50:33Z</time>
      </trkpt>
      <trkpt lat="43.00117" lon="0.90779">
        <ele>426</ele>
        <time>2021-03-13T12:50:34Z</time>
      </trkpt>
      <trkpt lat="43.00114" lon="0.9078">
        <ele>426</ele>
        <time>2021-03-13T12:50:35Z</time>
      </trkpt>
      <trkpt lat="43.0011" lon="0.90781">
        <ele>426</ele>
        <time>2021-03-13T12:50:36Z</time>
      </trkpt>
      <trkpt lat="43.00109" lon="0.90776">
        <ele>426</ele>
        <time>2021-03-13T12:50:37Z</time>
      </trkpt>
      <trkpt lat="43.00108" lon="0.90772">
        <ele>426</ele>
        <time>2021-03-13T12:50:38Z</time>
      </trkpt>
      <trkpt lat="43.00107" lon="0.90768">
        <ele>426</ele>
        <time>2021-03-13T12:50:39Z</time>
      </trkpt>
      <trkpt lat="43.00106" lon="0.90764">
        <ele>421</ele>
        <time>2021-03-13T12:50:40Z</time>
      </trkpt>
      <trkpt lat="43.00108" lon="0.90759">
        <ele>418</ele>
        <time>2021-03-13T12:50:41Z</time>
      </trkpt>
      <trkpt lat="43.00111" lon="0.90754">
        <ele>418</ele>
        <time>2021-03-13T12:50:42Z</time>
      </trkpt>
      <trkpt lat="43.00114" lon="0.9075">
        <ele>416</ele>
        <time>2021-03-13T12:50:43Z</time>
      </trkpt>
      <trkpt lat="43.00115" lon="0.90744">
        <ele>415</ele>
        <time>2021-03-13T12:50:44Z</time>
      </trkpt>
      <trkpt lat="43.00115" lon="0.90738">
        <ele>415</ele>
        <time>2021-03-13T12:50:45Z</time>
      </trkpt>
      <trkpt lat="43.00115" lon="0.90732">
        <ele>414</ele>
        <time>2021-03-13T12:50:46Z</time>
      </trkpt>
      <trkpt lat="43.0011" lon="0.90732">
        <ele>413</ele>
        <time>2021-03-13T12:50:47Z</time>
      </trkpt>
      <trkpt lat="43.00105" lon="0.90731">
        <ele>413</ele>
        <time>2021-03-13T12:50:48Z</time>
      </trkpt>
      <trkpt lat="43.001" lon="0.9073">
        <ele>413</ele>
        <time>2021-03-13T12:50:49Z</time>
      </trkpt>
      <trkpt lat="43.00096" lon="0.9073">
        <ele>412</ele>
        <time>2021-03-13T12:50:50Z</time>
      </trkpt>
      <trkpt lat="43.00096" lon="0.9073">
        <ele>411</ele>
        <time>2021-03-13T12:50:51Z</time>
      </trkpt>
      <trkpt lat="43.00091" lon="0.90728">
        <ele>411</ele>
        <time>2021-03-13T12:50:52Z</time>
      </trkpt>
      <trkpt lat="43.00086" lon="0.90726">
        <ele>410</ele>
        <time>2021-03-13T12:50:53Z</time>
      </trkpt>
      <trkpt lat="43.00081" lon="0.90724">
        <ele>409</ele>
        <time>2021-03-13T12:50:54Z</time>
      </trkpt>
      <trkpt lat="43.00077" lon="0.90722">
        <ele>409</ele>
        <time>2021-03-13T12:50:55Z</time>
      </trkpt>
      <trkpt lat="43.00077" lon="0.90722">
        <ele>409</ele>
        <time>2021-03-13T12:50:56Z</time>
      </trkpt>
      <trkpt lat="43.00071" lon="0.90721">
        <ele>409</ele>
        <time>2021-03-13T12:50:57Z</time>
      </trkpt>
      <trkpt lat="43.00071" lon="0.90721">
        <ele>409</ele>
        <time>2021-03-13T12:50:58Z</time>
      </trkpt>
      <trkpt lat="43.00064" lon="0.90719">
        <ele>408</ele>
        <time>2021-03-13T12:50:59Z</time>
      </trkpt>
      <trkpt lat="43.00064" lon="0.90719">
        <ele>407</ele>
        <time>2021-03-13T12:51:00Z</time>
      </trkpt>
      <trkpt lat="43.00058" lon="0.90718">
        <ele>407</ele>
        <time>2021-03-13T12:51:01Z</time>
      </trkpt>
      <trkpt lat="43.00058" lon="0.90718">
        <ele>407</ele>
        <time>2021-03-13T12:51:02Z</time>
      </trkpt>
      <trkpt lat="43.0005" lon="0.90718">
        <ele>407</ele>
        <time>2021-03-13T12:51:03Z</time>
      </trkpt>
      <trkpt lat="43.0005" lon="0.90718">
        <ele>407</ele>
        <time>2021-03-13T12:51:04Z</time>
      </trkpt>
      <trkpt lat="43.00043" lon="0.90721">
        <ele>408</ele>
        <time>2021-03-13T12:51:05Z</time>
      </trkpt>
      <trkpt lat="43.00043" lon="0.90721">
        <ele>408</ele>
        <time>2021-03-13T12:51:06Z</time>
      </trkpt>
      <trkpt lat="43.00036" lon="0.90726">
        <ele>408</ele>
        <time>2021-03-13T12:51:07Z</time>
      </trkpt>
      <trkpt lat="43.00036" lon="0.90726">
        <ele>408</ele>
        <time>2021-03-13T12:51:08Z</time>
      </trkpt>
      <trkpt lat="43.00029" lon="0.90731">
        <ele>408</ele>
        <time>2021-03-13T12:51:09Z</time>
      </trkpt>
      <trkpt lat="43.00029" lon="0.90731">
        <ele>409</ele>
        <time>2021-03-13T12:51:10Z</time>
      </trkpt>
      <trkpt lat="43.00022" lon="0.90737">
        <ele>409</ele>
        <time>2021-03-13T12:51:11Z</time>
      </trkpt>
      <trkpt lat="43.00022" lon="0.90737">
        <ele>409</ele>
        <time>2021-03-13T12:51:12Z</time>
      </trkpt>
      <trkpt lat="43.00016" lon="0.90747">
        <ele>409</ele>
        <time>2021-03-13T12:51:13Z</time>
      </trkpt>
      <trkpt lat="43.00016" lon="0.90747">
        <ele>409</ele>
        <time>2021-03-13T12:51:14Z</time>
      </trkpt>
      <trkpt lat="43.00008" lon="0.90756">
        <ele>409</ele>
        <time>2021-03-13T12:51:15Z</time>
      </trkpt>
      <trkpt lat="43.00008" lon="0.90756">
        <ele>409</ele>
        <time>2021-03-13T12:51:16Z</time>
      </trkpt>
      <trkpt lat="43.00001" lon="0.90766">
        <ele>409</ele>
        <time>2021-03-13T12:51:17Z</time>
      </trkpt>
      <trkpt lat="43.00001" lon="0.90766">
        <ele>409</ele>
        <time>2021-03-13T12:51:18Z</time>
      </trkpt>
      <trkpt lat="42.99993" lon="0.90774">
        <ele>409</ele>
        <time>2021-03-13T12:51:19Z</time>
      </trkpt>
      <trkpt lat="42.99993" lon="0.90774">
        <ele>411</ele>
        <time>2021-03-13T12:51:20Z</time>
      </trkpt>
      <trkpt lat="42.99986" lon="0.90781">
        <ele>411</ele>
        <time>2021-03-13T12:51:21Z</time>
      </trkpt>
      <trkpt lat="42.99986" lon="0.90781">
        <ele>411</ele>
        <time>2021-03-13T12:51:22Z</time>
      </trkpt>
      <trkpt lat="42.99979" lon="0.90784">
        <ele>411</ele>
        <time>2021-03-13T12:51:23Z</time>
      </trkpt>
      <trkpt lat="42.99979" lon="0.90784">
        <ele>411</ele>
        <time>2021-03-13T12:51:24Z</time>
      </trkpt>
      <trkpt lat="42.99972" lon="0.90788">
        <ele>411</ele>
        <time>2021-03-13T12:51:25Z</time>
      </trkpt>
      <trkpt lat="42.99972" lon="0.90788">
        <ele>411</ele>
        <time>2021-03-13T12:51:26Z</time>
      </trkpt>
      <trkpt lat="42.99965" lon="0.90792">
        <ele>411</ele>
        <time>2021-03-13T12:51:27Z</time>
      </trkpt>
      <trkpt lat="42.99965" lon="0.90792">
        <ele>411</ele>
        <time>2021-03-13T12:51:28Z</time>
      </trkpt>
      <trkpt lat="42.99958" lon="0.90796">
        <ele>411</ele>
        <time>2021-03-13T12:51:29Z</time>
      </trkpt>
      <trkpt lat="42.99958" lon="0.90796">
        <ele>412</ele>
        <time>2021-03-13T12:51:30Z</time>
      </trkpt>
      <trkpt lat="42.99951" lon="0.90799">
        <ele>412</ele>
        <time>2021-03-13T12:51:31Z</time>
      </trkpt>
      <trkpt lat="42.99951" lon="0.90799">
        <ele>412</ele>
        <time>2021-03-13T12:51:32Z</time>
      </trkpt>
      <trkpt lat="42.99941" lon="0.90801">
        <ele>412</ele>
        <time>2021-03-13T12:51:33Z</time>
      </trkpt>
      <trkpt lat="42.99939" lon="0.90801">
        <ele>412</ele>
        <time>2021-03-13T12:51:34Z</time>
      </trkpt>
      <trkpt lat="42.99939" lon="0.90801">
        <ele>412</ele>
        <time>2021-03-13T12:51:35Z</time>
      </trkpt>
      <trkpt lat="42.99929" lon="0.90801">
        <ele>412</ele>
        <time>2021-03-13T12:51:36Z</time>
      </trkpt>
      <trkpt lat="42.99927" lon="0.90801">
        <ele>412</ele>
        <time>2021-03-13T12:51:37Z</time>
      </trkpt>
      <trkpt lat="42.99923" lon="0.90801">
        <ele>412</ele>
        <time>2021-03-13T12:51:38Z</time>
      </trkpt>
      <trkpt lat="42.99919" lon="0.90801">
        <ele>412</ele>
        <time>2021-03-13T12:51:39Z</time>
      </trkpt>
      <trkpt lat="42.99915" lon="0.90801">
        <ele>412</ele>
        <time>2021-03-13T12:51:40Z</time>
      </trkpt>
      <trkpt lat="42.99911" lon="0.90801">
        <ele>412</ele>
        <time>2021-03-13T12:51:41Z</time>
      </trkpt>
      <trkpt lat="42.99907" lon="0.90801">
        <ele>412</ele>
        <time>2021-03-13T12:51:42Z</time>
      </trkpt>
      <trkpt lat="42.99903" lon="0.90801">
        <ele>412</ele>
        <time>2021-03-13T12:51:43Z</time>
      </trkpt>
      <trkpt lat="42.99899" lon="0.90801">
        <ele>412</ele>
        <time>2021-03-13T12:51:44Z</time>
      </trkpt>
      <trkpt lat="42.99895" lon="0.90801">
        <ele>412</ele>
        <time>2021-03-13T12:51:45Z</time>
      </trkpt>
      <trkpt lat="42.9989" lon="0.90801">
        <ele>412</ele>
        <time>2021-03-13T12:51:46Z</time>
      </trkpt>
      <trkpt lat="42.99886" lon="0.90801">
        <ele>412</ele>
        <time>2021-03-13T12:51:47Z</time>
      </trkpt>
      <trkpt lat="42.99882" lon="0.90801">
        <ele>412</ele>
        <time>2021-03-13T12:51:48Z</time>
      </trkpt>
      <trkpt lat="42.99878" lon="0.908">
        <ele>412</ele>
        <time>2021-03-13T12:51:49Z</time>
      </trkpt>
      <trkpt lat="42.99874" lon="0.908">
        <ele>413</ele>
        <time>2021-03-13T12:51:50Z</time>
      </trkpt>
      <trkpt lat="42.99869" lon="0.908">
        <ele>413</ele>
        <time>2021-03-13T12:51:51Z</time>
      </trkpt>
      <trkpt lat="42.99865" lon="0.908">
        <ele>413</ele>
        <time>2021-03-13T12:51:52Z</time>
      </trkpt>
      <trkpt lat="42.99861" lon="0.908">
        <ele>413</ele>
        <time>2021-03-13T12:51:53Z</time>
      </trkpt>
      <trkpt lat="42.99857" lon="0.90799">
        <ele>413</ele>
        <time>2021-03-13T12:51:54Z</time>
      </trkpt>
      <trkpt lat="42.99853" lon="0.90799">
        <ele>413</ele>
        <time>2021-03-13T12:51:55Z</time>
      </trkpt>
      <trkpt lat="42.99849" lon="0.90799">
        <ele>413</ele>
        <time>2021-03-13T12:51:56Z</time>
      </trkpt>
      <trkpt lat="42.99845" lon="0.90799">
        <ele>413</ele>
        <time>2021-03-13T12:51:57Z</time>
      </trkpt>
      <trkpt lat="42.99841" lon="0.90799">
        <ele>413</ele>
        <time>2021-03-13T12:51:58Z</time>
      </trkpt>
      <trkpt lat="42.99837" lon="0.90799">
        <ele>413</ele>
        <time>2021-03-13T12:51:59Z</time>
      </trkpt>
      <trkpt lat="42.99833" lon="0.908">
        <ele>413</ele>
        <time>2021-03-13T12:52:00Z</time>
      </trkpt>
      <trkpt lat="42.99829" lon="0.90802">
        <ele>413</ele>
        <time>2021-03-13T12:52:01Z</time>
      </trkpt>
      <trkpt lat="42.99825" lon="0.90803">
        <ele>413</ele>
        <time>2021-03-13T12:52:02Z</time>
      </trkpt>
      <trkpt lat="42.99821" lon="0.90805">
        <ele>413</ele>
        <time>2021-03-13T12:52:03Z</time>
      </trkpt>
      <trkpt lat="42.99817" lon="0.90807">
        <ele>413</ele>
        <time>2021-03-13T12:52:04Z</time>
      </trkpt>
      <trkpt lat="42.99813" lon="0.9081">
        <ele>413</ele>
        <time>2021-03-13T12:52:05Z</time>
      </trkpt>
      <trkpt lat="42.99809" lon="0.90813">
        <ele>413</ele>
        <time>2021-03-13T12:52:06Z</time>
      </trkpt>
      <trkpt lat="42.99805" lon="0.90816">
        <ele>413</ele>
        <time>2021-03-13T12:52:07Z</time>
      </trkpt>
      <trkpt lat="42.99802" lon="0.90819">
        <ele>413</ele>
        <time>2021-03-13T12:52:08Z</time>
      </trkpt>
      <trkpt lat="42.99799" lon="0.90823">
        <ele>413</ele>
        <time>2021-03-13T12:52:09Z</time>
      </trkpt>
      <trkpt lat="42.99795" lon="0.90826">
        <ele>414</ele>
        <time>2021-03-13T12:52:10Z</time>
      </trkpt>
      <trkpt lat="42.99792" lon="0.90829">
        <ele>414</ele>
        <time>2021-03-13T12:52:11Z</time>
      </trkpt>
      <trkpt lat="42.99788" lon="0.90833">
        <ele>414</ele>
        <time>2021-03-13T12:52:12Z</time>
      </trkpt>
      <trkpt lat="42.99785" lon="0.90836">
        <ele>414</ele>
        <time>2021-03-13T12:52:13Z</time>
      </trkpt>
      <trkpt lat="42.99781" lon="0.90839">
        <ele>414</ele>
        <time>2021-03-13T12:52:14Z</time>
      </trkpt>
      <trkpt lat="42.99778" lon="0.90843">
        <ele>414</ele>
        <time>2021-03-13T12:52:15Z</time>
      </trkpt>
      <trkpt lat="42.99775" lon="0.90847">
        <ele>414</ele>
        <time>2021-03-13T12:52:16Z</time>
      </trkpt>
      <trkpt lat="42.99771" lon="0.90851">
        <ele>414</ele>
        <time>2021-03-13T12:52:17Z</time>
      </trkpt>
      <trkpt lat="42.99767" lon="0.90854">
        <ele>414</ele>
        <time>2021-03-13T12:52:18Z</time>
      </trkpt>
      <trkpt lat="42.99764" lon="0.90858">
        <ele>414</ele>
        <time>2021-03-13T12:52:19Z</time>
      </trkpt>
      <trkpt lat="42.99761" lon="0.90861">
        <ele>415</ele>
        <time>2021-03-13T12:52:20Z</time>
      </trkpt>
      <trkpt lat="42.99757" lon="0.90865">
        <ele>415</ele>
        <time>2021-03-13T12:52:21Z</time>
      </trkpt>
      <trkpt lat="42.99754" lon="0.90868">
        <ele>415</ele>
        <time>2021-03-13T12:52:22Z</time>
      </trkpt>
      <trkpt lat="42.99751" lon="0.90872">
        <ele>415</ele>
        <time>2021-03-13T12:52:23Z</time>
      </trkpt>
      <trkpt lat="42.99748" lon="0.90876">
        <ele>415</ele>
        <time>2021-03-13T12:52:24Z</time>
      </trkpt>
      <trkpt lat="42.99745" lon="0.9088">
        <ele>415</ele>
        <time>2021-03-13T12:52:25Z</time>
      </trkpt>
      <trkpt lat="42.99743" lon="0.90885">
        <ele>415</ele>
        <time>2021-03-13T12:52:26Z</time>
      </trkpt>
      <trkpt lat="42.9974" lon="0.90889">
        <ele>415</ele>
        <time>2021-03-13T12:52:27Z</time>
      </trkpt>
      <trkpt lat="42.99737" lon="0.90893">
        <ele>415</ele>
        <time>2021-03-13T12:52:28Z</time>
      </trkpt>
      <trkpt lat="42.99734" lon="0.90896">
        <ele>415</ele>
        <time>2021-03-13T12:52:29Z</time>
      </trkpt>
      <trkpt lat="42.99734" lon="0.90896">
        <ele>416</ele>
        <time>2021-03-13T12:52:30Z</time>
      </trkpt>
      <trkpt lat="42.99727" lon="0.909">
        <ele>416</ele>
        <time>2021-03-13T12:52:31Z</time>
      </trkpt>
      <trkpt lat="42.99727" lon="0.909">
        <ele>416</ele>
        <time>2021-03-13T12:52:32Z</time>
      </trkpt>
      <trkpt lat="42.99718" lon="0.90896">
        <ele>416</ele>
        <time>2021-03-13T12:52:33Z</time>
      </trkpt>
      <trkpt lat="42.99718" lon="0.90896">
        <ele>416</ele>
        <time>2021-03-13T12:52:34Z</time>
      </trkpt>
      <trkpt lat="42.99709" lon="0.90889">
        <ele>416</ele>
        <time>2021-03-13T12:52:35Z</time>
      </trkpt>
      <trkpt lat="42.99709" lon="0.90889">
        <ele>416</ele>
        <time>2021-03-13T12:52:36Z</time>
      </trkpt>
      <trkpt lat="42.99698" lon="0.90881">
        <ele>416</ele>
        <time>2021-03-13T12:52:37Z</time>
      </trkpt>
      <trkpt lat="42.99695" lon="0.9088">
        <ele>416</ele>
        <time>2021-03-13T12:52:38Z</time>
      </trkpt>
      <trkpt lat="42.9969" lon="0.90877">
        <ele>416</ele>
        <time>2021-03-13T12:52:39Z</time>
      </trkpt>
      <trkpt lat="42.99685" lon="0.90874">
        <ele>416</ele>
        <time>2021-03-13T12:52:40Z</time>
      </trkpt>
      <trkpt lat="42.9968" lon="0.90871">
        <ele>416</ele>
        <time>2021-03-13T12:52:41Z</time>
      </trkpt>
      <trkpt lat="42.99675" lon="0.90868">
        <ele>416</ele>
        <time>2021-03-13T12:52:42Z</time>
      </trkpt>
      <trkpt lat="42.99669" lon="0.90866">
        <ele>416</ele>
        <time>2021-03-13T12:52:43Z</time>
      </trkpt>
      <trkpt lat="42.99664" lon="0.90863">
        <ele>416</ele>
        <time>2021-03-13T12:52:44Z</time>
      </trkpt>
      <trkpt lat="42.99659" lon="0.9086">
        <ele>416</ele>
        <time>2021-03-13T12:52:45Z</time>
      </trkpt>
      <trkpt lat="42.99654" lon="0.90857">
        <ele>416</ele>
        <time>2021-03-13T12:52:46Z</time>
      </trkpt>
      <trkpt lat="42.99648" lon="0.90854">
        <ele>416</ele>
        <time>2021-03-13T12:52:47Z</time>
      </trkpt>
      <trkpt lat="42.99643" lon="0.90851">
        <ele>416</ele>
        <time>2021-03-13T12:52:48Z</time>
      </trkpt>
      <trkpt lat="42.99638" lon="0.90848">
        <ele>416</ele>
        <time>2021-03-13T12:52:49Z</time>
      </trkpt>
      <trkpt lat="42.99634" lon="0.90844">
        <ele>414</ele>
        <time>2021-03-13T12:52:50Z</time>
      </trkpt>
      <trkpt lat="42.99629" lon="0.90841">
        <ele>414</ele>
        <time>2021-03-13T12:52:51Z</time>
      </trkpt>
      <trkpt lat="42.99624" lon="0.9084">
        <ele>414</ele>
        <time>2021-03-13T12:52:52Z</time>
      </trkpt>
      <trkpt lat="42.99619" lon="0.90839">
        <ele>414</ele>
        <time>2021-03-13T12:52:53Z</time>
      </trkpt>
      <trkpt lat="42.99614" lon="0.90839">
        <ele>414</ele>
        <time>2021-03-13T12:52:54Z</time>
      </trkpt>
      <trkpt lat="42.99609" lon="0.9084">
        <ele>414</ele>
        <time>2021-03-13T12:52:55Z</time>
      </trkpt>
      <trkpt lat="42.99605" lon="0.9084">
        <ele>414</ele>
        <time>2021-03-13T12:52:56Z</time>
      </trkpt>
      <trkpt lat="42.99601" lon="0.90839">
        <ele>414</ele>
        <time>2021-03-13T12:52:57Z</time>
      </trkpt>
      <trkpt lat="42.99597" lon="0.90837">
        <ele>414</ele>
        <time>2021-03-13T12:52:58Z</time>
      </trkpt>
      <trkpt lat="42.99595" lon="0.90833">
        <ele>414</ele>
        <time>2021-03-13T12:52:59Z</time>
      </trkpt>
      <trkpt lat="42.99594" lon="0.90828">
        <ele>415</ele>
        <time>2021-03-13T12:53:00Z</time>
      </trkpt>
      <trkpt lat="42.99593" lon="0.90823">
        <ele>415</ele>
        <time>2021-03-13T12:53:01Z</time>
      </trkpt>
      <trkpt lat="42.99593" lon="0.90818">
        <ele>415</ele>
        <time>2021-03-13T12:53:02Z</time>
      </trkpt>
      <trkpt lat="42.99592" lon="0.90812">
        <ele>415</ele>
        <time>2021-03-13T12:53:03Z</time>
      </trkpt>
      <trkpt lat="42.99592" lon="0.90806">
        <ele>415</ele>
        <time>2021-03-13T12:53:04Z</time>
      </trkpt>
      <trkpt lat="42.99591" lon="0.90799">
        <ele>415</ele>
        <time>2021-03-13T12:53:05Z</time>
      </trkpt>
      <trkpt lat="42.99591" lon="0.90792">
        <ele>415</ele>
        <time>2021-03-13T12:53:06Z</time>
      </trkpt>
      <trkpt lat="42.99591" lon="0.90784">
        <ele>415</ele>
        <time>2021-03-13T12:53:07Z</time>
      </trkpt>
      <trkpt lat="42.9959" lon="0.90777">
        <ele>415</ele>
        <time>2021-03-13T12:53:08Z</time>
      </trkpt>
      <trkpt lat="42.9959" lon="0.90769">
        <ele>415</ele>
        <time>2021-03-13T12:53:09Z</time>
      </trkpt>
      <trkpt lat="42.9959" lon="0.90761">
        <ele>415</ele>
        <time>2021-03-13T12:53:10Z</time>
      </trkpt>
      <trkpt lat="42.9959" lon="0.90754">
        <ele>415</ele>
        <time>2021-03-13T12:53:11Z</time>
      </trkpt>
      <trkpt lat="42.9959" lon="0.90746">
        <ele>415</ele>
        <time>2021-03-13T12:53:12Z</time>
      </trkpt>
      <trkpt lat="42.9959" lon="0.90738">
        <ele>415</ele>
        <time>2021-03-13T12:53:13Z</time>
      </trkpt>
      <trkpt lat="42.99591" lon="0.90731">
        <ele>415</ele>
        <time>2021-03-13T12:53:14Z</time>
      </trkpt>
      <trkpt lat="42.99591" lon="0.90724">
        <ele>415</ele>
        <time>2021-03-13T12:53:15Z</time>
      </trkpt>
      <trkpt lat="42.99592" lon="0.90717">
        <ele>415</ele>
        <time>2021-03-13T12:53:16Z</time>
      </trkpt>
      <trkpt lat="42.99593" lon="0.9071">
        <ele>415</ele>
        <time>2021-03-13T12:53:17Z</time>
      </trkpt>
      <trkpt lat="42.99594" lon="0.90703">
        <ele>415</ele>
        <time>2021-03-13T12:53:18Z</time>
      </trkpt>
      <trkpt lat="42.99595" lon="0.90697">
        <ele>415</ele>
        <time>2021-03-13T12:53:19Z</time>
      </trkpt>
      <trkpt lat="42.99596" lon="0.90691">
        <ele>414</ele>
        <time>2021-03-13T12:53:20Z</time>
      </trkpt>
      <trkpt lat="42.99596" lon="0.90691">
        <ele>414</ele>
        <time>2021-03-13T12:53:21Z</time>
      </trkpt>
      <trkpt lat="42.99599" lon="0.90686">
        <ele>414</ele>
        <time>2021-03-13T12:53:22Z</time>
      </trkpt>
      <trkpt lat="42.99599" lon="0.90686">
        <ele>414</ele>
        <time>2021-03-13T12:53:23Z</time>
      </trkpt>
      <trkpt lat="42.996" lon="0.90682">
        <ele>414</ele>
        <time>2021-03-13T12:53:24Z</time>
      </trkpt>
      <trkpt lat="42.996" lon="0.90682">
        <ele>414</ele>
        <time>2021-03-13T12:53:25Z</time>
      </trkpt>
      <trkpt lat="42.99604" lon="0.90674">
        <ele>414</ele>
        <time>2021-03-13T12:53:26Z</time>
      </trkpt>
      <trkpt lat="42.99605" lon="0.90672">
        <ele>414</ele>
        <time>2021-03-13T12:53:27Z</time>
      </trkpt>
      <trkpt lat="42.99607" lon="0.90667">
        <ele>414</ele>
        <time>2021-03-13T12:53:28Z</time>
      </trkpt>
      <trkpt lat="42.99609" lon="0.90662">
        <ele>414</ele>
        <time>2021-03-13T12:53:29Z</time>
      </trkpt>
      <trkpt lat="42.99611" lon="0.90657">
        <ele>413</ele>
        <time>2021-03-13T12:53:30Z</time>
      </trkpt>
      <trkpt lat="42.99613" lon="0.90651">
        <ele>413</ele>
        <time>2021-03-13T12:53:31Z</time>
      </trkpt>
      <trkpt lat="42.99615" lon="0.90646">
        <ele>413</ele>
        <time>2021-03-13T12:53:32Z</time>
      </trkpt>
      <trkpt lat="42.99617" lon="0.90641">
        <ele>413</ele>
        <time>2021-03-13T12:53:33Z</time>
      </trkpt>
      <trkpt lat="42.99618" lon="0.90636">
        <ele>413</ele>
        <time>2021-03-13T12:53:34Z</time>
      </trkpt>
      <trkpt lat="42.99619" lon="0.90631">
        <ele>413</ele>
        <time>2021-03-13T12:53:35Z</time>
      </trkpt>
      <trkpt lat="42.9962" lon="0.90626">
        <ele>413</ele>
        <time>2021-03-13T12:53:36Z</time>
      </trkpt>
      <trkpt lat="42.99621" lon="0.90621">
        <ele>413</ele>
        <time>2021-03-13T12:53:37Z</time>
      </trkpt>
      <trkpt lat="42.99622" lon="0.90616">
        <ele>413</ele>
        <time>2021-03-13T12:53:38Z</time>
      </trkpt>
      <trkpt lat="42.99623" lon="0.90611">
        <ele>413</ele>
        <time>2021-03-13T12:53:39Z</time>
      </trkpt>
      <trkpt lat="42.99624" lon="0.90605">
        <ele>413</ele>
        <time>2021-03-13T12:53:40Z</time>
      </trkpt>
      <trkpt lat="42.99625" lon="0.906">
        <ele>413</ele>
        <time>2021-03-13T12:53:41Z</time>
      </trkpt>
      <trkpt lat="42.99626" lon="0.90595">
        <ele>413</ele>
        <time>2021-03-13T12:53:42Z</time>
      </trkpt>
      <trkpt lat="42.99627" lon="0.9059">
        <ele>413</ele>
        <time>2021-03-13T12:53:43Z</time>
      </trkpt>
      <trkpt lat="42.99627" lon="0.9059">
        <ele>413</ele>
        <time>2021-03-13T12:53:44Z</time>
      </trkpt>
      <trkpt lat="42.99629" lon="0.9058">
        <ele>413</ele>
        <time>2021-03-13T12:53:45Z</time>
      </trkpt>
      <trkpt lat="42.99629" lon="0.9058">
        <ele>413</ele>
        <time>2021-03-13T12:53:46Z</time>
      </trkpt>
      <trkpt lat="42.99626" lon="0.90573">
        <ele>413</ele>
        <time>2021-03-13T12:53:47Z</time>
      </trkpt>
      <trkpt lat="42.99626" lon="0.90573">
        <ele>413</ele>
        <time>2021-03-13T12:53:48Z</time>
      </trkpt>
      <trkpt lat="42.99619" lon="0.9057">
        <ele>413</ele>
        <time>2021-03-13T12:53:49Z</time>
      </trkpt>
      <trkpt lat="42.99619" lon="0.9057">
        <ele>414</ele>
        <time>2021-03-13T12:53:50Z</time>
      </trkpt>
      <trkpt lat="42.99609" lon="0.90568">
        <ele>414</ele>
        <time>2021-03-13T12:53:51Z</time>
      </trkpt>
      <trkpt lat="42.99607" lon="0.90568">
        <ele>414</ele>
        <time>2021-03-13T12:53:52Z</time>
      </trkpt>
      <trkpt lat="42.99604" lon="0.90567">
        <ele>414</ele>
        <time>2021-03-13T12:53:53Z</time>
      </trkpt>
      <trkpt lat="42.996" lon="0.90567">
        <ele>414</ele>
        <time>2021-03-13T12:53:54Z</time>
      </trkpt>
      <trkpt lat="42.99596" lon="0.90567">
        <ele>414</ele>
        <time>2021-03-13T12:53:55Z</time>
      </trkpt>
      <trkpt lat="42.99592" lon="0.90566">
        <ele>414</ele>
        <time>2021-03-13T12:53:56Z</time>
      </trkpt>
      <trkpt lat="42.99589" lon="0.90566">
        <ele>414</ele>
        <time>2021-03-13T12:53:57Z</time>
      </trkpt>
      <trkpt lat="42.99585" lon="0.90565">
        <ele>414</ele>
        <time>2021-03-13T12:53:58Z</time>
      </trkpt>
      <trkpt lat="42.99582" lon="0.90565">
        <ele>414</ele>
        <time>2021-03-13T12:53:59Z</time>
      </trkpt>
      <trkpt lat="42.99578" lon="0.90565">
        <ele>415</ele>
        <time>2021-03-13T12:54:00Z</time>
      </trkpt>
      <trkpt lat="42.99578" lon="0.90565">
        <ele>415</ele>
        <time>2021-03-13T12:54:01Z</time>
      </trkpt>
      <trkpt lat="42.99573" lon="0.90564">
        <ele>415</ele>
        <time>2021-03-13T12:54:02Z</time>
      </trkpt>
      <trkpt lat="42.99573" lon="0.90564">
        <ele>415</ele>
        <time>2021-03-13T12:54:03Z</time>
      </trkpt>
      <trkpt lat="42.99574" lon="0.90564">
        <ele>415</ele>
        <time>2021-03-13T12:54:04Z</time>
      </trkpt>
      <trkpt lat="42.99575" lon="0.90565">
        <ele>415</ele>
        <time>2021-03-13T12:54:05Z</time>
      </trkpt>
      <trkpt lat="42.99576" lon="0.90565">
        <ele>415</ele>
        <time>2021-03-13T12:54:06Z</time>
      </trkpt>
      <trkpt lat="42.99577" lon="0.90565">
        <ele>415</ele>
        <time>2021-03-13T12:54:07Z</time>
      </trkpt>
      <trkpt lat="42.99578" lon="0.90566">
        <ele>415</ele>
        <time>2021-03-13T12:54:08Z</time>
      </trkpt>
      <trkpt lat="42.99579" lon="0.90566">
        <ele>415</ele>
        <time>2021-03-13T12:54:09Z</time>
      </trkpt>
      <trkpt lat="42.9958" lon="0.90566">
        <ele>415</ele>
        <time>2021-03-13T12:54:10Z</time>
      </trkpt>
      <trkpt lat="42.99592" lon="0.90569">
        <ele>415</ele>
        <time>2021-03-13T12:54:11Z</time>
      </trkpt>
      <trkpt lat="42.99595" lon="0.9057">
        <ele>415</ele>
        <time>2021-03-13T12:54:12Z</time>
      </trkpt>
      <trkpt lat="42.996" lon="0.90571">
        <ele>415</ele>
        <time>2021-03-13T12:54:13Z</time>
      </trkpt>
      <trkpt lat="42.99605" lon="0.90572">
        <ele>415</ele>
        <time>2021-03-13T12:54:14Z</time>
      </trkpt>
      <trkpt lat="42.99611" lon="0.90574">
        <ele>415</ele>
        <time>2021-03-13T12:54:15Z</time>
      </trkpt>
      <trkpt lat="42.99616" lon="0.90575">
        <ele>415</ele>
        <time>2021-03-13T12:54:16Z</time>
      </trkpt>
      <trkpt lat="42.9962" lon="0.90577">
        <ele>415</ele>
        <time>2021-03-13T12:54:17Z</time>
      </trkpt>
      <trkpt lat="42.9962" lon="0.90577">
        <ele>415</ele>
        <time>2021-03-13T12:54:18Z</time>
      </trkpt>
      <trkpt lat="42.99627" lon="0.90578">
        <ele>415</ele>
        <time>2021-03-13T12:54:19Z</time>
      </trkpt>
      <trkpt lat="42.99627" lon="0.90578">
        <ele>415</ele>
        <time>2021-03-13T12:54:20Z</time>
      </trkpt>
      <trkpt lat="42.99631" lon="0.9057">
        <ele>415</ele>
        <time>2021-03-13T12:54:21Z</time>
      </trkpt>
      <trkpt lat="42.99631" lon="0.9057">
        <ele>415</ele>
        <time>2021-03-13T12:54:22Z</time>
      </trkpt>
      <trkpt lat="42.99633" lon="0.9056">
        <ele>415</ele>
        <time>2021-03-13T12:54:23Z</time>
      </trkpt>
      <trkpt lat="42.99633" lon="0.9056">
        <ele>415</ele>
        <time>2021-03-13T12:54:24Z</time>
      </trkpt>
      <trkpt lat="42.99633" lon="0.90555">
        <ele>415</ele>
        <time>2021-03-13T12:54:25Z</time>
      </trkpt>
      <trkpt lat="42.99634" lon="0.90551">
        <ele>415</ele>
        <time>2021-03-13T12:54:26Z</time>
      </trkpt>
      <trkpt lat="42.99635" lon="0.90547">
        <ele>415</ele>
        <time>2021-03-13T12:54:27Z</time>
      </trkpt>
      <trkpt lat="42.99636" lon="0.90541">
        <ele>415</ele>
        <time>2021-03-13T12:54:28Z</time>
      </trkpt>
      <trkpt lat="42.99637" lon="0.90534">
        <ele>415</ele>
        <time>2021-03-13T12:54:29Z</time>
      </trkpt>
      <trkpt lat="42.99638" lon="0.90527">
        <ele>415</ele>
        <time>2021-03-13T12:54:30Z</time>
      </trkpt>
      <trkpt lat="42.9964" lon="0.90521">
        <ele>415</ele>
        <time>2021-03-13T12:54:31Z</time>
      </trkpt>
      <trkpt lat="42.9964" lon="0.90521">
        <ele>415</ele>
        <time>2021-03-13T12:54:32Z</time>
      </trkpt>
      <trkpt lat="42.99641" lon="0.90509">
        <ele>415</ele>
        <time>2021-03-13T12:54:33Z</time>
      </trkpt>
      <trkpt lat="42.99641" lon="0.90509">
        <ele>415</ele>
        <time>2021-03-13T12:54:34Z</time>
      </trkpt>
      <trkpt lat="42.99643" lon="0.90498">
        <ele>415</ele>
        <time>2021-03-13T12:54:35Z</time>
      </trkpt>
      <trkpt lat="42.99643" lon="0.90498">
        <ele>415</ele>
        <time>2021-03-13T12:54:36Z</time>
      </trkpt>
      <trkpt lat="42.99645" lon="0.90488">
        <ele>415</ele>
        <time>2021-03-13T12:54:37Z</time>
      </trkpt>
      <trkpt lat="42.99645" lon="0.90488">
        <ele>415</ele>
        <time>2021-03-13T12:54:38Z</time>
      </trkpt>
      <trkpt lat="42.99649" lon="0.90478">
        <ele>415</ele>
        <time>2021-03-13T12:54:39Z</time>
      </trkpt>
      <trkpt lat="42.99649" lon="0.90478">
        <ele>415</ele>
        <time>2021-03-13T12:54:40Z</time>
      </trkpt>
      <trkpt lat="42.99653" lon="0.9047">
        <ele>415</ele>
        <time>2021-03-13T12:54:41Z</time>
      </trkpt>
      <trkpt lat="42.99653" lon="0.9047">
        <ele>415</ele>
        <time>2021-03-13T12:54:42Z</time>
      </trkpt>
      <trkpt lat="42.99655" lon="0.90467">
        <ele>415</ele>
        <time>2021-03-13T12:54:43Z</time>
      </trkpt>
      <trkpt lat="42.99657" lon="0.90464">
        <ele>415</ele>
        <time>2021-03-13T12:54:44Z</time>
      </trkpt>
      <trkpt lat="42.99659" lon="0.90461">
        <ele>415</ele>
        <time>2021-03-13T12:54:45Z</time>
      </trkpt>
      <trkpt lat="42.99661" lon="0.90459">
        <ele>415</ele>
        <time>2021-03-13T12:54:46Z</time>
      </trkpt>
      <trkpt lat="42.99662" lon="0.90457">
        <ele>415</ele>
        <time>2021-03-13T12:54:47Z</time>
      </trkpt>
      <trkpt lat="42.99664" lon="0.90456">
        <ele>415</ele>
        <time>2021-03-13T12:54:48Z</time>
      </trkpt>
      <trkpt lat="42.99666" lon="0.90454">
        <ele>415</ele>
        <time>2021-03-13T12:54:49Z</time>
      </trkpt>
      <trkpt lat="42.99668" lon="0.90452">
        <ele>418</ele>
        <time>2021-03-13T12:54:50Z</time>
      </trkpt>
      <trkpt lat="42.9967" lon="0.9045">
        <ele>418</ele>
        <time>2021-03-13T12:54:51Z</time>
      </trkpt>
      <trkpt lat="42.99673" lon="0.90449">
        <ele>418</ele>
        <time>2021-03-13T12:54:52Z</time>
      </trkpt>
      <trkpt lat="42.99675" lon="0.90447">
        <ele>418</ele>
        <time>2021-03-13T12:54:53Z</time>
      </trkpt>
      <trkpt lat="42.99682" lon="0.90443">
        <ele>418</ele>
        <time>2021-03-13T12:54:54Z</time>
      </trkpt>
      <trkpt lat="42.99682" lon="0.90443">
        <ele>421</ele>
        <time>2021-03-13T12:54:55Z</time>
      </trkpt>
      <trkpt lat="42.99688" lon="0.9044">
        <ele>421</ele>
        <time>2021-03-13T12:54:56Z</time>
      </trkpt>
      <trkpt lat="42.99688" lon="0.9044">
        <ele>421</ele>
        <time>2021-03-13T12:54:57Z</time>
      </trkpt>
      <trkpt lat="42.99693" lon="0.90435">
        <ele>421</ele>
        <time>2021-03-13T12:54:58Z</time>
      </trkpt>
      <trkpt lat="42.99693" lon="0.90435">
        <ele>421</ele>
        <time>2021-03-13T12:54:59Z</time>
      </trkpt>
      <trkpt lat="42.99699" lon="0.90431">
        <ele>422</ele>
        <time>2021-03-13T12:55:00Z</time>
      </trkpt>
      <trkpt lat="42.99699" lon="0.90431">
        <ele>422</ele>
        <time>2021-03-13T12:55:01Z</time>
      </trkpt>
      <trkpt lat="42.99703" lon="0.90425">
        <ele>422</ele>
        <time>2021-03-13T12:55:02Z</time>
      </trkpt>
      <trkpt lat="42.99703" lon="0.90425">
        <ele>422</ele>
        <time>2021-03-13T12:55:03Z</time>
      </trkpt>
      <trkpt lat="42.99707" lon="0.9042">
        <ele>422</ele>
        <time>2021-03-13T12:55:04Z</time>
      </trkpt>
      <trkpt lat="42.99707" lon="0.9042">
        <ele>423</ele>
        <time>2021-03-13T12:55:05Z</time>
      </trkpt>
      <trkpt lat="42.9971" lon="0.90413">
        <ele>423</ele>
        <time>2021-03-13T12:55:06Z</time>
      </trkpt>
      <trkpt lat="42.9971" lon="0.90413">
        <ele>423</ele>
        <time>2021-03-13T12:55:07Z</time>
      </trkpt>
      <trkpt lat="42.99712" lon="0.90406">
        <ele>423</ele>
        <time>2021-03-13T12:55:08Z</time>
      </trkpt>
      <trkpt lat="42.99712" lon="0.90406">
        <ele>423</ele>
        <time>2021-03-13T12:55:09Z</time>
      </trkpt>
      <trkpt lat="42.99714" lon="0.90399">
        <ele>423</ele>
        <time>2021-03-13T12:55:10Z</time>
      </trkpt>
      <trkpt lat="42.99714" lon="0.90399">
        <ele>423</ele>
        <time>2021-03-13T12:55:11Z</time>
      </trkpt>
      <trkpt lat="42.99717" lon="0.90391">
        <ele>423</ele>
        <time>2021-03-13T12:55:12Z</time>
      </trkpt>
      <trkpt lat="42.99717" lon="0.90391">
        <ele>423</ele>
        <time>2021-03-13T12:55:13Z</time>
      </trkpt>
      <trkpt lat="42.99721" lon="0.90382">
        <ele>423</ele>
        <time>2021-03-13T12:55:14Z</time>
      </trkpt>
      <trkpt lat="42.99721" lon="0.90382">
        <ele>423</ele>
        <time>2021-03-13T12:55:15Z</time>
      </trkpt>
      <trkpt lat="42.99725" lon="0.90375">
        <ele>423</ele>
        <time>2021-03-13T12:55:16Z</time>
      </trkpt>
      <trkpt lat="42.99725" lon="0.90375">
        <ele>423</ele>
        <time>2021-03-13T12:55:17Z</time>
      </trkpt>
      <trkpt lat="42.99728" lon="0.90366">
        <ele>423</ele>
        <time>2021-03-13T12:55:18Z</time>
      </trkpt>
      <trkpt lat="42.99728" lon="0.90366">
        <ele>423</ele>
        <time>2021-03-13T12:55:19Z</time>
      </trkpt>
      <trkpt lat="42.99732" lon="0.90357">
        <ele>424</ele>
        <time>2021-03-13T12:55:20Z</time>
      </trkpt>
      <trkpt lat="42.99732" lon="0.90357">
        <ele>424</ele>
        <time>2021-03-13T12:55:21Z</time>
      </trkpt>
      <trkpt lat="42.99736" lon="0.90346">
        <ele>424</ele>
        <time>2021-03-13T12:55:22Z</time>
      </trkpt>
      <trkpt lat="42.99736" lon="0.90346">
        <ele>424</ele>
        <time>2021-03-13T12:55:23Z</time>
      </trkpt>
      <trkpt lat="42.99742" lon="0.90337">
        <ele>424</ele>
        <time>2021-03-13T12:55:24Z</time>
      </trkpt>
      <trkpt lat="42.99742" lon="0.90337">
        <ele>424</ele>
        <time>2021-03-13T12:55:25Z</time>
      </trkpt>
      <trkpt lat="42.99749" lon="0.9033">
        <ele>424</ele>
        <time>2021-03-13T12:55:26Z</time>
      </trkpt>
      <trkpt lat="42.99749" lon="0.9033">
        <ele>424</ele>
        <time>2021-03-13T12:55:27Z</time>
      </trkpt>
      <trkpt lat="42.99756" lon="0.90322">
        <ele>424</ele>
        <time>2021-03-13T12:55:28Z</time>
      </trkpt>
      <trkpt lat="42.99756" lon="0.90322">
        <ele>424</ele>
        <time>2021-03-13T12:55:29Z</time>
      </trkpt>
      <trkpt lat="42.99762" lon="0.90313">
        <ele>424</ele>
        <time>2021-03-13T12:55:30Z</time>
      </trkpt>
      <trkpt lat="42.99762" lon="0.90313">
        <ele>424</ele>
        <time>2021-03-13T12:55:31Z</time>
      </trkpt>
      <trkpt lat="42.99767" lon="0.90304">
        <ele>424</ele>
        <time>2021-03-13T12:55:32Z</time>
      </trkpt>
      <trkpt lat="42.99767" lon="0.90304">
        <ele>424</ele>
        <time>2021-03-13T12:55:33Z</time>
      </trkpt>
      <trkpt lat="42.99772" lon="0.90294">
        <ele>424</ele>
        <time>2021-03-13T12:55:34Z</time>
      </trkpt>
      <trkpt lat="42.99772" lon="0.90294">
        <ele>424</ele>
        <time>2021-03-13T12:55:35Z</time>
      </trkpt>
      <trkpt lat="42.99776" lon="0.90284">
        <ele>424</ele>
        <time>2021-03-13T12:55:36Z</time>
      </trkpt>
      <trkpt lat="42.99776" lon="0.90284">
        <ele>424</ele>
        <time>2021-03-13T12:55:37Z</time>
      </trkpt>
      <trkpt lat="42.9978" lon="0.90275">
        <ele>424</ele>
        <time>2021-03-13T12:55:38Z</time>
      </trkpt>
      <trkpt lat="42.9978" lon="0.90275">
        <ele>424</ele>
        <time>2021-03-13T12:55:39Z</time>
      </trkpt>
      <trkpt lat="42.99785" lon="0.90266">
        <ele>425</ele>
        <time>2021-03-13T12:55:40Z</time>
      </trkpt>
      <trkpt lat="42.99785" lon="0.90266">
        <ele>425</ele>
        <time>2021-03-13T12:55:41Z</time>
      </trkpt>
      <trkpt lat="42.99791" lon="0.90257">
        <ele>425</ele>
        <time>2021-03-13T12:55:42Z</time>
      </trkpt>
      <trkpt lat="42.99791" lon="0.90257">
        <ele>425</ele>
        <time>2021-03-13T12:55:43Z</time>
      </trkpt>
      <trkpt lat="42.99796" lon="0.90248">
        <ele>425</ele>
        <time>2021-03-13T12:55:44Z</time>
      </trkpt>
      <trkpt lat="42.99796" lon="0.90248">
        <ele>425</ele>
        <time>2021-03-13T12:55:45Z</time>
      </trkpt>
      <trkpt lat="42.99802" lon="0.90238">
        <ele>425</ele>
        <time>2021-03-13T12:55:46Z</time>
      </trkpt>
      <trkpt lat="42.99802" lon="0.90238">
        <ele>425</ele>
        <time>2021-03-13T12:55:47Z</time>
      </trkpt>
      <trkpt lat="42.99807" lon="0.90229">
        <ele>425</ele>
        <time>2021-03-13T12:55:48Z</time>
      </trkpt>
      <trkpt lat="42.99807" lon="0.90229">
        <ele>425</ele>
        <time>2021-03-13T12:55:49Z</time>
      </trkpt>
      <trkpt lat="42.99812" lon="0.9022">
        <ele>425</ele>
        <time>2021-03-13T12:55:50Z</time>
      </trkpt>
      <trkpt lat="42.99812" lon="0.9022">
        <ele>425</ele>
        <time>2021-03-13T12:55:51Z</time>
      </trkpt>
      <trkpt lat="42.99816" lon="0.9021">
        <ele>425</ele>
        <time>2021-03-13T12:55:52Z</time>
      </trkpt>
      <trkpt lat="42.99816" lon="0.9021">
        <ele>425</ele>
        <time>2021-03-13T12:55:53Z</time>
      </trkpt>
      <trkpt lat="42.9982" lon="0.90201">
        <ele>425</ele>
        <time>2021-03-13T12:55:54Z</time>
      </trkpt>
      <trkpt lat="42.9982" lon="0.90201">
        <ele>425</ele>
        <time>2021-03-13T12:55:55Z</time>
      </trkpt>
      <trkpt lat="42.99825" lon="0.90192">
        <ele>425</ele>
        <time>2021-03-13T12:55:56Z</time>
      </trkpt>
      <trkpt lat="42.99825" lon="0.90192">
        <ele>425</ele>
        <time>2021-03-13T12:55:57Z</time>
      </trkpt>
      <trkpt lat="42.9983" lon="0.90184">
        <ele>425</ele>
        <time>2021-03-13T12:55:58Z</time>
      </trkpt>
      <trkpt lat="42.9983" lon="0.90184">
        <ele>425</ele>
        <time>2021-03-13T12:55:59Z</time>
      </trkpt>
      <trkpt lat="42.99834" lon="0.90177">
        <ele>425</ele>
        <time>2021-03-13T12:56:00Z</time>
      </trkpt>
      <trkpt lat="42.99834" lon="0.90177">
        <ele>425</ele>
        <time>2021-03-13T12:56:01Z</time>
      </trkpt>
      <trkpt lat="42.99838" lon="0.9017">
        <ele>425</ele>
        <time>2021-03-13T12:56:02Z</time>
      </trkpt>
      <trkpt lat="42.99838" lon="0.9017">
        <ele>425</ele>
        <time>2021-03-13T12:56:03Z</time>
      </trkpt>
      <trkpt lat="42.99842" lon="0.90161">
        <ele>425</ele>
        <time>2021-03-13T12:56:04Z</time>
      </trkpt>
      <trkpt lat="42.99842" lon="0.90161">
        <ele>425</ele>
        <time>2021-03-13T12:56:05Z</time>
      </trkpt>
      <trkpt lat="42.99845" lon="0.90152">
        <ele>425</ele>
        <time>2021-03-13T12:56:06Z</time>
      </trkpt>
      <trkpt lat="42.99845" lon="0.90152">
        <ele>425</ele>
        <time>2021-03-13T12:56:07Z</time>
      </trkpt>
      <trkpt lat="42.99848" lon="0.90142">
        <ele>425</ele>
        <time>2021-03-13T12:56:08Z</time>
      </trkpt>
      <trkpt lat="42.99848" lon="0.90142">
        <ele>425</ele>
        <time>2021-03-13T12:56:09Z</time>
      </trkpt>
      <trkpt lat="42.9985" lon="0.90132">
        <ele>427</ele>
        <time>2021-03-13T12:56:10Z</time>
      </trkpt>
      <trkpt lat="42.9985" lon="0.90132">
        <ele>427</ele>
        <time>2021-03-13T12:56:11Z</time>
      </trkpt>
      <trkpt lat="42.9985" lon="0.90122">
        <ele>427</ele>
        <time>2021-03-13T12:56:12Z</time>
      </trkpt>
      <trkpt lat="42.9985" lon="0.90122">
        <ele>427</ele>
        <time>2021-03-13T12:56:13Z</time>
      </trkpt>
      <trkpt lat="42.9985" lon="0.90108">
        <ele>427</ele>
        <time>2021-03-13T12:56:14Z</time>
      </trkpt>
      <trkpt lat="42.9985" lon="0.90106">
        <ele>427</ele>
        <time>2021-03-13T12:56:15Z</time>
      </trkpt>
      <trkpt lat="42.99849" lon="0.90101">
        <ele>427</ele>
        <time>2021-03-13T12:56:16Z</time>
      </trkpt>
      <trkpt lat="42.99849" lon="0.90095">
        <ele>427</ele>
        <time>2021-03-13T12:56:17Z</time>
      </trkpt>
      <trkpt lat="42.99849" lon="0.9009">
        <ele>427</ele>
        <time>2021-03-13T12:56:18Z</time>
      </trkpt>
      <trkpt lat="42.99849" lon="0.9009">
        <ele>427</ele>
        <time>2021-03-13T12:56:19Z</time>
      </trkpt>
      <trkpt lat="42.99849" lon="0.90079">
        <ele>428</ele>
        <time>2021-03-13T12:56:20Z</time>
      </trkpt>
      <trkpt lat="42.99849" lon="0.90074">
        <ele>428</ele>
        <time>2021-03-13T12:56:21Z</time>
      </trkpt>
      <trkpt lat="42.99849" lon="0.90069">
        <ele>428</ele>
        <time>2021-03-13T12:56:22Z</time>
      </trkpt>
      <trkpt lat="42.99849" lon="0.90069">
        <ele>428</ele>
        <time>2021-03-13T12:56:23Z</time>
      </trkpt>
      <trkpt lat="42.9985" lon="0.9006">
        <ele>428</ele>
        <time>2021-03-13T12:56:24Z</time>
      </trkpt>
      <trkpt lat="42.9985" lon="0.9006">
        <ele>428</ele>
        <time>2021-03-13T12:56:25Z</time>
      </trkpt>
      <trkpt lat="42.9985" lon="0.90049">
        <ele>428</ele>
        <time>2021-03-13T12:56:26Z</time>
      </trkpt>
      <trkpt lat="42.9985" lon="0.90049">
        <ele>428</ele>
        <time>2021-03-13T12:56:27Z</time>
      </trkpt>
      <trkpt lat="42.99851" lon="0.9004">
        <ele>428</ele>
        <time>2021-03-13T12:56:28Z</time>
      </trkpt>
      <trkpt lat="42.99851" lon="0.9004">
        <ele>428</ele>
        <time>2021-03-13T12:56:29Z</time>
      </trkpt>
      <trkpt lat="42.99851" lon="0.90031">
        <ele>429</ele>
        <time>2021-03-13T12:56:30Z</time>
      </trkpt>
      <trkpt lat="42.99851" lon="0.90031">
        <ele>429</ele>
        <time>2021-03-13T12:56:31Z</time>
      </trkpt>
      <trkpt lat="42.99852" lon="0.90021">
        <ele>429</ele>
        <time>2021-03-13T12:56:32Z</time>
      </trkpt>
      <trkpt lat="42.99852" lon="0.90021">
        <ele>429</ele>
        <time>2021-03-13T12:56:33Z</time>
      </trkpt>
      <trkpt lat="42.99851" lon="0.90011">
        <ele>429</ele>
        <time>2021-03-13T12:56:34Z</time>
      </trkpt>
      <trkpt lat="42.99851" lon="0.90011">
        <ele>429</ele>
        <time>2021-03-13T12:56:35Z</time>
      </trkpt>
      <trkpt lat="42.99851" lon="0.90001">
        <ele>429</ele>
        <time>2021-03-13T12:56:36Z</time>
      </trkpt>
      <trkpt lat="42.99851" lon="0.90001">
        <ele>429</ele>
        <time>2021-03-13T12:56:37Z</time>
      </trkpt>
      <trkpt lat="42.9985" lon="0.89992">
        <ele>429</ele>
        <time>2021-03-13T12:56:38Z</time>
      </trkpt>
      <trkpt lat="42.9985" lon="0.89992">
        <ele>429</ele>
        <time>2021-03-13T12:56:39Z</time>
      </trkpt>
      <trkpt lat="42.9985" lon="0.89982">
        <ele>431</ele>
        <time>2021-03-13T12:56:40Z</time>
      </trkpt>
      <trkpt lat="42.9985" lon="0.89982">
        <ele>431</ele>
        <time>2021-03-13T12:56:41Z</time>
      </trkpt>
      <trkpt lat="42.99849" lon="0.89974">
        <ele>431</ele>
        <time>2021-03-13T12:56:42Z</time>
      </trkpt>
      <trkpt lat="42.99849" lon="0.89974">
        <ele>431</ele>
        <time>2021-03-13T12:56:43Z</time>
      </trkpt>
      <trkpt lat="42.99848" lon="0.89965">
        <ele>431</ele>
        <time>2021-03-13T12:56:44Z</time>
      </trkpt>
      <trkpt lat="42.99848" lon="0.89965">
        <ele>431</ele>
        <time>2021-03-13T12:56:45Z</time>
      </trkpt>
      <trkpt lat="42.99845" lon="0.89956">
        <ele>431</ele>
        <time>2021-03-13T12:56:46Z</time>
      </trkpt>
      <trkpt lat="42.99845" lon="0.89956">
        <ele>431</ele>
        <time>2021-03-13T12:56:47Z</time>
      </trkpt>
      <trkpt lat="42.99841" lon="0.89946">
        <ele>431</ele>
        <time>2021-03-13T12:56:48Z</time>
      </trkpt>
      <trkpt lat="42.9984" lon="0.89944">
        <ele>431</ele>
        <time>2021-03-13T12:56:49Z</time>
      </trkpt>
      <trkpt lat="42.99838" lon="0.89941">
        <ele>434</ele>
        <time>2021-03-13T12:56:50Z</time>
      </trkpt>
      <trkpt lat="42.99835" lon="0.89938">
        <ele>434</ele>
        <time>2021-03-13T12:56:51Z</time>
      </trkpt>
      <trkpt lat="42.99833" lon="0.89935">
        <ele>434</ele>
        <time>2021-03-13T12:56:52Z</time>
      </trkpt>
      <trkpt lat="42.9983" lon="0.89932">
        <ele>434</ele>
        <time>2021-03-13T12:56:53Z</time>
      </trkpt>
      <trkpt lat="42.99828" lon="0.89928">
        <ele>434</ele>
        <time>2021-03-13T12:56:54Z</time>
      </trkpt>
      <trkpt lat="42.99826" lon="0.89925">
        <ele>435</ele>
        <time>2021-03-13T12:56:55Z</time>
      </trkpt>
      <trkpt lat="42.99824" lon="0.89921">
        <ele>435</ele>
        <time>2021-03-13T12:56:56Z</time>
      </trkpt>
      <trkpt lat="42.99822" lon="0.89916">
        <ele>435</ele>
        <time>2021-03-13T12:56:57Z</time>
      </trkpt>
      <trkpt lat="42.9982" lon="0.89912">
        <ele>435</ele>
        <time>2021-03-13T12:56:58Z</time>
      </trkpt>
      <trkpt lat="42.99819" lon="0.89907">
        <ele>435</ele>
        <time>2021-03-13T12:56:59Z</time>
      </trkpt>
      <trkpt lat="42.99818" lon="0.89902">
        <ele>435</ele>
        <time>2021-03-13T12:57:00Z</time>
      </trkpt>
      <trkpt lat="42.99817" lon="0.89897">
        <ele>435</ele>
        <time>2021-03-13T12:57:01Z</time>
      </trkpt>
      <trkpt lat="42.99815" lon="0.89892">
        <ele>435</ele>
        <time>2021-03-13T12:57:02Z</time>
      </trkpt>
      <trkpt lat="42.99814" lon="0.89887">
        <ele>435</ele>
        <time>2021-03-13T12:57:03Z</time>
      </trkpt>
      <trkpt lat="42.99813" lon="0.89882">
        <ele>435</ele>
        <time>2021-03-13T12:57:04Z</time>
      </trkpt>
      <trkpt lat="42.99812" lon="0.89877">
        <ele>435</ele>
        <time>2021-03-13T12:57:05Z</time>
      </trkpt>
      <trkpt lat="42.99811" lon="0.89872">
        <ele>435</ele>
        <time>2021-03-13T12:57:06Z</time>
      </trkpt>
      <trkpt lat="42.9981" lon="0.89868">
        <ele>435</ele>
        <time>2021-03-13T12:57:07Z</time>
      </trkpt>
      <trkpt lat="42.99808" lon="0.89863">
        <ele>435</ele>
        <time>2021-03-13T12:57:08Z</time>
      </trkpt>
      <trkpt lat="42.99807" lon="0.89858">
        <ele>435</ele>
        <time>2021-03-13T12:57:09Z</time>
      </trkpt>
      <trkpt lat="42.99806" lon="0.89853">
        <ele>436</ele>
        <time>2021-03-13T12:57:10Z</time>
      </trkpt>
      <trkpt lat="42.99805" lon="0.89848">
        <ele>436</ele>
        <time>2021-03-13T12:57:11Z</time>
      </trkpt>
      <trkpt lat="42.99804" lon="0.89843">
        <ele>436</ele>
        <time>2021-03-13T12:57:12Z</time>
      </trkpt>
      <trkpt lat="42.99803" lon="0.89837">
        <ele>436</ele>
        <time>2021-03-13T12:57:13Z</time>
      </trkpt>
      <trkpt lat="42.99801" lon="0.89832">
        <ele>436</ele>
        <time>2021-03-13T12:57:14Z</time>
      </trkpt>
      <trkpt lat="42.998" lon="0.89827">
        <ele>435</ele>
        <time>2021-03-13T12:57:15Z</time>
      </trkpt>
      <trkpt lat="42.99799" lon="0.89823">
        <ele>435</ele>
        <time>2021-03-13T12:57:16Z</time>
      </trkpt>
      <trkpt lat="42.99798" lon="0.89818">
        <ele>435</ele>
        <time>2021-03-13T12:57:17Z</time>
      </trkpt>
      <trkpt lat="42.99797" lon="0.89813">
        <ele>435</ele>
        <time>2021-03-13T12:57:18Z</time>
      </trkpt>
      <trkpt lat="42.99795" lon="0.89808">
        <ele>435</ele>
        <time>2021-03-13T12:57:19Z</time>
      </trkpt>
      <trkpt lat="42.99794" lon="0.89803">
        <ele>436</ele>
        <time>2021-03-13T12:57:20Z</time>
      </trkpt>
      <trkpt lat="42.99794" lon="0.89798">
        <ele>436</ele>
        <time>2021-03-13T12:57:21Z</time>
      </trkpt>
      <trkpt lat="42.99795" lon="0.89794">
        <ele>436</ele>
        <time>2021-03-13T12:57:22Z</time>
      </trkpt>
      <trkpt lat="42.99797" lon="0.89791">
        <ele>436</ele>
        <time>2021-03-13T12:57:23Z</time>
      </trkpt>
      <trkpt lat="42.99799" lon="0.89788">
        <ele>436</ele>
        <time>2021-03-13T12:57:24Z</time>
      </trkpt>
      <trkpt lat="42.99802" lon="0.89787">
        <ele>436</ele>
        <time>2021-03-13T12:57:25Z</time>
      </trkpt>
      <trkpt lat="42.99802" lon="0.89787">
        <ele>436</ele>
        <time>2021-03-13T12:57:26Z</time>
      </trkpt>
      <trkpt lat="42.99808" lon="0.89785">
        <ele>436</ele>
        <time>2021-03-13T12:57:27Z</time>
      </trkpt>
      <trkpt lat="42.99808" lon="0.89785">
        <ele>436</ele>
        <time>2021-03-13T12:57:28Z</time>
      </trkpt>
      <trkpt lat="42.99814" lon="0.89782">
        <ele>436</ele>
        <time>2021-03-13T12:57:29Z</time>
      </trkpt>
      <trkpt lat="42.99814" lon="0.89782">
        <ele>438</ele>
        <time>2021-03-13T12:57:30Z</time>
      </trkpt>
      <trkpt lat="42.99822" lon="0.89779">
        <ele>438</ele>
        <time>2021-03-13T12:57:31Z</time>
      </trkpt>
      <trkpt lat="42.99824" lon="0.89778">
        <ele>438</ele>
        <time>2021-03-13T12:57:32Z</time>
      </trkpt>
      <trkpt lat="42.99827" lon="0.89777">
        <ele>438</ele>
        <time>2021-03-13T12:57:33Z</time>
      </trkpt>
      <trkpt lat="42.9983" lon="0.89775">
        <ele>438</ele>
        <time>2021-03-13T12:57:34Z</time>
      </trkpt>
      <trkpt lat="42.99833" lon="0.89774">
        <ele>438</ele>
        <time>2021-03-13T12:57:35Z</time>
      </trkpt>
      <trkpt lat="42.99837" lon="0.89772">
        <ele>438</ele>
        <time>2021-03-13T12:57:36Z</time>
      </trkpt>
      <trkpt lat="42.9984" lon="0.89771">
        <ele>438</ele>
        <time>2021-03-13T12:57:37Z</time>
      </trkpt>
      <trkpt lat="42.99843" lon="0.8977">
        <ele>438</ele>
        <time>2021-03-13T12:57:38Z</time>
      </trkpt>
      <trkpt lat="42.99846" lon="0.89769">
        <ele>438</ele>
        <time>2021-03-13T12:57:39Z</time>
      </trkpt>
      <trkpt lat="42.99849" lon="0.89767">
        <ele>440</ele>
        <time>2021-03-13T12:57:40Z</time>
      </trkpt>
      <trkpt lat="42.99852" lon="0.89766">
        <ele>440</ele>
        <time>2021-03-13T12:57:41Z</time>
      </trkpt>
      <trkpt lat="42.99854" lon="0.89765">
        <ele>440</ele>
        <time>2021-03-13T12:57:42Z</time>
      </trkpt>
      <trkpt lat="42.99854" lon="0.89765">
        <ele>440</ele>
        <time>2021-03-13T12:57:43Z</time>
      </trkpt>
      <trkpt lat="42.99859" lon="0.89762">
        <ele>440</ele>
        <time>2021-03-13T12:57:44Z</time>
      </trkpt>
      <trkpt lat="42.99859" lon="0.89762">
        <ele>443</ele>
        <time>2021-03-13T12:57:45Z</time>
      </trkpt>
      <trkpt lat="42.99861" lon="0.89762">
        <ele>443</ele>
        <time>2021-03-13T12:57:46Z</time>
      </trkpt>
      <trkpt lat="42.99864" lon="0.89761">
        <ele>443</ele>
        <time>2021-03-13T12:57:47Z</time>
      </trkpt>
      <trkpt lat="42.99866" lon="0.8976">
        <ele>443</ele>
        <time>2021-03-13T12:57:48Z</time>
      </trkpt>
      <trkpt lat="42.99868" lon="0.89759">
        <ele>443</ele>
        <time>2021-03-13T12:57:49Z</time>
      </trkpt>
      <trkpt lat="42.9987" lon="0.89759">
        <ele>444</ele>
        <time>2021-03-13T12:57:50Z</time>
      </trkpt>
      <trkpt lat="42.99872" lon="0.89758">
        <ele>444</ele>
        <time>2021-03-13T12:57:51Z</time>
      </trkpt>
      <trkpt lat="42.99874" lon="0.89757">
        <ele>444</ele>
        <time>2021-03-13T12:57:52Z</time>
      </trkpt>
      <trkpt lat="42.99876" lon="0.89756">
        <ele>444</ele>
        <time>2021-03-13T12:57:53Z</time>
      </trkpt>
      <trkpt lat="42.99879" lon="0.89754">
        <ele>444</ele>
        <time>2021-03-13T12:57:54Z</time>
      </trkpt>
      <trkpt lat="42.99882" lon="0.89753">
        <ele>446</ele>
        <time>2021-03-13T12:57:55Z</time>
      </trkpt>
      <trkpt lat="42.9989" lon="0.89749">
        <ele>446</ele>
        <time>2021-03-13T12:57:56Z</time>
      </trkpt>
      <trkpt lat="42.9989" lon="0.89749">
        <ele>446</ele>
        <time>2021-03-13T12:57:57Z</time>
      </trkpt>
      <trkpt lat="42.99897" lon="0.89746">
        <ele>446</ele>
        <time>2021-03-13T12:57:58Z</time>
      </trkpt>
      <trkpt lat="42.99897" lon="0.89746">
        <ele>446</ele>
        <time>2021-03-13T12:57:59Z</time>
      </trkpt>
      <trkpt lat="42.99903" lon="0.89743">
        <ele>448</ele>
        <time>2021-03-13T12:58:00Z</time>
      </trkpt>
      <trkpt lat="42.99903" lon="0.89743">
        <ele>448</ele>
        <time>2021-03-13T12:58:01Z</time>
      </trkpt>
      <trkpt lat="42.9991" lon="0.89741">
        <ele>448</ele>
        <time>2021-03-13T12:58:02Z</time>
      </trkpt>
      <trkpt lat="42.9991" lon="0.89741">
        <ele>448</ele>
        <time>2021-03-13T12:58:03Z</time>
      </trkpt>
      <trkpt lat="42.99917" lon="0.89739">
        <ele>448</ele>
        <time>2021-03-13T12:58:04Z</time>
      </trkpt>
      <trkpt lat="42.99917" lon="0.89739">
        <ele>448</ele>
        <time>2021-03-13T12:58:05Z</time>
      </trkpt>
      <trkpt lat="42.99924" lon="0.89737">
        <ele>448</ele>
        <time>2021-03-13T12:58:06Z</time>
      </trkpt>
      <trkpt lat="42.99924" lon="0.89737">
        <ele>448</ele>
        <time>2021-03-13T12:58:07Z</time>
      </trkpt>
      <trkpt lat="42.9993" lon="0.89735">
        <ele>448</ele>
        <time>2021-03-13T12:58:08Z</time>
      </trkpt>
      <trkpt lat="42.9993" lon="0.89735">
        <ele>448</ele>
        <time>2021-03-13T12:58:09Z</time>
      </trkpt>
      <trkpt lat="42.99937" lon="0.89734">
        <ele>449</ele>
        <time>2021-03-13T12:58:10Z</time>
      </trkpt>
      <trkpt lat="42.99937" lon="0.89734">
        <ele>449</ele>
        <time>2021-03-13T12:58:11Z</time>
      </trkpt>
      <trkpt lat="42.99942" lon="0.89733">
        <ele>449</ele>
        <time>2021-03-13T12:58:12Z</time>
      </trkpt>
      <trkpt lat="42.99942" lon="0.89733">
        <ele>449</ele>
        <time>2021-03-13T12:58:13Z</time>
      </trkpt>
      <trkpt lat="42.99948" lon="0.89732">
        <ele>449</ele>
        <time>2021-03-13T12:58:14Z</time>
      </trkpt>
      <trkpt lat="42.99948" lon="0.89732">
        <ele>449</ele>
        <time>2021-03-13T12:58:15Z</time>
      </trkpt>
      <trkpt lat="42.99954" lon="0.89731">
        <ele>449</ele>
        <time>2021-03-13T12:58:16Z</time>
      </trkpt>
      <trkpt lat="42.99954" lon="0.89731">
        <ele>449</ele>
        <time>2021-03-13T12:58:17Z</time>
      </trkpt>
      <trkpt lat="42.9996" lon="0.89729">
        <ele>449</ele>
        <time>2021-03-13T12:58:18Z</time>
      </trkpt>
      <trkpt lat="42.9996" lon="0.89729">
        <ele>449</ele>
        <time>2021-03-13T12:58:19Z</time>
      </trkpt>
      <trkpt lat="42.99966" lon="0.89728">
        <ele>451</ele>
        <time>2021-03-13T12:58:20Z</time>
      </trkpt>
      <trkpt lat="42.99966" lon="0.89728">
        <ele>451</ele>
        <time>2021-03-13T12:58:21Z</time>
      </trkpt>
      <trkpt lat="42.99972" lon="0.89726">
        <ele>451</ele>
        <time>2021-03-13T12:58:22Z</time>
      </trkpt>
      <trkpt lat="42.99972" lon="0.89726">
        <ele>451</ele>
        <time>2021-03-13T12:58:23Z</time>
      </trkpt>
      <trkpt lat="42.99978" lon="0.89724">
        <ele>451</ele>
        <time>2021-03-13T12:58:24Z</time>
      </trkpt>
      <trkpt lat="42.99978" lon="0.89724">
        <ele>451</ele>
        <time>2021-03-13T12:58:25Z</time>
      </trkpt>
      <trkpt lat="42.99984" lon="0.89722">
        <ele>451</ele>
        <time>2021-03-13T12:58:26Z</time>
      </trkpt>
      <trkpt lat="42.99984" lon="0.89722">
        <ele>451</ele>
        <time>2021-03-13T12:58:27Z</time>
      </trkpt>
      <trkpt lat="42.99989" lon="0.89719">
        <ele>451</ele>
        <time>2021-03-13T12:58:28Z</time>
      </trkpt>
      <trkpt lat="42.99989" lon="0.89719">
        <ele>451</ele>
        <time>2021-03-13T12:58:29Z</time>
      </trkpt>
      <trkpt lat="42.99997" lon="0.89716">
        <ele>453</ele>
        <time>2021-03-13T12:58:30Z</time>
      </trkpt>
      <trkpt lat="42.99998" lon="0.89715">
        <ele>453</ele>
        <time>2021-03-13T12:58:31Z</time>
      </trkpt>
      <trkpt lat="43.00001" lon="0.89713">
        <ele>453</ele>
        <time>2021-03-13T12:58:32Z</time>
      </trkpt>
      <trkpt lat="43.00004" lon="0.89711">
        <ele>453</ele>
        <time>2021-03-13T12:58:33Z</time>
      </trkpt>
      <trkpt lat="43.00004" lon="0.89711">
        <ele>453</ele>
        <time>2021-03-13T12:58:34Z</time>
      </trkpt>
      <trkpt lat="43.0001" lon="0.89708">
        <ele>455</ele>
        <time>2021-03-13T12:58:35Z</time>
      </trkpt>
      <trkpt lat="43.0001" lon="0.89708">
        <ele>455</ele>
        <time>2021-03-13T12:58:36Z</time>
      </trkpt>
      <trkpt lat="43.00015" lon="0.89703">
        <ele>455</ele>
        <time>2021-03-13T12:58:37Z</time>
      </trkpt>
      <trkpt lat="43.00015" lon="0.89703">
        <ele>455</ele>
        <time>2021-03-13T12:58:38Z</time>
      </trkpt>
      <trkpt lat="43.00019" lon="0.89698">
        <ele>455</ele>
        <time>2021-03-13T12:58:39Z</time>
      </trkpt>
      <trkpt lat="43.00019" lon="0.89698">
        <ele>456</ele>
        <time>2021-03-13T12:58:40Z</time>
      </trkpt>
      <trkpt lat="43.00023" lon="0.89692">
        <ele>456</ele>
        <time>2021-03-13T12:58:41Z</time>
      </trkpt>
      <trkpt lat="43.00023" lon="0.89692">
        <ele>456</ele>
        <time>2021-03-13T12:58:42Z</time>
      </trkpt>
      <trkpt lat="43.00029" lon="0.89687">
        <ele>456</ele>
        <time>2021-03-13T12:58:43Z</time>
      </trkpt>
      <trkpt lat="43.00029" lon="0.89687">
        <ele>456</ele>
        <time>2021-03-13T12:58:44Z</time>
      </trkpt>
      <trkpt lat="43.00036" lon="0.89683">
        <ele>456</ele>
        <time>2021-03-13T12:58:45Z</time>
      </trkpt>
      <trkpt lat="43.00036" lon="0.89683">
        <ele>456</ele>
        <time>2021-03-13T12:58:46Z</time>
      </trkpt>
      <trkpt lat="43.00039" lon="0.89675">
        <ele>456</ele>
        <time>2021-03-13T12:58:47Z</time>
      </trkpt>
      <trkpt lat="43.00039" lon="0.89675">
        <ele>456</ele>
        <time>2021-03-13T12:58:48Z</time>
      </trkpt>
      <trkpt lat="43.00042" lon="0.89666">
        <ele>456</ele>
        <time>2021-03-13T12:58:49Z</time>
      </trkpt>
      <trkpt lat="43.00042" lon="0.89666">
        <ele>456</ele>
        <time>2021-03-13T12:58:50Z</time>
      </trkpt>
      <trkpt lat="43.00045" lon="0.89656">
        <ele>456</ele>
        <time>2021-03-13T12:58:51Z</time>
      </trkpt>
      <trkpt lat="43.00045" lon="0.89656">
        <ele>456</ele>
        <time>2021-03-13T12:58:52Z</time>
      </trkpt>
      <trkpt lat="43.00048" lon="0.89646">
        <ele>456</ele>
        <time>2021-03-13T12:58:53Z</time>
      </trkpt>
      <trkpt lat="43.00048" lon="0.89646">
        <ele>456</ele>
        <time>2021-03-13T12:58:54Z</time>
      </trkpt>
      <trkpt lat="43.00053" lon="0.89635">
        <ele>456</ele>
        <time>2021-03-13T12:58:55Z</time>
      </trkpt>
      <trkpt lat="43.00055" lon="0.89633">
        <ele>456</ele>
        <time>2021-03-13T12:58:56Z</time>
      </trkpt>
      <trkpt lat="43.00058" lon="0.89629">
        <ele>456</ele>
        <time>2021-03-13T12:58:57Z</time>
      </trkpt>
      <trkpt lat="43.00063" lon="0.89625">
        <ele>456</ele>
        <time>2021-03-13T12:58:58Z</time>
      </trkpt>
      <trkpt lat="43.00067" lon="0.89621">
        <ele>456</ele>
        <time>2021-03-13T12:58:59Z</time>
      </trkpt>
      <trkpt lat="43.00072" lon="0.89617">
        <ele>454</ele>
        <time>2021-03-13T12:59:00Z</time>
      </trkpt>
      <trkpt lat="43.00076" lon="0.89613">
        <ele>454</ele>
        <time>2021-03-13T12:59:01Z</time>
      </trkpt>
      <trkpt lat="43.00081" lon="0.89609">
        <ele>454</ele>
        <time>2021-03-13T12:59:02Z</time>
      </trkpt>
      <trkpt lat="43.00086" lon="0.89606">
        <ele>454</ele>
        <time>2021-03-13T12:59:03Z</time>
      </trkpt>
      <trkpt lat="43.00091" lon="0.89602">
        <ele>454</ele>
        <time>2021-03-13T12:59:04Z</time>
      </trkpt>
      <trkpt lat="43.00096" lon="0.89597">
        <ele>454</ele>
        <time>2021-03-13T12:59:05Z</time>
      </trkpt>
      <trkpt lat="43.00101" lon="0.89593">
        <ele>454</ele>
        <time>2021-03-13T12:59:06Z</time>
      </trkpt>
      <trkpt lat="43.00106" lon="0.89589">
        <ele>454</ele>
        <time>2021-03-13T12:59:07Z</time>
      </trkpt>
      <trkpt lat="43.00112" lon="0.89585">
        <ele>454</ele>
        <time>2021-03-13T12:59:08Z</time>
      </trkpt>
      <trkpt lat="43.00117" lon="0.89582">
        <ele>454</ele>
        <time>2021-03-13T12:59:09Z</time>
      </trkpt>
      <trkpt lat="43.00122" lon="0.89578">
        <ele>453</ele>
        <time>2021-03-13T12:59:10Z</time>
      </trkpt>
      <trkpt lat="43.00122" lon="0.89578">
        <ele>453</ele>
        <time>2021-03-13T12:59:11Z</time>
      </trkpt>
      <trkpt lat="43.00134" lon="0.8957">
        <ele>453</ele>
        <time>2021-03-13T12:59:12Z</time>
      </trkpt>
      <trkpt lat="43.00136" lon="0.89568">
        <ele>453</ele>
        <time>2021-03-13T12:59:13Z</time>
      </trkpt>
      <trkpt lat="43.00143" lon="0.89565">
        <ele>453</ele>
        <time>2021-03-13T12:59:14Z</time>
      </trkpt>
      <trkpt lat="43.00145" lon="0.89565">
        <ele>453</ele>
        <time>2021-03-13T12:59:15Z</time>
      </trkpt>
      <trkpt lat="43.0015" lon="0.89566">
        <ele>453</ele>
        <time>2021-03-13T12:59:16Z</time>
      </trkpt>
      <trkpt lat="43.0015" lon="0.89566">
        <ele>453</ele>
        <time>2021-03-13T12:59:17Z</time>
      </trkpt>
      <trkpt lat="43.0016" lon="0.89579">
        <ele>453</ele>
        <time>2021-03-13T12:59:18Z</time>
      </trkpt>
      <trkpt lat="43.00162" lon="0.89581">
        <ele>453</ele>
        <time>2021-03-13T12:59:19Z</time>
      </trkpt>
      <trkpt lat="43.00164" lon="0.89586">
        <ele>447</ele>
        <time>2021-03-13T12:59:20Z</time>
      </trkpt>
      <trkpt lat="43.00171" lon="0.89609">
        <ele>443</ele>
        <time>2021-03-13T12:59:21Z</time>
      </trkpt>
      <trkpt lat="43.00172" lon="0.89614">
        <ele>442</ele>
        <time>2021-03-13T12:59:22Z</time>
      </trkpt>
      <trkpt lat="43.00174" lon="0.89625">
        <ele>442</ele>
        <time>2021-03-13T12:59:23Z</time>
      </trkpt>
      <trkpt lat="43.00177" lon="0.89637">
        <ele>441</ele>
        <time>2021-03-13T12:59:24Z</time>
      </trkpt>
      <trkpt lat="43.00179" lon="0.89649">
        <ele>441</ele>
        <time>2021-03-13T12:59:25Z</time>
      </trkpt>
      <trkpt lat="43.00182" lon="0.89662">
        <ele>438</ele>
        <time>2021-03-13T12:59:26Z</time>
      </trkpt>
      <trkpt lat="43.00183" lon="0.89675">
        <ele>437</ele>
        <time>2021-03-13T12:59:27Z</time>
      </trkpt>
      <trkpt lat="43.00186" lon="0.89687">
        <ele>436</ele>
        <time>2021-03-13T12:59:28Z</time>
      </trkpt>
      <trkpt lat="43.00188" lon="0.89699">
        <ele>435</ele>
        <time>2021-03-13T12:59:29Z</time>
      </trkpt>
      <trkpt lat="43.0019" lon="0.8971">
        <ele>435</ele>
        <time>2021-03-13T12:59:30Z</time>
      </trkpt>
      <trkpt lat="43.00192" lon="0.8972">
        <ele>435</ele>
        <time>2021-03-13T12:59:31Z</time>
      </trkpt>
      <trkpt lat="43.00194" lon="0.89728">
        <ele>434</ele>
        <time>2021-03-13T12:59:32Z</time>
      </trkpt>
      <trkpt lat="43.00194" lon="0.89728">
        <ele>433</ele>
        <time>2021-03-13T12:59:33Z</time>
      </trkpt>
      <trkpt lat="43.00206" lon="0.89741">
        <ele>433</ele>
        <time>2021-03-13T12:59:34Z</time>
      </trkpt>
      <trkpt lat="43.00208" lon="0.89742">
        <ele>432</ele>
        <time>2021-03-13T12:59:35Z</time>
      </trkpt>
      <trkpt lat="43.00217" lon="0.89744">
        <ele>431</ele>
        <time>2021-03-13T12:59:36Z</time>
      </trkpt>
      <trkpt lat="43.00219" lon="0.89744">
        <ele>430</ele>
        <time>2021-03-13T12:59:37Z</time>
      </trkpt>
      <trkpt lat="43.00224" lon="0.89745">
        <ele>430</ele>
        <time>2021-03-13T12:59:38Z</time>
      </trkpt>
      <trkpt lat="43.00224" lon="0.89745">
        <ele>429</ele>
        <time>2021-03-13T12:59:39Z</time>
      </trkpt>
      <trkpt lat="43.0023" lon="0.89747">
        <ele>429</ele>
        <time>2021-03-13T12:59:40Z</time>
      </trkpt>
      <trkpt lat="43.0023" lon="0.89747">
        <ele>429</ele>
        <time>2021-03-13T12:59:41Z</time>
      </trkpt>
      <trkpt lat="43.0023" lon="0.89745">
        <ele>429</ele>
        <time>2021-03-13T12:59:42Z</time>
      </trkpt>
      <trkpt lat="43.00231" lon="0.89744">
        <ele>429</ele>
        <time>2021-03-13T12:59:43Z</time>
      </trkpt>
      <trkpt lat="43.00232" lon="0.89742">
        <ele>429</ele>
        <time>2021-03-13T12:59:44Z</time>
      </trkpt>
      <trkpt lat="43.00233" lon="0.89741">
        <ele>429</ele>
        <time>2021-03-13T12:59:45Z</time>
      </trkpt>
      <trkpt lat="43.00236" lon="0.89732">
        <ele>429</ele>
        <time>2021-03-13T12:59:46Z</time>
      </trkpt>
      <trkpt lat="43.00236" lon="0.89732">
        <ele>429</ele>
        <time>2021-03-13T12:59:47Z</time>
      </trkpt>
      <trkpt lat="43.0024" lon="0.89725">
        <ele>429</ele>
        <time>2021-03-13T12:59:48Z</time>
      </trkpt>
      <trkpt lat="43.0024" lon="0.89725">
        <ele>429</ele>
        <time>2021-03-13T12:59:49Z</time>
      </trkpt>
      <trkpt lat="43.0025" lon="0.89719">
        <ele>429</ele>
        <time>2021-03-13T12:59:50Z</time>
      </trkpt>
      <trkpt lat="43.00252" lon="0.89718">
        <ele>429</ele>
        <time>2021-03-13T12:59:51Z</time>
      </trkpt>
      <trkpt lat="43.00256" lon="0.89716">
        <ele>429</ele>
        <time>2021-03-13T12:59:52Z</time>
      </trkpt>
      <trkpt lat="43.0026" lon="0.89714">
        <ele>429</ele>
        <time>2021-03-13T12:59:53Z</time>
      </trkpt>
      <trkpt lat="43.00265" lon="0.89712">
        <ele>429</ele>
        <time>2021-03-13T12:59:54Z</time>
      </trkpt>
      <trkpt lat="43.00269" lon="0.8971">
        <ele>429</ele>
        <time>2021-03-13T12:59:55Z</time>
      </trkpt>
      <trkpt lat="43.00274" lon="0.89708">
        <ele>429</ele>
        <time>2021-03-13T12:59:56Z</time>
      </trkpt>
      <trkpt lat="43.00279" lon="0.89706">
        <ele>429</ele>
        <time>2021-03-13T12:59:57Z</time>
      </trkpt>
      <trkpt lat="43.00283" lon="0.89703">
        <ele>429</ele>
        <time>2021-03-13T12:59:58Z</time>
      </trkpt>
      <trkpt lat="43.00283" lon="0.89703">
        <ele>429</ele>
        <time>2021-03-13T12:59:59Z</time>
      </trkpt>
      <trkpt lat="43.00292" lon="0.89697">
        <ele>429</ele>
        <time>2021-03-13T13:00:00Z</time>
      </trkpt>
      <trkpt lat="43.00296" lon="0.89694">
        <ele>429</ele>
        <time>2021-03-13T13:00:01Z</time>
      </trkpt>
      <trkpt lat="43.003" lon="0.89691">
        <ele>429</ele>
        <time>2021-03-13T13:00:02Z</time>
      </trkpt>
      <trkpt lat="43.00305" lon="0.89687">
        <ele>429</ele>
        <time>2021-03-13T13:00:03Z</time>
      </trkpt>
      <trkpt lat="43.00309" lon="0.89684">
        <ele>429</ele>
        <time>2021-03-13T13:00:04Z</time>
      </trkpt>
      <trkpt lat="43.00313" lon="0.89681">
        <ele>429</ele>
        <time>2021-03-13T13:00:05Z</time>
      </trkpt>
      <trkpt lat="43.00318" lon="0.89679">
        <ele>429</ele>
        <time>2021-03-13T13:00:06Z</time>
      </trkpt>
      <trkpt lat="43.00322" lon="0.89677">
        <ele>429</ele>
        <time>2021-03-13T13:00:07Z</time>
      </trkpt>
      <trkpt lat="43.00326" lon="0.89674">
        <ele>429</ele>
        <time>2021-03-13T13:00:08Z</time>
      </trkpt>
      <trkpt lat="43.00331" lon="0.89672">
        <ele>429</ele>
        <time>2021-03-13T13:00:09Z</time>
      </trkpt>
      <trkpt lat="43.00335" lon="0.89668">
        <ele>429</ele>
        <time>2021-03-13T13:00:10Z</time>
      </trkpt>
      <trkpt lat="43.00338" lon="0.89664">
        <ele>429</ele>
        <time>2021-03-13T13:00:11Z</time>
      </trkpt>
      <trkpt lat="43.00338" lon="0.89664">
        <ele>429</ele>
        <time>2021-03-13T13:00:12Z</time>
      </trkpt>
      <trkpt lat="43.00341" lon="0.89653">
        <ele>429</ele>
        <time>2021-03-13T13:00:13Z</time>
      </trkpt>
      <trkpt lat="43.00341" lon="0.89653">
        <ele>429</ele>
        <time>2021-03-13T13:00:14Z</time>
      </trkpt>
      <trkpt lat="43.00342" lon="0.89643">
        <ele>429</ele>
        <time>2021-03-13T13:00:15Z</time>
      </trkpt>
      <trkpt lat="43.00342" lon="0.89643">
        <ele>428</ele>
        <time>2021-03-13T13:00:16Z</time>
      </trkpt>
      <trkpt lat="43.00341" lon="0.89633">
        <ele>428</ele>
        <time>2021-03-13T13:00:17Z</time>
      </trkpt>
      <trkpt lat="43.00341" lon="0.89633">
        <ele>428</ele>
        <time>2021-03-13T13:00:18Z</time>
      </trkpt>
      <trkpt lat="43.00342" lon="0.89624">
        <ele>428</ele>
        <time>2021-03-13T13:00:19Z</time>
      </trkpt>
      <trkpt lat="43.00342" lon="0.89624">
        <ele>429</ele>
        <time>2021-03-13T13:00:20Z</time>
      </trkpt>
      <trkpt lat="43.00345" lon="0.89616">
        <ele>429</ele>
        <time>2021-03-13T13:00:21Z</time>
      </trkpt>
      <trkpt lat="43.00345" lon="0.89616">
        <ele>429</ele>
        <time>2021-03-13T13:00:22Z</time>
      </trkpt>
      <trkpt lat="43.00348" lon="0.89609">
        <ele>429</ele>
        <time>2021-03-13T13:00:23Z</time>
      </trkpt>
      <trkpt lat="43.00348" lon="0.89609">
        <ele>429</ele>
        <time>2021-03-13T13:00:24Z</time>
      </trkpt>
      <trkpt lat="43.00351" lon="0.89599">
        <ele>429</ele>
        <time>2021-03-13T13:00:25Z</time>
      </trkpt>
      <trkpt lat="43.00351" lon="0.89599">
        <ele>429</ele>
        <time>2021-03-13T13:00:26Z</time>
      </trkpt>
      <trkpt lat="43.00354" lon="0.89588">
        <ele>429</ele>
        <time>2021-03-13T13:00:27Z</time>
      </trkpt>
      <trkpt lat="43.00354" lon="0.89588">
        <ele>429</ele>
        <time>2021-03-13T13:00:28Z</time>
      </trkpt>
      <trkpt lat="43.00355" lon="0.89578">
        <ele>429</ele>
        <time>2021-03-13T13:00:29Z</time>
      </trkpt>
      <trkpt lat="43.00355" lon="0.89578">
        <ele>429</ele>
        <time>2021-03-13T13:00:30Z</time>
      </trkpt>
      <trkpt lat="43.00355" lon="0.89567">
        <ele>429</ele>
        <time>2021-03-13T13:00:31Z</time>
      </trkpt>
      <trkpt lat="43.00355" lon="0.89567">
        <ele>429</ele>
        <time>2021-03-13T13:00:32Z</time>
      </trkpt>
      <trkpt lat="43.00355" lon="0.89555">
        <ele>429</ele>
        <time>2021-03-13T13:00:33Z</time>
      </trkpt>
      <trkpt lat="43.00355" lon="0.89555">
        <ele>429</ele>
        <time>2021-03-13T13:00:34Z</time>
      </trkpt>
      <trkpt lat="43.00354" lon="0.89542">
        <ele>429</ele>
        <time>2021-03-13T13:00:35Z</time>
      </trkpt>
      <trkpt lat="43.00354" lon="0.89542">
        <ele>429</ele>
        <time>2021-03-13T13:00:36Z</time>
      </trkpt>
      <trkpt lat="43.00355" lon="0.8953">
        <ele>429</ele>
        <time>2021-03-13T13:00:37Z</time>
      </trkpt>
      <trkpt lat="43.00355" lon="0.8953">
        <ele>429</ele>
        <time>2021-03-13T13:00:38Z</time>
      </trkpt>
      <trkpt lat="43.00355" lon="0.89517">
        <ele>429</ele>
        <time>2021-03-13T13:00:39Z</time>
      </trkpt>
      <trkpt lat="43.00355" lon="0.89517">
        <ele>429</ele>
        <time>2021-03-13T13:00:40Z</time>
      </trkpt>
      <trkpt lat="43.00356" lon="0.89505">
        <ele>429</ele>
        <time>2021-03-13T13:00:41Z</time>
      </trkpt>
      <trkpt lat="43.00356" lon="0.89505">
        <ele>429</ele>
        <time>2021-03-13T13:00:42Z</time>
      </trkpt>
      <trkpt lat="43.00358" lon="0.89494">
        <ele>429</ele>
        <time>2021-03-13T13:00:43Z</time>
      </trkpt>
      <trkpt lat="43.00358" lon="0.89494">
        <ele>429</ele>
        <time>2021-03-13T13:00:44Z</time>
      </trkpt>
      <trkpt lat="43.00361" lon="0.89483">
        <ele>429</ele>
        <time>2021-03-13T13:00:45Z</time>
      </trkpt>
      <trkpt lat="43.00361" lon="0.89483">
        <ele>429</ele>
        <time>2021-03-13T13:00:46Z</time>
      </trkpt>
      <trkpt lat="43.00364" lon="0.89473">
        <ele>429</ele>
        <time>2021-03-13T13:00:47Z</time>
      </trkpt>
      <trkpt lat="43.00364" lon="0.89473">
        <ele>429</ele>
        <time>2021-03-13T13:00:48Z</time>
      </trkpt>
      <trkpt lat="43.00368" lon="0.89464">
        <ele>429</ele>
        <time>2021-03-13T13:00:49Z</time>
      </trkpt>
      <trkpt lat="43.00368" lon="0.89464">
        <ele>431</ele>
        <time>2021-03-13T13:00:50Z</time>
      </trkpt>
      <trkpt lat="43.0037" lon="0.89455">
        <ele>431</ele>
        <time>2021-03-13T13:00:51Z</time>
      </trkpt>
      <trkpt lat="43.0037" lon="0.89455">
        <ele>431</ele>
        <time>2021-03-13T13:00:52Z</time>
      </trkpt>
      <trkpt lat="43.00373" lon="0.89446">
        <ele>431</ele>
        <time>2021-03-13T13:00:53Z</time>
      </trkpt>
      <trkpt lat="43.00373" lon="0.89446">
        <ele>431</ele>
        <time>2021-03-13T13:00:54Z</time>
      </trkpt>
      <trkpt lat="43.00373" lon="0.89437">
        <ele>431</ele>
        <time>2021-03-13T13:00:55Z</time>
      </trkpt>
      <trkpt lat="43.00373" lon="0.89437">
        <ele>431</ele>
        <time>2021-03-13T13:00:56Z</time>
      </trkpt>
      <trkpt lat="43.00374" lon="0.89433">
        <ele>431</ele>
        <time>2021-03-13T13:00:57Z</time>
      </trkpt>
      <trkpt lat="43.00374" lon="0.89429">
        <ele>431</ele>
        <time>2021-03-13T13:00:58Z</time>
      </trkpt>
      <trkpt lat="43.00374" lon="0.89425">
        <ele>431</ele>
        <time>2021-03-13T13:00:59Z</time>
      </trkpt>
      <trkpt lat="43.00373" lon="0.89417">
        <ele>434</ele>
        <time>2021-03-13T13:01:00Z</time>
      </trkpt>
      <trkpt lat="43.00373" lon="0.89417">
        <ele>434</ele>
        <time>2021-03-13T13:01:01Z</time>
      </trkpt>
      <trkpt lat="43.00372" lon="0.89408">
        <ele>434</ele>
        <time>2021-03-13T13:01:02Z</time>
      </trkpt>
      <trkpt lat="43.00372" lon="0.89408">
        <ele>434</ele>
        <time>2021-03-13T13:01:03Z</time>
      </trkpt>
      <trkpt lat="43.00371" lon="0.894">
        <ele>434</ele>
        <time>2021-03-13T13:01:04Z</time>
      </trkpt>
      <trkpt lat="43.00371" lon="0.894">
        <ele>436</ele>
        <time>2021-03-13T13:01:05Z</time>
      </trkpt>
      <trkpt lat="43.00369" lon="0.89392">
        <ele>436</ele>
        <time>2021-03-13T13:01:06Z</time>
      </trkpt>
      <trkpt lat="43.00369" lon="0.89392">
        <ele>436</ele>
        <time>2021-03-13T13:01:07Z</time>
      </trkpt>
      <trkpt lat="43.00367" lon="0.89385">
        <ele>436</ele>
        <time>2021-03-13T13:01:08Z</time>
      </trkpt>
      <trkpt lat="43.00367" lon="0.89385">
        <ele>436</ele>
        <time>2021-03-13T13:01:09Z</time>
      </trkpt>
      <trkpt lat="43.00365" lon="0.89378">
        <ele>438</ele>
        <time>2021-03-13T13:01:10Z</time>
      </trkpt>
      <trkpt lat="43.00365" lon="0.89378">
        <ele>438</ele>
        <time>2021-03-13T13:01:11Z</time>
      </trkpt>
      <trkpt lat="43.00362" lon="0.89371">
        <ele>438</ele>
        <time>2021-03-13T13:01:12Z</time>
      </trkpt>
      <trkpt lat="43.00362" lon="0.89371">
        <ele>438</ele>
        <time>2021-03-13T13:01:13Z</time>
      </trkpt>
      <trkpt lat="43.00359" lon="0.89364">
        <ele>438</ele>
        <time>2021-03-13T13:01:14Z</time>
      </trkpt>
      <trkpt lat="43.00359" lon="0.89364">
        <ele>438</ele>
        <time>2021-03-13T13:01:15Z</time>
      </trkpt>
      <trkpt lat="43.00356" lon="0.89357">
        <ele>438</ele>
        <time>2021-03-13T13:01:16Z</time>
      </trkpt>
      <trkpt lat="43.00356" lon="0.89357">
        <ele>438</ele>
        <time>2021-03-13T13:01:17Z</time>
      </trkpt>
      <trkpt lat="43.00353" lon="0.89351">
        <ele>438</ele>
        <time>2021-03-13T13:01:18Z</time>
      </trkpt>
      <trkpt lat="43.00353" lon="0.89351">
        <ele>438</ele>
        <time>2021-03-13T13:01:19Z</time>
      </trkpt>
      <trkpt lat="43.00352" lon="0.89344">
        <ele>440</ele>
        <time>2021-03-13T13:01:20Z</time>
      </trkpt>
      <trkpt lat="43.00352" lon="0.89344">
        <ele>440</ele>
        <time>2021-03-13T13:01:21Z</time>
      </trkpt>
      <trkpt lat="43.00352" lon="0.89337">
        <ele>440</ele>
        <time>2021-03-13T13:01:22Z</time>
      </trkpt>
      <trkpt lat="43.00352" lon="0.89337">
        <ele>440</ele>
        <time>2021-03-13T13:01:23Z</time>
      </trkpt>
      <trkpt lat="43.00354" lon="0.89331">
        <ele>440</ele>
        <time>2021-03-13T13:01:24Z</time>
      </trkpt>
      <trkpt lat="43.00354" lon="0.89331">
        <ele>441</ele>
        <time>2021-03-13T13:01:25Z</time>
      </trkpt>
      <trkpt lat="43.00358" lon="0.89326">
        <ele>441</ele>
        <time>2021-03-13T13:01:26Z</time>
      </trkpt>
      <trkpt lat="43.00358" lon="0.89326">
        <ele>441</ele>
        <time>2021-03-13T13:01:27Z</time>
      </trkpt>
      <trkpt lat="43.00362" lon="0.89321">
        <ele>441</ele>
        <time>2021-03-13T13:01:28Z</time>
      </trkpt>
      <trkpt lat="43.00362" lon="0.89321">
        <ele>441</ele>
        <time>2021-03-13T13:01:29Z</time>
      </trkpt>
      <trkpt lat="43.00367" lon="0.89316">
        <ele>442</ele>
        <time>2021-03-13T13:01:30Z</time>
      </trkpt>
      <trkpt lat="43.00367" lon="0.89316">
        <ele>442</ele>
        <time>2021-03-13T13:01:31Z</time>
      </trkpt>
      <trkpt lat="43.00371" lon="0.8931">
        <ele>442</ele>
        <time>2021-03-13T13:01:32Z</time>
      </trkpt>
      <trkpt lat="43.00371" lon="0.8931">
        <ele>442</ele>
        <time>2021-03-13T13:01:33Z</time>
      </trkpt>
      <trkpt lat="43.00376" lon="0.89305">
        <ele>442</ele>
        <time>2021-03-13T13:01:34Z</time>
      </trkpt>
      <trkpt lat="43.00376" lon="0.89305">
        <ele>442</ele>
        <time>2021-03-13T13:01:35Z</time>
      </trkpt>
      <trkpt lat="43.00383" lon="0.89298">
        <ele>442</ele>
        <time>2021-03-13T13:01:36Z</time>
      </trkpt>
      <trkpt lat="43.00384" lon="0.89296">
        <ele>442</ele>
        <time>2021-03-13T13:01:37Z</time>
      </trkpt>
      <trkpt lat="43.00386" lon="0.89294">
        <ele>442</ele>
        <time>2021-03-13T13:01:38Z</time>
      </trkpt>
      <trkpt lat="43.00389" lon="0.89291">
        <ele>442</ele>
        <time>2021-03-13T13:01:39Z</time>
      </trkpt>
      <trkpt lat="43.00391" lon="0.89288">
        <ele>443</ele>
        <time>2021-03-13T13:01:40Z</time>
      </trkpt>
      <trkpt lat="43.00394" lon="0.89285">
        <ele>443</ele>
        <time>2021-03-13T13:01:41Z</time>
      </trkpt>
      <trkpt lat="43.00396" lon="0.89283">
        <ele>443</ele>
        <time>2021-03-13T13:01:42Z</time>
      </trkpt>
      <trkpt lat="43.00399" lon="0.8928">
        <ele>443</ele>
        <time>2021-03-13T13:01:43Z</time>
      </trkpt>
      <trkpt lat="43.00401" lon="0.89278">
        <ele>443</ele>
        <time>2021-03-13T13:01:44Z</time>
      </trkpt>
      <trkpt lat="43.00404" lon="0.89275">
        <ele>443</ele>
        <time>2021-03-13T13:01:45Z</time>
      </trkpt>
      <trkpt lat="43.00404" lon="0.89275">
        <ele>443</ele>
        <time>2021-03-13T13:01:46Z</time>
      </trkpt>
      <trkpt lat="43.00406" lon="0.89272">
        <ele>443</ele>
        <time>2021-03-13T13:01:47Z</time>
      </trkpt>
      <trkpt lat="43.00409" lon="0.8927">
        <ele>443</ele>
        <time>2021-03-13T13:01:48Z</time>
      </trkpt>
      <trkpt lat="43.00412" lon="0.89267">
        <ele>443</ele>
        <time>2021-03-13T13:01:49Z</time>
      </trkpt>
      <trkpt lat="43.00417" lon="0.89261">
        <ele>445</ele>
        <time>2021-03-13T13:01:50Z</time>
      </trkpt>
      <trkpt lat="43.00417" lon="0.89261">
        <ele>445</ele>
        <time>2021-03-13T13:01:51Z</time>
      </trkpt>
      <trkpt lat="43.00422" lon="0.89253">
        <ele>445</ele>
        <time>2021-03-13T13:01:52Z</time>
      </trkpt>
      <trkpt lat="43.00422" lon="0.89253">
        <ele>445</ele>
        <time>2021-03-13T13:01:53Z</time>
      </trkpt>
      <trkpt lat="43.00427" lon="0.89244">
        <ele>445</ele>
        <time>2021-03-13T13:01:54Z</time>
      </trkpt>
      <trkpt lat="43.00427" lon="0.89244">
        <ele>445</ele>
        <time>2021-03-13T13:01:55Z</time>
      </trkpt>
      <trkpt lat="43.00433" lon="0.89231">
        <ele>445</ele>
        <time>2021-03-13T13:01:56Z</time>
      </trkpt>
      <trkpt lat="43.00434" lon="0.89228">
        <ele>445</ele>
        <time>2021-03-13T13:01:57Z</time>
      </trkpt>
      <trkpt lat="43.00437" lon="0.89223">
        <ele>445</ele>
        <time>2021-03-13T13:01:58Z</time>
      </trkpt>
      <trkpt lat="43.00439" lon="0.89217">
        <ele>445</ele>
        <time>2021-03-13T13:01:59Z</time>
      </trkpt>
      <trkpt lat="43.0044" lon="0.89212">
        <ele>446</ele>
        <time>2021-03-13T13:02:00Z</time>
      </trkpt>
      <trkpt lat="43.0044" lon="0.89212">
        <ele>446</ele>
        <time>2021-03-13T13:02:01Z</time>
      </trkpt>
      <trkpt lat="43.00444" lon="0.892">
        <ele>446</ele>
        <time>2021-03-13T13:02:02Z</time>
      </trkpt>
      <trkpt lat="43.00444" lon="0.892">
        <ele>446</ele>
        <time>2021-03-13T13:02:03Z</time>
      </trkpt>
      <trkpt lat="43.00447" lon="0.89189">
        <ele>445</ele>
        <time>2021-03-13T13:02:04Z</time>
      </trkpt>
      <trkpt lat="43.00447" lon="0.89189">
        <ele>445</ele>
        <time>2021-03-13T13:02:05Z</time>
      </trkpt>
      <trkpt lat="43.00451" lon="0.89177">
        <ele>445</ele>
        <time>2021-03-13T13:02:06Z</time>
      </trkpt>
      <trkpt lat="43.00451" lon="0.89177">
        <ele>445</ele>
        <time>2021-03-13T13:02:07Z</time>
      </trkpt>
      <trkpt lat="43.00454" lon="0.89166">
        <ele>445</ele>
        <time>2021-03-13T13:02:08Z</time>
      </trkpt>
      <trkpt lat="43.00454" lon="0.89166">
        <ele>445</ele>
        <time>2021-03-13T13:02:09Z</time>
      </trkpt>
      <trkpt lat="43.00458" lon="0.89155">
        <ele>444</ele>
        <time>2021-03-13T13:02:10Z</time>
      </trkpt>
      <trkpt lat="43.00458" lon="0.89155">
        <ele>444</ele>
        <time>2021-03-13T13:02:11Z</time>
      </trkpt>
      <trkpt lat="43.00462" lon="0.89144">
        <ele>444</ele>
        <time>2021-03-13T13:02:12Z</time>
      </trkpt>
      <trkpt lat="43.00462" lon="0.89144">
        <ele>444</ele>
        <time>2021-03-13T13:02:13Z</time>
      </trkpt>
      <trkpt lat="43.00472" lon="0.89131">
        <ele>444</ele>
        <time>2021-03-13T13:02:14Z</time>
      </trkpt>
      <trkpt lat="43.00475" lon="0.89129">
        <ele>444</ele>
        <time>2021-03-13T13:02:15Z</time>
      </trkpt>
      <trkpt lat="43.00485" lon="0.89128">
        <ele>444</ele>
        <time>2021-03-13T13:02:16Z</time>
      </trkpt>
      <trkpt lat="43.00488" lon="0.89129">
        <ele>444</ele>
        <time>2021-03-13T13:02:17Z</time>
      </trkpt>
      <trkpt lat="43.00499" lon="0.89134">
        <ele>444</ele>
        <time>2021-03-13T13:02:18Z</time>
      </trkpt>
      <trkpt lat="43.00503" lon="0.89135">
        <ele>443</ele>
        <time>2021-03-13T13:02:19Z</time>
      </trkpt>
      <trkpt lat="43.00514" lon="0.89138">
        <ele>439</ele>
        <time>2021-03-13T13:02:20Z</time>
      </trkpt>
      <trkpt lat="43.00518" lon="0.89137">
        <ele>439</ele>
        <time>2021-03-13T13:02:21Z</time>
      </trkpt>
      <trkpt lat="43.00529" lon="0.89134">
        <ele>439</ele>
        <time>2021-03-13T13:02:22Z</time>
      </trkpt>
      <trkpt lat="43.00531" lon="0.89131">
        <ele>439</ele>
        <time>2021-03-13T13:02:23Z</time>
      </trkpt>
      <trkpt lat="43.00538" lon="0.89121">
        <ele>439</ele>
        <time>2021-03-13T13:02:24Z</time>
      </trkpt>
      <trkpt lat="43.00539" lon="0.89117">
        <ele>437</ele>
        <time>2021-03-13T13:02:25Z</time>
      </trkpt>
      <trkpt lat="43.0054" lon="0.89106">
        <ele>437</ele>
        <time>2021-03-13T13:02:26Z</time>
      </trkpt>
      <trkpt lat="43.0054" lon="0.89102">
        <ele>437</ele>
        <time>2021-03-13T13:02:27Z</time>
      </trkpt>
      <trkpt lat="43.00539" lon="0.89091">
        <ele>437</ele>
        <time>2021-03-13T13:02:28Z</time>
      </trkpt>
      <trkpt lat="43.00538" lon="0.89087">
        <ele>437</ele>
        <time>2021-03-13T13:02:29Z</time>
      </trkpt>
      <trkpt lat="43.00537" lon="0.89076">
        <ele>436</ele>
        <time>2021-03-13T13:02:30Z</time>
      </trkpt>
      <trkpt lat="43.00537" lon="0.89072">
        <ele>436</ele>
        <time>2021-03-13T13:02:31Z</time>
      </trkpt>
      <trkpt lat="43.00538" lon="0.89061">
        <ele>436</ele>
        <time>2021-03-13T13:02:32Z</time>
      </trkpt>
      <trkpt lat="43.00538" lon="0.89058">
        <ele>436</ele>
        <time>2021-03-13T13:02:33Z</time>
      </trkpt>
      <trkpt lat="43.00538" lon="0.89051">
        <ele>436</ele>
        <time>2021-03-13T13:02:34Z</time>
      </trkpt>
      <trkpt lat="43.00538" lon="0.89051">
        <ele>435</ele>
        <time>2021-03-13T13:02:35Z</time>
      </trkpt>
      <trkpt lat="43.00539" lon="0.89039">
        <ele>435</ele>
        <time>2021-03-13T13:02:36Z</time>
      </trkpt>
      <trkpt lat="43.00539" lon="0.89039">
        <ele>435</ele>
        <time>2021-03-13T13:02:37Z</time>
      </trkpt>
      <trkpt lat="43.0054" lon="0.89027">
        <ele>435</ele>
        <time>2021-03-13T13:02:38Z</time>
      </trkpt>
      <trkpt lat="43.0054" lon="0.89027">
        <ele>435</ele>
        <time>2021-03-13T13:02:39Z</time>
      </trkpt>
      <trkpt lat="43.00541" lon="0.89015">
        <ele>436</ele>
        <time>2021-03-13T13:02:40Z</time>
      </trkpt>
      <trkpt lat="43.00541" lon="0.89015">
        <ele>436</ele>
        <time>2021-03-13T13:02:41Z</time>
      </trkpt>
      <trkpt lat="43.00544" lon="0.89004">
        <ele>436</ele>
        <time>2021-03-13T13:02:42Z</time>
      </trkpt>
      <trkpt lat="43.00544" lon="0.89004">
        <ele>436</ele>
        <time>2021-03-13T13:02:43Z</time>
      </trkpt>
      <trkpt lat="43.00549" lon="0.88993">
        <ele>436</ele>
        <time>2021-03-13T13:02:44Z</time>
      </trkpt>
      <trkpt lat="43.00549" lon="0.88993">
        <ele>436</ele>
        <time>2021-03-13T13:02:45Z</time>
      </trkpt>
      <trkpt lat="43.00554" lon="0.88983">
        <ele>436</ele>
        <time>2021-03-13T13:02:46Z</time>
      </trkpt>
      <trkpt lat="43.00554" lon="0.88983">
        <ele>436</ele>
        <time>2021-03-13T13:02:47Z</time>
      </trkpt>
      <trkpt lat="43.00558" lon="0.88973">
        <ele>436</ele>
        <time>2021-03-13T13:02:48Z</time>
      </trkpt>
      <trkpt lat="43.00558" lon="0.88973">
        <ele>436</ele>
        <time>2021-03-13T13:02:49Z</time>
      </trkpt>
      <trkpt lat="43.00562" lon="0.88962">
        <ele>436</ele>
        <time>2021-03-13T13:02:50Z</time>
      </trkpt>
      <trkpt lat="43.00562" lon="0.88962">
        <ele>436</ele>
        <time>2021-03-13T13:02:51Z</time>
      </trkpt>
      <trkpt lat="43.00565" lon="0.88951">
        <ele>436</ele>
        <time>2021-03-13T13:02:52Z</time>
      </trkpt>
      <trkpt lat="43.00565" lon="0.88951">
        <ele>436</ele>
        <time>2021-03-13T13:02:53Z</time>
      </trkpt>
      <trkpt lat="43.00567" lon="0.8894">
        <ele>436</ele>
        <time>2021-03-13T13:02:54Z</time>
      </trkpt>
      <trkpt lat="43.00567" lon="0.8894">
        <ele>435</ele>
        <time>2021-03-13T13:02:55Z</time>
      </trkpt>
      <trkpt lat="43.00569" lon="0.88928">
        <ele>435</ele>
        <time>2021-03-13T13:02:56Z</time>
      </trkpt>
      <trkpt lat="43.00569" lon="0.88928">
        <ele>435</ele>
        <time>2021-03-13T13:02:57Z</time>
      </trkpt>
      <trkpt lat="43.00571" lon="0.88914">
        <ele>435</ele>
        <time>2021-03-13T13:02:58Z</time>
      </trkpt>
      <trkpt lat="43.00572" lon="0.88911">
        <ele>435</ele>
        <time>2021-03-13T13:02:59Z</time>
      </trkpt>
      <trkpt lat="43.00572" lon="0.88911">
        <ele>435</ele>
        <time>2021-03-13T13:03:00Z</time>
      </trkpt>
      <trkpt lat="43.00573" lon="0.889">
        <ele>435</ele>
        <time>2021-03-13T13:03:01Z</time>
      </trkpt>
      <trkpt lat="43.00573" lon="0.889">
        <ele>435</ele>
        <time>2021-03-13T13:03:02Z</time>
      </trkpt>
      <trkpt lat="43.00572" lon="0.88888">
        <ele>435</ele>
        <time>2021-03-13T13:03:03Z</time>
      </trkpt>
      <trkpt lat="43.00572" lon="0.88888">
        <ele>435</ele>
        <time>2021-03-13T13:03:04Z</time>
      </trkpt>
      <trkpt lat="43.00572" lon="0.88875">
        <ele>435</ele>
        <time>2021-03-13T13:03:05Z</time>
      </trkpt>
      <trkpt lat="43.00572" lon="0.88875">
        <ele>435</ele>
        <time>2021-03-13T13:03:06Z</time>
      </trkpt>
      <trkpt lat="43.00572" lon="0.88863">
        <ele>435</ele>
        <time>2021-03-13T13:03:07Z</time>
      </trkpt>
      <trkpt lat="43.00572" lon="0.88863">
        <ele>435</ele>
        <time>2021-03-13T13:03:08Z</time>
      </trkpt>
      <trkpt lat="43.00573" lon="0.88857">
        <ele>435</ele>
        <time>2021-03-13T13:03:09Z</time>
      </trkpt>
      <trkpt lat="43.00574" lon="0.88851">
        <ele>435</ele>
        <time>2021-03-13T13:03:10Z</time>
      </trkpt>
      <trkpt lat="43.00575" lon="0.88846">
        <ele>435</ele>
        <time>2021-03-13T13:03:11Z</time>
      </trkpt>
      <trkpt lat="43.00575" lon="0.88841">
        <ele>435</ele>
        <time>2021-03-13T13:03:12Z</time>
      </trkpt>
      <trkpt lat="43.00576" lon="0.88836">
        <ele>435</ele>
        <time>2021-03-13T13:03:13Z</time>
      </trkpt>
      <trkpt lat="43.00576" lon="0.8883">
        <ele>435</ele>
        <time>2021-03-13T13:03:14Z</time>
      </trkpt>
      <trkpt lat="43.00577" lon="0.88826">
        <ele>435</ele>
        <time>2021-03-13T13:03:15Z</time>
      </trkpt>
      <trkpt lat="43.00579" lon="0.88821">
        <ele>435</ele>
        <time>2021-03-13T13:03:16Z</time>
      </trkpt>
      <trkpt lat="43.0058" lon="0.88816">
        <ele>435</ele>
        <time>2021-03-13T13:03:17Z</time>
      </trkpt>
      <trkpt lat="43.00581" lon="0.88811">
        <ele>435</ele>
        <time>2021-03-13T13:03:18Z</time>
      </trkpt>
      <trkpt lat="43.00582" lon="0.88806">
        <ele>435</ele>
        <time>2021-03-13T13:03:19Z</time>
      </trkpt>
      <trkpt lat="43.00583" lon="0.88801">
        <ele>437</ele>
        <time>2021-03-13T13:03:20Z</time>
      </trkpt>
      <trkpt lat="43.00584" lon="0.88797">
        <ele>437</ele>
        <time>2021-03-13T13:03:21Z</time>
      </trkpt>
      <trkpt lat="43.00585" lon="0.88792">
        <ele>437</ele>
        <time>2021-03-13T13:03:22Z</time>
      </trkpt>
      <trkpt lat="43.00586" lon="0.88788">
        <ele>437</ele>
        <time>2021-03-13T13:03:23Z</time>
      </trkpt>
      <trkpt lat="43.00586" lon="0.88784">
        <ele>437</ele>
        <time>2021-03-13T13:03:24Z</time>
      </trkpt>
      <trkpt lat="43.00586" lon="0.88779">
        <ele>437</ele>
        <time>2021-03-13T13:03:25Z</time>
      </trkpt>
      <trkpt lat="43.00586" lon="0.88775">
        <ele>437</ele>
        <time>2021-03-13T13:03:26Z</time>
      </trkpt>
      <trkpt lat="43.00586" lon="0.88771">
        <ele>437</ele>
        <time>2021-03-13T13:03:27Z</time>
      </trkpt>
      <trkpt lat="43.00586" lon="0.88766">
        <ele>437</ele>
        <time>2021-03-13T13:03:28Z</time>
      </trkpt>
      <trkpt lat="43.00586" lon="0.88762">
        <ele>437</ele>
        <time>2021-03-13T13:03:29Z</time>
      </trkpt>
      <trkpt lat="43.00586" lon="0.88757">
        <ele>440</ele>
        <time>2021-03-13T13:03:30Z</time>
      </trkpt>
      <trkpt lat="43.00586" lon="0.88753">
        <ele>440</ele>
        <time>2021-03-13T13:03:31Z</time>
      </trkpt>
      <trkpt lat="43.00586" lon="0.88748">
        <ele>440</ele>
        <time>2021-03-13T13:03:32Z</time>
      </trkpt>
      <trkpt lat="43.00586" lon="0.88744">
        <ele>440</ele>
        <time>2021-03-13T13:03:33Z</time>
      </trkpt>
      <trkpt lat="43.00586" lon="0.8874">
        <ele>440</ele>
        <time>2021-03-13T13:03:34Z</time>
      </trkpt>
      <trkpt lat="43.00586" lon="0.88735">
        <ele>442</ele>
        <time>2021-03-13T13:03:35Z</time>
      </trkpt>
      <trkpt lat="43.00586" lon="0.88731">
        <ele>442</ele>
        <time>2021-03-13T13:03:36Z</time>
      </trkpt>
      <trkpt lat="43.00586" lon="0.88727">
        <ele>442</ele>
        <time>2021-03-13T13:03:37Z</time>
      </trkpt>
      <trkpt lat="43.00586" lon="0.88722">
        <ele>442</ele>
        <time>2021-03-13T13:03:38Z</time>
      </trkpt>
      <trkpt lat="43.00586" lon="0.88718">
        <ele>442</ele>
        <time>2021-03-13T13:03:39Z</time>
      </trkpt>
      <trkpt lat="43.00586" lon="0.88714">
        <ele>442</ele>
        <time>2021-03-13T13:03:40Z</time>
      </trkpt>
      <trkpt lat="43.00586" lon="0.88709">
        <ele>442</ele>
        <time>2021-03-13T13:03:41Z</time>
      </trkpt>
      <trkpt lat="43.00586" lon="0.88705">
        <ele>442</ele>
        <time>2021-03-13T13:03:42Z</time>
      </trkpt>
      <trkpt lat="43.00586" lon="0.887">
        <ele>442</ele>
        <time>2021-03-13T13:03:43Z</time>
      </trkpt>
      <trkpt lat="43.00587" lon="0.88696">
        <ele>442</ele>
        <time>2021-03-13T13:03:44Z</time>
      </trkpt>
      <trkpt lat="43.00587" lon="0.88692">
        <ele>443</ele>
        <time>2021-03-13T13:03:45Z</time>
      </trkpt>
      <trkpt lat="43.00587" lon="0.88688">
        <ele>443</ele>
        <time>2021-03-13T13:03:46Z</time>
      </trkpt>
      <trkpt lat="43.00588" lon="0.88684">
        <ele>443</ele>
        <time>2021-03-13T13:03:47Z</time>
      </trkpt>
      <trkpt lat="43.00588" lon="0.8868">
        <ele>443</ele>
        <time>2021-03-13T13:03:48Z</time>
      </trkpt>
      <trkpt lat="43.00589" lon="0.88677">
        <ele>443</ele>
        <time>2021-03-13T13:03:49Z</time>
      </trkpt>
      <trkpt lat="43.00589" lon="0.88673">
        <ele>444</ele>
        <time>2021-03-13T13:03:50Z</time>
      </trkpt>
      <trkpt lat="43.0059" lon="0.88669">
        <ele>444</ele>
        <time>2021-03-13T13:03:51Z</time>
      </trkpt>
      <trkpt lat="43.00591" lon="0.88664">
        <ele>444</ele>
        <time>2021-03-13T13:03:52Z</time>
      </trkpt>
      <trkpt lat="43.00592" lon="0.8866">
        <ele>444</ele>
        <time>2021-03-13T13:03:53Z</time>
      </trkpt>
      <trkpt lat="43.00593" lon="0.88655">
        <ele>444</ele>
        <time>2021-03-13T13:03:54Z</time>
      </trkpt>
      <trkpt lat="43.00595" lon="0.88651">
        <ele>444</ele>
        <time>2021-03-13T13:03:55Z</time>
      </trkpt>
      <trkpt lat="43.00597" lon="0.88647">
        <ele>444</ele>
        <time>2021-03-13T13:03:56Z</time>
      </trkpt>
      <trkpt lat="43.00599" lon="0.88644">
        <ele>444</ele>
        <time>2021-03-13T13:03:57Z</time>
      </trkpt>
      <trkpt lat="43.00601" lon="0.8864">
        <ele>444</ele>
        <time>2021-03-13T13:03:58Z</time>
      </trkpt>
      <trkpt lat="43.00603" lon="0.88637">
        <ele>444</ele>
        <time>2021-03-13T13:03:59Z</time>
      </trkpt>
      <trkpt lat="43.00604" lon="0.88634">
        <ele>445</ele>
        <time>2021-03-13T13:04:00Z</time>
      </trkpt>
      <trkpt lat="43.00606" lon="0.88631">
        <ele>445</ele>
        <time>2021-03-13T13:04:01Z</time>
      </trkpt>
      <trkpt lat="43.00607" lon="0.88626">
        <ele>445</ele>
        <time>2021-03-13T13:04:02Z</time>
      </trkpt>
      <trkpt lat="43.00608" lon="0.88622">
        <ele>445</ele>
        <time>2021-03-13T13:04:03Z</time>
      </trkpt>
      <trkpt lat="43.00609" lon="0.88617">
        <ele>445</ele>
        <time>2021-03-13T13:04:04Z</time>
      </trkpt>
      <trkpt lat="43.00607" lon="0.88613">
        <ele>445</ele>
        <time>2021-03-13T13:04:05Z</time>
      </trkpt>
      <trkpt lat="43.00605" lon="0.88609">
        <ele>445</ele>
        <time>2021-03-13T13:04:06Z</time>
      </trkpt>
      <trkpt lat="43.00604" lon="0.88604">
        <ele>445</ele>
        <time>2021-03-13T13:04:07Z</time>
      </trkpt>
      <trkpt lat="43.00602" lon="0.886">
        <ele>445</ele>
        <time>2021-03-13T13:04:08Z</time>
      </trkpt>
      <trkpt lat="43.006" lon="0.88596">
        <ele>445</ele>
        <time>2021-03-13T13:04:09Z</time>
      </trkpt>
      <trkpt lat="43.00598" lon="0.88591">
        <ele>446</ele>
        <time>2021-03-13T13:04:10Z</time>
      </trkpt>
      <trkpt lat="43.00599" lon="0.88588">
        <ele>446</ele>
        <time>2021-03-13T13:04:11Z</time>
      </trkpt>
      <trkpt lat="43.00601" lon="0.88585">
        <ele>446</ele>
        <time>2021-03-13T13:04:12Z</time>
      </trkpt>
      <trkpt lat="43.00603" lon="0.88582">
        <ele>446</ele>
        <time>2021-03-13T13:04:13Z</time>
      </trkpt>
      <trkpt lat="43.00605" lon="0.88579">
        <ele>446</ele>
        <time>2021-03-13T13:04:14Z</time>
      </trkpt>
      <trkpt lat="43.0061" lon="0.88579">
        <ele>446</ele>
        <time>2021-03-13T13:04:15Z</time>
      </trkpt>
      <trkpt lat="43.00614" lon="0.88579">
        <ele>446</ele>
        <time>2021-03-13T13:04:16Z</time>
      </trkpt>
      <trkpt lat="43.00619" lon="0.88579">
        <ele>446</ele>
        <time>2021-03-13T13:04:17Z</time>
      </trkpt>
      <trkpt lat="43.00624" lon="0.88575">
        <ele>446</ele>
        <time>2021-03-13T13:04:18Z</time>
      </trkpt>
      <trkpt lat="43.00629" lon="0.88571">
        <ele>446</ele>
        <time>2021-03-13T13:04:19Z</time>
      </trkpt>
      <trkpt lat="43.00634" lon="0.88567">
        <ele>446</ele>
        <time>2021-03-13T13:04:20Z</time>
      </trkpt>
      <trkpt lat="43.00637" lon="0.88561">
        <ele>446</ele>
        <time>2021-03-13T13:04:21Z</time>
      </trkpt>
      <trkpt lat="43.00637" lon="0.88561">
        <ele>446</ele>
        <time>2021-03-13T13:04:22Z</time>
      </trkpt>
      <trkpt lat="43.00638" lon="0.88556">
        <ele>446</ele>
        <time>2021-03-13T13:04:23Z</time>
      </trkpt>
      <trkpt lat="43.0064" lon="0.88551">
        <ele>446</ele>
        <time>2021-03-13T13:04:24Z</time>
      </trkpt>
      <trkpt lat="43.00641" lon="0.88546">
        <ele>446</ele>
        <time>2021-03-13T13:04:25Z</time>
      </trkpt>
      <trkpt lat="43.00642" lon="0.88538">
        <ele>446</ele>
        <time>2021-03-13T13:04:26Z</time>
      </trkpt>
      <trkpt lat="43.00642" lon="0.8853">
        <ele>446</ele>
        <time>2021-03-13T13:04:27Z</time>
      </trkpt>
      <trkpt lat="43.00642" lon="0.88522">
        <ele>446</ele>
        <time>2021-03-13T13:04:28Z</time>
      </trkpt>
      <trkpt lat="43.00642" lon="0.88517">
        <ele>446</ele>
        <time>2021-03-13T13:04:29Z</time>
      </trkpt>
      <trkpt lat="43.00642" lon="0.88517">
        <ele>445</ele>
        <time>2021-03-13T13:04:30Z</time>
      </trkpt>
      <trkpt lat="43.00642" lon="0.88512">
        <ele>445</ele>
        <time>2021-03-13T13:04:31Z</time>
      </trkpt>
      <trkpt lat="43.00643" lon="0.88507">
        <ele>445</ele>
        <time>2021-03-13T13:04:32Z</time>
      </trkpt>
      <trkpt lat="43.00643" lon="0.88502">
        <ele>445</ele>
        <time>2021-03-13T13:04:33Z</time>
      </trkpt>
      <trkpt lat="43.00646" lon="0.88496">
        <ele>445</ele>
        <time>2021-03-13T13:04:34Z</time>
      </trkpt>
      <trkpt lat="43.00649" lon="0.8849">
        <ele>445</ele>
        <time>2021-03-13T13:04:35Z</time>
      </trkpt>
      <trkpt lat="43.00652" lon="0.88484">
        <ele>445</ele>
        <time>2021-03-13T13:04:36Z</time>
      </trkpt>
      <trkpt lat="43.00656" lon="0.88479">
        <ele>445</ele>
        <time>2021-03-13T13:04:37Z</time>
      </trkpt>
      <trkpt lat="43.00656" lon="0.88479">
        <ele>445</ele>
        <time>2021-03-13T13:04:38Z</time>
      </trkpt>
      <trkpt lat="43.00663" lon="0.88471">
        <ele>445</ele>
        <time>2021-03-13T13:04:39Z</time>
      </trkpt>
      <trkpt lat="43.00663" lon="0.88471">
        <ele>444</ele>
        <time>2021-03-13T13:04:40Z</time>
      </trkpt>
      <trkpt lat="43.0067" lon="0.88464">
        <ele>444</ele>
        <time>2021-03-13T13:04:41Z</time>
      </trkpt>
      <trkpt lat="43.0067" lon="0.88464">
        <ele>444</ele>
        <time>2021-03-13T13:04:42Z</time>
      </trkpt>
      <trkpt lat="43.00676" lon="0.88456">
        <ele>444</ele>
        <time>2021-03-13T13:04:43Z</time>
      </trkpt>
      <trkpt lat="43.00676" lon="0.88456">
        <ele>444</ele>
        <time>2021-03-13T13:04:44Z</time>
      </trkpt>
      <trkpt lat="43.00682" lon="0.88447">
        <ele>444</ele>
        <time>2021-03-13T13:04:45Z</time>
      </trkpt>
      <trkpt lat="43.00682" lon="0.88447">
        <ele>444</ele>
        <time>2021-03-13T13:04:46Z</time>
      </trkpt>
      <trkpt lat="43.0069" lon="0.88442">
        <ele>444</ele>
        <time>2021-03-13T13:04:47Z</time>
      </trkpt>
      <trkpt lat="43.0069" lon="0.88442">
        <ele>444</ele>
        <time>2021-03-13T13:04:48Z</time>
      </trkpt>
      <trkpt lat="43.00699" lon="0.88438">
        <ele>444</ele>
        <time>2021-03-13T13:04:49Z</time>
      </trkpt>
      <trkpt lat="43.00699" lon="0.88438">
        <ele>444</ele>
        <time>2021-03-13T13:04:50Z</time>
      </trkpt>
      <trkpt lat="43.00706" lon="0.88436">
        <ele>444</ele>
        <time>2021-03-13T13:04:51Z</time>
      </trkpt>
      <trkpt lat="43.00706" lon="0.88436">
        <ele>444</ele>
        <time>2021-03-13T13:04:52Z</time>
      </trkpt>
      <trkpt lat="43.0071" lon="0.88436">
        <ele>444</ele>
        <time>2021-03-13T13:04:53Z</time>
      </trkpt>
      <trkpt lat="43.00713" lon="0.88436">
        <ele>444</ele>
        <time>2021-03-13T13:04:54Z</time>
      </trkpt>
      <trkpt lat="43.00717" lon="0.88436">
        <ele>444</ele>
        <time>2021-03-13T13:04:55Z</time>
      </trkpt>
      <trkpt lat="43.0072" lon="0.88438">
        <ele>444</ele>
        <time>2021-03-13T13:04:56Z</time>
      </trkpt>
      <trkpt lat="43.00722" lon="0.88441">
        <ele>444</ele>
        <time>2021-03-13T13:04:57Z</time>
      </trkpt>
      <trkpt lat="43.00725" lon="0.88443">
        <ele>444</ele>
        <time>2021-03-13T13:04:58Z</time>
      </trkpt>
      <trkpt lat="43.00728" lon="0.88445">
        <ele>444</ele>
        <time>2021-03-13T13:04:59Z</time>
      </trkpt>
      <trkpt lat="43.0073" lon="0.88447">
        <ele>445</ele>
        <time>2021-03-13T13:05:00Z</time>
      </trkpt>
      <trkpt lat="43.00733" lon="0.88449">
        <ele>445</ele>
        <time>2021-03-13T13:05:01Z</time>
      </trkpt>
      <trkpt lat="43.00734" lon="0.88452">
        <ele>445</ele>
        <time>2021-03-13T13:05:02Z</time>
      </trkpt>
      <trkpt lat="43.00736" lon="0.88455">
        <ele>445</ele>
        <time>2021-03-13T13:05:03Z</time>
      </trkpt>
      <trkpt lat="43.00738" lon="0.88457">
        <ele>445</ele>
        <time>2021-03-13T13:05:04Z</time>
      </trkpt>
      <trkpt lat="43.00739" lon="0.8846">
        <ele>445</ele>
        <time>2021-03-13T13:05:05Z</time>
      </trkpt>
      <trkpt lat="43.0074" lon="0.88463">
        <ele>445</ele>
        <time>2021-03-13T13:05:06Z</time>
      </trkpt>
      <trkpt lat="43.00741" lon="0.88466">
        <ele>445</ele>
        <time>2021-03-13T13:05:07Z</time>
      </trkpt>
      <trkpt lat="43.00743" lon="0.88468">
        <ele>445</ele>
        <time>2021-03-13T13:05:08Z</time>
      </trkpt>
      <trkpt lat="43.00745" lon="0.8847">
        <ele>445</ele>
        <time>2021-03-13T13:05:09Z</time>
      </trkpt>
      <trkpt lat="43.00746" lon="0.88473">
        <ele>448</ele>
        <time>2021-03-13T13:05:10Z</time>
      </trkpt>
      <trkpt lat="43.00749" lon="0.88473">
        <ele>448</ele>
        <time>2021-03-13T13:05:11Z</time>
      </trkpt>
      <trkpt lat="43.00751" lon="0.88474">
        <ele>448</ele>
        <time>2021-03-13T13:05:12Z</time>
      </trkpt>
      <trkpt lat="43.00754" lon="0.88475">
        <ele>448</ele>
        <time>2021-03-13T13:05:13Z</time>
      </trkpt>
      <trkpt lat="43.00759" lon="0.88476">
        <ele>448</ele>
        <time>2021-03-13T13:05:14Z</time>
      </trkpt>
      <trkpt lat="43.00759" lon="0.88476">
        <ele>451</ele>
        <time>2021-03-13T13:05:15Z</time>
      </trkpt>
      <trkpt lat="43.00764" lon="0.88478">
        <ele>451</ele>
        <time>2021-03-13T13:05:16Z</time>
      </trkpt>
      <trkpt lat="43.00764" lon="0.88478">
        <ele>451</ele>
        <time>2021-03-13T13:05:17Z</time>
      </trkpt>
      <trkpt lat="43.00768" lon="0.88482">
        <ele>451</ele>
        <time>2021-03-13T13:05:18Z</time>
      </trkpt>
      <trkpt lat="43.00768" lon="0.88482">
        <ele>451</ele>
        <time>2021-03-13T13:05:19Z</time>
      </trkpt>
      <trkpt lat="43.0077" lon="0.88488">
        <ele>453</ele>
        <time>2021-03-13T13:05:20Z</time>
      </trkpt>
      <trkpt lat="43.0077" lon="0.88488">
        <ele>453</ele>
        <time>2021-03-13T13:05:21Z</time>
      </trkpt>
      <trkpt lat="43.00771" lon="0.88494">
        <ele>453</ele>
        <time>2021-03-13T13:05:22Z</time>
      </trkpt>
      <trkpt lat="43.00771" lon="0.88494">
        <ele>453</ele>
        <time>2021-03-13T13:05:23Z</time>
      </trkpt>
      <trkpt lat="43.0077" lon="0.885">
        <ele>453</ele>
        <time>2021-03-13T13:05:24Z</time>
      </trkpt>
      <trkpt lat="43.0077" lon="0.885">
        <ele>455</ele>
        <time>2021-03-13T13:05:25Z</time>
      </trkpt>
      <trkpt lat="43.00769" lon="0.88507">
        <ele>455</ele>
        <time>2021-03-13T13:05:26Z</time>
      </trkpt>
      <trkpt lat="43.00769" lon="0.88507">
        <ele>455</ele>
        <time>2021-03-13T13:05:27Z</time>
      </trkpt>
      <trkpt lat="43.00768" lon="0.88513">
        <ele>455</ele>
        <time>2021-03-13T13:05:28Z</time>
      </trkpt>
      <trkpt lat="43.00768" lon="0.88513">
        <ele>455</ele>
        <time>2021-03-13T13:05:29Z</time>
      </trkpt>
      <trkpt lat="43.00768" lon="0.88519">
        <ele>455</ele>
        <time>2021-03-13T13:05:30Z</time>
      </trkpt>
      <trkpt lat="43.00768" lon="0.88519">
        <ele>455</ele>
        <time>2021-03-13T13:05:31Z</time>
      </trkpt>
      <trkpt lat="43.00769" lon="0.88522">
        <ele>455</ele>
        <time>2021-03-13T13:05:32Z</time>
      </trkpt>
      <trkpt lat="43.0077" lon="0.88524">
        <ele>455</ele>
        <time>2021-03-13T13:05:33Z</time>
      </trkpt>
      <trkpt lat="43.0077" lon="0.88527">
        <ele>455</ele>
        <time>2021-03-13T13:05:34Z</time>
      </trkpt>
      <trkpt lat="43.00772" lon="0.88529">
        <ele>457</ele>
        <time>2021-03-13T13:05:35Z</time>
      </trkpt>
      <trkpt lat="43.00774" lon="0.88531">
        <ele>457</ele>
        <time>2021-03-13T13:05:36Z</time>
      </trkpt>
      <trkpt lat="43.00775" lon="0.88533">
        <ele>457</ele>
        <time>2021-03-13T13:05:37Z</time>
      </trkpt>
      <trkpt lat="43.00777" lon="0.88535">
        <ele>457</ele>
        <time>2021-03-13T13:05:38Z</time>
      </trkpt>
      <trkpt lat="43.00779" lon="0.88536">
        <ele>457</ele>
        <time>2021-03-13T13:05:39Z</time>
      </trkpt>
      <trkpt lat="43.00781" lon="0.88538">
        <ele>459</ele>
        <time>2021-03-13T13:05:40Z</time>
      </trkpt>
      <trkpt lat="43.00782" lon="0.88539">
        <ele>459</ele>
        <time>2021-03-13T13:05:41Z</time>
      </trkpt>
      <trkpt lat="43.00784" lon="0.8854">
        <ele>459</ele>
        <time>2021-03-13T13:05:42Z</time>
      </trkpt>
      <trkpt lat="43.00786" lon="0.88541">
        <ele>459</ele>
        <time>2021-03-13T13:05:43Z</time>
      </trkpt>
      <trkpt lat="43.0079" lon="0.88543">
        <ele>459</ele>
        <time>2021-03-13T13:05:44Z</time>
      </trkpt>
      <trkpt lat="43.0079" lon="0.88543">
        <ele>460</ele>
        <time>2021-03-13T13:05:45Z</time>
      </trkpt>
      <trkpt lat="43.00794" lon="0.88544">
        <ele>460</ele>
        <time>2021-03-13T13:05:46Z</time>
      </trkpt>
      <trkpt lat="43.00794" lon="0.88544">
        <ele>460</ele>
        <time>2021-03-13T13:05:47Z</time>
      </trkpt>
      <trkpt lat="43.00796" lon="0.88545">
        <ele>460</ele>
        <time>2021-03-13T13:05:48Z</time>
      </trkpt>
      <trkpt lat="43.00798" lon="0.88545">
        <ele>460</ele>
        <time>2021-03-13T13:05:49Z</time>
      </trkpt>
      <trkpt lat="43.008" lon="0.88545">
        <ele>463</ele>
        <time>2021-03-13T13:05:50Z</time>
      </trkpt>
      <trkpt lat="43.00802" lon="0.88545">
        <ele>463</ele>
        <time>2021-03-13T13:05:51Z</time>
      </trkpt>
      <trkpt lat="43.00804" lon="0.88545">
        <ele>463</ele>
        <time>2021-03-13T13:05:52Z</time>
      </trkpt>
      <trkpt lat="43.00807" lon="0.88546">
        <ele>463</ele>
        <time>2021-03-13T13:05:53Z</time>
      </trkpt>
      <trkpt lat="43.00811" lon="0.88547">
        <ele>463</ele>
        <time>2021-03-13T13:05:54Z</time>
      </trkpt>
      <trkpt lat="43.00811" lon="0.88547">
        <ele>464</ele>
        <time>2021-03-13T13:05:55Z</time>
      </trkpt>
      <trkpt lat="43.00813" lon="0.88547">
        <ele>464</ele>
        <time>2021-03-13T13:05:56Z</time>
      </trkpt>
      <trkpt lat="43.00815" lon="0.88547">
        <ele>464</ele>
        <time>2021-03-13T13:05:57Z</time>
      </trkpt>
      <trkpt lat="43.00817" lon="0.88547">
        <ele>464</ele>
        <time>2021-03-13T13:05:58Z</time>
      </trkpt>
      <trkpt lat="43.00822" lon="0.88546">
        <ele>464</ele>
        <time>2021-03-13T13:05:59Z</time>
      </trkpt>
      <trkpt lat="43.00822" lon="0.88546">
        <ele>465</ele>
        <time>2021-03-13T13:06:00Z</time>
      </trkpt>
      <trkpt lat="43.00826" lon="0.88544">
        <ele>465</ele>
        <time>2021-03-13T13:06:01Z</time>
      </trkpt>
      <trkpt lat="43.00826" lon="0.88544">
        <ele>465</ele>
        <time>2021-03-13T13:06:02Z</time>
      </trkpt>
      <trkpt lat="43.00828" lon="0.88543">
        <ele>465</ele>
        <time>2021-03-13T13:06:03Z</time>
      </trkpt>
      <trkpt lat="43.0083" lon="0.88542">
        <ele>465</ele>
        <time>2021-03-13T13:06:04Z</time>
      </trkpt>
      <trkpt lat="43.00832" lon="0.88542">
        <ele>467</ele>
        <time>2021-03-13T13:06:05Z</time>
      </trkpt>
      <trkpt lat="43.00833" lon="0.88541">
        <ele>467</ele>
        <time>2021-03-13T13:06:06Z</time>
      </trkpt>
      <trkpt lat="43.00835" lon="0.8854">
        <ele>467</ele>
        <time>2021-03-13T13:06:07Z</time>
      </trkpt>
      <trkpt lat="43.00836" lon="0.88538">
        <ele>467</ele>
        <time>2021-03-13T13:06:08Z</time>
      </trkpt>
      <trkpt lat="43.00838" lon="0.88537">
        <ele>467</ele>
        <time>2021-03-13T13:06:09Z</time>
      </trkpt>
      <trkpt lat="43.00837" lon="0.88535">
        <ele>468</ele>
        <time>2021-03-13T13:06:10Z</time>
      </trkpt>
      <trkpt lat="43.00837" lon="0.88532">
        <ele>468</ele>
        <time>2021-03-13T13:06:11Z</time>
      </trkpt>
      <trkpt lat="43.00837" lon="0.88529">
        <ele>468</ele>
        <time>2021-03-13T13:06:12Z</time>
      </trkpt>
      <trkpt lat="43.00837" lon="0.88526">
        <ele>468</ele>
        <time>2021-03-13T13:06:13Z</time>
      </trkpt>
      <trkpt lat="43.00836" lon="0.88523">
        <ele>468</ele>
        <time>2021-03-13T13:06:14Z</time>
      </trkpt>
      <trkpt lat="43.00835" lon="0.88519">
        <ele>469</ele>
        <time>2021-03-13T13:06:15Z</time>
      </trkpt>
      <trkpt lat="43.00834" lon="0.88515">
        <ele>469</ele>
        <time>2021-03-13T13:06:16Z</time>
      </trkpt>
      <trkpt lat="43.00832" lon="0.88508">
        <ele>469</ele>
        <time>2021-03-13T13:06:17Z</time>
      </trkpt>
      <trkpt lat="43.00832" lon="0.88508">
        <ele>469</ele>
        <time>2021-03-13T13:06:18Z</time>
      </trkpt>
      <trkpt lat="43.0083" lon="0.88503">
        <ele>469</ele>
        <time>2021-03-13T13:06:19Z</time>
      </trkpt>
      <trkpt lat="43.00829" lon="0.88499">
        <ele>469</ele>
        <time>2021-03-13T13:06:20Z</time>
      </trkpt>
      <trkpt lat="43.00827" lon="0.88495">
        <ele>469</ele>
        <time>2021-03-13T13:06:21Z</time>
      </trkpt>
      <trkpt lat="43.00825" lon="0.88489">
        <ele>469</ele>
        <time>2021-03-13T13:06:22Z</time>
      </trkpt>
      <trkpt lat="43.00823" lon="0.88483">
        <ele>469</ele>
        <time>2021-03-13T13:06:23Z</time>
      </trkpt>
      <trkpt lat="43.0082" lon="0.88476">
        <ele>469</ele>
        <time>2021-03-13T13:06:24Z</time>
      </trkpt>
      <trkpt lat="43.00819" lon="0.88471">
        <ele>469</ele>
        <time>2021-03-13T13:06:25Z</time>
      </trkpt>
      <trkpt lat="43.00819" lon="0.88471">
        <ele>469</ele>
        <time>2021-03-13T13:06:26Z</time>
      </trkpt>
      <trkpt lat="43.00814" lon="0.8846">
        <ele>469</ele>
        <time>2021-03-13T13:06:27Z</time>
      </trkpt>
      <trkpt lat="43.00814" lon="0.8846">
        <ele>469</ele>
        <time>2021-03-13T13:06:28Z</time>
      </trkpt>
      <trkpt lat="43.00806" lon="0.88447">
        <ele>469</ele>
        <time>2021-03-13T13:06:29Z</time>
      </trkpt>
      <trkpt lat="43.00805" lon="0.88445">
        <ele>467</ele>
        <time>2021-03-13T13:06:30Z</time>
      </trkpt>
      <trkpt lat="43.00805" lon="0.88445">
        <ele>467</ele>
        <time>2021-03-13T13:06:31Z</time>
      </trkpt>
      <trkpt lat="43.00797" lon="0.88432">
        <ele>467</ele>
        <time>2021-03-13T13:06:32Z</time>
      </trkpt>
      <trkpt lat="43.00795" lon="0.8843">
        <ele>467</ele>
        <time>2021-03-13T13:06:33Z</time>
      </trkpt>
      <trkpt lat="43.00793" lon="0.88425">
        <ele>467</ele>
        <time>2021-03-13T13:06:34Z</time>
      </trkpt>
      <trkpt lat="43.00793" lon="0.88425">
        <ele>467</ele>
        <time>2021-03-13T13:06:35Z</time>
      </trkpt>
      <trkpt lat="43.0079" lon="0.88415">
        <ele>467</ele>
        <time>2021-03-13T13:06:36Z</time>
      </trkpt>
      <trkpt lat="43.0079" lon="0.88415">
        <ele>467</ele>
        <time>2021-03-13T13:06:37Z</time>
      </trkpt>
      <trkpt lat="43.00788" lon="0.88406">
        <ele>467</ele>
        <time>2021-03-13T13:06:38Z</time>
      </trkpt>
      <trkpt lat="43.00788" lon="0.88406">
        <ele>467</ele>
        <time>2021-03-13T13:06:39Z</time>
      </trkpt>
      <trkpt lat="43.00787" lon="0.88397">
        <ele>468</ele>
        <time>2021-03-13T13:06:40Z</time>
      </trkpt>
      <trkpt lat="43.00787" lon="0.88397">
        <ele>468</ele>
        <time>2021-03-13T13:06:41Z</time>
      </trkpt>
      <trkpt lat="43.00787" lon="0.88388">
        <ele>468</ele>
        <time>2021-03-13T13:06:42Z</time>
      </trkpt>
      <trkpt lat="43.00787" lon="0.88388">
        <ele>468</ele>
        <time>2021-03-13T13:06:43Z</time>
      </trkpt>
      <trkpt lat="43.00787" lon="0.88379">
        <ele>468</ele>
        <time>2021-03-13T13:06:44Z</time>
      </trkpt>
      <trkpt lat="43.00787" lon="0.88379">
        <ele>468</ele>
        <time>2021-03-13T13:06:45Z</time>
      </trkpt>
      <trkpt lat="43.00788" lon="0.88371">
        <ele>468</ele>
        <time>2021-03-13T13:06:46Z</time>
      </trkpt>
      <trkpt lat="43.00788" lon="0.88371">
        <ele>468</ele>
        <time>2021-03-13T13:06:47Z</time>
      </trkpt>
      <trkpt lat="43.00789" lon="0.88362">
        <ele>468</ele>
        <time>2021-03-13T13:06:48Z</time>
      </trkpt>
      <trkpt lat="43.00789" lon="0.88362">
        <ele>468</ele>
        <time>2021-03-13T13:06:49Z</time>
      </trkpt>
      <trkpt lat="43.0079" lon="0.88355">
        <ele>470</ele>
        <time>2021-03-13T13:06:50Z</time>
      </trkpt>
      <trkpt lat="43.0079" lon="0.88355">
        <ele>470</ele>
        <time>2021-03-13T13:06:51Z</time>
      </trkpt>
      <trkpt lat="43.00791" lon="0.88347">
        <ele>470</ele>
        <time>2021-03-13T13:06:52Z</time>
      </trkpt>
      <trkpt lat="43.00791" lon="0.88347">
        <ele>470</ele>
        <time>2021-03-13T13:06:53Z</time>
      </trkpt>
      <trkpt lat="43.00791" lon="0.88338">
        <ele>470</ele>
        <time>2021-03-13T13:06:54Z</time>
      </trkpt>
      <trkpt lat="43.00791" lon="0.88338">
        <ele>470</ele>
        <time>2021-03-13T13:06:55Z</time>
      </trkpt>
      <trkpt lat="43.00791" lon="0.88329">
        <ele>470</ele>
        <time>2021-03-13T13:06:56Z</time>
      </trkpt>
      <trkpt lat="43.00791" lon="0.88329">
        <ele>470</ele>
        <time>2021-03-13T13:06:57Z</time>
      </trkpt>
      <trkpt lat="43.00791" lon="0.8832">
        <ele>470</ele>
        <time>2021-03-13T13:06:58Z</time>
      </trkpt>
      <trkpt lat="43.00791" lon="0.8832">
        <ele>470</ele>
        <time>2021-03-13T13:06:59Z</time>
      </trkpt>
      <trkpt lat="43.00791" lon="0.88312">
        <ele>473</ele>
        <time>2021-03-13T13:07:00Z</time>
      </trkpt>
      <trkpt lat="43.00791" lon="0.88312">
        <ele>473</ele>
        <time>2021-03-13T13:07:01Z</time>
      </trkpt>
      <trkpt lat="43.00791" lon="0.88308">
        <ele>473</ele>
        <time>2021-03-13T13:07:02Z</time>
      </trkpt>
      <trkpt lat="43.00791" lon="0.88304">
        <ele>473</ele>
        <time>2021-03-13T13:07:03Z</time>
      </trkpt>
      <trkpt lat="43.00791" lon="0.88299">
        <ele>473</ele>
        <time>2021-03-13T13:07:04Z</time>
      </trkpt>
      <trkpt lat="43.00791" lon="0.88291">
        <ele>473</ele>
        <time>2021-03-13T13:07:05Z</time>
      </trkpt>
      <trkpt lat="43.00791" lon="0.88291">
        <ele>473</ele>
        <time>2021-03-13T13:07:06Z</time>
      </trkpt>
      <trkpt lat="43.00792" lon="0.88287">
        <ele>473</ele>
        <time>2021-03-13T13:07:07Z</time>
      </trkpt>
      <trkpt lat="43.00792" lon="0.88282">
        <ele>473</ele>
        <time>2021-03-13T13:07:08Z</time>
      </trkpt>
      <trkpt lat="43.00792" lon="0.88278">
        <ele>473</ele>
        <time>2021-03-13T13:07:09Z</time>
      </trkpt>
      <trkpt lat="43.00793" lon="0.88274">
        <ele>475</ele>
        <time>2021-03-13T13:07:10Z</time>
      </trkpt>
      <trkpt lat="43.00793" lon="0.8827">
        <ele>475</ele>
        <time>2021-03-13T13:07:11Z</time>
      </trkpt>
      <trkpt lat="43.00793" lon="0.88266">
        <ele>475</ele>
        <time>2021-03-13T13:07:12Z</time>
      </trkpt>
      <trkpt lat="43.00795" lon="0.88257">
        <ele>475</ele>
        <time>2021-03-13T13:07:13Z</time>
      </trkpt>
      <trkpt lat="43.00795" lon="0.88257">
        <ele>475</ele>
        <time>2021-03-13T13:07:14Z</time>
      </trkpt>
      <trkpt lat="43.00796" lon="0.88249">
        <ele>475</ele>
        <time>2021-03-13T13:07:15Z</time>
      </trkpt>
      <trkpt lat="43.00796" lon="0.88249">
        <ele>475</ele>
        <time>2021-03-13T13:07:16Z</time>
      </trkpt>
      <trkpt lat="43.00798" lon="0.88241">
        <ele>475</ele>
        <time>2021-03-13T13:07:17Z</time>
      </trkpt>
      <trkpt lat="43.00798" lon="0.88241">
        <ele>475</ele>
        <time>2021-03-13T13:07:18Z</time>
      </trkpt>
      <trkpt lat="43.008" lon="0.88233">
        <ele>475</ele>
        <time>2021-03-13T13:07:19Z</time>
      </trkpt>
      <trkpt lat="43.008" lon="0.88233">
        <ele>475</ele>
        <time>2021-03-13T13:07:20Z</time>
      </trkpt>
      <trkpt lat="43.00803" lon="0.88225">
        <ele>475</ele>
        <time>2021-03-13T13:07:21Z</time>
      </trkpt>
      <trkpt lat="43.00803" lon="0.88225">
        <ele>475</ele>
        <time>2021-03-13T13:07:22Z</time>
      </trkpt>
      <trkpt lat="43.00806" lon="0.88216">
        <ele>475</ele>
        <time>2021-03-13T13:07:23Z</time>
      </trkpt>
      <trkpt lat="43.00806" lon="0.88216">
        <ele>475</ele>
        <time>2021-03-13T13:07:24Z</time>
      </trkpt>
      <trkpt lat="43.00809" lon="0.88208">
        <ele>475</ele>
        <time>2021-03-13T13:07:25Z</time>
      </trkpt>
      <trkpt lat="43.00809" lon="0.88208">
        <ele>475</ele>
        <time>2021-03-13T13:07:26Z</time>
      </trkpt>
      <trkpt lat="43.00813" lon="0.88196">
        <ele>475</ele>
        <time>2021-03-13T13:07:27Z</time>
      </trkpt>
      <trkpt lat="43.00814" lon="0.88193">
        <ele>475</ele>
        <time>2021-03-13T13:07:28Z</time>
      </trkpt>
      <trkpt lat="43.00814" lon="0.88193">
        <ele>475</ele>
        <time>2021-03-13T13:07:29Z</time>
      </trkpt>
      <trkpt lat="43.00817" lon="0.88183">
        <ele>475</ele>
        <time>2021-03-13T13:07:30Z</time>
      </trkpt>
      <trkpt lat="43.00817" lon="0.88183">
        <ele>475</ele>
        <time>2021-03-13T13:07:31Z</time>
      </trkpt>
      <trkpt lat="43.00819" lon="0.88172">
        <ele>475</ele>
        <time>2021-03-13T13:07:32Z</time>
      </trkpt>
      <trkpt lat="43.00819" lon="0.88172">
        <ele>475</ele>
        <time>2021-03-13T13:07:33Z</time>
      </trkpt>
      <trkpt lat="43.00821" lon="0.88161">
        <ele>475</ele>
        <time>2021-03-13T13:07:34Z</time>
      </trkpt>
      <trkpt lat="43.00821" lon="0.88161">
        <ele>475</ele>
        <time>2021-03-13T13:07:35Z</time>
      </trkpt>
      <trkpt lat="43.00823" lon="0.8815">
        <ele>475</ele>
        <time>2021-03-13T13:07:36Z</time>
      </trkpt>
      <trkpt lat="43.00823" lon="0.8815">
        <ele>475</ele>
        <time>2021-03-13T13:07:37Z</time>
      </trkpt>
      <trkpt lat="43.00824" lon="0.88139">
        <ele>475</ele>
        <time>2021-03-13T13:07:38Z</time>
      </trkpt>
      <trkpt lat="43.00824" lon="0.88139">
        <ele>475</ele>
        <time>2021-03-13T13:07:39Z</time>
      </trkpt>
      <trkpt lat="43.00824" lon="0.88127">
        <ele>475</ele>
        <time>2021-03-13T13:07:40Z</time>
      </trkpt>
      <trkpt lat="43.00824" lon="0.88127">
        <ele>475</ele>
        <time>2021-03-13T13:07:41Z</time>
      </trkpt>
      <trkpt lat="43.00824" lon="0.88114">
        <ele>475</ele>
        <time>2021-03-13T13:07:42Z</time>
      </trkpt>
      <trkpt lat="43.00824" lon="0.88114">
        <ele>475</ele>
        <time>2021-03-13T13:07:43Z</time>
      </trkpt>
      <trkpt lat="43.00826" lon="0.88097">
        <ele>475</ele>
        <time>2021-03-13T13:07:44Z</time>
      </trkpt>
      <trkpt lat="43.00826" lon="0.88094">
        <ele>475</ele>
        <time>2021-03-13T13:07:45Z</time>
      </trkpt>
      <trkpt lat="43.00828" lon="0.88088">
        <ele>475</ele>
        <time>2021-03-13T13:07:46Z</time>
      </trkpt>
      <trkpt lat="43.00831" lon="0.88082">
        <ele>475</ele>
        <time>2021-03-13T13:07:47Z</time>
      </trkpt>
      <trkpt lat="43.00833" lon="0.88078">
        <ele>475</ele>
        <time>2021-03-13T13:07:48Z</time>
      </trkpt>
      <trkpt lat="43.00833" lon="0.88078">
        <ele>475</ele>
        <time>2021-03-13T13:07:49Z</time>
      </trkpt>
      <trkpt lat="43.00838" lon="0.88069">
        <ele>475</ele>
        <time>2021-03-13T13:07:50Z</time>
      </trkpt>
      <trkpt lat="43.00838" lon="0.88069">
        <ele>475</ele>
        <time>2021-03-13T13:07:51Z</time>
      </trkpt>
      <trkpt lat="43.00843" lon="0.88062">
        <ele>475</ele>
        <time>2021-03-13T13:07:52Z</time>
      </trkpt>
      <trkpt lat="43.00843" lon="0.88062">
        <ele>475</ele>
        <time>2021-03-13T13:07:53Z</time>
      </trkpt>
      <trkpt lat="43.00849" lon="0.88057">
        <ele>475</ele>
        <time>2021-03-13T13:07:54Z</time>
      </trkpt>
      <trkpt lat="43.00849" lon="0.88057">
        <ele>475</ele>
        <time>2021-03-13T13:07:55Z</time>
      </trkpt>
      <trkpt lat="43.00854" lon="0.88052">
        <ele>475</ele>
        <time>2021-03-13T13:07:56Z</time>
      </trkpt>
      <trkpt lat="43.00854" lon="0.88052">
        <ele>475</ele>
        <time>2021-03-13T13:07:57Z</time>
      </trkpt>
      <trkpt lat="43.0086" lon="0.88046">
        <ele>475</ele>
        <time>2021-03-13T13:07:58Z</time>
      </trkpt>
      <trkpt lat="43.0086" lon="0.88046">
        <ele>475</ele>
        <time>2021-03-13T13:07:59Z</time>
      </trkpt>
      <trkpt lat="43.00865" lon="0.8804">
        <ele>477</ele>
        <time>2021-03-13T13:08:00Z</time>
      </trkpt>
      <trkpt lat="43.00865" lon="0.8804">
        <ele>477</ele>
        <time>2021-03-13T13:08:01Z</time>
      </trkpt>
      <trkpt lat="43.00871" lon="0.88033">
        <ele>477</ele>
        <time>2021-03-13T13:08:02Z</time>
      </trkpt>
      <trkpt lat="43.00872" lon="0.88031">
        <ele>477</ele>
        <time>2021-03-13T13:08:03Z</time>
      </trkpt>
      <trkpt lat="43.00875" lon="0.88028">
        <ele>477</ele>
        <time>2021-03-13T13:08:04Z</time>
      </trkpt>
      <trkpt lat="43.00878" lon="0.88025">
        <ele>477</ele>
        <time>2021-03-13T13:08:05Z</time>
      </trkpt>
      <trkpt lat="43.0088" lon="0.88022">
        <ele>477</ele>
        <time>2021-03-13T13:08:06Z</time>
      </trkpt>
      <trkpt lat="43.00882" lon="0.8802">
        <ele>477</ele>
        <time>2021-03-13T13:08:07Z</time>
      </trkpt>
      <trkpt lat="43.00882" lon="0.8802">
        <ele>477</ele>
        <time>2021-03-13T13:08:08Z</time>
      </trkpt>
      <trkpt lat="43.00886" lon="0.88014">
        <ele>477</ele>
        <time>2021-03-13T13:08:09Z</time>
      </trkpt>
      <trkpt lat="43.00886" lon="0.88014">
        <ele>478</ele>
        <time>2021-03-13T13:08:10Z</time>
      </trkpt>
      <trkpt lat="43.0089" lon="0.88008">
        <ele>478</ele>
        <time>2021-03-13T13:08:11Z</time>
      </trkpt>
      <trkpt lat="43.0089" lon="0.88008">
        <ele>478</ele>
        <time>2021-03-13T13:08:12Z</time>
      </trkpt>
      <trkpt lat="43.00895" lon="0.88003">
        <ele>478</ele>
        <time>2021-03-13T13:08:13Z</time>
      </trkpt>
      <trkpt lat="43.00895" lon="0.88003">
        <ele>478</ele>
        <time>2021-03-13T13:08:14Z</time>
      </trkpt>
      <trkpt lat="43.00896" lon="0.88">
        <ele>478</ele>
        <time>2021-03-13T13:08:15Z</time>
      </trkpt>
      <trkpt lat="43.00898" lon="0.87998">
        <ele>478</ele>
        <time>2021-03-13T13:08:16Z</time>
      </trkpt>
      <trkpt lat="43.00899" lon="0.87995">
        <ele>478</ele>
        <time>2021-03-13T13:08:17Z</time>
      </trkpt>
      <trkpt lat="43.00903" lon="0.87989">
        <ele>478</ele>
        <time>2021-03-13T13:08:18Z</time>
      </trkpt>
      <trkpt lat="43.00903" lon="0.87989">
        <ele>478</ele>
        <time>2021-03-13T13:08:19Z</time>
      </trkpt>
      <trkpt lat="43.00904" lon="0.87986">
        <ele>481</ele>
        <time>2021-03-13T13:08:20Z</time>
      </trkpt>
      <trkpt lat="43.00906" lon="0.87984">
        <ele>481</ele>
        <time>2021-03-13T13:08:21Z</time>
      </trkpt>
      <trkpt lat="43.00908" lon="0.87981">
        <ele>481</ele>
        <time>2021-03-13T13:08:22Z</time>
      </trkpt>
      <trkpt lat="43.0091" lon="0.87978">
        <ele>481</ele>
        <time>2021-03-13T13:08:23Z</time>
      </trkpt>
      <trkpt lat="43.00912" lon="0.87975">
        <ele>481</ele>
        <time>2021-03-13T13:08:24Z</time>
      </trkpt>
      <trkpt lat="43.00914" lon="0.87972">
        <ele>483</ele>
        <time>2021-03-13T13:08:25Z</time>
      </trkpt>
      <trkpt lat="43.00918" lon="0.87964">
        <ele>483</ele>
        <time>2021-03-13T13:08:26Z</time>
      </trkpt>
      <trkpt lat="43.00918" lon="0.87964">
        <ele>483</ele>
        <time>2021-03-13T13:08:27Z</time>
      </trkpt>
      <trkpt lat="43.00922" lon="0.87957">
        <ele>483</ele>
        <time>2021-03-13T13:08:28Z</time>
      </trkpt>
      <trkpt lat="43.00922" lon="0.87957">
        <ele>483</ele>
        <time>2021-03-13T13:08:29Z</time>
      </trkpt>
      <trkpt lat="43.00926" lon="0.87951">
        <ele>484</ele>
        <time>2021-03-13T13:08:30Z</time>
      </trkpt>
      <trkpt lat="43.00926" lon="0.87951">
        <ele>484</ele>
        <time>2021-03-13T13:08:31Z</time>
      </trkpt>
      <trkpt lat="43.0093" lon="0.87944">
        <ele>484</ele>
        <time>2021-03-13T13:08:32Z</time>
      </trkpt>
      <trkpt lat="43.0093" lon="0.87944">
        <ele>484</ele>
        <time>2021-03-13T13:08:33Z</time>
      </trkpt>
      <trkpt lat="43.00935" lon="0.87938">
        <ele>484</ele>
        <time>2021-03-13T13:08:34Z</time>
      </trkpt>
      <trkpt lat="43.00935" lon="0.87938">
        <ele>484</ele>
        <time>2021-03-13T13:08:35Z</time>
      </trkpt>
      <trkpt lat="43.00939" lon="0.87932">
        <ele>484</ele>
        <time>2021-03-13T13:08:36Z</time>
      </trkpt>
      <trkpt lat="43.00939" lon="0.87932">
        <ele>484</ele>
        <time>2021-03-13T13:08:37Z</time>
      </trkpt>
      <trkpt lat="43.00943" lon="0.87926">
        <ele>484</ele>
        <time>2021-03-13T13:08:38Z</time>
      </trkpt>
      <trkpt lat="43.00943" lon="0.87926">
        <ele>484</ele>
        <time>2021-03-13T13:08:39Z</time>
      </trkpt>
      <trkpt lat="43.00947" lon="0.87921">
        <ele>485</ele>
        <time>2021-03-13T13:08:40Z</time>
      </trkpt>
      <trkpt lat="43.00947" lon="0.87921">
        <ele>485</ele>
        <time>2021-03-13T13:08:41Z</time>
      </trkpt>
      <trkpt lat="43.00951" lon="0.87915">
        <ele>485</ele>
        <time>2021-03-13T13:08:42Z</time>
      </trkpt>
      <trkpt lat="43.00951" lon="0.87915">
        <ele>485</ele>
        <time>2021-03-13T13:08:43Z</time>
      </trkpt>
      <trkpt lat="43.00956" lon="0.87909">
        <ele>485</ele>
        <time>2021-03-13T13:08:44Z</time>
      </trkpt>
      <trkpt lat="43.00956" lon="0.87909">
        <ele>485</ele>
        <time>2021-03-13T13:08:45Z</time>
      </trkpt>
      <trkpt lat="43.00961" lon="0.87904">
        <ele>485</ele>
        <time>2021-03-13T13:08:46Z</time>
      </trkpt>
      <trkpt lat="43.00961" lon="0.87904">
        <ele>485</ele>
        <time>2021-03-13T13:08:47Z</time>
      </trkpt>
      <trkpt lat="43.00965" lon="0.87898">
        <ele>485</ele>
        <time>2021-03-13T13:08:48Z</time>
      </trkpt>
      <trkpt lat="43.00965" lon="0.87898">
        <ele>485</ele>
        <time>2021-03-13T13:08:49Z</time>
      </trkpt>
      <trkpt lat="43.00968" lon="0.87891">
        <ele>487</ele>
        <time>2021-03-13T13:08:50Z</time>
      </trkpt>
      <trkpt lat="43.00968" lon="0.87891">
        <ele>487</ele>
        <time>2021-03-13T13:08:51Z</time>
      </trkpt>
      <trkpt lat="43.00972" lon="0.87884">
        <ele>487</ele>
        <time>2021-03-13T13:08:52Z</time>
      </trkpt>
      <trkpt lat="43.00972" lon="0.87884">
        <ele>487</ele>
        <time>2021-03-13T13:08:53Z</time>
      </trkpt>
      <trkpt lat="43.00975" lon="0.87877">
        <ele>487</ele>
        <time>2021-03-13T13:08:54Z</time>
      </trkpt>
      <trkpt lat="43.00975" lon="0.87877">
        <ele>487</ele>
        <time>2021-03-13T13:08:55Z</time>
      </trkpt>
      <trkpt lat="43.0098" lon="0.87869">
        <ele>487</ele>
        <time>2021-03-13T13:08:56Z</time>
      </trkpt>
      <trkpt lat="43.00981" lon="0.87867">
        <ele>487</ele>
        <time>2021-03-13T13:08:57Z</time>
      </trkpt>
      <trkpt lat="43.00981" lon="0.87867">
        <ele>487</ele>
        <time>2021-03-13T13:08:58Z</time>
      </trkpt>
      <trkpt lat="43.00984" lon="0.87861">
        <ele>487</ele>
        <time>2021-03-13T13:08:59Z</time>
      </trkpt>
      <trkpt lat="43.00984" lon="0.87861">
        <ele>490</ele>
        <time>2021-03-13T13:09:00Z</time>
      </trkpt>
      <trkpt lat="43.00987" lon="0.87854">
        <ele>490</ele>
        <time>2021-03-13T13:09:01Z</time>
      </trkpt>
      <trkpt lat="43.00987" lon="0.87854">
        <ele>490</ele>
        <time>2021-03-13T13:09:02Z</time>
      </trkpt>
      <trkpt lat="43.00992" lon="0.87845">
        <ele>490</ele>
        <time>2021-03-13T13:09:03Z</time>
      </trkpt>
      <trkpt lat="43.00993" lon="0.87844">
        <ele>490</ele>
        <time>2021-03-13T13:09:04Z</time>
      </trkpt>
      <trkpt lat="43.00993" lon="0.87844">
        <ele>490</ele>
        <time>2021-03-13T13:09:05Z</time>
      </trkpt>
      <trkpt lat="43.00996" lon="0.87837">
        <ele>490</ele>
        <time>2021-03-13T13:09:06Z</time>
      </trkpt>
      <trkpt lat="43.00996" lon="0.87837">
        <ele>490</ele>
        <time>2021-03-13T13:09:07Z</time>
      </trkpt>
      <trkpt lat="43.00999" lon="0.8783">
        <ele>490</ele>
        <time>2021-03-13T13:09:08Z</time>
      </trkpt>
      <trkpt lat="43.00999" lon="0.8783">
        <ele>490</ele>
        <time>2021-03-13T13:09:09Z</time>
      </trkpt>
      <trkpt lat="43.01002" lon="0.87824">
        <ele>492</ele>
        <time>2021-03-13T13:09:10Z</time>
      </trkpt>
      <trkpt lat="43.01002" lon="0.87824">
        <ele>492</ele>
        <time>2021-03-13T13:09:11Z</time>
      </trkpt>
      <trkpt lat="43.01006" lon="0.87817">
        <ele>492</ele>
        <time>2021-03-13T13:09:12Z</time>
      </trkpt>
      <trkpt lat="43.01006" lon="0.87817">
        <ele>492</ele>
        <time>2021-03-13T13:09:13Z</time>
      </trkpt>
      <trkpt lat="43.0101" lon="0.87811">
        <ele>492</ele>
        <time>2021-03-13T13:09:14Z</time>
      </trkpt>
      <trkpt lat="43.0101" lon="0.87811">
        <ele>492</ele>
        <time>2021-03-13T13:09:15Z</time>
      </trkpt>
      <trkpt lat="43.01013" lon="0.87804">
        <ele>492</ele>
        <time>2021-03-13T13:09:16Z</time>
      </trkpt>
      <trkpt lat="43.01013" lon="0.87804">
        <ele>492</ele>
        <time>2021-03-13T13:09:17Z</time>
      </trkpt>
      <trkpt lat="43.01016" lon="0.87797">
        <ele>492</ele>
        <time>2021-03-13T13:09:18Z</time>
      </trkpt>
      <trkpt lat="43.01016" lon="0.87797">
        <ele>492</ele>
        <time>2021-03-13T13:09:19Z</time>
      </trkpt>
      <trkpt lat="43.0102" lon="0.8779">
        <ele>494</ele>
        <time>2021-03-13T13:09:20Z</time>
      </trkpt>
      <trkpt lat="43.0102" lon="0.8779">
        <ele>494</ele>
        <time>2021-03-13T13:09:21Z</time>
      </trkpt>
      <trkpt lat="43.01023" lon="0.87784">
        <ele>494</ele>
        <time>2021-03-13T13:09:22Z</time>
      </trkpt>
      <trkpt lat="43.01023" lon="0.87784">
        <ele>494</ele>
        <time>2021-03-13T13:09:23Z</time>
      </trkpt>
      <trkpt lat="43.01026" lon="0.87778">
        <ele>494</ele>
        <time>2021-03-13T13:09:24Z</time>
      </trkpt>
      <trkpt lat="43.01026" lon="0.87778">
        <ele>494</ele>
        <time>2021-03-13T13:09:25Z</time>
      </trkpt>
      <trkpt lat="43.0103" lon="0.87771">
        <ele>494</ele>
        <time>2021-03-13T13:09:26Z</time>
      </trkpt>
      <trkpt lat="43.0103" lon="0.87771">
        <ele>494</ele>
        <time>2021-03-13T13:09:27Z</time>
      </trkpt>
      <trkpt lat="43.01033" lon="0.87764">
        <ele>494</ele>
        <time>2021-03-13T13:09:28Z</time>
      </trkpt>
      <trkpt lat="43.01033" lon="0.87764">
        <ele>494</ele>
        <time>2021-03-13T13:09:29Z</time>
      </trkpt>
      <trkpt lat="43.01036" lon="0.87757">
        <ele>496</ele>
        <time>2021-03-13T13:09:30Z</time>
      </trkpt>
      <trkpt lat="43.01036" lon="0.87757">
        <ele>496</ele>
        <time>2021-03-13T13:09:31Z</time>
      </trkpt>
      <trkpt lat="43.01039" lon="0.8775">
        <ele>496</ele>
        <time>2021-03-13T13:09:32Z</time>
      </trkpt>
      <trkpt lat="43.01039" lon="0.8775">
        <ele>496</ele>
        <time>2021-03-13T13:09:33Z</time>
      </trkpt>
      <trkpt lat="43.01042" lon="0.87743">
        <ele>496</ele>
        <time>2021-03-13T13:09:34Z</time>
      </trkpt>
      <trkpt lat="43.01042" lon="0.87743">
        <ele>496</ele>
        <time>2021-03-13T13:09:35Z</time>
      </trkpt>
      <trkpt lat="43.01046" lon="0.87737">
        <ele>496</ele>
        <time>2021-03-13T13:09:36Z</time>
      </trkpt>
      <trkpt lat="43.01046" lon="0.87737">
        <ele>496</ele>
        <time>2021-03-13T13:09:37Z</time>
      </trkpt>
      <trkpt lat="43.01049" lon="0.8773">
        <ele>496</ele>
        <time>2021-03-13T13:09:38Z</time>
      </trkpt>
      <trkpt lat="43.01049" lon="0.8773">
        <ele>496</ele>
        <time>2021-03-13T13:09:39Z</time>
      </trkpt>
      <trkpt lat="43.01053" lon="0.87724">
        <ele>498</ele>
        <time>2021-03-13T13:09:40Z</time>
      </trkpt>
      <trkpt lat="43.01053" lon="0.87724">
        <ele>498</ele>
        <time>2021-03-13T13:09:41Z</time>
      </trkpt>
      <trkpt lat="43.01055" lon="0.87716">
        <ele>498</ele>
        <time>2021-03-13T13:09:42Z</time>
      </trkpt>
      <trkpt lat="43.01055" lon="0.87716">
        <ele>498</ele>
        <time>2021-03-13T13:09:43Z</time>
      </trkpt>
      <trkpt lat="43.01059" lon="0.87708">
        <ele>498</ele>
        <time>2021-03-13T13:09:44Z</time>
      </trkpt>
      <trkpt lat="43.01059" lon="0.87706">
        <ele>500</ele>
        <time>2021-03-13T13:09:45Z</time>
      </trkpt>
      <trkpt lat="43.0106" lon="0.87702">
        <ele>500</ele>
        <time>2021-03-13T13:09:46Z</time>
      </trkpt>
      <trkpt lat="43.01061" lon="0.87698">
        <ele>500</ele>
        <time>2021-03-13T13:09:47Z</time>
      </trkpt>
      <trkpt lat="43.01061" lon="0.87694">
        <ele>500</ele>
        <time>2021-03-13T13:09:48Z</time>
      </trkpt>
      <trkpt lat="43.01062" lon="0.8769">
        <ele>500</ele>
        <time>2021-03-13T13:09:49Z</time>
      </trkpt>
      <trkpt lat="43.01062" lon="0.87685">
        <ele>501</ele>
        <time>2021-03-13T13:09:50Z</time>
      </trkpt>
      <trkpt lat="43.01062" lon="0.87681">
        <ele>501</ele>
        <time>2021-03-13T13:09:51Z</time>
      </trkpt>
      <trkpt lat="43.01062" lon="0.87677">
        <ele>501</ele>
        <time>2021-03-13T13:09:52Z</time>
      </trkpt>
      <trkpt lat="43.01063" lon="0.87673">
        <ele>501</ele>
        <time>2021-03-13T13:09:53Z</time>
      </trkpt>
      <trkpt lat="43.01063" lon="0.87669">
        <ele>501</ele>
        <time>2021-03-13T13:09:54Z</time>
      </trkpt>
      <trkpt lat="43.01063" lon="0.87665">
        <ele>502</ele>
        <time>2021-03-13T13:09:55Z</time>
      </trkpt>
      <trkpt lat="43.01063" lon="0.87661">
        <ele>502</ele>
        <time>2021-03-13T13:09:56Z</time>
      </trkpt>
      <trkpt lat="43.01063" lon="0.87657">
        <ele>502</ele>
        <time>2021-03-13T13:09:57Z</time>
      </trkpt>
      <trkpt lat="43.01063" lon="0.87652">
        <ele>502</ele>
        <time>2021-03-13T13:09:58Z</time>
      </trkpt>
      <trkpt lat="43.01064" lon="0.87648">
        <ele>502</ele>
        <time>2021-03-13T13:09:59Z</time>
      </trkpt>
      <trkpt lat="43.01064" lon="0.87644">
        <ele>504</ele>
        <time>2021-03-13T13:10:00Z</time>
      </trkpt>
      <trkpt lat="43.01064" lon="0.8764">
        <ele>504</ele>
        <time>2021-03-13T13:10:01Z</time>
      </trkpt>
      <trkpt lat="43.01065" lon="0.87636">
        <ele>504</ele>
        <time>2021-03-13T13:10:02Z</time>
      </trkpt>
      <trkpt lat="43.01065" lon="0.87636">
        <ele>504</ele>
        <time>2021-03-13T13:10:03Z</time>
      </trkpt>
      <trkpt lat="43.01066" lon="0.87628">
        <ele>504</ele>
        <time>2021-03-13T13:10:04Z</time>
      </trkpt>
      <trkpt lat="43.01066" lon="0.87628">
        <ele>505</ele>
        <time>2021-03-13T13:10:05Z</time>
      </trkpt>
      <trkpt lat="43.01068" lon="0.8762">
        <ele>505</ele>
        <time>2021-03-13T13:10:06Z</time>
      </trkpt>
      <trkpt lat="43.01068" lon="0.8762">
        <ele>505</ele>
        <time>2021-03-13T13:10:07Z</time>
      </trkpt>
      <trkpt lat="43.01069" lon="0.87612">
        <ele>505</ele>
        <time>2021-03-13T13:10:08Z</time>
      </trkpt>
      <trkpt lat="43.01069" lon="0.87612">
        <ele>505</ele>
        <time>2021-03-13T13:10:09Z</time>
      </trkpt>
      <trkpt lat="43.01071" lon="0.87604">
        <ele>505</ele>
        <time>2021-03-13T13:10:10Z</time>
      </trkpt>
      <trkpt lat="43.01071" lon="0.87604">
        <ele>505</ele>
        <time>2021-03-13T13:10:11Z</time>
      </trkpt>
      <trkpt lat="43.01072" lon="0.87596">
        <ele>505</ele>
        <time>2021-03-13T13:10:12Z</time>
      </trkpt>
      <trkpt lat="43.01072" lon="0.87596">
        <ele>505</ele>
        <time>2021-03-13T13:10:13Z</time>
      </trkpt>
      <trkpt lat="43.01073" lon="0.87593">
        <ele>505</ele>
        <time>2021-03-13T13:10:14Z</time>
      </trkpt>
      <trkpt lat="43.01074" lon="0.8759">
        <ele>505</ele>
        <time>2021-03-13T13:10:15Z</time>
      </trkpt>
      <trkpt lat="43.01074" lon="0.87587">
        <ele>505</ele>
        <time>2021-03-13T13:10:16Z</time>
      </trkpt>
      <trkpt lat="43.01075" lon="0.87584">
        <ele>505</ele>
        <time>2021-03-13T13:10:17Z</time>
      </trkpt>
      <trkpt lat="43.01076" lon="0.87576">
        <ele>505</ele>
        <time>2021-03-13T13:10:18Z</time>
      </trkpt>
      <trkpt lat="43.01076" lon="0.87576">
        <ele>505</ele>
        <time>2021-03-13T13:10:19Z</time>
      </trkpt>
      <trkpt lat="43.01078" lon="0.87568">
        <ele>508</ele>
        <time>2021-03-13T13:10:20Z</time>
      </trkpt>
      <trkpt lat="43.01078" lon="0.87568">
        <ele>508</ele>
        <time>2021-03-13T13:10:21Z</time>
      </trkpt>
      <trkpt lat="43.0108" lon="0.87559">
        <ele>508</ele>
        <time>2021-03-13T13:10:22Z</time>
      </trkpt>
      <trkpt lat="43.0108" lon="0.87559">
        <ele>508</ele>
        <time>2021-03-13T13:10:23Z</time>
      </trkpt>
      <trkpt lat="43.01081" lon="0.87555">
        <ele>508</ele>
        <time>2021-03-13T13:10:24Z</time>
      </trkpt>
      <trkpt lat="43.01082" lon="0.87551">
        <ele>508</ele>
        <time>2021-03-13T13:10:25Z</time>
      </trkpt>
      <trkpt lat="43.01083" lon="0.87548">
        <ele>508</ele>
        <time>2021-03-13T13:10:26Z</time>
      </trkpt>
      <trkpt lat="43.01084" lon="0.8754">
        <ele>508</ele>
        <time>2021-03-13T13:10:27Z</time>
      </trkpt>
      <trkpt lat="43.01084" lon="0.8754">
        <ele>508</ele>
        <time>2021-03-13T13:10:28Z</time>
      </trkpt>
      <trkpt lat="43.01087" lon="0.87529">
        <ele>508</ele>
        <time>2021-03-13T13:10:29Z</time>
      </trkpt>
      <trkpt lat="43.01087" lon="0.87527">
        <ele>509</ele>
        <time>2021-03-13T13:10:30Z</time>
      </trkpt>
      <trkpt lat="43.01088" lon="0.87523">
        <ele>509</ele>
        <time>2021-03-13T13:10:31Z</time>
      </trkpt>
      <trkpt lat="43.01089" lon="0.87519">
        <ele>509</ele>
        <time>2021-03-13T13:10:32Z</time>
      </trkpt>
      <trkpt lat="43.0109" lon="0.87516">
        <ele>509</ele>
        <time>2021-03-13T13:10:33Z</time>
      </trkpt>
      <trkpt lat="43.01091" lon="0.87511">
        <ele>509</ele>
        <time>2021-03-13T13:10:34Z</time>
      </trkpt>
      <trkpt lat="43.01092" lon="0.87507">
        <ele>509</ele>
        <time>2021-03-13T13:10:35Z</time>
      </trkpt>
      <trkpt lat="43.01092" lon="0.87503">
        <ele>509</ele>
        <time>2021-03-13T13:10:36Z</time>
      </trkpt>
      <trkpt lat="43.01093" lon="0.875">
        <ele>509</ele>
        <time>2021-03-13T13:10:37Z</time>
      </trkpt>
      <trkpt lat="43.01094" lon="0.87496">
        <ele>509</ele>
        <time>2021-03-13T13:10:38Z</time>
      </trkpt>
      <trkpt lat="43.01095" lon="0.87492">
        <ele>509</ele>
        <time>2021-03-13T13:10:39Z</time>
      </trkpt>
      <trkpt lat="43.01096" lon="0.87488">
        <ele>511</ele>
        <time>2021-03-13T13:10:40Z</time>
      </trkpt>
      <trkpt lat="43.01097" lon="0.87484">
        <ele>511</ele>
        <time>2021-03-13T13:10:41Z</time>
      </trkpt>
      <trkpt lat="43.01097" lon="0.87481">
        <ele>511</ele>
        <time>2021-03-13T13:10:42Z</time>
      </trkpt>
      <trkpt lat="43.01098" lon="0.87477">
        <ele>511</ele>
        <time>2021-03-13T13:10:43Z</time>
      </trkpt>
      <trkpt lat="43.01099" lon="0.87473">
        <ele>511</ele>
        <time>2021-03-13T13:10:44Z</time>
      </trkpt>
      <trkpt lat="43.011" lon="0.8747">
        <ele>511</ele>
        <time>2021-03-13T13:10:45Z</time>
      </trkpt>
      <trkpt lat="43.011" lon="0.87466">
        <ele>511</ele>
        <time>2021-03-13T13:10:46Z</time>
      </trkpt>
      <trkpt lat="43.01101" lon="0.87463">
        <ele>511</ele>
        <time>2021-03-13T13:10:47Z</time>
      </trkpt>
      <trkpt lat="43.01101" lon="0.87463">
        <ele>511</ele>
        <time>2021-03-13T13:10:48Z</time>
      </trkpt>
      <trkpt lat="43.01104" lon="0.87456">
        <ele>511</ele>
        <time>2021-03-13T13:10:49Z</time>
      </trkpt>
      <trkpt lat="43.01105" lon="0.87454">
        <ele>514</ele>
        <time>2021-03-13T13:10:50Z</time>
      </trkpt>
      <trkpt lat="43.01107" lon="0.87452">
        <ele>514</ele>
        <time>2021-03-13T13:10:51Z</time>
      </trkpt>
      <trkpt lat="43.01109" lon="0.87449">
        <ele>514</ele>
        <time>2021-03-13T13:10:52Z</time>
      </trkpt>
      <trkpt lat="43.01111" lon="0.87447">
        <ele>514</ele>
        <time>2021-03-13T13:10:53Z</time>
      </trkpt>
      <trkpt lat="43.01114" lon="0.87445">
        <ele>514</ele>
        <time>2021-03-13T13:10:54Z</time>
      </trkpt>
      <trkpt lat="43.01115" lon="0.87443">
        <ele>516</ele>
        <time>2021-03-13T13:10:55Z</time>
      </trkpt>
      <trkpt lat="43.01117" lon="0.87441">
        <ele>516</ele>
        <time>2021-03-13T13:10:56Z</time>
      </trkpt>
      <trkpt lat="43.01117" lon="0.87441">
        <ele>516</ele>
        <time>2021-03-13T13:10:57Z</time>
      </trkpt>
      <trkpt lat="43.01121" lon="0.87436">
        <ele>516</ele>
        <time>2021-03-13T13:10:58Z</time>
      </trkpt>
      <trkpt lat="43.01121" lon="0.87436">
        <ele>516</ele>
        <time>2021-03-13T13:10:59Z</time>
      </trkpt>
      <trkpt lat="43.01124" lon="0.8743">
        <ele>516</ele>
        <time>2021-03-13T13:11:00Z</time>
      </trkpt>
      <trkpt lat="43.01124" lon="0.8743">
        <ele>516</ele>
        <time>2021-03-13T13:11:01Z</time>
      </trkpt>
      <trkpt lat="43.01127" lon="0.87424">
        <ele>516</ele>
        <time>2021-03-13T13:11:02Z</time>
      </trkpt>
      <trkpt lat="43.01127" lon="0.87424">
        <ele>516</ele>
        <time>2021-03-13T13:11:03Z</time>
      </trkpt>
      <trkpt lat="43.0113" lon="0.87419">
        <ele>516</ele>
        <time>2021-03-13T13:11:04Z</time>
      </trkpt>
      <trkpt lat="43.0113" lon="0.87419">
        <ele>517</ele>
        <time>2021-03-13T13:11:05Z</time>
      </trkpt>
      <trkpt lat="43.01132" lon="0.87416">
        <ele>517</ele>
        <time>2021-03-13T13:11:06Z</time>
      </trkpt>
      <trkpt lat="43.01134" lon="0.87414">
        <ele>517</ele>
        <time>2021-03-13T13:11:07Z</time>
      </trkpt>
      <trkpt lat="43.01135" lon="0.87411">
        <ele>517</ele>
        <time>2021-03-13T13:11:08Z</time>
      </trkpt>
      <trkpt lat="43.01137" lon="0.87409">
        <ele>517</ele>
        <time>2021-03-13T13:11:09Z</time>
      </trkpt>
      <trkpt lat="43.01138" lon="0.87406">
        <ele>518</ele>
        <time>2021-03-13T13:11:10Z</time>
      </trkpt>
      <trkpt lat="43.0114" lon="0.87403">
        <ele>518</ele>
        <time>2021-03-13T13:11:11Z</time>
      </trkpt>
      <trkpt lat="43.01142" lon="0.87401">
        <ele>518</ele>
        <time>2021-03-13T13:11:12Z</time>
      </trkpt>
      <trkpt lat="43.01143" lon="0.87398">
        <ele>518</ele>
        <time>2021-03-13T13:11:13Z</time>
      </trkpt>
      <trkpt lat="43.01145" lon="0.87396">
        <ele>518</ele>
        <time>2021-03-13T13:11:14Z</time>
      </trkpt>
      <trkpt lat="43.01147" lon="0.87393">
        <ele>518</ele>
        <time>2021-03-13T13:11:15Z</time>
      </trkpt>
      <trkpt lat="43.01149" lon="0.87391">
        <ele>518</ele>
        <time>2021-03-13T13:11:16Z</time>
      </trkpt>
      <trkpt lat="43.0115" lon="0.87389">
        <ele>518</ele>
        <time>2021-03-13T13:11:17Z</time>
      </trkpt>
      <trkpt lat="43.01152" lon="0.87387">
        <ele>518</ele>
        <time>2021-03-13T13:11:18Z</time>
      </trkpt>
      <trkpt lat="43.01155" lon="0.87385">
        <ele>518</ele>
        <time>2021-03-13T13:11:19Z</time>
      </trkpt>
      <trkpt lat="43.01157" lon="0.87383">
        <ele>520</ele>
        <time>2021-03-13T13:11:20Z</time>
      </trkpt>
      <trkpt lat="43.01159" lon="0.87381">
        <ele>520</ele>
        <time>2021-03-13T13:11:21Z</time>
      </trkpt>
      <trkpt lat="43.0116" lon="0.87379">
        <ele>520</ele>
        <time>2021-03-13T13:11:22Z</time>
      </trkpt>
      <trkpt lat="43.01162" lon="0.87376">
        <ele>520</ele>
        <time>2021-03-13T13:11:23Z</time>
      </trkpt>
      <trkpt lat="43.01163" lon="0.87374">
        <ele>520</ele>
        <time>2021-03-13T13:11:24Z</time>
      </trkpt>
      <trkpt lat="43.01165" lon="0.87372">
        <ele>520</ele>
        <time>2021-03-13T13:11:25Z</time>
      </trkpt>
      <trkpt lat="43.01166" lon="0.8737">
        <ele>520</ele>
        <time>2021-03-13T13:11:26Z</time>
      </trkpt>
      <trkpt lat="43.01166" lon="0.87367">
        <ele>520</ele>
        <time>2021-03-13T13:11:27Z</time>
      </trkpt>
      <trkpt lat="43.01167" lon="0.87364">
        <ele>520</ele>
        <time>2021-03-13T13:11:28Z</time>
      </trkpt>
      <trkpt lat="43.01167" lon="0.87361">
        <ele>520</ele>
        <time>2021-03-13T13:11:29Z</time>
      </trkpt>
      <trkpt lat="43.01168" lon="0.87358">
        <ele>524</ele>
        <time>2021-03-13T13:11:30Z</time>
      </trkpt>
      <trkpt lat="43.01168" lon="0.87355">
        <ele>524</ele>
        <time>2021-03-13T13:11:31Z</time>
      </trkpt>
      <trkpt lat="43.01168" lon="0.87351">
        <ele>524</ele>
        <time>2021-03-13T13:11:32Z</time>
      </trkpt>
      <trkpt lat="43.01168" lon="0.87347">
        <ele>524</ele>
        <time>2021-03-13T13:11:33Z</time>
      </trkpt>
      <trkpt lat="43.01168" lon="0.87343">
        <ele>524</ele>
        <time>2021-03-13T13:11:34Z</time>
      </trkpt>
      <trkpt lat="43.01168" lon="0.87338">
        <ele>526</ele>
        <time>2021-03-13T13:11:35Z</time>
      </trkpt>
      <trkpt lat="43.01168" lon="0.87334">
        <ele>526</ele>
        <time>2021-03-13T13:11:36Z</time>
      </trkpt>
      <trkpt lat="43.01168" lon="0.87329">
        <ele>526</ele>
        <time>2021-03-13T13:11:37Z</time>
      </trkpt>
      <trkpt lat="43.01168" lon="0.87325">
        <ele>526</ele>
        <time>2021-03-13T13:11:38Z</time>
      </trkpt>
      <trkpt lat="43.01167" lon="0.87321">
        <ele>526</ele>
        <time>2021-03-13T13:11:39Z</time>
      </trkpt>
      <trkpt lat="43.01167" lon="0.87317">
        <ele>526</ele>
        <time>2021-03-13T13:11:40Z</time>
      </trkpt>
      <trkpt lat="43.01167" lon="0.87314">
        <ele>526</ele>
        <time>2021-03-13T13:11:41Z</time>
      </trkpt>
      <trkpt lat="43.01167" lon="0.8731">
        <ele>526</ele>
        <time>2021-03-13T13:11:42Z</time>
      </trkpt>
      <trkpt lat="43.01167" lon="0.87306">
        <ele>526</ele>
        <time>2021-03-13T13:11:43Z</time>
      </trkpt>
      <trkpt lat="43.01168" lon="0.87302">
        <ele>526</ele>
        <time>2021-03-13T13:11:44Z</time>
      </trkpt>
      <trkpt lat="43.01168" lon="0.87299">
        <ele>527</ele>
        <time>2021-03-13T13:11:45Z</time>
      </trkpt>
      <trkpt lat="43.01168" lon="0.87295">
        <ele>527</ele>
        <time>2021-03-13T13:11:46Z</time>
      </trkpt>
      <trkpt lat="43.01168" lon="0.87292">
        <ele>527</ele>
        <time>2021-03-13T13:11:47Z</time>
      </trkpt>
      <trkpt lat="43.01169" lon="0.8729">
        <ele>527</ele>
        <time>2021-03-13T13:11:48Z</time>
      </trkpt>
      <trkpt lat="43.01169" lon="0.87287">
        <ele>527</ele>
        <time>2021-03-13T13:11:49Z</time>
      </trkpt>
      <trkpt lat="43.0117" lon="0.87285">
        <ele>529</ele>
        <time>2021-03-13T13:11:50Z</time>
      </trkpt>
      <trkpt lat="43.0117" lon="0.87282">
        <ele>529</ele>
        <time>2021-03-13T13:11:51Z</time>
      </trkpt>
      <trkpt lat="43.01171" lon="0.8728">
        <ele>529</ele>
        <time>2021-03-13T13:11:52Z</time>
      </trkpt>
      <trkpt lat="43.01171" lon="0.87275">
        <ele>529</ele>
        <time>2021-03-13T13:11:53Z</time>
      </trkpt>
      <trkpt lat="43.01172" lon="0.87271">
        <ele>529</ele>
        <time>2021-03-13T13:11:54Z</time>
      </trkpt>
      <trkpt lat="43.01172" lon="0.87266">
        <ele>529</ele>
        <time>2021-03-13T13:11:55Z</time>
      </trkpt>
      <trkpt lat="43.01173" lon="0.87262">
        <ele>529</ele>
        <time>2021-03-13T13:11:56Z</time>
      </trkpt>
      <trkpt lat="43.01173" lon="0.87258">
        <ele>529</ele>
        <time>2021-03-13T13:11:57Z</time>
      </trkpt>
      <trkpt lat="43.01174" lon="0.87253">
        <ele>529</ele>
        <time>2021-03-13T13:11:58Z</time>
      </trkpt>
      <trkpt lat="43.01175" lon="0.87249">
        <ele>529</ele>
        <time>2021-03-13T13:11:59Z</time>
      </trkpt>
      <trkpt lat="43.01176" lon="0.87245">
        <ele>530</ele>
        <time>2021-03-13T13:12:00Z</time>
      </trkpt>
      <trkpt lat="43.01177" lon="0.87241">
        <ele>530</ele>
        <time>2021-03-13T13:12:01Z</time>
      </trkpt>
      <trkpt lat="43.01177" lon="0.87238">
        <ele>530</ele>
        <time>2021-03-13T13:12:02Z</time>
      </trkpt>
      <trkpt lat="43.01178" lon="0.87234">
        <ele>530</ele>
        <time>2021-03-13T13:12:03Z</time>
      </trkpt>
      <trkpt lat="43.01178" lon="0.8723">
        <ele>530</ele>
        <time>2021-03-13T13:12:04Z</time>
      </trkpt>
      <trkpt lat="43.01179" lon="0.87226">
        <ele>530</ele>
        <time>2021-03-13T13:12:05Z</time>
      </trkpt>
      <trkpt lat="43.0118" lon="0.87222">
        <ele>530</ele>
        <time>2021-03-13T13:12:06Z</time>
      </trkpt>
      <trkpt lat="43.0118" lon="0.87218">
        <ele>530</ele>
        <time>2021-03-13T13:12:07Z</time>
      </trkpt>
      <trkpt lat="43.01182" lon="0.87211">
        <ele>530</ele>
        <time>2021-03-13T13:12:08Z</time>
      </trkpt>
      <trkpt lat="43.01182" lon="0.87211">
        <ele>530</ele>
        <time>2021-03-13T13:12:09Z</time>
      </trkpt>
      <trkpt lat="43.01183" lon="0.87207">
        <ele>531</ele>
        <time>2021-03-13T13:12:10Z</time>
      </trkpt>
      <trkpt lat="43.01183" lon="0.87203">
        <ele>531</ele>
        <time>2021-03-13T13:12:11Z</time>
      </trkpt>
      <trkpt lat="43.01184" lon="0.87199">
        <ele>531</ele>
        <time>2021-03-13T13:12:12Z</time>
      </trkpt>
      <trkpt lat="43.01185" lon="0.87196">
        <ele>531</ele>
        <time>2021-03-13T13:12:13Z</time>
      </trkpt>
      <trkpt lat="43.01186" lon="0.87192">
        <ele>531</ele>
        <time>2021-03-13T13:12:14Z</time>
      </trkpt>
      <trkpt lat="43.01187" lon="0.87189">
        <ele>531</ele>
        <time>2021-03-13T13:12:15Z</time>
      </trkpt>
      <trkpt lat="43.01187" lon="0.87185">
        <ele>531</ele>
        <time>2021-03-13T13:12:16Z</time>
      </trkpt>
      <trkpt lat="43.01188" lon="0.87182">
        <ele>531</ele>
        <time>2021-03-13T13:12:17Z</time>
      </trkpt>
      <trkpt lat="43.01188" lon="0.87178">
        <ele>531</ele>
        <time>2021-03-13T13:12:18Z</time>
      </trkpt>
      <trkpt lat="43.01189" lon="0.87171">
        <ele>531</ele>
        <time>2021-03-13T13:12:19Z</time>
      </trkpt>
      <trkpt lat="43.01189" lon="0.87171">
        <ele>533</ele>
        <time>2021-03-13T13:12:20Z</time>
      </trkpt>
      <trkpt lat="43.0119" lon="0.87168">
        <ele>533</ele>
        <time>2021-03-13T13:12:21Z</time>
      </trkpt>
      <trkpt lat="43.01191" lon="0.87164">
        <ele>533</ele>
        <time>2021-03-13T13:12:22Z</time>
      </trkpt>
      <trkpt lat="43.01192" lon="0.8716">
        <ele>533</ele>
        <time>2021-03-13T13:12:23Z</time>
      </trkpt>
      <trkpt lat="43.01192" lon="0.87157">
        <ele>533</ele>
        <time>2021-03-13T13:12:24Z</time>
      </trkpt>
      <trkpt lat="43.01193" lon="0.87153">
        <ele>533</ele>
        <time>2021-03-13T13:12:25Z</time>
      </trkpt>
      <trkpt lat="43.01193" lon="0.8715">
        <ele>533</ele>
        <time>2021-03-13T13:12:26Z</time>
      </trkpt>
      <trkpt lat="43.01193" lon="0.87146">
        <ele>533</ele>
        <time>2021-03-13T13:12:27Z</time>
      </trkpt>
      <trkpt lat="43.01194" lon="0.87143">
        <ele>533</ele>
        <time>2021-03-13T13:12:28Z</time>
      </trkpt>
      <trkpt lat="43.01194" lon="0.87139">
        <ele>533</ele>
        <time>2021-03-13T13:12:29Z</time>
      </trkpt>
      <trkpt lat="43.01195" lon="0.87136">
        <ele>535</ele>
        <time>2021-03-13T13:12:30Z</time>
      </trkpt>
      <trkpt lat="43.01196" lon="0.87133">
        <ele>535</ele>
        <time>2021-03-13T13:12:31Z</time>
      </trkpt>
      <trkpt lat="43.01197" lon="0.8713">
        <ele>535</ele>
        <time>2021-03-13T13:12:32Z</time>
      </trkpt>
      <trkpt lat="43.01199" lon="0.87129">
        <ele>535</ele>
        <time>2021-03-13T13:12:33Z</time>
      </trkpt>
      <trkpt lat="43.01201" lon="0.87127">
        <ele>535</ele>
        <time>2021-03-13T13:12:34Z</time>
      </trkpt>
      <trkpt lat="43.01203" lon="0.87126">
        <ele>536</ele>
        <time>2021-03-13T13:12:35Z</time>
      </trkpt>
      <trkpt lat="43.01205" lon="0.87125">
        <ele>536</ele>
        <time>2021-03-13T13:12:36Z</time>
      </trkpt>
      <trkpt lat="43.01207" lon="0.87124">
        <ele>536</ele>
        <time>2021-03-13T13:12:37Z</time>
      </trkpt>
      <trkpt lat="43.0121" lon="0.87124">
        <ele>536</ele>
        <time>2021-03-13T13:12:38Z</time>
      </trkpt>
      <trkpt lat="43.01212" lon="0.87124">
        <ele>536</ele>
        <time>2021-03-13T13:12:39Z</time>
      </trkpt>
      <trkpt lat="43.01214" lon="0.87123">
        <ele>538</ele>
        <time>2021-03-13T13:12:40Z</time>
      </trkpt>
      <trkpt lat="43.01216" lon="0.87123">
        <ele>538</ele>
        <time>2021-03-13T13:12:41Z</time>
      </trkpt>
      <trkpt lat="43.01218" lon="0.87123">
        <ele>538</ele>
        <time>2021-03-13T13:12:42Z</time>
      </trkpt>
      <trkpt lat="43.0122" lon="0.87124">
        <ele>538</ele>
        <time>2021-03-13T13:12:43Z</time>
      </trkpt>
      <trkpt lat="43.01221" lon="0.87124">
        <ele>538</ele>
        <time>2021-03-13T13:12:44Z</time>
      </trkpt>
      <trkpt lat="43.01223" lon="0.87124">
        <ele>540</ele>
        <time>2021-03-13T13:12:45Z</time>
      </trkpt>
      <trkpt lat="43.01224" lon="0.87125">
        <ele>540</ele>
        <time>2021-03-13T13:12:46Z</time>
      </trkpt>
      <trkpt lat="43.01226" lon="0.87125">
        <ele>540</ele>
        <time>2021-03-13T13:12:47Z</time>
      </trkpt>
      <trkpt lat="43.01227" lon="0.87125">
        <ele>540</ele>
        <time>2021-03-13T13:12:48Z</time>
      </trkpt>
      <trkpt lat="43.01229" lon="0.87125">
        <ele>540</ele>
        <time>2021-03-13T13:12:49Z</time>
      </trkpt>
      <trkpt lat="43.0123" lon="0.87125">
        <ele>542</ele>
        <time>2021-03-13T13:12:50Z</time>
      </trkpt>
      <trkpt lat="43.01232" lon="0.87126">
        <ele>542</ele>
        <time>2021-03-13T13:12:51Z</time>
      </trkpt>
      <trkpt lat="43.01233" lon="0.87126">
        <ele>542</ele>
        <time>2021-03-13T13:12:52Z</time>
      </trkpt>
      <trkpt lat="43.01235" lon="0.87125">
        <ele>542</ele>
        <time>2021-03-13T13:12:53Z</time>
      </trkpt>
      <trkpt lat="43.01236" lon="0.87124">
        <ele>542</ele>
        <time>2021-03-13T13:12:54Z</time>
      </trkpt>
      <trkpt lat="43.01237" lon="0.87124">
        <ele>544</ele>
        <time>2021-03-13T13:12:55Z</time>
      </trkpt>
      <trkpt lat="43.01238" lon="0.87123">
        <ele>544</ele>
        <time>2021-03-13T13:12:56Z</time>
      </trkpt>
      <trkpt lat="43.01239" lon="0.87122">
        <ele>544</ele>
        <time>2021-03-13T13:12:57Z</time>
      </trkpt>
      <trkpt lat="43.0124" lon="0.87121">
        <ele>544</ele>
        <time>2021-03-13T13:12:58Z</time>
      </trkpt>
      <trkpt lat="43.01241" lon="0.87119">
        <ele>544</ele>
        <time>2021-03-13T13:12:59Z</time>
      </trkpt>
      <trkpt lat="43.01242" lon="0.87117">
        <ele>546</ele>
        <time>2021-03-13T13:13:00Z</time>
      </trkpt>
      <trkpt lat="43.01242" lon="0.87115">
        <ele>546</ele>
        <time>2021-03-13T13:13:01Z</time>
      </trkpt>
      <trkpt lat="43.01243" lon="0.87113">
        <ele>546</ele>
        <time>2021-03-13T13:13:02Z</time>
      </trkpt>
      <trkpt lat="43.01244" lon="0.87111">
        <ele>546</ele>
        <time>2021-03-13T13:13:03Z</time>
      </trkpt>
      <trkpt lat="43.01245" lon="0.8711">
        <ele>546</ele>
        <time>2021-03-13T13:13:04Z</time>
      </trkpt>
      <trkpt lat="43.01245" lon="0.87108">
        <ele>548</ele>
        <time>2021-03-13T13:13:05Z</time>
      </trkpt>
      <trkpt lat="43.01246" lon="0.87107">
        <ele>548</ele>
        <time>2021-03-13T13:13:06Z</time>
      </trkpt>
      <trkpt lat="43.01247" lon="0.87105">
        <ele>548</ele>
        <time>2021-03-13T13:13:07Z</time>
      </trkpt>
      <trkpt lat="43.01247" lon="0.87103">
        <ele>548</ele>
        <time>2021-03-13T13:13:08Z</time>
      </trkpt>
      <trkpt lat="43.01248" lon="0.87102">
        <ele>548</ele>
        <time>2021-03-13T13:13:09Z</time>
      </trkpt>
      <trkpt lat="43.01249" lon="0.87101">
        <ele>550</ele>
        <time>2021-03-13T13:13:10Z</time>
      </trkpt>
      <trkpt lat="43.0125" lon="0.871">
        <ele>550</ele>
        <time>2021-03-13T13:13:11Z</time>
      </trkpt>
      <trkpt lat="43.01251" lon="0.87098">
        <ele>550</ele>
        <time>2021-03-13T13:13:12Z</time>
      </trkpt>
      <trkpt lat="43.01252" lon="0.87097">
        <ele>550</ele>
        <time>2021-03-13T13:13:13Z</time>
      </trkpt>
      <trkpt lat="43.01253" lon="0.87096">
        <ele>550</ele>
        <time>2021-03-13T13:13:14Z</time>
      </trkpt>
      <trkpt lat="43.01254" lon="0.87094">
        <ele>552</ele>
        <time>2021-03-13T13:13:15Z</time>
      </trkpt>
      <trkpt lat="43.01255" lon="0.87093">
        <ele>552</ele>
        <time>2021-03-13T13:13:16Z</time>
      </trkpt>
      <trkpt lat="43.01256" lon="0.87091">
        <ele>552</ele>
        <time>2021-03-13T13:13:17Z</time>
      </trkpt>
      <trkpt lat="43.01258" lon="0.8709">
        <ele>552</ele>
        <time>2021-03-13T13:13:18Z</time>
      </trkpt>
      <trkpt lat="43.01259" lon="0.87089">
        <ele>552</ele>
        <time>2021-03-13T13:13:19Z</time>
      </trkpt>
      <trkpt lat="43.01259" lon="0.87087">
        <ele>553</ele>
        <time>2021-03-13T13:13:20Z</time>
      </trkpt>
      <trkpt lat="43.0126" lon="0.87085">
        <ele>553</ele>
        <time>2021-03-13T13:13:21Z</time>
      </trkpt>
      <trkpt lat="43.01261" lon="0.87084">
        <ele>553</ele>
        <time>2021-03-13T13:13:22Z</time>
      </trkpt>
      <trkpt lat="43.01262" lon="0.87082">
        <ele>553</ele>
        <time>2021-03-13T13:13:23Z</time>
      </trkpt>
      <trkpt lat="43.01263" lon="0.87081">
        <ele>553</ele>
        <time>2021-03-13T13:13:24Z</time>
      </trkpt>
      <trkpt lat="43.01264" lon="0.87079">
        <ele>555</ele>
        <time>2021-03-13T13:13:25Z</time>
      </trkpt>
      <trkpt lat="43.01265" lon="0.87077">
        <ele>555</ele>
        <time>2021-03-13T13:13:26Z</time>
      </trkpt>
      <trkpt lat="43.01266" lon="0.87075">
        <ele>555</ele>
        <time>2021-03-13T13:13:27Z</time>
      </trkpt>
      <trkpt lat="43.01267" lon="0.87073">
        <ele>555</ele>
        <time>2021-03-13T13:13:28Z</time>
      </trkpt>
      <trkpt lat="43.01268" lon="0.87071">
        <ele>555</ele>
        <time>2021-03-13T13:13:29Z</time>
      </trkpt>
      <trkpt lat="43.01268" lon="0.8707">
        <ele>557</ele>
        <time>2021-03-13T13:13:30Z</time>
      </trkpt>
      <trkpt lat="43.01269" lon="0.87068">
        <ele>557</ele>
        <time>2021-03-13T13:13:31Z</time>
      </trkpt>
      <trkpt lat="43.0127" lon="0.87067">
        <ele>557</ele>
        <time>2021-03-13T13:13:32Z</time>
      </trkpt>
      <trkpt lat="43.0127" lon="0.87065">
        <ele>557</ele>
        <time>2021-03-13T13:13:33Z</time>
      </trkpt>
      <trkpt lat="43.01271" lon="0.87063">
        <ele>557</ele>
        <time>2021-03-13T13:13:34Z</time>
      </trkpt>
      <trkpt lat="43.01272" lon="0.87061">
        <ele>559</ele>
        <time>2021-03-13T13:13:35Z</time>
      </trkpt>
      <trkpt lat="43.01273" lon="0.87059">
        <ele>559</ele>
        <time>2021-03-13T13:13:36Z</time>
      </trkpt>
      <trkpt lat="43.01274" lon="0.87057">
        <ele>559</ele>
        <time>2021-03-13T13:13:37Z</time>
      </trkpt>
      <trkpt lat="43.01274" lon="0.87056">
        <ele>559</ele>
        <time>2021-03-13T13:13:38Z</time>
      </trkpt>
      <trkpt lat="43.01275" lon="0.87054">
        <ele>559</ele>
        <time>2021-03-13T13:13:39Z</time>
      </trkpt>
      <trkpt lat="43.01276" lon="0.87052">
        <ele>561</ele>
        <time>2021-03-13T13:13:40Z</time>
      </trkpt>
      <trkpt lat="43.01276" lon="0.87051">
        <ele>561</ele>
        <time>2021-03-13T13:13:41Z</time>
      </trkpt>
      <trkpt lat="43.01277" lon="0.87049">
        <ele>561</ele>
        <time>2021-03-13T13:13:42Z</time>
      </trkpt>
      <trkpt lat="43.01277" lon="0.87047">
        <ele>561</ele>
        <time>2021-03-13T13:13:43Z</time>
      </trkpt>
      <trkpt lat="43.01278" lon="0.87046">
        <ele>561</ele>
        <time>2021-03-13T13:13:44Z</time>
      </trkpt>
      <trkpt lat="43.01279" lon="0.87044">
        <ele>562</ele>
        <time>2021-03-13T13:13:45Z</time>
      </trkpt>
      <trkpt lat="43.01279" lon="0.87042">
        <ele>562</ele>
        <time>2021-03-13T13:13:46Z</time>
      </trkpt>
      <trkpt lat="43.0128" lon="0.87041">
        <ele>562</ele>
        <time>2021-03-13T13:13:47Z</time>
      </trkpt>
      <trkpt lat="43.0128" lon="0.87039">
        <ele>562</ele>
        <time>2021-03-13T13:13:48Z</time>
      </trkpt>
      <trkpt lat="43.01281" lon="0.87038">
        <ele>562</ele>
        <time>2021-03-13T13:13:49Z</time>
      </trkpt>
      <trkpt lat="43.01281" lon="0.87036">
        <ele>564</ele>
        <time>2021-03-13T13:13:50Z</time>
      </trkpt>
      <trkpt lat="43.01282" lon="0.87035">
        <ele>564</ele>
        <time>2021-03-13T13:13:51Z</time>
      </trkpt>
      <trkpt lat="43.01282" lon="0.87033">
        <ele>564</ele>
        <time>2021-03-13T13:13:52Z</time>
      </trkpt>
      <trkpt lat="43.01283" lon="0.87032">
        <ele>564</ele>
        <time>2021-03-13T13:13:53Z</time>
      </trkpt>
      <trkpt lat="43.01283" lon="0.8703">
        <ele>564</ele>
        <time>2021-03-13T13:13:54Z</time>
      </trkpt>
      <trkpt lat="43.01284" lon="0.87028">
        <ele>565</ele>
        <time>2021-03-13T13:13:55Z</time>
      </trkpt>
      <trkpt lat="43.01284" lon="0.87026">
        <ele>565</ele>
        <time>2021-03-13T13:13:56Z</time>
      </trkpt>
      <trkpt lat="43.01285" lon="0.87024">
        <ele>565</ele>
        <time>2021-03-13T13:13:57Z</time>
      </trkpt>
      <trkpt lat="43.01285" lon="0.87022">
        <ele>565</ele>
        <time>2021-03-13T13:13:58Z</time>
      </trkpt>
      <trkpt lat="43.01285" lon="0.8702">
        <ele>565</ele>
        <time>2021-03-13T13:13:59Z</time>
      </trkpt>
      <trkpt lat="43.01286" lon="0.87018">
        <ele>567</ele>
        <time>2021-03-13T13:14:00Z</time>
      </trkpt>
      <trkpt lat="43.01286" lon="0.87016">
        <ele>567</ele>
        <time>2021-03-13T13:14:01Z</time>
      </trkpt>
      <trkpt lat="43.01286" lon="0.87014">
        <ele>567</ele>
        <time>2021-03-13T13:14:02Z</time>
      </trkpt>
      <trkpt lat="43.01286" lon="0.87012">
        <ele>567</ele>
        <time>2021-03-13T13:14:03Z</time>
      </trkpt>
      <trkpt lat="43.01287" lon="0.87011">
        <ele>567</ele>
        <time>2021-03-13T13:14:04Z</time>
      </trkpt>
      <trkpt lat="43.01287" lon="0.87009">
        <ele>569</ele>
        <time>2021-03-13T13:14:05Z</time>
      </trkpt>
      <trkpt lat="43.01287" lon="0.87007">
        <ele>569</ele>
        <time>2021-03-13T13:14:06Z</time>
      </trkpt>
      <trkpt lat="43.01288" lon="0.87005">
        <ele>569</ele>
        <time>2021-03-13T13:14:07Z</time>
      </trkpt>
      <trkpt lat="43.01288" lon="0.87003">
        <ele>569</ele>
        <time>2021-03-13T13:14:08Z</time>
      </trkpt>
      <trkpt lat="43.01288" lon="0.87001">
        <ele>569</ele>
        <time>2021-03-13T13:14:09Z</time>
      </trkpt>
      <trkpt lat="43.01288" lon="0.87">
        <ele>571</ele>
        <time>2021-03-13T13:14:10Z</time>
      </trkpt>
      <trkpt lat="43.01288" lon="0.86998">
        <ele>571</ele>
        <time>2021-03-13T13:14:11Z</time>
      </trkpt>
      <trkpt lat="43.01289" lon="0.86996">
        <ele>571</ele>
        <time>2021-03-13T13:14:12Z</time>
      </trkpt>
      <trkpt lat="43.01289" lon="0.86994">
        <ele>571</ele>
        <time>2021-03-13T13:14:13Z</time>
      </trkpt>
      <trkpt lat="43.01289" lon="0.86993">
        <ele>571</ele>
        <time>2021-03-13T13:14:14Z</time>
      </trkpt>
      <trkpt lat="43.01289" lon="0.86991">
        <ele>573</ele>
        <time>2021-03-13T13:14:15Z</time>
      </trkpt>
      <trkpt lat="43.0129" lon="0.86989">
        <ele>573</ele>
        <time>2021-03-13T13:14:16Z</time>
      </trkpt>
      <trkpt lat="43.0129" lon="0.86988">
        <ele>573</ele>
        <time>2021-03-13T13:14:17Z</time>
      </trkpt>
      <trkpt lat="43.01291" lon="0.86986">
        <ele>573</ele>
        <time>2021-03-13T13:14:18Z</time>
      </trkpt>
      <trkpt lat="43.01291" lon="0.86985">
        <ele>573</ele>
        <time>2021-03-13T13:14:19Z</time>
      </trkpt>
      <trkpt lat="43.01292" lon="0.86983">
        <ele>574</ele>
        <time>2021-03-13T13:14:20Z</time>
      </trkpt>
      <trkpt lat="43.01293" lon="0.86981">
        <ele>574</ele>
        <time>2021-03-13T13:14:21Z</time>
      </trkpt>
      <trkpt lat="43.01293" lon="0.8698">
        <ele>574</ele>
        <time>2021-03-13T13:14:22Z</time>
      </trkpt>
      <trkpt lat="43.01294" lon="0.86978">
        <ele>574</ele>
        <time>2021-03-13T13:14:23Z</time>
      </trkpt>
      <trkpt lat="43.01294" lon="0.86976">
        <ele>574</ele>
        <time>2021-03-13T13:14:24Z</time>
      </trkpt>
      <trkpt lat="43.01294" lon="0.86974">
        <ele>576</ele>
        <time>2021-03-13T13:14:25Z</time>
      </trkpt>
      <trkpt lat="43.01295" lon="0.86972">
        <ele>576</ele>
        <time>2021-03-13T13:14:26Z</time>
      </trkpt>
      <trkpt lat="43.01295" lon="0.8697">
        <ele>576</ele>
        <time>2021-03-13T13:14:27Z</time>
      </trkpt>
      <trkpt lat="43.01296" lon="0.86969">
        <ele>576</ele>
        <time>2021-03-13T13:14:28Z</time>
      </trkpt>
      <trkpt lat="43.01296" lon="0.86967">
        <ele>576</ele>
        <time>2021-03-13T13:14:29Z</time>
      </trkpt>
      <trkpt lat="43.01297" lon="0.86965">
        <ele>577</ele>
        <time>2021-03-13T13:14:30Z</time>
      </trkpt>
      <trkpt lat="43.01297" lon="0.86964">
        <ele>577</ele>
        <time>2021-03-13T13:14:31Z</time>
      </trkpt>
      <trkpt lat="43.01298" lon="0.86962">
        <ele>577</ele>
        <time>2021-03-13T13:14:32Z</time>
      </trkpt>
      <trkpt lat="43.01298" lon="0.86961">
        <ele>577</ele>
        <time>2021-03-13T13:14:33Z</time>
      </trkpt>
      <trkpt lat="43.01299" lon="0.86959">
        <ele>577</ele>
        <time>2021-03-13T13:14:34Z</time>
      </trkpt>
      <trkpt lat="43.01299" lon="0.86957">
        <ele>579</ele>
        <time>2021-03-13T13:14:35Z</time>
      </trkpt>
      <trkpt lat="43.013" lon="0.86955">
        <ele>579</ele>
        <time>2021-03-13T13:14:36Z</time>
      </trkpt>
      <trkpt lat="43.013" lon="0.86953">
        <ele>579</ele>
        <time>2021-03-13T13:14:37Z</time>
      </trkpt>
      <trkpt lat="43.01301" lon="0.86952">
        <ele>579</ele>
        <time>2021-03-13T13:14:38Z</time>
      </trkpt>
      <trkpt lat="43.01301" lon="0.8695">
        <ele>579</ele>
        <time>2021-03-13T13:14:39Z</time>
      </trkpt>
      <trkpt lat="43.01302" lon="0.86948">
        <ele>579</ele>
        <time>2021-03-13T13:14:40Z</time>
      </trkpt>
      <trkpt lat="43.01303" lon="0.86947">
        <ele>579</ele>
        <time>2021-03-13T13:14:41Z</time>
      </trkpt>
      <trkpt lat="43.01303" lon="0.86946">
        <ele>579</ele>
        <time>2021-03-13T13:14:42Z</time>
      </trkpt>
      <trkpt lat="43.01304" lon="0.86944">
        <ele>579</ele>
        <time>2021-03-13T13:14:43Z</time>
      </trkpt>
      <trkpt lat="43.01304" lon="0.86943">
        <ele>579</ele>
        <time>2021-03-13T13:14:44Z</time>
      </trkpt>
      <trkpt lat="43.01305" lon="0.86941">
        <ele>580</ele>
        <time>2021-03-13T13:14:45Z</time>
      </trkpt>
      <trkpt lat="43.01305" lon="0.86939">
        <ele>580</ele>
        <time>2021-03-13T13:14:46Z</time>
      </trkpt>
      <trkpt lat="43.01306" lon="0.86937">
        <ele>580</ele>
        <time>2021-03-13T13:14:47Z</time>
      </trkpt>
      <trkpt lat="43.01307" lon="0.86935">
        <ele>580</ele>
        <time>2021-03-13T13:14:48Z</time>
      </trkpt>
      <trkpt lat="43.01308" lon="0.86933">
        <ele>580</ele>
        <time>2021-03-13T13:14:49Z</time>
      </trkpt>
      <trkpt lat="43.01308" lon="0.86931">
        <ele>582</ele>
        <time>2021-03-13T13:14:50Z</time>
      </trkpt>
      <trkpt lat="43.01309" lon="0.8693">
        <ele>582</ele>
        <time>2021-03-13T13:14:51Z</time>
      </trkpt>
      <trkpt lat="43.01309" lon="0.86928">
        <ele>582</ele>
        <time>2021-03-13T13:14:52Z</time>
      </trkpt>
      <trkpt lat="43.0131" lon="0.86927">
        <ele>582</ele>
        <time>2021-03-13T13:14:53Z</time>
      </trkpt>
      <trkpt lat="43.0131" lon="0.86925">
        <ele>582</ele>
        <time>2021-03-13T13:14:54Z</time>
      </trkpt>
      <trkpt lat="43.0131" lon="0.86923">
        <ele>583</ele>
        <time>2021-03-13T13:14:55Z</time>
      </trkpt>
      <trkpt lat="43.01311" lon="0.86922">
        <ele>583</ele>
        <time>2021-03-13T13:14:56Z</time>
      </trkpt>
      <trkpt lat="43.01311" lon="0.8692">
        <ele>583</ele>
        <time>2021-03-13T13:14:57Z</time>
      </trkpt>
      <trkpt lat="43.01312" lon="0.86918">
        <ele>583</ele>
        <time>2021-03-13T13:14:58Z</time>
      </trkpt>
      <trkpt lat="43.01312" lon="0.86916">
        <ele>583</ele>
        <time>2021-03-13T13:14:59Z</time>
      </trkpt>
      <trkpt lat="43.01313" lon="0.86914">
        <ele>585</ele>
        <time>2021-03-13T13:15:00Z</time>
      </trkpt>
      <trkpt lat="43.01314" lon="0.86912">
        <ele>585</ele>
        <time>2021-03-13T13:15:01Z</time>
      </trkpt>
      <trkpt lat="43.01314" lon="0.86911">
        <ele>585</ele>
        <time>2021-03-13T13:15:02Z</time>
      </trkpt>
      <trkpt lat="43.01314" lon="0.86909">
        <ele>585</ele>
        <time>2021-03-13T13:15:03Z</time>
      </trkpt>
      <trkpt lat="43.01315" lon="0.86907">
        <ele>585</ele>
        <time>2021-03-13T13:15:04Z</time>
      </trkpt>
      <trkpt lat="43.01315" lon="0.86905">
        <ele>587</ele>
        <time>2021-03-13T13:15:05Z</time>
      </trkpt>
      <trkpt lat="43.01316" lon="0.86903">
        <ele>587</ele>
        <time>2021-03-13T13:15:06Z</time>
      </trkpt>
      <trkpt lat="43.01316" lon="0.86901">
        <ele>587</ele>
        <time>2021-03-13T13:15:07Z</time>
      </trkpt>
      <trkpt lat="43.01317" lon="0.86899">
        <ele>587</ele>
        <time>2021-03-13T13:15:08Z</time>
      </trkpt>
      <trkpt lat="43.01317" lon="0.86897">
        <ele>587</ele>
        <time>2021-03-13T13:15:09Z</time>
      </trkpt>
      <trkpt lat="43.01318" lon="0.86895">
        <ele>588</ele>
        <time>2021-03-13T13:15:10Z</time>
      </trkpt>
      <trkpt lat="43.01319" lon="0.86893">
        <ele>588</ele>
        <time>2021-03-13T13:15:11Z</time>
      </trkpt>
      <trkpt lat="43.01319" lon="0.86891">
        <ele>588</ele>
        <time>2021-03-13T13:15:12Z</time>
      </trkpt>
      <trkpt lat="43.0132" lon="0.86889">
        <ele>588</ele>
        <time>2021-03-13T13:15:13Z</time>
      </trkpt>
      <trkpt lat="43.01321" lon="0.86887">
        <ele>588</ele>
        <time>2021-03-13T13:15:14Z</time>
      </trkpt>
      <trkpt lat="43.01322" lon="0.86885">
        <ele>589</ele>
        <time>2021-03-13T13:15:15Z</time>
      </trkpt>
      <trkpt lat="43.01322" lon="0.86883">
        <ele>589</ele>
        <time>2021-03-13T13:15:16Z</time>
      </trkpt>
      <trkpt lat="43.01323" lon="0.86882">
        <ele>589</ele>
        <time>2021-03-13T13:15:17Z</time>
      </trkpt>
      <trkpt lat="43.01324" lon="0.8688">
        <ele>589</ele>
        <time>2021-03-13T13:15:18Z</time>
      </trkpt>
      <trkpt lat="43.01324" lon="0.86877">
        <ele>589</ele>
        <time>2021-03-13T13:15:19Z</time>
      </trkpt>
      <trkpt lat="43.01325" lon="0.86875">
        <ele>591</ele>
        <time>2021-03-13T13:15:20Z</time>
      </trkpt>
      <trkpt lat="43.01326" lon="0.86873">
        <ele>591</ele>
        <time>2021-03-13T13:15:21Z</time>
      </trkpt>
      <trkpt lat="43.01327" lon="0.86871">
        <ele>591</ele>
        <time>2021-03-13T13:15:22Z</time>
      </trkpt>
      <trkpt lat="43.01328" lon="0.86869">
        <ele>591</ele>
        <time>2021-03-13T13:15:23Z</time>
      </trkpt>
      <trkpt lat="43.01328" lon="0.86868">
        <ele>591</ele>
        <time>2021-03-13T13:15:24Z</time>
      </trkpt>
      <trkpt lat="43.01329" lon="0.86866">
        <ele>592</ele>
        <time>2021-03-13T13:15:25Z</time>
      </trkpt>
      <trkpt lat="43.01329" lon="0.86864">
        <ele>592</ele>
        <time>2021-03-13T13:15:26Z</time>
      </trkpt>
      <trkpt lat="43.01329" lon="0.86863">
        <ele>592</ele>
        <time>2021-03-13T13:15:27Z</time>
      </trkpt>
      <trkpt lat="43.0133" lon="0.86861">
        <ele>592</ele>
        <time>2021-03-13T13:15:28Z</time>
      </trkpt>
      <trkpt lat="43.0133" lon="0.8686">
        <ele>592</ele>
        <time>2021-03-13T13:15:29Z</time>
      </trkpt>
      <trkpt lat="43.01331" lon="0.86858">
        <ele>594</ele>
        <time>2021-03-13T13:15:30Z</time>
      </trkpt>
      <trkpt lat="43.01331" lon="0.86856">
        <ele>594</ele>
        <time>2021-03-13T13:15:31Z</time>
      </trkpt>
      <trkpt lat="43.01332" lon="0.86854">
        <ele>594</ele>
        <time>2021-03-13T13:15:32Z</time>
      </trkpt>
      <trkpt lat="43.01332" lon="0.86852">
        <ele>594</ele>
        <time>2021-03-13T13:15:33Z</time>
      </trkpt>
      <trkpt lat="43.01333" lon="0.86851">
        <ele>594</ele>
        <time>2021-03-13T13:15:34Z</time>
      </trkpt>
      <trkpt lat="43.01334" lon="0.86849">
        <ele>596</ele>
        <time>2021-03-13T13:15:35Z</time>
      </trkpt>
      <trkpt lat="43.01334" lon="0.86847">
        <ele>596</ele>
        <time>2021-03-13T13:15:36Z</time>
      </trkpt>
      <trkpt lat="43.01335" lon="0.86845">
        <ele>596</ele>
        <time>2021-03-13T13:15:37Z</time>
      </trkpt>
      <trkpt lat="43.01336" lon="0.86843">
        <ele>596</ele>
        <time>2021-03-13T13:15:38Z</time>
      </trkpt>
      <trkpt lat="43.01337" lon="0.86841">
        <ele>596</ele>
        <time>2021-03-13T13:15:39Z</time>
      </trkpt>
      <trkpt lat="43.01337" lon="0.8684">
        <ele>597</ele>
        <time>2021-03-13T13:15:40Z</time>
      </trkpt>
      <trkpt lat="43.01338" lon="0.86838">
        <ele>597</ele>
        <time>2021-03-13T13:15:41Z</time>
      </trkpt>
      <trkpt lat="43.01339" lon="0.86836">
        <ele>597</ele>
        <time>2021-03-13T13:15:42Z</time>
      </trkpt>
      <trkpt lat="43.0134" lon="0.86834">
        <ele>597</ele>
        <time>2021-03-13T13:15:43Z</time>
      </trkpt>
      <trkpt lat="43.0134" lon="0.86833">
        <ele>597</ele>
        <time>2021-03-13T13:15:44Z</time>
      </trkpt>
      <trkpt lat="43.01341" lon="0.86831">
        <ele>598</ele>
        <time>2021-03-13T13:15:45Z</time>
      </trkpt>
      <trkpt lat="43.01341" lon="0.86829">
        <ele>598</ele>
        <time>2021-03-13T13:15:46Z</time>
      </trkpt>
      <trkpt lat="43.01342" lon="0.86828">
        <ele>598</ele>
        <time>2021-03-13T13:15:47Z</time>
      </trkpt>
      <trkpt lat="43.01343" lon="0.86826">
        <ele>598</ele>
        <time>2021-03-13T13:15:48Z</time>
      </trkpt>
      <trkpt lat="43.01344" lon="0.86824">
        <ele>598</ele>
        <time>2021-03-13T13:15:49Z</time>
      </trkpt>
      <trkpt lat="43.01345" lon="0.86822">
        <ele>600</ele>
        <time>2021-03-13T13:15:50Z</time>
      </trkpt>
      <trkpt lat="43.01346" lon="0.8682">
        <ele>600</ele>
        <time>2021-03-13T13:15:51Z</time>
      </trkpt>
      <trkpt lat="43.01347" lon="0.86818">
        <ele>600</ele>
        <time>2021-03-13T13:15:52Z</time>
      </trkpt>
      <trkpt lat="43.01348" lon="0.86815">
        <ele>600</ele>
        <time>2021-03-13T13:15:53Z</time>
      </trkpt>
      <trkpt lat="43.01349" lon="0.86814">
        <ele>600</ele>
        <time>2021-03-13T13:15:54Z</time>
      </trkpt>
      <trkpt lat="43.0135" lon="0.86812">
        <ele>602</ele>
        <time>2021-03-13T13:15:55Z</time>
      </trkpt>
      <trkpt lat="43.01351" lon="0.86811">
        <ele>602</ele>
        <time>2021-03-13T13:15:56Z</time>
      </trkpt>
      <trkpt lat="43.01352" lon="0.8681">
        <ele>602</ele>
        <time>2021-03-13T13:15:57Z</time>
      </trkpt>
      <trkpt lat="43.01353" lon="0.86808">
        <ele>602</ele>
        <time>2021-03-13T13:15:58Z</time>
      </trkpt>
      <trkpt lat="43.01354" lon="0.86807">
        <ele>602</ele>
        <time>2021-03-13T13:15:59Z</time>
      </trkpt>
      <trkpt lat="43.01355" lon="0.86806">
        <ele>604</ele>
        <time>2021-03-13T13:16:00Z</time>
      </trkpt>
      <trkpt lat="43.01355" lon="0.86805">
        <ele>604</ele>
        <time>2021-03-13T13:16:01Z</time>
      </trkpt>
      <trkpt lat="43.01356" lon="0.86804">
        <ele>604</ele>
        <time>2021-03-13T13:16:02Z</time>
      </trkpt>
      <trkpt lat="43.01357" lon="0.86803">
        <ele>604</ele>
        <time>2021-03-13T13:16:03Z</time>
      </trkpt>
      <trkpt lat="43.01358" lon="0.86802">
        <ele>604</ele>
        <time>2021-03-13T13:16:04Z</time>
      </trkpt>
      <trkpt lat="43.01358" lon="0.86802">
        <ele>606</ele>
        <time>2021-03-13T13:16:05Z</time>
      </trkpt>
      <trkpt lat="43.01361" lon="0.86798">
        <ele>606</ele>
        <time>2021-03-13T13:16:06Z</time>
      </trkpt>
      <trkpt lat="43.01361" lon="0.86798">
        <ele>606</ele>
        <time>2021-03-13T13:16:07Z</time>
      </trkpt>
      <trkpt lat="43.01362" lon="0.86796">
        <ele>606</ele>
        <time>2021-03-13T13:16:08Z</time>
      </trkpt>
      <trkpt lat="43.01362" lon="0.86794">
        <ele>606</ele>
        <time>2021-03-13T13:16:09Z</time>
      </trkpt>
      <trkpt lat="43.01362" lon="0.86792">
        <ele>607</ele>
        <time>2021-03-13T13:16:10Z</time>
      </trkpt>
      <trkpt lat="43.01362" lon="0.8679">
        <ele>607</ele>
        <time>2021-03-13T13:16:11Z</time>
      </trkpt>
      <trkpt lat="43.01363" lon="0.86787">
        <ele>607</ele>
        <time>2021-03-13T13:16:12Z</time>
      </trkpt>
      <trkpt lat="43.01363" lon="0.86785">
        <ele>607</ele>
        <time>2021-03-13T13:16:13Z</time>
      </trkpt>
      <trkpt lat="43.01363" lon="0.86782">
        <ele>607</ele>
        <time>2021-03-13T13:16:14Z</time>
      </trkpt>
      <trkpt lat="43.01363" lon="0.8678">
        <ele>608</ele>
        <time>2021-03-13T13:16:15Z</time>
      </trkpt>
      <trkpt lat="43.01363" lon="0.86778">
        <ele>608</ele>
        <time>2021-03-13T13:16:16Z</time>
      </trkpt>
      <trkpt lat="43.01363" lon="0.86776">
        <ele>608</ele>
        <time>2021-03-13T13:16:17Z</time>
      </trkpt>
      <trkpt lat="43.01364" lon="0.86773">
        <ele>608</ele>
        <time>2021-03-13T13:16:18Z</time>
      </trkpt>
      <trkpt lat="43.01364" lon="0.86771">
        <ele>608</ele>
        <time>2021-03-13T13:16:19Z</time>
      </trkpt>
      <trkpt lat="43.01364" lon="0.86769">
        <ele>609</ele>
        <time>2021-03-13T13:16:20Z</time>
      </trkpt>
      <trkpt lat="43.01364" lon="0.86767">
        <ele>609</ele>
        <time>2021-03-13T13:16:21Z</time>
      </trkpt>
      <trkpt lat="43.01365" lon="0.86765">
        <ele>609</ele>
        <time>2021-03-13T13:16:22Z</time>
      </trkpt>
      <trkpt lat="43.01365" lon="0.86762">
        <ele>609</ele>
        <time>2021-03-13T13:16:23Z</time>
      </trkpt>
      <trkpt lat="43.01365" lon="0.8676">
        <ele>609</ele>
        <time>2021-03-13T13:16:24Z</time>
      </trkpt>
      <trkpt lat="43.01365" lon="0.86758">
        <ele>609</ele>
        <time>2021-03-13T13:16:25Z</time>
      </trkpt>
      <trkpt lat="43.01365" lon="0.86756">
        <ele>609</ele>
        <time>2021-03-13T13:16:26Z</time>
      </trkpt>
      <trkpt lat="43.01365" lon="0.86753">
        <ele>609</ele>
        <time>2021-03-13T13:16:27Z</time>
      </trkpt>
      <trkpt lat="43.01366" lon="0.86751">
        <ele>609</ele>
        <time>2021-03-13T13:16:28Z</time>
      </trkpt>
      <trkpt lat="43.01366" lon="0.86749">
        <ele>609</ele>
        <time>2021-03-13T13:16:29Z</time>
      </trkpt>
      <trkpt lat="43.01367" lon="0.86746">
        <ele>611</ele>
        <time>2021-03-13T13:16:30Z</time>
      </trkpt>
      <trkpt lat="43.01367" lon="0.86744">
        <ele>611</ele>
        <time>2021-03-13T13:16:31Z</time>
      </trkpt>
      <trkpt lat="43.01368" lon="0.86741">
        <ele>611</ele>
        <time>2021-03-13T13:16:32Z</time>
      </trkpt>
      <trkpt lat="43.01368" lon="0.86739">
        <ele>611</ele>
        <time>2021-03-13T13:16:33Z</time>
      </trkpt>
      <trkpt lat="43.01368" lon="0.86736">
        <ele>611</ele>
        <time>2021-03-13T13:16:34Z</time>
      </trkpt>
      <trkpt lat="43.01369" lon="0.86734">
        <ele>611</ele>
        <time>2021-03-13T13:16:35Z</time>
      </trkpt>
      <trkpt lat="43.01369" lon="0.86729">
        <ele>611</ele>
        <time>2021-03-13T13:16:36Z</time>
      </trkpt>
      <trkpt lat="43.01369" lon="0.86729">
        <ele>611</ele>
        <time>2021-03-13T13:16:37Z</time>
      </trkpt>
      <trkpt lat="43.01369" lon="0.86726">
        <ele>611</ele>
        <time>2021-03-13T13:16:38Z</time>
      </trkpt>
      <trkpt lat="43.01369" lon="0.86724">
        <ele>611</ele>
        <time>2021-03-13T13:16:39Z</time>
      </trkpt>
      <trkpt lat="43.01369" lon="0.86721">
        <ele>613</ele>
        <time>2021-03-13T13:16:40Z</time>
      </trkpt>
      <trkpt lat="43.01369" lon="0.86718">
        <ele>613</ele>
        <time>2021-03-13T13:16:41Z</time>
      </trkpt>
      <trkpt lat="43.01369" lon="0.86716">
        <ele>613</ele>
        <time>2021-03-13T13:16:42Z</time>
      </trkpt>
      <trkpt lat="43.0137" lon="0.86713">
        <ele>613</ele>
        <time>2021-03-13T13:16:43Z</time>
      </trkpt>
      <trkpt lat="43.0137" lon="0.86711">
        <ele>613</ele>
        <time>2021-03-13T13:16:44Z</time>
      </trkpt>
      <trkpt lat="43.0137" lon="0.86708">
        <ele>614</ele>
        <time>2021-03-13T13:16:45Z</time>
      </trkpt>
      <trkpt lat="43.0137" lon="0.86706">
        <ele>614</ele>
        <time>2021-03-13T13:16:46Z</time>
      </trkpt>
      <trkpt lat="43.0137" lon="0.86703">
        <ele>614</ele>
        <time>2021-03-13T13:16:47Z</time>
      </trkpt>
      <trkpt lat="43.0137" lon="0.86701">
        <ele>614</ele>
        <time>2021-03-13T13:16:48Z</time>
      </trkpt>
      <trkpt lat="43.0137" lon="0.86698">
        <ele>614</ele>
        <time>2021-03-13T13:16:49Z</time>
      </trkpt>
      <trkpt lat="43.0137" lon="0.86696">
        <ele>615</ele>
        <time>2021-03-13T13:16:50Z</time>
      </trkpt>
      <trkpt lat="43.0137" lon="0.86693">
        <ele>615</ele>
        <time>2021-03-13T13:16:51Z</time>
      </trkpt>
      <trkpt lat="43.0137" lon="0.86691">
        <ele>615</ele>
        <time>2021-03-13T13:16:52Z</time>
      </trkpt>
      <trkpt lat="43.0137" lon="0.86688">
        <ele>615</ele>
        <time>2021-03-13T13:16:53Z</time>
      </trkpt>
      <trkpt lat="43.0137" lon="0.86685">
        <ele>615</ele>
        <time>2021-03-13T13:16:54Z</time>
      </trkpt>
      <trkpt lat="43.0137" lon="0.86683">
        <ele>615</ele>
        <time>2021-03-13T13:16:55Z</time>
      </trkpt>
      <trkpt lat="43.0137" lon="0.8668">
        <ele>615</ele>
        <time>2021-03-13T13:16:56Z</time>
      </trkpt>
      <trkpt lat="43.0137" lon="0.86678">
        <ele>615</ele>
        <time>2021-03-13T13:16:57Z</time>
      </trkpt>
      <trkpt lat="43.0137" lon="0.86675">
        <ele>615</ele>
        <time>2021-03-13T13:16:58Z</time>
      </trkpt>
      <trkpt lat="43.0137" lon="0.86672">
        <ele>615</ele>
        <time>2021-03-13T13:16:59Z</time>
      </trkpt>
      <trkpt lat="43.01369" lon="0.8667">
        <ele>619</ele>
        <time>2021-03-13T13:17:00Z</time>
      </trkpt>
      <trkpt lat="43.01369" lon="0.86668">
        <ele>619</ele>
        <time>2021-03-13T13:17:01Z</time>
      </trkpt>
      <trkpt lat="43.01368" lon="0.86666">
        <ele>619</ele>
        <time>2021-03-13T13:17:02Z</time>
      </trkpt>
      <trkpt lat="43.01367" lon="0.86663">
        <ele>619</ele>
        <time>2021-03-13T13:17:03Z</time>
      </trkpt>
      <trkpt lat="43.01367" lon="0.86661">
        <ele>619</ele>
        <time>2021-03-13T13:17:04Z</time>
      </trkpt>
      <trkpt lat="43.01366" lon="0.86659">
        <ele>619</ele>
        <time>2021-03-13T13:17:05Z</time>
      </trkpt>
      <trkpt lat="43.01365" lon="0.86656">
        <ele>619</ele>
        <time>2021-03-13T13:17:06Z</time>
      </trkpt>
      <trkpt lat="43.01365" lon="0.86654">
        <ele>619</ele>
        <time>2021-03-13T13:17:07Z</time>
      </trkpt>
      <trkpt lat="43.01364" lon="0.86652">
        <ele>619</ele>
        <time>2021-03-13T13:17:08Z</time>
      </trkpt>
      <trkpt lat="43.01364" lon="0.8665">
        <ele>619</ele>
        <time>2021-03-13T13:17:09Z</time>
      </trkpt>
      <trkpt lat="43.01363" lon="0.86647">
        <ele>620</ele>
        <time>2021-03-13T13:17:10Z</time>
      </trkpt>
      <trkpt lat="43.01363" lon="0.86645">
        <ele>620</ele>
        <time>2021-03-13T13:17:11Z</time>
      </trkpt>
      <trkpt lat="43.01362" lon="0.86643">
        <ele>620</ele>
        <time>2021-03-13T13:17:12Z</time>
      </trkpt>
      <trkpt lat="43.01361" lon="0.86641">
        <ele>620</ele>
        <time>2021-03-13T13:17:13Z</time>
      </trkpt>
      <trkpt lat="43.0136" lon="0.86639">
        <ele>620</ele>
        <time>2021-03-13T13:17:14Z</time>
      </trkpt>
      <trkpt lat="43.01359" lon="0.86637">
        <ele>620</ele>
        <time>2021-03-13T13:17:15Z</time>
      </trkpt>
      <trkpt lat="43.01358" lon="0.86636">
        <ele>620</ele>
        <time>2021-03-13T13:17:16Z</time>
      </trkpt>
      <trkpt lat="43.01355" lon="0.86633">
        <ele>620</ele>
        <time>2021-03-13T13:17:17Z</time>
      </trkpt>
      <trkpt lat="43.01355" lon="0.86633">
        <ele>620</ele>
        <time>2021-03-13T13:17:18Z</time>
      </trkpt>
      <trkpt lat="43.01352" lon="0.8663">
        <ele>620</ele>
        <time>2021-03-13T13:17:19Z</time>
      </trkpt>
      <trkpt lat="43.01352" lon="0.8663">
        <ele>622</ele>
        <time>2021-03-13T13:17:20Z</time>
      </trkpt>
      <trkpt lat="43.0135" lon="0.86626">
        <ele>622</ele>
        <time>2021-03-13T13:17:21Z</time>
      </trkpt>
      <trkpt lat="43.0135" lon="0.86626">
        <ele>622</ele>
        <time>2021-03-13T13:17:22Z</time>
      </trkpt>
      <trkpt lat="43.0135" lon="0.86624">
        <ele>622</ele>
        <time>2021-03-13T13:17:23Z</time>
      </trkpt>
      <trkpt lat="43.0135" lon="0.86621">
        <ele>622</ele>
        <time>2021-03-13T13:17:24Z</time>
      </trkpt>
      <trkpt lat="43.01349" lon="0.86619">
        <ele>622</ele>
        <time>2021-03-13T13:17:25Z</time>
      </trkpt>
      <trkpt lat="43.01349" lon="0.86616">
        <ele>622</ele>
        <time>2021-03-13T13:17:26Z</time>
      </trkpt>
      <trkpt lat="43.01349" lon="0.86614">
        <ele>622</ele>
        <time>2021-03-13T13:17:27Z</time>
      </trkpt>
      <trkpt lat="43.0135" lon="0.86613">
        <ele>622</ele>
        <time>2021-03-13T13:17:28Z</time>
      </trkpt>
      <trkpt lat="43.0135" lon="0.86611">
        <ele>622</ele>
        <time>2021-03-13T13:17:29Z</time>
      </trkpt>
      <trkpt lat="43.0135" lon="0.86609">
        <ele>625</ele>
        <time>2021-03-13T13:17:30Z</time>
      </trkpt>
      <trkpt lat="43.0135" lon="0.86607">
        <ele>625</ele>
        <time>2021-03-13T13:17:31Z</time>
      </trkpt>
      <trkpt lat="43.0135" lon="0.86605">
        <ele>625</ele>
        <time>2021-03-13T13:17:32Z</time>
      </trkpt>
      <trkpt lat="43.01351" lon="0.86603">
        <ele>625</ele>
        <time>2021-03-13T13:17:33Z</time>
      </trkpt>
      <trkpt lat="43.01351" lon="0.86601">
        <ele>625</ele>
        <time>2021-03-13T13:17:34Z</time>
      </trkpt>
      <trkpt lat="43.01352" lon="0.86598">
        <ele>625</ele>
        <time>2021-03-13T13:17:35Z</time>
      </trkpt>
      <trkpt lat="43.01353" lon="0.86596">
        <ele>625</ele>
        <time>2021-03-13T13:17:36Z</time>
      </trkpt>
      <trkpt lat="43.01353" lon="0.86594">
        <ele>625</ele>
        <time>2021-03-13T13:17:37Z</time>
      </trkpt>
      <trkpt lat="43.01354" lon="0.86592">
        <ele>625</ele>
        <time>2021-03-13T13:17:38Z</time>
      </trkpt>
      <trkpt lat="43.01355" lon="0.8659">
        <ele>625</ele>
        <time>2021-03-13T13:17:39Z</time>
      </trkpt>
      <trkpt lat="43.01355" lon="0.86587">
        <ele>626</ele>
        <time>2021-03-13T13:17:40Z</time>
      </trkpt>
      <trkpt lat="43.01356" lon="0.86585">
        <ele>626</ele>
        <time>2021-03-13T13:17:41Z</time>
      </trkpt>
      <trkpt lat="43.01356" lon="0.86583">
        <ele>626</ele>
        <time>2021-03-13T13:17:42Z</time>
      </trkpt>
      <trkpt lat="43.01357" lon="0.86581">
        <ele>626</ele>
        <time>2021-03-13T13:17:43Z</time>
      </trkpt>
      <trkpt lat="43.01358" lon="0.86578">
        <ele>626</ele>
        <time>2021-03-13T13:17:44Z</time>
      </trkpt>
      <trkpt lat="43.01358" lon="0.86576">
        <ele>626</ele>
        <time>2021-03-13T13:17:45Z</time>
      </trkpt>
      <trkpt lat="43.01359" lon="0.86574">
        <ele>626</ele>
        <time>2021-03-13T13:17:46Z</time>
      </trkpt>
      <trkpt lat="43.0136" lon="0.86572">
        <ele>626</ele>
        <time>2021-03-13T13:17:47Z</time>
      </trkpt>
      <trkpt lat="43.01361" lon="0.8657">
        <ele>626</ele>
        <time>2021-03-13T13:17:48Z</time>
      </trkpt>
      <trkpt lat="43.01361" lon="0.86568">
        <ele>626</ele>
        <time>2021-03-13T13:17:49Z</time>
      </trkpt>
      <trkpt lat="43.01362" lon="0.86566">
        <ele>628</ele>
        <time>2021-03-13T13:17:50Z</time>
      </trkpt>
      <trkpt lat="43.01363" lon="0.86564">
        <ele>628</ele>
        <time>2021-03-13T13:17:51Z</time>
      </trkpt>
      <trkpt lat="43.01364" lon="0.86562">
        <ele>628</ele>
        <time>2021-03-13T13:17:52Z</time>
      </trkpt>
      <trkpt lat="43.01364" lon="0.8656">
        <ele>628</ele>
        <time>2021-03-13T13:17:53Z</time>
      </trkpt>
      <trkpt lat="43.01365" lon="0.86558">
        <ele>628</ele>
        <time>2021-03-13T13:17:54Z</time>
      </trkpt>
      <trkpt lat="43.01365" lon="0.86556">
        <ele>628</ele>
        <time>2021-03-13T13:17:55Z</time>
      </trkpt>
      <trkpt lat="43.01366" lon="0.86554">
        <ele>628</ele>
        <time>2021-03-13T13:17:56Z</time>
      </trkpt>
      <trkpt lat="43.01366" lon="0.86552">
        <ele>628</ele>
        <time>2021-03-13T13:17:57Z</time>
      </trkpt>
      <trkpt lat="43.01367" lon="0.8655">
        <ele>628</ele>
        <time>2021-03-13T13:17:58Z</time>
      </trkpt>
      <trkpt lat="43.01367" lon="0.86548">
        <ele>628</ele>
        <time>2021-03-13T13:17:59Z</time>
      </trkpt>
      <trkpt lat="43.01367" lon="0.86546">
        <ele>632</ele>
        <time>2021-03-13T13:18:00Z</time>
      </trkpt>
      <trkpt lat="43.01368" lon="0.86543">
        <ele>632</ele>
        <time>2021-03-13T13:18:01Z</time>
      </trkpt>
      <trkpt lat="43.01368" lon="0.86541">
        <ele>632</ele>
        <time>2021-03-13T13:18:02Z</time>
      </trkpt>
      <trkpt lat="43.01368" lon="0.86539">
        <ele>632</ele>
        <time>2021-03-13T13:18:03Z</time>
      </trkpt>
      <trkpt lat="43.01368" lon="0.86537">
        <ele>632</ele>
        <time>2021-03-13T13:18:04Z</time>
      </trkpt>
      <trkpt lat="43.01369" lon="0.86535">
        <ele>633</ele>
        <time>2021-03-13T13:18:05Z</time>
      </trkpt>
      <trkpt lat="43.01369" lon="0.86533">
        <ele>633</ele>
        <time>2021-03-13T13:18:06Z</time>
      </trkpt>
      <trkpt lat="43.01369" lon="0.86531">
        <ele>633</ele>
        <time>2021-03-13T13:18:07Z</time>
      </trkpt>
      <trkpt lat="43.01369" lon="0.86528">
        <ele>633</ele>
        <time>2021-03-13T13:18:08Z</time>
      </trkpt>
      <trkpt lat="43.01369" lon="0.86526">
        <ele>633</ele>
        <time>2021-03-13T13:18:09Z</time>
      </trkpt>
      <trkpt lat="43.0137" lon="0.86524">
        <ele>634</ele>
        <time>2021-03-13T13:18:10Z</time>
      </trkpt>
      <trkpt lat="43.0137" lon="0.86522">
        <ele>634</ele>
        <time>2021-03-13T13:18:11Z</time>
      </trkpt>
      <trkpt lat="43.0137" lon="0.8652">
        <ele>634</ele>
        <time>2021-03-13T13:18:12Z</time>
      </trkpt>
      <trkpt lat="43.0137" lon="0.86518">
        <ele>634</ele>
        <time>2021-03-13T13:18:13Z</time>
      </trkpt>
      <trkpt lat="43.0137" lon="0.86516">
        <ele>634</ele>
        <time>2021-03-13T13:18:14Z</time>
      </trkpt>
      <trkpt lat="43.0137" lon="0.86514">
        <ele>634</ele>
        <time>2021-03-13T13:18:15Z</time>
      </trkpt>
      <trkpt lat="43.0137" lon="0.86512">
        <ele>634</ele>
        <time>2021-03-13T13:18:16Z</time>
      </trkpt>
      <trkpt lat="43.01371" lon="0.8651">
        <ele>634</ele>
        <time>2021-03-13T13:18:17Z</time>
      </trkpt>
      <trkpt lat="43.01371" lon="0.86508">
        <ele>634</ele>
        <time>2021-03-13T13:18:18Z</time>
      </trkpt>
      <trkpt lat="43.01371" lon="0.86506">
        <ele>634</ele>
        <time>2021-03-13T13:18:19Z</time>
      </trkpt>
      <trkpt lat="43.01372" lon="0.86504">
        <ele>636</ele>
        <time>2021-03-13T13:18:20Z</time>
      </trkpt>
      <trkpt lat="43.01372" lon="0.86502">
        <ele>636</ele>
        <time>2021-03-13T13:18:21Z</time>
      </trkpt>
      <trkpt lat="43.01372" lon="0.865">
        <ele>636</ele>
        <time>2021-03-13T13:18:22Z</time>
      </trkpt>
      <trkpt lat="43.01372" lon="0.86499">
        <ele>636</ele>
        <time>2021-03-13T13:18:23Z</time>
      </trkpt>
      <trkpt lat="43.01372" lon="0.86497">
        <ele>636</ele>
        <time>2021-03-13T13:18:24Z</time>
      </trkpt>
      <trkpt lat="43.01372" lon="0.86495">
        <ele>636</ele>
        <time>2021-03-13T13:18:25Z</time>
      </trkpt>
      <trkpt lat="43.01372" lon="0.86493">
        <ele>636</ele>
        <time>2021-03-13T13:18:26Z</time>
      </trkpt>
      <trkpt lat="43.01372" lon="0.86491">
        <ele>636</ele>
        <time>2021-03-13T13:18:27Z</time>
      </trkpt>
      <trkpt lat="43.01373" lon="0.86489">
        <ele>636</ele>
        <time>2021-03-13T13:18:28Z</time>
      </trkpt>
      <trkpt lat="43.01373" lon="0.86487">
        <ele>636</ele>
        <time>2021-03-13T13:18:29Z</time>
      </trkpt>
      <trkpt lat="43.01373" lon="0.86485">
        <ele>639</ele>
        <time>2021-03-13T13:18:30Z</time>
      </trkpt>
      <trkpt lat="43.01374" lon="0.86483">
        <ele>639</ele>
        <time>2021-03-13T13:18:31Z</time>
      </trkpt>
      <trkpt lat="43.01374" lon="0.86481">
        <ele>639</ele>
        <time>2021-03-13T13:18:32Z</time>
      </trkpt>
      <trkpt lat="43.01374" lon="0.8648">
        <ele>639</ele>
        <time>2021-03-13T13:18:33Z</time>
      </trkpt>
      <trkpt lat="43.01374" lon="0.86478">
        <ele>639</ele>
        <time>2021-03-13T13:18:34Z</time>
      </trkpt>
      <trkpt lat="43.01374" lon="0.86476">
        <ele>640</ele>
        <time>2021-03-13T13:18:35Z</time>
      </trkpt>
      <trkpt lat="43.01374" lon="0.86473">
        <ele>640</ele>
        <time>2021-03-13T13:18:36Z</time>
      </trkpt>
      <trkpt lat="43.01374" lon="0.86471">
        <ele>640</ele>
        <time>2021-03-13T13:18:37Z</time>
      </trkpt>
      <trkpt lat="43.01374" lon="0.86469">
        <ele>640</ele>
        <time>2021-03-13T13:18:38Z</time>
      </trkpt>
      <trkpt lat="43.01374" lon="0.86467">
        <ele>640</ele>
        <time>2021-03-13T13:18:39Z</time>
      </trkpt>
      <trkpt lat="43.01373" lon="0.86465">
        <ele>642</ele>
        <time>2021-03-13T13:18:40Z</time>
      </trkpt>
      <trkpt lat="43.01374" lon="0.86463">
        <ele>642</ele>
        <time>2021-03-13T13:18:41Z</time>
      </trkpt>
      <trkpt lat="43.01374" lon="0.86461">
        <ele>642</ele>
        <time>2021-03-13T13:18:42Z</time>
      </trkpt>
      <trkpt lat="43.01374" lon="0.86459">
        <ele>642</ele>
        <time>2021-03-13T13:18:43Z</time>
      </trkpt>
      <trkpt lat="43.01375" lon="0.86457">
        <ele>642</ele>
        <time>2021-03-13T13:18:44Z</time>
      </trkpt>
      <trkpt lat="43.01375" lon="0.86455">
        <ele>643</ele>
        <time>2021-03-13T13:18:45Z</time>
      </trkpt>
      <trkpt lat="43.01375" lon="0.86453">
        <ele>643</ele>
        <time>2021-03-13T13:18:46Z</time>
      </trkpt>
      <trkpt lat="43.01376" lon="0.86451">
        <ele>643</ele>
        <time>2021-03-13T13:18:47Z</time>
      </trkpt>
      <trkpt lat="43.01376" lon="0.86449">
        <ele>643</ele>
        <time>2021-03-13T13:18:48Z</time>
      </trkpt>
      <trkpt lat="43.01376" lon="0.86447">
        <ele>643</ele>
        <time>2021-03-13T13:18:49Z</time>
      </trkpt>
      <trkpt lat="43.01376" lon="0.86445">
        <ele>645</ele>
        <time>2021-03-13T13:18:50Z</time>
      </trkpt>
      <trkpt lat="43.01376" lon="0.86444">
        <ele>645</ele>
        <time>2021-03-13T13:18:51Z</time>
      </trkpt>
      <trkpt lat="43.01376" lon="0.86442">
        <ele>645</ele>
        <time>2021-03-13T13:18:52Z</time>
      </trkpt>
      <trkpt lat="43.01377" lon="0.8644">
        <ele>645</ele>
        <time>2021-03-13T13:18:53Z</time>
      </trkpt>
      <trkpt lat="43.01377" lon="0.86438">
        <ele>645</ele>
        <time>2021-03-13T13:18:54Z</time>
      </trkpt>
      <trkpt lat="43.01377" lon="0.86437">
        <ele>647</ele>
        <time>2021-03-13T13:18:55Z</time>
      </trkpt>
      <trkpt lat="43.01377" lon="0.86435">
        <ele>647</ele>
        <time>2021-03-13T13:18:56Z</time>
      </trkpt>
      <trkpt lat="43.01376" lon="0.86433">
        <ele>647</ele>
        <time>2021-03-13T13:18:57Z</time>
      </trkpt>
      <trkpt lat="43.01376" lon="0.86431">
        <ele>647</ele>
        <time>2021-03-13T13:18:58Z</time>
      </trkpt>
      <trkpt lat="43.01375" lon="0.86429">
        <ele>647</ele>
        <time>2021-03-13T13:18:59Z</time>
      </trkpt>
      <trkpt lat="43.01375" lon="0.86427">
        <ele>648</ele>
        <time>2021-03-13T13:19:00Z</time>
      </trkpt>
      <trkpt lat="43.01374" lon="0.86424">
        <ele>648</ele>
        <time>2021-03-13T13:19:01Z</time>
      </trkpt>
      <trkpt lat="43.01374" lon="0.86422">
        <ele>648</ele>
        <time>2021-03-13T13:19:02Z</time>
      </trkpt>
      <trkpt lat="43.01374" lon="0.8642">
        <ele>648</ele>
        <time>2021-03-13T13:19:03Z</time>
      </trkpt>
      <trkpt lat="43.01374" lon="0.86419">
        <ele>648</ele>
        <time>2021-03-13T13:19:04Z</time>
      </trkpt>
      <trkpt lat="43.01374" lon="0.86417">
        <ele>650</ele>
        <time>2021-03-13T13:19:05Z</time>
      </trkpt>
      <trkpt lat="43.01374" lon="0.86415">
        <ele>650</ele>
        <time>2021-03-13T13:19:06Z</time>
      </trkpt>
      <trkpt lat="43.01374" lon="0.86413">
        <ele>650</ele>
        <time>2021-03-13T13:19:07Z</time>
      </trkpt>
      <trkpt lat="43.01374" lon="0.86411">
        <ele>650</ele>
        <time>2021-03-13T13:19:08Z</time>
      </trkpt>
      <trkpt lat="43.01374" lon="0.86408">
        <ele>650</ele>
        <time>2021-03-13T13:19:09Z</time>
      </trkpt>
      <trkpt lat="43.01375" lon="0.86406">
        <ele>651</ele>
        <time>2021-03-13T13:19:10Z</time>
      </trkpt>
      <trkpt lat="43.01375" lon="0.86404">
        <ele>651</ele>
        <time>2021-03-13T13:19:11Z</time>
      </trkpt>
      <trkpt lat="43.01375" lon="0.86402">
        <ele>651</ele>
        <time>2021-03-13T13:19:12Z</time>
      </trkpt>
      <trkpt lat="43.01376" lon="0.86399">
        <ele>651</ele>
        <time>2021-03-13T13:19:13Z</time>
      </trkpt>
      <trkpt lat="43.01376" lon="0.86397">
        <ele>651</ele>
        <time>2021-03-13T13:19:14Z</time>
      </trkpt>
      <trkpt lat="43.01376" lon="0.86395">
        <ele>652</ele>
        <time>2021-03-13T13:19:15Z</time>
      </trkpt>
      <trkpt lat="43.01376" lon="0.86393">
        <ele>652</ele>
        <time>2021-03-13T13:19:16Z</time>
      </trkpt>
      <trkpt lat="43.01376" lon="0.86391">
        <ele>652</ele>
        <time>2021-03-13T13:19:17Z</time>
      </trkpt>
      <trkpt lat="43.01376" lon="0.86389">
        <ele>652</ele>
        <time>2021-03-13T13:19:18Z</time>
      </trkpt>
      <trkpt lat="43.01376" lon="0.86387">
        <ele>652</ele>
        <time>2021-03-13T13:19:19Z</time>
      </trkpt>
      <trkpt lat="43.01376" lon="0.86385">
        <ele>654</ele>
        <time>2021-03-13T13:19:20Z</time>
      </trkpt>
      <trkpt lat="43.01376" lon="0.86383">
        <ele>654</ele>
        <time>2021-03-13T13:19:21Z</time>
      </trkpt>
      <trkpt lat="43.01376" lon="0.86381">
        <ele>654</ele>
        <time>2021-03-13T13:19:22Z</time>
      </trkpt>
      <trkpt lat="43.01376" lon="0.86379">
        <ele>654</ele>
        <time>2021-03-13T13:19:23Z</time>
      </trkpt>
      <trkpt lat="43.01375" lon="0.86377">
        <ele>654</ele>
        <time>2021-03-13T13:19:24Z</time>
      </trkpt>
      <trkpt lat="43.01375" lon="0.86376">
        <ele>656</ele>
        <time>2021-03-13T13:19:25Z</time>
      </trkpt>
      <trkpt lat="43.01375" lon="0.86375">
        <ele>656</ele>
        <time>2021-03-13T13:19:26Z</time>
      </trkpt>
      <trkpt lat="43.01375" lon="0.86373">
        <ele>656</ele>
        <time>2021-03-13T13:19:27Z</time>
      </trkpt>
      <trkpt lat="43.01375" lon="0.86372">
        <ele>656</ele>
        <time>2021-03-13T13:19:28Z</time>
      </trkpt>
      <trkpt lat="43.01375" lon="0.8637">
        <ele>656</ele>
        <time>2021-03-13T13:19:29Z</time>
      </trkpt>
      <trkpt lat="43.01375" lon="0.86369">
        <ele>657</ele>
        <time>2021-03-13T13:19:30Z</time>
      </trkpt>
      <trkpt lat="43.01374" lon="0.86367">
        <ele>657</ele>
        <time>2021-03-13T13:19:31Z</time>
      </trkpt>
      <trkpt lat="43.01374" lon="0.86365">
        <ele>657</ele>
        <time>2021-03-13T13:19:32Z</time>
      </trkpt>
      <trkpt lat="43.01374" lon="0.86363">
        <ele>657</ele>
        <time>2021-03-13T13:19:33Z</time>
      </trkpt>
      <trkpt lat="43.01373" lon="0.86362">
        <ele>657</ele>
        <time>2021-03-13T13:19:34Z</time>
      </trkpt>
      <trkpt lat="43.01373" lon="0.8636">
        <ele>658</ele>
        <time>2021-03-13T13:19:35Z</time>
      </trkpt>
      <trkpt lat="43.01373" lon="0.86358">
        <ele>658</ele>
        <time>2021-03-13T13:19:36Z</time>
      </trkpt>
      <trkpt lat="43.01373" lon="0.86356">
        <ele>658</ele>
        <time>2021-03-13T13:19:37Z</time>
      </trkpt>
      <trkpt lat="43.01373" lon="0.86355">
        <ele>658</ele>
        <time>2021-03-13T13:19:38Z</time>
      </trkpt>
      <trkpt lat="43.01373" lon="0.86353">
        <ele>658</ele>
        <time>2021-03-13T13:19:39Z</time>
      </trkpt>
      <trkpt lat="43.01372" lon="0.86351">
        <ele>660</ele>
        <time>2021-03-13T13:19:40Z</time>
      </trkpt>
      <trkpt lat="43.01372" lon="0.86349">
        <ele>660</ele>
        <time>2021-03-13T13:19:41Z</time>
      </trkpt>
      <trkpt lat="43.01372" lon="0.86347">
        <ele>660</ele>
        <time>2021-03-13T13:19:42Z</time>
      </trkpt>
      <trkpt lat="43.01372" lon="0.86345">
        <ele>660</ele>
        <time>2021-03-13T13:19:43Z</time>
      </trkpt>
      <trkpt lat="43.01372" lon="0.86344">
        <ele>660</ele>
        <time>2021-03-13T13:19:44Z</time>
      </trkpt>
      <trkpt lat="43.01372" lon="0.86342">
        <ele>661</ele>
        <time>2021-03-13T13:19:45Z</time>
      </trkpt>
      <trkpt lat="43.01371" lon="0.86341">
        <ele>661</ele>
        <time>2021-03-13T13:19:46Z</time>
      </trkpt>
      <trkpt lat="43.01371" lon="0.86339">
        <ele>661</ele>
        <time>2021-03-13T13:19:47Z</time>
      </trkpt>
      <trkpt lat="43.01371" lon="0.86337">
        <ele>661</ele>
        <time>2021-03-13T13:19:48Z</time>
      </trkpt>
      <trkpt lat="43.01371" lon="0.86336">
        <ele>661</ele>
        <time>2021-03-13T13:19:49Z</time>
      </trkpt>
      <trkpt lat="43.01371" lon="0.86334">
        <ele>663</ele>
        <time>2021-03-13T13:19:50Z</time>
      </trkpt>
      <trkpt lat="43.01371" lon="0.86332">
        <ele>663</ele>
        <time>2021-03-13T13:19:51Z</time>
      </trkpt>
      <trkpt lat="43.01372" lon="0.8633">
        <ele>663</ele>
        <time>2021-03-13T13:19:52Z</time>
      </trkpt>
      <trkpt lat="43.01372" lon="0.86328">
        <ele>663</ele>
        <time>2021-03-13T13:19:53Z</time>
      </trkpt>
      <trkpt lat="43.01373" lon="0.86327">
        <ele>663</ele>
        <time>2021-03-13T13:19:54Z</time>
      </trkpt>
      <trkpt lat="43.01373" lon="0.86325">
        <ele>664</ele>
        <time>2021-03-13T13:19:55Z</time>
      </trkpt>
      <trkpt lat="43.01373" lon="0.86323">
        <ele>664</ele>
        <time>2021-03-13T13:19:56Z</time>
      </trkpt>
      <trkpt lat="43.01373" lon="0.86321">
        <ele>664</ele>
        <time>2021-03-13T13:19:57Z</time>
      </trkpt>
      <trkpt lat="43.01373" lon="0.8632">
        <ele>664</ele>
        <time>2021-03-13T13:19:58Z</time>
      </trkpt>
      <trkpt lat="43.01374" lon="0.86318">
        <ele>664</ele>
        <time>2021-03-13T13:19:59Z</time>
      </trkpt>
      <trkpt lat="43.01374" lon="0.86317">
        <ele>665</ele>
        <time>2021-03-13T13:20:00Z</time>
      </trkpt>
      <trkpt lat="43.01374" lon="0.86315">
        <ele>665</ele>
        <time>2021-03-13T13:20:01Z</time>
      </trkpt>
      <trkpt lat="43.01374" lon="0.86314">
        <ele>665</ele>
        <time>2021-03-13T13:20:02Z</time>
      </trkpt>
      <trkpt lat="43.01374" lon="0.86312">
        <ele>665</ele>
        <time>2021-03-13T13:20:03Z</time>
      </trkpt>
      <trkpt lat="43.01374" lon="0.86311">
        <ele>665</ele>
        <time>2021-03-13T13:20:04Z</time>
      </trkpt>
      <trkpt lat="43.01374" lon="0.86309">
        <ele>665</ele>
        <time>2021-03-13T13:20:05Z</time>
      </trkpt>
      <trkpt lat="43.01375" lon="0.86308">
        <ele>665</ele>
        <time>2021-03-13T13:20:06Z</time>
      </trkpt>
      <trkpt lat="43.01376" lon="0.86306">
        <ele>665</ele>
        <time>2021-03-13T13:20:07Z</time>
      </trkpt>
      <trkpt lat="43.01377" lon="0.86304">
        <ele>665</ele>
        <time>2021-03-13T13:20:08Z</time>
      </trkpt>
      <trkpt lat="43.01378" lon="0.86303">
        <ele>665</ele>
        <time>2021-03-13T13:20:09Z</time>
      </trkpt>
      <trkpt lat="43.01379" lon="0.86301">
        <ele>666</ele>
        <time>2021-03-13T13:20:10Z</time>
      </trkpt>
      <trkpt lat="43.01379" lon="0.86299">
        <ele>666</ele>
        <time>2021-03-13T13:20:11Z</time>
      </trkpt>
      <trkpt lat="43.0138" lon="0.86298">
        <ele>666</ele>
        <time>2021-03-13T13:20:12Z</time>
      </trkpt>
      <trkpt lat="43.01381" lon="0.86296">
        <ele>666</ele>
        <time>2021-03-13T13:20:13Z</time>
      </trkpt>
      <trkpt lat="43.01382" lon="0.86294">
        <ele>666</ele>
        <time>2021-03-13T13:20:14Z</time>
      </trkpt>
      <trkpt lat="43.01382" lon="0.86293">
        <ele>666</ele>
        <time>2021-03-13T13:20:15Z</time>
      </trkpt>
      <trkpt lat="43.01383" lon="0.86291">
        <ele>666</ele>
        <time>2021-03-13T13:20:16Z</time>
      </trkpt>
      <trkpt lat="43.01383" lon="0.86289">
        <ele>666</ele>
        <time>2021-03-13T13:20:17Z</time>
      </trkpt>
      <trkpt lat="43.01384" lon="0.86288">
        <ele>666</ele>
        <time>2021-03-13T13:20:18Z</time>
      </trkpt>
      <trkpt lat="43.01384" lon="0.86286">
        <ele>666</ele>
        <time>2021-03-13T13:20:19Z</time>
      </trkpt>
      <trkpt lat="43.01386" lon="0.86285">
        <ele>668</ele>
        <time>2021-03-13T13:20:20Z</time>
      </trkpt>
      <trkpt lat="43.01387" lon="0.86284">
        <ele>668</ele>
        <time>2021-03-13T13:20:21Z</time>
      </trkpt>
      <trkpt lat="43.01389" lon="0.86283">
        <ele>668</ele>
        <time>2021-03-13T13:20:22Z</time>
      </trkpt>
      <trkpt lat="43.0139" lon="0.86282">
        <ele>668</ele>
        <time>2021-03-13T13:20:23Z</time>
      </trkpt>
      <trkpt lat="43.01392" lon="0.86281">
        <ele>668</ele>
        <time>2021-03-13T13:20:24Z</time>
      </trkpt>
      <trkpt lat="43.01393" lon="0.8628">
        <ele>668</ele>
        <time>2021-03-13T13:20:25Z</time>
      </trkpt>
      <trkpt lat="43.01394" lon="0.8628">
        <ele>668</ele>
        <time>2021-03-13T13:20:26Z</time>
      </trkpt>
      <trkpt lat="43.01396" lon="0.8628">
        <ele>668</ele>
        <time>2021-03-13T13:20:27Z</time>
      </trkpt>
      <trkpt lat="43.01397" lon="0.8628">
        <ele>668</ele>
        <time>2021-03-13T13:20:28Z</time>
      </trkpt>
      <trkpt lat="43.01398" lon="0.8628">
        <ele>668</ele>
        <time>2021-03-13T13:20:29Z</time>
      </trkpt>
      <trkpt lat="43.01399" lon="0.8628">
        <ele>670</ele>
        <time>2021-03-13T13:20:30Z</time>
      </trkpt>
      <trkpt lat="43.01401" lon="0.8628">
        <ele>670</ele>
        <time>2021-03-13T13:20:31Z</time>
      </trkpt>
      <trkpt lat="43.01402" lon="0.8628">
        <ele>670</ele>
        <time>2021-03-13T13:20:32Z</time>
      </trkpt>
      <trkpt lat="43.01403" lon="0.8628">
        <ele>670</ele>
        <time>2021-03-13T13:20:33Z</time>
      </trkpt>
      <trkpt lat="43.01405" lon="0.8628">
        <ele>670</ele>
        <time>2021-03-13T13:20:34Z</time>
      </trkpt>
      <trkpt lat="43.01406" lon="0.8628">
        <ele>670</ele>
        <time>2021-03-13T13:20:35Z</time>
      </trkpt>
      <trkpt lat="43.01407" lon="0.8628">
        <ele>670</ele>
        <time>2021-03-13T13:20:36Z</time>
      </trkpt>
      <trkpt lat="43.01408" lon="0.8628">
        <ele>670</ele>
        <time>2021-03-13T13:20:37Z</time>
      </trkpt>
      <trkpt lat="43.01409" lon="0.8628">
        <ele>670</ele>
        <time>2021-03-13T13:20:38Z</time>
      </trkpt>
      <trkpt lat="43.0141" lon="0.8628">
        <ele>670</ele>
        <time>2021-03-13T13:20:39Z</time>
      </trkpt>
      <trkpt lat="43.01412" lon="0.8628">
        <ele>673</ele>
        <time>2021-03-13T13:20:40Z</time>
      </trkpt>
      <trkpt lat="43.01413" lon="0.8628">
        <ele>673</ele>
        <time>2021-03-13T13:20:41Z</time>
      </trkpt>
      <trkpt lat="43.01415" lon="0.8628">
        <ele>673</ele>
        <time>2021-03-13T13:20:42Z</time>
      </trkpt>
      <trkpt lat="43.01417" lon="0.8628">
        <ele>673</ele>
        <time>2021-03-13T13:20:43Z</time>
      </trkpt>
      <trkpt lat="43.01419" lon="0.8628">
        <ele>673</ele>
        <time>2021-03-13T13:20:44Z</time>
      </trkpt>
      <trkpt lat="43.01421" lon="0.86279">
        <ele>674</ele>
        <time>2021-03-13T13:20:45Z</time>
      </trkpt>
      <trkpt lat="43.01423" lon="0.86279">
        <ele>674</ele>
        <time>2021-03-13T13:20:46Z</time>
      </trkpt>
      <trkpt lat="43.01425" lon="0.86279">
        <ele>674</ele>
        <time>2021-03-13T13:20:47Z</time>
      </trkpt>
      <trkpt lat="43.01427" lon="0.86278">
        <ele>674</ele>
        <time>2021-03-13T13:20:48Z</time>
      </trkpt>
      <trkpt lat="43.01429" lon="0.86278">
        <ele>674</ele>
        <time>2021-03-13T13:20:49Z</time>
      </trkpt>
      <trkpt lat="43.01431" lon="0.86277">
        <ele>675</ele>
        <time>2021-03-13T13:20:50Z</time>
      </trkpt>
      <trkpt lat="43.01432" lon="0.86276">
        <ele>675</ele>
        <time>2021-03-13T13:20:51Z</time>
      </trkpt>
      <trkpt lat="43.01434" lon="0.86275">
        <ele>675</ele>
        <time>2021-03-13T13:20:52Z</time>
      </trkpt>
      <trkpt lat="43.01436" lon="0.86276">
        <ele>675</ele>
        <time>2021-03-13T13:20:53Z</time>
      </trkpt>
      <trkpt lat="43.01437" lon="0.86276">
        <ele>675</ele>
        <time>2021-03-13T13:20:54Z</time>
      </trkpt>
      <trkpt lat="43.01439" lon="0.86277">
        <ele>675</ele>
        <time>2021-03-13T13:20:55Z</time>
      </trkpt>
      <trkpt lat="43.0144" lon="0.86277">
        <ele>675</ele>
        <time>2021-03-13T13:20:56Z</time>
      </trkpt>
      <trkpt lat="43.01442" lon="0.86277">
        <ele>675</ele>
        <time>2021-03-13T13:20:57Z</time>
      </trkpt>
      <trkpt lat="43.01443" lon="0.86278">
        <ele>675</ele>
        <time>2021-03-13T13:20:58Z</time>
      </trkpt>
      <trkpt lat="43.01445" lon="0.86278">
        <ele>675</ele>
        <time>2021-03-13T13:20:59Z</time>
      </trkpt>
      <trkpt lat="43.01447" lon="0.86278">
        <ele>675</ele>
        <time>2021-03-13T13:21:00Z</time>
      </trkpt>
      <trkpt lat="43.0145" lon="0.86278">
        <ele>675</ele>
        <time>2021-03-13T13:21:01Z</time>
      </trkpt>
      <trkpt lat="43.01452" lon="0.86278">
        <ele>675</ele>
        <time>2021-03-13T13:21:02Z</time>
      </trkpt>
      <trkpt lat="43.01454" lon="0.86278">
        <ele>675</ele>
        <time>2021-03-13T13:21:03Z</time>
      </trkpt>
      <trkpt lat="43.01457" lon="0.86277">
        <ele>675</ele>
        <time>2021-03-13T13:21:04Z</time>
      </trkpt>
      <trkpt lat="43.01459" lon="0.86276">
        <ele>675</ele>
        <time>2021-03-13T13:21:05Z</time>
      </trkpt>
      <trkpt lat="43.01461" lon="0.86275">
        <ele>675</ele>
        <time>2021-03-13T13:21:06Z</time>
      </trkpt>
      <trkpt lat="43.01463" lon="0.86274">
        <ele>675</ele>
        <time>2021-03-13T13:21:07Z</time>
      </trkpt>
      <trkpt lat="43.01465" lon="0.86272">
        <ele>675</ele>
        <time>2021-03-13T13:21:08Z</time>
      </trkpt>
      <trkpt lat="43.01466" lon="0.86271">
        <ele>675</ele>
        <time>2021-03-13T13:21:09Z</time>
      </trkpt>
      <trkpt lat="43.01468" lon="0.8627">
        <ele>677</ele>
        <time>2021-03-13T13:21:10Z</time>
      </trkpt>
      <trkpt lat="43.01469" lon="0.86269">
        <ele>677</ele>
        <time>2021-03-13T13:21:11Z</time>
      </trkpt>
      <trkpt lat="43.01471" lon="0.86267">
        <ele>677</ele>
        <time>2021-03-13T13:21:12Z</time>
      </trkpt>
      <trkpt lat="43.01472" lon="0.86266">
        <ele>677</ele>
        <time>2021-03-13T13:21:13Z</time>
      </trkpt>
      <trkpt lat="43.01474" lon="0.86265">
        <ele>677</ele>
        <time>2021-03-13T13:21:14Z</time>
      </trkpt>
      <trkpt lat="43.01475" lon="0.86263">
        <ele>677</ele>
        <time>2021-03-13T13:21:15Z</time>
      </trkpt>
      <trkpt lat="43.01477" lon="0.86262">
        <ele>677</ele>
        <time>2021-03-13T13:21:16Z</time>
      </trkpt>
      <trkpt lat="43.01478" lon="0.86261">
        <ele>677</ele>
        <time>2021-03-13T13:21:17Z</time>
      </trkpt>
      <trkpt lat="43.0148" lon="0.86259">
        <ele>677</ele>
        <time>2021-03-13T13:21:18Z</time>
      </trkpt>
      <trkpt lat="43.01481" lon="0.86258">
        <ele>677</ele>
        <time>2021-03-13T13:21:19Z</time>
      </trkpt>
      <trkpt lat="43.01482" lon="0.86256">
        <ele>678</ele>
        <time>2021-03-13T13:21:20Z</time>
      </trkpt>
      <trkpt lat="43.01484" lon="0.86254">
        <ele>678</ele>
        <time>2021-03-13T13:21:21Z</time>
      </trkpt>
      <trkpt lat="43.01485" lon="0.86252">
        <ele>678</ele>
        <time>2021-03-13T13:21:22Z</time>
      </trkpt>
      <trkpt lat="43.01486" lon="0.8625">
        <ele>678</ele>
        <time>2021-03-13T13:21:23Z</time>
      </trkpt>
      <trkpt lat="43.01487" lon="0.86248">
        <ele>678</ele>
        <time>2021-03-13T13:21:24Z</time>
      </trkpt>
      <trkpt lat="43.01488" lon="0.86246">
        <ele>678</ele>
        <time>2021-03-13T13:21:25Z</time>
      </trkpt>
      <trkpt lat="43.01489" lon="0.86244">
        <ele>678</ele>
        <time>2021-03-13T13:21:26Z</time>
      </trkpt>
      <trkpt lat="43.0149" lon="0.86242">
        <ele>678</ele>
        <time>2021-03-13T13:21:27Z</time>
      </trkpt>
      <trkpt lat="43.01491" lon="0.8624">
        <ele>678</ele>
        <time>2021-03-13T13:21:28Z</time>
      </trkpt>
      <trkpt lat="43.01492" lon="0.86239">
        <ele>678</ele>
        <time>2021-03-13T13:21:29Z</time>
      </trkpt>
      <trkpt lat="43.01493" lon="0.86237">
        <ele>681</ele>
        <time>2021-03-13T13:21:30Z</time>
      </trkpt>
      <trkpt lat="43.01494" lon="0.86235">
        <ele>681</ele>
        <time>2021-03-13T13:21:31Z</time>
      </trkpt>
      <trkpt lat="43.01495" lon="0.86234">
        <ele>681</ele>
        <time>2021-03-13T13:21:32Z</time>
      </trkpt>
      <trkpt lat="43.01496" lon="0.86232">
        <ele>681</ele>
        <time>2021-03-13T13:21:33Z</time>
      </trkpt>
      <trkpt lat="43.01496" lon="0.86231">
        <ele>681</ele>
        <time>2021-03-13T13:21:34Z</time>
      </trkpt>
      <trkpt lat="43.01497" lon="0.86229">
        <ele>683</ele>
        <time>2021-03-13T13:21:35Z</time>
      </trkpt>
      <trkpt lat="43.01498" lon="0.86227">
        <ele>683</ele>
        <time>2021-03-13T13:21:36Z</time>
      </trkpt>
      <trkpt lat="43.01499" lon="0.86226">
        <ele>683</ele>
        <time>2021-03-13T13:21:37Z</time>
      </trkpt>
      <trkpt lat="43.01499" lon="0.86224">
        <ele>683</ele>
        <time>2021-03-13T13:21:38Z</time>
      </trkpt>
      <trkpt lat="43.015" lon="0.86223">
        <ele>683</ele>
        <time>2021-03-13T13:21:39Z</time>
      </trkpt>
      <trkpt lat="43.01501" lon="0.86221">
        <ele>684</ele>
        <time>2021-03-13T13:21:40Z</time>
      </trkpt>
      <trkpt lat="43.01502" lon="0.86219">
        <ele>684</ele>
        <time>2021-03-13T13:21:41Z</time>
      </trkpt>
      <trkpt lat="43.01503" lon="0.86217">
        <ele>684</ele>
        <time>2021-03-13T13:21:42Z</time>
      </trkpt>
      <trkpt lat="43.01504" lon="0.86215">
        <ele>684</ele>
        <time>2021-03-13T13:21:43Z</time>
      </trkpt>
      <trkpt lat="43.01505" lon="0.86212">
        <ele>684</ele>
        <time>2021-03-13T13:21:44Z</time>
      </trkpt>
      <trkpt lat="43.01506" lon="0.8621">
        <ele>685</ele>
        <time>2021-03-13T13:21:45Z</time>
      </trkpt>
      <trkpt lat="43.01508" lon="0.86208">
        <ele>685</ele>
        <time>2021-03-13T13:21:46Z</time>
      </trkpt>
      <trkpt lat="43.01509" lon="0.86207">
        <ele>685</ele>
        <time>2021-03-13T13:21:47Z</time>
      </trkpt>
      <trkpt lat="43.0151" lon="0.86205">
        <ele>685</ele>
        <time>2021-03-13T13:21:48Z</time>
      </trkpt>
      <trkpt lat="43.01512" lon="0.86203">
        <ele>685</ele>
        <time>2021-03-13T13:21:49Z</time>
      </trkpt>
      <trkpt lat="43.01513" lon="0.86201">
        <ele>685</ele>
        <time>2021-03-13T13:21:50Z</time>
      </trkpt>
      <trkpt lat="43.01514" lon="0.862">
        <ele>685</ele>
        <time>2021-03-13T13:21:51Z</time>
      </trkpt>
      <trkpt lat="43.01515" lon="0.86198">
        <ele>685</ele>
        <time>2021-03-13T13:21:52Z</time>
      </trkpt>
      <trkpt lat="43.01515" lon="0.86197">
        <ele>685</ele>
        <time>2021-03-13T13:21:53Z</time>
      </trkpt>
      <trkpt lat="43.01516" lon="0.86195">
        <ele>685</ele>
        <time>2021-03-13T13:21:54Z</time>
      </trkpt>
      <trkpt lat="43.01517" lon="0.86194">
        <ele>685</ele>
        <time>2021-03-13T13:21:55Z</time>
      </trkpt>
      <trkpt lat="43.01518" lon="0.86192">
        <ele>685</ele>
        <time>2021-03-13T13:21:56Z</time>
      </trkpt>
      <trkpt lat="43.01518" lon="0.8619">
        <ele>685</ele>
        <time>2021-03-13T13:21:57Z</time>
      </trkpt>
      <trkpt lat="43.01519" lon="0.86189">
        <ele>685</ele>
        <time>2021-03-13T13:21:58Z</time>
      </trkpt>
      <trkpt lat="43.0152" lon="0.86187">
        <ele>685</ele>
        <time>2021-03-13T13:21:59Z</time>
      </trkpt>
      <trkpt lat="43.01522" lon="0.86185">
        <ele>687</ele>
        <time>2021-03-13T13:22:00Z</time>
      </trkpt>
      <trkpt lat="43.01523" lon="0.86184">
        <ele>687</ele>
        <time>2021-03-13T13:22:01Z</time>
      </trkpt>
      <trkpt lat="43.01524" lon="0.86182">
        <ele>687</ele>
        <time>2021-03-13T13:22:02Z</time>
      </trkpt>
      <trkpt lat="43.01525" lon="0.8618">
        <ele>687</ele>
        <time>2021-03-13T13:22:03Z</time>
      </trkpt>
      <trkpt lat="43.01525" lon="0.86178">
        <ele>687</ele>
        <time>2021-03-13T13:22:04Z</time>
      </trkpt>
      <trkpt lat="43.01526" lon="0.86177">
        <ele>687</ele>
        <time>2021-03-13T13:22:05Z</time>
      </trkpt>
      <trkpt lat="43.01527" lon="0.86175">
        <ele>687</ele>
        <time>2021-03-13T13:22:06Z</time>
      </trkpt>
      <trkpt lat="43.01528" lon="0.86173">
        <ele>687</ele>
        <time>2021-03-13T13:22:07Z</time>
      </trkpt>
      <trkpt lat="43.01529" lon="0.86171">
        <ele>687</ele>
        <time>2021-03-13T13:22:08Z</time>
      </trkpt>
      <trkpt lat="43.01529" lon="0.8617">
        <ele>687</ele>
        <time>2021-03-13T13:22:09Z</time>
      </trkpt>
      <trkpt lat="43.0153" lon="0.86168">
        <ele>690</ele>
        <time>2021-03-13T13:22:10Z</time>
      </trkpt>
      <trkpt lat="43.01531" lon="0.86166">
        <ele>690</ele>
        <time>2021-03-13T13:22:11Z</time>
      </trkpt>
      <trkpt lat="43.01532" lon="0.86165">
        <ele>690</ele>
        <time>2021-03-13T13:22:12Z</time>
      </trkpt>
      <trkpt lat="43.01533" lon="0.86163">
        <ele>690</ele>
        <time>2021-03-13T13:22:13Z</time>
      </trkpt>
      <trkpt lat="43.01534" lon="0.86162">
        <ele>690</ele>
        <time>2021-03-13T13:22:14Z</time>
      </trkpt>
      <trkpt lat="43.01535" lon="0.8616">
        <ele>692</ele>
        <time>2021-03-13T13:22:15Z</time>
      </trkpt>
      <trkpt lat="43.01535" lon="0.86159">
        <ele>692</ele>
        <time>2021-03-13T13:22:16Z</time>
      </trkpt>
      <trkpt lat="43.01536" lon="0.86157">
        <ele>692</ele>
        <time>2021-03-13T13:22:17Z</time>
      </trkpt>
      <trkpt lat="43.01537" lon="0.86156">
        <ele>692</ele>
        <time>2021-03-13T13:22:18Z</time>
      </trkpt>
      <trkpt lat="43.01537" lon="0.86154">
        <ele>692</ele>
        <time>2021-03-13T13:22:19Z</time>
      </trkpt>
      <trkpt lat="43.01538" lon="0.86152">
        <ele>693</ele>
        <time>2021-03-13T13:22:20Z</time>
      </trkpt>
      <trkpt lat="43.01539" lon="0.86151">
        <ele>693</ele>
        <time>2021-03-13T13:22:21Z</time>
      </trkpt>
      <trkpt lat="43.01539" lon="0.86149">
        <ele>693</ele>
        <time>2021-03-13T13:22:22Z</time>
      </trkpt>
      <trkpt lat="43.0154" lon="0.86148">
        <ele>693</ele>
        <time>2021-03-13T13:22:23Z</time>
      </trkpt>
      <trkpt lat="43.01541" lon="0.86146">
        <ele>693</ele>
        <time>2021-03-13T13:22:24Z</time>
      </trkpt>
      <trkpt lat="43.01542" lon="0.86145">
        <ele>694</ele>
        <time>2021-03-13T13:22:25Z</time>
      </trkpt>
      <trkpt lat="43.01542" lon="0.86143">
        <ele>694</ele>
        <time>2021-03-13T13:22:26Z</time>
      </trkpt>
      <trkpt lat="43.01543" lon="0.86142">
        <ele>694</ele>
        <time>2021-03-13T13:22:27Z</time>
      </trkpt>
      <trkpt lat="43.01544" lon="0.8614">
        <ele>694</ele>
        <time>2021-03-13T13:22:28Z</time>
      </trkpt>
      <trkpt lat="43.01546" lon="0.86138">
        <ele>694</ele>
        <time>2021-03-13T13:22:29Z</time>
      </trkpt>
      <trkpt lat="43.01547" lon="0.86136">
        <ele>696</ele>
        <time>2021-03-13T13:22:30Z</time>
      </trkpt>
      <trkpt lat="43.01548" lon="0.86133">
        <ele>696</ele>
        <time>2021-03-13T13:22:31Z</time>
      </trkpt>
      <trkpt lat="43.01549" lon="0.86132">
        <ele>696</ele>
        <time>2021-03-13T13:22:32Z</time>
      </trkpt>
      <trkpt lat="43.0155" lon="0.8613">
        <ele>696</ele>
        <time>2021-03-13T13:22:33Z</time>
      </trkpt>
      <trkpt lat="43.01551" lon="0.86128">
        <ele>696</ele>
        <time>2021-03-13T13:22:34Z</time>
      </trkpt>
      <trkpt lat="43.01552" lon="0.86126">
        <ele>697</ele>
        <time>2021-03-13T13:22:35Z</time>
      </trkpt>
      <trkpt lat="43.01553" lon="0.86124">
        <ele>697</ele>
        <time>2021-03-13T13:22:36Z</time>
      </trkpt>
      <trkpt lat="43.01555" lon="0.86122">
        <ele>697</ele>
        <time>2021-03-13T13:22:37Z</time>
      </trkpt>
      <trkpt lat="43.01557" lon="0.8612">
        <ele>697</ele>
        <time>2021-03-13T13:22:38Z</time>
      </trkpt>
      <trkpt lat="43.01559" lon="0.86118">
        <ele>697</ele>
        <time>2021-03-13T13:22:39Z</time>
      </trkpt>
      <trkpt lat="43.01561" lon="0.86115">
        <ele>698</ele>
        <time>2021-03-13T13:22:40Z</time>
      </trkpt>
      <trkpt lat="43.01561" lon="0.86113">
        <ele>698</ele>
        <time>2021-03-13T13:22:41Z</time>
      </trkpt>
      <trkpt lat="43.01562" lon="0.86111">
        <ele>698</ele>
        <time>2021-03-13T13:22:42Z</time>
      </trkpt>
      <trkpt lat="43.01563" lon="0.86109">
        <ele>698</ele>
        <time>2021-03-13T13:22:43Z</time>
      </trkpt>
      <trkpt lat="43.01564" lon="0.86107">
        <ele>698</ele>
        <time>2021-03-13T13:22:44Z</time>
      </trkpt>
      <trkpt lat="43.01564" lon="0.86105">
        <ele>698</ele>
        <time>2021-03-13T13:22:45Z</time>
      </trkpt>
      <trkpt lat="43.01565" lon="0.86103">
        <ele>698</ele>
        <time>2021-03-13T13:22:46Z</time>
      </trkpt>
      <trkpt lat="43.01566" lon="0.86101">
        <ele>698</ele>
        <time>2021-03-13T13:22:47Z</time>
      </trkpt>
      <trkpt lat="43.01566" lon="0.86099">
        <ele>698</ele>
        <time>2021-03-13T13:22:48Z</time>
      </trkpt>
      <trkpt lat="43.01567" lon="0.86097">
        <ele>698</ele>
        <time>2021-03-13T13:22:49Z</time>
      </trkpt>
      <trkpt lat="43.01568" lon="0.86095">
        <ele>700</ele>
        <time>2021-03-13T13:22:50Z</time>
      </trkpt>
      <trkpt lat="43.01569" lon="0.86092">
        <ele>700</ele>
        <time>2021-03-13T13:22:51Z</time>
      </trkpt>
      <trkpt lat="43.01569" lon="0.86091">
        <ele>700</ele>
        <time>2021-03-13T13:22:52Z</time>
      </trkpt>
      <trkpt lat="43.0157" lon="0.86089">
        <ele>700</ele>
        <time>2021-03-13T13:22:53Z</time>
      </trkpt>
      <trkpt lat="43.01571" lon="0.86087">
        <ele>700</ele>
        <time>2021-03-13T13:22:54Z</time>
      </trkpt>
      <trkpt lat="43.01572" lon="0.86085">
        <ele>700</ele>
        <time>2021-03-13T13:22:55Z</time>
      </trkpt>
      <trkpt lat="43.01572" lon="0.86084">
        <ele>700</ele>
        <time>2021-03-13T13:22:56Z</time>
      </trkpt>
      <trkpt lat="43.01573" lon="0.86082">
        <ele>700</ele>
        <time>2021-03-13T13:22:57Z</time>
      </trkpt>
      <trkpt lat="43.01574" lon="0.8608">
        <ele>700</ele>
        <time>2021-03-13T13:22:58Z</time>
      </trkpt>
      <trkpt lat="43.01574" lon="0.86079">
        <ele>700</ele>
        <time>2021-03-13T13:22:59Z</time>
      </trkpt>
      <trkpt lat="43.01575" lon="0.86077">
        <ele>702</ele>
        <time>2021-03-13T13:23:00Z</time>
      </trkpt>
      <trkpt lat="43.01575" lon="0.86076">
        <ele>702</ele>
        <time>2021-03-13T13:23:01Z</time>
      </trkpt>
      <trkpt lat="43.01576" lon="0.86074">
        <ele>702</ele>
        <time>2021-03-13T13:23:02Z</time>
      </trkpt>
      <trkpt lat="43.01576" lon="0.86073">
        <ele>702</ele>
        <time>2021-03-13T13:23:03Z</time>
      </trkpt>
      <trkpt lat="43.01577" lon="0.86071">
        <ele>702</ele>
        <time>2021-03-13T13:23:04Z</time>
      </trkpt>
      <trkpt lat="43.01578" lon="0.86069">
        <ele>703</ele>
        <time>2021-03-13T13:23:05Z</time>
      </trkpt>
      <trkpt lat="43.01579" lon="0.86066">
        <ele>703</ele>
        <time>2021-03-13T13:23:06Z</time>
      </trkpt>
      <trkpt lat="43.0158" lon="0.86064">
        <ele>703</ele>
        <time>2021-03-13T13:23:07Z</time>
      </trkpt>
      <trkpt lat="43.01581" lon="0.86061">
        <ele>703</ele>
        <time>2021-03-13T13:23:08Z</time>
      </trkpt>
      <trkpt lat="43.01582" lon="0.86059">
        <ele>703</ele>
        <time>2021-03-13T13:23:09Z</time>
      </trkpt>
      <trkpt lat="43.01583" lon="0.86057">
        <ele>704</ele>
        <time>2021-03-13T13:23:10Z</time>
      </trkpt>
      <trkpt lat="43.01583" lon="0.86055">
        <ele>704</ele>
        <time>2021-03-13T13:23:11Z</time>
      </trkpt>
      <trkpt lat="43.01584" lon="0.86052">
        <ele>704</ele>
        <time>2021-03-13T13:23:12Z</time>
      </trkpt>
      <trkpt lat="43.01585" lon="0.8605">
        <ele>704</ele>
        <time>2021-03-13T13:23:13Z</time>
      </trkpt>
      <trkpt lat="43.01586" lon="0.86048">
        <ele>704</ele>
        <time>2021-03-13T13:23:14Z</time>
      </trkpt>
      <trkpt lat="43.01586" lon="0.86046">
        <ele>704</ele>
        <time>2021-03-13T13:23:15Z</time>
      </trkpt>
      <trkpt lat="43.01587" lon="0.86045">
        <ele>704</ele>
        <time>2021-03-13T13:23:16Z</time>
      </trkpt>
      <trkpt lat="43.01588" lon="0.86043">
        <ele>704</ele>
        <time>2021-03-13T13:23:17Z</time>
      </trkpt>
      <trkpt lat="43.01588" lon="0.86041">
        <ele>704</ele>
        <time>2021-03-13T13:23:18Z</time>
      </trkpt>
      <trkpt lat="43.01589" lon="0.86039">
        <ele>704</ele>
        <time>2021-03-13T13:23:19Z</time>
      </trkpt>
      <trkpt lat="43.01589" lon="0.86038">
        <ele>706</ele>
        <time>2021-03-13T13:23:20Z</time>
      </trkpt>
      <trkpt lat="43.0159" lon="0.86036">
        <ele>706</ele>
        <time>2021-03-13T13:23:21Z</time>
      </trkpt>
      <trkpt lat="43.0159" lon="0.86035">
        <ele>706</ele>
        <time>2021-03-13T13:23:22Z</time>
      </trkpt>
      <trkpt lat="43.01591" lon="0.86033">
        <ele>706</ele>
        <time>2021-03-13T13:23:23Z</time>
      </trkpt>
      <trkpt lat="43.01591" lon="0.86032">
        <ele>706</ele>
        <time>2021-03-13T13:23:24Z</time>
      </trkpt>
      <trkpt lat="43.01591" lon="0.8603">
        <ele>706</ele>
        <time>2021-03-13T13:23:25Z</time>
      </trkpt>
      <trkpt lat="43.01592" lon="0.86029">
        <ele>706</ele>
        <time>2021-03-13T13:23:26Z</time>
      </trkpt>
      <trkpt lat="43.01592" lon="0.86028">
        <ele>706</ele>
        <time>2021-03-13T13:23:27Z</time>
      </trkpt>
      <trkpt lat="43.01592" lon="0.86026">
        <ele>706</ele>
        <time>2021-03-13T13:23:28Z</time>
      </trkpt>
      <trkpt lat="43.01593" lon="0.86025">
        <ele>706</ele>
        <time>2021-03-13T13:23:29Z</time>
      </trkpt>
      <trkpt lat="43.01593" lon="0.86023">
        <ele>709</ele>
        <time>2021-03-13T13:23:30Z</time>
      </trkpt>
      <trkpt lat="43.01594" lon="0.86021">
        <ele>709</ele>
        <time>2021-03-13T13:23:31Z</time>
      </trkpt>
      <trkpt lat="43.01596" lon="0.86018">
        <ele>709</ele>
        <time>2021-03-13T13:23:32Z</time>
      </trkpt>
      <trkpt lat="43.01597" lon="0.86015">
        <ele>709</ele>
        <time>2021-03-13T13:23:33Z</time>
      </trkpt>
      <trkpt lat="43.01598" lon="0.86012">
        <ele>709</ele>
        <time>2021-03-13T13:23:34Z</time>
      </trkpt>
      <trkpt lat="43.01599" lon="0.86009">
        <ele>710</ele>
        <time>2021-03-13T13:23:35Z</time>
      </trkpt>
      <trkpt lat="43.016" lon="0.86007">
        <ele>710</ele>
        <time>2021-03-13T13:23:36Z</time>
      </trkpt>
      <trkpt lat="43.01601" lon="0.86004">
        <ele>710</ele>
        <time>2021-03-13T13:23:37Z</time>
      </trkpt>
      <trkpt lat="43.01603" lon="0.86001">
        <ele>710</ele>
        <time>2021-03-13T13:23:38Z</time>
      </trkpt>
      <trkpt lat="43.01604" lon="0.85998">
        <ele>710</ele>
        <time>2021-03-13T13:23:39Z</time>
      </trkpt>
      <trkpt lat="43.01605" lon="0.85996">
        <ele>711</ele>
        <time>2021-03-13T13:23:40Z</time>
      </trkpt>
      <trkpt lat="43.01606" lon="0.85993">
        <ele>711</ele>
        <time>2021-03-13T13:23:41Z</time>
      </trkpt>
      <trkpt lat="43.01608" lon="0.8599">
        <ele>711</ele>
        <time>2021-03-13T13:23:42Z</time>
      </trkpt>
      <trkpt lat="43.01609" lon="0.85988">
        <ele>711</ele>
        <time>2021-03-13T13:23:43Z</time>
      </trkpt>
      <trkpt lat="43.01611" lon="0.85986">
        <ele>711</ele>
        <time>2021-03-13T13:23:44Z</time>
      </trkpt>
      <trkpt lat="43.01612" lon="0.85984">
        <ele>711</ele>
        <time>2021-03-13T13:23:45Z</time>
      </trkpt>
      <trkpt lat="43.01614" lon="0.85982">
        <ele>711</ele>
        <time>2021-03-13T13:23:46Z</time>
      </trkpt>
      <trkpt lat="43.01615" lon="0.8598">
        <ele>711</ele>
        <time>2021-03-13T13:23:47Z</time>
      </trkpt>
      <trkpt lat="43.01617" lon="0.85979">
        <ele>711</ele>
        <time>2021-03-13T13:23:48Z</time>
      </trkpt>
      <trkpt lat="43.01618" lon="0.85977">
        <ele>711</ele>
        <time>2021-03-13T13:23:49Z</time>
      </trkpt>
      <trkpt lat="43.0162" lon="0.85976">
        <ele>711</ele>
        <time>2021-03-13T13:23:50Z</time>
      </trkpt>
      <trkpt lat="43.01622" lon="0.85974">
        <ele>711</ele>
        <time>2021-03-13T13:23:51Z</time>
      </trkpt>
      <trkpt lat="43.01624" lon="0.85973">
        <ele>711</ele>
        <time>2021-03-13T13:23:52Z</time>
      </trkpt>
      <trkpt lat="43.01627" lon="0.85972">
        <ele>711</ele>
        <time>2021-03-13T13:23:53Z</time>
      </trkpt>
      <trkpt lat="43.01629" lon="0.8597">
        <ele>711</ele>
        <time>2021-03-13T13:23:54Z</time>
      </trkpt>
      <trkpt lat="43.01631" lon="0.85969">
        <ele>711</ele>
        <time>2021-03-13T13:23:55Z</time>
      </trkpt>
      <trkpt lat="43.01633" lon="0.85967">
        <ele>711</ele>
        <time>2021-03-13T13:23:56Z</time>
      </trkpt>
      <trkpt lat="43.01635" lon="0.85966">
        <ele>711</ele>
        <time>2021-03-13T13:23:57Z</time>
      </trkpt>
      <trkpt lat="43.01637" lon="0.85965">
        <ele>711</ele>
        <time>2021-03-13T13:23:58Z</time>
      </trkpt>
      <trkpt lat="43.0164" lon="0.85964">
        <ele>711</ele>
        <time>2021-03-13T13:23:59Z</time>
      </trkpt>
      <trkpt lat="43.01641" lon="0.85962">
        <ele>712</ele>
        <time>2021-03-13T13:24:00Z</time>
      </trkpt>
      <trkpt lat="43.01643" lon="0.85961">
        <ele>712</ele>
        <time>2021-03-13T13:24:01Z</time>
      </trkpt>
      <trkpt lat="43.01645" lon="0.85959">
        <ele>712</ele>
        <time>2021-03-13T13:24:02Z</time>
      </trkpt>
      <trkpt lat="43.01644" lon="0.85958">
        <ele>712</ele>
        <time>2021-03-13T13:24:03Z</time>
      </trkpt>
      <trkpt lat="43.01643" lon="0.85957">
        <ele>712</ele>
        <time>2021-03-13T13:24:04Z</time>
      </trkpt>
      <trkpt lat="43.01643" lon="0.85956">
        <ele>712</ele>
        <time>2021-03-13T13:24:05Z</time>
      </trkpt>
      <trkpt lat="43.01642" lon="0.85955">
        <ele>712</ele>
        <time>2021-03-13T13:24:06Z</time>
      </trkpt>
      <trkpt lat="43.01642" lon="0.85953">
        <ele>712</ele>
        <time>2021-03-13T13:24:07Z</time>
      </trkpt>
      <trkpt lat="43.01641" lon="0.85952">
        <ele>712</ele>
        <time>2021-03-13T13:24:08Z</time>
      </trkpt>
      <trkpt lat="43.0164" lon="0.85951">
        <ele>712</ele>
        <time>2021-03-13T13:24:09Z</time>
      </trkpt>
      <trkpt lat="43.01638" lon="0.85951">
        <ele>714</ele>
        <time>2021-03-13T13:24:10Z</time>
      </trkpt>
      <trkpt lat="43.01636" lon="0.85951">
        <ele>714</ele>
        <time>2021-03-13T13:24:11Z</time>
      </trkpt>
      <trkpt lat="43.01634" lon="0.85951">
        <ele>714</ele>
        <time>2021-03-13T13:24:12Z</time>
      </trkpt>
      <trkpt lat="43.01632" lon="0.85951">
        <ele>714</ele>
        <time>2021-03-13T13:24:13Z</time>
      </trkpt>
      <trkpt lat="43.0163" lon="0.85951">
        <ele>714</ele>
        <time>2021-03-13T13:24:14Z</time>
      </trkpt>
      <trkpt lat="43.01628" lon="0.8595">
        <ele>714</ele>
        <time>2021-03-13T13:24:15Z</time>
      </trkpt>
      <trkpt lat="43.01626" lon="0.8595">
        <ele>714</ele>
        <time>2021-03-13T13:24:16Z</time>
      </trkpt>
      <trkpt lat="43.01624" lon="0.85949">
        <ele>714</ele>
        <time>2021-03-13T13:24:17Z</time>
      </trkpt>
      <trkpt lat="43.0162" lon="0.85945">
        <ele>714</ele>
        <time>2021-03-13T13:24:18Z</time>
      </trkpt>
      <trkpt lat="43.0162" lon="0.85945">
        <ele>714</ele>
        <time>2021-03-13T13:24:19Z</time>
      </trkpt>
      <trkpt lat="43.0162" lon="0.85945">
        <ele>717</ele>
        <time>2021-03-13T13:24:20Z</time>
      </trkpt>
      <trkpt lat="43.0162" lon="0.85945">
        <ele>717</ele>
        <time>2021-03-13T13:24:21Z</time>
      </trkpt>
      <trkpt lat="43.0162" lon="0.85945">
        <ele>717</ele>
        <time>2021-03-13T13:24:22Z</time>
      </trkpt>
      <trkpt lat="43.0162" lon="0.85945">
        <ele>717</ele>
        <time>2021-03-13T13:24:23Z</time>
      </trkpt>
      <trkpt lat="43.0162" lon="0.85945">
        <ele>717</ele>
        <time>2021-03-13T13:24:24Z</time>
      </trkpt>
      <trkpt lat="43.0162" lon="0.85945">
        <ele>716</ele>
        <time>2021-03-13T13:24:25Z</time>
      </trkpt>
      <trkpt lat="43.0162" lon="0.85945">
        <ele>716</ele>
        <time>2021-03-13T13:24:26Z</time>
      </trkpt>
      <trkpt lat="43.0162" lon="0.85945">
        <ele>716</ele>
        <time>2021-03-13T13:24:27Z</time>
      </trkpt>
      <trkpt lat="43.01624" lon="0.85945">
        <ele>716</ele>
        <time>2021-03-13T13:24:28Z</time>
      </trkpt>
      <trkpt lat="43.01624" lon="0.85945">
        <ele>716</ele>
        <time>2021-03-13T13:24:29Z</time>
      </trkpt>
      <trkpt lat="43.01624" lon="0.85945">
        <ele>716</ele>
        <time>2021-03-13T13:24:30Z</time>
      </trkpt>
      <trkpt lat="43.01624" lon="0.85945">
        <ele>716</ele>
        <time>2021-03-13T13:24:31Z</time>
      </trkpt>
      <trkpt lat="43.01624" lon="0.85945">
        <ele>716</ele>
        <time>2021-03-13T13:24:32Z</time>
      </trkpt>
      <trkpt lat="43.01624" lon="0.85945">
        <ele>716</ele>
        <time>2021-03-13T13:24:33Z</time>
      </trkpt>
      <trkpt lat="43.01624" lon="0.85945">
        <ele>716</ele>
        <time>2021-03-13T13:24:34Z</time>
      </trkpt>
      <trkpt lat="43.01624" lon="0.85945">
        <ele>716</ele>
        <time>2021-03-13T13:24:35Z</time>
      </trkpt>
      <trkpt lat="43.01624" lon="0.85945">
        <ele>716</ele>
        <time>2021-03-13T13:24:36Z</time>
      </trkpt>
      <trkpt lat="43.01624" lon="0.85945">
        <ele>716</ele>
        <time>2021-03-13T13:24:37Z</time>
      </trkpt>
      <trkpt lat="43.01624" lon="0.85945">
        <ele>716</ele>
        <time>2021-03-13T13:24:38Z</time>
      </trkpt>
      <trkpt lat="43.01624" lon="0.85945">
        <ele>716</ele>
        <time>2021-03-13T13:24:39Z</time>
      </trkpt>
      <trkpt lat="43.01624" lon="0.85945">
        <ele>716</ele>
        <time>2021-03-13T13:24:40Z</time>
      </trkpt>
      <trkpt lat="43.01624" lon="0.85945">
        <ele>716</ele>
        <time>2021-03-13T13:24:41Z</time>
      </trkpt>
      <trkpt lat="43.01624" lon="0.85945">
        <ele>716</ele>
        <time>2021-03-13T13:24:42Z</time>
      </trkpt>
      <trkpt lat="43.01624" lon="0.85945">
        <ele>716</ele>
        <time>2021-03-13T13:24:43Z</time>
      </trkpt>
      <trkpt lat="43.01624" lon="0.85945">
        <ele>716</ele>
        <time>2021-03-13T13:24:44Z</time>
      </trkpt>
      <trkpt lat="43.01624" lon="0.85945">
        <ele>716</ele>
        <time>2021-03-13T13:24:45Z</time>
      </trkpt>
      <trkpt lat="43.01624" lon="0.85945">
        <ele>716</ele>
        <time>2021-03-13T13:24:46Z</time>
      </trkpt>
      <trkpt lat="43.01624" lon="0.85945">
        <ele>716</ele>
        <time>2021-03-13T13:24:47Z</time>
      </trkpt>
      <trkpt lat="43.01624" lon="0.85945">
        <ele>716</ele>
        <time>2021-03-13T13:24:48Z</time>
      </trkpt>
      <trkpt lat="43.01624" lon="0.85945">
        <ele>716</ele>
        <time>2021-03-13T13:24:49Z</time>
      </trkpt>
      <trkpt lat="43.01624" lon="0.85945">
        <ele>716</ele>
        <time>2021-03-13T13:24:50Z</time>
      </trkpt>
      <trkpt lat="43.01624" lon="0.85945">
        <ele>716</ele>
        <time>2021-03-13T13:24:51Z</time>
      </trkpt>
      <trkpt lat="43.01624" lon="0.85945">
        <ele>716</ele>
        <time>2021-03-13T13:24:52Z</time>
      </trkpt>
      <trkpt lat="43.01624" lon="0.85945">
        <ele>716</ele>
        <time>2021-03-13T13:24:53Z</time>
      </trkpt>
      <trkpt lat="43.01624" lon="0.85945">
        <ele>716</ele>
        <time>2021-03-13T13:24:54Z</time>
      </trkpt>
      <trkpt lat="43.01624" lon="0.85945">
        <ele>716</ele>
        <time>2021-03-13T13:24:55Z</time>
      </trkpt>
      <trkpt lat="43.01624" lon="0.85945">
        <ele>716</ele>
        <time>2021-03-13T13:24:56Z</time>
      </trkpt>
      <trkpt lat="43.01624" lon="0.85945">
        <ele>716</ele>
        <time>2021-03-13T13:24:57Z</time>
      </trkpt>
      <trkpt lat="43.01624" lon="0.85945">
        <ele>716</ele>
        <time>2021-03-13T13:24:58Z</time>
      </trkpt>
      <trkpt lat="43.01624" lon="0.85945">
        <ele>716</ele>
        <time>2021-03-13T13:24:59Z</time>
      </trkpt>
      <trkpt lat="43.01624" lon="0.85945">
        <ele>716</ele>
        <time>2021-03-13T13:25:00Z</time>
      </trkpt>
      <trkpt lat="43.01624" lon="0.85945">
        <ele>716</ele>
        <time>2021-03-13T13:25:01Z</time>
      </trkpt>
      <trkpt lat="43.01624" lon="0.85945">
        <ele>716</ele>
        <time>2021-03-13T13:25:02Z</time>
      </trkpt>
      <trkpt lat="43.01624" lon="0.85945">
        <ele>716</ele>
        <time>2021-03-13T13:25:03Z</time>
      </trkpt>
      <trkpt lat="43.01624" lon="0.85945">
        <ele>716</ele>
        <time>2021-03-13T13:25:04Z</time>
      </trkpt>
      <trkpt lat="43.01624" lon="0.85945">
        <ele>716</ele>
        <time>2021-03-13T13:25:05Z</time>
      </trkpt>
      <trkpt lat="43.01624" lon="0.85945">
        <ele>716</ele>
        <time>2021-03-13T13:25:06Z</time>
      </trkpt>
      <trkpt lat="43.01624" lon="0.85945">
        <ele>716</ele>
        <time>2021-03-13T13:25:07Z</time>
      </trkpt>
      <trkpt lat="43.01624" lon="0.85945">
        <ele>716</ele>
        <time>2021-03-13T13:25:08Z</time>
      </trkpt>
      <trkpt lat="43.01624" lon="0.85945">
        <ele>716</ele>
        <time>2021-03-13T13:25:09Z</time>
      </trkpt>
      <trkpt lat="43.01624" lon="0.85945">
        <ele>716</ele>
        <time>2021-03-13T13:25:10Z</time>
      </trkpt>
      <trkpt lat="43.01624" lon="0.85945">
        <ele>716</ele>
        <time>2021-03-13T13:25:11Z</time>
      </trkpt>
      <trkpt lat="43.01624" lon="0.85945">
        <ele>716</ele>
        <time>2021-03-13T13:25:12Z</time>
      </trkpt>
      <trkpt lat="43.01624" lon="0.85945">
        <ele>716</ele>
        <time>2021-03-13T13:25:13Z</time>
      </trkpt>
      <trkpt lat="43.01624" lon="0.85945">
        <ele>716</ele>
        <time>2021-03-13T13:25:14Z</time>
      </trkpt>
      <trkpt lat="43.01624" lon="0.85945">
        <ele>716</ele>
        <time>2021-03-13T13:25:15Z</time>
      </trkpt>
      <trkpt lat="43.01624" lon="0.85945">
        <ele>716</ele>
        <time>2021-03-13T13:25:16Z</time>
      </trkpt>
      <trkpt lat="43.01624" lon="0.85945">
        <ele>716</ele>
        <time>2021-03-13T13:25:17Z</time>
      </trkpt>
      <trkpt lat="43.01624" lon="0.85945">
        <ele>716</ele>
        <time>2021-03-13T13:25:18Z</time>
      </trkpt>
      <trkpt lat="43.01624" lon="0.85945">
        <ele>716</ele>
        <time>2021-03-13T13:25:19Z</time>
      </trkpt>
      <trkpt lat="43.01624" lon="0.85945">
        <ele>715</ele>
        <time>2021-03-13T13:25:20Z</time>
      </trkpt>
      <trkpt lat="43.01624" lon="0.85945">
        <ele>715</ele>
        <time>2021-03-13T13:25:21Z</time>
      </trkpt>
      <trkpt lat="43.01624" lon="0.85945">
        <ele>715</ele>
        <time>2021-03-13T13:25:22Z</time>
      </trkpt>
      <trkpt lat="43.01624" lon="0.85945">
        <ele>715</ele>
        <time>2021-03-13T13:25:23Z</time>
      </trkpt>
      <trkpt lat="43.01624" lon="0.85945">
        <ele>715</ele>
        <time>2021-03-13T13:25:24Z</time>
      </trkpt>
      <trkpt lat="43.01624" lon="0.85945">
        <ele>715</ele>
        <time>2021-03-13T13:25:25Z</time>
      </trkpt>
      <trkpt lat="43.01624" lon="0.85945">
        <ele>715</ele>
        <time>2021-03-13T13:25:26Z</time>
      </trkpt>
      <trkpt lat="43.01624" lon="0.85945">
        <ele>715</ele>
        <time>2021-03-13T13:25:27Z</time>
      </trkpt>
      <trkpt lat="43.01624" lon="0.85945">
        <ele>715</ele>
        <time>2021-03-13T13:25:28Z</time>
      </trkpt>
      <trkpt lat="43.01624" lon="0.85945">
        <ele>715</ele>
        <time>2021-03-13T13:25:29Z</time>
      </trkpt>
      <trkpt lat="43.01624" lon="0.85945">
        <ele>715</ele>
        <time>2021-03-13T13:25:30Z</time>
      </trkpt>
      <trkpt lat="43.01624" lon="0.85945">
        <ele>715</ele>
        <time>2021-03-13T13:25:31Z</time>
      </trkpt>
      <trkpt lat="43.01624" lon="0.85945">
        <ele>715</ele>
        <time>2021-03-13T13:25:32Z</time>
      </trkpt>
      <trkpt lat="43.01624" lon="0.85945">
        <ele>715</ele>
        <time>2021-03-13T13:25:33Z</time>
      </trkpt>
      <trkpt lat="43.01624" lon="0.85945">
        <ele>715</ele>
        <time>2021-03-13T13:25:34Z</time>
      </trkpt>
      <trkpt lat="43.01624" lon="0.85945">
        <ele>715</ele>
        <time>2021-03-13T13:25:35Z</time>
      </trkpt>
      <trkpt lat="43.01624" lon="0.85945">
        <ele>715</ele>
        <time>2021-03-13T13:25:36Z</time>
      </trkpt>
      <trkpt lat="43.01624" lon="0.85945">
        <ele>715</ele>
        <time>2021-03-13T13:25:37Z</time>
      </trkpt>
      <trkpt lat="43.01624" lon="0.85945">
        <ele>715</ele>
        <time>2021-03-13T13:25:38Z</time>
      </trkpt>
      <trkpt lat="43.01624" lon="0.85945">
        <ele>715</ele>
        <time>2021-03-13T13:25:39Z</time>
      </trkpt>
      <trkpt lat="43.01624" lon="0.85945">
        <ele>716</ele>
        <time>2021-03-13T13:25:40Z</time>
      </trkpt>
      <trkpt lat="43.01624" lon="0.85945">
        <ele>716</ele>
        <time>2021-03-13T13:25:41Z</time>
      </trkpt>
      <trkpt lat="43.01624" lon="0.85945">
        <ele>716</ele>
        <time>2021-03-13T13:25:42Z</time>
      </trkpt>
      <trkpt lat="43.01624" lon="0.85945">
        <ele>716</ele>
        <time>2021-03-13T13:25:43Z</time>
      </trkpt>
      <trkpt lat="43.01624" lon="0.85945">
        <ele>716</ele>
        <time>2021-03-13T13:25:44Z</time>
      </trkpt>
      <trkpt lat="43.01624" lon="0.85945">
        <ele>716</ele>
        <time>2021-03-13T13:25:45Z</time>
      </trkpt>
      <trkpt lat="43.01624" lon="0.85945">
        <ele>716</ele>
        <time>2021-03-13T13:25:46Z</time>
      </trkpt>
      <trkpt lat="43.01624" lon="0.85945">
        <ele>716</ele>
        <time>2021-03-13T13:25:47Z</time>
      </trkpt>
      <trkpt lat="43.01624" lon="0.85945">
        <ele>716</ele>
        <time>2021-03-13T13:25:48Z</time>
      </trkpt>
      <trkpt lat="43.01624" lon="0.85945">
        <ele>716</ele>
        <time>2021-03-13T13:25:49Z</time>
      </trkpt>
      <trkpt lat="43.01624" lon="0.85945">
        <ele>716</ele>
        <time>2021-03-13T13:25:50Z</time>
      </trkpt>
      <trkpt lat="43.01624" lon="0.85945">
        <ele>716</ele>
        <time>2021-03-13T13:25:51Z</time>
      </trkpt>
      <trkpt lat="43.01624" lon="0.85945">
        <ele>716</ele>
        <time>2021-03-13T13:25:52Z</time>
      </trkpt>
      <trkpt lat="43.01624" lon="0.85945">
        <ele>716</ele>
        <time>2021-03-13T13:25:53Z</time>
      </trkpt>
      <trkpt lat="43.01624" lon="0.85945">
        <ele>716</ele>
        <time>2021-03-13T13:25:54Z</time>
      </trkpt>
      <trkpt lat="43.01624" lon="0.85945">
        <ele>716</ele>
        <time>2021-03-13T13:25:55Z</time>
      </trkpt>
      <trkpt lat="43.01624" lon="0.85945">
        <ele>716</ele>
        <time>2021-03-13T13:25:56Z</time>
      </trkpt>
      <trkpt lat="43.01624" lon="0.85945">
        <ele>716</ele>
        <time>2021-03-13T13:25:57Z</time>
      </trkpt>
      <trkpt lat="43.01624" lon="0.85945">
        <ele>716</ele>
        <time>2021-03-13T13:25:58Z</time>
      </trkpt>
      <trkpt lat="43.01624" lon="0.85945">
        <ele>716</ele>
        <time>2021-03-13T13:25:59Z</time>
      </trkpt>
      <trkpt lat="43.01624" lon="0.85945">
        <ele>715</ele>
        <time>2021-03-13T13:26:00Z</time>
      </trkpt>
      <trkpt lat="43.01624" lon="0.85945">
        <ele>715</ele>
        <time>2021-03-13T13:26:01Z</time>
      </trkpt>
      <trkpt lat="43.01624" lon="0.85945">
        <ele>715</ele>
        <time>2021-03-13T13:26:02Z</time>
      </trkpt>
      <trkpt lat="43.01624" lon="0.85945">
        <ele>715</ele>
        <time>2021-03-13T13:26:03Z</time>
      </trkpt>
      <trkpt lat="43.01624" lon="0.85945">
        <ele>715</ele>
        <time>2021-03-13T13:26:04Z</time>
      </trkpt>
      <trkpt lat="43.01624" lon="0.85945">
        <ele>715</ele>
        <time>2021-03-13T13:26:05Z</time>
      </trkpt>
      <trkpt lat="43.01624" lon="0.85945">
        <ele>715</ele>
        <time>2021-03-13T13:26:06Z</time>
      </trkpt>
      <trkpt lat="43.01624" lon="0.85945">
        <ele>715</ele>
        <time>2021-03-13T13:26:07Z</time>
      </trkpt>
      <trkpt lat="43.01624" lon="0.85945">
        <ele>715</ele>
        <time>2021-03-13T13:26:08Z</time>
      </trkpt>
      <trkpt lat="43.01624" lon="0.85945">
        <ele>715</ele>
        <time>2021-03-13T13:26:09Z</time>
      </trkpt>
      <trkpt lat="43.01624" lon="0.85945">
        <ele>715</ele>
        <time>2021-03-13T13:26:10Z</time>
      </trkpt>
      <trkpt lat="43.01627" lon="0.85941">
        <ele>715</ele>
        <time>2021-03-13T13:26:11Z</time>
      </trkpt>
      <trkpt lat="43.01627" lon="0.85941">
        <ele>715</ele>
        <time>2021-03-13T13:26:12Z</time>
      </trkpt>
      <trkpt lat="43.01627" lon="0.85941">
        <ele>715</ele>
        <time>2021-03-13T13:26:13Z</time>
      </trkpt>
      <trkpt lat="43.01627" lon="0.85941">
        <ele>715</ele>
        <time>2021-03-13T13:26:14Z</time>
      </trkpt>
      <trkpt lat="43.01627" lon="0.85941">
        <ele>715</ele>
        <time>2021-03-13T13:26:15Z</time>
      </trkpt>
      <trkpt lat="43.01627" lon="0.85941">
        <ele>715</ele>
        <time>2021-03-13T13:26:16Z</time>
      </trkpt>
      <trkpt lat="43.01627" lon="0.85941">
        <ele>715</ele>
        <time>2021-03-13T13:26:17Z</time>
      </trkpt>
      <trkpt lat="43.01627" lon="0.85941">
        <ele>715</ele>
        <time>2021-03-13T13:26:18Z</time>
      </trkpt>
      <trkpt lat="43.01627" lon="0.85941">
        <ele>715</ele>
        <time>2021-03-13T13:26:19Z</time>
      </trkpt>
      <trkpt lat="43.01627" lon="0.85941">
        <ele>717</ele>
        <time>2021-03-13T13:26:20Z</time>
      </trkpt>
      <trkpt lat="43.01626" lon="0.85941">
        <ele>717</ele>
        <time>2021-03-13T13:26:21Z</time>
      </trkpt>
      <trkpt lat="43.01626" lon="0.85941">
        <ele>717</ele>
        <time>2021-03-13T13:26:22Z</time>
      </trkpt>
      <trkpt lat="43.01626" lon="0.85941">
        <ele>717</ele>
        <time>2021-03-13T13:26:23Z</time>
      </trkpt>
      <trkpt lat="43.01626" lon="0.85941">
        <ele>717</ele>
        <time>2021-03-13T13:26:24Z</time>
      </trkpt>
      <trkpt lat="43.01626" lon="0.85941">
        <ele>717</ele>
        <time>2021-03-13T13:26:25Z</time>
      </trkpt>
      <trkpt lat="43.01626" lon="0.85941">
        <ele>717</ele>
        <time>2021-03-13T13:26:26Z</time>
      </trkpt>
      <trkpt lat="43.01626" lon="0.85941">
        <ele>717</ele>
        <time>2021-03-13T13:26:27Z</time>
      </trkpt>
      <trkpt lat="43.01626" lon="0.85941">
        <ele>717</ele>
        <time>2021-03-13T13:26:28Z</time>
      </trkpt>
      <trkpt lat="43.01626" lon="0.85941">
        <ele>717</ele>
        <time>2021-03-13T13:26:29Z</time>
      </trkpt>
      <trkpt lat="43.01626" lon="0.85941">
        <ele>716</ele>
        <time>2021-03-13T13:26:30Z</time>
      </trkpt>
      <trkpt lat="43.01626" lon="0.85941">
        <ele>716</ele>
        <time>2021-03-13T13:26:31Z</time>
      </trkpt>
      <trkpt lat="43.01626" lon="0.85941">
        <ele>716</ele>
        <time>2021-03-13T13:26:32Z</time>
      </trkpt>
      <trkpt lat="43.01626" lon="0.85941">
        <ele>716</ele>
        <time>2021-03-13T13:26:33Z</time>
      </trkpt>
      <trkpt lat="43.01626" lon="0.85941">
        <ele>716</ele>
        <time>2021-03-13T13:26:34Z</time>
      </trkpt>
      <trkpt lat="43.01626" lon="0.85941">
        <ele>716</ele>
        <time>2021-03-13T13:26:35Z</time>
      </trkpt>
      <trkpt lat="43.01626" lon="0.85941">
        <ele>716</ele>
        <time>2021-03-13T13:26:36Z</time>
      </trkpt>
      <trkpt lat="43.01626" lon="0.85941">
        <ele>716</ele>
        <time>2021-03-13T13:26:37Z</time>
      </trkpt>
      <trkpt lat="43.01626" lon="0.85941">
        <ele>716</ele>
        <time>2021-03-13T13:26:38Z</time>
      </trkpt>
      <trkpt lat="43.01626" lon="0.85941">
        <ele>716</ele>
        <time>2021-03-13T13:26:39Z</time>
      </trkpt>
      <trkpt lat="43.01626" lon="0.85941">
        <ele>715</ele>
        <time>2021-03-13T13:26:40Z</time>
      </trkpt>
      <trkpt lat="43.01626" lon="0.85941">
        <ele>715</ele>
        <time>2021-03-13T13:26:41Z</time>
      </trkpt>
      <trkpt lat="43.01626" lon="0.85941">
        <ele>715</ele>
        <time>2021-03-13T13:26:42Z</time>
      </trkpt>
      <trkpt lat="43.01626" lon="0.85941">
        <ele>715</ele>
        <time>2021-03-13T13:26:43Z</time>
      </trkpt>
      <trkpt lat="43.01626" lon="0.85941">
        <ele>715</ele>
        <time>2021-03-13T13:26:44Z</time>
      </trkpt>
      <trkpt lat="43.01626" lon="0.85941">
        <ele>715</ele>
        <time>2021-03-13T13:26:45Z</time>
      </trkpt>
      <trkpt lat="43.01626" lon="0.85941">
        <ele>715</ele>
        <time>2021-03-13T13:26:46Z</time>
      </trkpt>
      <trkpt lat="43.01626" lon="0.85941">
        <ele>715</ele>
        <time>2021-03-13T13:26:47Z</time>
      </trkpt>
      <trkpt lat="43.01626" lon="0.85941">
        <ele>715</ele>
        <time>2021-03-13T13:26:48Z</time>
      </trkpt>
      <trkpt lat="43.01626" lon="0.85941">
        <ele>715</ele>
        <time>2021-03-13T13:26:49Z</time>
      </trkpt>
      <trkpt lat="43.01626" lon="0.85941">
        <ele>716</ele>
        <time>2021-03-13T13:26:50Z</time>
      </trkpt>
      <trkpt lat="43.01626" lon="0.85941">
        <ele>716</ele>
        <time>2021-03-13T13:26:51Z</time>
      </trkpt>
      <trkpt lat="43.01626" lon="0.85941">
        <ele>716</ele>
        <time>2021-03-13T13:26:52Z</time>
      </trkpt>
      <trkpt lat="43.01626" lon="0.85941">
        <ele>716</ele>
        <time>2021-03-13T13:26:53Z</time>
      </trkpt>
      <trkpt lat="43.01626" lon="0.85941">
        <ele>716</ele>
        <time>2021-03-13T13:26:54Z</time>
      </trkpt>
      <trkpt lat="43.01625" lon="0.85941">
        <ele>716</ele>
        <time>2021-03-13T13:26:55Z</time>
      </trkpt>
      <trkpt lat="43.01625" lon="0.85941">
        <ele>716</ele>
        <time>2021-03-13T13:26:56Z</time>
      </trkpt>
      <trkpt lat="43.01625" lon="0.85941">
        <ele>716</ele>
        <time>2021-03-13T13:26:57Z</time>
      </trkpt>
      <trkpt lat="43.01625" lon="0.85941">
        <ele>716</ele>
        <time>2021-03-13T13:26:58Z</time>
      </trkpt>
      <trkpt lat="43.01625" lon="0.85941">
        <ele>716</ele>
        <time>2021-03-13T13:26:59Z</time>
      </trkpt>
      <trkpt lat="43.01625" lon="0.85941">
        <ele>715</ele>
        <time>2021-03-13T13:27:00Z</time>
      </trkpt>
      <trkpt lat="43.01625" lon="0.85941">
        <ele>715</ele>
        <time>2021-03-13T13:27:01Z</time>
      </trkpt>
      <trkpt lat="43.01625" lon="0.85941">
        <ele>715</ele>
        <time>2021-03-13T13:27:02Z</time>
      </trkpt>
      <trkpt lat="43.01625" lon="0.85941">
        <ele>715</ele>
        <time>2021-03-13T13:27:03Z</time>
      </trkpt>
      <trkpt lat="43.01625" lon="0.85941">
        <ele>715</ele>
        <time>2021-03-13T13:27:04Z</time>
      </trkpt>
      <trkpt lat="43.01625" lon="0.85941">
        <ele>715</ele>
        <time>2021-03-13T13:27:05Z</time>
      </trkpt>
      <trkpt lat="43.01625" lon="0.85941">
        <ele>715</ele>
        <time>2021-03-13T13:27:06Z</time>
      </trkpt>
      <trkpt lat="43.01625" lon="0.85941">
        <ele>715</ele>
        <time>2021-03-13T13:27:07Z</time>
      </trkpt>
      <trkpt lat="43.01625" lon="0.85941">
        <ele>715</ele>
        <time>2021-03-13T13:27:08Z</time>
      </trkpt>
      <trkpt lat="43.01625" lon="0.85941">
        <ele>715</ele>
        <time>2021-03-13T13:27:09Z</time>
      </trkpt>
      <trkpt lat="43.01625" lon="0.8594">
        <ele>715</ele>
        <time>2021-03-13T13:27:10Z</time>
      </trkpt>
      <trkpt lat="43.01625" lon="0.8594">
        <ele>715</ele>
        <time>2021-03-13T13:27:11Z</time>
      </trkpt>
      <trkpt lat="43.01625" lon="0.8594">
        <ele>715</ele>
        <time>2021-03-13T13:27:12Z</time>
      </trkpt>
      <trkpt lat="43.01625" lon="0.8594">
        <ele>715</ele>
        <time>2021-03-13T13:27:13Z</time>
      </trkpt>
      <trkpt lat="43.01625" lon="0.8594">
        <ele>715</ele>
        <time>2021-03-13T13:27:14Z</time>
      </trkpt>
      <trkpt lat="43.01625" lon="0.8594">
        <ele>715</ele>
        <time>2021-03-13T13:27:15Z</time>
      </trkpt>
      <trkpt lat="43.01625" lon="0.8594">
        <ele>715</ele>
        <time>2021-03-13T13:27:16Z</time>
      </trkpt>
      <trkpt lat="43.01625" lon="0.8594">
        <ele>715</ele>
        <time>2021-03-13T13:27:17Z</time>
      </trkpt>
      <trkpt lat="43.01625" lon="0.8594">
        <ele>715</ele>
        <time>2021-03-13T13:27:18Z</time>
      </trkpt>
      <trkpt lat="43.01625" lon="0.8594">
        <ele>715</ele>
        <time>2021-03-13T13:27:19Z</time>
      </trkpt>
      <trkpt lat="43.01625" lon="0.8594">
        <ele>714</ele>
        <time>2021-03-13T13:27:20Z</time>
      </trkpt>
      <trkpt lat="43.01625" lon="0.8594">
        <ele>714</ele>
        <time>2021-03-13T13:27:21Z</time>
      </trkpt>
      <trkpt lat="43.01625" lon="0.8594">
        <ele>714</ele>
        <time>2021-03-13T13:27:22Z</time>
      </trkpt>
      <trkpt lat="43.01625" lon="0.8594">
        <ele>714</ele>
        <time>2021-03-13T13:27:23Z</time>
      </trkpt>
      <trkpt lat="43.01625" lon="0.8594">
        <ele>714</ele>
        <time>2021-03-13T13:27:24Z</time>
      </trkpt>
      <trkpt lat="43.01625" lon="0.8594">
        <ele>714</ele>
        <time>2021-03-13T13:27:25Z</time>
      </trkpt>
      <trkpt lat="43.01625" lon="0.8594">
        <ele>714</ele>
        <time>2021-03-13T13:27:26Z</time>
      </trkpt>
      <trkpt lat="43.01625" lon="0.8594">
        <ele>714</ele>
        <time>2021-03-13T13:27:27Z</time>
      </trkpt>
      <trkpt lat="43.01625" lon="0.8594">
        <ele>714</ele>
        <time>2021-03-13T13:27:28Z</time>
      </trkpt>
      <trkpt lat="43.01624" lon="0.8594">
        <ele>714</ele>
        <time>2021-03-13T13:27:29Z</time>
      </trkpt>
      <trkpt lat="43.01624" lon="0.8594">
        <ele>714</ele>
        <time>2021-03-13T13:27:30Z</time>
      </trkpt>
      <trkpt lat="43.01624" lon="0.8594">
        <ele>714</ele>
        <time>2021-03-13T13:27:31Z</time>
      </trkpt>
      <trkpt lat="43.01624" lon="0.8594">
        <ele>714</ele>
        <time>2021-03-13T13:27:32Z</time>
      </trkpt>
      <trkpt lat="43.01624" lon="0.8594">
        <ele>714</ele>
        <time>2021-03-13T13:27:33Z</time>
      </trkpt>
      <trkpt lat="43.01624" lon="0.8594">
        <ele>714</ele>
        <time>2021-03-13T13:27:34Z</time>
      </trkpt>
      <trkpt lat="43.01624" lon="0.8594">
        <ele>714</ele>
        <time>2021-03-13T13:27:35Z</time>
      </trkpt>
      <trkpt lat="43.01624" lon="0.8594">
        <ele>714</ele>
        <time>2021-03-13T13:27:36Z</time>
      </trkpt>
      <trkpt lat="43.01624" lon="0.8594">
        <ele>714</ele>
        <time>2021-03-13T13:27:37Z</time>
      </trkpt>
      <trkpt lat="43.01624" lon="0.8594">
        <ele>714</ele>
        <time>2021-03-13T13:27:38Z</time>
      </trkpt>
      <trkpt lat="43.01624" lon="0.8594">
        <ele>714</ele>
        <time>2021-03-13T13:27:39Z</time>
      </trkpt>
      <trkpt lat="43.01624" lon="0.8594">
        <ele>715</ele>
        <time>2021-03-13T13:27:40Z</time>
      </trkpt>
      <trkpt lat="43.01624" lon="0.8594">
        <ele>715</ele>
        <time>2021-03-13T13:27:41Z</time>
      </trkpt>
      <trkpt lat="43.01624" lon="0.8594">
        <ele>715</ele>
        <time>2021-03-13T13:27:42Z</time>
      </trkpt>
      <trkpt lat="43.01624" lon="0.8594">
        <ele>715</ele>
        <time>2021-03-13T13:27:43Z</time>
      </trkpt>
      <trkpt lat="43.01624" lon="0.8594">
        <ele>715</ele>
        <time>2021-03-13T13:27:44Z</time>
      </trkpt>
      <trkpt lat="43.01624" lon="0.8594">
        <ele>715</ele>
        <time>2021-03-13T13:27:45Z</time>
      </trkpt>
      <trkpt lat="43.01624" lon="0.8594">
        <ele>715</ele>
        <time>2021-03-13T13:27:46Z</time>
      </trkpt>
      <trkpt lat="43.01624" lon="0.8594">
        <ele>715</ele>
        <time>2021-03-13T13:27:47Z</time>
      </trkpt>
      <trkpt lat="43.01624" lon="0.8594">
        <ele>715</ele>
        <time>2021-03-13T13:27:48Z</time>
      </trkpt>
      <trkpt lat="43.01624" lon="0.8594">
        <ele>715</ele>
        <time>2021-03-13T13:27:49Z</time>
      </trkpt>
      <trkpt lat="43.01624" lon="0.8594">
        <ele>715</ele>
        <time>2021-03-13T13:27:50Z</time>
      </trkpt>
      <trkpt lat="43.01624" lon="0.8594">
        <ele>715</ele>
        <time>2021-03-13T13:27:51Z</time>
      </trkpt>
      <trkpt lat="43.01624" lon="0.8594">
        <ele>715</ele>
        <time>2021-03-13T13:27:52Z</time>
      </trkpt>
      <trkpt lat="43.01624" lon="0.8594">
        <ele>715</ele>
        <time>2021-03-13T13:27:53Z</time>
      </trkpt>
      <trkpt lat="43.01624" lon="0.8594">
        <ele>715</ele>
        <time>2021-03-13T13:27:54Z</time>
      </trkpt>
      <trkpt lat="43.01624" lon="0.8594">
        <ele>715</ele>
        <time>2021-03-13T13:27:55Z</time>
      </trkpt>
      <trkpt lat="43.01624" lon="0.8594">
        <ele>715</ele>
        <time>2021-03-13T13:27:56Z</time>
      </trkpt>
      <trkpt lat="43.01624" lon="0.8594">
        <ele>715</ele>
        <time>2021-03-13T13:27:57Z</time>
      </trkpt>
      <trkpt lat="43.01624" lon="0.8594">
        <ele>715</ele>
        <time>2021-03-13T13:27:58Z</time>
      </trkpt>
      <trkpt lat="43.01624" lon="0.8594">
        <ele>715</ele>
        <time>2021-03-13T13:27:59Z</time>
      </trkpt>
      <trkpt lat="43.01624" lon="0.8594">
        <ele>714</ele>
        <time>2021-03-13T13:28:00Z</time>
      </trkpt>
      <trkpt lat="43.01624" lon="0.8594">
        <ele>714</ele>
        <time>2021-03-13T13:28:01Z</time>
      </trkpt>
      <trkpt lat="43.01624" lon="0.8594">
        <ele>714</ele>
        <time>2021-03-13T13:28:02Z</time>
      </trkpt>
      <trkpt lat="43.01623" lon="0.8594">
        <ele>714</ele>
        <time>2021-03-13T13:28:03Z</time>
      </trkpt>
      <trkpt lat="43.01623" lon="0.8594">
        <ele>714</ele>
        <time>2021-03-13T13:28:04Z</time>
      </trkpt>
      <trkpt lat="43.01623" lon="0.8594">
        <ele>714</ele>
        <time>2021-03-13T13:28:05Z</time>
      </trkpt>
      <trkpt lat="43.01623" lon="0.8594">
        <ele>714</ele>
        <time>2021-03-13T13:28:06Z</time>
      </trkpt>
      <trkpt lat="43.01623" lon="0.8594">
        <ele>714</ele>
        <time>2021-03-13T13:28:07Z</time>
      </trkpt>
      <trkpt lat="43.01623" lon="0.8594">
        <ele>714</ele>
        <time>2021-03-13T13:28:08Z</time>
      </trkpt>
      <trkpt lat="43.01623" lon="0.8594">
        <ele>714</ele>
        <time>2021-03-13T13:28:09Z</time>
      </trkpt>
      <trkpt lat="43.01623" lon="0.8594">
        <ele>714</ele>
        <time>2021-03-13T13:28:10Z</time>
      </trkpt>
      <trkpt lat="43.01623" lon="0.8594">
        <ele>714</ele>
        <time>2021-03-13T13:28:11Z</time>
      </trkpt>
      <trkpt lat="43.01623" lon="0.8594">
        <ele>714</ele>
        <time>2021-03-13T13:28:12Z</time>
      </trkpt>
      <trkpt lat="43.01623" lon="0.8594">
        <ele>714</ele>
        <time>2021-03-13T13:28:13Z</time>
      </trkpt>
      <trkpt lat="43.01623" lon="0.8594">
        <ele>714</ele>
        <time>2021-03-13T13:28:14Z</time>
      </trkpt>
      <trkpt lat="43.01623" lon="0.8594">
        <ele>714</ele>
        <time>2021-03-13T13:28:15Z</time>
      </trkpt>
      <trkpt lat="43.01623" lon="0.8594">
        <ele>714</ele>
        <time>2021-03-13T13:28:16Z</time>
      </trkpt>
      <trkpt lat="43.01623" lon="0.8594">
        <ele>714</ele>
        <time>2021-03-13T13:28:17Z</time>
      </trkpt>
      <trkpt lat="43.01623" lon="0.8594">
        <ele>714</ele>
        <time>2021-03-13T13:28:18Z</time>
      </trkpt>
      <trkpt lat="43.01623" lon="0.8594">
        <ele>714</ele>
        <time>2021-03-13T13:28:19Z</time>
      </trkpt>
      <trkpt lat="43.01623" lon="0.8594">
        <ele>714</ele>
        <time>2021-03-13T13:28:20Z</time>
      </trkpt>
      <trkpt lat="43.01623" lon="0.8594">
        <ele>714</ele>
        <time>2021-03-13T13:28:21Z</time>
      </trkpt>
      <trkpt lat="43.01623" lon="0.8594">
        <ele>714</ele>
        <time>2021-03-13T13:28:22Z</time>
      </trkpt>
      <trkpt lat="43.01623" lon="0.8594">
        <ele>714</ele>
        <time>2021-03-13T13:28:23Z</time>
      </trkpt>
      <trkpt lat="43.01623" lon="0.8594">
        <ele>714</ele>
        <time>2021-03-13T13:28:24Z</time>
      </trkpt>
      <trkpt lat="43.01623" lon="0.8594">
        <ele>714</ele>
        <time>2021-03-13T13:28:25Z</time>
      </trkpt>
      <trkpt lat="43.01623" lon="0.8594">
        <ele>714</ele>
        <time>2021-03-13T13:28:26Z</time>
      </trkpt>
      <trkpt lat="43.01623" lon="0.8594">
        <ele>714</ele>
        <time>2021-03-13T13:28:27Z</time>
      </trkpt>
      <trkpt lat="43.01623" lon="0.8594">
        <ele>714</ele>
        <time>2021-03-13T13:28:28Z</time>
      </trkpt>
      <trkpt lat="43.01623" lon="0.8594">
        <ele>714</ele>
        <time>2021-03-13T13:28:29Z</time>
      </trkpt>
      <trkpt lat="43.01623" lon="0.8594">
        <ele>715</ele>
        <time>2021-03-13T13:28:30Z</time>
      </trkpt>
      <trkpt lat="43.01623" lon="0.8594">
        <ele>715</ele>
        <time>2021-03-13T13:28:31Z</time>
      </trkpt>
      <trkpt lat="43.01623" lon="0.8594">
        <ele>715</ele>
        <time>2021-03-13T13:28:32Z</time>
      </trkpt>
      <trkpt lat="43.01623" lon="0.8594">
        <ele>715</ele>
        <time>2021-03-13T13:28:33Z</time>
      </trkpt>
      <trkpt lat="43.01623" lon="0.8594">
        <ele>715</ele>
        <time>2021-03-13T13:28:34Z</time>
      </trkpt>
      <trkpt lat="43.01623" lon="0.8594">
        <ele>715</ele>
        <time>2021-03-13T13:28:35Z</time>
      </trkpt>
      <trkpt lat="43.01623" lon="0.8594">
        <ele>715</ele>
        <time>2021-03-13T13:28:36Z</time>
      </trkpt>
      <trkpt lat="43.01623" lon="0.8594">
        <ele>715</ele>
        <time>2021-03-13T13:28:37Z</time>
      </trkpt>
      <trkpt lat="43.01622" lon="0.8594">
        <ele>715</ele>
        <time>2021-03-13T13:28:38Z</time>
      </trkpt>
      <trkpt lat="43.01622" lon="0.8594">
        <ele>715</ele>
        <time>2021-03-13T13:28:39Z</time>
      </trkpt>
      <trkpt lat="43.01622" lon="0.8594">
        <ele>715</ele>
        <time>2021-03-13T13:28:40Z</time>
      </trkpt>
      <trkpt lat="43.01622" lon="0.8594">
        <ele>715</ele>
        <time>2021-03-13T13:28:41Z</time>
      </trkpt>
      <trkpt lat="43.01622" lon="0.8594">
        <ele>715</ele>
        <time>2021-03-13T13:28:42Z</time>
      </trkpt>
      <trkpt lat="43.01622" lon="0.8594">
        <ele>715</ele>
        <time>2021-03-13T13:28:43Z</time>
      </trkpt>
      <trkpt lat="43.01622" lon="0.8594">
        <ele>715</ele>
        <time>2021-03-13T13:28:44Z</time>
      </trkpt>
      <trkpt lat="43.01622" lon="0.8594">
        <ele>715</ele>
        <time>2021-03-13T13:28:45Z</time>
      </trkpt>
      <trkpt lat="43.01622" lon="0.8594">
        <ele>715</ele>
        <time>2021-03-13T13:28:46Z</time>
      </trkpt>
      <trkpt lat="43.01622" lon="0.8594">
        <ele>715</ele>
        <time>2021-03-13T13:28:47Z</time>
      </trkpt>
      <trkpt lat="43.01622" lon="0.8594">
        <ele>715</ele>
        <time>2021-03-13T13:28:48Z</time>
      </trkpt>
      <trkpt lat="43.01622" lon="0.8594">
        <ele>715</ele>
        <time>2021-03-13T13:28:49Z</time>
      </trkpt>
      <trkpt lat="43.01621" lon="0.85939">
        <ele>714</ele>
        <time>2021-03-13T13:28:50Z</time>
      </trkpt>
      <trkpt lat="43.0162" lon="0.85938">
        <ele>714</ele>
        <time>2021-03-13T13:28:51Z</time>
      </trkpt>
      <trkpt lat="43.01619" lon="0.85938">
        <ele>714</ele>
        <time>2021-03-13T13:28:52Z</time>
      </trkpt>
      <trkpt lat="43.01618" lon="0.85937">
        <ele>714</ele>
        <time>2021-03-13T13:28:53Z</time>
      </trkpt>
      <trkpt lat="43.01618" lon="0.85937">
        <ele>714</ele>
        <time>2021-03-13T13:28:54Z</time>
      </trkpt>
      <trkpt lat="43.01614" lon="0.85933">
        <ele>714</ele>
        <time>2021-03-13T13:28:55Z</time>
      </trkpt>
      <trkpt lat="43.01614" lon="0.85933">
        <ele>714</ele>
        <time>2021-03-13T13:28:56Z</time>
      </trkpt>
      <trkpt lat="43.01614" lon="0.85927">
        <ele>714</ele>
        <time>2021-03-13T13:28:57Z</time>
      </trkpt>
      <trkpt lat="43.01614" lon="0.85927">
        <ele>714</ele>
        <time>2021-03-13T13:28:58Z</time>
      </trkpt>
      <trkpt lat="43.01614" lon="0.85919">
        <ele>714</ele>
        <time>2021-03-13T13:28:59Z</time>
      </trkpt>
      <trkpt lat="43.01614" lon="0.85919">
        <ele>716</ele>
        <time>2021-03-13T13:29:00Z</time>
      </trkpt>
      <trkpt lat="43.01613" lon="0.85911">
        <ele>716</ele>
        <time>2021-03-13T13:29:01Z</time>
      </trkpt>
      <trkpt lat="43.01613" lon="0.85911">
        <ele>716</ele>
        <time>2021-03-13T13:29:02Z</time>
      </trkpt>
      <trkpt lat="43.01613" lon="0.859">
        <ele>716</ele>
        <time>2021-03-13T13:29:03Z</time>
      </trkpt>
      <trkpt lat="43.01613" lon="0.85898">
        <ele>716</ele>
        <time>2021-03-13T13:29:04Z</time>
      </trkpt>
      <trkpt lat="43.01613" lon="0.85898">
        <ele>716</ele>
        <time>2021-03-13T13:29:05Z</time>
      </trkpt>
      <trkpt lat="43.01612" lon="0.8589">
        <ele>716</ele>
        <time>2021-03-13T13:29:06Z</time>
      </trkpt>
      <trkpt lat="43.01612" lon="0.8589">
        <ele>716</ele>
        <time>2021-03-13T13:29:07Z</time>
      </trkpt>
      <trkpt lat="43.01611" lon="0.8588">
        <ele>716</ele>
        <time>2021-03-13T13:29:08Z</time>
      </trkpt>
      <trkpt lat="43.01611" lon="0.85877">
        <ele>716</ele>
        <time>2021-03-13T13:29:09Z</time>
      </trkpt>
      <trkpt lat="43.0161" lon="0.85873">
        <ele>716</ele>
        <time>2021-03-13T13:29:10Z</time>
      </trkpt>
      <trkpt lat="43.0161" lon="0.85873">
        <ele>716</ele>
        <time>2021-03-13T13:29:11Z</time>
      </trkpt>
      <trkpt lat="43.01609" lon="0.85865">
        <ele>716</ele>
        <time>2021-03-13T13:29:12Z</time>
      </trkpt>
      <trkpt lat="43.01609" lon="0.85865">
        <ele>716</ele>
        <time>2021-03-13T13:29:13Z</time>
      </trkpt>
      <trkpt lat="43.01608" lon="0.85857">
        <ele>716</ele>
        <time>2021-03-13T13:29:14Z</time>
      </trkpt>
      <trkpt lat="43.01608" lon="0.85857">
        <ele>716</ele>
        <time>2021-03-13T13:29:15Z</time>
      </trkpt>
      <trkpt lat="43.01607" lon="0.85849">
        <ele>716</ele>
        <time>2021-03-13T13:29:16Z</time>
      </trkpt>
      <trkpt lat="43.01607" lon="0.85849">
        <ele>716</ele>
        <time>2021-03-13T13:29:17Z</time>
      </trkpt>
      <trkpt lat="43.01607" lon="0.85841">
        <ele>716</ele>
        <time>2021-03-13T13:29:18Z</time>
      </trkpt>
      <trkpt lat="43.01607" lon="0.85841">
        <ele>716</ele>
        <time>2021-03-13T13:29:19Z</time>
      </trkpt>
      <trkpt lat="43.01605" lon="0.85833">
        <ele>717</ele>
        <time>2021-03-13T13:29:20Z</time>
      </trkpt>
      <trkpt lat="43.01605" lon="0.85833">
        <ele>717</ele>
        <time>2021-03-13T13:29:21Z</time>
      </trkpt>
      <trkpt lat="43.01604" lon="0.85824">
        <ele>717</ele>
        <time>2021-03-13T13:29:22Z</time>
      </trkpt>
      <trkpt lat="43.01604" lon="0.85824">
        <ele>717</ele>
        <time>2021-03-13T13:29:23Z</time>
      </trkpt>
      <trkpt lat="43.01602" lon="0.85816">
        <ele>717</ele>
        <time>2021-03-13T13:29:24Z</time>
      </trkpt>
      <trkpt lat="43.01602" lon="0.85816">
        <ele>717</ele>
        <time>2021-03-13T13:29:25Z</time>
      </trkpt>
      <trkpt lat="43.016" lon="0.85809">
        <ele>717</ele>
        <time>2021-03-13T13:29:26Z</time>
      </trkpt>
      <trkpt lat="43.016" lon="0.85809">
        <ele>717</ele>
        <time>2021-03-13T13:29:27Z</time>
      </trkpt>
      <trkpt lat="43.01599" lon="0.85806">
        <ele>717</ele>
        <time>2021-03-13T13:29:28Z</time>
      </trkpt>
      <trkpt lat="43.01598" lon="0.85803">
        <ele>717</ele>
        <time>2021-03-13T13:29:29Z</time>
      </trkpt>
      <trkpt lat="43.01597" lon="0.858">
        <ele>718</ele>
        <time>2021-03-13T13:29:30Z</time>
      </trkpt>
      <trkpt lat="43.01595" lon="0.85797">
        <ele>718</ele>
        <time>2021-03-13T13:29:31Z</time>
      </trkpt>
      <trkpt lat="43.01594" lon="0.85794">
        <ele>718</ele>
        <time>2021-03-13T13:29:32Z</time>
      </trkpt>
      <trkpt lat="43.01592" lon="0.85791">
        <ele>718</ele>
        <time>2021-03-13T13:29:33Z</time>
      </trkpt>
      <trkpt lat="43.01591" lon="0.85787">
        <ele>718</ele>
        <time>2021-03-13T13:29:34Z</time>
      </trkpt>
      <trkpt lat="43.01589" lon="0.85784">
        <ele>718</ele>
        <time>2021-03-13T13:29:35Z</time>
      </trkpt>
      <trkpt lat="43.01587" lon="0.85781">
        <ele>718</ele>
        <time>2021-03-13T13:29:36Z</time>
      </trkpt>
      <trkpt lat="43.01585" lon="0.85778">
        <ele>718</ele>
        <time>2021-03-13T13:29:37Z</time>
      </trkpt>
      <trkpt lat="43.01582" lon="0.85775">
        <ele>718</ele>
        <time>2021-03-13T13:29:38Z</time>
      </trkpt>
      <trkpt lat="43.0158" lon="0.85771">
        <ele>718</ele>
        <time>2021-03-13T13:29:39Z</time>
      </trkpt>
      <trkpt lat="43.01577" lon="0.85768">
        <ele>718</ele>
        <time>2021-03-13T13:29:40Z</time>
      </trkpt>
      <trkpt lat="43.01574" lon="0.85766">
        <ele>718</ele>
        <time>2021-03-13T13:29:41Z</time>
      </trkpt>
      <trkpt lat="43.0157" lon="0.85763">
        <ele>718</ele>
        <time>2021-03-13T13:29:42Z</time>
      </trkpt>
      <trkpt lat="43.01566" lon="0.8576">
        <ele>718</ele>
        <time>2021-03-13T13:29:43Z</time>
      </trkpt>
      <trkpt lat="43.01563" lon="0.85758">
        <ele>718</ele>
        <time>2021-03-13T13:29:44Z</time>
      </trkpt>
      <trkpt lat="43.01559" lon="0.85756">
        <ele>718</ele>
        <time>2021-03-13T13:29:45Z</time>
      </trkpt>
      <trkpt lat="43.01556" lon="0.85754">
        <ele>718</ele>
        <time>2021-03-13T13:29:46Z</time>
      </trkpt>
      <trkpt lat="43.01551" lon="0.85752">
        <ele>718</ele>
        <time>2021-03-13T13:29:47Z</time>
      </trkpt>
      <trkpt lat="43.01547" lon="0.85751">
        <ele>718</ele>
        <time>2021-03-13T13:29:48Z</time>
      </trkpt>
      <trkpt lat="43.01543" lon="0.8575">
        <ele>718</ele>
        <time>2021-03-13T13:29:49Z</time>
      </trkpt>
      <trkpt lat="43.01538" lon="0.85749">
        <ele>718</ele>
        <time>2021-03-13T13:29:50Z</time>
      </trkpt>
      <trkpt lat="43.01534" lon="0.85748">
        <ele>718</ele>
        <time>2021-03-13T13:29:51Z</time>
      </trkpt>
      <trkpt lat="43.0153" lon="0.85747">
        <ele>718</ele>
        <time>2021-03-13T13:29:52Z</time>
      </trkpt>
      <trkpt lat="43.01525" lon="0.85746">
        <ele>718</ele>
        <time>2021-03-13T13:29:53Z</time>
      </trkpt>
      <trkpt lat="43.0152" lon="0.85745">
        <ele>718</ele>
        <time>2021-03-13T13:29:54Z</time>
      </trkpt>
      <trkpt lat="43.01516" lon="0.85744">
        <ele>718</ele>
        <time>2021-03-13T13:29:55Z</time>
      </trkpt>
      <trkpt lat="43.0151" lon="0.85743">
        <ele>718</ele>
        <time>2021-03-13T13:29:56Z</time>
      </trkpt>
      <trkpt lat="43.01503" lon="0.85742">
        <ele>718</ele>
        <time>2021-03-13T13:29:57Z</time>
      </trkpt>
      <trkpt lat="43.01497" lon="0.85741">
        <ele>718</ele>
        <time>2021-03-13T13:29:58Z</time>
      </trkpt>
      <trkpt lat="43.01492" lon="0.8574">
        <ele>718</ele>
        <time>2021-03-13T13:29:59Z</time>
      </trkpt>
      <trkpt lat="43.01487" lon="0.85739">
        <ele>717</ele>
        <time>2021-03-13T13:30:00Z</time>
      </trkpt>
      <trkpt lat="43.01482" lon="0.85738">
        <ele>717</ele>
        <time>2021-03-13T13:30:01Z</time>
      </trkpt>
      <trkpt lat="43.01478" lon="0.85737">
        <ele>717</ele>
        <time>2021-03-13T13:30:02Z</time>
      </trkpt>
      <trkpt lat="43.01478" lon="0.85737">
        <ele>717</ele>
        <time>2021-03-13T13:30:03Z</time>
      </trkpt>
      <trkpt lat="43.01468" lon="0.85735">
        <ele>717</ele>
        <time>2021-03-13T13:30:04Z</time>
      </trkpt>
      <trkpt lat="43.01468" lon="0.85735">
        <ele>717</ele>
        <time>2021-03-13T13:30:05Z</time>
      </trkpt>
      <trkpt lat="43.01459" lon="0.85731">
        <ele>717</ele>
        <time>2021-03-13T13:30:06Z</time>
      </trkpt>
      <trkpt lat="43.01459" lon="0.85731">
        <ele>717</ele>
        <time>2021-03-13T13:30:07Z</time>
      </trkpt>
      <trkpt lat="43.0145" lon="0.85725">
        <ele>717</ele>
        <time>2021-03-13T13:30:08Z</time>
      </trkpt>
      <trkpt lat="43.0145" lon="0.85725">
        <ele>717</ele>
        <time>2021-03-13T13:30:09Z</time>
      </trkpt>
      <trkpt lat="43.01441" lon="0.85719">
        <ele>717</ele>
        <time>2021-03-13T13:30:10Z</time>
      </trkpt>
      <trkpt lat="43.01441" lon="0.85719">
        <ele>717</ele>
        <time>2021-03-13T13:30:11Z</time>
      </trkpt>
      <trkpt lat="43.01432" lon="0.85714">
        <ele>717</ele>
        <time>2021-03-13T13:30:12Z</time>
      </trkpt>
      <trkpt lat="43.01432" lon="0.85714">
        <ele>717</ele>
        <time>2021-03-13T13:30:13Z</time>
      </trkpt>
      <trkpt lat="43.01424" lon="0.85706">
        <ele>717</ele>
        <time>2021-03-13T13:30:14Z</time>
      </trkpt>
      <trkpt lat="43.01424" lon="0.85706">
        <ele>717</ele>
        <time>2021-03-13T13:30:15Z</time>
      </trkpt>
      <trkpt lat="43.01416" lon="0.85691">
        <ele>717</ele>
        <time>2021-03-13T13:30:16Z</time>
      </trkpt>
      <trkpt lat="43.01415" lon="0.85688">
        <ele>717</ele>
        <time>2021-03-13T13:30:17Z</time>
      </trkpt>
      <trkpt lat="43.0141" lon="0.85678">
        <ele>717</ele>
        <time>2021-03-13T13:30:18Z</time>
      </trkpt>
      <trkpt lat="43.01409" lon="0.85675">
        <ele>717</ele>
        <time>2021-03-13T13:30:19Z</time>
      </trkpt>
      <trkpt lat="43.01405" lon="0.85665">
        <ele>717</ele>
        <time>2021-03-13T13:30:20Z</time>
      </trkpt>
      <trkpt lat="43.01404" lon="0.85661">
        <ele>717</ele>
        <time>2021-03-13T13:30:21Z</time>
      </trkpt>
      <trkpt lat="43.014" lon="0.85652">
        <ele>717</ele>
        <time>2021-03-13T13:30:22Z</time>
      </trkpt>
      <trkpt lat="43.01399" lon="0.85649">
        <ele>717</ele>
        <time>2021-03-13T13:30:23Z</time>
      </trkpt>
      <trkpt lat="43.01397" lon="0.85642">
        <ele>717</ele>
        <time>2021-03-13T13:30:24Z</time>
      </trkpt>
      <trkpt lat="43.01397" lon="0.85642">
        <ele>717</ele>
        <time>2021-03-13T13:30:25Z</time>
      </trkpt>
      <trkpt lat="43.01392" lon="0.85627">
        <ele>717</ele>
        <time>2021-03-13T13:30:26Z</time>
      </trkpt>
      <trkpt lat="43.01391" lon="0.85624">
        <ele>717</ele>
        <time>2021-03-13T13:30:27Z</time>
      </trkpt>
      <trkpt lat="43.01389" lon="0.85618">
        <ele>717</ele>
        <time>2021-03-13T13:30:28Z</time>
      </trkpt>
      <trkpt lat="43.01387" lon="0.85611">
        <ele>717</ele>
        <time>2021-03-13T13:30:29Z</time>
      </trkpt>
      <trkpt lat="43.01385" lon="0.85604">
        <ele>717</ele>
        <time>2021-03-13T13:30:30Z</time>
      </trkpt>
      <trkpt lat="43.01385" lon="0.85604">
        <ele>717</ele>
        <time>2021-03-13T13:30:31Z</time>
      </trkpt>
      <trkpt lat="43.01382" lon="0.85587">
        <ele>717</ele>
        <time>2021-03-13T13:30:32Z</time>
      </trkpt>
      <trkpt lat="43.01382" lon="0.85583">
        <ele>717</ele>
        <time>2021-03-13T13:30:33Z</time>
      </trkpt>
      <trkpt lat="43.01381" lon="0.85571">
        <ele>717</ele>
        <time>2021-03-13T13:30:34Z</time>
      </trkpt>
      <trkpt lat="43.01381" lon="0.85567">
        <ele>717</ele>
        <time>2021-03-13T13:30:35Z</time>
      </trkpt>
      <trkpt lat="43.01381" lon="0.85555">
        <ele>717</ele>
        <time>2021-03-13T13:30:36Z</time>
      </trkpt>
      <trkpt lat="43.01382" lon="0.85551">
        <ele>717</ele>
        <time>2021-03-13T13:30:37Z</time>
      </trkpt>
      <trkpt lat="43.01382" lon="0.8554">
        <ele>717</ele>
        <time>2021-03-13T13:30:38Z</time>
      </trkpt>
      <trkpt lat="43.01383" lon="0.85536">
        <ele>717</ele>
        <time>2021-03-13T13:30:39Z</time>
      </trkpt>
      <trkpt lat="43.01384" lon="0.85525">
        <ele>714</ele>
        <time>2021-03-13T13:30:40Z</time>
      </trkpt>
      <trkpt lat="43.01384" lon="0.85522">
        <ele>714</ele>
        <time>2021-03-13T13:30:41Z</time>
      </trkpt>
      <trkpt lat="43.01384" lon="0.85512">
        <ele>714</ele>
        <time>2021-03-13T13:30:42Z</time>
      </trkpt>
      <trkpt lat="43.01384" lon="0.85508">
        <ele>714</ele>
        <time>2021-03-13T13:30:43Z</time>
      </trkpt>
      <trkpt lat="43.01384" lon="0.85502">
        <ele>714</ele>
        <time>2021-03-13T13:30:44Z</time>
      </trkpt>
      <trkpt lat="43.01384" lon="0.85502">
        <ele>712</ele>
        <time>2021-03-13T13:30:45Z</time>
      </trkpt>
      <trkpt lat="43.01383" lon="0.85484">
        <ele>712</ele>
        <time>2021-03-13T13:30:46Z</time>
      </trkpt>
      <trkpt lat="43.01382" lon="0.8548">
        <ele>712</ele>
        <time>2021-03-13T13:30:47Z</time>
      </trkpt>
      <trkpt lat="43.01382" lon="0.85474">
        <ele>712</ele>
        <time>2021-03-13T13:30:48Z</time>
      </trkpt>
      <trkpt lat="43.01382" lon="0.85474">
        <ele>712</ele>
        <time>2021-03-13T13:30:49Z</time>
      </trkpt>
      <trkpt lat="43.01378" lon="0.85462">
        <ele>709</ele>
        <time>2021-03-13T13:30:50Z</time>
      </trkpt>
      <trkpt lat="43.01378" lon="0.85462">
        <ele>709</ele>
        <time>2021-03-13T13:30:51Z</time>
      </trkpt>
      <trkpt lat="43.01372" lon="0.85452">
        <ele>709</ele>
        <time>2021-03-13T13:30:52Z</time>
      </trkpt>
      <trkpt lat="43.01372" lon="0.85452">
        <ele>709</ele>
        <time>2021-03-13T13:30:53Z</time>
      </trkpt>
      <trkpt lat="43.01367" lon="0.85441">
        <ele>709</ele>
        <time>2021-03-13T13:30:54Z</time>
      </trkpt>
      <trkpt lat="43.01367" lon="0.85441">
        <ele>707</ele>
        <time>2021-03-13T13:30:55Z</time>
      </trkpt>
      <trkpt lat="43.0136" lon="0.85431">
        <ele>707</ele>
        <time>2021-03-13T13:30:56Z</time>
      </trkpt>
      <trkpt lat="43.0136" lon="0.85431">
        <ele>707</ele>
        <time>2021-03-13T13:30:57Z</time>
      </trkpt>
      <trkpt lat="43.01354" lon="0.85421">
        <ele>707</ele>
        <time>2021-03-13T13:30:58Z</time>
      </trkpt>
      <trkpt lat="43.01354" lon="0.85421">
        <ele>707</ele>
        <time>2021-03-13T13:30:59Z</time>
      </trkpt>
      <trkpt lat="43.01346" lon="0.85408">
        <ele>700</ele>
        <time>2021-03-13T13:31:00Z</time>
      </trkpt>
      <trkpt lat="43.01344" lon="0.85404">
        <ele>700</ele>
        <time>2021-03-13T13:31:01Z</time>
      </trkpt>
      <trkpt lat="43.01339" lon="0.85396">
        <ele>699</ele>
        <time>2021-03-13T13:31:02Z</time>
      </trkpt>
      <trkpt lat="43.01337" lon="0.85394">
        <ele>699</ele>
        <time>2021-03-13T13:31:03Z</time>
      </trkpt>
      <trkpt lat="43.01333" lon="0.85389">
        <ele>697</ele>
        <time>2021-03-13T13:31:04Z</time>
      </trkpt>
      <trkpt lat="43.01333" lon="0.85389">
        <ele>696</ele>
        <time>2021-03-13T13:31:05Z</time>
      </trkpt>
      <trkpt lat="43.01328" lon="0.85384">
        <ele>696</ele>
        <time>2021-03-13T13:31:06Z</time>
      </trkpt>
      <trkpt lat="43.01323" lon="0.85378">
        <ele>694</ele>
        <time>2021-03-13T13:31:07Z</time>
      </trkpt>
      <trkpt lat="43.01318" lon="0.85373">
        <ele>693</ele>
        <time>2021-03-13T13:31:08Z</time>
      </trkpt>
      <trkpt lat="43.0131" lon="0.85368">
        <ele>692</ele>
        <time>2021-03-13T13:31:09Z</time>
      </trkpt>
      <trkpt lat="43.01307" lon="0.85366">
        <ele>691</ele>
        <time>2021-03-13T13:31:10Z</time>
      </trkpt>
      <trkpt lat="43.01299" lon="0.8536">
        <ele>691</ele>
        <time>2021-03-13T13:31:11Z</time>
      </trkpt>
      <trkpt lat="43.01296" lon="0.85359">
        <ele>691</ele>
        <time>2021-03-13T13:31:12Z</time>
      </trkpt>
      <trkpt lat="43.01288" lon="0.85353">
        <ele>690</ele>
        <time>2021-03-13T13:31:13Z</time>
      </trkpt>
      <trkpt lat="43.01286" lon="0.85352">
        <ele>689</ele>
        <time>2021-03-13T13:31:14Z</time>
      </trkpt>
      <trkpt lat="43.01279" lon="0.85346">
        <ele>688</ele>
        <time>2021-03-13T13:31:15Z</time>
      </trkpt>
      <trkpt lat="43.01277" lon="0.85344">
        <ele>687</ele>
        <time>2021-03-13T13:31:16Z</time>
      </trkpt>
      <trkpt lat="43.01271" lon="0.85336">
        <ele>686</ele>
        <time>2021-03-13T13:31:17Z</time>
      </trkpt>
      <trkpt lat="43.01269" lon="0.85334">
        <ele>686</ele>
        <time>2021-03-13T13:31:18Z</time>
      </trkpt>
      <trkpt lat="43.01265" lon="0.85329">
        <ele>685</ele>
        <time>2021-03-13T13:31:19Z</time>
      </trkpt>
      <trkpt lat="43.01265" lon="0.85329">
        <ele>683</ele>
        <time>2021-03-13T13:31:20Z</time>
      </trkpt>
      <trkpt lat="43.01263" lon="0.85324">
        <ele>682</ele>
        <time>2021-03-13T13:31:21Z</time>
      </trkpt>
      <trkpt lat="43.01261" lon="0.85319">
        <ele>682</ele>
        <time>2021-03-13T13:31:22Z</time>
      </trkpt>
      <trkpt lat="43.0126" lon="0.85314">
        <ele>682</ele>
        <time>2021-03-13T13:31:23Z</time>
      </trkpt>
      <trkpt lat="43.01257" lon="0.85306">
        <ele>682</ele>
        <time>2021-03-13T13:31:24Z</time>
      </trkpt>
      <trkpt lat="43.01254" lon="0.85298">
        <ele>681</ele>
        <time>2021-03-13T13:31:25Z</time>
      </trkpt>
      <trkpt lat="43.01251" lon="0.8529">
        <ele>680</ele>
        <time>2021-03-13T13:31:26Z</time>
      </trkpt>
      <trkpt lat="43.01248" lon="0.85284">
        <ele>679</ele>
        <time>2021-03-13T13:31:27Z</time>
      </trkpt>
      <trkpt lat="43.01248" lon="0.85284">
        <ele>678</ele>
        <time>2021-03-13T13:31:28Z</time>
      </trkpt>
      <trkpt lat="43.01246" lon="0.85283">
        <ele>677</ele>
        <time>2021-03-13T13:31:29Z</time>
      </trkpt>
      <trkpt lat="43.01244" lon="0.85281">
        <ele>676</ele>
        <time>2021-03-13T13:31:30Z</time>
      </trkpt>
      <trkpt lat="43.01241" lon="0.8528">
        <ele>675</ele>
        <time>2021-03-13T13:31:31Z</time>
      </trkpt>
      <trkpt lat="43.01239" lon="0.85279">
        <ele>675</ele>
        <time>2021-03-13T13:31:32Z</time>
      </trkpt>
      <trkpt lat="43.01236" lon="0.85277">
        <ele>674</ele>
        <time>2021-03-13T13:31:33Z</time>
      </trkpt>
      <trkpt lat="43.01234" lon="0.85274">
        <ele>674</ele>
        <time>2021-03-13T13:31:34Z</time>
      </trkpt>
      <trkpt lat="43.01231" lon="0.85272">
        <ele>674</ele>
        <time>2021-03-13T13:31:35Z</time>
      </trkpt>
      <trkpt lat="43.01228" lon="0.85269">
        <ele>674</ele>
        <time>2021-03-13T13:31:36Z</time>
      </trkpt>
      <trkpt lat="43.01225" lon="0.85267">
        <ele>673</ele>
        <time>2021-03-13T13:31:37Z</time>
      </trkpt>
      <trkpt lat="43.01223" lon="0.85265">
        <ele>673</ele>
        <time>2021-03-13T13:31:38Z</time>
      </trkpt>
      <trkpt lat="43.01218" lon="0.85262">
        <ele>672</ele>
        <time>2021-03-13T13:31:39Z</time>
      </trkpt>
      <trkpt lat="43.01218" lon="0.85262">
        <ele>671</ele>
        <time>2021-03-13T13:31:40Z</time>
      </trkpt>
      <trkpt lat="43.01211" lon="0.85241">
        <ele>671</ele>
        <time>2021-03-13T13:31:41Z</time>
      </trkpt>
      <trkpt lat="43.0121" lon="0.85237">
        <ele>670</ele>
        <time>2021-03-13T13:31:42Z</time>
      </trkpt>
      <trkpt lat="43.01206" lon="0.85225">
        <ele>669</ele>
        <time>2021-03-13T13:31:43Z</time>
      </trkpt>
      <trkpt lat="43.01205" lon="0.85221">
        <ele>668</ele>
        <time>2021-03-13T13:31:44Z</time>
      </trkpt>
      <trkpt lat="43.01203" lon="0.85211">
        <ele>667</ele>
        <time>2021-03-13T13:31:45Z</time>
      </trkpt>
      <trkpt lat="43.01203" lon="0.85208">
        <ele>665</ele>
        <time>2021-03-13T13:31:46Z</time>
      </trkpt>
      <trkpt lat="43.01202" lon="0.85201">
        <ele>664</ele>
        <time>2021-03-13T13:31:47Z</time>
      </trkpt>
      <trkpt lat="43.01202" lon="0.85201">
        <ele>664</ele>
        <time>2021-03-13T13:31:48Z</time>
      </trkpt>
      <trkpt lat="43.01199" lon="0.85184">
        <ele>664</ele>
        <time>2021-03-13T13:31:49Z</time>
      </trkpt>
      <trkpt lat="43.01199" lon="0.85181">
        <ele>662</ele>
        <time>2021-03-13T13:31:50Z</time>
      </trkpt>
      <trkpt lat="43.01198" lon="0.85175">
        <ele>661</ele>
        <time>2021-03-13T13:31:51Z</time>
      </trkpt>
      <trkpt lat="43.01198" lon="0.85175">
        <ele>660</ele>
        <time>2021-03-13T13:31:52Z</time>
      </trkpt>
      <trkpt lat="43.01198" lon="0.85164">
        <ele>659</ele>
        <time>2021-03-13T13:31:53Z</time>
      </trkpt>
      <trkpt lat="43.01198" lon="0.85164">
        <ele>658</ele>
        <time>2021-03-13T13:31:54Z</time>
      </trkpt>
      <trkpt lat="43.01198" lon="0.85159">
        <ele>657</ele>
        <time>2021-03-13T13:31:55Z</time>
      </trkpt>
      <trkpt lat="43.01198" lon="0.85154">
        <ele>656</ele>
        <time>2021-03-13T13:31:56Z</time>
      </trkpt>
      <trkpt lat="43.01198" lon="0.85148">
        <ele>656</ele>
        <time>2021-03-13T13:31:57Z</time>
      </trkpt>
      <trkpt lat="43.01198" lon="0.85144">
        <ele>655</ele>
        <time>2021-03-13T13:31:58Z</time>
      </trkpt>
      <trkpt lat="43.01198" lon="0.85139">
        <ele>655</ele>
        <time>2021-03-13T13:31:59Z</time>
      </trkpt>
      <trkpt lat="43.01198" lon="0.85134">
        <ele>653</ele>
        <time>2021-03-13T13:32:00Z</time>
      </trkpt>
      <trkpt lat="43.01197" lon="0.85127">
        <ele>653</ele>
        <time>2021-03-13T13:32:01Z</time>
      </trkpt>
      <trkpt lat="43.01196" lon="0.85119">
        <ele>652</ele>
        <time>2021-03-13T13:32:02Z</time>
      </trkpt>
      <trkpt lat="43.01194" lon="0.85112">
        <ele>651</ele>
        <time>2021-03-13T13:32:03Z</time>
      </trkpt>
      <trkpt lat="43.01192" lon="0.85105">
        <ele>650</ele>
        <time>2021-03-13T13:32:04Z</time>
      </trkpt>
      <trkpt lat="43.01192" lon="0.85105">
        <ele>649</ele>
        <time>2021-03-13T13:32:05Z</time>
      </trkpt>
      <trkpt lat="43.01189" lon="0.85101">
        <ele>648</ele>
        <time>2021-03-13T13:32:06Z</time>
      </trkpt>
      <trkpt lat="43.01187" lon="0.85096">
        <ele>647</ele>
        <time>2021-03-13T13:32:07Z</time>
      </trkpt>
      <trkpt lat="43.01184" lon="0.85091">
        <ele>646</ele>
        <time>2021-03-13T13:32:08Z</time>
      </trkpt>
      <trkpt lat="43.01182" lon="0.85087">
        <ele>646</ele>
        <time>2021-03-13T13:32:09Z</time>
      </trkpt>
      <trkpt lat="43.01179" lon="0.85083">
        <ele>646</ele>
        <time>2021-03-13T13:32:10Z</time>
      </trkpt>
      <trkpt lat="43.01177" lon="0.8508">
        <ele>645</ele>
        <time>2021-03-13T13:32:11Z</time>
      </trkpt>
      <trkpt lat="43.01173" lon="0.85075">
        <ele>644</ele>
        <time>2021-03-13T13:32:12Z</time>
      </trkpt>
      <trkpt lat="43.0117" lon="0.85071">
        <ele>643</ele>
        <time>2021-03-13T13:32:13Z</time>
      </trkpt>
      <trkpt lat="43.01166" lon="0.85067">
        <ele>642</ele>
        <time>2021-03-13T13:32:14Z</time>
      </trkpt>
      <trkpt lat="43.01165" lon="0.85062">
        <ele>642</ele>
        <time>2021-03-13T13:32:15Z</time>
      </trkpt>
      <trkpt lat="43.01163" lon="0.85057">
        <ele>642</ele>
        <time>2021-03-13T13:32:16Z</time>
      </trkpt>
      <trkpt lat="43.01161" lon="0.85052">
        <ele>641</ele>
        <time>2021-03-13T13:32:17Z</time>
      </trkpt>
      <trkpt lat="43.01162" lon="0.85048">
        <ele>641</ele>
        <time>2021-03-13T13:32:18Z</time>
      </trkpt>
      <trkpt lat="43.01163" lon="0.85045">
        <ele>641</ele>
        <time>2021-03-13T13:32:19Z</time>
      </trkpt>
      <trkpt lat="43.01164" lon="0.85041">
        <ele>641</ele>
        <time>2021-03-13T13:32:20Z</time>
      </trkpt>
      <trkpt lat="43.01165" lon="0.85037">
        <ele>641</ele>
        <time>2021-03-13T13:32:21Z</time>
      </trkpt>
      <trkpt lat="43.01166" lon="0.85037">
        <ele>641</ele>
        <time>2021-03-13T13:32:22Z</time>
      </trkpt>
      <trkpt lat="43.01168" lon="0.85036">
        <ele>641</ele>
        <time>2021-03-13T13:32:23Z</time>
      </trkpt>
      <trkpt lat="43.0117" lon="0.85036">
        <ele>641</ele>
        <time>2021-03-13T13:32:24Z</time>
      </trkpt>
      <trkpt lat="43.01171" lon="0.85036">
        <ele>640</ele>
        <time>2021-03-13T13:32:25Z</time>
      </trkpt>
      <trkpt lat="43.01173" lon="0.85036">
        <ele>640</ele>
        <time>2021-03-13T13:32:26Z</time>
      </trkpt>
      <trkpt lat="43.01175" lon="0.85035">
        <ele>640</ele>
        <time>2021-03-13T13:32:27Z</time>
      </trkpt>
      <trkpt lat="43.01176" lon="0.85034">
        <ele>640</ele>
        <time>2021-03-13T13:32:28Z</time>
      </trkpt>
      <trkpt lat="43.01178" lon="0.85033">
        <ele>640</ele>
        <time>2021-03-13T13:32:29Z</time>
      </trkpt>
      <trkpt lat="43.01179" lon="0.85032">
        <ele>640</ele>
        <time>2021-03-13T13:32:30Z</time>
      </trkpt>
      <trkpt lat="43.01181" lon="0.85031">
        <ele>640</ele>
        <time>2021-03-13T13:32:31Z</time>
      </trkpt>
      <trkpt lat="43.01182" lon="0.85031">
        <ele>640</ele>
        <time>2021-03-13T13:32:32Z</time>
      </trkpt>
      <trkpt lat="43.01184" lon="0.8503">
        <ele>640</ele>
        <time>2021-03-13T13:32:33Z</time>
      </trkpt>
      <trkpt lat="43.01185" lon="0.85028">
        <ele>640</ele>
        <time>2021-03-13T13:32:34Z</time>
      </trkpt>
      <trkpt lat="43.01186" lon="0.85027">
        <ele>640</ele>
        <time>2021-03-13T13:32:35Z</time>
      </trkpt>
      <trkpt lat="43.01188" lon="0.85025">
        <ele>640</ele>
        <time>2021-03-13T13:32:36Z</time>
      </trkpt>
      <trkpt lat="43.01189" lon="0.85024">
        <ele>640</ele>
        <time>2021-03-13T13:32:37Z</time>
      </trkpt>
      <trkpt lat="43.0119" lon="0.85023">
        <ele>640</ele>
        <time>2021-03-13T13:32:38Z</time>
      </trkpt>
      <trkpt lat="43.01192" lon="0.85021">
        <ele>640</ele>
        <time>2021-03-13T13:32:39Z</time>
      </trkpt>
      <trkpt lat="43.01193" lon="0.8502">
        <ele>644</ele>
        <time>2021-03-13T13:32:40Z</time>
      </trkpt>
      <trkpt lat="43.01194" lon="0.85019">
        <ele>644</ele>
        <time>2021-03-13T13:32:41Z</time>
      </trkpt>
      <trkpt lat="43.01196" lon="0.85018">
        <ele>644</ele>
        <time>2021-03-13T13:32:42Z</time>
      </trkpt>
      <trkpt lat="43.01197" lon="0.85017">
        <ele>644</ele>
        <time>2021-03-13T13:32:43Z</time>
      </trkpt>
      <trkpt lat="43.01198" lon="0.85016">
        <ele>644</ele>
        <time>2021-03-13T13:32:44Z</time>
      </trkpt>
      <trkpt lat="43.012" lon="0.85015">
        <ele>646</ele>
        <time>2021-03-13T13:32:45Z</time>
      </trkpt>
      <trkpt lat="43.01201" lon="0.85013">
        <ele>646</ele>
        <time>2021-03-13T13:32:46Z</time>
      </trkpt>
      <trkpt lat="43.01202" lon="0.85012">
        <ele>646</ele>
        <time>2021-03-13T13:32:47Z</time>
      </trkpt>
      <trkpt lat="43.01204" lon="0.8501">
        <ele>646</ele>
        <time>2021-03-13T13:32:48Z</time>
      </trkpt>
      <trkpt lat="43.01205" lon="0.85008">
        <ele>646</ele>
        <time>2021-03-13T13:32:49Z</time>
      </trkpt>
      <trkpt lat="43.01206" lon="0.85007">
        <ele>647</ele>
        <time>2021-03-13T13:32:50Z</time>
      </trkpt>
      <trkpt lat="43.01207" lon="0.85005">
        <ele>647</ele>
        <time>2021-03-13T13:32:51Z</time>
      </trkpt>
      <trkpt lat="43.01209" lon="0.85004">
        <ele>647</ele>
        <time>2021-03-13T13:32:52Z</time>
      </trkpt>
      <trkpt lat="43.01211" lon="0.85002">
        <ele>647</ele>
        <time>2021-03-13T13:32:53Z</time>
      </trkpt>
      <trkpt lat="43.01212" lon="0.85">
        <ele>647</ele>
        <time>2021-03-13T13:32:54Z</time>
      </trkpt>
      <trkpt lat="43.01214" lon="0.84999">
        <ele>649</ele>
        <time>2021-03-13T13:32:55Z</time>
      </trkpt>
      <trkpt lat="43.01215" lon="0.84997">
        <ele>649</ele>
        <time>2021-03-13T13:32:56Z</time>
      </trkpt>
      <trkpt lat="43.01216" lon="0.84997">
        <ele>649</ele>
        <time>2021-03-13T13:32:57Z</time>
      </trkpt>
      <trkpt lat="43.01218" lon="0.84997">
        <ele>649</ele>
        <time>2021-03-13T13:32:58Z</time>
      </trkpt>
      <trkpt lat="43.01219" lon="0.84996">
        <ele>649</ele>
        <time>2021-03-13T13:32:59Z</time>
      </trkpt>
      <trkpt lat="43.0122" lon="0.84996">
        <ele>651</ele>
        <time>2021-03-13T13:33:00Z</time>
      </trkpt>
      <trkpt lat="43.01221" lon="0.84996">
        <ele>651</ele>
        <time>2021-03-13T13:33:01Z</time>
      </trkpt>
      <trkpt lat="43.01223" lon="0.84995">
        <ele>651</ele>
        <time>2021-03-13T13:33:02Z</time>
      </trkpt>
      <trkpt lat="43.01224" lon="0.84995">
        <ele>651</ele>
        <time>2021-03-13T13:33:03Z</time>
      </trkpt>
      <trkpt lat="43.01225" lon="0.84995">
        <ele>651</ele>
        <time>2021-03-13T13:33:04Z</time>
      </trkpt>
      <trkpt lat="43.01227" lon="0.84994">
        <ele>653</ele>
        <time>2021-03-13T13:33:05Z</time>
      </trkpt>
      <trkpt lat="43.01228" lon="0.84992">
        <ele>653</ele>
        <time>2021-03-13T13:33:06Z</time>
      </trkpt>
      <trkpt lat="43.0123" lon="0.84991">
        <ele>653</ele>
        <time>2021-03-13T13:33:07Z</time>
      </trkpt>
      <trkpt lat="43.01232" lon="0.8499">
        <ele>653</ele>
        <time>2021-03-13T13:33:08Z</time>
      </trkpt>
      <trkpt lat="43.01234" lon="0.84989">
        <ele>653</ele>
        <time>2021-03-13T13:33:09Z</time>
      </trkpt>
      <trkpt lat="43.01235" lon="0.84989">
        <ele>655</ele>
        <time>2021-03-13T13:33:10Z</time>
      </trkpt>
      <trkpt lat="43.01236" lon="0.84988">
        <ele>655</ele>
        <time>2021-03-13T13:33:11Z</time>
      </trkpt>
      <trkpt lat="43.01238" lon="0.84987">
        <ele>655</ele>
        <time>2021-03-13T13:33:12Z</time>
      </trkpt>
      <trkpt lat="43.01239" lon="0.84987">
        <ele>655</ele>
        <time>2021-03-13T13:33:13Z</time>
      </trkpt>
      <trkpt lat="43.0124" lon="0.84986">
        <ele>655</ele>
        <time>2021-03-13T13:33:14Z</time>
      </trkpt>
      <trkpt lat="43.01242" lon="0.84985">
        <ele>656</ele>
        <time>2021-03-13T13:33:15Z</time>
      </trkpt>
      <trkpt lat="43.01243" lon="0.84984">
        <ele>656</ele>
        <time>2021-03-13T13:33:16Z</time>
      </trkpt>
      <trkpt lat="43.01245" lon="0.84984">
        <ele>656</ele>
        <time>2021-03-13T13:33:17Z</time>
      </trkpt>
      <trkpt lat="43.01246" lon="0.84983">
        <ele>656</ele>
        <time>2021-03-13T13:33:18Z</time>
      </trkpt>
      <trkpt lat="43.01248" lon="0.84982">
        <ele>656</ele>
        <time>2021-03-13T13:33:19Z</time>
      </trkpt>
      <trkpt lat="43.01249" lon="0.84981">
        <ele>657</ele>
        <time>2021-03-13T13:33:20Z</time>
      </trkpt>
      <trkpt lat="43.01251" lon="0.84981">
        <ele>657</ele>
        <time>2021-03-13T13:33:21Z</time>
      </trkpt>
      <trkpt lat="43.01252" lon="0.8498">
        <ele>657</ele>
        <time>2021-03-13T13:33:22Z</time>
      </trkpt>
      <trkpt lat="43.01253" lon="0.84978">
        <ele>657</ele>
        <time>2021-03-13T13:33:23Z</time>
      </trkpt>
      <trkpt lat="43.01254" lon="0.84977">
        <ele>657</ele>
        <time>2021-03-13T13:33:24Z</time>
      </trkpt>
      <trkpt lat="43.01256" lon="0.84976">
        <ele>659</ele>
        <time>2021-03-13T13:33:25Z</time>
      </trkpt>
      <trkpt lat="43.01257" lon="0.84974">
        <ele>659</ele>
        <time>2021-03-13T13:33:26Z</time>
      </trkpt>
      <trkpt lat="43.01258" lon="0.84973">
        <ele>659</ele>
        <time>2021-03-13T13:33:27Z</time>
      </trkpt>
      <trkpt lat="43.01259" lon="0.84971">
        <ele>659</ele>
        <time>2021-03-13T13:33:28Z</time>
      </trkpt>
      <trkpt lat="43.0126" lon="0.84969">
        <ele>659</ele>
        <time>2021-03-13T13:33:29Z</time>
      </trkpt>
      <trkpt lat="43.01261" lon="0.84968">
        <ele>660</ele>
        <time>2021-03-13T13:33:30Z</time>
      </trkpt>
      <trkpt lat="43.01262" lon="0.84966">
        <ele>660</ele>
        <time>2021-03-13T13:33:31Z</time>
      </trkpt>
      <trkpt lat="43.01263" lon="0.84964">
        <ele>660</ele>
        <time>2021-03-13T13:33:32Z</time>
      </trkpt>
      <trkpt lat="43.01264" lon="0.84962">
        <ele>660</ele>
        <time>2021-03-13T13:33:33Z</time>
      </trkpt>
      <trkpt lat="43.01265" lon="0.8496">
        <ele>660</ele>
        <time>2021-03-13T13:33:34Z</time>
      </trkpt>
      <trkpt lat="43.01266" lon="0.84958">
        <ele>662</ele>
        <time>2021-03-13T13:33:35Z</time>
      </trkpt>
      <trkpt lat="43.01267" lon="0.84956">
        <ele>662</ele>
        <time>2021-03-13T13:33:36Z</time>
      </trkpt>
      <trkpt lat="43.01268" lon="0.84954">
        <ele>662</ele>
        <time>2021-03-13T13:33:37Z</time>
      </trkpt>
      <trkpt lat="43.01269" lon="0.84952">
        <ele>662</ele>
        <time>2021-03-13T13:33:38Z</time>
      </trkpt>
      <trkpt lat="43.0127" lon="0.8495">
        <ele>662</ele>
        <time>2021-03-13T13:33:39Z</time>
      </trkpt>
      <trkpt lat="43.01271" lon="0.84947">
        <ele>663</ele>
        <time>2021-03-13T13:33:40Z</time>
      </trkpt>
      <trkpt lat="43.01272" lon="0.84945">
        <ele>663</ele>
        <time>2021-03-13T13:33:41Z</time>
      </trkpt>
      <trkpt lat="43.01273" lon="0.84943">
        <ele>663</ele>
        <time>2021-03-13T13:33:42Z</time>
      </trkpt>
      <trkpt lat="43.01274" lon="0.84941">
        <ele>663</ele>
        <time>2021-03-13T13:33:43Z</time>
      </trkpt>
      <trkpt lat="43.01274" lon="0.84939">
        <ele>663</ele>
        <time>2021-03-13T13:33:44Z</time>
      </trkpt>
      <trkpt lat="43.01274" lon="0.84938">
        <ele>664</ele>
        <time>2021-03-13T13:33:45Z</time>
      </trkpt>
      <trkpt lat="43.01274" lon="0.84936">
        <ele>664</ele>
        <time>2021-03-13T13:33:46Z</time>
      </trkpt>
      <trkpt lat="43.01275" lon="0.84934">
        <ele>664</ele>
        <time>2021-03-13T13:33:47Z</time>
      </trkpt>
      <trkpt lat="43.01275" lon="0.84933">
        <ele>664</ele>
        <time>2021-03-13T13:33:48Z</time>
      </trkpt>
      <trkpt lat="43.01275" lon="0.84931">
        <ele>664</ele>
        <time>2021-03-13T13:33:49Z</time>
      </trkpt>
      <trkpt lat="43.01275" lon="0.84929">
        <ele>665</ele>
        <time>2021-03-13T13:33:50Z</time>
      </trkpt>
      <trkpt lat="43.01276" lon="0.84927">
        <ele>665</ele>
        <time>2021-03-13T13:33:51Z</time>
      </trkpt>
      <trkpt lat="43.01277" lon="0.84924">
        <ele>665</ele>
        <time>2021-03-13T13:33:52Z</time>
      </trkpt>
      <trkpt lat="43.01277" lon="0.84921">
        <ele>665</ele>
        <time>2021-03-13T13:33:53Z</time>
      </trkpt>
      <trkpt lat="43.01278" lon="0.84919">
        <ele>665</ele>
        <time>2021-03-13T13:33:54Z</time>
      </trkpt>
      <trkpt lat="43.01278" lon="0.84916">
        <ele>665</ele>
        <time>2021-03-13T13:33:55Z</time>
      </trkpt>
      <trkpt lat="43.01278" lon="0.84914">
        <ele>665</ele>
        <time>2021-03-13T13:33:56Z</time>
      </trkpt>
      <trkpt lat="43.01278" lon="0.84912">
        <ele>665</ele>
        <time>2021-03-13T13:33:57Z</time>
      </trkpt>
      <trkpt lat="43.01278" lon="0.84909">
        <ele>665</ele>
        <time>2021-03-13T13:33:58Z</time>
      </trkpt>
      <trkpt lat="43.01279" lon="0.84907">
        <ele>665</ele>
        <time>2021-03-13T13:33:59Z</time>
      </trkpt>
      <trkpt lat="43.0128" lon="0.84904">
        <ele>666</ele>
        <time>2021-03-13T13:34:00Z</time>
      </trkpt>
      <trkpt lat="43.01281" lon="0.84902">
        <ele>666</ele>
        <time>2021-03-13T13:34:01Z</time>
      </trkpt>
      <trkpt lat="43.01281" lon="0.84899">
        <ele>666</ele>
        <time>2021-03-13T13:34:02Z</time>
      </trkpt>
      <trkpt lat="43.01282" lon="0.84897">
        <ele>666</ele>
        <time>2021-03-13T13:34:03Z</time>
      </trkpt>
      <trkpt lat="43.01283" lon="0.84894">
        <ele>666</ele>
        <time>2021-03-13T13:34:04Z</time>
      </trkpt>
      <trkpt lat="43.01283" lon="0.84892">
        <ele>666</ele>
        <time>2021-03-13T13:34:05Z</time>
      </trkpt>
      <trkpt lat="43.01284" lon="0.84889">
        <ele>666</ele>
        <time>2021-03-13T13:34:06Z</time>
      </trkpt>
      <trkpt lat="43.01284" lon="0.84886">
        <ele>666</ele>
        <time>2021-03-13T13:34:07Z</time>
      </trkpt>
      <trkpt lat="43.01284" lon="0.84884">
        <ele>666</ele>
        <time>2021-03-13T13:34:08Z</time>
      </trkpt>
      <trkpt lat="43.01284" lon="0.84881">
        <ele>666</ele>
        <time>2021-03-13T13:34:09Z</time>
      </trkpt>
      <trkpt lat="43.01284" lon="0.84878">
        <ele>667</ele>
        <time>2021-03-13T13:34:10Z</time>
      </trkpt>
      <trkpt lat="43.01284" lon="0.84875">
        <ele>667</ele>
        <time>2021-03-13T13:34:11Z</time>
      </trkpt>
      <trkpt lat="43.01285" lon="0.84872">
        <ele>667</ele>
        <time>2021-03-13T13:34:12Z</time>
      </trkpt>
      <trkpt lat="43.01286" lon="0.8487">
        <ele>667</ele>
        <time>2021-03-13T13:34:13Z</time>
      </trkpt>
      <trkpt lat="43.01286" lon="0.84867">
        <ele>667</ele>
        <time>2021-03-13T13:34:14Z</time>
      </trkpt>
      <trkpt lat="43.01287" lon="0.84864">
        <ele>667</ele>
        <time>2021-03-13T13:34:15Z</time>
      </trkpt>
      <trkpt lat="43.01288" lon="0.8486">
        <ele>667</ele>
        <time>2021-03-13T13:34:16Z</time>
      </trkpt>
      <trkpt lat="43.01289" lon="0.84857">
        <ele>667</ele>
        <time>2021-03-13T13:34:17Z</time>
      </trkpt>
      <trkpt lat="43.0129" lon="0.84853">
        <ele>667</ele>
        <time>2021-03-13T13:34:18Z</time>
      </trkpt>
      <trkpt lat="43.0129" lon="0.84849">
        <ele>667</ele>
        <time>2021-03-13T13:34:19Z</time>
      </trkpt>
      <trkpt lat="43.0129" lon="0.84846">
        <ele>669</ele>
        <time>2021-03-13T13:34:20Z</time>
      </trkpt>
      <trkpt lat="43.0129" lon="0.84842">
        <ele>669</ele>
        <time>2021-03-13T13:34:21Z</time>
      </trkpt>
      <trkpt lat="43.01291" lon="0.84838">
        <ele>669</ele>
        <time>2021-03-13T13:34:22Z</time>
      </trkpt>
      <trkpt lat="43.01292" lon="0.84835">
        <ele>669</ele>
        <time>2021-03-13T13:34:23Z</time>
      </trkpt>
      <trkpt lat="43.01292" lon="0.84831">
        <ele>669</ele>
        <time>2021-03-13T13:34:24Z</time>
      </trkpt>
      <trkpt lat="43.01292" lon="0.84828">
        <ele>669</ele>
        <time>2021-03-13T13:34:25Z</time>
      </trkpt>
      <trkpt lat="43.01292" lon="0.84824">
        <ele>669</ele>
        <time>2021-03-13T13:34:26Z</time>
      </trkpt>
      <trkpt lat="43.01292" lon="0.84821">
        <ele>669</ele>
        <time>2021-03-13T13:34:27Z</time>
      </trkpt>
      <trkpt lat="43.01292" lon="0.84813">
        <ele>669</ele>
        <time>2021-03-13T13:34:28Z</time>
      </trkpt>
      <trkpt lat="43.01292" lon="0.84813">
        <ele>669</ele>
        <time>2021-03-13T13:34:29Z</time>
      </trkpt>
      <trkpt lat="43.01293" lon="0.84803">
        <ele>670</ele>
        <time>2021-03-13T13:34:30Z</time>
      </trkpt>
      <trkpt lat="43.01293" lon="0.84803">
        <ele>670</ele>
        <time>2021-03-13T13:34:31Z</time>
      </trkpt>
      <trkpt lat="43.01293" lon="0.84794">
        <ele>670</ele>
        <time>2021-03-13T13:34:32Z</time>
      </trkpt>
      <trkpt lat="43.01293" lon="0.84794">
        <ele>670</ele>
        <time>2021-03-13T13:34:33Z</time>
      </trkpt>
      <trkpt lat="43.01292" lon="0.84787">
        <ele>670</ele>
        <time>2021-03-13T13:34:34Z</time>
      </trkpt>
      <trkpt lat="43.01291" lon="0.8478">
        <ele>670</ele>
        <time>2021-03-13T13:34:35Z</time>
      </trkpt>
      <trkpt lat="43.0129" lon="0.84774">
        <ele>670</ele>
        <time>2021-03-13T13:34:36Z</time>
      </trkpt>
      <trkpt lat="43.01289" lon="0.84769">
        <ele>670</ele>
        <time>2021-03-13T13:34:37Z</time>
      </trkpt>
      <trkpt lat="43.01289" lon="0.84769">
        <ele>670</ele>
        <time>2021-03-13T13:34:38Z</time>
      </trkpt>
      <trkpt lat="43.01286" lon="0.84756">
        <ele>670</ele>
        <time>2021-03-13T13:34:39Z</time>
      </trkpt>
      <trkpt lat="43.01286" lon="0.84756">
        <ele>669</ele>
        <time>2021-03-13T13:34:40Z</time>
      </trkpt>
      <trkpt lat="43.01282" lon="0.84738">
        <ele>669</ele>
        <time>2021-03-13T13:34:41Z</time>
      </trkpt>
      <trkpt lat="43.01282" lon="0.84734">
        <ele>669</ele>
        <time>2021-03-13T13:34:42Z</time>
      </trkpt>
      <trkpt lat="43.01282" lon="0.84722">
        <ele>669</ele>
        <time>2021-03-13T13:34:43Z</time>
      </trkpt>
      <trkpt lat="43.01283" lon="0.84718">
        <ele>669</ele>
        <time>2021-03-13T13:34:44Z</time>
      </trkpt>
      <trkpt lat="43.01284" lon="0.8471">
        <ele>669</ele>
        <time>2021-03-13T13:34:45Z</time>
      </trkpt>
      <trkpt lat="43.01284" lon="0.8471">
        <ele>669</ele>
        <time>2021-03-13T13:34:46Z</time>
      </trkpt>
      <trkpt lat="43.01286" lon="0.84708">
        <ele>669</ele>
        <time>2021-03-13T13:34:47Z</time>
      </trkpt>
      <trkpt lat="43.01288" lon="0.84706">
        <ele>669</ele>
        <time>2021-03-13T13:34:48Z</time>
      </trkpt>
      <trkpt lat="43.01289" lon="0.84703">
        <ele>669</ele>
        <time>2021-03-13T13:34:49Z</time>
      </trkpt>
      <trkpt lat="43.01291" lon="0.84701">
        <ele>669</ele>
        <time>2021-03-13T13:34:50Z</time>
      </trkpt>
      <trkpt lat="43.01294" lon="0.84699">
        <ele>669</ele>
        <time>2021-03-13T13:34:51Z</time>
      </trkpt>
      <trkpt lat="43.01296" lon="0.84696">
        <ele>669</ele>
        <time>2021-03-13T13:34:52Z</time>
      </trkpt>
      <trkpt lat="43.01299" lon="0.84694">
        <ele>669</ele>
        <time>2021-03-13T13:34:53Z</time>
      </trkpt>
      <trkpt lat="43.01301" lon="0.84691">
        <ele>669</ele>
        <time>2021-03-13T13:34:54Z</time>
      </trkpt>
      <trkpt lat="43.01303" lon="0.84689">
        <ele>669</ele>
        <time>2021-03-13T13:34:55Z</time>
      </trkpt>
      <trkpt lat="43.01305" lon="0.84687">
        <ele>669</ele>
        <time>2021-03-13T13:34:56Z</time>
      </trkpt>
      <trkpt lat="43.01308" lon="0.84684">
        <ele>669</ele>
        <time>2021-03-13T13:34:57Z</time>
      </trkpt>
      <trkpt lat="43.0131" lon="0.84682">
        <ele>669</ele>
        <time>2021-03-13T13:34:58Z</time>
      </trkpt>
      <trkpt lat="43.01312" lon="0.84679">
        <ele>669</ele>
        <time>2021-03-13T13:34:59Z</time>
      </trkpt>
      <trkpt lat="43.01313" lon="0.84676">
        <ele>673</ele>
        <time>2021-03-13T13:35:00Z</time>
      </trkpt>
      <trkpt lat="43.01315" lon="0.84674">
        <ele>673</ele>
        <time>2021-03-13T13:35:01Z</time>
      </trkpt>
      <trkpt lat="43.01316" lon="0.84671">
        <ele>673</ele>
        <time>2021-03-13T13:35:02Z</time>
      </trkpt>
      <trkpt lat="43.01318" lon="0.84668">
        <ele>673</ele>
        <time>2021-03-13T13:35:03Z</time>
      </trkpt>
      <trkpt lat="43.01319" lon="0.84665">
        <ele>673</ele>
        <time>2021-03-13T13:35:04Z</time>
      </trkpt>
      <trkpt lat="43.0132" lon="0.84662">
        <ele>673</ele>
        <time>2021-03-13T13:35:05Z</time>
      </trkpt>
      <trkpt lat="43.01321" lon="0.8466">
        <ele>673</ele>
        <time>2021-03-13T13:35:06Z</time>
      </trkpt>
      <trkpt lat="43.01322" lon="0.84656">
        <ele>673</ele>
        <time>2021-03-13T13:35:07Z</time>
      </trkpt>
      <trkpt lat="43.01322" lon="0.84653">
        <ele>673</ele>
        <time>2021-03-13T13:35:08Z</time>
      </trkpt>
      <trkpt lat="43.01323" lon="0.8465">
        <ele>673</ele>
        <time>2021-03-13T13:35:09Z</time>
      </trkpt>
      <trkpt lat="43.01323" lon="0.84647">
        <ele>674</ele>
        <time>2021-03-13T13:35:10Z</time>
      </trkpt>
      <trkpt lat="43.01323" lon="0.84644">
        <ele>674</ele>
        <time>2021-03-13T13:35:11Z</time>
      </trkpt>
      <trkpt lat="43.01324" lon="0.8464">
        <ele>674</ele>
        <time>2021-03-13T13:35:12Z</time>
      </trkpt>
      <trkpt lat="43.01324" lon="0.84636">
        <ele>674</ele>
        <time>2021-03-13T13:35:13Z</time>
      </trkpt>
      <trkpt lat="43.01324" lon="0.84633">
        <ele>674</ele>
        <time>2021-03-13T13:35:14Z</time>
      </trkpt>
      <trkpt lat="43.01324" lon="0.84629">
        <ele>674</ele>
        <time>2021-03-13T13:35:15Z</time>
      </trkpt>
      <trkpt lat="43.01325" lon="0.84625">
        <ele>674</ele>
        <time>2021-03-13T13:35:16Z</time>
      </trkpt>
      <trkpt lat="43.01326" lon="0.84621">
        <ele>674</ele>
        <time>2021-03-13T13:35:17Z</time>
      </trkpt>
      <trkpt lat="43.01326" lon="0.84617">
        <ele>674</ele>
        <time>2021-03-13T13:35:18Z</time>
      </trkpt>
      <trkpt lat="43.01327" lon="0.84614">
        <ele>674</ele>
        <time>2021-03-13T13:35:19Z</time>
      </trkpt>
      <trkpt lat="43.01328" lon="0.8461">
        <ele>676</ele>
        <time>2021-03-13T13:35:20Z</time>
      </trkpt>
      <trkpt lat="43.01329" lon="0.84606">
        <ele>676</ele>
        <time>2021-03-13T13:35:21Z</time>
      </trkpt>
      <trkpt lat="43.01329" lon="0.84606">
        <ele>676</ele>
        <time>2021-03-13T13:35:22Z</time>
      </trkpt>
      <trkpt lat="43.01329" lon="0.84599">
        <ele>676</ele>
        <time>2021-03-13T13:35:23Z</time>
      </trkpt>
      <trkpt lat="43.01329" lon="0.84599">
        <ele>676</ele>
        <time>2021-03-13T13:35:24Z</time>
      </trkpt>
      <trkpt lat="43.01329" lon="0.84592">
        <ele>676</ele>
        <time>2021-03-13T13:35:25Z</time>
      </trkpt>
      <trkpt lat="43.01329" lon="0.84592">
        <ele>676</ele>
        <time>2021-03-13T13:35:26Z</time>
      </trkpt>
      <trkpt lat="43.01329" lon="0.84584">
        <ele>676</ele>
        <time>2021-03-13T13:35:27Z</time>
      </trkpt>
      <trkpt lat="43.01329" lon="0.84584">
        <ele>676</ele>
        <time>2021-03-13T13:35:28Z</time>
      </trkpt>
      <trkpt lat="43.01328" lon="0.84577">
        <ele>676</ele>
        <time>2021-03-13T13:35:29Z</time>
      </trkpt>
      <trkpt lat="43.01328" lon="0.84577">
        <ele>679</ele>
        <time>2021-03-13T13:35:30Z</time>
      </trkpt>
      <trkpt lat="43.01329" lon="0.8457">
        <ele>679</ele>
        <time>2021-03-13T13:35:31Z</time>
      </trkpt>
      <trkpt lat="43.01329" lon="0.8457">
        <ele>679</ele>
        <time>2021-03-13T13:35:32Z</time>
      </trkpt>
      <trkpt lat="43.0133" lon="0.84564">
        <ele>679</ele>
        <time>2021-03-13T13:35:33Z</time>
      </trkpt>
      <trkpt lat="43.0133" lon="0.84564">
        <ele>679</ele>
        <time>2021-03-13T13:35:34Z</time>
      </trkpt>
      <trkpt lat="43.0133" lon="0.8456">
        <ele>682</ele>
        <time>2021-03-13T13:35:35Z</time>
      </trkpt>
      <trkpt lat="43.01329" lon="0.84557">
        <ele>682</ele>
        <time>2021-03-13T13:35:36Z</time>
      </trkpt>
      <trkpt lat="43.01329" lon="0.84553">
        <ele>682</ele>
        <time>2021-03-13T13:35:37Z</time>
      </trkpt>
      <trkpt lat="43.01329" lon="0.84549">
        <ele>682</ele>
        <time>2021-03-13T13:35:38Z</time>
      </trkpt>
      <trkpt lat="43.01329" lon="0.84546">
        <ele>682</ele>
        <time>2021-03-13T13:35:39Z</time>
      </trkpt>
      <trkpt lat="43.01329" lon="0.84542">
        <ele>683</ele>
        <time>2021-03-13T13:35:40Z</time>
      </trkpt>
      <trkpt lat="43.01328" lon="0.84536">
        <ele>683</ele>
        <time>2021-03-13T13:35:41Z</time>
      </trkpt>
      <trkpt lat="43.01328" lon="0.84536">
        <ele>683</ele>
        <time>2021-03-13T13:35:42Z</time>
      </trkpt>
      <trkpt lat="43.01328" lon="0.8453">
        <ele>683</ele>
        <time>2021-03-13T13:35:43Z</time>
      </trkpt>
      <trkpt lat="43.01328" lon="0.8453">
        <ele>683</ele>
        <time>2021-03-13T13:35:44Z</time>
      </trkpt>
      <trkpt lat="43.01327" lon="0.84524">
        <ele>684</ele>
        <time>2021-03-13T13:35:45Z</time>
      </trkpt>
      <trkpt lat="43.01327" lon="0.84524">
        <ele>684</ele>
        <time>2021-03-13T13:35:46Z</time>
      </trkpt>
      <trkpt lat="43.01326" lon="0.84518">
        <ele>684</ele>
        <time>2021-03-13T13:35:47Z</time>
      </trkpt>
      <trkpt lat="43.01326" lon="0.84518">
        <ele>684</ele>
        <time>2021-03-13T13:35:48Z</time>
      </trkpt>
      <trkpt lat="43.01324" lon="0.84514">
        <ele>684</ele>
        <time>2021-03-13T13:35:49Z</time>
      </trkpt>
      <trkpt lat="43.01324" lon="0.84514">
        <ele>686</ele>
        <time>2021-03-13T13:35:50Z</time>
      </trkpt>
      <trkpt lat="43.0132" lon="0.84509">
        <ele>686</ele>
        <time>2021-03-13T13:35:51Z</time>
      </trkpt>
      <trkpt lat="43.01319" lon="0.84508">
        <ele>686</ele>
        <time>2021-03-13T13:35:52Z</time>
      </trkpt>
      <trkpt lat="43.01318" lon="0.84505">
        <ele>686</ele>
        <time>2021-03-13T13:35:53Z</time>
      </trkpt>
      <trkpt lat="43.01318" lon="0.845">
        <ele>686</ele>
        <time>2021-03-13T13:35:54Z</time>
      </trkpt>
      <trkpt lat="43.01318" lon="0.84496">
        <ele>687</ele>
        <time>2021-03-13T13:35:55Z</time>
      </trkpt>
      <trkpt lat="43.01318" lon="0.84496">
        <ele>687</ele>
        <time>2021-03-13T13:35:56Z</time>
      </trkpt>
      <trkpt lat="43.01318" lon="0.84486">
        <ele>687</ele>
        <time>2021-03-13T13:35:57Z</time>
      </trkpt>
      <trkpt lat="43.01319" lon="0.84477">
        <ele>687</ele>
        <time>2021-03-13T13:35:58Z</time>
      </trkpt>
      <trkpt lat="43.01319" lon="0.84468">
        <ele>687</ele>
        <time>2021-03-13T13:35:59Z</time>
      </trkpt>
      <trkpt lat="43.01319" lon="0.84455">
        <ele>686</ele>
        <time>2021-03-13T13:36:00Z</time>
      </trkpt>
      <trkpt lat="43.0132" lon="0.8445">
        <ele>686</ele>
        <time>2021-03-13T13:36:01Z</time>
      </trkpt>
      <trkpt lat="43.01321" lon="0.84435">
        <ele>686</ele>
        <time>2021-03-13T13:36:02Z</time>
      </trkpt>
      <trkpt lat="43.01321" lon="0.8443">
        <ele>686</ele>
        <time>2021-03-13T13:36:03Z</time>
      </trkpt>
      <trkpt lat="43.01323" lon="0.84413">
        <ele>686</ele>
        <time>2021-03-13T13:36:04Z</time>
      </trkpt>
      <trkpt lat="43.01324" lon="0.84407">
        <ele>686</ele>
        <time>2021-03-13T13:36:05Z</time>
      </trkpt>
      <trkpt lat="43.01326" lon="0.84396">
        <ele>686</ele>
        <time>2021-03-13T13:36:06Z</time>
      </trkpt>
      <trkpt lat="43.01326" lon="0.84396">
        <ele>686</ele>
        <time>2021-03-13T13:36:07Z</time>
      </trkpt>
      <trkpt lat="43.01335" lon="0.84366">
        <ele>686</ele>
        <time>2021-03-13T13:36:08Z</time>
      </trkpt>
      <trkpt lat="43.01336" lon="0.8436">
        <ele>686</ele>
        <time>2021-03-13T13:36:09Z</time>
      </trkpt>
      <trkpt lat="43.0134" lon="0.84341">
        <ele>680</ele>
        <time>2021-03-13T13:36:10Z</time>
      </trkpt>
      <trkpt lat="43.01341" lon="0.84334">
        <ele>677</ele>
        <time>2021-03-13T13:36:11Z</time>
      </trkpt>
      <trkpt lat="43.01343" lon="0.84321">
        <ele>677</ele>
        <time>2021-03-13T13:36:12Z</time>
      </trkpt>
      <trkpt lat="43.01344" lon="0.84307">
        <ele>674</ele>
        <time>2021-03-13T13:36:13Z</time>
      </trkpt>
      <trkpt lat="43.01344" lon="0.84293">
        <ele>674</ele>
        <time>2021-03-13T13:36:14Z</time>
      </trkpt>
      <trkpt lat="43.01345" lon="0.84279">
        <ele>675</ele>
        <time>2021-03-13T13:36:15Z</time>
      </trkpt>
      <trkpt lat="43.01345" lon="0.84265">
        <ele>675</ele>
        <time>2021-03-13T13:36:16Z</time>
      </trkpt>
      <trkpt lat="43.01346" lon="0.84252">
        <ele>674</ele>
        <time>2021-03-13T13:36:17Z</time>
      </trkpt>
      <trkpt lat="43.01346" lon="0.8424">
        <ele>672</ele>
        <time>2021-03-13T13:36:18Z</time>
      </trkpt>
      <trkpt lat="43.01346" lon="0.84228">
        <ele>670</ele>
        <time>2021-03-13T13:36:19Z</time>
      </trkpt>
      <trkpt lat="43.01346" lon="0.84217">
        <ele>669</ele>
        <time>2021-03-13T13:36:20Z</time>
      </trkpt>
      <trkpt lat="43.01346" lon="0.84217">
        <ele>669</ele>
        <time>2021-03-13T13:36:21Z</time>
      </trkpt>
      <trkpt lat="43.01338" lon="0.84194">
        <ele>668</ele>
        <time>2021-03-13T13:36:22Z</time>
      </trkpt>
      <trkpt lat="43.01335" lon="0.8419">
        <ele>667</ele>
        <time>2021-03-13T13:36:23Z</time>
      </trkpt>
      <trkpt lat="43.01326" lon="0.84178">
        <ele>666</ele>
        <time>2021-03-13T13:36:24Z</time>
      </trkpt>
      <trkpt lat="43.01323" lon="0.84174">
        <ele>665</ele>
        <time>2021-03-13T13:36:25Z</time>
      </trkpt>
      <trkpt lat="43.01316" lon="0.84165">
        <ele>664</ele>
        <time>2021-03-13T13:36:26Z</time>
      </trkpt>
      <trkpt lat="43.01309" lon="0.84157">
        <ele>664</ele>
        <time>2021-03-13T13:36:27Z</time>
      </trkpt>
      <trkpt lat="43.01303" lon="0.84149">
        <ele>663</ele>
        <time>2021-03-13T13:36:28Z</time>
      </trkpt>
      <trkpt lat="43.01296" lon="0.8414">
        <ele>661</ele>
        <time>2021-03-13T13:36:29Z</time>
      </trkpt>
      <trkpt lat="43.0129" lon="0.84132">
        <ele>660</ele>
        <time>2021-03-13T13:36:30Z</time>
      </trkpt>
      <trkpt lat="43.01283" lon="0.84124">
        <ele>659</ele>
        <time>2021-03-13T13:36:31Z</time>
      </trkpt>
      <trkpt lat="43.01277" lon="0.84116">
        <ele>658</ele>
        <time>2021-03-13T13:36:32Z</time>
      </trkpt>
      <trkpt lat="43.01277" lon="0.84116">
        <ele>657</ele>
        <time>2021-03-13T13:36:33Z</time>
      </trkpt>
      <trkpt lat="43.01263" lon="0.84098">
        <ele>655</ele>
        <time>2021-03-13T13:36:34Z</time>
      </trkpt>
      <trkpt lat="43.01261" lon="0.84095">
        <ele>654</ele>
        <time>2021-03-13T13:36:35Z</time>
      </trkpt>
      <trkpt lat="43.01254" lon="0.84086">
        <ele>653</ele>
        <time>2021-03-13T13:36:36Z</time>
      </trkpt>
      <trkpt lat="43.01252" lon="0.84084">
        <ele>652</ele>
        <time>2021-03-13T13:36:37Z</time>
      </trkpt>
      <trkpt lat="43.01248" lon="0.8408">
        <ele>652</ele>
        <time>2021-03-13T13:36:38Z</time>
      </trkpt>
      <trkpt lat="43.01248" lon="0.8408">
        <ele>651</ele>
        <time>2021-03-13T13:36:39Z</time>
      </trkpt>
      <trkpt lat="43.01245" lon="0.84081">
        <ele>650</ele>
        <time>2021-03-13T13:36:40Z</time>
      </trkpt>
      <trkpt lat="43.01242" lon="0.84082">
        <ele>649</ele>
        <time>2021-03-13T13:36:41Z</time>
      </trkpt>
      <trkpt lat="43.01239" lon="0.84082">
        <ele>648</ele>
        <time>2021-03-13T13:36:42Z</time>
      </trkpt>
      <trkpt lat="43.01238" lon="0.84091">
        <ele>648</ele>
        <time>2021-03-13T13:36:43Z</time>
      </trkpt>
      <trkpt lat="43.01237" lon="0.841">
        <ele>647</ele>
        <time>2021-03-13T13:36:44Z</time>
      </trkpt>
      <trkpt lat="43.01236" lon="0.84109">
        <ele>647</ele>
        <time>2021-03-13T13:36:45Z</time>
      </trkpt>
      <trkpt lat="43.01232" lon="0.84117">
        <ele>647</ele>
        <time>2021-03-13T13:36:46Z</time>
      </trkpt>
      <trkpt lat="43.0123" lon="0.84118">
        <ele>647</ele>
        <time>2021-03-13T13:36:47Z</time>
      </trkpt>
      <trkpt lat="43.01225" lon="0.84121">
        <ele>647</ele>
        <time>2021-03-13T13:36:48Z</time>
      </trkpt>
      <trkpt lat="43.01225" lon="0.84121">
        <ele>647</ele>
        <time>2021-03-13T13:36:49Z</time>
      </trkpt>
      <trkpt lat="43.0122" lon="0.84118">
        <ele>647</ele>
        <time>2021-03-13T13:36:50Z</time>
      </trkpt>
      <trkpt lat="43.01216" lon="0.84116">
        <ele>647</ele>
        <time>2021-03-13T13:36:51Z</time>
      </trkpt>
      <trkpt lat="43.01211" lon="0.84114">
        <ele>647</ele>
        <time>2021-03-13T13:36:52Z</time>
      </trkpt>
      <trkpt lat="43.01207" lon="0.84111">
        <ele>647</ele>
        <time>2021-03-13T13:36:53Z</time>
      </trkpt>
      <trkpt lat="43.01202" lon="0.84108">
        <ele>647</ele>
        <time>2021-03-13T13:36:54Z</time>
      </trkpt>
      <trkpt lat="43.01198" lon="0.84105">
        <ele>646</ele>
        <time>2021-03-13T13:36:55Z</time>
      </trkpt>
      <trkpt lat="43.01194" lon="0.84103">
        <ele>646</ele>
        <time>2021-03-13T13:36:56Z</time>
      </trkpt>
      <trkpt lat="43.0119" lon="0.84101">
        <ele>646</ele>
        <time>2021-03-13T13:36:57Z</time>
      </trkpt>
      <trkpt lat="43.01186" lon="0.84099">
        <ele>646</ele>
        <time>2021-03-13T13:36:58Z</time>
      </trkpt>
      <trkpt lat="43.01183" lon="0.84098">
        <ele>646</ele>
        <time>2021-03-13T13:36:59Z</time>
      </trkpt>
      <trkpt lat="43.01179" lon="0.84097">
        <ele>647</ele>
        <time>2021-03-13T13:37:00Z</time>
      </trkpt>
      <trkpt lat="43.01175" lon="0.84095">
        <ele>647</ele>
        <time>2021-03-13T13:37:01Z</time>
      </trkpt>
      <trkpt lat="43.01172" lon="0.84096">
        <ele>647</ele>
        <time>2021-03-13T13:37:02Z</time>
      </trkpt>
      <trkpt lat="43.01168" lon="0.84096">
        <ele>647</ele>
        <time>2021-03-13T13:37:03Z</time>
      </trkpt>
      <trkpt lat="43.01165" lon="0.84096">
        <ele>647</ele>
        <time>2021-03-13T13:37:04Z</time>
      </trkpt>
      <trkpt lat="43.01162" lon="0.84096">
        <ele>647</ele>
        <time>2021-03-13T13:37:05Z</time>
      </trkpt>
      <trkpt lat="43.01159" lon="0.84097">
        <ele>647</ele>
        <time>2021-03-13T13:37:06Z</time>
      </trkpt>
      <trkpt lat="43.01156" lon="0.84098">
        <ele>647</ele>
        <time>2021-03-13T13:37:07Z</time>
      </trkpt>
      <trkpt lat="43.01153" lon="0.84098">
        <ele>647</ele>
        <time>2021-03-13T13:37:08Z</time>
      </trkpt>
      <trkpt lat="43.0115" lon="0.84099">
        <ele>647</ele>
        <time>2021-03-13T13:37:09Z</time>
      </trkpt>
      <trkpt lat="43.01147" lon="0.84099">
        <ele>649</ele>
        <time>2021-03-13T13:37:10Z</time>
      </trkpt>
      <trkpt lat="43.01144" lon="0.841">
        <ele>649</ele>
        <time>2021-03-13T13:37:11Z</time>
      </trkpt>
      <trkpt lat="43.01141" lon="0.841">
        <ele>649</ele>
        <time>2021-03-13T13:37:12Z</time>
      </trkpt>
      <trkpt lat="43.01138" lon="0.84101">
        <ele>649</ele>
        <time>2021-03-13T13:37:13Z</time>
      </trkpt>
      <trkpt lat="43.01135" lon="0.84101">
        <ele>649</ele>
        <time>2021-03-13T13:37:14Z</time>
      </trkpt>
      <trkpt lat="43.01133" lon="0.84102">
        <ele>649</ele>
        <time>2021-03-13T13:37:15Z</time>
      </trkpt>
      <trkpt lat="43.0113" lon="0.84102">
        <ele>649</ele>
        <time>2021-03-13T13:37:16Z</time>
      </trkpt>
      <trkpt lat="43.01127" lon="0.84104">
        <ele>649</ele>
        <time>2021-03-13T13:37:17Z</time>
      </trkpt>
      <trkpt lat="43.01124" lon="0.84105">
        <ele>649</ele>
        <time>2021-03-13T13:37:18Z</time>
      </trkpt>
      <trkpt lat="43.01121" lon="0.84107">
        <ele>649</ele>
        <time>2021-03-13T13:37:19Z</time>
      </trkpt>
      <trkpt lat="43.01119" lon="0.84108">
        <ele>651</ele>
        <time>2021-03-13T13:37:20Z</time>
      </trkpt>
      <trkpt lat="43.01116" lon="0.8411">
        <ele>651</ele>
        <time>2021-03-13T13:37:21Z</time>
      </trkpt>
      <trkpt lat="43.01114" lon="0.84112">
        <ele>651</ele>
        <time>2021-03-13T13:37:22Z</time>
      </trkpt>
      <trkpt lat="43.01112" lon="0.84114">
        <ele>651</ele>
        <time>2021-03-13T13:37:23Z</time>
      </trkpt>
      <trkpt lat="43.01109" lon="0.84116">
        <ele>651</ele>
        <time>2021-03-13T13:37:24Z</time>
      </trkpt>
      <trkpt lat="43.01107" lon="0.84119">
        <ele>651</ele>
        <time>2021-03-13T13:37:25Z</time>
      </trkpt>
      <trkpt lat="43.01105" lon="0.84121">
        <ele>651</ele>
        <time>2021-03-13T13:37:26Z</time>
      </trkpt>
      <trkpt lat="43.01103" lon="0.84124">
        <ele>651</ele>
        <time>2021-03-13T13:37:27Z</time>
      </trkpt>
      <trkpt lat="43.01101" lon="0.84126">
        <ele>651</ele>
        <time>2021-03-13T13:37:28Z</time>
      </trkpt>
      <trkpt lat="43.01099" lon="0.84129">
        <ele>651</ele>
        <time>2021-03-13T13:37:29Z</time>
      </trkpt>
      <trkpt lat="43.01097" lon="0.84132">
        <ele>654</ele>
        <time>2021-03-13T13:37:30Z</time>
      </trkpt>
      <trkpt lat="43.01095" lon="0.84135">
        <ele>654</ele>
        <time>2021-03-13T13:37:31Z</time>
      </trkpt>
      <trkpt lat="43.01093" lon="0.84137">
        <ele>654</ele>
        <time>2021-03-13T13:37:32Z</time>
      </trkpt>
      <trkpt lat="43.01091" lon="0.8414">
        <ele>654</ele>
        <time>2021-03-13T13:37:33Z</time>
      </trkpt>
      <trkpt lat="43.01089" lon="0.84143">
        <ele>654</ele>
        <time>2021-03-13T13:37:34Z</time>
      </trkpt>
      <trkpt lat="43.01087" lon="0.84145">
        <ele>655</ele>
        <time>2021-03-13T13:37:35Z</time>
      </trkpt>
      <trkpt lat="43.01085" lon="0.84148">
        <ele>655</ele>
        <time>2021-03-13T13:37:36Z</time>
      </trkpt>
      <trkpt lat="43.01083" lon="0.8415">
        <ele>655</ele>
        <time>2021-03-13T13:37:37Z</time>
      </trkpt>
      <trkpt lat="43.01081" lon="0.84153">
        <ele>655</ele>
        <time>2021-03-13T13:37:38Z</time>
      </trkpt>
      <trkpt lat="43.01079" lon="0.84156">
        <ele>655</ele>
        <time>2021-03-13T13:37:39Z</time>
      </trkpt>
      <trkpt lat="43.01077" lon="0.84159">
        <ele>657</ele>
        <time>2021-03-13T13:37:40Z</time>
      </trkpt>
      <trkpt lat="43.01076" lon="0.84162">
        <ele>657</ele>
        <time>2021-03-13T13:37:41Z</time>
      </trkpt>
      <trkpt lat="43.01074" lon="0.84165">
        <ele>657</ele>
        <time>2021-03-13T13:37:42Z</time>
      </trkpt>
      <trkpt lat="43.01072" lon="0.84169">
        <ele>657</ele>
        <time>2021-03-13T13:37:43Z</time>
      </trkpt>
      <trkpt lat="43.01071" lon="0.84172">
        <ele>657</ele>
        <time>2021-03-13T13:37:44Z</time>
      </trkpt>
      <trkpt lat="43.01069" lon="0.84175">
        <ele>658</ele>
        <time>2021-03-13T13:37:45Z</time>
      </trkpt>
      <trkpt lat="43.01068" lon="0.84178">
        <ele>658</ele>
        <time>2021-03-13T13:37:46Z</time>
      </trkpt>
      <trkpt lat="43.01066" lon="0.84181">
        <ele>658</ele>
        <time>2021-03-13T13:37:47Z</time>
      </trkpt>
      <trkpt lat="43.01064" lon="0.84184">
        <ele>658</ele>
        <time>2021-03-13T13:37:48Z</time>
      </trkpt>
      <trkpt lat="43.01062" lon="0.84186">
        <ele>658</ele>
        <time>2021-03-13T13:37:49Z</time>
      </trkpt>
      <trkpt lat="43.0106" lon="0.84189">
        <ele>659</ele>
        <time>2021-03-13T13:37:50Z</time>
      </trkpt>
      <trkpt lat="43.01058" lon="0.84192">
        <ele>659</ele>
        <time>2021-03-13T13:37:51Z</time>
      </trkpt>
      <trkpt lat="43.01055" lon="0.84194">
        <ele>659</ele>
        <time>2021-03-13T13:37:52Z</time>
      </trkpt>
      <trkpt lat="43.01052" lon="0.84195">
        <ele>659</ele>
        <time>2021-03-13T13:37:53Z</time>
      </trkpt>
      <trkpt lat="43.0105" lon="0.84196">
        <ele>659</ele>
        <time>2021-03-13T13:37:54Z</time>
      </trkpt>
      <trkpt lat="43.01047" lon="0.84196">
        <ele>659</ele>
        <time>2021-03-13T13:37:55Z</time>
      </trkpt>
      <trkpt lat="43.01044" lon="0.84197">
        <ele>659</ele>
        <time>2021-03-13T13:37:56Z</time>
      </trkpt>
      <trkpt lat="43.01041" lon="0.84196">
        <ele>659</ele>
        <time>2021-03-13T13:37:57Z</time>
      </trkpt>
      <trkpt lat="43.01038" lon="0.84194">
        <ele>659</ele>
        <time>2021-03-13T13:37:58Z</time>
      </trkpt>
      <trkpt lat="43.01035" lon="0.84193">
        <ele>659</ele>
        <time>2021-03-13T13:37:59Z</time>
      </trkpt>
      <trkpt lat="43.01032" lon="0.84192">
        <ele>662</ele>
        <time>2021-03-13T13:38:00Z</time>
      </trkpt>
      <trkpt lat="43.01029" lon="0.84189">
        <ele>662</ele>
        <time>2021-03-13T13:38:01Z</time>
      </trkpt>
      <trkpt lat="43.01027" lon="0.84187">
        <ele>662</ele>
        <time>2021-03-13T13:38:02Z</time>
      </trkpt>
      <trkpt lat="43.01025" lon="0.84185">
        <ele>662</ele>
        <time>2021-03-13T13:38:03Z</time>
      </trkpt>
      <trkpt lat="43.01023" lon="0.84182">
        <ele>662</ele>
        <time>2021-03-13T13:38:04Z</time>
      </trkpt>
      <trkpt lat="43.0102" lon="0.84181">
        <ele>662</ele>
        <time>2021-03-13T13:38:05Z</time>
      </trkpt>
      <trkpt lat="43.01018" lon="0.84179">
        <ele>662</ele>
        <time>2021-03-13T13:38:06Z</time>
      </trkpt>
      <trkpt lat="43.01015" lon="0.84177">
        <ele>662</ele>
        <time>2021-03-13T13:38:07Z</time>
      </trkpt>
      <trkpt lat="43.01013" lon="0.84176">
        <ele>662</ele>
        <time>2021-03-13T13:38:08Z</time>
      </trkpt>
      <trkpt lat="43.0101" lon="0.84174">
        <ele>662</ele>
        <time>2021-03-13T13:38:09Z</time>
      </trkpt>
      <trkpt lat="43.01008" lon="0.84173">
        <ele>663</ele>
        <time>2021-03-13T13:38:10Z</time>
      </trkpt>
      <trkpt lat="43.01005" lon="0.84171">
        <ele>663</ele>
        <time>2021-03-13T13:38:11Z</time>
      </trkpt>
      <trkpt lat="43.01003" lon="0.84169">
        <ele>663</ele>
        <time>2021-03-13T13:38:12Z</time>
      </trkpt>
      <trkpt lat="43.01" lon="0.84168">
        <ele>663</ele>
        <time>2021-03-13T13:38:13Z</time>
      </trkpt>
      <trkpt lat="43.00997" lon="0.84166">
        <ele>663</ele>
        <time>2021-03-13T13:38:14Z</time>
      </trkpt>
      <trkpt lat="43.00994" lon="0.84165">
        <ele>663</ele>
        <time>2021-03-13T13:38:15Z</time>
      </trkpt>
      <trkpt lat="43.00992" lon="0.84163">
        <ele>663</ele>
        <time>2021-03-13T13:38:16Z</time>
      </trkpt>
      <trkpt lat="43.00989" lon="0.84163">
        <ele>663</ele>
        <time>2021-03-13T13:38:17Z</time>
      </trkpt>
      <trkpt lat="43.00985" lon="0.84163">
        <ele>663</ele>
        <time>2021-03-13T13:38:18Z</time>
      </trkpt>
      <trkpt lat="43.00982" lon="0.84163">
        <ele>663</ele>
        <time>2021-03-13T13:38:19Z</time>
      </trkpt>
      <trkpt lat="43.00979" lon="0.84163">
        <ele>665</ele>
        <time>2021-03-13T13:38:20Z</time>
      </trkpt>
      <trkpt lat="43.00976" lon="0.84164">
        <ele>665</ele>
        <time>2021-03-13T13:38:21Z</time>
      </trkpt>
      <trkpt lat="43.00973" lon="0.84164">
        <ele>665</ele>
        <time>2021-03-13T13:38:22Z</time>
      </trkpt>
      <trkpt lat="43.0097" lon="0.84164">
        <ele>665</ele>
        <time>2021-03-13T13:38:23Z</time>
      </trkpt>
      <trkpt lat="43.00967" lon="0.84165">
        <ele>665</ele>
        <time>2021-03-13T13:38:24Z</time>
      </trkpt>
      <trkpt lat="43.00964" lon="0.84165">
        <ele>665</ele>
        <time>2021-03-13T13:38:25Z</time>
      </trkpt>
      <trkpt lat="43.00961" lon="0.84165">
        <ele>665</ele>
        <time>2021-03-13T13:38:26Z</time>
      </trkpt>
      <trkpt lat="43.00958" lon="0.84165">
        <ele>665</ele>
        <time>2021-03-13T13:38:27Z</time>
      </trkpt>
      <trkpt lat="43.00955" lon="0.84165">
        <ele>665</ele>
        <time>2021-03-13T13:38:28Z</time>
      </trkpt>
      <trkpt lat="43.00952" lon="0.84165">
        <ele>665</ele>
        <time>2021-03-13T13:38:29Z</time>
      </trkpt>
      <trkpt lat="43.00949" lon="0.84166">
        <ele>668</ele>
        <time>2021-03-13T13:38:30Z</time>
      </trkpt>
      <trkpt lat="43.00946" lon="0.84166">
        <ele>668</ele>
        <time>2021-03-13T13:38:31Z</time>
      </trkpt>
      <trkpt lat="43.00943" lon="0.84167">
        <ele>668</ele>
        <time>2021-03-13T13:38:32Z</time>
      </trkpt>
      <trkpt lat="43.00941" lon="0.84166">
        <ele>668</ele>
        <time>2021-03-13T13:38:33Z</time>
      </trkpt>
      <trkpt lat="43.00938" lon="0.84166">
        <ele>668</ele>
        <time>2021-03-13T13:38:34Z</time>
      </trkpt>
      <trkpt lat="43.00935" lon="0.84166">
        <ele>670</ele>
        <time>2021-03-13T13:38:35Z</time>
      </trkpt>
      <trkpt lat="43.00932" lon="0.84166">
        <ele>670</ele>
        <time>2021-03-13T13:38:36Z</time>
      </trkpt>
      <trkpt lat="43.00929" lon="0.84166">
        <ele>670</ele>
        <time>2021-03-13T13:38:37Z</time>
      </trkpt>
      <trkpt lat="43.00926" lon="0.84166">
        <ele>670</ele>
        <time>2021-03-13T13:38:38Z</time>
      </trkpt>
      <trkpt lat="43.00923" lon="0.84166">
        <ele>670</ele>
        <time>2021-03-13T13:38:39Z</time>
      </trkpt>
      <trkpt lat="43.0092" lon="0.84166">
        <ele>670</ele>
        <time>2021-03-13T13:38:40Z</time>
      </trkpt>
      <trkpt lat="43.00917" lon="0.84166">
        <ele>670</ele>
        <time>2021-03-13T13:38:41Z</time>
      </trkpt>
      <trkpt lat="43.00914" lon="0.84165">
        <ele>670</ele>
        <time>2021-03-13T13:38:42Z</time>
      </trkpt>
      <trkpt lat="43.00911" lon="0.84165">
        <ele>670</ele>
        <time>2021-03-13T13:38:43Z</time>
      </trkpt>
      <trkpt lat="43.00909" lon="0.84164">
        <ele>670</ele>
        <time>2021-03-13T13:38:44Z</time>
      </trkpt>
      <trkpt lat="43.00906" lon="0.84164">
        <ele>670</ele>
        <time>2021-03-13T13:38:45Z</time>
      </trkpt>
      <trkpt lat="43.00903" lon="0.84163">
        <ele>670</ele>
        <time>2021-03-13T13:38:46Z</time>
      </trkpt>
      <trkpt lat="43.009" lon="0.84162">
        <ele>670</ele>
        <time>2021-03-13T13:38:47Z</time>
      </trkpt>
      <trkpt lat="43.00894" lon="0.84162">
        <ele>670</ele>
        <time>2021-03-13T13:38:48Z</time>
      </trkpt>
      <trkpt lat="43.00894" lon="0.84162">
        <ele>670</ele>
        <time>2021-03-13T13:38:49Z</time>
      </trkpt>
      <trkpt lat="43.00888" lon="0.84161">
        <ele>671</ele>
        <time>2021-03-13T13:38:50Z</time>
      </trkpt>
      <trkpt lat="43.00888" lon="0.84161">
        <ele>671</ele>
        <time>2021-03-13T13:38:51Z</time>
      </trkpt>
      <trkpt lat="43.00882" lon="0.84159">
        <ele>671</ele>
        <time>2021-03-13T13:38:52Z</time>
      </trkpt>
      <trkpt lat="43.00882" lon="0.84159">
        <ele>671</ele>
        <time>2021-03-13T13:38:53Z</time>
      </trkpt>
      <trkpt lat="43.00877" lon="0.84156">
        <ele>671</ele>
        <time>2021-03-13T13:38:54Z</time>
      </trkpt>
      <trkpt lat="43.00877" lon="0.84156">
        <ele>671</ele>
        <time>2021-03-13T13:38:55Z</time>
      </trkpt>
      <trkpt lat="43.00873" lon="0.84152">
        <ele>671</ele>
        <time>2021-03-13T13:38:56Z</time>
      </trkpt>
      <trkpt lat="43.00873" lon="0.84152">
        <ele>671</ele>
        <time>2021-03-13T13:38:57Z</time>
      </trkpt>
      <trkpt lat="43.00868" lon="0.84148">
        <ele>671</ele>
        <time>2021-03-13T13:38:58Z</time>
      </trkpt>
      <trkpt lat="43.00868" lon="0.84148">
        <ele>671</ele>
        <time>2021-03-13T13:38:59Z</time>
      </trkpt>
      <trkpt lat="43.00863" lon="0.84146">
        <ele>673</ele>
        <time>2021-03-13T13:39:00Z</time>
      </trkpt>
      <trkpt lat="43.00863" lon="0.84146">
        <ele>673</ele>
        <time>2021-03-13T13:39:01Z</time>
      </trkpt>
      <trkpt lat="43.00858" lon="0.84148">
        <ele>673</ele>
        <time>2021-03-13T13:39:02Z</time>
      </trkpt>
      <trkpt lat="43.00858" lon="0.84148">
        <ele>673</ele>
        <time>2021-03-13T13:39:03Z</time>
      </trkpt>
      <trkpt lat="43.00856" lon="0.84149">
        <ele>673</ele>
        <time>2021-03-13T13:39:04Z</time>
      </trkpt>
      <trkpt lat="43.00854" lon="0.8415">
        <ele>673</ele>
        <time>2021-03-13T13:39:05Z</time>
      </trkpt>
      <trkpt lat="43.00852" lon="0.8415">
        <ele>673</ele>
        <time>2021-03-13T13:39:06Z</time>
      </trkpt>
      <trkpt lat="43.0085" lon="0.84152">
        <ele>673</ele>
        <time>2021-03-13T13:39:07Z</time>
      </trkpt>
      <trkpt lat="43.00848" lon="0.84154">
        <ele>673</ele>
        <time>2021-03-13T13:39:08Z</time>
      </trkpt>
      <trkpt lat="43.00845" lon="0.84155">
        <ele>673</ele>
        <time>2021-03-13T13:39:09Z</time>
      </trkpt>
      <trkpt lat="43.00841" lon="0.84159">
        <ele>675</ele>
        <time>2021-03-13T13:39:10Z</time>
      </trkpt>
      <trkpt lat="43.00841" lon="0.84159">
        <ele>675</ele>
        <time>2021-03-13T13:39:11Z</time>
      </trkpt>
      <trkpt lat="43.00837" lon="0.84162">
        <ele>675</ele>
        <time>2021-03-13T13:39:12Z</time>
      </trkpt>
      <trkpt lat="43.00837" lon="0.84162">
        <ele>675</ele>
        <time>2021-03-13T13:39:13Z</time>
      </trkpt>
      <trkpt lat="43.00833" lon="0.84166">
        <ele>675</ele>
        <time>2021-03-13T13:39:14Z</time>
      </trkpt>
      <trkpt lat="43.00833" lon="0.84166">
        <ele>675</ele>
        <time>2021-03-13T13:39:15Z</time>
      </trkpt>
      <trkpt lat="43.00827" lon="0.84169">
        <ele>675</ele>
        <time>2021-03-13T13:39:16Z</time>
      </trkpt>
      <trkpt lat="43.00827" lon="0.84169">
        <ele>675</ele>
        <time>2021-03-13T13:39:17Z</time>
      </trkpt>
      <trkpt lat="43.00825" lon="0.8417">
        <ele>675</ele>
        <time>2021-03-13T13:39:18Z</time>
      </trkpt>
      <trkpt lat="43.00822" lon="0.84171">
        <ele>675</ele>
        <time>2021-03-13T13:39:19Z</time>
      </trkpt>
      <trkpt lat="43.0082" lon="0.84171">
        <ele>677</ele>
        <time>2021-03-13T13:39:20Z</time>
      </trkpt>
      <trkpt lat="43.00817" lon="0.84172">
        <ele>677</ele>
        <time>2021-03-13T13:39:21Z</time>
      </trkpt>
      <trkpt lat="43.00814" lon="0.84173">
        <ele>677</ele>
        <time>2021-03-13T13:39:22Z</time>
      </trkpt>
      <trkpt lat="43.00811" lon="0.84174">
        <ele>677</ele>
        <time>2021-03-13T13:39:23Z</time>
      </trkpt>
      <trkpt lat="43.00802" lon="0.84177">
        <ele>677</ele>
        <time>2021-03-13T13:39:24Z</time>
      </trkpt>
      <trkpt lat="43.00802" lon="0.84177">
        <ele>677</ele>
        <time>2021-03-13T13:39:25Z</time>
      </trkpt>
      <trkpt lat="43.00787" lon="0.84183">
        <ele>677</ele>
        <time>2021-03-13T13:39:26Z</time>
      </trkpt>
      <trkpt lat="43.00784" lon="0.84184">
        <ele>677</ele>
        <time>2021-03-13T13:39:27Z</time>
      </trkpt>
      <trkpt lat="43.00774" lon="0.84187">
        <ele>677</ele>
        <time>2021-03-13T13:39:28Z</time>
      </trkpt>
      <trkpt lat="43.0077" lon="0.84189">
        <ele>677</ele>
        <time>2021-03-13T13:39:29Z</time>
      </trkpt>
      <trkpt lat="43.00763" lon="0.84192">
        <ele>672</ele>
        <time>2021-03-13T13:39:30Z</time>
      </trkpt>
      <trkpt lat="43.00754" lon="0.84199">
        <ele>672</ele>
        <time>2021-03-13T13:39:31Z</time>
      </trkpt>
      <trkpt lat="43.00745" lon="0.84206">
        <ele>672</ele>
        <time>2021-03-13T13:39:32Z</time>
      </trkpt>
      <trkpt lat="43.00737" lon="0.84214">
        <ele>672</ele>
        <time>2021-03-13T13:39:33Z</time>
      </trkpt>
      <trkpt lat="43.00727" lon="0.84223">
        <ele>672</ele>
        <time>2021-03-13T13:39:34Z</time>
      </trkpt>
      <trkpt lat="43.00719" lon="0.84232">
        <ele>667</ele>
        <time>2021-03-13T13:39:35Z</time>
      </trkpt>
      <trkpt lat="43.0071" lon="0.8424">
        <ele>667</ele>
        <time>2021-03-13T13:39:36Z</time>
      </trkpt>
      <trkpt lat="43.0071" lon="0.8424">
        <ele>667</ele>
        <time>2021-03-13T13:39:37Z</time>
      </trkpt>
      <trkpt lat="43.00693" lon="0.84255">
        <ele>667</ele>
        <time>2021-03-13T13:39:38Z</time>
      </trkpt>
      <trkpt lat="43.0069" lon="0.84257">
        <ele>667</ele>
        <time>2021-03-13T13:39:39Z</time>
      </trkpt>
      <trkpt lat="43.00679" lon="0.84264">
        <ele>662</ele>
        <time>2021-03-13T13:39:40Z</time>
      </trkpt>
      <trkpt lat="43.00675" lon="0.84267">
        <ele>661</ele>
        <time>2021-03-13T13:39:41Z</time>
      </trkpt>
      <trkpt lat="43.00663" lon="0.84276">
        <ele>659</ele>
        <time>2021-03-13T13:39:42Z</time>
      </trkpt>
      <trkpt lat="43.00659" lon="0.8428">
        <ele>657</ele>
        <time>2021-03-13T13:39:43Z</time>
      </trkpt>
      <trkpt lat="43.00652" lon="0.84286">
        <ele>656</ele>
        <time>2021-03-13T13:39:44Z</time>
      </trkpt>
      <trkpt lat="43.00644" lon="0.84293">
        <ele>655</ele>
        <time>2021-03-13T13:39:45Z</time>
      </trkpt>
      <trkpt lat="43.00636" lon="0.843">
        <ele>654</ele>
        <time>2021-03-13T13:39:46Z</time>
      </trkpt>
      <trkpt lat="43.00628" lon="0.84307">
        <ele>653</ele>
        <time>2021-03-13T13:39:47Z</time>
      </trkpt>
      <trkpt lat="43.0062" lon="0.84315">
        <ele>652</ele>
        <time>2021-03-13T13:39:48Z</time>
      </trkpt>
      <trkpt lat="43.0062" lon="0.84315">
        <ele>652</ele>
        <time>2021-03-13T13:39:49Z</time>
      </trkpt>
      <trkpt lat="43.00604" lon="0.84331">
        <ele>651</ele>
        <time>2021-03-13T13:39:50Z</time>
      </trkpt>
      <trkpt lat="43.00601" lon="0.84334">
        <ele>650</ele>
        <time>2021-03-13T13:39:51Z</time>
      </trkpt>
      <trkpt lat="43.00595" lon="0.84339">
        <ele>649</ele>
        <time>2021-03-13T13:39:52Z</time>
      </trkpt>
      <trkpt lat="43.00595" lon="0.84339">
        <ele>648</ele>
        <time>2021-03-13T13:39:53Z</time>
      </trkpt>
      <trkpt lat="43.00589" lon="0.84333">
        <ele>647</ele>
        <time>2021-03-13T13:39:54Z</time>
      </trkpt>
      <trkpt lat="43.00583" lon="0.84326">
        <ele>645</ele>
        <time>2021-03-13T13:39:55Z</time>
      </trkpt>
      <trkpt lat="43.00578" lon="0.8432">
        <ele>644</ele>
        <time>2021-03-13T13:39:56Z</time>
      </trkpt>
      <trkpt lat="43.00571" lon="0.84307">
        <ele>644</ele>
        <time>2021-03-13T13:39:57Z</time>
      </trkpt>
      <trkpt lat="43.00569" lon="0.84303">
        <ele>643</ele>
        <time>2021-03-13T13:39:58Z</time>
      </trkpt>
      <trkpt lat="43.00561" lon="0.84291">
        <ele>641</ele>
        <time>2021-03-13T13:39:59Z</time>
      </trkpt>
      <trkpt lat="43.00558" lon="0.84288">
        <ele>639</ele>
        <time>2021-03-13T13:40:00Z</time>
      </trkpt>
      <trkpt lat="43.00549" lon="0.8428">
        <ele>639</ele>
        <time>2021-03-13T13:40:01Z</time>
      </trkpt>
      <trkpt lat="43.00546" lon="0.84279">
        <ele>639</ele>
        <time>2021-03-13T13:40:02Z</time>
      </trkpt>
      <trkpt lat="43.00537" lon="0.84274">
        <ele>636</ele>
        <time>2021-03-13T13:40:03Z</time>
      </trkpt>
      <trkpt lat="43.00534" lon="0.84273">
        <ele>635</ele>
        <time>2021-03-13T13:40:04Z</time>
      </trkpt>
      <trkpt lat="43.00524" lon="0.84271">
        <ele>635</ele>
        <time>2021-03-13T13:40:05Z</time>
      </trkpt>
      <trkpt lat="43.0052" lon="0.84271">
        <ele>634</ele>
        <time>2021-03-13T13:40:06Z</time>
      </trkpt>
      <trkpt lat="43.0051" lon="0.8427">
        <ele>632</ele>
        <time>2021-03-13T13:40:07Z</time>
      </trkpt>
      <trkpt lat="43.00507" lon="0.8427">
        <ele>631</ele>
        <time>2021-03-13T13:40:08Z</time>
      </trkpt>
      <trkpt lat="43.00498" lon="0.8427">
        <ele>631</ele>
        <time>2021-03-13T13:40:09Z</time>
      </trkpt>
      <trkpt lat="43.00495" lon="0.84269">
        <ele>628</ele>
        <time>2021-03-13T13:40:10Z</time>
      </trkpt>
      <trkpt lat="43.00488" lon="0.84266">
        <ele>628</ele>
        <time>2021-03-13T13:40:11Z</time>
      </trkpt>
      <trkpt lat="43.00486" lon="0.84263">
        <ele>628</ele>
        <time>2021-03-13T13:40:12Z</time>
      </trkpt>
      <trkpt lat="43.00483" lon="0.84256">
        <ele>628</ele>
        <time>2021-03-13T13:40:13Z</time>
      </trkpt>
      <trkpt lat="43.00483" lon="0.84256">
        <ele>627</ele>
        <time>2021-03-13T13:40:14Z</time>
      </trkpt>
      <trkpt lat="43.00485" lon="0.84255">
        <ele>627</ele>
        <time>2021-03-13T13:40:15Z</time>
      </trkpt>
      <trkpt lat="43.00486" lon="0.84253">
        <ele>627</ele>
        <time>2021-03-13T13:40:16Z</time>
      </trkpt>
      <trkpt lat="43.00487" lon="0.84251">
        <ele>627</ele>
        <time>2021-03-13T13:40:17Z</time>
      </trkpt>
      <trkpt lat="43.00488" lon="0.8425">
        <ele>628</ele>
        <time>2021-03-13T13:40:18Z</time>
      </trkpt>
      <trkpt lat="43.00489" lon="0.84248">
        <ele>628</ele>
        <time>2021-03-13T13:40:19Z</time>
      </trkpt>
      <trkpt lat="43.00491" lon="0.84246">
        <ele>629</ele>
        <time>2021-03-13T13:40:20Z</time>
      </trkpt>
      <trkpt lat="43.00493" lon="0.84246">
        <ele>629</ele>
        <time>2021-03-13T13:40:21Z</time>
      </trkpt>
      <trkpt lat="43.00495" lon="0.84246">
        <ele>629</ele>
        <time>2021-03-13T13:40:22Z</time>
      </trkpt>
      <trkpt lat="43.00497" lon="0.84246">
        <ele>629</ele>
        <time>2021-03-13T13:40:23Z</time>
      </trkpt>
      <trkpt lat="43.005" lon="0.84246">
        <ele>629</ele>
        <time>2021-03-13T13:40:24Z</time>
      </trkpt>
      <trkpt lat="43.00502" lon="0.84246">
        <ele>629</ele>
        <time>2021-03-13T13:40:25Z</time>
      </trkpt>
      <trkpt lat="43.00503" lon="0.84246">
        <ele>629</ele>
        <time>2021-03-13T13:40:26Z</time>
      </trkpt>
      <trkpt lat="43.00505" lon="0.84245">
        <ele>629</ele>
        <time>2021-03-13T13:40:27Z</time>
      </trkpt>
      <trkpt lat="43.00507" lon="0.84244">
        <ele>629</ele>
        <time>2021-03-13T13:40:28Z</time>
      </trkpt>
      <trkpt lat="43.00508" lon="0.84243">
        <ele>629</ele>
        <time>2021-03-13T13:40:29Z</time>
      </trkpt>
      <trkpt lat="43.0051" lon="0.84243">
        <ele>631</ele>
        <time>2021-03-13T13:40:30Z</time>
      </trkpt>
      <trkpt lat="43.00511" lon="0.84242">
        <ele>631</ele>
        <time>2021-03-13T13:40:31Z</time>
      </trkpt>
      <trkpt lat="43.00513" lon="0.84241">
        <ele>631</ele>
        <time>2021-03-13T13:40:32Z</time>
      </trkpt>
      <trkpt lat="43.00515" lon="0.84239">
        <ele>631</ele>
        <time>2021-03-13T13:40:33Z</time>
      </trkpt>
      <trkpt lat="43.00517" lon="0.84237">
        <ele>631</ele>
        <time>2021-03-13T13:40:34Z</time>
      </trkpt>
      <trkpt lat="43.00519" lon="0.84236">
        <ele>631</ele>
        <time>2021-03-13T13:40:35Z</time>
      </trkpt>
      <trkpt lat="43.00521" lon="0.84234">
        <ele>631</ele>
        <time>2021-03-13T13:40:36Z</time>
      </trkpt>
      <trkpt lat="43.00523" lon="0.84233">
        <ele>631</ele>
        <time>2021-03-13T13:40:37Z</time>
      </trkpt>
      <trkpt lat="43.00525" lon="0.84232">
        <ele>631</ele>
        <time>2021-03-13T13:40:38Z</time>
      </trkpt>
      <trkpt lat="43.00527" lon="0.84232">
        <ele>631</ele>
        <time>2021-03-13T13:40:39Z</time>
      </trkpt>
      <trkpt lat="43.00529" lon="0.84231">
        <ele>635</ele>
        <time>2021-03-13T13:40:40Z</time>
      </trkpt>
      <trkpt lat="43.0053" lon="0.8423">
        <ele>635</ele>
        <time>2021-03-13T13:40:41Z</time>
      </trkpt>
      <trkpt lat="43.00532" lon="0.84229">
        <ele>635</ele>
        <time>2021-03-13T13:40:42Z</time>
      </trkpt>
      <trkpt lat="43.00534" lon="0.84229">
        <ele>635</ele>
        <time>2021-03-13T13:40:43Z</time>
      </trkpt>
      <trkpt lat="43.00536" lon="0.84228">
        <ele>635</ele>
        <time>2021-03-13T13:40:44Z</time>
      </trkpt>
      <trkpt lat="43.00538" lon="0.84227">
        <ele>636</ele>
        <time>2021-03-13T13:40:45Z</time>
      </trkpt>
      <trkpt lat="43.0054" lon="0.84226">
        <ele>636</ele>
        <time>2021-03-13T13:40:46Z</time>
      </trkpt>
      <trkpt lat="43.00541" lon="0.84225">
        <ele>636</ele>
        <time>2021-03-13T13:40:47Z</time>
      </trkpt>
      <trkpt lat="43.00543" lon="0.84224">
        <ele>636</ele>
        <time>2021-03-13T13:40:48Z</time>
      </trkpt>
      <trkpt lat="43.00545" lon="0.84223">
        <ele>636</ele>
        <time>2021-03-13T13:40:49Z</time>
      </trkpt>
      <trkpt lat="43.00547" lon="0.84222">
        <ele>637</ele>
        <time>2021-03-13T13:40:50Z</time>
      </trkpt>
      <trkpt lat="43.00549" lon="0.84221">
        <ele>637</ele>
        <time>2021-03-13T13:40:51Z</time>
      </trkpt>
      <trkpt lat="43.00551" lon="0.8422">
        <ele>637</ele>
        <time>2021-03-13T13:40:52Z</time>
      </trkpt>
      <trkpt lat="43.00553" lon="0.84219">
        <ele>637</ele>
        <time>2021-03-13T13:40:53Z</time>
      </trkpt>
      <trkpt lat="43.00554" lon="0.84217">
        <ele>637</ele>
        <time>2021-03-13T13:40:54Z</time>
      </trkpt>
      <trkpt lat="43.00556" lon="0.84216">
        <ele>639</ele>
        <time>2021-03-13T13:40:55Z</time>
      </trkpt>
      <trkpt lat="43.00558" lon="0.84215">
        <ele>639</ele>
        <time>2021-03-13T13:40:56Z</time>
      </trkpt>
      <trkpt lat="43.0056" lon="0.84213">
        <ele>639</ele>
        <time>2021-03-13T13:40:57Z</time>
      </trkpt>
      <trkpt lat="43.00562" lon="0.84212">
        <ele>639</ele>
        <time>2021-03-13T13:40:58Z</time>
      </trkpt>
      <trkpt lat="43.00563" lon="0.8421">
        <ele>639</ele>
        <time>2021-03-13T13:40:59Z</time>
      </trkpt>
      <trkpt lat="43.00565" lon="0.84209">
        <ele>641</ele>
        <time>2021-03-13T13:41:00Z</time>
      </trkpt>
      <trkpt lat="43.00567" lon="0.84207">
        <ele>641</ele>
        <time>2021-03-13T13:41:01Z</time>
      </trkpt>
      <trkpt lat="43.00568" lon="0.84205">
        <ele>641</ele>
        <time>2021-03-13T13:41:02Z</time>
      </trkpt>
      <trkpt lat="43.0057" lon="0.84204">
        <ele>641</ele>
        <time>2021-03-13T13:41:03Z</time>
      </trkpt>
      <trkpt lat="43.00571" lon="0.84202">
        <ele>641</ele>
        <time>2021-03-13T13:41:04Z</time>
      </trkpt>
      <trkpt lat="43.00573" lon="0.84199">
        <ele>642</ele>
        <time>2021-03-13T13:41:05Z</time>
      </trkpt>
      <trkpt lat="43.00574" lon="0.84197">
        <ele>642</ele>
        <time>2021-03-13T13:41:06Z</time>
      </trkpt>
      <trkpt lat="43.00575" lon="0.84195">
        <ele>642</ele>
        <time>2021-03-13T13:41:07Z</time>
      </trkpt>
      <trkpt lat="43.00577" lon="0.84193">
        <ele>642</ele>
        <time>2021-03-13T13:41:08Z</time>
      </trkpt>
      <trkpt lat="43.00578" lon="0.84191">
        <ele>642</ele>
        <time>2021-03-13T13:41:09Z</time>
      </trkpt>
      <trkpt lat="43.00579" lon="0.84189">
        <ele>643</ele>
        <time>2021-03-13T13:41:10Z</time>
      </trkpt>
      <trkpt lat="43.0058" lon="0.84186">
        <ele>643</ele>
        <time>2021-03-13T13:41:11Z</time>
      </trkpt>
      <trkpt lat="43.0058" lon="0.84184">
        <ele>643</ele>
        <time>2021-03-13T13:41:12Z</time>
      </trkpt>
      <trkpt lat="43.00581" lon="0.84181">
        <ele>643</ele>
        <time>2021-03-13T13:41:13Z</time>
      </trkpt>
      <trkpt lat="43.00582" lon="0.84179">
        <ele>643</ele>
        <time>2021-03-13T13:41:14Z</time>
      </trkpt>
      <trkpt lat="43.00583" lon="0.84176">
        <ele>643</ele>
        <time>2021-03-13T13:41:15Z</time>
      </trkpt>
      <trkpt lat="43.00584" lon="0.84173">
        <ele>643</ele>
        <time>2021-03-13T13:41:16Z</time>
      </trkpt>
      <trkpt lat="43.00585" lon="0.8417">
        <ele>643</ele>
        <time>2021-03-13T13:41:17Z</time>
      </trkpt>
      <trkpt lat="43.00586" lon="0.84167">
        <ele>643</ele>
        <time>2021-03-13T13:41:18Z</time>
      </trkpt>
      <trkpt lat="43.00587" lon="0.84164">
        <ele>643</ele>
        <time>2021-03-13T13:41:19Z</time>
      </trkpt>
      <trkpt lat="43.00587" lon="0.84161">
        <ele>644</ele>
        <time>2021-03-13T13:41:20Z</time>
      </trkpt>
      <trkpt lat="43.00588" lon="0.84159">
        <ele>644</ele>
        <time>2021-03-13T13:41:21Z</time>
      </trkpt>
      <trkpt lat="43.00589" lon="0.84156">
        <ele>644</ele>
        <time>2021-03-13T13:41:22Z</time>
      </trkpt>
      <trkpt lat="43.0059" lon="0.84154">
        <ele>644</ele>
        <time>2021-03-13T13:41:23Z</time>
      </trkpt>
      <trkpt lat="43.0059" lon="0.84152">
        <ele>644</ele>
        <time>2021-03-13T13:41:24Z</time>
      </trkpt>
      <trkpt lat="43.00591" lon="0.84149">
        <ele>644</ele>
        <time>2021-03-13T13:41:25Z</time>
      </trkpt>
      <trkpt lat="43.00592" lon="0.84147">
        <ele>644</ele>
        <time>2021-03-13T13:41:26Z</time>
      </trkpt>
      <trkpt lat="43.00593" lon="0.84144">
        <ele>644</ele>
        <time>2021-03-13T13:41:27Z</time>
      </trkpt>
      <trkpt lat="43.00593" lon="0.84142">
        <ele>644</ele>
        <time>2021-03-13T13:41:28Z</time>
      </trkpt>
      <trkpt lat="43.00594" lon="0.84139">
        <ele>644</ele>
        <time>2021-03-13T13:41:29Z</time>
      </trkpt>
      <trkpt lat="43.00595" lon="0.84137">
        <ele>647</ele>
        <time>2021-03-13T13:41:30Z</time>
      </trkpt>
      <trkpt lat="43.00595" lon="0.84134">
        <ele>647</ele>
        <time>2021-03-13T13:41:31Z</time>
      </trkpt>
      <trkpt lat="43.00596" lon="0.84132">
        <ele>647</ele>
        <time>2021-03-13T13:41:32Z</time>
      </trkpt>
      <trkpt lat="43.00597" lon="0.84129">
        <ele>647</ele>
        <time>2021-03-13T13:41:33Z</time>
      </trkpt>
      <trkpt lat="43.00598" lon="0.84127">
        <ele>647</ele>
        <time>2021-03-13T13:41:34Z</time>
      </trkpt>
      <trkpt lat="43.00598" lon="0.84124">
        <ele>649</ele>
        <time>2021-03-13T13:41:35Z</time>
      </trkpt>
      <trkpt lat="43.00599" lon="0.84122">
        <ele>649</ele>
        <time>2021-03-13T13:41:36Z</time>
      </trkpt>
      <trkpt lat="43.006" lon="0.84119">
        <ele>649</ele>
        <time>2021-03-13T13:41:37Z</time>
      </trkpt>
      <trkpt lat="43.00601" lon="0.84117">
        <ele>649</ele>
        <time>2021-03-13T13:41:38Z</time>
      </trkpt>
      <trkpt lat="43.00602" lon="0.84114">
        <ele>649</ele>
        <time>2021-03-13T13:41:39Z</time>
      </trkpt>
      <trkpt lat="43.00603" lon="0.84112">
        <ele>650</ele>
        <time>2021-03-13T13:41:40Z</time>
      </trkpt>
      <trkpt lat="43.00604" lon="0.8411">
        <ele>650</ele>
        <time>2021-03-13T13:41:41Z</time>
      </trkpt>
      <trkpt lat="43.00604" lon="0.84107">
        <ele>650</ele>
        <time>2021-03-13T13:41:42Z</time>
      </trkpt>
      <trkpt lat="43.00605" lon="0.84105">
        <ele>650</ele>
        <time>2021-03-13T13:41:43Z</time>
      </trkpt>
      <trkpt lat="43.00606" lon="0.84103">
        <ele>650</ele>
        <time>2021-03-13T13:41:44Z</time>
      </trkpt>
      <trkpt lat="43.00607" lon="0.84101">
        <ele>651</ele>
        <time>2021-03-13T13:41:45Z</time>
      </trkpt>
      <trkpt lat="43.00608" lon="0.84098">
        <ele>651</ele>
        <time>2021-03-13T13:41:46Z</time>
      </trkpt>
      <trkpt lat="43.00609" lon="0.84096">
        <ele>651</ele>
        <time>2021-03-13T13:41:47Z</time>
      </trkpt>
      <trkpt lat="43.0061" lon="0.84094">
        <ele>651</ele>
        <time>2021-03-13T13:41:48Z</time>
      </trkpt>
      <trkpt lat="43.00611" lon="0.84091">
        <ele>651</ele>
        <time>2021-03-13T13:41:49Z</time>
      </trkpt>
      <trkpt lat="43.00612" lon="0.84089">
        <ele>652</ele>
        <time>2021-03-13T13:41:50Z</time>
      </trkpt>
      <trkpt lat="43.00614" lon="0.84087">
        <ele>652</ele>
        <time>2021-03-13T13:41:51Z</time>
      </trkpt>
      <trkpt lat="43.00615" lon="0.84084">
        <ele>652</ele>
        <time>2021-03-13T13:41:52Z</time>
      </trkpt>
      <trkpt lat="43.00616" lon="0.84082">
        <ele>652</ele>
        <time>2021-03-13T13:41:53Z</time>
      </trkpt>
      <trkpt lat="43.00617" lon="0.84079">
        <ele>652</ele>
        <time>2021-03-13T13:41:54Z</time>
      </trkpt>
      <trkpt lat="43.00618" lon="0.84077">
        <ele>652</ele>
        <time>2021-03-13T13:41:55Z</time>
      </trkpt>
      <trkpt lat="43.00618" lon="0.84075">
        <ele>652</ele>
        <time>2021-03-13T13:41:56Z</time>
      </trkpt>
      <trkpt lat="43.00619" lon="0.84072">
        <ele>652</ele>
        <time>2021-03-13T13:41:57Z</time>
      </trkpt>
      <trkpt lat="43.00619" lon="0.84069">
        <ele>652</ele>
        <time>2021-03-13T13:41:58Z</time>
      </trkpt>
      <trkpt lat="43.0062" lon="0.84066">
        <ele>652</ele>
        <time>2021-03-13T13:41:59Z</time>
      </trkpt>
      <trkpt lat="43.00621" lon="0.84063">
        <ele>654</ele>
        <time>2021-03-13T13:42:00Z</time>
      </trkpt>
      <trkpt lat="43.00621" lon="0.84061">
        <ele>654</ele>
        <time>2021-03-13T13:42:01Z</time>
      </trkpt>
      <trkpt lat="43.0062" lon="0.84058">
        <ele>654</ele>
        <time>2021-03-13T13:42:02Z</time>
      </trkpt>
      <trkpt lat="43.0062" lon="0.84056">
        <ele>654</ele>
        <time>2021-03-13T13:42:03Z</time>
      </trkpt>
      <trkpt lat="43.0062" lon="0.84054">
        <ele>654</ele>
        <time>2021-03-13T13:42:04Z</time>
      </trkpt>
      <trkpt lat="43.0062" lon="0.84051">
        <ele>656</ele>
        <time>2021-03-13T13:42:05Z</time>
      </trkpt>
      <trkpt lat="43.00619" lon="0.84048">
        <ele>656</ele>
        <time>2021-03-13T13:42:06Z</time>
      </trkpt>
      <trkpt lat="43.00619" lon="0.84045">
        <ele>656</ele>
        <time>2021-03-13T13:42:07Z</time>
      </trkpt>
      <trkpt lat="43.00619" lon="0.84042">
        <ele>656</ele>
        <time>2021-03-13T13:42:08Z</time>
      </trkpt>
      <trkpt lat="43.00619" lon="0.84039">
        <ele>656</ele>
        <time>2021-03-13T13:42:09Z</time>
      </trkpt>
      <trkpt lat="43.00619" lon="0.84035">
        <ele>657</ele>
        <time>2021-03-13T13:42:10Z</time>
      </trkpt>
      <trkpt lat="43.00619" lon="0.84032">
        <ele>657</ele>
        <time>2021-03-13T13:42:11Z</time>
      </trkpt>
      <trkpt lat="43.00617" lon="0.84025">
        <ele>657</ele>
        <time>2021-03-13T13:42:12Z</time>
      </trkpt>
      <trkpt lat="43.00617" lon="0.84025">
        <ele>657</ele>
        <time>2021-03-13T13:42:13Z</time>
      </trkpt>
      <trkpt lat="43.00612" lon="0.8402">
        <ele>657</ele>
        <time>2021-03-13T13:42:14Z</time>
      </trkpt>
      <trkpt lat="43.00612" lon="0.8402">
        <ele>658</ele>
        <time>2021-03-13T13:42:15Z</time>
      </trkpt>
      <trkpt lat="43.00608" lon="0.84016">
        <ele>658</ele>
        <time>2021-03-13T13:42:16Z</time>
      </trkpt>
      <trkpt lat="43.00608" lon="0.84016">
        <ele>658</ele>
        <time>2021-03-13T13:42:17Z</time>
      </trkpt>
      <trkpt lat="43.00604" lon="0.84013">
        <ele>658</ele>
        <time>2021-03-13T13:42:18Z</time>
      </trkpt>
      <trkpt lat="43.00604" lon="0.84013">
        <ele>658</ele>
        <time>2021-03-13T13:42:19Z</time>
      </trkpt>
      <trkpt lat="43.00602" lon="0.84012">
        <ele>659</ele>
        <time>2021-03-13T13:42:20Z</time>
      </trkpt>
      <trkpt lat="43.006" lon="0.8401">
        <ele>659</ele>
        <time>2021-03-13T13:42:21Z</time>
      </trkpt>
      <trkpt lat="43.00598" lon="0.84009">
        <ele>659</ele>
        <time>2021-03-13T13:42:22Z</time>
      </trkpt>
      <trkpt lat="43.00596" lon="0.84007">
        <ele>659</ele>
        <time>2021-03-13T13:42:23Z</time>
      </trkpt>
      <trkpt lat="43.00594" lon="0.84006">
        <ele>659</ele>
        <time>2021-03-13T13:42:24Z</time>
      </trkpt>
      <trkpt lat="43.00592" lon="0.84006">
        <ele>659</ele>
        <time>2021-03-13T13:42:25Z</time>
      </trkpt>
      <trkpt lat="43.0059" lon="0.84006">
        <ele>659</ele>
        <time>2021-03-13T13:42:26Z</time>
      </trkpt>
      <trkpt lat="43.00588" lon="0.84006">
        <ele>659</ele>
        <time>2021-03-13T13:42:27Z</time>
      </trkpt>
      <trkpt lat="43.00585" lon="0.84006">
        <ele>659</ele>
        <time>2021-03-13T13:42:28Z</time>
      </trkpt>
      <trkpt lat="43.00583" lon="0.84006">
        <ele>659</ele>
        <time>2021-03-13T13:42:29Z</time>
      </trkpt>
      <trkpt lat="43.00581" lon="0.84005">
        <ele>661</ele>
        <time>2021-03-13T13:42:30Z</time>
      </trkpt>
      <trkpt lat="43.00579" lon="0.84005">
        <ele>661</ele>
        <time>2021-03-13T13:42:31Z</time>
      </trkpt>
      <trkpt lat="43.00577" lon="0.84004">
        <ele>661</ele>
        <time>2021-03-13T13:42:32Z</time>
      </trkpt>
      <trkpt lat="43.00574" lon="0.84003">
        <ele>661</ele>
        <time>2021-03-13T13:42:33Z</time>
      </trkpt>
      <trkpt lat="43.00572" lon="0.84003">
        <ele>661</ele>
        <time>2021-03-13T13:42:34Z</time>
      </trkpt>
      <trkpt lat="43.00571" lon="0.84001">
        <ele>661</ele>
        <time>2021-03-13T13:42:35Z</time>
      </trkpt>
      <trkpt lat="43.0057" lon="0.83998">
        <ele>661</ele>
        <time>2021-03-13T13:42:36Z</time>
      </trkpt>
      <trkpt lat="43.00568" lon="0.83996">
        <ele>661</ele>
        <time>2021-03-13T13:42:37Z</time>
      </trkpt>
      <trkpt lat="43.00567" lon="0.83994">
        <ele>661</ele>
        <time>2021-03-13T13:42:38Z</time>
      </trkpt>
      <trkpt lat="43.00566" lon="0.83992">
        <ele>661</ele>
        <time>2021-03-13T13:42:39Z</time>
      </trkpt>
      <trkpt lat="43.00566" lon="0.83989">
        <ele>663</ele>
        <time>2021-03-13T13:42:40Z</time>
      </trkpt>
      <trkpt lat="43.00565" lon="0.83986">
        <ele>663</ele>
        <time>2021-03-13T13:42:41Z</time>
      </trkpt>
      <trkpt lat="43.00565" lon="0.83983">
        <ele>663</ele>
        <time>2021-03-13T13:42:42Z</time>
      </trkpt>
      <trkpt lat="43.00565" lon="0.8398">
        <ele>663</ele>
        <time>2021-03-13T13:42:43Z</time>
      </trkpt>
      <trkpt lat="43.00565" lon="0.83977">
        <ele>663</ele>
        <time>2021-03-13T13:42:44Z</time>
      </trkpt>
      <trkpt lat="43.00565" lon="0.83974">
        <ele>663</ele>
        <time>2021-03-13T13:42:45Z</time>
      </trkpt>
      <trkpt lat="43.00566" lon="0.83972">
        <ele>663</ele>
        <time>2021-03-13T13:42:46Z</time>
      </trkpt>
      <trkpt lat="43.00566" lon="0.8397">
        <ele>663</ele>
        <time>2021-03-13T13:42:47Z</time>
      </trkpt>
      <trkpt lat="43.00567" lon="0.83968">
        <ele>663</ele>
        <time>2021-03-13T13:42:48Z</time>
      </trkpt>
      <trkpt lat="43.00567" lon="0.83965">
        <ele>663</ele>
        <time>2021-03-13T13:42:49Z</time>
      </trkpt>
      <trkpt lat="43.00568" lon="0.83963">
        <ele>665</ele>
        <time>2021-03-13T13:42:50Z</time>
      </trkpt>
      <trkpt lat="43.0057" lon="0.83962">
        <ele>665</ele>
        <time>2021-03-13T13:42:51Z</time>
      </trkpt>
      <trkpt lat="43.00572" lon="0.8396">
        <ele>665</ele>
        <time>2021-03-13T13:42:52Z</time>
      </trkpt>
      <trkpt lat="43.00574" lon="0.83959">
        <ele>665</ele>
        <time>2021-03-13T13:42:53Z</time>
      </trkpt>
      <trkpt lat="43.00575" lon="0.83958">
        <ele>665</ele>
        <time>2021-03-13T13:42:54Z</time>
      </trkpt>
      <trkpt lat="43.00577" lon="0.83957">
        <ele>665</ele>
        <time>2021-03-13T13:42:55Z</time>
      </trkpt>
      <trkpt lat="43.00579" lon="0.83955">
        <ele>665</ele>
        <time>2021-03-13T13:42:56Z</time>
      </trkpt>
      <trkpt lat="43.00581" lon="0.83953">
        <ele>665</ele>
        <time>2021-03-13T13:42:57Z</time>
      </trkpt>
      <trkpt lat="43.00583" lon="0.83951">
        <ele>665</ele>
        <time>2021-03-13T13:42:58Z</time>
      </trkpt>
      <trkpt lat="43.00586" lon="0.8395">
        <ele>665</ele>
        <time>2021-03-13T13:42:59Z</time>
      </trkpt>
      <trkpt lat="43.00588" lon="0.83948">
        <ele>666</ele>
        <time>2021-03-13T13:43:00Z</time>
      </trkpt>
      <trkpt lat="43.00589" lon="0.83946">
        <ele>666</ele>
        <time>2021-03-13T13:43:01Z</time>
      </trkpt>
      <trkpt lat="43.00591" lon="0.83943">
        <ele>666</ele>
        <time>2021-03-13T13:43:02Z</time>
      </trkpt>
      <trkpt lat="43.00592" lon="0.83941">
        <ele>666</ele>
        <time>2021-03-13T13:43:03Z</time>
      </trkpt>
      <trkpt lat="43.00594" lon="0.83939">
        <ele>666</ele>
        <time>2021-03-13T13:43:04Z</time>
      </trkpt>
      <trkpt lat="43.00595" lon="0.83937">
        <ele>666</ele>
        <time>2021-03-13T13:43:05Z</time>
      </trkpt>
      <trkpt lat="43.00597" lon="0.83934">
        <ele>666</ele>
        <time>2021-03-13T13:43:06Z</time>
      </trkpt>
      <trkpt lat="43.00599" lon="0.83931">
        <ele>666</ele>
        <time>2021-03-13T13:43:07Z</time>
      </trkpt>
      <trkpt lat="43.00601" lon="0.83928">
        <ele>666</ele>
        <time>2021-03-13T13:43:08Z</time>
      </trkpt>
      <trkpt lat="43.00602" lon="0.83925">
        <ele>666</ele>
        <time>2021-03-13T13:43:09Z</time>
      </trkpt>
      <trkpt lat="43.00604" lon="0.83922">
        <ele>668</ele>
        <time>2021-03-13T13:43:10Z</time>
      </trkpt>
      <trkpt lat="43.00605" lon="0.83919">
        <ele>668</ele>
        <time>2021-03-13T13:43:11Z</time>
      </trkpt>
      <trkpt lat="43.00606" lon="0.83916">
        <ele>668</ele>
        <time>2021-03-13T13:43:12Z</time>
      </trkpt>
      <trkpt lat="43.00608" lon="0.83913">
        <ele>668</ele>
        <time>2021-03-13T13:43:13Z</time>
      </trkpt>
      <trkpt lat="43.00609" lon="0.8391">
        <ele>668</ele>
        <time>2021-03-13T13:43:14Z</time>
      </trkpt>
      <trkpt lat="43.00611" lon="0.83907">
        <ele>668</ele>
        <time>2021-03-13T13:43:15Z</time>
      </trkpt>
      <trkpt lat="43.00612" lon="0.83904">
        <ele>668</ele>
        <time>2021-03-13T13:43:16Z</time>
      </trkpt>
      <trkpt lat="43.00614" lon="0.83901">
        <ele>668</ele>
        <time>2021-03-13T13:43:17Z</time>
      </trkpt>
      <trkpt lat="43.00615" lon="0.83898">
        <ele>668</ele>
        <time>2021-03-13T13:43:18Z</time>
      </trkpt>
      <trkpt lat="43.00617" lon="0.83895">
        <ele>668</ele>
        <time>2021-03-13T13:43:19Z</time>
      </trkpt>
      <trkpt lat="43.00618" lon="0.83892">
        <ele>670</ele>
        <time>2021-03-13T13:43:20Z</time>
      </trkpt>
      <trkpt lat="43.0062" lon="0.8389">
        <ele>670</ele>
        <time>2021-03-13T13:43:21Z</time>
      </trkpt>
      <trkpt lat="43.00621" lon="0.83887">
        <ele>670</ele>
        <time>2021-03-13T13:43:22Z</time>
      </trkpt>
      <trkpt lat="43.00622" lon="0.83884">
        <ele>670</ele>
        <time>2021-03-13T13:43:23Z</time>
      </trkpt>
      <trkpt lat="43.00623" lon="0.83881">
        <ele>670</ele>
        <time>2021-03-13T13:43:24Z</time>
      </trkpt>
      <trkpt lat="43.00624" lon="0.83879">
        <ele>670</ele>
        <time>2021-03-13T13:43:25Z</time>
      </trkpt>
      <trkpt lat="43.00625" lon="0.83876">
        <ele>670</ele>
        <time>2021-03-13T13:43:26Z</time>
      </trkpt>
      <trkpt lat="43.00626" lon="0.83873">
        <ele>670</ele>
        <time>2021-03-13T13:43:27Z</time>
      </trkpt>
      <trkpt lat="43.00627" lon="0.8387">
        <ele>670</ele>
        <time>2021-03-13T13:43:28Z</time>
      </trkpt>
      <trkpt lat="43.00628" lon="0.83868">
        <ele>670</ele>
        <time>2021-03-13T13:43:29Z</time>
      </trkpt>
      <trkpt lat="43.0063" lon="0.83865">
        <ele>671</ele>
        <time>2021-03-13T13:43:30Z</time>
      </trkpt>
      <trkpt lat="43.00631" lon="0.83862">
        <ele>671</ele>
        <time>2021-03-13T13:43:31Z</time>
      </trkpt>
      <trkpt lat="43.00633" lon="0.83859">
        <ele>671</ele>
        <time>2021-03-13T13:43:32Z</time>
      </trkpt>
      <trkpt lat="43.00634" lon="0.83857">
        <ele>671</ele>
        <time>2021-03-13T13:43:33Z</time>
      </trkpt>
      <trkpt lat="43.00636" lon="0.83854">
        <ele>671</ele>
        <time>2021-03-13T13:43:34Z</time>
      </trkpt>
      <trkpt lat="43.00638" lon="0.83851">
        <ele>671</ele>
        <time>2021-03-13T13:43:35Z</time>
      </trkpt>
      <trkpt lat="43.0064" lon="0.83848">
        <ele>671</ele>
        <time>2021-03-13T13:43:36Z</time>
      </trkpt>
      <trkpt lat="43.00642" lon="0.83846">
        <ele>671</ele>
        <time>2021-03-13T13:43:37Z</time>
      </trkpt>
      <trkpt lat="43.00642" lon="0.83846">
        <ele>671</ele>
        <time>2021-03-13T13:43:38Z</time>
      </trkpt>
      <trkpt lat="43.00646" lon="0.83843">
        <ele>671</ele>
        <time>2021-03-13T13:43:39Z</time>
      </trkpt>
      <trkpt lat="43.00646" lon="0.83843">
        <ele>673</ele>
        <time>2021-03-13T13:43:40Z</time>
      </trkpt>
      <trkpt lat="43.0065" lon="0.8384">
        <ele>673</ele>
        <time>2021-03-13T13:43:41Z</time>
      </trkpt>
      <trkpt lat="43.0065" lon="0.8384">
        <ele>673</ele>
        <time>2021-03-13T13:43:42Z</time>
      </trkpt>
      <trkpt lat="43.00654" lon="0.83837">
        <ele>673</ele>
        <time>2021-03-13T13:43:43Z</time>
      </trkpt>
      <trkpt lat="43.00654" lon="0.83837">
        <ele>673</ele>
        <time>2021-03-13T13:43:44Z</time>
      </trkpt>
      <trkpt lat="43.00656" lon="0.83836">
        <ele>673</ele>
        <time>2021-03-13T13:43:45Z</time>
      </trkpt>
      <trkpt lat="43.00658" lon="0.83835">
        <ele>673</ele>
        <time>2021-03-13T13:43:46Z</time>
      </trkpt>
      <trkpt lat="43.00661" lon="0.83833">
        <ele>673</ele>
        <time>2021-03-13T13:43:47Z</time>
      </trkpt>
      <trkpt lat="43.00663" lon="0.83832">
        <ele>673</ele>
        <time>2021-03-13T13:43:48Z</time>
      </trkpt>
      <trkpt lat="43.00665" lon="0.83831">
        <ele>673</ele>
        <time>2021-03-13T13:43:49Z</time>
      </trkpt>
      <trkpt lat="43.00666" lon="0.83829">
        <ele>675</ele>
        <time>2021-03-13T13:43:50Z</time>
      </trkpt>
      <trkpt lat="43.00668" lon="0.83827">
        <ele>675</ele>
        <time>2021-03-13T13:43:51Z</time>
      </trkpt>
      <trkpt lat="43.0067" lon="0.83826">
        <ele>675</ele>
        <time>2021-03-13T13:43:52Z</time>
      </trkpt>
      <trkpt lat="43.00674" lon="0.83822">
        <ele>675</ele>
        <time>2021-03-13T13:43:53Z</time>
      </trkpt>
      <trkpt lat="43.00674" lon="0.83822">
        <ele>675</ele>
        <time>2021-03-13T13:43:54Z</time>
      </trkpt>
      <trkpt lat="43.00675" lon="0.8382">
        <ele>675</ele>
        <time>2021-03-13T13:43:55Z</time>
      </trkpt>
      <trkpt lat="43.00676" lon="0.83818">
        <ele>675</ele>
        <time>2021-03-13T13:43:56Z</time>
      </trkpt>
      <trkpt lat="43.00678" lon="0.83817">
        <ele>675</ele>
        <time>2021-03-13T13:43:57Z</time>
      </trkpt>
      <trkpt lat="43.00679" lon="0.83815">
        <ele>675</ele>
        <time>2021-03-13T13:43:58Z</time>
      </trkpt>
      <trkpt lat="43.0068" lon="0.83812">
        <ele>675</ele>
        <time>2021-03-13T13:43:59Z</time>
      </trkpt>
      <trkpt lat="43.00682" lon="0.8381">
        <ele>678</ele>
        <time>2021-03-13T13:44:00Z</time>
      </trkpt>
      <trkpt lat="43.00684" lon="0.83808">
        <ele>678</ele>
        <time>2021-03-13T13:44:01Z</time>
      </trkpt>
      <trkpt lat="43.00685" lon="0.83806">
        <ele>678</ele>
        <time>2021-03-13T13:44:02Z</time>
      </trkpt>
      <trkpt lat="43.00687" lon="0.83804">
        <ele>678</ele>
        <time>2021-03-13T13:44:03Z</time>
      </trkpt>
      <trkpt lat="43.00688" lon="0.83803">
        <ele>678</ele>
        <time>2021-03-13T13:44:04Z</time>
      </trkpt>
      <trkpt lat="43.00689" lon="0.83801">
        <ele>680</ele>
        <time>2021-03-13T13:44:05Z</time>
      </trkpt>
      <trkpt lat="43.00691" lon="0.83799">
        <ele>680</ele>
        <time>2021-03-13T13:44:06Z</time>
      </trkpt>
      <trkpt lat="43.00692" lon="0.83798">
        <ele>680</ele>
        <time>2021-03-13T13:44:07Z</time>
      </trkpt>
      <trkpt lat="43.00693" lon="0.83796">
        <ele>680</ele>
        <time>2021-03-13T13:44:08Z</time>
      </trkpt>
      <trkpt lat="43.00695" lon="0.83794">
        <ele>680</ele>
        <time>2021-03-13T13:44:09Z</time>
      </trkpt>
      <trkpt lat="43.00697" lon="0.83792">
        <ele>680</ele>
        <time>2021-03-13T13:44:10Z</time>
      </trkpt>
      <trkpt lat="43.00701" lon="0.83787">
        <ele>680</ele>
        <time>2021-03-13T13:44:11Z</time>
      </trkpt>
      <trkpt lat="43.00701" lon="0.83787">
        <ele>680</ele>
        <time>2021-03-13T13:44:12Z</time>
      </trkpt>
      <trkpt lat="43.00705" lon="0.83781">
        <ele>680</ele>
        <time>2021-03-13T13:44:13Z</time>
      </trkpt>
      <trkpt lat="43.00705" lon="0.83781">
        <ele>680</ele>
        <time>2021-03-13T13:44:14Z</time>
      </trkpt>
      <trkpt lat="43.00709" lon="0.83775">
        <ele>680</ele>
        <time>2021-03-13T13:44:15Z</time>
      </trkpt>
      <trkpt lat="43.00709" lon="0.83775">
        <ele>680</ele>
        <time>2021-03-13T13:44:16Z</time>
      </trkpt>
      <trkpt lat="43.00712" lon="0.8377">
        <ele>680</ele>
        <time>2021-03-13T13:44:17Z</time>
      </trkpt>
      <trkpt lat="43.00712" lon="0.8377">
        <ele>680</ele>
        <time>2021-03-13T13:44:18Z</time>
      </trkpt>
      <trkpt lat="43.00714" lon="0.83764">
        <ele>680</ele>
        <time>2021-03-13T13:44:19Z</time>
      </trkpt>
      <trkpt lat="43.00714" lon="0.83764">
        <ele>681</ele>
        <time>2021-03-13T13:44:20Z</time>
      </trkpt>
      <trkpt lat="43.00715" lon="0.83758">
        <ele>681</ele>
        <time>2021-03-13T13:44:21Z</time>
      </trkpt>
      <trkpt lat="43.00715" lon="0.83758">
        <ele>681</ele>
        <time>2021-03-13T13:44:22Z</time>
      </trkpt>
      <trkpt lat="43.00715" lon="0.83751">
        <ele>681</ele>
        <time>2021-03-13T13:44:23Z</time>
      </trkpt>
      <trkpt lat="43.00715" lon="0.83751">
        <ele>681</ele>
        <time>2021-03-13T13:44:24Z</time>
      </trkpt>
      <trkpt lat="43.00715" lon="0.83744">
        <ele>681</ele>
        <time>2021-03-13T13:44:25Z</time>
      </trkpt>
      <trkpt lat="43.00715" lon="0.83744">
        <ele>681</ele>
        <time>2021-03-13T13:44:26Z</time>
      </trkpt>
      <trkpt lat="43.00714" lon="0.83737">
        <ele>681</ele>
        <time>2021-03-13T13:44:27Z</time>
      </trkpt>
      <trkpt lat="43.00714" lon="0.83737">
        <ele>681</ele>
        <time>2021-03-13T13:44:28Z</time>
      </trkpt>
      <trkpt lat="43.00713" lon="0.83731">
        <ele>681</ele>
        <time>2021-03-13T13:44:29Z</time>
      </trkpt>
      <trkpt lat="43.00713" lon="0.83731">
        <ele>683</ele>
        <time>2021-03-13T13:44:30Z</time>
      </trkpt>
      <trkpt lat="43.00712" lon="0.83725">
        <ele>683</ele>
        <time>2021-03-13T13:44:31Z</time>
      </trkpt>
      <trkpt lat="43.00712" lon="0.83725">
        <ele>683</ele>
        <time>2021-03-13T13:44:32Z</time>
      </trkpt>
      <trkpt lat="43.00709" lon="0.83719">
        <ele>683</ele>
        <time>2021-03-13T13:44:33Z</time>
      </trkpt>
      <trkpt lat="43.00709" lon="0.83719">
        <ele>683</ele>
        <time>2021-03-13T13:44:34Z</time>
      </trkpt>
      <trkpt lat="43.00706" lon="0.83713">
        <ele>683</ele>
        <time>2021-03-13T13:44:35Z</time>
      </trkpt>
      <trkpt lat="43.00706" lon="0.83713">
        <ele>683</ele>
        <time>2021-03-13T13:44:36Z</time>
      </trkpt>
      <trkpt lat="43.00702" lon="0.83709">
        <ele>683</ele>
        <time>2021-03-13T13:44:37Z</time>
      </trkpt>
      <trkpt lat="43.00702" lon="0.83709">
        <ele>683</ele>
        <time>2021-03-13T13:44:38Z</time>
      </trkpt>
      <trkpt lat="43.00698" lon="0.83705">
        <ele>683</ele>
        <time>2021-03-13T13:44:39Z</time>
      </trkpt>
      <trkpt lat="43.00698" lon="0.83705">
        <ele>685</ele>
        <time>2021-03-13T13:44:40Z</time>
      </trkpt>
      <trkpt lat="43.00694" lon="0.83704">
        <ele>685</ele>
        <time>2021-03-13T13:44:41Z</time>
      </trkpt>
      <trkpt lat="43.00694" lon="0.83704">
        <ele>685</ele>
        <time>2021-03-13T13:44:42Z</time>
      </trkpt>
      <trkpt lat="43.00689" lon="0.83704">
        <ele>685</ele>
        <time>2021-03-13T13:44:43Z</time>
      </trkpt>
      <trkpt lat="43.00689" lon="0.83704">
        <ele>685</ele>
        <time>2021-03-13T13:44:44Z</time>
      </trkpt>
      <trkpt lat="43.00684" lon="0.83704">
        <ele>685</ele>
        <time>2021-03-13T13:44:45Z</time>
      </trkpt>
      <trkpt lat="43.00684" lon="0.83704">
        <ele>685</ele>
        <time>2021-03-13T13:44:46Z</time>
      </trkpt>
      <trkpt lat="43.0068" lon="0.83705">
        <ele>685</ele>
        <time>2021-03-13T13:44:47Z</time>
      </trkpt>
      <trkpt lat="43.0068" lon="0.83705">
        <ele>685</ele>
        <time>2021-03-13T13:44:48Z</time>
      </trkpt>
      <trkpt lat="43.00675" lon="0.83706">
        <ele>685</ele>
        <time>2021-03-13T13:44:49Z</time>
      </trkpt>
      <trkpt lat="43.00675" lon="0.83706">
        <ele>687</ele>
        <time>2021-03-13T13:44:50Z</time>
      </trkpt>
      <trkpt lat="43.00671" lon="0.83708">
        <ele>687</ele>
        <time>2021-03-13T13:44:51Z</time>
      </trkpt>
      <trkpt lat="43.00671" lon="0.83708">
        <ele>687</ele>
        <time>2021-03-13T13:44:52Z</time>
      </trkpt>
      <trkpt lat="43.00667" lon="0.83709">
        <ele>687</ele>
        <time>2021-03-13T13:44:53Z</time>
      </trkpt>
      <trkpt lat="43.00667" lon="0.83709">
        <ele>687</ele>
        <time>2021-03-13T13:44:54Z</time>
      </trkpt>
      <trkpt lat="43.00662" lon="0.83712">
        <ele>687</ele>
        <time>2021-03-13T13:44:55Z</time>
      </trkpt>
      <trkpt lat="43.00662" lon="0.83712">
        <ele>687</ele>
        <time>2021-03-13T13:44:56Z</time>
      </trkpt>
      <trkpt lat="43.0066" lon="0.83713">
        <ele>687</ele>
        <time>2021-03-13T13:44:57Z</time>
      </trkpt>
      <trkpt lat="43.00659" lon="0.83715">
        <ele>687</ele>
        <time>2021-03-13T13:44:58Z</time>
      </trkpt>
      <trkpt lat="43.00657" lon="0.83716">
        <ele>687</ele>
        <time>2021-03-13T13:44:59Z</time>
      </trkpt>
      <trkpt lat="43.00655" lon="0.83717">
        <ele>690</ele>
        <time>2021-03-13T13:45:00Z</time>
      </trkpt>
      <trkpt lat="43.00654" lon="0.83719">
        <ele>690</ele>
        <time>2021-03-13T13:45:01Z</time>
      </trkpt>
      <trkpt lat="43.00652" lon="0.8372">
        <ele>690</ele>
        <time>2021-03-13T13:45:02Z</time>
      </trkpt>
      <trkpt lat="43.0065" lon="0.83721">
        <ele>690</ele>
        <time>2021-03-13T13:45:03Z</time>
      </trkpt>
      <trkpt lat="43.00648" lon="0.83722">
        <ele>690</ele>
        <time>2021-03-13T13:45:04Z</time>
      </trkpt>
      <trkpt lat="43.00647" lon="0.83724">
        <ele>690</ele>
        <time>2021-03-13T13:45:05Z</time>
      </trkpt>
      <trkpt lat="43.00645" lon="0.83725">
        <ele>690</ele>
        <time>2021-03-13T13:45:06Z</time>
      </trkpt>
      <trkpt lat="43.00644" lon="0.83726">
        <ele>690</ele>
        <time>2021-03-13T13:45:07Z</time>
      </trkpt>
      <trkpt lat="43.00642" lon="0.83728">
        <ele>690</ele>
        <time>2021-03-13T13:45:08Z</time>
      </trkpt>
      <trkpt lat="43.0064" lon="0.83729">
        <ele>690</ele>
        <time>2021-03-13T13:45:09Z</time>
      </trkpt>
      <trkpt lat="43.00639" lon="0.83731">
        <ele>692</ele>
        <time>2021-03-13T13:45:10Z</time>
      </trkpt>
      <trkpt lat="43.00637" lon="0.83732">
        <ele>692</ele>
        <time>2021-03-13T13:45:11Z</time>
      </trkpt>
      <trkpt lat="43.00635" lon="0.83734">
        <ele>692</ele>
        <time>2021-03-13T13:45:12Z</time>
      </trkpt>
      <trkpt lat="43.00634" lon="0.83735">
        <ele>692</ele>
        <time>2021-03-13T13:45:13Z</time>
      </trkpt>
      <trkpt lat="43.00633" lon="0.83736">
        <ele>692</ele>
        <time>2021-03-13T13:45:14Z</time>
      </trkpt>
      <trkpt lat="43.00631" lon="0.83737">
        <ele>692</ele>
        <time>2021-03-13T13:45:15Z</time>
      </trkpt>
      <trkpt lat="43.0063" lon="0.83739">
        <ele>692</ele>
        <time>2021-03-13T13:45:16Z</time>
      </trkpt>
      <trkpt lat="43.00629" lon="0.83741">
        <ele>692</ele>
        <time>2021-03-13T13:45:17Z</time>
      </trkpt>
      <trkpt lat="43.00627" lon="0.83743">
        <ele>692</ele>
        <time>2021-03-13T13:45:18Z</time>
      </trkpt>
      <trkpt lat="43.00624" lon="0.83747">
        <ele>692</ele>
        <time>2021-03-13T13:45:19Z</time>
      </trkpt>
      <trkpt lat="43.00624" lon="0.83747">
        <ele>694</ele>
        <time>2021-03-13T13:45:20Z</time>
      </trkpt>
      <trkpt lat="43.00621" lon="0.83751">
        <ele>694</ele>
        <time>2021-03-13T13:45:21Z</time>
      </trkpt>
      <trkpt lat="43.00621" lon="0.83751">
        <ele>694</ele>
        <time>2021-03-13T13:45:22Z</time>
      </trkpt>
      <trkpt lat="43.00617" lon="0.83754">
        <ele>694</ele>
        <time>2021-03-13T13:45:23Z</time>
      </trkpt>
      <trkpt lat="43.00617" lon="0.83754">
        <ele>694</ele>
        <time>2021-03-13T13:45:24Z</time>
      </trkpt>
      <trkpt lat="43.00615" lon="0.83755">
        <ele>694</ele>
        <time>2021-03-13T13:45:25Z</time>
      </trkpt>
      <trkpt lat="43.00613" lon="0.83756">
        <ele>694</ele>
        <time>2021-03-13T13:45:26Z</time>
      </trkpt>
      <trkpt lat="43.00612" lon="0.83757">
        <ele>694</ele>
        <time>2021-03-13T13:45:27Z</time>
      </trkpt>
      <trkpt lat="43.0061" lon="0.83758">
        <ele>694</ele>
        <time>2021-03-13T13:45:28Z</time>
      </trkpt>
      <trkpt lat="43.00608" lon="0.83759">
        <ele>694</ele>
        <time>2021-03-13T13:45:29Z</time>
      </trkpt>
      <trkpt lat="43.00606" lon="0.8376">
        <ele>695</ele>
        <time>2021-03-13T13:45:30Z</time>
      </trkpt>
      <trkpt lat="43.00604" lon="0.8376">
        <ele>695</ele>
        <time>2021-03-13T13:45:31Z</time>
      </trkpt>
      <trkpt lat="43.00603" lon="0.83761">
        <ele>695</ele>
        <time>2021-03-13T13:45:32Z</time>
      </trkpt>
      <trkpt lat="43.00602" lon="0.83761">
        <ele>695</ele>
        <time>2021-03-13T13:45:33Z</time>
      </trkpt>
      <trkpt lat="43.00601" lon="0.83762">
        <ele>695</ele>
        <time>2021-03-13T13:45:34Z</time>
      </trkpt>
      <trkpt lat="43.00599" lon="0.83762">
        <ele>695</ele>
        <time>2021-03-13T13:45:35Z</time>
      </trkpt>
      <trkpt lat="43.00598" lon="0.83762">
        <ele>695</ele>
        <time>2021-03-13T13:45:36Z</time>
      </trkpt>
      <trkpt lat="43.00596" lon="0.83763">
        <ele>695</ele>
        <time>2021-03-13T13:45:37Z</time>
      </trkpt>
      <trkpt lat="43.00594" lon="0.83764">
        <ele>695</ele>
        <time>2021-03-13T13:45:38Z</time>
      </trkpt>
      <trkpt lat="43.00592" lon="0.83765">
        <ele>695</ele>
        <time>2021-03-13T13:45:39Z</time>
      </trkpt>
      <trkpt lat="43.0059" lon="0.83766">
        <ele>697</ele>
        <time>2021-03-13T13:45:40Z</time>
      </trkpt>
      <trkpt lat="43.00588" lon="0.83766">
        <ele>697</ele>
        <time>2021-03-13T13:45:41Z</time>
      </trkpt>
      <trkpt lat="43.00586" lon="0.83767">
        <ele>697</ele>
        <time>2021-03-13T13:45:42Z</time>
      </trkpt>
      <trkpt lat="43.00584" lon="0.83768">
        <ele>697</ele>
        <time>2021-03-13T13:45:43Z</time>
      </trkpt>
      <trkpt lat="43.00583" lon="0.83767">
        <ele>697</ele>
        <time>2021-03-13T13:45:44Z</time>
      </trkpt>
      <trkpt lat="43.00582" lon="0.83767">
        <ele>698</ele>
        <time>2021-03-13T13:45:45Z</time>
      </trkpt>
      <trkpt lat="43.0058" lon="0.83766">
        <ele>698</ele>
        <time>2021-03-13T13:45:46Z</time>
      </trkpt>
      <trkpt lat="43.00579" lon="0.83765">
        <ele>698</ele>
        <time>2021-03-13T13:45:47Z</time>
      </trkpt>
      <trkpt lat="43.00577" lon="0.83765">
        <ele>698</ele>
        <time>2021-03-13T13:45:48Z</time>
      </trkpt>
      <trkpt lat="43.00576" lon="0.83765">
        <ele>698</ele>
        <time>2021-03-13T13:45:49Z</time>
      </trkpt>
      <trkpt lat="43.00575" lon="0.83765">
        <ele>700</ele>
        <time>2021-03-13T13:45:50Z</time>
      </trkpt>
      <trkpt lat="43.00573" lon="0.83765">
        <ele>700</ele>
        <time>2021-03-13T13:45:51Z</time>
      </trkpt>
      <trkpt lat="43.00572" lon="0.83765">
        <ele>700</ele>
        <time>2021-03-13T13:45:52Z</time>
      </trkpt>
      <trkpt lat="43.00571" lon="0.83765">
        <ele>700</ele>
        <time>2021-03-13T13:45:53Z</time>
      </trkpt>
      <trkpt lat="43.0057" lon="0.83765">
        <ele>700</ele>
        <time>2021-03-13T13:45:54Z</time>
      </trkpt>
      <trkpt lat="43.00569" lon="0.83765">
        <ele>701</ele>
        <time>2021-03-13T13:45:55Z</time>
      </trkpt>
      <trkpt lat="43.00567" lon="0.83765">
        <ele>701</ele>
        <time>2021-03-13T13:45:56Z</time>
      </trkpt>
      <trkpt lat="43.00566" lon="0.83766">
        <ele>701</ele>
        <time>2021-03-13T13:45:57Z</time>
      </trkpt>
      <trkpt lat="43.00565" lon="0.83766">
        <ele>701</ele>
        <time>2021-03-13T13:45:58Z</time>
      </trkpt>
      <trkpt lat="43.00563" lon="0.83766">
        <ele>701</ele>
        <time>2021-03-13T13:45:59Z</time>
      </trkpt>
      <trkpt lat="43.00562" lon="0.83766">
        <ele>703</ele>
        <time>2021-03-13T13:46:00Z</time>
      </trkpt>
      <trkpt lat="43.00561" lon="0.83767">
        <ele>703</ele>
        <time>2021-03-13T13:46:01Z</time>
      </trkpt>
      <trkpt lat="43.0056" lon="0.83767">
        <ele>703</ele>
        <time>2021-03-13T13:46:02Z</time>
      </trkpt>
      <trkpt lat="43.00558" lon="0.83768">
        <ele>703</ele>
        <time>2021-03-13T13:46:03Z</time>
      </trkpt>
      <trkpt lat="43.00556" lon="0.83768">
        <ele>703</ele>
        <time>2021-03-13T13:46:04Z</time>
      </trkpt>
      <trkpt lat="43.00554" lon="0.83769">
        <ele>703</ele>
        <time>2021-03-13T13:46:05Z</time>
      </trkpt>
      <trkpt lat="43.00553" lon="0.8377">
        <ele>703</ele>
        <time>2021-03-13T13:46:06Z</time>
      </trkpt>
      <trkpt lat="43.00551" lon="0.83771">
        <ele>703</ele>
        <time>2021-03-13T13:46:07Z</time>
      </trkpt>
      <trkpt lat="43.00549" lon="0.83771">
        <ele>703</ele>
        <time>2021-03-13T13:46:08Z</time>
      </trkpt>
      <trkpt lat="43.00548" lon="0.83771">
        <ele>703</ele>
        <time>2021-03-13T13:46:09Z</time>
      </trkpt>
      <trkpt lat="43.00547" lon="0.83772">
        <ele>703</ele>
        <time>2021-03-13T13:46:10Z</time>
      </trkpt>
      <trkpt lat="43.00546" lon="0.83772">
        <ele>703</ele>
        <time>2021-03-13T13:46:11Z</time>
      </trkpt>
      <trkpt lat="43.00544" lon="0.83773">
        <ele>703</ele>
        <time>2021-03-13T13:46:12Z</time>
      </trkpt>
      <trkpt lat="43.00543" lon="0.83773">
        <ele>703</ele>
        <time>2021-03-13T13:46:13Z</time>
      </trkpt>
      <trkpt lat="43.00542" lon="0.83773">
        <ele>704</ele>
        <time>2021-03-13T13:46:14Z</time>
      </trkpt>
      <trkpt lat="43.0054" lon="0.83774">
        <ele>704</ele>
        <time>2021-03-13T13:46:15Z</time>
      </trkpt>
      <trkpt lat="43.00538" lon="0.83775">
        <ele>704</ele>
        <time>2021-03-13T13:46:16Z</time>
      </trkpt>
      <trkpt lat="43.00537" lon="0.83776">
        <ele>704</ele>
        <time>2021-03-13T13:46:17Z</time>
      </trkpt>
      <trkpt lat="43.00535" lon="0.83776">
        <ele>704</ele>
        <time>2021-03-13T13:46:18Z</time>
      </trkpt>
      <trkpt lat="43.00533" lon="0.83777">
        <ele>704</ele>
        <time>2021-03-13T13:46:19Z</time>
      </trkpt>
      <trkpt lat="43.00531" lon="0.83778">
        <ele>706</ele>
        <time>2021-03-13T13:46:20Z</time>
      </trkpt>
      <trkpt lat="43.0053" lon="0.83779">
        <ele>706</ele>
        <time>2021-03-13T13:46:21Z</time>
      </trkpt>
      <trkpt lat="43.00528" lon="0.8378">
        <ele>706</ele>
        <time>2021-03-13T13:46:22Z</time>
      </trkpt>
      <trkpt lat="43.00526" lon="0.83781">
        <ele>706</ele>
        <time>2021-03-13T13:46:23Z</time>
      </trkpt>
      <trkpt lat="43.00525" lon="0.83781">
        <ele>706</ele>
        <time>2021-03-13T13:46:24Z</time>
      </trkpt>
      <trkpt lat="43.00523" lon="0.83782">
        <ele>708</ele>
        <time>2021-03-13T13:46:25Z</time>
      </trkpt>
      <trkpt lat="43.00522" lon="0.83782">
        <ele>708</ele>
        <time>2021-03-13T13:46:26Z</time>
      </trkpt>
      <trkpt lat="43.0052" lon="0.83782">
        <ele>708</ele>
        <time>2021-03-13T13:46:27Z</time>
      </trkpt>
      <trkpt lat="43.00519" lon="0.83783">
        <ele>708</ele>
        <time>2021-03-13T13:46:28Z</time>
      </trkpt>
      <trkpt lat="43.00517" lon="0.83783">
        <ele>708</ele>
        <time>2021-03-13T13:46:29Z</time>
      </trkpt>
      <trkpt lat="43.00516" lon="0.83784">
        <ele>710</ele>
        <time>2021-03-13T13:46:30Z</time>
      </trkpt>
      <trkpt lat="43.00515" lon="0.83784">
        <ele>710</ele>
        <time>2021-03-13T13:46:31Z</time>
      </trkpt>
      <trkpt lat="43.00513" lon="0.83785">
        <ele>710</ele>
        <time>2021-03-13T13:46:32Z</time>
      </trkpt>
      <trkpt lat="43.00512" lon="0.83785">
        <ele>710</ele>
        <time>2021-03-13T13:46:33Z</time>
      </trkpt>
      <trkpt lat="43.00511" lon="0.83786">
        <ele>710</ele>
        <time>2021-03-13T13:46:34Z</time>
      </trkpt>
      <trkpt lat="43.00509" lon="0.83786">
        <ele>711</ele>
        <time>2021-03-13T13:46:35Z</time>
      </trkpt>
      <trkpt lat="43.00508" lon="0.83787">
        <ele>711</ele>
        <time>2021-03-13T13:46:36Z</time>
      </trkpt>
      <trkpt lat="43.00507" lon="0.83787">
        <ele>711</ele>
        <time>2021-03-13T13:46:37Z</time>
      </trkpt>
      <trkpt lat="43.00506" lon="0.83788">
        <ele>711</ele>
        <time>2021-03-13T13:46:38Z</time>
      </trkpt>
      <trkpt lat="43.00505" lon="0.83788">
        <ele>711</ele>
        <time>2021-03-13T13:46:39Z</time>
      </trkpt>
      <trkpt lat="43.00503" lon="0.83789">
        <ele>713</ele>
        <time>2021-03-13T13:46:40Z</time>
      </trkpt>
      <trkpt lat="43.00502" lon="0.83789">
        <ele>713</ele>
        <time>2021-03-13T13:46:41Z</time>
      </trkpt>
      <trkpt lat="43.00501" lon="0.8379">
        <ele>713</ele>
        <time>2021-03-13T13:46:42Z</time>
      </trkpt>
      <trkpt lat="43.00499" lon="0.83791">
        <ele>713</ele>
        <time>2021-03-13T13:46:43Z</time>
      </trkpt>
      <trkpt lat="43.00498" lon="0.83791">
        <ele>713</ele>
        <time>2021-03-13T13:46:44Z</time>
      </trkpt>
      <trkpt lat="43.00496" lon="0.83792">
        <ele>714</ele>
        <time>2021-03-13T13:46:45Z</time>
      </trkpt>
      <trkpt lat="43.00495" lon="0.83793">
        <ele>714</ele>
        <time>2021-03-13T13:46:46Z</time>
      </trkpt>
      <trkpt lat="43.00493" lon="0.83793">
        <ele>714</ele>
        <time>2021-03-13T13:46:47Z</time>
      </trkpt>
      <trkpt lat="43.00492" lon="0.83794">
        <ele>714</ele>
        <time>2021-03-13T13:46:48Z</time>
      </trkpt>
      <trkpt lat="43.0049" lon="0.83794">
        <ele>714</ele>
        <time>2021-03-13T13:46:49Z</time>
      </trkpt>
      <trkpt lat="43.00489" lon="0.83795">
        <ele>716</ele>
        <time>2021-03-13T13:46:50Z</time>
      </trkpt>
      <trkpt lat="43.00488" lon="0.83795">
        <ele>716</ele>
        <time>2021-03-13T13:46:51Z</time>
      </trkpt>
      <trkpt lat="43.00487" lon="0.83796">
        <ele>716</ele>
        <time>2021-03-13T13:46:52Z</time>
      </trkpt>
      <trkpt lat="43.00486" lon="0.83796">
        <ele>716</ele>
        <time>2021-03-13T13:46:53Z</time>
      </trkpt>
      <trkpt lat="43.00485" lon="0.83797">
        <ele>716</ele>
        <time>2021-03-13T13:46:54Z</time>
      </trkpt>
      <trkpt lat="43.00483" lon="0.83797">
        <ele>717</ele>
        <time>2021-03-13T13:46:55Z</time>
      </trkpt>
      <trkpt lat="43.00482" lon="0.83798">
        <ele>717</ele>
        <time>2021-03-13T13:46:56Z</time>
      </trkpt>
      <trkpt lat="43.00481" lon="0.83798">
        <ele>717</ele>
        <time>2021-03-13T13:46:57Z</time>
      </trkpt>
      <trkpt lat="43.00479" lon="0.83799">
        <ele>717</ele>
        <time>2021-03-13T13:46:58Z</time>
      </trkpt>
      <trkpt lat="43.00478" lon="0.83799">
        <ele>717</ele>
        <time>2021-03-13T13:46:59Z</time>
      </trkpt>
      <trkpt lat="43.00477" lon="0.838">
        <ele>720</ele>
        <time>2021-03-13T13:47:00Z</time>
      </trkpt>
      <trkpt lat="43.00475" lon="0.838">
        <ele>720</ele>
        <time>2021-03-13T13:47:01Z</time>
      </trkpt>
      <trkpt lat="43.00474" lon="0.83801">
        <ele>720</ele>
        <time>2021-03-13T13:47:02Z</time>
      </trkpt>
      <trkpt lat="43.00473" lon="0.83801">
        <ele>720</ele>
        <time>2021-03-13T13:47:03Z</time>
      </trkpt>
      <trkpt lat="43.00471" lon="0.83802">
        <ele>720</ele>
        <time>2021-03-13T13:47:04Z</time>
      </trkpt>
      <trkpt lat="43.0047" lon="0.83803">
        <ele>721</ele>
        <time>2021-03-13T13:47:05Z</time>
      </trkpt>
      <trkpt lat="43.00469" lon="0.83803">
        <ele>721</ele>
        <time>2021-03-13T13:47:06Z</time>
      </trkpt>
      <trkpt lat="43.00467" lon="0.83804">
        <ele>721</ele>
        <time>2021-03-13T13:47:07Z</time>
      </trkpt>
      <trkpt lat="43.00466" lon="0.83804">
        <ele>721</ele>
        <time>2021-03-13T13:47:08Z</time>
      </trkpt>
      <trkpt lat="43.00464" lon="0.83804">
        <ele>721</ele>
        <time>2021-03-13T13:47:09Z</time>
      </trkpt>
      <trkpt lat="43.00462" lon="0.83804">
        <ele>722</ele>
        <time>2021-03-13T13:47:10Z</time>
      </trkpt>
      <trkpt lat="43.00461" lon="0.83805">
        <ele>722</ele>
        <time>2021-03-13T13:47:11Z</time>
      </trkpt>
      <trkpt lat="43.00459" lon="0.83805">
        <ele>722</ele>
        <time>2021-03-13T13:47:12Z</time>
      </trkpt>
      <trkpt lat="43.00457" lon="0.83805">
        <ele>722</ele>
        <time>2021-03-13T13:47:13Z</time>
      </trkpt>
      <trkpt lat="43.00456" lon="0.83805">
        <ele>722</ele>
        <time>2021-03-13T13:47:14Z</time>
      </trkpt>
      <trkpt lat="43.00454" lon="0.83806">
        <ele>724</ele>
        <time>2021-03-13T13:47:15Z</time>
      </trkpt>
      <trkpt lat="43.00453" lon="0.83806">
        <ele>724</ele>
        <time>2021-03-13T13:47:16Z</time>
      </trkpt>
      <trkpt lat="43.00451" lon="0.83806">
        <ele>724</ele>
        <time>2021-03-13T13:47:17Z</time>
      </trkpt>
      <trkpt lat="43.00449" lon="0.83807">
        <ele>724</ele>
        <time>2021-03-13T13:47:18Z</time>
      </trkpt>
      <trkpt lat="43.00447" lon="0.83808">
        <ele>724</ele>
        <time>2021-03-13T13:47:19Z</time>
      </trkpt>
      <trkpt lat="43.00445" lon="0.83808">
        <ele>725</ele>
        <time>2021-03-13T13:47:20Z</time>
      </trkpt>
      <trkpt lat="43.00443" lon="0.83809">
        <ele>725</ele>
        <time>2021-03-13T13:47:21Z</time>
      </trkpt>
      <trkpt lat="43.00442" lon="0.8381">
        <ele>725</ele>
        <time>2021-03-13T13:47:22Z</time>
      </trkpt>
      <trkpt lat="43.0044" lon="0.8381">
        <ele>725</ele>
        <time>2021-03-13T13:47:23Z</time>
      </trkpt>
      <trkpt lat="43.00438" lon="0.83811">
        <ele>725</ele>
        <time>2021-03-13T13:47:24Z</time>
      </trkpt>
      <trkpt lat="43.00436" lon="0.83812">
        <ele>727</ele>
        <time>2021-03-13T13:47:25Z</time>
      </trkpt>
      <trkpt lat="43.00434" lon="0.83813">
        <ele>727</ele>
        <time>2021-03-13T13:47:26Z</time>
      </trkpt>
      <trkpt lat="43.00433" lon="0.83815">
        <ele>727</ele>
        <time>2021-03-13T13:47:27Z</time>
      </trkpt>
      <trkpt lat="43.00431" lon="0.83816">
        <ele>727</ele>
        <time>2021-03-13T13:47:28Z</time>
      </trkpt>
      <trkpt lat="43.00429" lon="0.83817">
        <ele>727</ele>
        <time>2021-03-13T13:47:29Z</time>
      </trkpt>
      <trkpt lat="43.00427" lon="0.83818">
        <ele>729</ele>
        <time>2021-03-13T13:47:30Z</time>
      </trkpt>
      <trkpt lat="43.00426" lon="0.83819">
        <ele>729</ele>
        <time>2021-03-13T13:47:31Z</time>
      </trkpt>
      <trkpt lat="43.00424" lon="0.8382">
        <ele>729</ele>
        <time>2021-03-13T13:47:32Z</time>
      </trkpt>
      <trkpt lat="43.00422" lon="0.83821">
        <ele>729</ele>
        <time>2021-03-13T13:47:33Z</time>
      </trkpt>
      <trkpt lat="43.00419" lon="0.83823">
        <ele>729</ele>
        <time>2021-03-13T13:47:34Z</time>
      </trkpt>
      <trkpt lat="43.00419" lon="0.83823">
        <ele>729</ele>
        <time>2021-03-13T13:47:35Z</time>
      </trkpt>
      <trkpt lat="43.00415" lon="0.83825">
        <ele>729</ele>
        <time>2021-03-13T13:47:36Z</time>
      </trkpt>
      <trkpt lat="43.00415" lon="0.83825">
        <ele>729</ele>
        <time>2021-03-13T13:47:37Z</time>
      </trkpt>
      <trkpt lat="43.00413" lon="0.83826">
        <ele>729</ele>
        <time>2021-03-13T13:47:38Z</time>
      </trkpt>
      <trkpt lat="43.00412" lon="0.83827">
        <ele>729</ele>
        <time>2021-03-13T13:47:39Z</time>
      </trkpt>
      <trkpt lat="43.0041" lon="0.83828">
        <ele>730</ele>
        <time>2021-03-13T13:47:40Z</time>
      </trkpt>
      <trkpt lat="43.00408" lon="0.83828">
        <ele>730</ele>
        <time>2021-03-13T13:47:41Z</time>
      </trkpt>
      <trkpt lat="43.00407" lon="0.83829">
        <ele>730</ele>
        <time>2021-03-13T13:47:42Z</time>
      </trkpt>
      <trkpt lat="43.00405" lon="0.8383">
        <ele>730</ele>
        <time>2021-03-13T13:47:43Z</time>
      </trkpt>
      <trkpt lat="43.00403" lon="0.8383">
        <ele>730</ele>
        <time>2021-03-13T13:47:44Z</time>
      </trkpt>
      <trkpt lat="43.00401" lon="0.83831">
        <ele>730</ele>
        <time>2021-03-13T13:47:45Z</time>
      </trkpt>
      <trkpt lat="43.004" lon="0.83831">
        <ele>730</ele>
        <time>2021-03-13T13:47:46Z</time>
      </trkpt>
      <trkpt lat="43.00398" lon="0.83832">
        <ele>730</ele>
        <time>2021-03-13T13:47:47Z</time>
      </trkpt>
      <trkpt lat="43.00396" lon="0.83833">
        <ele>730</ele>
        <time>2021-03-13T13:47:48Z</time>
      </trkpt>
      <trkpt lat="43.00394" lon="0.83834">
        <ele>730</ele>
        <time>2021-03-13T13:47:49Z</time>
      </trkpt>
      <trkpt lat="43.00391" lon="0.83835">
        <ele>732</ele>
        <time>2021-03-13T13:47:50Z</time>
      </trkpt>
      <trkpt lat="43.00391" lon="0.83835">
        <ele>732</ele>
        <time>2021-03-13T13:47:51Z</time>
      </trkpt>
      <trkpt lat="43.00389" lon="0.83835">
        <ele>732</ele>
        <time>2021-03-13T13:47:52Z</time>
      </trkpt>
      <trkpt lat="43.00388" lon="0.83835">
        <ele>732</ele>
        <time>2021-03-13T13:47:53Z</time>
      </trkpt>
      <trkpt lat="43.00386" lon="0.83834">
        <ele>732</ele>
        <time>2021-03-13T13:47:54Z</time>
      </trkpt>
      <trkpt lat="43.00383" lon="0.83831">
        <ele>732</ele>
        <time>2021-03-13T13:47:55Z</time>
      </trkpt>
      <trkpt lat="43.00383" lon="0.83831">
        <ele>732</ele>
        <time>2021-03-13T13:47:56Z</time>
      </trkpt>
      <trkpt lat="43.00381" lon="0.83827">
        <ele>732</ele>
        <time>2021-03-13T13:47:57Z</time>
      </trkpt>
      <trkpt lat="43.00381" lon="0.83827">
        <ele>732</ele>
        <time>2021-03-13T13:47:58Z</time>
      </trkpt>
      <trkpt lat="43.00379" lon="0.83824">
        <ele>732</ele>
        <time>2021-03-13T13:47:59Z</time>
      </trkpt>
      <trkpt lat="43.00379" lon="0.83824">
        <ele>735</ele>
        <time>2021-03-13T13:48:00Z</time>
      </trkpt>
      <trkpt lat="43.00376" lon="0.83821">
        <ele>735</ele>
        <time>2021-03-13T13:48:01Z</time>
      </trkpt>
      <trkpt lat="43.00376" lon="0.83821">
        <ele>735</ele>
        <time>2021-03-13T13:48:02Z</time>
      </trkpt>
      <trkpt lat="43.00373" lon="0.83818">
        <ele>735</ele>
        <time>2021-03-13T13:48:03Z</time>
      </trkpt>
      <trkpt lat="43.00373" lon="0.83818">
        <ele>735</ele>
        <time>2021-03-13T13:48:04Z</time>
      </trkpt>
      <trkpt lat="43.0037" lon="0.83816">
        <ele>736</ele>
        <time>2021-03-13T13:48:05Z</time>
      </trkpt>
      <trkpt lat="43.0037" lon="0.83816">
        <ele>736</ele>
        <time>2021-03-13T13:48:06Z</time>
      </trkpt>
      <trkpt lat="43.00367" lon="0.83814">
        <ele>736</ele>
        <time>2021-03-13T13:48:07Z</time>
      </trkpt>
      <trkpt lat="43.00367" lon="0.83814">
        <ele>736</ele>
        <time>2021-03-13T13:48:08Z</time>
      </trkpt>
      <trkpt lat="43.00363" lon="0.83813">
        <ele>736</ele>
        <time>2021-03-13T13:48:09Z</time>
      </trkpt>
      <trkpt lat="43.00363" lon="0.83813">
        <ele>736</ele>
        <time>2021-03-13T13:48:10Z</time>
      </trkpt>
      <trkpt lat="43.00359" lon="0.83812">
        <ele>736</ele>
        <time>2021-03-13T13:48:11Z</time>
      </trkpt>
      <trkpt lat="43.00359" lon="0.83812">
        <ele>736</ele>
        <time>2021-03-13T13:48:12Z</time>
      </trkpt>
      <trkpt lat="43.00355" lon="0.83812">
        <ele>736</ele>
        <time>2021-03-13T13:48:13Z</time>
      </trkpt>
      <trkpt lat="43.00355" lon="0.83812">
        <ele>736</ele>
        <time>2021-03-13T13:48:14Z</time>
      </trkpt>
      <trkpt lat="43.00348" lon="0.83813">
        <ele>736</ele>
        <time>2021-03-13T13:48:15Z</time>
      </trkpt>
      <trkpt lat="43.00348" lon="0.83813">
        <ele>736</ele>
        <time>2021-03-13T13:48:16Z</time>
      </trkpt>
      <trkpt lat="43.00337" lon="0.83814">
        <ele>736</ele>
        <time>2021-03-13T13:48:17Z</time>
      </trkpt>
      <trkpt lat="43.00335" lon="0.83814">
        <ele>736</ele>
        <time>2021-03-13T13:48:18Z</time>
      </trkpt>
      <trkpt lat="43.00329" lon="0.83815">
        <ele>736</ele>
        <time>2021-03-13T13:48:19Z</time>
      </trkpt>
      <trkpt lat="43.00324" lon="0.83816">
        <ele>736</ele>
        <time>2021-03-13T13:48:20Z</time>
      </trkpt>
      <trkpt lat="43.00317" lon="0.83816">
        <ele>736</ele>
        <time>2021-03-13T13:48:21Z</time>
      </trkpt>
      <trkpt lat="43.00311" lon="0.83816">
        <ele>736</ele>
        <time>2021-03-13T13:48:22Z</time>
      </trkpt>
      <trkpt lat="43.00311" lon="0.83816">
        <ele>736</ele>
        <time>2021-03-13T13:48:23Z</time>
      </trkpt>
      <trkpt lat="43.003" lon="0.83809">
        <ele>736</ele>
        <time>2021-03-13T13:48:24Z</time>
      </trkpt>
      <trkpt lat="43.00299" lon="0.83806">
        <ele>736</ele>
        <time>2021-03-13T13:48:25Z</time>
      </trkpt>
      <trkpt lat="43.00296" lon="0.83802">
        <ele>736</ele>
        <time>2021-03-13T13:48:26Z</time>
      </trkpt>
      <trkpt lat="43.00296" lon="0.83802">
        <ele>736</ele>
        <time>2021-03-13T13:48:27Z</time>
      </trkpt>
      <trkpt lat="43.00291" lon="0.83793">
        <ele>736</ele>
        <time>2021-03-13T13:48:28Z</time>
      </trkpt>
      <trkpt lat="43.00291" lon="0.83793">
        <ele>736</ele>
        <time>2021-03-13T13:48:29Z</time>
      </trkpt>
      <trkpt lat="43.00287" lon="0.83785">
        <ele>735</ele>
        <time>2021-03-13T13:48:30Z</time>
      </trkpt>
      <trkpt lat="43.00287" lon="0.83785">
        <ele>735</ele>
        <time>2021-03-13T13:48:31Z</time>
      </trkpt>
      <trkpt lat="43.00286" lon="0.83782">
        <ele>735</ele>
        <time>2021-03-13T13:48:32Z</time>
      </trkpt>
      <trkpt lat="43.00284" lon="0.83779">
        <ele>735</ele>
        <time>2021-03-13T13:48:33Z</time>
      </trkpt>
      <trkpt lat="43.00283" lon="0.83775">
        <ele>735</ele>
        <time>2021-03-13T13:48:34Z</time>
      </trkpt>
      <trkpt lat="43.00281" lon="0.83772">
        <ele>735</ele>
        <time>2021-03-13T13:48:35Z</time>
      </trkpt>
      <trkpt lat="43.0028" lon="0.83769">
        <ele>735</ele>
        <time>2021-03-13T13:48:36Z</time>
      </trkpt>
      <trkpt lat="43.00278" lon="0.83766">
        <ele>735</ele>
        <time>2021-03-13T13:48:37Z</time>
      </trkpt>
      <trkpt lat="43.00277" lon="0.83763">
        <ele>735</ele>
        <time>2021-03-13T13:48:38Z</time>
      </trkpt>
      <trkpt lat="43.00276" lon="0.8376">
        <ele>735</ele>
        <time>2021-03-13T13:48:39Z</time>
      </trkpt>
      <trkpt lat="43.00275" lon="0.83757">
        <ele>736</ele>
        <time>2021-03-13T13:48:40Z</time>
      </trkpt>
      <trkpt lat="43.00275" lon="0.83754">
        <ele>736</ele>
        <time>2021-03-13T13:48:41Z</time>
      </trkpt>
      <trkpt lat="43.00271" lon="0.83746">
        <ele>736</ele>
        <time>2021-03-13T13:48:42Z</time>
      </trkpt>
      <trkpt lat="43.00271" lon="0.83746">
        <ele>736</ele>
        <time>2021-03-13T13:48:43Z</time>
      </trkpt>
      <trkpt lat="43.00267" lon="0.83739">
        <ele>736</ele>
        <time>2021-03-13T13:48:44Z</time>
      </trkpt>
      <trkpt lat="43.00267" lon="0.83739">
        <ele>736</ele>
        <time>2021-03-13T13:48:45Z</time>
      </trkpt>
      <trkpt lat="43.00264" lon="0.83733">
        <ele>736</ele>
        <time>2021-03-13T13:48:46Z</time>
      </trkpt>
      <trkpt lat="43.00264" lon="0.83733">
        <ele>736</ele>
        <time>2021-03-13T13:48:47Z</time>
      </trkpt>
      <trkpt lat="43.0026" lon="0.83727">
        <ele>736</ele>
        <time>2021-03-13T13:48:48Z</time>
      </trkpt>
      <trkpt lat="43.0026" lon="0.83727">
        <ele>736</ele>
        <time>2021-03-13T13:48:49Z</time>
      </trkpt>
      <trkpt lat="43.00257" lon="0.83721">
        <ele>738</ele>
        <time>2021-03-13T13:48:50Z</time>
      </trkpt>
      <trkpt lat="43.00257" lon="0.83721">
        <ele>738</ele>
        <time>2021-03-13T13:48:51Z</time>
      </trkpt>
      <trkpt lat="43.00256" lon="0.83718">
        <ele>738</ele>
        <time>2021-03-13T13:48:52Z</time>
      </trkpt>
      <trkpt lat="43.00254" lon="0.83715">
        <ele>738</ele>
        <time>2021-03-13T13:48:53Z</time>
      </trkpt>
      <trkpt lat="43.00253" lon="0.83712">
        <ele>738</ele>
        <time>2021-03-13T13:48:54Z</time>
      </trkpt>
      <trkpt lat="43.00251" lon="0.83711">
        <ele>738</ele>
        <time>2021-03-13T13:48:55Z</time>
      </trkpt>
      <trkpt lat="43.0025" lon="0.83709">
        <ele>738</ele>
        <time>2021-03-13T13:48:56Z</time>
      </trkpt>
      <trkpt lat="43.00248" lon="0.83707">
        <ele>738</ele>
        <time>2021-03-13T13:48:57Z</time>
      </trkpt>
      <trkpt lat="43.00246" lon="0.83705">
        <ele>738</ele>
        <time>2021-03-13T13:48:58Z</time>
      </trkpt>
      <trkpt lat="43.00245" lon="0.83704">
        <ele>738</ele>
        <time>2021-03-13T13:48:59Z</time>
      </trkpt>
      <trkpt lat="43.00243" lon="0.83702">
        <ele>741</ele>
        <time>2021-03-13T13:49:00Z</time>
      </trkpt>
      <trkpt lat="43.00242" lon="0.837">
        <ele>741</ele>
        <time>2021-03-13T13:49:01Z</time>
      </trkpt>
      <trkpt lat="43.0024" lon="0.83697">
        <ele>741</ele>
        <time>2021-03-13T13:49:02Z</time>
      </trkpt>
      <trkpt lat="43.00239" lon="0.83695">
        <ele>741</ele>
        <time>2021-03-13T13:49:03Z</time>
      </trkpt>
      <trkpt lat="43.00238" lon="0.83693">
        <ele>741</ele>
        <time>2021-03-13T13:49:04Z</time>
      </trkpt>
      <trkpt lat="43.00237" lon="0.8369">
        <ele>743</ele>
        <time>2021-03-13T13:49:05Z</time>
      </trkpt>
      <trkpt lat="43.00236" lon="0.83688">
        <ele>743</ele>
        <time>2021-03-13T13:49:06Z</time>
      </trkpt>
      <trkpt lat="43.00234" lon="0.83685">
        <ele>743</ele>
        <time>2021-03-13T13:49:07Z</time>
      </trkpt>
      <trkpt lat="43.00232" lon="0.83683">
        <ele>743</ele>
        <time>2021-03-13T13:49:08Z</time>
      </trkpt>
      <trkpt lat="43.0023" lon="0.8368">
        <ele>743</ele>
        <time>2021-03-13T13:49:09Z</time>
      </trkpt>
      <trkpt lat="43.00228" lon="0.83678">
        <ele>744</ele>
        <time>2021-03-13T13:49:10Z</time>
      </trkpt>
      <trkpt lat="43.00223" lon="0.83672">
        <ele>744</ele>
        <time>2021-03-13T13:49:11Z</time>
      </trkpt>
      <trkpt lat="43.00223" lon="0.83672">
        <ele>744</ele>
        <time>2021-03-13T13:49:12Z</time>
      </trkpt>
      <trkpt lat="43.00218" lon="0.83665">
        <ele>744</ele>
        <time>2021-03-13T13:49:13Z</time>
      </trkpt>
      <trkpt lat="43.00218" lon="0.83665">
        <ele>744</ele>
        <time>2021-03-13T13:49:14Z</time>
      </trkpt>
      <trkpt lat="43.00213" lon="0.83658">
        <ele>744</ele>
        <time>2021-03-13T13:49:15Z</time>
      </trkpt>
      <trkpt lat="43.00213" lon="0.83658">
        <ele>744</ele>
        <time>2021-03-13T13:49:16Z</time>
      </trkpt>
      <trkpt lat="43.00211" lon="0.83656">
        <ele>744</ele>
        <time>2021-03-13T13:49:17Z</time>
      </trkpt>
      <trkpt lat="43.00209" lon="0.83653">
        <ele>744</ele>
        <time>2021-03-13T13:49:18Z</time>
      </trkpt>
      <trkpt lat="43.00207" lon="0.8365">
        <ele>744</ele>
        <time>2021-03-13T13:49:19Z</time>
      </trkpt>
      <trkpt lat="43.00206" lon="0.83648">
        <ele>746</ele>
        <time>2021-03-13T13:49:20Z</time>
      </trkpt>
      <trkpt lat="43.00204" lon="0.83645">
        <ele>746</ele>
        <time>2021-03-13T13:49:21Z</time>
      </trkpt>
      <trkpt lat="43.00202" lon="0.83643">
        <ele>746</ele>
        <time>2021-03-13T13:49:22Z</time>
      </trkpt>
      <trkpt lat="43.002" lon="0.83641">
        <ele>746</ele>
        <time>2021-03-13T13:49:23Z</time>
      </trkpt>
      <trkpt lat="43.00198" lon="0.8364">
        <ele>746</ele>
        <time>2021-03-13T13:49:24Z</time>
      </trkpt>
      <trkpt lat="43.00196" lon="0.83638">
        <ele>746</ele>
        <time>2021-03-13T13:49:25Z</time>
      </trkpt>
      <trkpt lat="43.00194" lon="0.83636">
        <ele>746</ele>
        <time>2021-03-13T13:49:26Z</time>
      </trkpt>
      <trkpt lat="43.00192" lon="0.83634">
        <ele>746</ele>
        <time>2021-03-13T13:49:27Z</time>
      </trkpt>
      <trkpt lat="43.0019" lon="0.83632">
        <ele>746</ele>
        <time>2021-03-13T13:49:28Z</time>
      </trkpt>
      <trkpt lat="43.00189" lon="0.8363">
        <ele>746</ele>
        <time>2021-03-13T13:49:29Z</time>
      </trkpt>
      <trkpt lat="43.00187" lon="0.83627">
        <ele>747</ele>
        <time>2021-03-13T13:49:30Z</time>
      </trkpt>
      <trkpt lat="43.00185" lon="0.83625">
        <ele>747</ele>
        <time>2021-03-13T13:49:31Z</time>
      </trkpt>
      <trkpt lat="43.00181" lon="0.83618">
        <ele>747</ele>
        <time>2021-03-13T13:49:32Z</time>
      </trkpt>
      <trkpt lat="43.00181" lon="0.83618">
        <ele>747</ele>
        <time>2021-03-13T13:49:33Z</time>
      </trkpt>
      <trkpt lat="43.00177" lon="0.83613">
        <ele>747</ele>
        <time>2021-03-13T13:49:34Z</time>
      </trkpt>
      <trkpt lat="43.00177" lon="0.83613">
        <ele>747</ele>
        <time>2021-03-13T13:49:35Z</time>
      </trkpt>
      <trkpt lat="43.00173" lon="0.83605">
        <ele>747</ele>
        <time>2021-03-13T13:49:36Z</time>
      </trkpt>
      <trkpt lat="43.00173" lon="0.83605">
        <ele>747</ele>
        <time>2021-03-13T13:49:37Z</time>
      </trkpt>
      <trkpt lat="43.00169" lon="0.83597">
        <ele>747</ele>
        <time>2021-03-13T13:49:38Z</time>
      </trkpt>
      <trkpt lat="43.00169" lon="0.83597">
        <ele>747</ele>
        <time>2021-03-13T13:49:39Z</time>
      </trkpt>
      <trkpt lat="43.00164" lon="0.83588">
        <ele>747</ele>
        <time>2021-03-13T13:49:40Z</time>
      </trkpt>
      <trkpt lat="43.00164" lon="0.83588">
        <ele>747</ele>
        <time>2021-03-13T13:49:41Z</time>
      </trkpt>
      <trkpt lat="43.00161" lon="0.83581">
        <ele>747</ele>
        <time>2021-03-13T13:49:42Z</time>
      </trkpt>
      <trkpt lat="43.00161" lon="0.83581">
        <ele>747</ele>
        <time>2021-03-13T13:49:43Z</time>
      </trkpt>
      <trkpt lat="43.00162" lon="0.83577">
        <ele>747</ele>
        <time>2021-03-13T13:49:44Z</time>
      </trkpt>
      <trkpt lat="43.00162" lon="0.83574">
        <ele>747</ele>
        <time>2021-03-13T13:49:45Z</time>
      </trkpt>
      <trkpt lat="43.00162" lon="0.83571">
        <ele>747</ele>
        <time>2021-03-13T13:49:46Z</time>
      </trkpt>
      <trkpt lat="43.00163" lon="0.83567">
        <ele>747</ele>
        <time>2021-03-13T13:49:47Z</time>
      </trkpt>
      <trkpt lat="43.00164" lon="0.83564">
        <ele>747</ele>
        <time>2021-03-13T13:49:48Z</time>
      </trkpt>
      <trkpt lat="43.00166" lon="0.83561">
        <ele>747</ele>
        <time>2021-03-13T13:49:49Z</time>
      </trkpt>
      <trkpt lat="43.00167" lon="0.83558">
        <ele>748</ele>
        <time>2021-03-13T13:49:50Z</time>
      </trkpt>
      <trkpt lat="43.00169" lon="0.83555">
        <ele>748</ele>
        <time>2021-03-13T13:49:51Z</time>
      </trkpt>
      <trkpt lat="43.00171" lon="0.83552">
        <ele>748</ele>
        <time>2021-03-13T13:49:52Z</time>
      </trkpt>
      <trkpt lat="43.00173" lon="0.83549">
        <ele>748</ele>
        <time>2021-03-13T13:49:53Z</time>
      </trkpt>
      <trkpt lat="43.00175" lon="0.83546">
        <ele>748</ele>
        <time>2021-03-13T13:49:54Z</time>
      </trkpt>
      <trkpt lat="43.00177" lon="0.83543">
        <ele>748</ele>
        <time>2021-03-13T13:49:55Z</time>
      </trkpt>
      <trkpt lat="43.00179" lon="0.83541">
        <ele>748</ele>
        <time>2021-03-13T13:49:56Z</time>
      </trkpt>
      <trkpt lat="43.00181" lon="0.83538">
        <ele>748</ele>
        <time>2021-03-13T13:49:57Z</time>
      </trkpt>
      <trkpt lat="43.00183" lon="0.83536">
        <ele>748</ele>
        <time>2021-03-13T13:49:58Z</time>
      </trkpt>
      <trkpt lat="43.00185" lon="0.83534">
        <ele>748</ele>
        <time>2021-03-13T13:49:59Z</time>
      </trkpt>
      <trkpt lat="43.00187" lon="0.83532">
        <ele>748</ele>
        <time>2021-03-13T13:50:00Z</time>
      </trkpt>
      <trkpt lat="43.00189" lon="0.8353">
        <ele>748</ele>
        <time>2021-03-13T13:50:01Z</time>
      </trkpt>
      <trkpt lat="43.00191" lon="0.83528">
        <ele>748</ele>
        <time>2021-03-13T13:50:02Z</time>
      </trkpt>
      <trkpt lat="43.00194" lon="0.83525">
        <ele>748</ele>
        <time>2021-03-13T13:50:03Z</time>
      </trkpt>
      <trkpt lat="43.00196" lon="0.83523">
        <ele>748</ele>
        <time>2021-03-13T13:50:04Z</time>
      </trkpt>
      <trkpt lat="43.00199" lon="0.83521">
        <ele>748</ele>
        <time>2021-03-13T13:50:05Z</time>
      </trkpt>
      <trkpt lat="43.00201" lon="0.83519">
        <ele>748</ele>
        <time>2021-03-13T13:50:06Z</time>
      </trkpt>
      <trkpt lat="43.00204" lon="0.83517">
        <ele>748</ele>
        <time>2021-03-13T13:50:07Z</time>
      </trkpt>
      <trkpt lat="43.00206" lon="0.83514">
        <ele>748</ele>
        <time>2021-03-13T13:50:08Z</time>
      </trkpt>
      <trkpt lat="43.0021" lon="0.83509">
        <ele>748</ele>
        <time>2021-03-13T13:50:09Z</time>
      </trkpt>
      <trkpt lat="43.00213" lon="0.83503">
        <ele>750</ele>
        <time>2021-03-13T13:50:10Z</time>
      </trkpt>
      <trkpt lat="43.00217" lon="0.83497">
        <ele>750</ele>
        <time>2021-03-13T13:50:11Z</time>
      </trkpt>
      <trkpt lat="43.0022" lon="0.83492">
        <ele>750</ele>
        <time>2021-03-13T13:50:12Z</time>
      </trkpt>
      <trkpt lat="43.0022" lon="0.83492">
        <ele>750</ele>
        <time>2021-03-13T13:50:13Z</time>
      </trkpt>
      <trkpt lat="43.00221" lon="0.83489">
        <ele>750</ele>
        <time>2021-03-13T13:50:14Z</time>
      </trkpt>
      <trkpt lat="43.00223" lon="0.83485">
        <ele>750</ele>
        <time>2021-03-13T13:50:15Z</time>
      </trkpt>
      <trkpt lat="43.00224" lon="0.83482">
        <ele>750</ele>
        <time>2021-03-13T13:50:16Z</time>
      </trkpt>
      <trkpt lat="43.00226" lon="0.83478">
        <ele>750</ele>
        <time>2021-03-13T13:50:17Z</time>
      </trkpt>
      <trkpt lat="43.00227" lon="0.83474">
        <ele>750</ele>
        <time>2021-03-13T13:50:18Z</time>
      </trkpt>
      <trkpt lat="43.00229" lon="0.8347">
        <ele>750</ele>
        <time>2021-03-13T13:50:19Z</time>
      </trkpt>
      <trkpt lat="43.0023" lon="0.83466">
        <ele>751</ele>
        <time>2021-03-13T13:50:20Z</time>
      </trkpt>
      <trkpt lat="43.00235" lon="0.83456">
        <ele>751</ele>
        <time>2021-03-13T13:50:21Z</time>
      </trkpt>
      <trkpt lat="43.00235" lon="0.83456">
        <ele>751</ele>
        <time>2021-03-13T13:50:22Z</time>
      </trkpt>
      <trkpt lat="43.00235" lon="0.83452">
        <ele>751</ele>
        <time>2021-03-13T13:50:23Z</time>
      </trkpt>
      <trkpt lat="43.00236" lon="0.83448">
        <ele>751</ele>
        <time>2021-03-13T13:50:24Z</time>
      </trkpt>
      <trkpt lat="43.00236" lon="0.83443">
        <ele>751</ele>
        <time>2021-03-13T13:50:25Z</time>
      </trkpt>
      <trkpt lat="43.00236" lon="0.83439">
        <ele>751</ele>
        <time>2021-03-13T13:50:26Z</time>
      </trkpt>
      <trkpt lat="43.00236" lon="0.83435">
        <ele>751</ele>
        <time>2021-03-13T13:50:27Z</time>
      </trkpt>
      <trkpt lat="43.00236" lon="0.83431">
        <ele>751</ele>
        <time>2021-03-13T13:50:28Z</time>
      </trkpt>
      <trkpt lat="43.00237" lon="0.83427">
        <ele>751</ele>
        <time>2021-03-13T13:50:29Z</time>
      </trkpt>
      <trkpt lat="43.00237" lon="0.83423">
        <ele>753</ele>
        <time>2021-03-13T13:50:30Z</time>
      </trkpt>
      <trkpt lat="43.00238" lon="0.83419">
        <ele>753</ele>
        <time>2021-03-13T13:50:31Z</time>
      </trkpt>
      <trkpt lat="43.00241" lon="0.8341">
        <ele>753</ele>
        <time>2021-03-13T13:50:32Z</time>
      </trkpt>
      <trkpt lat="43.00241" lon="0.8341">
        <ele>753</ele>
        <time>2021-03-13T13:50:33Z</time>
      </trkpt>
      <trkpt lat="43.00245" lon="0.83401">
        <ele>753</ele>
        <time>2021-03-13T13:50:34Z</time>
      </trkpt>
      <trkpt lat="43.00245" lon="0.83401">
        <ele>753</ele>
        <time>2021-03-13T13:50:35Z</time>
      </trkpt>
      <trkpt lat="43.00247" lon="0.83397">
        <ele>753</ele>
        <time>2021-03-13T13:50:36Z</time>
      </trkpt>
      <trkpt lat="43.00248" lon="0.83393">
        <ele>753</ele>
        <time>2021-03-13T13:50:37Z</time>
      </trkpt>
      <trkpt lat="43.0025" lon="0.83389">
        <ele>753</ele>
        <time>2021-03-13T13:50:38Z</time>
      </trkpt>
      <trkpt lat="43.00253" lon="0.83377">
        <ele>753</ele>
        <time>2021-03-13T13:50:39Z</time>
      </trkpt>
      <trkpt lat="43.00253" lon="0.83377">
        <ele>753</ele>
        <time>2021-03-13T13:50:40Z</time>
      </trkpt>
      <trkpt lat="43.00259" lon="0.83361">
        <ele>753</ele>
        <time>2021-03-13T13:50:41Z</time>
      </trkpt>
      <trkpt lat="43.0026" lon="0.83358">
        <ele>753</ele>
        <time>2021-03-13T13:50:42Z</time>
      </trkpt>
      <trkpt lat="43.00261" lon="0.83353">
        <ele>753</ele>
        <time>2021-03-13T13:50:43Z</time>
      </trkpt>
      <trkpt lat="43.00261" lon="0.83353">
        <ele>753</ele>
        <time>2021-03-13T13:50:44Z</time>
      </trkpt>
      <trkpt lat="43.00265" lon="0.83336">
        <ele>753</ele>
        <time>2021-03-13T13:50:45Z</time>
      </trkpt>
      <trkpt lat="43.00267" lon="0.83333">
        <ele>753</ele>
        <time>2021-03-13T13:50:46Z</time>
      </trkpt>
      <trkpt lat="43.00269" lon="0.83327">
        <ele>753</ele>
        <time>2021-03-13T13:50:47Z</time>
      </trkpt>
      <trkpt lat="43.00269" lon="0.83327">
        <ele>753</ele>
        <time>2021-03-13T13:50:48Z</time>
      </trkpt>
      <trkpt lat="43.00275" lon="0.83311">
        <ele>753</ele>
        <time>2021-03-13T13:50:49Z</time>
      </trkpt>
      <trkpt lat="43.00276" lon="0.83308">
        <ele>751</ele>
        <time>2021-03-13T13:50:50Z</time>
      </trkpt>
      <trkpt lat="43.00279" lon="0.83298">
        <ele>751</ele>
        <time>2021-03-13T13:50:51Z</time>
      </trkpt>
      <trkpt lat="43.0028" lon="0.83295">
        <ele>751</ele>
        <time>2021-03-13T13:50:52Z</time>
      </trkpt>
      <trkpt lat="43.00282" lon="0.83287">
        <ele>751</ele>
        <time>2021-03-13T13:50:53Z</time>
      </trkpt>
      <trkpt lat="43.00282" lon="0.83287">
        <ele>751</ele>
        <time>2021-03-13T13:50:54Z</time>
      </trkpt>
      <trkpt lat="43.00284" lon="0.83284">
        <ele>751</ele>
        <time>2021-03-13T13:50:55Z</time>
      </trkpt>
      <trkpt lat="43.00287" lon="0.8328">
        <ele>751</ele>
        <time>2021-03-13T13:50:56Z</time>
      </trkpt>
      <trkpt lat="43.00289" lon="0.83276">
        <ele>751</ele>
        <time>2021-03-13T13:50:57Z</time>
      </trkpt>
      <trkpt lat="43.00293" lon="0.83276">
        <ele>751</ele>
        <time>2021-03-13T13:50:58Z</time>
      </trkpt>
      <trkpt lat="43.00296" lon="0.83275">
        <ele>751</ele>
        <time>2021-03-13T13:50:59Z</time>
      </trkpt>
      <trkpt lat="43.00299" lon="0.83274">
        <ele>750</ele>
        <time>2021-03-13T13:51:00Z</time>
      </trkpt>
      <trkpt lat="43.00303" lon="0.83274">
        <ele>750</ele>
        <time>2021-03-13T13:51:01Z</time>
      </trkpt>
      <trkpt lat="43.00307" lon="0.83273">
        <ele>750</ele>
        <time>2021-03-13T13:51:02Z</time>
      </trkpt>
      <trkpt lat="43.00311" lon="0.83272">
        <ele>750</ele>
        <time>2021-03-13T13:51:03Z</time>
      </trkpt>
      <trkpt lat="43.00315" lon="0.83272">
        <ele>750</ele>
        <time>2021-03-13T13:51:04Z</time>
      </trkpt>
      <trkpt lat="43.00319" lon="0.83272">
        <ele>750</ele>
        <time>2021-03-13T13:51:05Z</time>
      </trkpt>
      <trkpt lat="43.00323" lon="0.83271">
        <ele>750</ele>
        <time>2021-03-13T13:51:06Z</time>
      </trkpt>
      <trkpt lat="43.0033" lon="0.83271">
        <ele>750</ele>
        <time>2021-03-13T13:51:07Z</time>
      </trkpt>
      <trkpt lat="43.00336" lon="0.8327">
        <ele>750</ele>
        <time>2021-03-13T13:51:08Z</time>
      </trkpt>
      <trkpt lat="43.00342" lon="0.83269">
        <ele>750</ele>
        <time>2021-03-13T13:51:09Z</time>
      </trkpt>
      <trkpt lat="43.00351" lon="0.83267">
        <ele>748</ele>
        <time>2021-03-13T13:51:10Z</time>
      </trkpt>
      <trkpt lat="43.00353" lon="0.83266">
        <ele>748</ele>
        <time>2021-03-13T13:51:11Z</time>
      </trkpt>
      <trkpt lat="43.00361" lon="0.83262">
        <ele>748</ele>
        <time>2021-03-13T13:51:12Z</time>
      </trkpt>
      <trkpt lat="43.00363" lon="0.83259">
        <ele>748</ele>
        <time>2021-03-13T13:51:13Z</time>
      </trkpt>
      <trkpt lat="43.0037" lon="0.8325">
        <ele>748</ele>
        <time>2021-03-13T13:51:14Z</time>
      </trkpt>
      <trkpt lat="43.00372" lon="0.83246">
        <ele>748</ele>
        <time>2021-03-13T13:51:15Z</time>
      </trkpt>
      <trkpt lat="43.00378" lon="0.83233">
        <ele>748</ele>
        <time>2021-03-13T13:51:16Z</time>
      </trkpt>
      <trkpt lat="43.0038" lon="0.83228">
        <ele>748</ele>
        <time>2021-03-13T13:51:17Z</time>
      </trkpt>
      <trkpt lat="43.00385" lon="0.83216">
        <ele>748</ele>
        <time>2021-03-13T13:51:18Z</time>
      </trkpt>
      <trkpt lat="43.00385" lon="0.83214">
        <ele>748</ele>
        <time>2021-03-13T13:51:19Z</time>
      </trkpt>
      <trkpt lat="43.00387" lon="0.83209">
        <ele>745</ele>
        <time>2021-03-13T13:51:20Z</time>
      </trkpt>
      <trkpt lat="43.00393" lon="0.83184">
        <ele>745</ele>
        <time>2021-03-13T13:51:21Z</time>
      </trkpt>
      <trkpt lat="43.00394" lon="0.83179">
        <ele>745</ele>
        <time>2021-03-13T13:51:22Z</time>
      </trkpt>
      <trkpt lat="43.00397" lon="0.83163">
        <ele>745</ele>
        <time>2021-03-13T13:51:23Z</time>
      </trkpt>
      <trkpt lat="43.00398" lon="0.83158">
        <ele>745</ele>
        <time>2021-03-13T13:51:24Z</time>
      </trkpt>
      <trkpt lat="43.00402" lon="0.83143">
        <ele>742</ele>
        <time>2021-03-13T13:51:25Z</time>
      </trkpt>
      <trkpt lat="43.00403" lon="0.83138">
        <ele>742</ele>
        <time>2021-03-13T13:51:26Z</time>
      </trkpt>
      <trkpt lat="43.00407" lon="0.83125">
        <ele>742</ele>
        <time>2021-03-13T13:51:27Z</time>
      </trkpt>
      <trkpt lat="43.00408" lon="0.8312">
        <ele>742</ele>
        <time>2021-03-13T13:51:28Z</time>
      </trkpt>
      <trkpt lat="43.0041" lon="0.83107">
        <ele>742</ele>
        <time>2021-03-13T13:51:29Z</time>
      </trkpt>
      <trkpt lat="43.0041" lon="0.83102">
        <ele>740</ele>
        <time>2021-03-13T13:51:30Z</time>
      </trkpt>
      <trkpt lat="43.00411" lon="0.83087">
        <ele>739</ele>
        <time>2021-03-13T13:51:31Z</time>
      </trkpt>
      <trkpt lat="43.00411" lon="0.83082">
        <ele>738</ele>
        <time>2021-03-13T13:51:32Z</time>
      </trkpt>
      <trkpt lat="43.00412" lon="0.83068">
        <ele>737</ele>
        <time>2021-03-13T13:51:33Z</time>
      </trkpt>
      <trkpt lat="43.00414" lon="0.83064">
        <ele>736</ele>
        <time>2021-03-13T13:51:34Z</time>
      </trkpt>
      <trkpt lat="43.00419" lon="0.83056">
        <ele>736</ele>
        <time>2021-03-13T13:51:35Z</time>
      </trkpt>
      <trkpt lat="43.00422" lon="0.83055">
        <ele>736</ele>
        <time>2021-03-13T13:51:36Z</time>
      </trkpt>
      <trkpt lat="43.0043" lon="0.83053">
        <ele>736</ele>
        <time>2021-03-13T13:51:37Z</time>
      </trkpt>
      <trkpt lat="43.00433" lon="0.83053">
        <ele>736</ele>
        <time>2021-03-13T13:51:38Z</time>
      </trkpt>
      <trkpt lat="43.00443" lon="0.83053">
        <ele>736</ele>
        <time>2021-03-13T13:51:39Z</time>
      </trkpt>
      <trkpt lat="43.00447" lon="0.83053">
        <ele>736</ele>
        <time>2021-03-13T13:51:40Z</time>
      </trkpt>
      <trkpt lat="43.00458" lon="0.83053">
        <ele>736</ele>
        <time>2021-03-13T13:51:41Z</time>
      </trkpt>
      <trkpt lat="43.00461" lon="0.83053">
        <ele>736</ele>
        <time>2021-03-13T13:51:42Z</time>
      </trkpt>
      <trkpt lat="43.00472" lon="0.83053">
        <ele>736</ele>
        <time>2021-03-13T13:51:43Z</time>
      </trkpt>
      <trkpt lat="43.00476" lon="0.83052">
        <ele>736</ele>
        <time>2021-03-13T13:51:44Z</time>
      </trkpt>
      <trkpt lat="43.00483" lon="0.83052">
        <ele>735</ele>
        <time>2021-03-13T13:51:45Z</time>
      </trkpt>
      <trkpt lat="43.00483" lon="0.83052">
        <ele>735</ele>
        <time>2021-03-13T13:51:46Z</time>
      </trkpt>
      <trkpt lat="43.00498" lon="0.83049">
        <ele>735</ele>
        <time>2021-03-13T13:51:47Z</time>
      </trkpt>
      <trkpt lat="43.005" lon="0.83046">
        <ele>735</ele>
        <time>2021-03-13T13:51:48Z</time>
      </trkpt>
      <trkpt lat="43.00506" lon="0.83038">
        <ele>735</ele>
        <time>2021-03-13T13:51:49Z</time>
      </trkpt>
      <trkpt lat="43.00507" lon="0.83035">
        <ele>732</ele>
        <time>2021-03-13T13:51:50Z</time>
      </trkpt>
      <trkpt lat="43.0051" lon="0.83028">
        <ele>732</ele>
        <time>2021-03-13T13:51:51Z</time>
      </trkpt>
      <trkpt lat="43.00513" lon="0.8302">
        <ele>732</ele>
        <time>2021-03-13T13:51:52Z</time>
      </trkpt>
      <trkpt lat="43.00516" lon="0.83013">
        <ele>732</ele>
        <time>2021-03-13T13:51:53Z</time>
      </trkpt>
      <trkpt lat="43.00518" lon="0.83007">
        <ele>732</ele>
        <time>2021-03-13T13:51:54Z</time>
      </trkpt>
      <trkpt lat="43.0052" lon="0.83">
        <ele>731</ele>
        <time>2021-03-13T13:51:55Z</time>
      </trkpt>
      <trkpt lat="43.00523" lon="0.82994">
        <ele>731</ele>
        <time>2021-03-13T13:51:56Z</time>
      </trkpt>
      <trkpt lat="43.00525" lon="0.82988">
        <ele>731</ele>
        <time>2021-03-13T13:51:57Z</time>
      </trkpt>
      <trkpt lat="43.00527" lon="0.82982">
        <ele>731</ele>
        <time>2021-03-13T13:51:58Z</time>
      </trkpt>
      <trkpt lat="43.00529" lon="0.82976">
        <ele>731</ele>
        <time>2021-03-13T13:51:59Z</time>
      </trkpt>
      <trkpt lat="43.00532" lon="0.8297">
        <ele>731</ele>
        <time>2021-03-13T13:52:00Z</time>
      </trkpt>
      <trkpt lat="43.00534" lon="0.82965">
        <ele>731</ele>
        <time>2021-03-13T13:52:01Z</time>
      </trkpt>
      <trkpt lat="43.00536" lon="0.82959">
        <ele>731</ele>
        <time>2021-03-13T13:52:02Z</time>
      </trkpt>
      <trkpt lat="43.00538" lon="0.82953">
        <ele>731</ele>
        <time>2021-03-13T13:52:03Z</time>
      </trkpt>
      <trkpt lat="43.0054" lon="0.82948">
        <ele>731</ele>
        <time>2021-03-13T13:52:04Z</time>
      </trkpt>
      <trkpt lat="43.00542" lon="0.82943">
        <ele>731</ele>
        <time>2021-03-13T13:52:05Z</time>
      </trkpt>
      <trkpt lat="43.00543" lon="0.82937">
        <ele>731</ele>
        <time>2021-03-13T13:52:06Z</time>
      </trkpt>
      <trkpt lat="43.00545" lon="0.82932">
        <ele>731</ele>
        <time>2021-03-13T13:52:07Z</time>
      </trkpt>
      <trkpt lat="43.00547" lon="0.82927">
        <ele>731</ele>
        <time>2021-03-13T13:52:08Z</time>
      </trkpt>
      <trkpt lat="43.00549" lon="0.82923">
        <ele>731</ele>
        <time>2021-03-13T13:52:09Z</time>
      </trkpt>
      <trkpt lat="43.0055" lon="0.82919">
        <ele>732</ele>
        <time>2021-03-13T13:52:10Z</time>
      </trkpt>
      <trkpt lat="43.0055" lon="0.82919">
        <ele>732</ele>
        <time>2021-03-13T13:52:11Z</time>
      </trkpt>
      <trkpt lat="43.00556" lon="0.82912">
        <ele>732</ele>
        <time>2021-03-13T13:52:12Z</time>
      </trkpt>
      <trkpt lat="43.00558" lon="0.82911">
        <ele>732</ele>
        <time>2021-03-13T13:52:13Z</time>
      </trkpt>
      <trkpt lat="43.00561" lon="0.8291">
        <ele>732</ele>
        <time>2021-03-13T13:52:14Z</time>
      </trkpt>
      <trkpt lat="43.00565" lon="0.82911">
        <ele>732</ele>
        <time>2021-03-13T13:52:15Z</time>
      </trkpt>
      <trkpt lat="43.00569" lon="0.82912">
        <ele>732</ele>
        <time>2021-03-13T13:52:16Z</time>
      </trkpt>
      <trkpt lat="43.00573" lon="0.82913">
        <ele>732</ele>
        <time>2021-03-13T13:52:17Z</time>
      </trkpt>
      <trkpt lat="43.00577" lon="0.82914">
        <ele>732</ele>
        <time>2021-03-13T13:52:18Z</time>
      </trkpt>
      <trkpt lat="43.00582" lon="0.82914">
        <ele>732</ele>
        <time>2021-03-13T13:52:19Z</time>
      </trkpt>
      <trkpt lat="43.00586" lon="0.82916">
        <ele>731</ele>
        <time>2021-03-13T13:52:20Z</time>
      </trkpt>
      <trkpt lat="43.00591" lon="0.82917">
        <ele>731</ele>
        <time>2021-03-13T13:52:21Z</time>
      </trkpt>
      <trkpt lat="43.00596" lon="0.82919">
        <ele>731</ele>
        <time>2021-03-13T13:52:22Z</time>
      </trkpt>
      <trkpt lat="43.00601" lon="0.8292">
        <ele>731</ele>
        <time>2021-03-13T13:52:23Z</time>
      </trkpt>
      <trkpt lat="43.00606" lon="0.82921">
        <ele>731</ele>
        <time>2021-03-13T13:52:24Z</time>
      </trkpt>
      <trkpt lat="43.00611" lon="0.82919">
        <ele>731</ele>
        <time>2021-03-13T13:52:25Z</time>
      </trkpt>
      <trkpt lat="43.00615" lon="0.82916">
        <ele>731</ele>
        <time>2021-03-13T13:52:26Z</time>
      </trkpt>
      <trkpt lat="43.00619" lon="0.82911">
        <ele>731</ele>
        <time>2021-03-13T13:52:27Z</time>
      </trkpt>
      <trkpt lat="43.00622" lon="0.82904">
        <ele>731</ele>
        <time>2021-03-13T13:52:28Z</time>
      </trkpt>
      <trkpt lat="43.00624" lon="0.82895">
        <ele>731</ele>
        <time>2021-03-13T13:52:29Z</time>
      </trkpt>
      <trkpt lat="43.00626" lon="0.82885">
        <ele>727</ele>
        <time>2021-03-13T13:52:30Z</time>
      </trkpt>
      <trkpt lat="43.00628" lon="0.82876">
        <ele>727</ele>
        <time>2021-03-13T13:52:31Z</time>
      </trkpt>
      <trkpt lat="43.0063" lon="0.82866">
        <ele>727</ele>
        <time>2021-03-13T13:52:32Z</time>
      </trkpt>
      <trkpt lat="43.00631" lon="0.82855">
        <ele>727</ele>
        <time>2021-03-13T13:52:33Z</time>
      </trkpt>
      <trkpt lat="43.00633" lon="0.82846">
        <ele>727</ele>
        <time>2021-03-13T13:52:34Z</time>
      </trkpt>
      <trkpt lat="43.00635" lon="0.82837">
        <ele>722</ele>
        <time>2021-03-13T13:52:35Z</time>
      </trkpt>
      <trkpt lat="43.00636" lon="0.8283">
        <ele>722</ele>
        <time>2021-03-13T13:52:36Z</time>
      </trkpt>
      <trkpt lat="43.00636" lon="0.8283">
        <ele>722</ele>
        <time>2021-03-13T13:52:37Z</time>
      </trkpt>
      <trkpt lat="43.00636" lon="0.82821">
        <ele>722</ele>
        <time>2021-03-13T13:52:38Z</time>
      </trkpt>
      <trkpt lat="43.00636" lon="0.82821">
        <ele>722</ele>
        <time>2021-03-13T13:52:39Z</time>
      </trkpt>
      <trkpt lat="43.00635" lon="0.8282">
        <ele>717</ele>
        <time>2021-03-13T13:52:40Z</time>
      </trkpt>
      <trkpt lat="43.00634" lon="0.82819">
        <ele>716</ele>
        <time>2021-03-13T13:52:41Z</time>
      </trkpt>
      <trkpt lat="43.00632" lon="0.82818">
        <ele>717</ele>
        <time>2021-03-13T13:52:42Z</time>
      </trkpt>
      <trkpt lat="43.00631" lon="0.82817">
        <ele>717</ele>
        <time>2021-03-13T13:52:43Z</time>
      </trkpt>
      <trkpt lat="43.00627" lon="0.82814">
        <ele>717</ele>
        <time>2021-03-13T13:52:44Z</time>
      </trkpt>
      <trkpt lat="43.00627" lon="0.82814">
        <ele>717</ele>
        <time>2021-03-13T13:52:45Z</time>
      </trkpt>
      <trkpt lat="43.00623" lon="0.82812">
        <ele>717</ele>
        <time>2021-03-13T13:52:46Z</time>
      </trkpt>
      <trkpt lat="43.00623" lon="0.82812">
        <ele>717</ele>
        <time>2021-03-13T13:52:47Z</time>
      </trkpt>
      <trkpt lat="43.00623" lon="0.82812">
        <ele>718</ele>
        <time>2021-03-13T13:52:48Z</time>
      </trkpt>
      <trkpt lat="43.00623" lon="0.82812">
        <ele>717</ele>
        <time>2021-03-13T13:52:49Z</time>
      </trkpt>
      <trkpt lat="43.00623" lon="0.82812">
        <ele>717</ele>
        <time>2021-03-13T13:52:50Z</time>
      </trkpt>
      <trkpt lat="43.00623" lon="0.82812">
        <ele>717</ele>
        <time>2021-03-13T13:52:51Z</time>
      </trkpt>
      <trkpt lat="43.00623" lon="0.82812">
        <ele>717</ele>
        <time>2021-03-13T13:52:52Z</time>
      </trkpt>
      <trkpt lat="43.00623" lon="0.82812">
        <ele>717</ele>
        <time>2021-03-13T13:52:53Z</time>
      </trkpt>
      <trkpt lat="43.00623" lon="0.82812">
        <ele>717</ele>
        <time>2021-03-13T13:52:54Z</time>
      </trkpt>
      <trkpt lat="43.00622" lon="0.82812">
        <ele>717</ele>
        <time>2021-03-13T13:52:55Z</time>
      </trkpt>
      <trkpt lat="43.00622" lon="0.82813">
        <ele>717</ele>
        <time>2021-03-13T13:52:56Z</time>
      </trkpt>
      <trkpt lat="43.00622" lon="0.82813">
        <ele>717</ele>
        <time>2021-03-13T13:52:57Z</time>
      </trkpt>
      <trkpt lat="43.00622" lon="0.82813">
        <ele>717</ele>
        <time>2021-03-13T13:52:58Z</time>
      </trkpt>
      <trkpt lat="43.00622" lon="0.82813">
        <ele>717</ele>
        <time>2021-03-13T13:52:59Z</time>
      </trkpt>
      <trkpt lat="43.00622" lon="0.82813">
        <ele>717</ele>
        <time>2021-03-13T13:53:00Z</time>
      </trkpt>
      <trkpt lat="43.00622" lon="0.82813">
        <ele>717</ele>
        <time>2021-03-13T13:53:01Z</time>
      </trkpt>
      <trkpt lat="43.00622" lon="0.82813">
        <ele>717</ele>
        <time>2021-03-13T13:53:02Z</time>
      </trkpt>
      <trkpt lat="43.00622" lon="0.82813">
        <ele>717</ele>
        <time>2021-03-13T13:53:03Z</time>
      </trkpt>
      <trkpt lat="43.00622" lon="0.82813">
        <ele>717</ele>
        <time>2021-03-13T13:53:04Z</time>
      </trkpt>
      <trkpt lat="43.00621" lon="0.82813">
        <ele>717</ele>
        <time>2021-03-13T13:53:05Z</time>
      </trkpt>
      <trkpt lat="43.00621" lon="0.82813">
        <ele>717</ele>
        <time>2021-03-13T13:53:06Z</time>
      </trkpt>
      <trkpt lat="43.00621" lon="0.82813">
        <ele>717</ele>
        <time>2021-03-13T13:53:07Z</time>
      </trkpt>
      <trkpt lat="43.00621" lon="0.82813">
        <ele>717</ele>
        <time>2021-03-13T13:53:08Z</time>
      </trkpt>
      <trkpt lat="43.00621" lon="0.82813">
        <ele>717</ele>
        <time>2021-03-13T13:53:09Z</time>
      </trkpt>
      <trkpt lat="43.00621" lon="0.82813">
        <ele>717</ele>
        <time>2021-03-13T13:53:10Z</time>
      </trkpt>
      <trkpt lat="43.00621" lon="0.82813">
        <ele>717</ele>
        <time>2021-03-13T13:53:11Z</time>
      </trkpt>
      <trkpt lat="43.00621" lon="0.82814">
        <ele>717</ele>
        <time>2021-03-13T13:53:12Z</time>
      </trkpt>
      <trkpt lat="43.00621" lon="0.82814">
        <ele>717</ele>
        <time>2021-03-13T13:53:13Z</time>
      </trkpt>
      <trkpt lat="43.00621" lon="0.82814">
        <ele>717</ele>
        <time>2021-03-13T13:53:14Z</time>
      </trkpt>
      <trkpt lat="43.00621" lon="0.82814">
        <ele>717</ele>
        <time>2021-03-13T13:53:15Z</time>
      </trkpt>
      <trkpt lat="43.0062" lon="0.82814">
        <ele>717</ele>
        <time>2021-03-13T13:53:16Z</time>
      </trkpt>
      <trkpt lat="43.0062" lon="0.82814">
        <ele>717</ele>
        <time>2021-03-13T13:53:17Z</time>
      </trkpt>
      <trkpt lat="43.0062" lon="0.82814">
        <ele>717</ele>
        <time>2021-03-13T13:53:18Z</time>
      </trkpt>
      <trkpt lat="43.0062" lon="0.82814">
        <ele>717</ele>
        <time>2021-03-13T13:53:19Z</time>
      </trkpt>
      <trkpt lat="43.0062" lon="0.82814">
        <ele>719</ele>
        <time>2021-03-13T13:53:20Z</time>
      </trkpt>
      <trkpt lat="43.0062" lon="0.82814">
        <ele>719</ele>
        <time>2021-03-13T13:53:21Z</time>
      </trkpt>
      <trkpt lat="43.0062" lon="0.82814">
        <ele>719</ele>
        <time>2021-03-13T13:53:22Z</time>
      </trkpt>
      <trkpt lat="43.0062" lon="0.82814">
        <ele>719</ele>
        <time>2021-03-13T13:53:23Z</time>
      </trkpt>
      <trkpt lat="43.0062" lon="0.82814">
        <ele>719</ele>
        <time>2021-03-13T13:53:24Z</time>
      </trkpt>
      <trkpt lat="43.0062" lon="0.82814">
        <ele>719</ele>
        <time>2021-03-13T13:53:25Z</time>
      </trkpt>
      <trkpt lat="43.00619" lon="0.82814">
        <ele>719</ele>
        <time>2021-03-13T13:53:26Z</time>
      </trkpt>
      <trkpt lat="43.00619" lon="0.82814">
        <ele>719</ele>
        <time>2021-03-13T13:53:27Z</time>
      </trkpt>
      <trkpt lat="43.00619" lon="0.82815">
        <ele>719</ele>
        <time>2021-03-13T13:53:28Z</time>
      </trkpt>
      <trkpt lat="43.00619" lon="0.82815">
        <ele>719</ele>
        <time>2021-03-13T13:53:29Z</time>
      </trkpt>
      <trkpt lat="43.00619" lon="0.82815">
        <ele>717</ele>
        <time>2021-03-13T13:53:30Z</time>
      </trkpt>
      <trkpt lat="43.00619" lon="0.82815">
        <ele>717</ele>
        <time>2021-03-13T13:53:31Z</time>
      </trkpt>
      <trkpt lat="43.00619" lon="0.82815">
        <ele>717</ele>
        <time>2021-03-13T13:53:32Z</time>
      </trkpt>
      <trkpt lat="43.00619" lon="0.82815">
        <ele>717</ele>
        <time>2021-03-13T13:53:33Z</time>
      </trkpt>
      <trkpt lat="43.00619" lon="0.82815">
        <ele>717</ele>
        <time>2021-03-13T13:53:34Z</time>
      </trkpt>
      <trkpt lat="43.00619" lon="0.82815">
        <ele>717</ele>
        <time>2021-03-13T13:53:35Z</time>
      </trkpt>
      <trkpt lat="43.00618" lon="0.82815">
        <ele>717</ele>
        <time>2021-03-13T13:53:36Z</time>
      </trkpt>
      <trkpt lat="43.00618" lon="0.82815">
        <ele>717</ele>
        <time>2021-03-13T13:53:37Z</time>
      </trkpt>
      <trkpt lat="43.00618" lon="0.82815">
        <ele>717</ele>
        <time>2021-03-13T13:53:38Z</time>
      </trkpt>
      <trkpt lat="43.00618" lon="0.82815">
        <ele>717</ele>
        <time>2021-03-13T13:53:39Z</time>
      </trkpt>
      <trkpt lat="43.00618" lon="0.82815">
        <ele>717</ele>
        <time>2021-03-13T13:53:40Z</time>
      </trkpt>
      <trkpt lat="43.00618" lon="0.82815">
        <ele>717</ele>
        <time>2021-03-13T13:53:41Z</time>
      </trkpt>
      <trkpt lat="43.00618" lon="0.82815">
        <ele>717</ele>
        <time>2021-03-13T13:53:42Z</time>
      </trkpt>
      <trkpt lat="43.00617" lon="0.82814">
        <ele>717</ele>
        <time>2021-03-13T13:53:43Z</time>
      </trkpt>
      <trkpt lat="43.00617" lon="0.82814">
        <ele>717</ele>
        <time>2021-03-13T13:53:44Z</time>
      </trkpt>
      <trkpt lat="43.00617" lon="0.82814">
        <ele>717</ele>
        <time>2021-03-13T13:53:45Z</time>
      </trkpt>
      <trkpt lat="43.00617" lon="0.82814">
        <ele>717</ele>
        <time>2021-03-13T13:53:46Z</time>
      </trkpt>
      <trkpt lat="43.00617" lon="0.82814">
        <ele>717</ele>
        <time>2021-03-13T13:53:47Z</time>
      </trkpt>
      <trkpt lat="43.00617" lon="0.82814">
        <ele>717</ele>
        <time>2021-03-13T13:53:48Z</time>
      </trkpt>
      <trkpt lat="43.00617" lon="0.82814">
        <ele>717</ele>
        <time>2021-03-13T13:53:49Z</time>
      </trkpt>
      <trkpt lat="43.00616" lon="0.82813">
        <ele>717</ele>
        <time>2021-03-13T13:53:50Z</time>
      </trkpt>
      <trkpt lat="43.00616" lon="0.82813">
        <ele>717</ele>
        <time>2021-03-13T13:53:51Z</time>
      </trkpt>
      <trkpt lat="43.00616" lon="0.82813">
        <ele>717</ele>
        <time>2021-03-13T13:53:52Z</time>
      </trkpt>
      <trkpt lat="43.00616" lon="0.82813">
        <ele>717</ele>
        <time>2021-03-13T13:53:53Z</time>
      </trkpt>
      <trkpt lat="43.00616" lon="0.82813">
        <ele>717</ele>
        <time>2021-03-13T13:53:54Z</time>
      </trkpt>
      <trkpt lat="43.00616" lon="0.82813">
        <ele>717</ele>
        <time>2021-03-13T13:53:55Z</time>
      </trkpt>
      <trkpt lat="43.00615" lon="0.82813">
        <ele>717</ele>
        <time>2021-03-13T13:53:56Z</time>
      </trkpt>
      <trkpt lat="43.00615" lon="0.82812">
        <ele>717</ele>
        <time>2021-03-13T13:53:57Z</time>
      </trkpt>
      <trkpt lat="43.00615" lon="0.82812">
        <ele>717</ele>
        <time>2021-03-13T13:53:58Z</time>
      </trkpt>
      <trkpt lat="43.00615" lon="0.82812">
        <ele>717</ele>
        <time>2021-03-13T13:53:59Z</time>
      </trkpt>
      <trkpt lat="43.00615" lon="0.82812">
        <ele>717</ele>
        <time>2021-03-13T13:54:00Z</time>
      </trkpt>
      <trkpt lat="43.00615" lon="0.82812">
        <ele>717</ele>
        <time>2021-03-13T13:54:01Z</time>
      </trkpt>
      <trkpt lat="43.00614" lon="0.82812">
        <ele>717</ele>
        <time>2021-03-13T13:54:02Z</time>
      </trkpt>
      <trkpt lat="43.00614" lon="0.82811">
        <ele>717</ele>
        <time>2021-03-13T13:54:03Z</time>
      </trkpt>
      <trkpt lat="43.00614" lon="0.82811">
        <ele>717</ele>
        <time>2021-03-13T13:54:04Z</time>
      </trkpt>
      <trkpt lat="43.00614" lon="0.82811">
        <ele>717</ele>
        <time>2021-03-13T13:54:05Z</time>
      </trkpt>
      <trkpt lat="43.00614" lon="0.82811">
        <ele>717</ele>
        <time>2021-03-13T13:54:06Z</time>
      </trkpt>
      <trkpt lat="43.00609" lon="0.82808">
        <ele>717</ele>
        <time>2021-03-13T13:54:07Z</time>
      </trkpt>
      <trkpt lat="43.00609" lon="0.82808">
        <ele>717</ele>
        <time>2021-03-13T13:54:08Z</time>
      </trkpt>
      <trkpt lat="43.00603" lon="0.82805">
        <ele>717</ele>
        <time>2021-03-13T13:54:09Z</time>
      </trkpt>
      <trkpt lat="43.00603" lon="0.82805">
        <ele>718</ele>
        <time>2021-03-13T13:54:10Z</time>
      </trkpt>
      <trkpt lat="43.00598" lon="0.82802">
        <ele>718</ele>
        <time>2021-03-13T13:54:11Z</time>
      </trkpt>
      <trkpt lat="43.00598" lon="0.82802">
        <ele>718</ele>
        <time>2021-03-13T13:54:12Z</time>
      </trkpt>
      <trkpt lat="43.00598" lon="0.82802">
        <ele>718</ele>
        <time>2021-03-13T13:54:13Z</time>
      </trkpt>
      <trkpt lat="43.00597" lon="0.82802">
        <ele>718</ele>
        <time>2021-03-13T13:54:14Z</time>
      </trkpt>
      <trkpt lat="43.00596" lon="0.82801">
        <ele>718</ele>
        <time>2021-03-13T13:54:15Z</time>
      </trkpt>
      <trkpt lat="43.00596" lon="0.82801">
        <ele>718</ele>
        <time>2021-03-13T13:54:16Z</time>
      </trkpt>
      <trkpt lat="43.00595" lon="0.82801">
        <ele>718</ele>
        <time>2021-03-13T13:54:17Z</time>
      </trkpt>
      <trkpt lat="43.00594" lon="0.828">
        <ele>718</ele>
        <time>2021-03-13T13:54:18Z</time>
      </trkpt>
      <trkpt lat="43.00594" lon="0.828">
        <ele>718</ele>
        <time>2021-03-13T13:54:19Z</time>
      </trkpt>
      <trkpt lat="43.00593" lon="0.828">
        <ele>718</ele>
        <time>2021-03-13T13:54:20Z</time>
      </trkpt>
      <trkpt lat="43.00592" lon="0.82799">
        <ele>718</ele>
        <time>2021-03-13T13:54:21Z</time>
      </trkpt>
      <trkpt lat="43.00587" lon="0.82796">
        <ele>718</ele>
        <time>2021-03-13T13:54:22Z</time>
      </trkpt>
      <trkpt lat="43.00587" lon="0.82796">
        <ele>718</ele>
        <time>2021-03-13T13:54:23Z</time>
      </trkpt>
      <trkpt lat="43.00582" lon="0.82793">
        <ele>718</ele>
        <time>2021-03-13T13:54:24Z</time>
      </trkpt>
      <trkpt lat="43.00582" lon="0.82793">
        <ele>718</ele>
        <time>2021-03-13T13:54:25Z</time>
      </trkpt>
      <trkpt lat="43.00576" lon="0.82789">
        <ele>718</ele>
        <time>2021-03-13T13:54:26Z</time>
      </trkpt>
      <trkpt lat="43.00576" lon="0.82789">
        <ele>718</ele>
        <time>2021-03-13T13:54:27Z</time>
      </trkpt>
      <trkpt lat="43.0057" lon="0.82785">
        <ele>718</ele>
        <time>2021-03-13T13:54:28Z</time>
      </trkpt>
      <trkpt lat="43.0057" lon="0.82785">
        <ele>718</ele>
        <time>2021-03-13T13:54:29Z</time>
      </trkpt>
      <trkpt lat="43.00563" lon="0.82781">
        <ele>717</ele>
        <time>2021-03-13T13:54:30Z</time>
      </trkpt>
      <trkpt lat="43.00563" lon="0.82781">
        <ele>717</ele>
        <time>2021-03-13T13:54:31Z</time>
      </trkpt>
      <trkpt lat="43.00556" lon="0.82773">
        <ele>717</ele>
        <time>2021-03-13T13:54:32Z</time>
      </trkpt>
      <trkpt lat="43.00556" lon="0.82773">
        <ele>717</ele>
        <time>2021-03-13T13:54:33Z</time>
      </trkpt>
      <trkpt lat="43.00548" lon="0.82765">
        <ele>717</ele>
        <time>2021-03-13T13:54:34Z</time>
      </trkpt>
      <trkpt lat="43.00548" lon="0.82765">
        <ele>717</ele>
        <time>2021-03-13T13:54:35Z</time>
      </trkpt>
      <trkpt lat="43.00539" lon="0.82758">
        <ele>717</ele>
        <time>2021-03-13T13:54:36Z</time>
      </trkpt>
      <trkpt lat="43.00539" lon="0.82758">
        <ele>717</ele>
        <time>2021-03-13T13:54:37Z</time>
      </trkpt>
      <trkpt lat="43.00528" lon="0.82747">
        <ele>717</ele>
        <time>2021-03-13T13:54:38Z</time>
      </trkpt>
      <trkpt lat="43.00526" lon="0.82745">
        <ele>717</ele>
        <time>2021-03-13T13:54:39Z</time>
      </trkpt>
      <trkpt lat="43.0052" lon="0.82738">
        <ele>715</ele>
        <time>2021-03-13T13:54:40Z</time>
      </trkpt>
      <trkpt lat="43.00518" lon="0.82735">
        <ele>715</ele>
        <time>2021-03-13T13:54:41Z</time>
      </trkpt>
      <trkpt lat="43.00512" lon="0.82727">
        <ele>715</ele>
        <time>2021-03-13T13:54:42Z</time>
      </trkpt>
      <trkpt lat="43.00511" lon="0.82725">
        <ele>715</ele>
        <time>2021-03-13T13:54:43Z</time>
      </trkpt>
      <trkpt lat="43.00507" lon="0.8272">
        <ele>715</ele>
        <time>2021-03-13T13:54:44Z</time>
      </trkpt>
      <trkpt lat="43.00507" lon="0.8272">
        <ele>715</ele>
        <time>2021-03-13T13:54:45Z</time>
      </trkpt>
      <trkpt lat="43.00496" lon="0.82707">
        <ele>715</ele>
        <time>2021-03-13T13:54:46Z</time>
      </trkpt>
      <trkpt lat="43.00494" lon="0.82705">
        <ele>715</ele>
        <time>2021-03-13T13:54:47Z</time>
      </trkpt>
      <trkpt lat="43.00487" lon="0.82697">
        <ele>715</ele>
        <time>2021-03-13T13:54:48Z</time>
      </trkpt>
      <trkpt lat="43.00485" lon="0.82695">
        <ele>715</ele>
        <time>2021-03-13T13:54:49Z</time>
      </trkpt>
      <trkpt lat="43.00477" lon="0.82688">
        <ele>711</ele>
        <time>2021-03-13T13:54:50Z</time>
      </trkpt>
      <trkpt lat="43.00475" lon="0.82686">
        <ele>711</ele>
        <time>2021-03-13T13:54:51Z</time>
      </trkpt>
      <trkpt lat="43.00469" lon="0.82683">
        <ele>711</ele>
        <time>2021-03-13T13:54:52Z</time>
      </trkpt>
      <trkpt lat="43.00469" lon="0.82683">
        <ele>711</ele>
        <time>2021-03-13T13:54:53Z</time>
      </trkpt>
      <trkpt lat="43.00464" lon="0.82683">
        <ele>711</ele>
        <time>2021-03-13T13:54:54Z</time>
      </trkpt>
      <trkpt lat="43.00459" lon="0.82684">
        <ele>706</ele>
        <time>2021-03-13T13:54:55Z</time>
      </trkpt>
      <trkpt lat="43.00455" lon="0.82684">
        <ele>706</ele>
        <time>2021-03-13T13:54:56Z</time>
      </trkpt>
      <trkpt lat="43.00451" lon="0.82686">
        <ele>706</ele>
        <time>2021-03-13T13:54:57Z</time>
      </trkpt>
      <trkpt lat="43.00451" lon="0.82686">
        <ele>706</ele>
        <time>2021-03-13T13:54:58Z</time>
      </trkpt>
      <trkpt lat="43.00447" lon="0.82686">
        <ele>706</ele>
        <time>2021-03-13T13:54:59Z</time>
      </trkpt>
      <trkpt lat="43.00444" lon="0.82686">
        <ele>702</ele>
        <time>2021-03-13T13:55:00Z</time>
      </trkpt>
      <trkpt lat="43.00441" lon="0.82686">
        <ele>702</ele>
        <time>2021-03-13T13:55:01Z</time>
      </trkpt>
      <trkpt lat="43.00438" lon="0.82685">
        <ele>703</ele>
        <time>2021-03-13T13:55:02Z</time>
      </trkpt>
      <trkpt lat="43.00435" lon="0.82685">
        <ele>703</ele>
        <time>2021-03-13T13:55:03Z</time>
      </trkpt>
      <trkpt lat="43.0043" lon="0.82683">
        <ele>701</ele>
        <time>2021-03-13T13:55:04Z</time>
      </trkpt>
      <trkpt lat="43.0043" lon="0.82683">
        <ele>700</ele>
        <time>2021-03-13T13:55:05Z</time>
      </trkpt>
      <trkpt lat="43.00415" lon="0.82676">
        <ele>699</ele>
        <time>2021-03-13T13:55:06Z</time>
      </trkpt>
      <trkpt lat="43.00412" lon="0.82675">
        <ele>698</ele>
        <time>2021-03-13T13:55:07Z</time>
      </trkpt>
      <trkpt lat="43.00404" lon="0.82669">
        <ele>698</ele>
        <time>2021-03-13T13:55:08Z</time>
      </trkpt>
      <trkpt lat="43.00402" lon="0.82668">
        <ele>698</ele>
        <time>2021-03-13T13:55:09Z</time>
      </trkpt>
      <trkpt lat="43.00398" lon="0.82664">
        <ele>698</ele>
        <time>2021-03-13T13:55:10Z</time>
      </trkpt>
      <trkpt lat="43.00398" lon="0.82664">
        <ele>698</ele>
        <time>2021-03-13T13:55:11Z</time>
      </trkpt>
      <trkpt lat="43.00393" lon="0.82656">
        <ele>698</ele>
        <time>2021-03-13T13:55:12Z</time>
      </trkpt>
      <trkpt lat="43.00393" lon="0.82656">
        <ele>698</ele>
        <time>2021-03-13T13:55:13Z</time>
      </trkpt>
      <trkpt lat="43.00389" lon="0.82649">
        <ele>698</ele>
        <time>2021-03-13T13:55:14Z</time>
      </trkpt>
      <trkpt lat="43.00389" lon="0.82649">
        <ele>699</ele>
        <time>2021-03-13T13:55:15Z</time>
      </trkpt>
      <trkpt lat="43.00384" lon="0.82643">
        <ele>699</ele>
        <time>2021-03-13T13:55:16Z</time>
      </trkpt>
      <trkpt lat="43.00384" lon="0.82643">
        <ele>699</ele>
        <time>2021-03-13T13:55:17Z</time>
      </trkpt>
      <trkpt lat="43.00382" lon="0.82641">
        <ele>699</ele>
        <time>2021-03-13T13:55:18Z</time>
      </trkpt>
      <trkpt lat="43.00379" lon="0.82639">
        <ele>699</ele>
        <time>2021-03-13T13:55:19Z</time>
      </trkpt>
      <trkpt lat="43.00377" lon="0.82637">
        <ele>699</ele>
        <time>2021-03-13T13:55:20Z</time>
      </trkpt>
      <trkpt lat="43.00374" lon="0.82636">
        <ele>699</ele>
        <time>2021-03-13T13:55:21Z</time>
      </trkpt>
      <trkpt lat="43.00372" lon="0.82634">
        <ele>699</ele>
        <time>2021-03-13T13:55:22Z</time>
      </trkpt>
      <trkpt lat="43.00369" lon="0.82632">
        <ele>699</ele>
        <time>2021-03-13T13:55:23Z</time>
      </trkpt>
      <trkpt lat="43.00366" lon="0.82631">
        <ele>699</ele>
        <time>2021-03-13T13:55:24Z</time>
      </trkpt>
      <trkpt lat="43.00363" lon="0.8263">
        <ele>699</ele>
        <time>2021-03-13T13:55:25Z</time>
      </trkpt>
      <trkpt lat="43.0036" lon="0.82629">
        <ele>699</ele>
        <time>2021-03-13T13:55:26Z</time>
      </trkpt>
      <trkpt lat="43.00358" lon="0.82628">
        <ele>699</ele>
        <time>2021-03-13T13:55:27Z</time>
      </trkpt>
      <trkpt lat="43.00355" lon="0.82627">
        <ele>699</ele>
        <time>2021-03-13T13:55:28Z</time>
      </trkpt>
      <trkpt lat="43.00352" lon="0.82626">
        <ele>699</ele>
        <time>2021-03-13T13:55:29Z</time>
      </trkpt>
      <trkpt lat="43.00349" lon="0.82625">
        <ele>701</ele>
        <time>2021-03-13T13:55:30Z</time>
      </trkpt>
      <trkpt lat="43.00347" lon="0.82625">
        <ele>701</ele>
        <time>2021-03-13T13:55:31Z</time>
      </trkpt>
      <trkpt lat="43.00344" lon="0.82624">
        <ele>701</ele>
        <time>2021-03-13T13:55:32Z</time>
      </trkpt>
      <trkpt lat="43.00339" lon="0.82622">
        <ele>701</ele>
        <time>2021-03-13T13:55:33Z</time>
      </trkpt>
      <trkpt lat="43.00339" lon="0.82622">
        <ele>701</ele>
        <time>2021-03-13T13:55:34Z</time>
      </trkpt>
      <trkpt lat="43.00334" lon="0.82619">
        <ele>701</ele>
        <time>2021-03-13T13:55:35Z</time>
      </trkpt>
      <trkpt lat="43.00334" lon="0.82619">
        <ele>701</ele>
        <time>2021-03-13T13:55:36Z</time>
      </trkpt>
      <trkpt lat="43.00329" lon="0.82617">
        <ele>701</ele>
        <time>2021-03-13T13:55:37Z</time>
      </trkpt>
      <trkpt lat="43.00329" lon="0.82617">
        <ele>701</ele>
        <time>2021-03-13T13:55:38Z</time>
      </trkpt>
      <trkpt lat="43.00323" lon="0.82616">
        <ele>701</ele>
        <time>2021-03-13T13:55:39Z</time>
      </trkpt>
      <trkpt lat="43.00323" lon="0.82616">
        <ele>704</ele>
        <time>2021-03-13T13:55:40Z</time>
      </trkpt>
      <trkpt lat="43.00317" lon="0.82617">
        <ele>704</ele>
        <time>2021-03-13T13:55:41Z</time>
      </trkpt>
      <trkpt lat="43.00317" lon="0.82617">
        <ele>704</ele>
        <time>2021-03-13T13:55:42Z</time>
      </trkpt>
      <trkpt lat="43.00311" lon="0.82619">
        <ele>704</ele>
        <time>2021-03-13T13:55:43Z</time>
      </trkpt>
      <trkpt lat="43.00311" lon="0.82619">
        <ele>704</ele>
        <time>2021-03-13T13:55:44Z</time>
      </trkpt>
      <trkpt lat="43.00306" lon="0.82621">
        <ele>705</ele>
        <time>2021-03-13T13:55:45Z</time>
      </trkpt>
      <trkpt lat="43.00306" lon="0.82621">
        <ele>705</ele>
        <time>2021-03-13T13:55:46Z</time>
      </trkpt>
      <trkpt lat="43.00301" lon="0.82625">
        <ele>705</ele>
        <time>2021-03-13T13:55:47Z</time>
      </trkpt>
      <trkpt lat="43.00301" lon="0.82625">
        <ele>705</ele>
        <time>2021-03-13T13:55:48Z</time>
      </trkpt>
      <trkpt lat="43.00296" lon="0.82629">
        <ele>705</ele>
        <time>2021-03-13T13:55:49Z</time>
      </trkpt>
      <trkpt lat="43.00296" lon="0.82629">
        <ele>704</ele>
        <time>2021-03-13T13:55:50Z</time>
      </trkpt>
      <trkpt lat="43.00292" lon="0.82636">
        <ele>704</ele>
        <time>2021-03-13T13:55:51Z</time>
      </trkpt>
      <trkpt lat="43.00292" lon="0.82636">
        <ele>704</ele>
        <time>2021-03-13T13:55:52Z</time>
      </trkpt>
      <trkpt lat="43.00287" lon="0.82642">
        <ele>704</ele>
        <time>2021-03-13T13:55:53Z</time>
      </trkpt>
      <trkpt lat="43.00287" lon="0.82642">
        <ele>704</ele>
        <time>2021-03-13T13:55:54Z</time>
      </trkpt>
      <trkpt lat="43.00282" lon="0.82649">
        <ele>704</ele>
        <time>2021-03-13T13:55:55Z</time>
      </trkpt>
      <trkpt lat="43.00282" lon="0.82649">
        <ele>704</ele>
        <time>2021-03-13T13:55:56Z</time>
      </trkpt>
      <trkpt lat="43.00276" lon="0.82656">
        <ele>704</ele>
        <time>2021-03-13T13:55:57Z</time>
      </trkpt>
      <trkpt lat="43.00276" lon="0.82656">
        <ele>704</ele>
        <time>2021-03-13T13:55:58Z</time>
      </trkpt>
      <trkpt lat="43.00269" lon="0.82663">
        <ele>704</ele>
        <time>2021-03-13T13:55:59Z</time>
      </trkpt>
      <trkpt lat="43.00269" lon="0.82663">
        <ele>703</ele>
        <time>2021-03-13T13:56:00Z</time>
      </trkpt>
      <trkpt lat="43.00267" lon="0.82668">
        <ele>703</ele>
        <time>2021-03-13T13:56:01Z</time>
      </trkpt>
      <trkpt lat="43.00264" lon="0.82674">
        <ele>703</ele>
        <time>2021-03-13T13:56:02Z</time>
      </trkpt>
      <trkpt lat="43.00261" lon="0.82679">
        <ele>703</ele>
        <time>2021-03-13T13:56:03Z</time>
      </trkpt>
      <trkpt lat="43.00258" lon="0.82685">
        <ele>703</ele>
        <time>2021-03-13T13:56:04Z</time>
      </trkpt>
      <trkpt lat="43.00254" lon="0.82694">
        <ele>703</ele>
        <time>2021-03-13T13:56:05Z</time>
      </trkpt>
      <trkpt lat="43.00249" lon="0.82704">
        <ele>703</ele>
        <time>2021-03-13T13:56:06Z</time>
      </trkpt>
      <trkpt lat="43.00243" lon="0.82713">
        <ele>703</ele>
        <time>2021-03-13T13:56:07Z</time>
      </trkpt>
      <trkpt lat="43.00237" lon="0.8272">
        <ele>703</ele>
        <time>2021-03-13T13:56:08Z</time>
      </trkpt>
      <trkpt lat="43.0023" lon="0.82725">
        <ele>703</ele>
        <time>2021-03-13T13:56:09Z</time>
      </trkpt>
      <trkpt lat="43.00223" lon="0.82726">
        <ele>700</ele>
        <time>2021-03-13T13:56:10Z</time>
      </trkpt>
      <trkpt lat="43.00217" lon="0.82724">
        <ele>700</ele>
        <time>2021-03-13T13:56:11Z</time>
      </trkpt>
      <trkpt lat="43.00212" lon="0.82723">
        <ele>700</ele>
        <time>2021-03-13T13:56:12Z</time>
      </trkpt>
      <trkpt lat="43.00212" lon="0.82723">
        <ele>700</ele>
        <time>2021-03-13T13:56:13Z</time>
      </trkpt>
      <trkpt lat="43.00205" lon="0.82715">
        <ele>700</ele>
        <time>2021-03-13T13:56:14Z</time>
      </trkpt>
      <trkpt lat="43.00205" lon="0.82715">
        <ele>698</ele>
        <time>2021-03-13T13:56:15Z</time>
      </trkpt>
      <trkpt lat="43.00198" lon="0.82709">
        <ele>698</ele>
        <time>2021-03-13T13:56:16Z</time>
      </trkpt>
      <trkpt lat="43.00198" lon="0.82709">
        <ele>698</ele>
        <time>2021-03-13T13:56:17Z</time>
      </trkpt>
      <trkpt lat="43.00194" lon="0.82702">
        <ele>698</ele>
        <time>2021-03-13T13:56:18Z</time>
      </trkpt>
      <trkpt lat="43.00194" lon="0.82702">
        <ele>698</ele>
        <time>2021-03-13T13:56:19Z</time>
      </trkpt>
      <trkpt lat="43.00189" lon="0.82696">
        <ele>698</ele>
        <time>2021-03-13T13:56:20Z</time>
      </trkpt>
      <trkpt lat="43.00189" lon="0.82696">
        <ele>698</ele>
        <time>2021-03-13T13:56:21Z</time>
      </trkpt>
      <trkpt lat="43.00184" lon="0.8269">
        <ele>698</ele>
        <time>2021-03-13T13:56:22Z</time>
      </trkpt>
      <trkpt lat="43.00184" lon="0.8269">
        <ele>698</ele>
        <time>2021-03-13T13:56:23Z</time>
      </trkpt>
      <trkpt lat="43.00179" lon="0.82685">
        <ele>698</ele>
        <time>2021-03-13T13:56:24Z</time>
      </trkpt>
      <trkpt lat="43.00179" lon="0.82685">
        <ele>698</ele>
        <time>2021-03-13T13:56:25Z</time>
      </trkpt>
      <trkpt lat="43.00175" lon="0.82679">
        <ele>698</ele>
        <time>2021-03-13T13:56:26Z</time>
      </trkpt>
      <trkpt lat="43.00175" lon="0.82679">
        <ele>698</ele>
        <time>2021-03-13T13:56:27Z</time>
      </trkpt>
      <trkpt lat="43.00174" lon="0.82677">
        <ele>698</ele>
        <time>2021-03-13T13:56:28Z</time>
      </trkpt>
      <trkpt lat="43.00172" lon="0.82675">
        <ele>698</ele>
        <time>2021-03-13T13:56:29Z</time>
      </trkpt>
      <trkpt lat="43.00171" lon="0.82672">
        <ele>701</ele>
        <time>2021-03-13T13:56:30Z</time>
      </trkpt>
      <trkpt lat="43.00169" lon="0.8267">
        <ele>701</ele>
        <time>2021-03-13T13:56:31Z</time>
      </trkpt>
      <trkpt lat="43.00168" lon="0.82668">
        <ele>701</ele>
        <time>2021-03-13T13:56:32Z</time>
      </trkpt>
      <trkpt lat="43.00167" lon="0.82665">
        <ele>701</ele>
        <time>2021-03-13T13:56:33Z</time>
      </trkpt>
      <trkpt lat="43.00165" lon="0.82663">
        <ele>701</ele>
        <time>2021-03-13T13:56:34Z</time>
      </trkpt>
      <trkpt lat="43.00164" lon="0.82661">
        <ele>704</ele>
        <time>2021-03-13T13:56:35Z</time>
      </trkpt>
      <trkpt lat="43.00162" lon="0.82659">
        <ele>704</ele>
        <time>2021-03-13T13:56:36Z</time>
      </trkpt>
      <trkpt lat="43.00161" lon="0.82656">
        <ele>704</ele>
        <time>2021-03-13T13:56:37Z</time>
      </trkpt>
      <trkpt lat="43.0016" lon="0.82654">
        <ele>704</ele>
        <time>2021-03-13T13:56:38Z</time>
      </trkpt>
      <trkpt lat="43.00158" lon="0.82652">
        <ele>704</ele>
        <time>2021-03-13T13:56:39Z</time>
      </trkpt>
      <trkpt lat="43.00157" lon="0.82649">
        <ele>706</ele>
        <time>2021-03-13T13:56:40Z</time>
      </trkpt>
      <trkpt lat="43.00155" lon="0.82647">
        <ele>706</ele>
        <time>2021-03-13T13:56:41Z</time>
      </trkpt>
      <trkpt lat="43.00154" lon="0.82644">
        <ele>706</ele>
        <time>2021-03-13T13:56:42Z</time>
      </trkpt>
      <trkpt lat="43.00153" lon="0.82642">
        <ele>706</ele>
        <time>2021-03-13T13:56:43Z</time>
      </trkpt>
      <trkpt lat="43.00151" lon="0.8264">
        <ele>706</ele>
        <time>2021-03-13T13:56:44Z</time>
      </trkpt>
      <trkpt lat="43.0015" lon="0.82637">
        <ele>708</ele>
        <time>2021-03-13T13:56:45Z</time>
      </trkpt>
      <trkpt lat="43.00148" lon="0.82635">
        <ele>708</ele>
        <time>2021-03-13T13:56:46Z</time>
      </trkpt>
      <trkpt lat="43.00147" lon="0.82632">
        <ele>708</ele>
        <time>2021-03-13T13:56:47Z</time>
      </trkpt>
      <trkpt lat="43.00145" lon="0.8263">
        <ele>708</ele>
        <time>2021-03-13T13:56:48Z</time>
      </trkpt>
      <trkpt lat="43.00143" lon="0.82628">
        <ele>708</ele>
        <time>2021-03-13T13:56:49Z</time>
      </trkpt>
      <trkpt lat="43.00142" lon="0.82625">
        <ele>710</ele>
        <time>2021-03-13T13:56:50Z</time>
      </trkpt>
      <trkpt lat="43.0014" lon="0.82623">
        <ele>710</ele>
        <time>2021-03-13T13:56:51Z</time>
      </trkpt>
      <trkpt lat="43.00138" lon="0.82621">
        <ele>710</ele>
        <time>2021-03-13T13:56:52Z</time>
      </trkpt>
      <trkpt lat="43.00136" lon="0.82619">
        <ele>710</ele>
        <time>2021-03-13T13:56:53Z</time>
      </trkpt>
      <trkpt lat="43.00134" lon="0.82618">
        <ele>710</ele>
        <time>2021-03-13T13:56:54Z</time>
      </trkpt>
      <trkpt lat="43.00132" lon="0.82616">
        <ele>712</ele>
        <time>2021-03-13T13:56:55Z</time>
      </trkpt>
      <trkpt lat="43.00131" lon="0.82615">
        <ele>712</ele>
        <time>2021-03-13T13:56:56Z</time>
      </trkpt>
      <trkpt lat="43.00129" lon="0.82613">
        <ele>712</ele>
        <time>2021-03-13T13:56:57Z</time>
      </trkpt>
      <trkpt lat="43.00127" lon="0.82612">
        <ele>712</ele>
        <time>2021-03-13T13:56:58Z</time>
      </trkpt>
      <trkpt lat="43.00125" lon="0.82611">
        <ele>712</ele>
        <time>2021-03-13T13:56:59Z</time>
      </trkpt>
      <trkpt lat="43.00122" lon="0.8261">
        <ele>714</ele>
        <time>2021-03-13T13:57:00Z</time>
      </trkpt>
      <trkpt lat="43.0012" lon="0.82609">
        <ele>714</ele>
        <time>2021-03-13T13:57:01Z</time>
      </trkpt>
      <trkpt lat="43.00118" lon="0.82609">
        <ele>714</ele>
        <time>2021-03-13T13:57:02Z</time>
      </trkpt>
      <trkpt lat="43.00116" lon="0.82609">
        <ele>714</ele>
        <time>2021-03-13T13:57:03Z</time>
      </trkpt>
      <trkpt lat="43.00114" lon="0.82608">
        <ele>714</ele>
        <time>2021-03-13T13:57:04Z</time>
      </trkpt>
      <trkpt lat="43.00112" lon="0.82609">
        <ele>715</ele>
        <time>2021-03-13T13:57:05Z</time>
      </trkpt>
      <trkpt lat="43.0011" lon="0.8261">
        <ele>715</ele>
        <time>2021-03-13T13:57:06Z</time>
      </trkpt>
      <trkpt lat="43.00108" lon="0.8261">
        <ele>715</ele>
        <time>2021-03-13T13:57:07Z</time>
      </trkpt>
      <trkpt lat="43.00106" lon="0.82611">
        <ele>715</ele>
        <time>2021-03-13T13:57:08Z</time>
      </trkpt>
      <trkpt lat="43.00104" lon="0.82612">
        <ele>715</ele>
        <time>2021-03-13T13:57:09Z</time>
      </trkpt>
      <trkpt lat="43.00102" lon="0.82612">
        <ele>716</ele>
        <time>2021-03-13T13:57:10Z</time>
      </trkpt>
      <trkpt lat="43.001" lon="0.82613">
        <ele>716</ele>
        <time>2021-03-13T13:57:11Z</time>
      </trkpt>
      <trkpt lat="43.00098" lon="0.82614">
        <ele>716</ele>
        <time>2021-03-13T13:57:12Z</time>
      </trkpt>
      <trkpt lat="43.00096" lon="0.82614">
        <ele>716</ele>
        <time>2021-03-13T13:57:13Z</time>
      </trkpt>
      <trkpt lat="43.00094" lon="0.82615">
        <ele>716</ele>
        <time>2021-03-13T13:57:14Z</time>
      </trkpt>
      <trkpt lat="43.00092" lon="0.82616">
        <ele>716</ele>
        <time>2021-03-13T13:57:15Z</time>
      </trkpt>
      <trkpt lat="43.00089" lon="0.82617">
        <ele>716</ele>
        <time>2021-03-13T13:57:16Z</time>
      </trkpt>
      <trkpt lat="43.00087" lon="0.82618">
        <ele>716</ele>
        <time>2021-03-13T13:57:17Z</time>
      </trkpt>
      <trkpt lat="43.00085" lon="0.82619">
        <ele>716</ele>
        <time>2021-03-13T13:57:18Z</time>
      </trkpt>
      <trkpt lat="43.00083" lon="0.8262">
        <ele>716</ele>
        <time>2021-03-13T13:57:19Z</time>
      </trkpt>
      <trkpt lat="43.00082" lon="0.82621">
        <ele>718</ele>
        <time>2021-03-13T13:57:20Z</time>
      </trkpt>
      <trkpt lat="43.0008" lon="0.82622">
        <ele>718</ele>
        <time>2021-03-13T13:57:21Z</time>
      </trkpt>
      <trkpt lat="43.00078" lon="0.82622">
        <ele>718</ele>
        <time>2021-03-13T13:57:22Z</time>
      </trkpt>
      <trkpt lat="43.00077" lon="0.82623">
        <ele>718</ele>
        <time>2021-03-13T13:57:23Z</time>
      </trkpt>
      <trkpt lat="43.00075" lon="0.82624">
        <ele>718</ele>
        <time>2021-03-13T13:57:24Z</time>
      </trkpt>
      <trkpt lat="43.00073" lon="0.82625">
        <ele>718</ele>
        <time>2021-03-13T13:57:25Z</time>
      </trkpt>
      <trkpt lat="43.00072" lon="0.82626">
        <ele>718</ele>
        <time>2021-03-13T13:57:26Z</time>
      </trkpt>
      <trkpt lat="43.0007" lon="0.82626">
        <ele>718</ele>
        <time>2021-03-13T13:57:27Z</time>
      </trkpt>
      <trkpt lat="43.00069" lon="0.82627">
        <ele>718</ele>
        <time>2021-03-13T13:57:28Z</time>
      </trkpt>
      <trkpt lat="43.00067" lon="0.82628">
        <ele>718</ele>
        <time>2021-03-13T13:57:29Z</time>
      </trkpt>
      <trkpt lat="43.00066" lon="0.82629">
        <ele>721</ele>
        <time>2021-03-13T13:57:30Z</time>
      </trkpt>
      <trkpt lat="43.00064" lon="0.82629">
        <ele>721</ele>
        <time>2021-03-13T13:57:31Z</time>
      </trkpt>
      <trkpt lat="43.00062" lon="0.8263">
        <ele>721</ele>
        <time>2021-03-13T13:57:32Z</time>
      </trkpt>
      <trkpt lat="43.0006" lon="0.82631">
        <ele>721</ele>
        <time>2021-03-13T13:57:33Z</time>
      </trkpt>
      <trkpt lat="43.00058" lon="0.82632">
        <ele>721</ele>
        <time>2021-03-13T13:57:34Z</time>
      </trkpt>
      <trkpt lat="43.00057" lon="0.82632">
        <ele>723</ele>
        <time>2021-03-13T13:57:35Z</time>
      </trkpt>
      <trkpt lat="43.00055" lon="0.82633">
        <ele>723</ele>
        <time>2021-03-13T13:57:36Z</time>
      </trkpt>
      <trkpt lat="43.00053" lon="0.82634">
        <ele>723</ele>
        <time>2021-03-13T13:57:37Z</time>
      </trkpt>
      <trkpt lat="43.00051" lon="0.82634">
        <ele>723</ele>
        <time>2021-03-13T13:57:38Z</time>
      </trkpt>
      <trkpt lat="43.00049" lon="0.82634">
        <ele>723</ele>
        <time>2021-03-13T13:57:39Z</time>
      </trkpt>
      <trkpt lat="43.00048" lon="0.82635">
        <ele>724</ele>
        <time>2021-03-13T13:57:40Z</time>
      </trkpt>
      <trkpt lat="43.00046" lon="0.82635">
        <ele>724</ele>
        <time>2021-03-13T13:57:41Z</time>
      </trkpt>
      <trkpt lat="43.00045" lon="0.82635">
        <ele>724</ele>
        <time>2021-03-13T13:57:42Z</time>
      </trkpt>
      <trkpt lat="43.00043" lon="0.82635">
        <ele>724</ele>
        <time>2021-03-13T13:57:43Z</time>
      </trkpt>
      <trkpt lat="43.00041" lon="0.82636">
        <ele>724</ele>
        <time>2021-03-13T13:57:44Z</time>
      </trkpt>
      <trkpt lat="43.0004" lon="0.82636">
        <ele>726</ele>
        <time>2021-03-13T13:57:45Z</time>
      </trkpt>
      <trkpt lat="43.00038" lon="0.82636">
        <ele>726</ele>
        <time>2021-03-13T13:57:46Z</time>
      </trkpt>
      <trkpt lat="43.00037" lon="0.82636">
        <ele>726</ele>
        <time>2021-03-13T13:57:47Z</time>
      </trkpt>
      <trkpt lat="43.00035" lon="0.82636">
        <ele>726</ele>
        <time>2021-03-13T13:57:48Z</time>
      </trkpt>
      <trkpt lat="43.00034" lon="0.82637">
        <ele>726</ele>
        <time>2021-03-13T13:57:49Z</time>
      </trkpt>
      <trkpt lat="43.00032" lon="0.82637">
        <ele>727</ele>
        <time>2021-03-13T13:57:50Z</time>
      </trkpt>
      <trkpt lat="43.00031" lon="0.82637">
        <ele>727</ele>
        <time>2021-03-13T13:57:51Z</time>
      </trkpt>
      <trkpt lat="43.00029" lon="0.82638">
        <ele>727</ele>
        <time>2021-03-13T13:57:52Z</time>
      </trkpt>
      <trkpt lat="43.00028" lon="0.82639">
        <ele>727</ele>
        <time>2021-03-13T13:57:53Z</time>
      </trkpt>
      <trkpt lat="43.00026" lon="0.8264">
        <ele>727</ele>
        <time>2021-03-13T13:57:54Z</time>
      </trkpt>
      <trkpt lat="43.00025" lon="0.8264">
        <ele>728</ele>
        <time>2021-03-13T13:57:55Z</time>
      </trkpt>
      <trkpt lat="43.00024" lon="0.82641">
        <ele>728</ele>
        <time>2021-03-13T13:57:56Z</time>
      </trkpt>
      <trkpt lat="43.00022" lon="0.82642">
        <ele>728</ele>
        <time>2021-03-13T13:57:57Z</time>
      </trkpt>
      <trkpt lat="43.00021" lon="0.82643">
        <ele>728</ele>
        <time>2021-03-13T13:57:58Z</time>
      </trkpt>
      <trkpt lat="43.00019" lon="0.82645">
        <ele>728</ele>
        <time>2021-03-13T13:57:59Z</time>
      </trkpt>
      <trkpt lat="43.00017" lon="0.82646">
        <ele>730</ele>
        <time>2021-03-13T13:58:00Z</time>
      </trkpt>
      <trkpt lat="43.00015" lon="0.82648">
        <ele>730</ele>
        <time>2021-03-13T13:58:01Z</time>
      </trkpt>
      <trkpt lat="43.00013" lon="0.8265">
        <ele>730</ele>
        <time>2021-03-13T13:58:02Z</time>
      </trkpt>
      <trkpt lat="43.00011" lon="0.82651">
        <ele>730</ele>
        <time>2021-03-13T13:58:03Z</time>
      </trkpt>
      <trkpt lat="43.00009" lon="0.82653">
        <ele>730</ele>
        <time>2021-03-13T13:58:04Z</time>
      </trkpt>
      <trkpt lat="43.00008" lon="0.82654">
        <ele>730</ele>
        <time>2021-03-13T13:58:05Z</time>
      </trkpt>
      <trkpt lat="43.00007" lon="0.82655">
        <ele>730</ele>
        <time>2021-03-13T13:58:06Z</time>
      </trkpt>
      <trkpt lat="43.00006" lon="0.82657">
        <ele>730</ele>
        <time>2021-03-13T13:58:07Z</time>
      </trkpt>
      <trkpt lat="43.00005" lon="0.82658">
        <ele>730</ele>
        <time>2021-03-13T13:58:08Z</time>
      </trkpt>
      <trkpt lat="43.00004" lon="0.8266">
        <ele>730</ele>
        <time>2021-03-13T13:58:09Z</time>
      </trkpt>
      <trkpt lat="43.00002" lon="0.82661">
        <ele>731</ele>
        <time>2021-03-13T13:58:10Z</time>
      </trkpt>
      <trkpt lat="43.00002" lon="0.82663">
        <ele>731</ele>
        <time>2021-03-13T13:58:11Z</time>
      </trkpt>
      <trkpt lat="43.00001" lon="0.82665">
        <ele>731</ele>
        <time>2021-03-13T13:58:12Z</time>
      </trkpt>
      <trkpt lat="43" lon="0.82667">
        <ele>731</ele>
        <time>2021-03-13T13:58:13Z</time>
      </trkpt>
      <trkpt lat="42.99999" lon="0.8267">
        <ele>731</ele>
        <time>2021-03-13T13:58:14Z</time>
      </trkpt>
      <trkpt lat="42.99998" lon="0.82672">
        <ele>731</ele>
        <time>2021-03-13T13:58:15Z</time>
      </trkpt>
      <trkpt lat="42.99997" lon="0.82674">
        <ele>731</ele>
        <time>2021-03-13T13:58:16Z</time>
      </trkpt>
      <trkpt lat="42.99996" lon="0.82676">
        <ele>731</ele>
        <time>2021-03-13T13:58:17Z</time>
      </trkpt>
      <trkpt lat="42.99994" lon="0.82678">
        <ele>731</ele>
        <time>2021-03-13T13:58:18Z</time>
      </trkpt>
      <trkpt lat="42.99993" lon="0.8268">
        <ele>731</ele>
        <time>2021-03-13T13:58:19Z</time>
      </trkpt>
      <trkpt lat="42.99991" lon="0.82682">
        <ele>733</ele>
        <time>2021-03-13T13:58:20Z</time>
      </trkpt>
      <trkpt lat="42.9999" lon="0.82684">
        <ele>733</ele>
        <time>2021-03-13T13:58:21Z</time>
      </trkpt>
      <trkpt lat="42.99989" lon="0.82687">
        <ele>733</ele>
        <time>2021-03-13T13:58:22Z</time>
      </trkpt>
      <trkpt lat="42.99987" lon="0.82689">
        <ele>733</ele>
        <time>2021-03-13T13:58:23Z</time>
      </trkpt>
      <trkpt lat="42.99986" lon="0.82691">
        <ele>733</ele>
        <time>2021-03-13T13:58:24Z</time>
      </trkpt>
      <trkpt lat="42.99985" lon="0.82693">
        <ele>733</ele>
        <time>2021-03-13T13:58:25Z</time>
      </trkpt>
      <trkpt lat="42.99983" lon="0.82696">
        <ele>733</ele>
        <time>2021-03-13T13:58:26Z</time>
      </trkpt>
      <trkpt lat="42.99982" lon="0.82697">
        <ele>733</ele>
        <time>2021-03-13T13:58:27Z</time>
      </trkpt>
      <trkpt lat="42.99982" lon="0.82699">
        <ele>733</ele>
        <time>2021-03-13T13:58:28Z</time>
      </trkpt>
      <trkpt lat="42.99981" lon="0.82701">
        <ele>733</ele>
        <time>2021-03-13T13:58:29Z</time>
      </trkpt>
      <trkpt lat="42.9998" lon="0.82702">
        <ele>735</ele>
        <time>2021-03-13T13:58:30Z</time>
      </trkpt>
      <trkpt lat="42.99979" lon="0.82704">
        <ele>735</ele>
        <time>2021-03-13T13:58:31Z</time>
      </trkpt>
      <trkpt lat="42.99978" lon="0.82705">
        <ele>735</ele>
        <time>2021-03-13T13:58:32Z</time>
      </trkpt>
      <trkpt lat="42.99978" lon="0.82706">
        <ele>735</ele>
        <time>2021-03-13T13:58:33Z</time>
      </trkpt>
      <trkpt lat="42.99978" lon="0.82706">
        <ele>735</ele>
        <time>2021-03-13T13:58:34Z</time>
      </trkpt>
      <trkpt lat="42.99978" lon="0.82707">
        <ele>736</ele>
        <time>2021-03-13T13:58:35Z</time>
      </trkpt>
      <trkpt lat="42.99978" lon="0.82707">
        <ele>736</ele>
        <time>2021-03-13T13:58:36Z</time>
      </trkpt>
      <trkpt lat="42.99978" lon="0.82708">
        <ele>736</ele>
        <time>2021-03-13T13:58:37Z</time>
      </trkpt>
      <trkpt lat="42.99978" lon="0.82708">
        <ele>736</ele>
        <time>2021-03-13T13:58:38Z</time>
      </trkpt>
      <trkpt lat="42.99978" lon="0.82709">
        <ele>736</ele>
        <time>2021-03-13T13:58:39Z</time>
      </trkpt>
      <trkpt lat="42.99978" lon="0.82709">
        <ele>736</ele>
        <time>2021-03-13T13:58:40Z</time>
      </trkpt>
      <trkpt lat="42.99978" lon="0.8271">
        <ele>736</ele>
        <time>2021-03-13T13:58:41Z</time>
      </trkpt>
      <trkpt lat="42.99978" lon="0.8271">
        <ele>736</ele>
        <time>2021-03-13T13:58:42Z</time>
      </trkpt>
      <trkpt lat="42.99978" lon="0.82711">
        <ele>736</ele>
        <time>2021-03-13T13:58:43Z</time>
      </trkpt>
      <trkpt lat="42.99978" lon="0.82711">
        <ele>736</ele>
        <time>2021-03-13T13:58:44Z</time>
      </trkpt>
      <trkpt lat="42.99978" lon="0.82712">
        <ele>736</ele>
        <time>2021-03-13T13:58:45Z</time>
      </trkpt>
      <trkpt lat="42.99978" lon="0.82712">
        <ele>736</ele>
        <time>2021-03-13T13:58:46Z</time>
      </trkpt>
      <trkpt lat="42.99978" lon="0.82713">
        <ele>736</ele>
        <time>2021-03-13T13:58:47Z</time>
      </trkpt>
      <trkpt lat="42.99978" lon="0.82713">
        <ele>736</ele>
        <time>2021-03-13T13:58:48Z</time>
      </trkpt>
      <trkpt lat="42.99978" lon="0.82714">
        <ele>736</ele>
        <time>2021-03-13T13:58:49Z</time>
      </trkpt>
      <trkpt lat="42.99978" lon="0.82714">
        <ele>736</ele>
        <time>2021-03-13T13:58:50Z</time>
      </trkpt>
      <trkpt lat="42.99978" lon="0.82715">
        <ele>736</ele>
        <time>2021-03-13T13:58:51Z</time>
      </trkpt>
      <trkpt lat="42.99978" lon="0.82716">
        <ele>736</ele>
        <time>2021-03-13T13:58:52Z</time>
      </trkpt>
      <trkpt lat="42.99978" lon="0.82716">
        <ele>736</ele>
        <time>2021-03-13T13:58:53Z</time>
      </trkpt>
      <trkpt lat="42.99978" lon="0.82717">
        <ele>736</ele>
        <time>2021-03-13T13:58:54Z</time>
      </trkpt>
      <trkpt lat="42.99979" lon="0.82717">
        <ele>736</ele>
        <time>2021-03-13T13:58:55Z</time>
      </trkpt>
      <trkpt lat="42.99979" lon="0.82718">
        <ele>736</ele>
        <time>2021-03-13T13:58:56Z</time>
      </trkpt>
      <trkpt lat="42.99979" lon="0.82718">
        <ele>736</ele>
        <time>2021-03-13T13:58:57Z</time>
      </trkpt>
      <trkpt lat="42.99979" lon="0.82719">
        <ele>736</ele>
        <time>2021-03-13T13:58:58Z</time>
      </trkpt>
      <trkpt lat="42.99979" lon="0.82719">
        <ele>736</ele>
        <time>2021-03-13T13:58:59Z</time>
      </trkpt>
      <trkpt lat="42.99979" lon="0.82719">
        <ele>736</ele>
        <time>2021-03-13T13:59:00Z</time>
      </trkpt>
      <trkpt lat="42.99978" lon="0.82719">
        <ele>736</ele>
        <time>2021-03-13T13:59:01Z</time>
      </trkpt>
      <trkpt lat="42.99978" lon="0.82719">
        <ele>736</ele>
        <time>2021-03-13T13:59:02Z</time>
      </trkpt>
      <trkpt lat="42.99978" lon="0.82719">
        <ele>736</ele>
        <time>2021-03-13T13:59:03Z</time>
      </trkpt>
      <trkpt lat="42.99978" lon="0.82719">
        <ele>736</ele>
        <time>2021-03-13T13:59:04Z</time>
      </trkpt>
      <trkpt lat="42.99978" lon="0.82719">
        <ele>736</ele>
        <time>2021-03-13T13:59:05Z</time>
      </trkpt>
      <trkpt lat="42.99978" lon="0.82719">
        <ele>736</ele>
        <time>2021-03-13T13:59:06Z</time>
      </trkpt>
      <trkpt lat="42.99978" lon="0.82719">
        <ele>736</ele>
        <time>2021-03-13T13:59:07Z</time>
      </trkpt>
      <trkpt lat="42.99978" lon="0.82719">
        <ele>736</ele>
        <time>2021-03-13T13:59:08Z</time>
      </trkpt>
      <trkpt lat="42.99978" lon="0.82719">
        <ele>736</ele>
        <time>2021-03-13T13:59:09Z</time>
      </trkpt>
      <trkpt lat="42.99978" lon="0.82719">
        <ele>736</ele>
        <time>2021-03-13T13:59:10Z</time>
      </trkpt>
      <trkpt lat="42.99978" lon="0.82719">
        <ele>736</ele>
        <time>2021-03-13T13:59:11Z</time>
      </trkpt>
      <trkpt lat="42.99978" lon="0.8272">
        <ele>736</ele>
        <time>2021-03-13T13:59:12Z</time>
      </trkpt>
      <trkpt lat="42.99978" lon="0.8272">
        <ele>736</ele>
        <time>2021-03-13T13:59:13Z</time>
      </trkpt>
      <trkpt lat="42.99978" lon="0.8272">
        <ele>736</ele>
        <time>2021-03-13T13:59:14Z</time>
      </trkpt>
      <trkpt lat="42.99978" lon="0.8272">
        <ele>736</ele>
        <time>2021-03-13T13:59:15Z</time>
      </trkpt>
      <trkpt lat="42.99978" lon="0.8272">
        <ele>736</ele>
        <time>2021-03-13T13:59:16Z</time>
      </trkpt>
      <trkpt lat="42.99978" lon="0.8272">
        <ele>736</ele>
        <time>2021-03-13T13:59:17Z</time>
      </trkpt>
      <trkpt lat="42.99978" lon="0.8272">
        <ele>736</ele>
        <time>2021-03-13T13:59:18Z</time>
      </trkpt>
      <trkpt lat="42.99978" lon="0.8272">
        <ele>736</ele>
        <time>2021-03-13T13:59:19Z</time>
      </trkpt>
      <trkpt lat="42.99977" lon="0.8272">
        <ele>735</ele>
        <time>2021-03-13T13:59:20Z</time>
      </trkpt>
      <trkpt lat="42.99977" lon="0.8272">
        <ele>735</ele>
        <time>2021-03-13T13:59:21Z</time>
      </trkpt>
      <trkpt lat="42.99977" lon="0.8272">
        <ele>735</ele>
        <time>2021-03-13T13:59:22Z</time>
      </trkpt>
      <trkpt lat="42.99977" lon="0.8272">
        <ele>735</ele>
        <time>2021-03-13T13:59:23Z</time>
      </trkpt>
      <trkpt lat="42.99977" lon="0.8272">
        <ele>735</ele>
        <time>2021-03-13T13:59:24Z</time>
      </trkpt>
      <trkpt lat="42.99977" lon="0.8272">
        <ele>735</ele>
        <time>2021-03-13T13:59:25Z</time>
      </trkpt>
      <trkpt lat="42.99977" lon="0.8272">
        <ele>735</ele>
        <time>2021-03-13T13:59:26Z</time>
      </trkpt>
      <trkpt lat="42.99977" lon="0.82721">
        <ele>735</ele>
        <time>2021-03-13T13:59:27Z</time>
      </trkpt>
      <trkpt lat="42.99977" lon="0.82721">
        <ele>735</ele>
        <time>2021-03-13T13:59:28Z</time>
      </trkpt>
      <trkpt lat="42.99977" lon="0.82721">
        <ele>735</ele>
        <time>2021-03-13T13:59:29Z</time>
      </trkpt>
      <trkpt lat="42.99977" lon="0.82721">
        <ele>736</ele>
        <time>2021-03-13T13:59:30Z</time>
      </trkpt>
      <trkpt lat="42.99977" lon="0.82721">
        <ele>736</ele>
        <time>2021-03-13T13:59:31Z</time>
      </trkpt>
      <trkpt lat="42.99977" lon="0.82721">
        <ele>736</ele>
        <time>2021-03-13T13:59:32Z</time>
      </trkpt>
      <trkpt lat="42.99977" lon="0.82721">
        <ele>736</ele>
        <time>2021-03-13T13:59:33Z</time>
      </trkpt>
      <trkpt lat="42.99977" lon="0.82721">
        <ele>736</ele>
        <time>2021-03-13T13:59:34Z</time>
      </trkpt>
      <trkpt lat="42.99977" lon="0.82721">
        <ele>736</ele>
        <time>2021-03-13T13:59:35Z</time>
      </trkpt>
      <trkpt lat="42.99977" lon="0.82721">
        <ele>736</ele>
        <time>2021-03-13T13:59:36Z</time>
      </trkpt>
      <trkpt lat="42.99977" lon="0.82721">
        <ele>736</ele>
        <time>2021-03-13T13:59:37Z</time>
      </trkpt>
      <trkpt lat="42.99977" lon="0.82721">
        <ele>736</ele>
        <time>2021-03-13T13:59:38Z</time>
      </trkpt>
      <trkpt lat="42.99976" lon="0.82721">
        <ele>736</ele>
        <time>2021-03-13T13:59:39Z</time>
      </trkpt>
      <trkpt lat="42.99976" lon="0.82721">
        <ele>736</ele>
        <time>2021-03-13T13:59:40Z</time>
      </trkpt>
      <trkpt lat="42.99976" lon="0.82722">
        <ele>736</ele>
        <time>2021-03-13T13:59:41Z</time>
      </trkpt>
      <trkpt lat="42.99976" lon="0.82722">
        <ele>736</ele>
        <time>2021-03-13T13:59:42Z</time>
      </trkpt>
      <trkpt lat="42.99976" lon="0.82722">
        <ele>736</ele>
        <time>2021-03-13T13:59:43Z</time>
      </trkpt>
      <trkpt lat="42.99976" lon="0.82722">
        <ele>736</ele>
        <time>2021-03-13T13:59:44Z</time>
      </trkpt>
      <trkpt lat="42.99976" lon="0.82722">
        <ele>736</ele>
        <time>2021-03-13T13:59:45Z</time>
      </trkpt>
      <trkpt lat="42.99976" lon="0.82722">
        <ele>736</ele>
        <time>2021-03-13T13:59:46Z</time>
      </trkpt>
      <trkpt lat="42.99976" lon="0.82722">
        <ele>736</ele>
        <time>2021-03-13T13:59:47Z</time>
      </trkpt>
      <trkpt lat="42.99976" lon="0.82722">
        <ele>736</ele>
        <time>2021-03-13T13:59:48Z</time>
      </trkpt>
      <trkpt lat="42.99976" lon="0.82722">
        <ele>736</ele>
        <time>2021-03-13T13:59:49Z</time>
      </trkpt>
      <trkpt lat="42.99976" lon="0.82722">
        <ele>736</ele>
        <time>2021-03-13T13:59:50Z</time>
      </trkpt>
      <trkpt lat="42.99976" lon="0.82722">
        <ele>736</ele>
        <time>2021-03-13T13:59:51Z</time>
      </trkpt>
      <trkpt lat="42.99976" lon="0.82722">
        <ele>736</ele>
        <time>2021-03-13T13:59:52Z</time>
      </trkpt>
      <trkpt lat="42.99976" lon="0.82722">
        <ele>736</ele>
        <time>2021-03-13T13:59:53Z</time>
      </trkpt>
      <trkpt lat="42.99976" lon="0.82722">
        <ele>736</ele>
        <time>2021-03-13T13:59:54Z</time>
      </trkpt>
      <trkpt lat="42.99976" lon="0.82722">
        <ele>736</ele>
        <time>2021-03-13T13:59:55Z</time>
      </trkpt>
      <trkpt lat="42.99976" lon="0.82723">
        <ele>736</ele>
        <time>2021-03-13T13:59:56Z</time>
      </trkpt>
      <trkpt lat="42.99976" lon="0.82723">
        <ele>736</ele>
        <time>2021-03-13T13:59:57Z</time>
      </trkpt>
      <trkpt lat="42.99975" lon="0.82723">
        <ele>736</ele>
        <time>2021-03-13T13:59:58Z</time>
      </trkpt>
      <trkpt lat="42.99975" lon="0.82723">
        <ele>736</ele>
        <time>2021-03-13T13:59:59Z</time>
      </trkpt>
      <trkpt lat="42.99975" lon="0.82723">
        <ele>735</ele>
        <time>2021-03-13T14:00:00Z</time>
      </trkpt>
      <trkpt lat="42.99975" lon="0.82723">
        <ele>735</ele>
        <time>2021-03-13T14:00:01Z</time>
      </trkpt>
      <trkpt lat="42.99975" lon="0.82723">
        <ele>735</ele>
        <time>2021-03-13T14:00:02Z</time>
      </trkpt>
      <trkpt lat="42.99975" lon="0.82723">
        <ele>735</ele>
        <time>2021-03-13T14:00:03Z</time>
      </trkpt>
      <trkpt lat="42.99975" lon="0.82723">
        <ele>735</ele>
        <time>2021-03-13T14:00:04Z</time>
      </trkpt>
      <trkpt lat="42.99975" lon="0.82723">
        <ele>735</ele>
        <time>2021-03-13T14:00:05Z</time>
      </trkpt>
      <trkpt lat="42.99975" lon="0.82723">
        <ele>735</ele>
        <time>2021-03-13T14:00:06Z</time>
      </trkpt>
      <trkpt lat="42.99975" lon="0.82723">
        <ele>735</ele>
        <time>2021-03-13T14:00:07Z</time>
      </trkpt>
      <trkpt lat="42.99975" lon="0.82723">
        <ele>735</ele>
        <time>2021-03-13T14:00:08Z</time>
      </trkpt>
      <trkpt lat="42.99975" lon="0.82723">
        <ele>735</ele>
        <time>2021-03-13T14:00:09Z</time>
      </trkpt>
      <trkpt lat="42.99975" lon="0.82724">
        <ele>735</ele>
        <time>2021-03-13T14:00:10Z</time>
      </trkpt>
      <trkpt lat="42.99975" lon="0.82724">
        <ele>735</ele>
        <time>2021-03-13T14:00:11Z</time>
      </trkpt>
      <trkpt lat="42.99975" lon="0.82724">
        <ele>735</ele>
        <time>2021-03-13T14:00:12Z</time>
      </trkpt>
      <trkpt lat="42.99975" lon="0.82724">
        <ele>735</ele>
        <time>2021-03-13T14:00:13Z</time>
      </trkpt>
      <trkpt lat="42.99975" lon="0.82724">
        <ele>735</ele>
        <time>2021-03-13T14:00:14Z</time>
      </trkpt>
      <trkpt lat="42.99975" lon="0.82724">
        <ele>735</ele>
        <time>2021-03-13T14:00:15Z</time>
      </trkpt>
      <trkpt lat="42.99975" lon="0.82724">
        <ele>735</ele>
        <time>2021-03-13T14:00:16Z</time>
      </trkpt>
      <trkpt lat="42.99974" lon="0.82724">
        <ele>735</ele>
        <time>2021-03-13T14:00:17Z</time>
      </trkpt>
      <trkpt lat="42.99974" lon="0.82724">
        <ele>735</ele>
        <time>2021-03-13T14:00:18Z</time>
      </trkpt>
      <trkpt lat="42.99974" lon="0.82724">
        <ele>735</ele>
        <time>2021-03-13T14:00:19Z</time>
      </trkpt>
      <trkpt lat="42.99974" lon="0.82724">
        <ele>736</ele>
        <time>2021-03-13T14:00:20Z</time>
      </trkpt>
      <trkpt lat="42.99974" lon="0.82724">
        <ele>736</ele>
        <time>2021-03-13T14:00:21Z</time>
      </trkpt>
      <trkpt lat="42.99974" lon="0.82724">
        <ele>736</ele>
        <time>2021-03-13T14:00:22Z</time>
      </trkpt>
      <trkpt lat="42.99974" lon="0.82724">
        <ele>736</ele>
        <time>2021-03-13T14:00:23Z</time>
      </trkpt>
      <trkpt lat="42.99974" lon="0.82724">
        <ele>736</ele>
        <time>2021-03-13T14:00:24Z</time>
      </trkpt>
      <trkpt lat="42.99974" lon="0.82725">
        <ele>736</ele>
        <time>2021-03-13T14:00:25Z</time>
      </trkpt>
      <trkpt lat="42.99974" lon="0.82725">
        <ele>736</ele>
        <time>2021-03-13T14:00:26Z</time>
      </trkpt>
      <trkpt lat="42.99974" lon="0.82725">
        <ele>736</ele>
        <time>2021-03-13T14:00:27Z</time>
      </trkpt>
      <trkpt lat="42.99974" lon="0.82725">
        <ele>736</ele>
        <time>2021-03-13T14:00:28Z</time>
      </trkpt>
      <trkpt lat="42.99974" lon="0.82725">
        <ele>736</ele>
        <time>2021-03-13T14:00:29Z</time>
      </trkpt>
      <trkpt lat="42.99974" lon="0.82725">
        <ele>735</ele>
        <time>2021-03-13T14:00:30Z</time>
      </trkpt>
      <trkpt lat="42.99974" lon="0.82725">
        <ele>735</ele>
        <time>2021-03-13T14:00:31Z</time>
      </trkpt>
      <trkpt lat="42.99974" lon="0.82725">
        <ele>735</ele>
        <time>2021-03-13T14:00:32Z</time>
      </trkpt>
      <trkpt lat="42.99974" lon="0.82725">
        <ele>735</ele>
        <time>2021-03-13T14:00:33Z</time>
      </trkpt>
      <trkpt lat="42.99974" lon="0.82725">
        <ele>735</ele>
        <time>2021-03-13T14:00:34Z</time>
      </trkpt>
      <trkpt lat="42.99973" lon="0.82725">
        <ele>735</ele>
        <time>2021-03-13T14:00:35Z</time>
      </trkpt>
      <trkpt lat="42.99973" lon="0.82725">
        <ele>735</ele>
        <time>2021-03-13T14:00:36Z</time>
      </trkpt>
      <trkpt lat="42.99973" lon="0.82725">
        <ele>735</ele>
        <time>2021-03-13T14:00:37Z</time>
      </trkpt>
      <trkpt lat="42.99973" lon="0.82725">
        <ele>735</ele>
        <time>2021-03-13T14:00:38Z</time>
      </trkpt>
      <trkpt lat="42.99973" lon="0.82726">
        <ele>735</ele>
        <time>2021-03-13T14:00:39Z</time>
      </trkpt>
      <trkpt lat="42.99973" lon="0.82726">
        <ele>735</ele>
        <time>2021-03-13T14:00:40Z</time>
      </trkpt>
      <trkpt lat="42.99973" lon="0.82726">
        <ele>735</ele>
        <time>2021-03-13T14:00:41Z</time>
      </trkpt>
      <trkpt lat="42.99973" lon="0.82726">
        <ele>735</ele>
        <time>2021-03-13T14:00:42Z</time>
      </trkpt>
      <trkpt lat="42.99973" lon="0.82726">
        <ele>735</ele>
        <time>2021-03-13T14:00:43Z</time>
      </trkpt>
      <trkpt lat="42.99973" lon="0.82726">
        <ele>735</ele>
        <time>2021-03-13T14:00:44Z</time>
      </trkpt>
      <trkpt lat="42.99973" lon="0.82726">
        <ele>735</ele>
        <time>2021-03-13T14:00:45Z</time>
      </trkpt>
      <trkpt lat="42.99973" lon="0.82726">
        <ele>735</ele>
        <time>2021-03-13T14:00:46Z</time>
      </trkpt>
      <trkpt lat="42.99973" lon="0.82726">
        <ele>735</ele>
        <time>2021-03-13T14:00:47Z</time>
      </trkpt>
      <trkpt lat="42.99973" lon="0.82726">
        <ele>735</ele>
        <time>2021-03-13T14:00:48Z</time>
      </trkpt>
      <trkpt lat="42.99973" lon="0.82726">
        <ele>735</ele>
        <time>2021-03-13T14:00:49Z</time>
      </trkpt>
      <trkpt lat="42.99973" lon="0.82726">
        <ele>735</ele>
        <time>2021-03-13T14:00:50Z</time>
      </trkpt>
      <trkpt lat="42.99973" lon="0.82726">
        <ele>735</ele>
        <time>2021-03-13T14:00:51Z</time>
      </trkpt>
      <trkpt lat="42.99973" lon="0.82726">
        <ele>735</ele>
        <time>2021-03-13T14:00:52Z</time>
      </trkpt>
      <trkpt lat="42.99973" lon="0.82726">
        <ele>735</ele>
        <time>2021-03-13T14:00:53Z</time>
      </trkpt>
      <trkpt lat="42.99972" lon="0.82727">
        <ele>735</ele>
        <time>2021-03-13T14:00:54Z</time>
      </trkpt>
      <trkpt lat="42.99972" lon="0.82727">
        <ele>735</ele>
        <time>2021-03-13T14:00:55Z</time>
      </trkpt>
      <trkpt lat="42.99972" lon="0.82727">
        <ele>735</ele>
        <time>2021-03-13T14:00:56Z</time>
      </trkpt>
      <trkpt lat="42.99972" lon="0.82727">
        <ele>735</ele>
        <time>2021-03-13T14:00:57Z</time>
      </trkpt>
      <trkpt lat="42.99972" lon="0.82727">
        <ele>735</ele>
        <time>2021-03-13T14:00:58Z</time>
      </trkpt>
      <trkpt lat="42.99972" lon="0.82727">
        <ele>735</ele>
        <time>2021-03-13T14:00:59Z</time>
      </trkpt>
      <trkpt lat="42.99972" lon="0.82727">
        <ele>736</ele>
        <time>2021-03-13T14:01:00Z</time>
      </trkpt>
      <trkpt lat="42.99972" lon="0.82727">
        <ele>736</ele>
        <time>2021-03-13T14:01:01Z</time>
      </trkpt>
      <trkpt lat="42.99972" lon="0.82727">
        <ele>736</ele>
        <time>2021-03-13T14:01:02Z</time>
      </trkpt>
      <trkpt lat="42.99972" lon="0.82727">
        <ele>736</ele>
        <time>2021-03-13T14:01:03Z</time>
      </trkpt>
      <trkpt lat="42.99972" lon="0.82727">
        <ele>736</ele>
        <time>2021-03-13T14:01:04Z</time>
      </trkpt>
      <trkpt lat="42.99972" lon="0.82727">
        <ele>736</ele>
        <time>2021-03-13T14:01:05Z</time>
      </trkpt>
      <trkpt lat="42.99972" lon="0.82727">
        <ele>736</ele>
        <time>2021-03-13T14:01:06Z</time>
      </trkpt>
      <trkpt lat="42.99972" lon="0.82727">
        <ele>736</ele>
        <time>2021-03-13T14:01:07Z</time>
      </trkpt>
      <trkpt lat="42.99972" lon="0.82728">
        <ele>736</ele>
        <time>2021-03-13T14:01:08Z</time>
      </trkpt>
      <trkpt lat="42.99972" lon="0.82728">
        <ele>736</ele>
        <time>2021-03-13T14:01:09Z</time>
      </trkpt>
      <trkpt lat="42.99972" lon="0.82728">
        <ele>736</ele>
        <time>2021-03-13T14:01:10Z</time>
      </trkpt>
      <trkpt lat="42.99972" lon="0.82728">
        <ele>736</ele>
        <time>2021-03-13T14:01:11Z</time>
      </trkpt>
      <trkpt lat="42.99972" lon="0.82728">
        <ele>736</ele>
        <time>2021-03-13T14:01:12Z</time>
      </trkpt>
      <trkpt lat="42.99971" lon="0.82728">
        <ele>736</ele>
        <time>2021-03-13T14:01:13Z</time>
      </trkpt>
      <trkpt lat="42.99971" lon="0.82728">
        <ele>736</ele>
        <time>2021-03-13T14:01:14Z</time>
      </trkpt>
      <trkpt lat="42.99971" lon="0.82728">
        <ele>736</ele>
        <time>2021-03-13T14:01:15Z</time>
      </trkpt>
      <trkpt lat="42.99971" lon="0.82728">
        <ele>736</ele>
        <time>2021-03-13T14:01:16Z</time>
      </trkpt>
      <trkpt lat="42.99971" lon="0.82728">
        <ele>736</ele>
        <time>2021-03-13T14:01:17Z</time>
      </trkpt>
      <trkpt lat="42.99971" lon="0.82728">
        <ele>736</ele>
        <time>2021-03-13T14:01:18Z</time>
      </trkpt>
      <trkpt lat="42.99971" lon="0.82728">
        <ele>736</ele>
        <time>2021-03-13T14:01:19Z</time>
      </trkpt>
      <trkpt lat="42.99971" lon="0.82728">
        <ele>736</ele>
        <time>2021-03-13T14:01:20Z</time>
      </trkpt>
      <trkpt lat="42.99971" lon="0.82728">
        <ele>736</ele>
        <time>2021-03-13T14:01:21Z</time>
      </trkpt>
      <trkpt lat="42.99971" lon="0.82728">
        <ele>736</ele>
        <time>2021-03-13T14:01:22Z</time>
      </trkpt>
      <trkpt lat="42.99971" lon="0.82729">
        <ele>736</ele>
        <time>2021-03-13T14:01:23Z</time>
      </trkpt>
      <trkpt lat="42.99969" lon="0.8273">
        <ele>736</ele>
        <time>2021-03-13T14:01:24Z</time>
      </trkpt>
      <trkpt lat="42.99966" lon="0.82732">
        <ele>736</ele>
        <time>2021-03-13T14:01:25Z</time>
      </trkpt>
      <trkpt lat="42.99964" lon="0.82734">
        <ele>736</ele>
        <time>2021-03-13T14:01:26Z</time>
      </trkpt>
      <trkpt lat="42.99962" lon="0.82736">
        <ele>736</ele>
        <time>2021-03-13T14:01:27Z</time>
      </trkpt>
      <trkpt lat="42.9996" lon="0.82739">
        <ele>736</ele>
        <time>2021-03-13T14:01:28Z</time>
      </trkpt>
      <trkpt lat="42.99957" lon="0.82742">
        <ele>736</ele>
        <time>2021-03-13T14:01:29Z</time>
      </trkpt>
      <trkpt lat="42.99955" lon="0.82745">
        <ele>735</ele>
        <time>2021-03-13T14:01:30Z</time>
      </trkpt>
      <trkpt lat="42.99953" lon="0.82748">
        <ele>735</ele>
        <time>2021-03-13T14:01:31Z</time>
      </trkpt>
      <trkpt lat="42.99951" lon="0.82751">
        <ele>735</ele>
        <time>2021-03-13T14:01:32Z</time>
      </trkpt>
      <trkpt lat="42.99949" lon="0.82754">
        <ele>735</ele>
        <time>2021-03-13T14:01:33Z</time>
      </trkpt>
      <trkpt lat="42.99947" lon="0.82756">
        <ele>735</ele>
        <time>2021-03-13T14:01:34Z</time>
      </trkpt>
      <trkpt lat="42.99945" lon="0.82759">
        <ele>735</ele>
        <time>2021-03-13T14:01:35Z</time>
      </trkpt>
      <trkpt lat="42.99943" lon="0.82763">
        <ele>735</ele>
        <time>2021-03-13T14:01:36Z</time>
      </trkpt>
      <trkpt lat="42.99941" lon="0.82767">
        <ele>735</ele>
        <time>2021-03-13T14:01:37Z</time>
      </trkpt>
      <trkpt lat="42.99939" lon="0.8277">
        <ele>735</ele>
        <time>2021-03-13T14:01:38Z</time>
      </trkpt>
      <trkpt lat="42.99938" lon="0.82774">
        <ele>735</ele>
        <time>2021-03-13T14:01:39Z</time>
      </trkpt>
      <trkpt lat="42.99936" lon="0.82777">
        <ele>736</ele>
        <time>2021-03-13T14:01:40Z</time>
      </trkpt>
      <trkpt lat="42.99934" lon="0.82781">
        <ele>736</ele>
        <time>2021-03-13T14:01:41Z</time>
      </trkpt>
      <trkpt lat="42.99933" lon="0.82784">
        <ele>736</ele>
        <time>2021-03-13T14:01:42Z</time>
      </trkpt>
      <trkpt lat="42.99932" lon="0.82788">
        <ele>736</ele>
        <time>2021-03-13T14:01:43Z</time>
      </trkpt>
      <trkpt lat="42.9993" lon="0.82791">
        <ele>736</ele>
        <time>2021-03-13T14:01:44Z</time>
      </trkpt>
      <trkpt lat="42.99929" lon="0.82795">
        <ele>736</ele>
        <time>2021-03-13T14:01:45Z</time>
      </trkpt>
      <trkpt lat="42.99928" lon="0.82798">
        <ele>736</ele>
        <time>2021-03-13T14:01:46Z</time>
      </trkpt>
      <trkpt lat="42.99924" lon="0.82804">
        <ele>736</ele>
        <time>2021-03-13T14:01:47Z</time>
      </trkpt>
      <trkpt lat="42.9992" lon="0.82811">
        <ele>736</ele>
        <time>2021-03-13T14:01:48Z</time>
      </trkpt>
      <trkpt lat="42.99916" lon="0.82817">
        <ele>736</ele>
        <time>2021-03-13T14:01:49Z</time>
      </trkpt>
      <trkpt lat="42.99908" lon="0.82826">
        <ele>735</ele>
        <time>2021-03-13T14:01:50Z</time>
      </trkpt>
      <trkpt lat="42.99905" lon="0.82829">
        <ele>735</ele>
        <time>2021-03-13T14:01:51Z</time>
      </trkpt>
      <trkpt lat="42.99897" lon="0.82838">
        <ele>735</ele>
        <time>2021-03-13T14:01:52Z</time>
      </trkpt>
      <trkpt lat="42.99895" lon="0.82841">
        <ele>735</ele>
        <time>2021-03-13T14:01:53Z</time>
      </trkpt>
      <trkpt lat="42.9989" lon="0.82846">
        <ele>735</ele>
        <time>2021-03-13T14:01:54Z</time>
      </trkpt>
      <trkpt lat="42.9989" lon="0.82846">
        <ele>735</ele>
        <time>2021-03-13T14:01:55Z</time>
      </trkpt>
      <trkpt lat="42.99887" lon="0.8285">
        <ele>735</ele>
        <time>2021-03-13T14:01:56Z</time>
      </trkpt>
      <trkpt lat="42.99884" lon="0.82854">
        <ele>735</ele>
        <time>2021-03-13T14:01:57Z</time>
      </trkpt>
      <trkpt lat="42.99881" lon="0.82858">
        <ele>735</ele>
        <time>2021-03-13T14:01:58Z</time>
      </trkpt>
      <trkpt lat="42.99879" lon="0.82861">
        <ele>735</ele>
        <time>2021-03-13T14:01:59Z</time>
      </trkpt>
      <trkpt lat="42.99877" lon="0.82864">
        <ele>736</ele>
        <time>2021-03-13T14:02:00Z</time>
      </trkpt>
      <trkpt lat="42.99875" lon="0.82867">
        <ele>736</ele>
        <time>2021-03-13T14:02:01Z</time>
      </trkpt>
      <trkpt lat="42.99872" lon="0.82871">
        <ele>736</ele>
        <time>2021-03-13T14:02:02Z</time>
      </trkpt>
      <trkpt lat="42.9987" lon="0.82874">
        <ele>736</ele>
        <time>2021-03-13T14:02:03Z</time>
      </trkpt>
      <trkpt lat="42.99867" lon="0.82878">
        <ele>736</ele>
        <time>2021-03-13T14:02:04Z</time>
      </trkpt>
      <trkpt lat="42.99865" lon="0.82882">
        <ele>736</ele>
        <time>2021-03-13T14:02:05Z</time>
      </trkpt>
      <trkpt lat="42.99863" lon="0.82885">
        <ele>736</ele>
        <time>2021-03-13T14:02:06Z</time>
      </trkpt>
      <trkpt lat="42.99861" lon="0.82889">
        <ele>736</ele>
        <time>2021-03-13T14:02:07Z</time>
      </trkpt>
      <trkpt lat="42.99859" lon="0.82892">
        <ele>736</ele>
        <time>2021-03-13T14:02:08Z</time>
      </trkpt>
      <trkpt lat="42.99857" lon="0.82896">
        <ele>736</ele>
        <time>2021-03-13T14:02:09Z</time>
      </trkpt>
      <trkpt lat="42.99855" lon="0.82899">
        <ele>738</ele>
        <time>2021-03-13T14:02:10Z</time>
      </trkpt>
      <trkpt lat="42.99853" lon="0.82903">
        <ele>738</ele>
        <time>2021-03-13T14:02:11Z</time>
      </trkpt>
      <trkpt lat="42.99851" lon="0.82906">
        <ele>738</ele>
        <time>2021-03-13T14:02:12Z</time>
      </trkpt>
      <trkpt lat="42.99849" lon="0.8291">
        <ele>738</ele>
        <time>2021-03-13T14:02:13Z</time>
      </trkpt>
      <trkpt lat="42.99847" lon="0.82914">
        <ele>738</ele>
        <time>2021-03-13T14:02:14Z</time>
      </trkpt>
      <trkpt lat="42.99845" lon="0.82918">
        <ele>738</ele>
        <time>2021-03-13T14:02:15Z</time>
      </trkpt>
      <trkpt lat="42.99843" lon="0.82922">
        <ele>738</ele>
        <time>2021-03-13T14:02:16Z</time>
      </trkpt>
      <trkpt lat="42.99842" lon="0.82925">
        <ele>738</ele>
        <time>2021-03-13T14:02:17Z</time>
      </trkpt>
      <trkpt lat="42.9984" lon="0.82928">
        <ele>738</ele>
        <time>2021-03-13T14:02:18Z</time>
      </trkpt>
      <trkpt lat="42.99839" lon="0.82931">
        <ele>738</ele>
        <time>2021-03-13T14:02:19Z</time>
      </trkpt>
      <trkpt lat="42.99838" lon="0.82934">
        <ele>740</ele>
        <time>2021-03-13T14:02:20Z</time>
      </trkpt>
      <trkpt lat="42.99837" lon="0.82938">
        <ele>740</ele>
        <time>2021-03-13T14:02:21Z</time>
      </trkpt>
      <trkpt lat="42.99836" lon="0.82943">
        <ele>740</ele>
        <time>2021-03-13T14:02:22Z</time>
      </trkpt>
      <trkpt lat="42.99835" lon="0.82947">
        <ele>740</ele>
        <time>2021-03-13T14:02:23Z</time>
      </trkpt>
      <trkpt lat="42.99834" lon="0.82951">
        <ele>740</ele>
        <time>2021-03-13T14:02:24Z</time>
      </trkpt>
      <trkpt lat="42.99834" lon="0.82955">
        <ele>740</ele>
        <time>2021-03-13T14:02:25Z</time>
      </trkpt>
      <trkpt lat="42.99834" lon="0.82959">
        <ele>740</ele>
        <time>2021-03-13T14:02:26Z</time>
      </trkpt>
      <trkpt lat="42.99833" lon="0.82963">
        <ele>740</ele>
        <time>2021-03-13T14:02:27Z</time>
      </trkpt>
      <trkpt lat="42.99832" lon="0.82965">
        <ele>740</ele>
        <time>2021-03-13T14:02:28Z</time>
      </trkpt>
      <trkpt lat="42.99831" lon="0.82968">
        <ele>740</ele>
        <time>2021-03-13T14:02:29Z</time>
      </trkpt>
      <trkpt lat="42.9983" lon="0.8297">
        <ele>742</ele>
        <time>2021-03-13T14:02:30Z</time>
      </trkpt>
      <trkpt lat="42.99829" lon="0.82973">
        <ele>742</ele>
        <time>2021-03-13T14:02:31Z</time>
      </trkpt>
      <trkpt lat="42.99828" lon="0.82975">
        <ele>742</ele>
        <time>2021-03-13T14:02:32Z</time>
      </trkpt>
      <trkpt lat="42.99827" lon="0.82977">
        <ele>742</ele>
        <time>2021-03-13T14:02:33Z</time>
      </trkpt>
      <trkpt lat="42.99826" lon="0.82981">
        <ele>742</ele>
        <time>2021-03-13T14:02:34Z</time>
      </trkpt>
      <trkpt lat="42.99824" lon="0.82985">
        <ele>742</ele>
        <time>2021-03-13T14:02:35Z</time>
      </trkpt>
      <trkpt lat="42.99823" lon="0.82989">
        <ele>742</ele>
        <time>2021-03-13T14:02:36Z</time>
      </trkpt>
      <trkpt lat="42.99821" lon="0.82993">
        <ele>742</ele>
        <time>2021-03-13T14:02:37Z</time>
      </trkpt>
      <trkpt lat="42.99819" lon="0.82993">
        <ele>742</ele>
        <time>2021-03-13T14:02:38Z</time>
      </trkpt>
      <trkpt lat="42.99818" lon="0.82993">
        <ele>742</ele>
        <time>2021-03-13T14:02:39Z</time>
      </trkpt>
      <trkpt lat="42.99816" lon="0.82993">
        <ele>743</ele>
        <time>2021-03-13T14:02:40Z</time>
      </trkpt>
      <trkpt lat="42.99815" lon="0.82993">
        <ele>743</ele>
        <time>2021-03-13T14:02:41Z</time>
      </trkpt>
      <trkpt lat="42.99814" lon="0.82993">
        <ele>743</ele>
        <time>2021-03-13T14:02:42Z</time>
      </trkpt>
      <trkpt lat="42.99812" lon="0.82993">
        <ele>743</ele>
        <time>2021-03-13T14:02:43Z</time>
      </trkpt>
      <trkpt lat="42.99811" lon="0.82993">
        <ele>743</ele>
        <time>2021-03-13T14:02:44Z</time>
      </trkpt>
      <trkpt lat="42.9981" lon="0.82991">
        <ele>743</ele>
        <time>2021-03-13T14:02:45Z</time>
      </trkpt>
      <trkpt lat="42.99809" lon="0.82989">
        <ele>743</ele>
        <time>2021-03-13T14:02:46Z</time>
      </trkpt>
      <trkpt lat="42.99808" lon="0.82986">
        <ele>743</ele>
        <time>2021-03-13T14:02:47Z</time>
      </trkpt>
      <trkpt lat="42.99807" lon="0.82984">
        <ele>743</ele>
        <time>2021-03-13T14:02:48Z</time>
      </trkpt>
      <trkpt lat="42.99806" lon="0.82982">
        <ele>743</ele>
        <time>2021-03-13T14:02:49Z</time>
      </trkpt>
      <trkpt lat="42.99805" lon="0.8298">
        <ele>745</ele>
        <time>2021-03-13T14:02:50Z</time>
      </trkpt>
      <trkpt lat="42.99803" lon="0.82979">
        <ele>745</ele>
        <time>2021-03-13T14:02:51Z</time>
      </trkpt>
      <trkpt lat="42.99802" lon="0.82977">
        <ele>745</ele>
        <time>2021-03-13T14:02:52Z</time>
      </trkpt>
      <trkpt lat="42.998" lon="0.82976">
        <ele>745</ele>
        <time>2021-03-13T14:02:53Z</time>
      </trkpt>
      <trkpt lat="42.99799" lon="0.82974">
        <ele>745</ele>
        <time>2021-03-13T14:02:54Z</time>
      </trkpt>
      <trkpt lat="42.99797" lon="0.82973">
        <ele>745</ele>
        <time>2021-03-13T14:02:55Z</time>
      </trkpt>
      <trkpt lat="42.99796" lon="0.82971">
        <ele>745</ele>
        <time>2021-03-13T14:02:56Z</time>
      </trkpt>
      <trkpt lat="42.99794" lon="0.8297">
        <ele>745</ele>
        <time>2021-03-13T14:02:57Z</time>
      </trkpt>
      <trkpt lat="42.99793" lon="0.82968">
        <ele>745</ele>
        <time>2021-03-13T14:02:58Z</time>
      </trkpt>
      <trkpt lat="42.99792" lon="0.82967">
        <ele>745</ele>
        <time>2021-03-13T14:02:59Z</time>
      </trkpt>
      <trkpt lat="42.9979" lon="0.82965">
        <ele>748</ele>
        <time>2021-03-13T14:03:00Z</time>
      </trkpt>
      <trkpt lat="42.99789" lon="0.82963">
        <ele>748</ele>
        <time>2021-03-13T14:03:01Z</time>
      </trkpt>
      <trkpt lat="42.99788" lon="0.82962">
        <ele>748</ele>
        <time>2021-03-13T14:03:02Z</time>
      </trkpt>
      <trkpt lat="42.99786" lon="0.8296">
        <ele>748</ele>
        <time>2021-03-13T14:03:03Z</time>
      </trkpt>
      <trkpt lat="42.99785" lon="0.82958">
        <ele>748</ele>
        <time>2021-03-13T14:03:04Z</time>
      </trkpt>
      <trkpt lat="42.99784" lon="0.82956">
        <ele>750</ele>
        <time>2021-03-13T14:03:05Z</time>
      </trkpt>
      <trkpt lat="42.99783" lon="0.82955">
        <ele>750</ele>
        <time>2021-03-13T14:03:06Z</time>
      </trkpt>
      <trkpt lat="42.99782" lon="0.82953">
        <ele>750</ele>
        <time>2021-03-13T14:03:07Z</time>
      </trkpt>
      <trkpt lat="42.99781" lon="0.82951">
        <ele>750</ele>
        <time>2021-03-13T14:03:08Z</time>
      </trkpt>
      <trkpt lat="42.9978" lon="0.82949">
        <ele>750</ele>
        <time>2021-03-13T14:03:09Z</time>
      </trkpt>
      <trkpt lat="42.99778" lon="0.82947">
        <ele>751</ele>
        <time>2021-03-13T14:03:10Z</time>
      </trkpt>
      <trkpt lat="42.99776" lon="0.82945">
        <ele>751</ele>
        <time>2021-03-13T14:03:11Z</time>
      </trkpt>
      <trkpt lat="42.99775" lon="0.82943">
        <ele>751</ele>
        <time>2021-03-13T14:03:12Z</time>
      </trkpt>
      <trkpt lat="42.99773" lon="0.82941">
        <ele>751</ele>
        <time>2021-03-13T14:03:13Z</time>
      </trkpt>
      <trkpt lat="42.99771" lon="0.82938">
        <ele>751</ele>
        <time>2021-03-13T14:03:14Z</time>
      </trkpt>
      <trkpt lat="42.9977" lon="0.82937">
        <ele>751</ele>
        <time>2021-03-13T14:03:15Z</time>
      </trkpt>
      <trkpt lat="42.99769" lon="0.82935">
        <ele>751</ele>
        <time>2021-03-13T14:03:16Z</time>
      </trkpt>
      <trkpt lat="42.99767" lon="0.82933">
        <ele>751</ele>
        <time>2021-03-13T14:03:17Z</time>
      </trkpt>
      <trkpt lat="42.99766" lon="0.82931">
        <ele>751</ele>
        <time>2021-03-13T14:03:18Z</time>
      </trkpt>
      <trkpt lat="42.99765" lon="0.82929">
        <ele>751</ele>
        <time>2021-03-13T14:03:19Z</time>
      </trkpt>
      <trkpt lat="42.99763" lon="0.82927">
        <ele>752</ele>
        <time>2021-03-13T14:03:20Z</time>
      </trkpt>
      <trkpt lat="42.99762" lon="0.82926">
        <ele>752</ele>
        <time>2021-03-13T14:03:21Z</time>
      </trkpt>
      <trkpt lat="42.99761" lon="0.82924">
        <ele>752</ele>
        <time>2021-03-13T14:03:22Z</time>
      </trkpt>
      <trkpt lat="42.9976" lon="0.82922">
        <ele>752</ele>
        <time>2021-03-13T14:03:23Z</time>
      </trkpt>
      <trkpt lat="42.99759" lon="0.8292">
        <ele>752</ele>
        <time>2021-03-13T14:03:24Z</time>
      </trkpt>
      <trkpt lat="42.99758" lon="0.82918">
        <ele>752</ele>
        <time>2021-03-13T14:03:25Z</time>
      </trkpt>
      <trkpt lat="42.99757" lon="0.82917">
        <ele>752</ele>
        <time>2021-03-13T14:03:26Z</time>
      </trkpt>
      <trkpt lat="42.99755" lon="0.82915">
        <ele>752</ele>
        <time>2021-03-13T14:03:27Z</time>
      </trkpt>
      <trkpt lat="42.99754" lon="0.82914">
        <ele>752</ele>
        <time>2021-03-13T14:03:28Z</time>
      </trkpt>
      <trkpt lat="42.99753" lon="0.82912">
        <ele>752</ele>
        <time>2021-03-13T14:03:29Z</time>
      </trkpt>
      <trkpt lat="42.99752" lon="0.82911">
        <ele>755</ele>
        <time>2021-03-13T14:03:30Z</time>
      </trkpt>
      <trkpt lat="42.99751" lon="0.82909">
        <ele>755</ele>
        <time>2021-03-13T14:03:31Z</time>
      </trkpt>
      <trkpt lat="42.9975" lon="0.82908">
        <ele>755</ele>
        <time>2021-03-13T14:03:32Z</time>
      </trkpt>
      <trkpt lat="42.99748" lon="0.82906">
        <ele>755</ele>
        <time>2021-03-13T14:03:33Z</time>
      </trkpt>
      <trkpt lat="42.99748" lon="0.82906">
        <ele>755</ele>
        <time>2021-03-13T14:03:34Z</time>
      </trkpt>
      <trkpt lat="42.99747" lon="0.82906">
        <ele>758</ele>
        <time>2021-03-13T14:03:35Z</time>
      </trkpt>
      <trkpt lat="42.99746" lon="0.82906">
        <ele>758</ele>
        <time>2021-03-13T14:03:36Z</time>
      </trkpt>
      <trkpt lat="42.99745" lon="0.82906">
        <ele>758</ele>
        <time>2021-03-13T14:03:37Z</time>
      </trkpt>
      <trkpt lat="42.99744" lon="0.82907">
        <ele>758</ele>
        <time>2021-03-13T14:03:38Z</time>
      </trkpt>
      <trkpt lat="42.99743" lon="0.82907">
        <ele>758</ele>
        <time>2021-03-13T14:03:39Z</time>
      </trkpt>
      <trkpt lat="42.99742" lon="0.82907">
        <ele>759</ele>
        <time>2021-03-13T14:03:40Z</time>
      </trkpt>
      <trkpt lat="42.99741" lon="0.82907">
        <ele>759</ele>
        <time>2021-03-13T14:03:41Z</time>
      </trkpt>
      <trkpt lat="42.9974" lon="0.82907">
        <ele>759</ele>
        <time>2021-03-13T14:03:42Z</time>
      </trkpt>
      <trkpt lat="42.99739" lon="0.82907">
        <ele>759</ele>
        <time>2021-03-13T14:03:43Z</time>
      </trkpt>
      <trkpt lat="42.99738" lon="0.82907">
        <ele>759</ele>
        <time>2021-03-13T14:03:44Z</time>
      </trkpt>
      <trkpt lat="42.99736" lon="0.82908">
        <ele>759</ele>
        <time>2021-03-13T14:03:45Z</time>
      </trkpt>
      <trkpt lat="42.99734" lon="0.82909">
        <ele>759</ele>
        <time>2021-03-13T14:03:46Z</time>
      </trkpt>
      <trkpt lat="42.99733" lon="0.8291">
        <ele>759</ele>
        <time>2021-03-13T14:03:47Z</time>
      </trkpt>
      <trkpt lat="42.99731" lon="0.82911">
        <ele>759</ele>
        <time>2021-03-13T14:03:48Z</time>
      </trkpt>
      <trkpt lat="42.99729" lon="0.82912">
        <ele>759</ele>
        <time>2021-03-13T14:03:49Z</time>
      </trkpt>
      <trkpt lat="42.99727" lon="0.82913">
        <ele>758</ele>
        <time>2021-03-13T14:03:50Z</time>
      </trkpt>
      <trkpt lat="42.99724" lon="0.82915">
        <ele>758</ele>
        <time>2021-03-13T14:03:51Z</time>
      </trkpt>
      <trkpt lat="42.99721" lon="0.82917">
        <ele>758</ele>
        <time>2021-03-13T14:03:52Z</time>
      </trkpt>
      <trkpt lat="42.99717" lon="0.82919">
        <ele>758</ele>
        <time>2021-03-13T14:03:53Z</time>
      </trkpt>
      <trkpt lat="42.99714" lon="0.82921">
        <ele>758</ele>
        <time>2021-03-13T14:03:54Z</time>
      </trkpt>
      <trkpt lat="42.9971" lon="0.82923">
        <ele>758</ele>
        <time>2021-03-13T14:03:55Z</time>
      </trkpt>
      <trkpt lat="42.99706" lon="0.82925">
        <ele>758</ele>
        <time>2021-03-13T14:03:56Z</time>
      </trkpt>
      <trkpt lat="42.99699" lon="0.82929">
        <ele>758</ele>
        <time>2021-03-13T14:03:57Z</time>
      </trkpt>
      <trkpt lat="42.99691" lon="0.82932">
        <ele>758</ele>
        <time>2021-03-13T14:03:58Z</time>
      </trkpt>
      <trkpt lat="42.99683" lon="0.82936">
        <ele>758</ele>
        <time>2021-03-13T14:03:59Z</time>
      </trkpt>
      <trkpt lat="42.99672" lon="0.82944">
        <ele>752</ele>
        <time>2021-03-13T14:04:00Z</time>
      </trkpt>
      <trkpt lat="42.99667" lon="0.82947">
        <ele>752</ele>
        <time>2021-03-13T14:04:01Z</time>
      </trkpt>
      <trkpt lat="42.99652" lon="0.82962">
        <ele>751</ele>
        <time>2021-03-13T14:04:02Z</time>
      </trkpt>
      <trkpt lat="42.99645" lon="0.8297">
        <ele>750</ele>
        <time>2021-03-13T14:04:03Z</time>
      </trkpt>
      <trkpt lat="42.9963" lon="0.82984">
        <ele>751</ele>
        <time>2021-03-13T14:04:04Z</time>
      </trkpt>
      <trkpt lat="42.99618" lon="0.82998">
        <ele>751</ele>
        <time>2021-03-13T14:04:05Z</time>
      </trkpt>
      <trkpt lat="42.99609" lon="0.83009">
        <ele>751</ele>
        <time>2021-03-13T14:04:06Z</time>
      </trkpt>
      <trkpt lat="42.99609" lon="0.83009">
        <ele>751</ele>
        <time>2021-03-13T14:04:07Z</time>
      </trkpt>
      <trkpt lat="42.99606" lon="0.83013">
        <ele>751</ele>
        <time>2021-03-13T14:04:08Z</time>
      </trkpt>
      <trkpt lat="42.99603" lon="0.83017">
        <ele>751</ele>
        <time>2021-03-13T14:04:09Z</time>
      </trkpt>
      <trkpt lat="42.996" lon="0.83021">
        <ele>751</ele>
        <time>2021-03-13T14:04:10Z</time>
      </trkpt>
      <trkpt lat="42.99598" lon="0.83022">
        <ele>751</ele>
        <time>2021-03-13T14:04:11Z</time>
      </trkpt>
      <trkpt lat="42.99596" lon="0.83024">
        <ele>751</ele>
        <time>2021-03-13T14:04:12Z</time>
      </trkpt>
      <trkpt lat="42.99595" lon="0.83025">
        <ele>751</ele>
        <time>2021-03-13T14:04:13Z</time>
      </trkpt>
      <trkpt lat="42.99593" lon="0.83027">
        <ele>751</ele>
        <time>2021-03-13T14:04:14Z</time>
      </trkpt>
      <trkpt lat="42.99591" lon="0.83028">
        <ele>751</ele>
        <time>2021-03-13T14:04:15Z</time>
      </trkpt>
      <trkpt lat="42.9959" lon="0.83029">
        <ele>751</ele>
        <time>2021-03-13T14:04:16Z</time>
      </trkpt>
      <trkpt lat="42.99588" lon="0.8303">
        <ele>751</ele>
        <time>2021-03-13T14:04:17Z</time>
      </trkpt>
      <trkpt lat="42.99587" lon="0.83031">
        <ele>751</ele>
        <time>2021-03-13T14:04:18Z</time>
      </trkpt>
      <trkpt lat="42.99585" lon="0.83032">
        <ele>751</ele>
        <time>2021-03-13T14:04:19Z</time>
      </trkpt>
      <trkpt lat="42.99584" lon="0.83033">
        <ele>753</ele>
        <time>2021-03-13T14:04:20Z</time>
      </trkpt>
      <trkpt lat="42.99582" lon="0.83033">
        <ele>753</ele>
        <time>2021-03-13T14:04:21Z</time>
      </trkpt>
      <trkpt lat="42.99581" lon="0.83034">
        <ele>753</ele>
        <time>2021-03-13T14:04:22Z</time>
      </trkpt>
      <trkpt lat="42.99579" lon="0.83034">
        <ele>753</ele>
        <time>2021-03-13T14:04:23Z</time>
      </trkpt>
      <trkpt lat="42.99577" lon="0.83034">
        <ele>753</ele>
        <time>2021-03-13T14:04:24Z</time>
      </trkpt>
      <trkpt lat="42.99575" lon="0.83035">
        <ele>753</ele>
        <time>2021-03-13T14:04:25Z</time>
      </trkpt>
      <trkpt lat="42.99573" lon="0.83035">
        <ele>753</ele>
        <time>2021-03-13T14:04:26Z</time>
      </trkpt>
      <trkpt lat="42.9957" lon="0.83035">
        <ele>753</ele>
        <time>2021-03-13T14:04:27Z</time>
      </trkpt>
      <trkpt lat="42.99568" lon="0.83035">
        <ele>753</ele>
        <time>2021-03-13T14:04:28Z</time>
      </trkpt>
      <trkpt lat="42.99565" lon="0.83036">
        <ele>753</ele>
        <time>2021-03-13T14:04:29Z</time>
      </trkpt>
      <trkpt lat="42.99563" lon="0.83036">
        <ele>754</ele>
        <time>2021-03-13T14:04:30Z</time>
      </trkpt>
      <trkpt lat="42.9956" lon="0.83036">
        <ele>754</ele>
        <time>2021-03-13T14:04:31Z</time>
      </trkpt>
      <trkpt lat="42.99557" lon="0.83037">
        <ele>754</ele>
        <time>2021-03-13T14:04:32Z</time>
      </trkpt>
      <trkpt lat="42.99554" lon="0.83038">
        <ele>754</ele>
        <time>2021-03-13T14:04:33Z</time>
      </trkpt>
      <trkpt lat="42.99551" lon="0.83038">
        <ele>754</ele>
        <time>2021-03-13T14:04:34Z</time>
      </trkpt>
      <trkpt lat="42.99548" lon="0.83039">
        <ele>754</ele>
        <time>2021-03-13T14:04:35Z</time>
      </trkpt>
      <trkpt lat="42.99545" lon="0.8304">
        <ele>754</ele>
        <time>2021-03-13T14:04:36Z</time>
      </trkpt>
      <trkpt lat="42.99541" lon="0.8304">
        <ele>754</ele>
        <time>2021-03-13T14:04:37Z</time>
      </trkpt>
      <trkpt lat="42.99537" lon="0.83041">
        <ele>754</ele>
        <time>2021-03-13T14:04:38Z</time>
      </trkpt>
      <trkpt lat="42.99534" lon="0.83041">
        <ele>754</ele>
        <time>2021-03-13T14:04:39Z</time>
      </trkpt>
      <trkpt lat="42.99532" lon="0.83037">
        <ele>751</ele>
        <time>2021-03-13T14:04:40Z</time>
      </trkpt>
      <trkpt lat="42.9953" lon="0.83034">
        <ele>751</ele>
        <time>2021-03-13T14:04:41Z</time>
      </trkpt>
      <trkpt lat="42.99528" lon="0.8303">
        <ele>751</ele>
        <time>2021-03-13T14:04:42Z</time>
      </trkpt>
      <trkpt lat="42.99527" lon="0.83026">
        <ele>751</ele>
        <time>2021-03-13T14:04:43Z</time>
      </trkpt>
      <trkpt lat="42.99528" lon="0.83022">
        <ele>751</ele>
        <time>2021-03-13T14:04:44Z</time>
      </trkpt>
      <trkpt lat="42.99529" lon="0.83018">
        <ele>748</ele>
        <time>2021-03-13T14:04:45Z</time>
      </trkpt>
      <trkpt lat="42.9953" lon="0.83014">
        <ele>748</ele>
        <time>2021-03-13T14:04:46Z</time>
      </trkpt>
      <trkpt lat="42.99531" lon="0.8301">
        <ele>748</ele>
        <time>2021-03-13T14:04:47Z</time>
      </trkpt>
      <trkpt lat="42.99532" lon="0.83005">
        <ele>748</ele>
        <time>2021-03-13T14:04:48Z</time>
      </trkpt>
      <trkpt lat="42.99534" lon="0.83001">
        <ele>748</ele>
        <time>2021-03-13T14:04:49Z</time>
      </trkpt>
      <trkpt lat="42.99535" lon="0.82997">
        <ele>747</ele>
        <time>2021-03-13T14:04:50Z</time>
      </trkpt>
      <trkpt lat="42.99537" lon="0.82992">
        <ele>747</ele>
        <time>2021-03-13T14:04:51Z</time>
      </trkpt>
      <trkpt lat="42.99538" lon="0.82988">
        <ele>747</ele>
        <time>2021-03-13T14:04:52Z</time>
      </trkpt>
      <trkpt lat="42.99539" lon="0.82984">
        <ele>747</ele>
        <time>2021-03-13T14:04:53Z</time>
      </trkpt>
      <trkpt lat="42.99539" lon="0.8298">
        <ele>747</ele>
        <time>2021-03-13T14:04:54Z</time>
      </trkpt>
      <trkpt lat="42.99539" lon="0.82976">
        <ele>746</ele>
        <time>2021-03-13T14:04:55Z</time>
      </trkpt>
      <trkpt lat="42.99539" lon="0.82972">
        <ele>746</ele>
        <time>2021-03-13T14:04:56Z</time>
      </trkpt>
      <trkpt lat="42.99539" lon="0.82968">
        <ele>746</ele>
        <time>2021-03-13T14:04:57Z</time>
      </trkpt>
      <trkpt lat="42.99541" lon="0.82965">
        <ele>746</ele>
        <time>2021-03-13T14:04:58Z</time>
      </trkpt>
      <trkpt lat="42.99543" lon="0.82962">
        <ele>746</ele>
        <time>2021-03-13T14:04:59Z</time>
      </trkpt>
      <trkpt lat="42.99544" lon="0.8296">
        <ele>748</ele>
        <time>2021-03-13T14:05:00Z</time>
      </trkpt>
      <trkpt lat="42.99546" lon="0.82957">
        <ele>748</ele>
        <time>2021-03-13T14:05:01Z</time>
      </trkpt>
      <trkpt lat="42.99548" lon="0.82957">
        <ele>748</ele>
        <time>2021-03-13T14:05:02Z</time>
      </trkpt>
      <trkpt lat="42.99551" lon="0.82957">
        <ele>748</ele>
        <time>2021-03-13T14:05:03Z</time>
      </trkpt>
      <trkpt lat="42.99554" lon="0.82957">
        <ele>748</ele>
        <time>2021-03-13T14:05:04Z</time>
      </trkpt>
      <trkpt lat="42.99557" lon="0.82957">
        <ele>748</ele>
        <time>2021-03-13T14:05:05Z</time>
      </trkpt>
      <trkpt lat="42.99559" lon="0.82955">
        <ele>748</ele>
        <time>2021-03-13T14:05:06Z</time>
      </trkpt>
      <trkpt lat="42.99561" lon="0.82953">
        <ele>748</ele>
        <time>2021-03-13T14:05:07Z</time>
      </trkpt>
      <trkpt lat="42.99563" lon="0.82951">
        <ele>748</ele>
        <time>2021-03-13T14:05:08Z</time>
      </trkpt>
      <trkpt lat="42.99565" lon="0.82949">
        <ele>748</ele>
        <time>2021-03-13T14:05:09Z</time>
      </trkpt>
      <trkpt lat="42.99567" lon="0.82947">
        <ele>749</ele>
        <time>2021-03-13T14:05:10Z</time>
      </trkpt>
      <trkpt lat="42.9957" lon="0.82943">
        <ele>749</ele>
        <time>2021-03-13T14:05:11Z</time>
      </trkpt>
      <trkpt lat="42.99573" lon="0.8294">
        <ele>749</ele>
        <time>2021-03-13T14:05:12Z</time>
      </trkpt>
      <trkpt lat="42.99576" lon="0.82937">
        <ele>749</ele>
        <time>2021-03-13T14:05:13Z</time>
      </trkpt>
      <trkpt lat="42.99578" lon="0.82933">
        <ele>749</ele>
        <time>2021-03-13T14:05:14Z</time>
      </trkpt>
      <trkpt lat="42.9958" lon="0.82929">
        <ele>749</ele>
        <time>2021-03-13T14:05:15Z</time>
      </trkpt>
      <trkpt lat="42.99583" lon="0.82926">
        <ele>749</ele>
        <time>2021-03-13T14:05:16Z</time>
      </trkpt>
      <trkpt lat="42.99584" lon="0.82921">
        <ele>749</ele>
        <time>2021-03-13T14:05:17Z</time>
      </trkpt>
      <trkpt lat="42.99586" lon="0.82917">
        <ele>749</ele>
        <time>2021-03-13T14:05:18Z</time>
      </trkpt>
      <trkpt lat="42.99588" lon="0.82913">
        <ele>749</ele>
        <time>2021-03-13T14:05:19Z</time>
      </trkpt>
      <trkpt lat="42.99589" lon="0.82909">
        <ele>749</ele>
        <time>2021-03-13T14:05:20Z</time>
      </trkpt>
      <trkpt lat="42.9959" lon="0.82904">
        <ele>749</ele>
        <time>2021-03-13T14:05:21Z</time>
      </trkpt>
      <trkpt lat="42.99591" lon="0.829">
        <ele>749</ele>
        <time>2021-03-13T14:05:22Z</time>
      </trkpt>
      <trkpt lat="42.99593" lon="0.82896">
        <ele>749</ele>
        <time>2021-03-13T14:05:23Z</time>
      </trkpt>
      <trkpt lat="42.99593" lon="0.82891">
        <ele>749</ele>
        <time>2021-03-13T14:05:24Z</time>
      </trkpt>
      <trkpt lat="42.99594" lon="0.82887">
        <ele>749</ele>
        <time>2021-03-13T14:05:25Z</time>
      </trkpt>
      <trkpt lat="42.99594" lon="0.82882">
        <ele>749</ele>
        <time>2021-03-13T14:05:26Z</time>
      </trkpt>
      <trkpt lat="42.99595" lon="0.82878">
        <ele>749</ele>
        <time>2021-03-13T14:05:27Z</time>
      </trkpt>
      <trkpt lat="42.99596" lon="0.82874">
        <ele>749</ele>
        <time>2021-03-13T14:05:28Z</time>
      </trkpt>
      <trkpt lat="42.99597" lon="0.82869">
        <ele>749</ele>
        <time>2021-03-13T14:05:29Z</time>
      </trkpt>
      <trkpt lat="42.99599" lon="0.82861">
        <ele>749</ele>
        <time>2021-03-13T14:05:30Z</time>
      </trkpt>
      <trkpt lat="42.996" lon="0.82853">
        <ele>749</ele>
        <time>2021-03-13T14:05:31Z</time>
      </trkpt>
      <trkpt lat="42.99601" lon="0.82845">
        <ele>749</ele>
        <time>2021-03-13T14:05:32Z</time>
      </trkpt>
      <trkpt lat="42.99601" lon="0.82838">
        <ele>749</ele>
        <time>2021-03-13T14:05:33Z</time>
      </trkpt>
      <trkpt lat="42.99601" lon="0.82838">
        <ele>749</ele>
        <time>2021-03-13T14:05:34Z</time>
      </trkpt>
      <trkpt lat="42.996" lon="0.82829">
        <ele>749</ele>
        <time>2021-03-13T14:05:35Z</time>
      </trkpt>
      <trkpt lat="42.996" lon="0.82819">
        <ele>749</ele>
        <time>2021-03-13T14:05:36Z</time>
      </trkpt>
      <trkpt lat="42.99599" lon="0.8281">
        <ele>749</ele>
        <time>2021-03-13T14:05:37Z</time>
      </trkpt>
      <trkpt lat="42.99597" lon="0.82798">
        <ele>749</ele>
        <time>2021-03-13T14:05:38Z</time>
      </trkpt>
      <trkpt lat="42.99597" lon="0.82794">
        <ele>749</ele>
        <time>2021-03-13T14:05:39Z</time>
      </trkpt>
      <trkpt lat="42.99596" lon="0.82787">
        <ele>747</ele>
        <time>2021-03-13T14:05:40Z</time>
      </trkpt>
      <trkpt lat="42.99596" lon="0.82787">
        <ele>747</ele>
        <time>2021-03-13T14:05:41Z</time>
      </trkpt>
      <trkpt lat="42.99596" lon="0.82781">
        <ele>747</ele>
        <time>2021-03-13T14:05:42Z</time>
      </trkpt>
      <trkpt lat="42.99596" lon="0.82775">
        <ele>747</ele>
        <time>2021-03-13T14:05:43Z</time>
      </trkpt>
      <trkpt lat="42.99595" lon="0.82768">
        <ele>747</ele>
        <time>2021-03-13T14:05:44Z</time>
      </trkpt>
      <trkpt lat="42.99595" lon="0.82764">
        <ele>747</ele>
        <time>2021-03-13T14:05:45Z</time>
      </trkpt>
      <trkpt lat="42.99595" lon="0.82759">
        <ele>747</ele>
        <time>2021-03-13T14:05:46Z</time>
      </trkpt>
      <trkpt lat="42.99595" lon="0.82754">
        <ele>747</ele>
        <time>2021-03-13T14:05:47Z</time>
      </trkpt>
      <trkpt lat="42.99596" lon="0.8275">
        <ele>747</ele>
        <time>2021-03-13T14:05:48Z</time>
      </trkpt>
      <trkpt lat="42.99596" lon="0.82746">
        <ele>747</ele>
        <time>2021-03-13T14:05:49Z</time>
      </trkpt>
      <trkpt lat="42.99597" lon="0.82742">
        <ele>745</ele>
        <time>2021-03-13T14:05:50Z</time>
      </trkpt>
      <trkpt lat="42.99597" lon="0.82737">
        <ele>745</ele>
        <time>2021-03-13T14:05:51Z</time>
      </trkpt>
      <trkpt lat="42.99599" lon="0.82734">
        <ele>745</ele>
        <time>2021-03-13T14:05:52Z</time>
      </trkpt>
      <trkpt lat="42.99601" lon="0.8273">
        <ele>745</ele>
        <time>2021-03-13T14:05:53Z</time>
      </trkpt>
      <trkpt lat="42.99603" lon="0.82727">
        <ele>745</ele>
        <time>2021-03-13T14:05:54Z</time>
      </trkpt>
      <trkpt lat="42.99605" lon="0.82723">
        <ele>745</ele>
        <time>2021-03-13T14:05:55Z</time>
      </trkpt>
      <trkpt lat="42.99607" lon="0.82721">
        <ele>745</ele>
        <time>2021-03-13T14:05:56Z</time>
      </trkpt>
      <trkpt lat="42.99608" lon="0.82718">
        <ele>745</ele>
        <time>2021-03-13T14:05:57Z</time>
      </trkpt>
      <trkpt lat="42.9961" lon="0.82715">
        <ele>745</ele>
        <time>2021-03-13T14:05:58Z</time>
      </trkpt>
      <trkpt lat="42.99612" lon="0.82713">
        <ele>745</ele>
        <time>2021-03-13T14:05:59Z</time>
      </trkpt>
      <trkpt lat="42.99613" lon="0.82711">
        <ele>746</ele>
        <time>2021-03-13T14:06:00Z</time>
      </trkpt>
      <trkpt lat="42.99614" lon="0.82708">
        <ele>746</ele>
        <time>2021-03-13T14:06:01Z</time>
      </trkpt>
      <trkpt lat="42.99615" lon="0.82706">
        <ele>746</ele>
        <time>2021-03-13T14:06:02Z</time>
      </trkpt>
      <trkpt lat="42.99616" lon="0.82704">
        <ele>746</ele>
        <time>2021-03-13T14:06:03Z</time>
      </trkpt>
      <trkpt lat="42.99617" lon="0.82702">
        <ele>746</ele>
        <time>2021-03-13T14:06:04Z</time>
      </trkpt>
      <trkpt lat="42.99618" lon="0.827">
        <ele>746</ele>
        <time>2021-03-13T14:06:05Z</time>
      </trkpt>
      <trkpt lat="42.99616" lon="0.82697">
        <ele>746</ele>
        <time>2021-03-13T14:06:06Z</time>
      </trkpt>
      <trkpt lat="42.99615" lon="0.82695">
        <ele>746</ele>
        <time>2021-03-13T14:06:07Z</time>
      </trkpt>
      <trkpt lat="42.99614" lon="0.82693">
        <ele>746</ele>
        <time>2021-03-13T14:06:08Z</time>
      </trkpt>
      <trkpt lat="42.99613" lon="0.82691">
        <ele>746</ele>
        <time>2021-03-13T14:06:09Z</time>
      </trkpt>
      <trkpt lat="42.99612" lon="0.82689">
        <ele>749</ele>
        <time>2021-03-13T14:06:10Z</time>
      </trkpt>
      <trkpt lat="42.99609" lon="0.82688">
        <ele>749</ele>
        <time>2021-03-13T14:06:11Z</time>
      </trkpt>
      <trkpt lat="42.99607" lon="0.82688">
        <ele>749</ele>
        <time>2021-03-13T14:06:12Z</time>
      </trkpt>
      <trkpt lat="42.99604" lon="0.82687">
        <ele>749</ele>
        <time>2021-03-13T14:06:13Z</time>
      </trkpt>
      <trkpt lat="42.99601" lon="0.82687">
        <ele>749</ele>
        <time>2021-03-13T14:06:14Z</time>
      </trkpt>
      <trkpt lat="42.99599" lon="0.82686">
        <ele>751</ele>
        <time>2021-03-13T14:06:15Z</time>
      </trkpt>
      <trkpt lat="42.99597" lon="0.82685">
        <ele>751</ele>
        <time>2021-03-13T14:06:16Z</time>
      </trkpt>
      <trkpt lat="42.99595" lon="0.82685">
        <ele>751</ele>
        <time>2021-03-13T14:06:17Z</time>
      </trkpt>
      <trkpt lat="42.99593" lon="0.82685">
        <ele>751</ele>
        <time>2021-03-13T14:06:18Z</time>
      </trkpt>
      <trkpt lat="42.99591" lon="0.82684">
        <ele>751</ele>
        <time>2021-03-13T14:06:19Z</time>
      </trkpt>
      <trkpt lat="42.9959" lon="0.82684">
        <ele>752</ele>
        <time>2021-03-13T14:06:20Z</time>
      </trkpt>
      <trkpt lat="42.99588" lon="0.82683">
        <ele>752</ele>
        <time>2021-03-13T14:06:21Z</time>
      </trkpt>
      <trkpt lat="42.99587" lon="0.82683">
        <ele>752</ele>
        <time>2021-03-13T14:06:22Z</time>
      </trkpt>
      <trkpt lat="42.99586" lon="0.82682">
        <ele>752</ele>
        <time>2021-03-13T14:06:23Z</time>
      </trkpt>
      <trkpt lat="42.99585" lon="0.82681">
        <ele>752</ele>
        <time>2021-03-13T14:06:24Z</time>
      </trkpt>
      <trkpt lat="42.99584" lon="0.82681">
        <ele>753</ele>
        <time>2021-03-13T14:06:25Z</time>
      </trkpt>
      <trkpt lat="42.99582" lon="0.8268">
        <ele>753</ele>
        <time>2021-03-13T14:06:26Z</time>
      </trkpt>
      <trkpt lat="42.99581" lon="0.82679">
        <ele>753</ele>
        <time>2021-03-13T14:06:27Z</time>
      </trkpt>
      <trkpt lat="42.9958" lon="0.82679">
        <ele>753</ele>
        <time>2021-03-13T14:06:28Z</time>
      </trkpt>
      <trkpt lat="42.99579" lon="0.82678">
        <ele>753</ele>
        <time>2021-03-13T14:06:29Z</time>
      </trkpt>
      <trkpt lat="42.99578" lon="0.82677">
        <ele>755</ele>
        <time>2021-03-13T14:06:30Z</time>
      </trkpt>
      <trkpt lat="42.99577" lon="0.82676">
        <ele>755</ele>
        <time>2021-03-13T14:06:31Z</time>
      </trkpt>
      <trkpt lat="42.99575" lon="0.82675">
        <ele>755</ele>
        <time>2021-03-13T14:06:32Z</time>
      </trkpt>
      <trkpt lat="42.99574" lon="0.82674">
        <ele>755</ele>
        <time>2021-03-13T14:06:33Z</time>
      </trkpt>
      <trkpt lat="42.99572" lon="0.82673">
        <ele>755</ele>
        <time>2021-03-13T14:06:34Z</time>
      </trkpt>
      <trkpt lat="42.99571" lon="0.82672">
        <ele>756</ele>
        <time>2021-03-13T14:06:35Z</time>
      </trkpt>
      <trkpt lat="42.99569" lon="0.8267">
        <ele>756</ele>
        <time>2021-03-13T14:06:36Z</time>
      </trkpt>
      <trkpt lat="42.99568" lon="0.82669">
        <ele>756</ele>
        <time>2021-03-13T14:06:37Z</time>
      </trkpt>
      <trkpt lat="42.99566" lon="0.82669">
        <ele>756</ele>
        <time>2021-03-13T14:06:38Z</time>
      </trkpt>
      <trkpt lat="42.99563" lon="0.82668">
        <ele>756</ele>
        <time>2021-03-13T14:06:39Z</time>
      </trkpt>
      <trkpt lat="42.99561" lon="0.82667">
        <ele>758</ele>
        <time>2021-03-13T14:06:40Z</time>
      </trkpt>
      <trkpt lat="42.99559" lon="0.82666">
        <ele>758</ele>
        <time>2021-03-13T14:06:41Z</time>
      </trkpt>
      <trkpt lat="42.99557" lon="0.82666">
        <ele>758</ele>
        <time>2021-03-13T14:06:42Z</time>
      </trkpt>
      <trkpt lat="42.99556" lon="0.82666">
        <ele>758</ele>
        <time>2021-03-13T14:06:43Z</time>
      </trkpt>
      <trkpt lat="42.99555" lon="0.82666">
        <ele>758</ele>
        <time>2021-03-13T14:06:44Z</time>
      </trkpt>
      <trkpt lat="42.99554" lon="0.82666">
        <ele>758</ele>
        <time>2021-03-13T14:06:45Z</time>
      </trkpt>
      <trkpt lat="42.99553" lon="0.82666">
        <ele>758</ele>
        <time>2021-03-13T14:06:46Z</time>
      </trkpt>
      <trkpt lat="42.99552" lon="0.82666">
        <ele>758</ele>
        <time>2021-03-13T14:06:47Z</time>
      </trkpt>
      <trkpt lat="42.9955" lon="0.82666">
        <ele>758</ele>
        <time>2021-03-13T14:06:48Z</time>
      </trkpt>
      <trkpt lat="42.99549" lon="0.82666">
        <ele>758</ele>
        <time>2021-03-13T14:06:49Z</time>
      </trkpt>
      <trkpt lat="42.99548" lon="0.82666">
        <ele>759</ele>
        <time>2021-03-13T14:06:50Z</time>
      </trkpt>
      <trkpt lat="42.99547" lon="0.82666">
        <ele>759</ele>
        <time>2021-03-13T14:06:51Z</time>
      </trkpt>
      <trkpt lat="42.99546" lon="0.82666">
        <ele>759</ele>
        <time>2021-03-13T14:06:52Z</time>
      </trkpt>
      <trkpt lat="42.99545" lon="0.82667">
        <ele>759</ele>
        <time>2021-03-13T14:06:53Z</time>
      </trkpt>
      <trkpt lat="42.99543" lon="0.82667">
        <ele>759</ele>
        <time>2021-03-13T14:06:54Z</time>
      </trkpt>
      <trkpt lat="42.99542" lon="0.82668">
        <ele>759</ele>
        <time>2021-03-13T14:06:55Z</time>
      </trkpt>
      <trkpt lat="42.9954" lon="0.82668">
        <ele>759</ele>
        <time>2021-03-13T14:06:56Z</time>
      </trkpt>
      <trkpt lat="42.99539" lon="0.82669">
        <ele>759</ele>
        <time>2021-03-13T14:06:57Z</time>
      </trkpt>
      <trkpt lat="42.99537" lon="0.82669">
        <ele>759</ele>
        <time>2021-03-13T14:06:58Z</time>
      </trkpt>
      <trkpt lat="42.99536" lon="0.8267">
        <ele>759</ele>
        <time>2021-03-13T14:06:59Z</time>
      </trkpt>
      <trkpt lat="42.99534" lon="0.8267">
        <ele>760</ele>
        <time>2021-03-13T14:07:00Z</time>
      </trkpt>
      <trkpt lat="42.99532" lon="0.82671">
        <ele>760</ele>
        <time>2021-03-13T14:07:01Z</time>
      </trkpt>
      <trkpt lat="42.9953" lon="0.82672">
        <ele>760</ele>
        <time>2021-03-13T14:07:02Z</time>
      </trkpt>
      <trkpt lat="42.99527" lon="0.82672">
        <ele>760</ele>
        <time>2021-03-13T14:07:03Z</time>
      </trkpt>
      <trkpt lat="42.99525" lon="0.82673">
        <ele>760</ele>
        <time>2021-03-13T14:07:04Z</time>
      </trkpt>
      <trkpt lat="42.99524" lon="0.82673">
        <ele>760</ele>
        <time>2021-03-13T14:07:05Z</time>
      </trkpt>
      <trkpt lat="42.99522" lon="0.82673">
        <ele>760</ele>
        <time>2021-03-13T14:07:06Z</time>
      </trkpt>
      <trkpt lat="42.9952" lon="0.82673">
        <ele>760</ele>
        <time>2021-03-13T14:07:07Z</time>
      </trkpt>
      <trkpt lat="42.99518" lon="0.82673">
        <ele>760</ele>
        <time>2021-03-13T14:07:08Z</time>
      </trkpt>
      <trkpt lat="42.99516" lon="0.82673">
        <ele>760</ele>
        <time>2021-03-13T14:07:09Z</time>
      </trkpt>
      <trkpt lat="42.99514" lon="0.82672">
        <ele>764</ele>
        <time>2021-03-13T14:07:10Z</time>
      </trkpt>
      <trkpt lat="42.99512" lon="0.82672">
        <ele>764</ele>
        <time>2021-03-13T14:07:11Z</time>
      </trkpt>
      <trkpt lat="42.9951" lon="0.82672">
        <ele>764</ele>
        <time>2021-03-13T14:07:12Z</time>
      </trkpt>
      <trkpt lat="42.99508" lon="0.82672">
        <ele>764</ele>
        <time>2021-03-13T14:07:13Z</time>
      </trkpt>
      <trkpt lat="42.99506" lon="0.82672">
        <ele>764</ele>
        <time>2021-03-13T14:07:14Z</time>
      </trkpt>
      <trkpt lat="42.99504" lon="0.82672">
        <ele>765</ele>
        <time>2021-03-13T14:07:15Z</time>
      </trkpt>
      <trkpt lat="42.99502" lon="0.82672">
        <ele>765</ele>
        <time>2021-03-13T14:07:16Z</time>
      </trkpt>
      <trkpt lat="42.995" lon="0.82671">
        <ele>765</ele>
        <time>2021-03-13T14:07:17Z</time>
      </trkpt>
      <trkpt lat="42.99498" lon="0.82671">
        <ele>765</ele>
        <time>2021-03-13T14:07:18Z</time>
      </trkpt>
      <trkpt lat="42.99496" lon="0.8267">
        <ele>765</ele>
        <time>2021-03-13T14:07:19Z</time>
      </trkpt>
      <trkpt lat="42.99493" lon="0.8267">
        <ele>767</ele>
        <time>2021-03-13T14:07:20Z</time>
      </trkpt>
      <trkpt lat="42.99492" lon="0.82669">
        <ele>767</ele>
        <time>2021-03-13T14:07:21Z</time>
      </trkpt>
      <trkpt lat="42.9949" lon="0.82669">
        <ele>767</ele>
        <time>2021-03-13T14:07:22Z</time>
      </trkpt>
      <trkpt lat="42.99488" lon="0.82668">
        <ele>767</ele>
        <time>2021-03-13T14:07:23Z</time>
      </trkpt>
      <trkpt lat="42.99487" lon="0.82668">
        <ele>767</ele>
        <time>2021-03-13T14:07:24Z</time>
      </trkpt>
      <trkpt lat="42.99485" lon="0.82667">
        <ele>769</ele>
        <time>2021-03-13T14:07:25Z</time>
      </trkpt>
      <trkpt lat="42.99483" lon="0.82666">
        <ele>769</ele>
        <time>2021-03-13T14:07:26Z</time>
      </trkpt>
      <trkpt lat="42.99482" lon="0.82665">
        <ele>769</ele>
        <time>2021-03-13T14:07:27Z</time>
      </trkpt>
      <trkpt lat="42.9948" lon="0.82665">
        <ele>769</ele>
        <time>2021-03-13T14:07:28Z</time>
      </trkpt>
      <trkpt lat="42.99478" lon="0.82664">
        <ele>769</ele>
        <time>2021-03-13T14:07:29Z</time>
      </trkpt>
      <trkpt lat="42.99476" lon="0.82663">
        <ele>771</ele>
        <time>2021-03-13T14:07:30Z</time>
      </trkpt>
      <trkpt lat="42.99475" lon="0.82662">
        <ele>771</ele>
        <time>2021-03-13T14:07:31Z</time>
      </trkpt>
      <trkpt lat="42.99473" lon="0.82661">
        <ele>771</ele>
        <time>2021-03-13T14:07:32Z</time>
      </trkpt>
      <trkpt lat="42.99473" lon="0.8266">
        <ele>771</ele>
        <time>2021-03-13T14:07:33Z</time>
      </trkpt>
      <trkpt lat="42.99473" lon="0.82659">
        <ele>771</ele>
        <time>2021-03-13T14:07:34Z</time>
      </trkpt>
      <trkpt lat="42.99473" lon="0.82658">
        <ele>774</ele>
        <time>2021-03-13T14:07:35Z</time>
      </trkpt>
      <trkpt lat="42.99472" lon="0.82658">
        <ele>774</ele>
        <time>2021-03-13T14:07:36Z</time>
      </trkpt>
      <trkpt lat="42.99472" lon="0.82657">
        <ele>774</ele>
        <time>2021-03-13T14:07:37Z</time>
      </trkpt>
      <trkpt lat="42.99472" lon="0.82656">
        <ele>774</ele>
        <time>2021-03-13T14:07:38Z</time>
      </trkpt>
      <trkpt lat="42.99472" lon="0.82655">
        <ele>774</ele>
        <time>2021-03-13T14:07:39Z</time>
      </trkpt>
      <trkpt lat="42.99472" lon="0.82655">
        <ele>775</ele>
        <time>2021-03-13T14:07:40Z</time>
      </trkpt>
      <trkpt lat="42.99472" lon="0.82654">
        <ele>775</ele>
        <time>2021-03-13T14:07:41Z</time>
      </trkpt>
      <trkpt lat="42.99472" lon="0.82653">
        <ele>775</ele>
        <time>2021-03-13T14:07:42Z</time>
      </trkpt>
      <trkpt lat="42.99472" lon="0.82652">
        <ele>775</ele>
        <time>2021-03-13T14:07:43Z</time>
      </trkpt>
      <trkpt lat="42.99472" lon="0.82651">
        <ele>775</ele>
        <time>2021-03-13T14:07:44Z</time>
      </trkpt>
      <trkpt lat="42.99472" lon="0.82651">
        <ele>776</ele>
        <time>2021-03-13T14:07:45Z</time>
      </trkpt>
      <trkpt lat="42.99472" lon="0.8265">
        <ele>776</ele>
        <time>2021-03-13T14:07:46Z</time>
      </trkpt>
      <trkpt lat="42.99472" lon="0.82649">
        <ele>776</ele>
        <time>2021-03-13T14:07:47Z</time>
      </trkpt>
      <trkpt lat="42.99472" lon="0.82648">
        <ele>776</ele>
        <time>2021-03-13T14:07:48Z</time>
      </trkpt>
      <trkpt lat="42.99472" lon="0.82648">
        <ele>776</ele>
        <time>2021-03-13T14:07:49Z</time>
      </trkpt>
      <trkpt lat="42.99471" lon="0.82647">
        <ele>777</ele>
        <time>2021-03-13T14:07:50Z</time>
      </trkpt>
      <trkpt lat="42.99471" lon="0.82646">
        <ele>777</ele>
        <time>2021-03-13T14:07:51Z</time>
      </trkpt>
      <trkpt lat="42.99471" lon="0.82645">
        <ele>777</ele>
        <time>2021-03-13T14:07:52Z</time>
      </trkpt>
      <trkpt lat="42.99471" lon="0.82644">
        <ele>777</ele>
        <time>2021-03-13T14:07:53Z</time>
      </trkpt>
      <trkpt lat="42.99471" lon="0.82643">
        <ele>777</ele>
        <time>2021-03-13T14:07:54Z</time>
      </trkpt>
      <trkpt lat="42.99471" lon="0.82642">
        <ele>777</ele>
        <time>2021-03-13T14:07:55Z</time>
      </trkpt>
      <trkpt lat="42.99471" lon="0.82641">
        <ele>777</ele>
        <time>2021-03-13T14:07:56Z</time>
      </trkpt>
      <trkpt lat="42.99471" lon="0.8264">
        <ele>777</ele>
        <time>2021-03-13T14:07:57Z</time>
      </trkpt>
      <trkpt lat="42.99471" lon="0.8264">
        <ele>777</ele>
        <time>2021-03-13T14:07:58Z</time>
      </trkpt>
      <trkpt lat="42.99471" lon="0.82639">
        <ele>777</ele>
        <time>2021-03-13T14:07:59Z</time>
      </trkpt>
      <trkpt lat="42.99471" lon="0.82638">
        <ele>778</ele>
        <time>2021-03-13T14:08:00Z</time>
      </trkpt>
      <trkpt lat="42.99471" lon="0.82637">
        <ele>778</ele>
        <time>2021-03-13T14:08:01Z</time>
      </trkpt>
      <trkpt lat="42.99471" lon="0.82636">
        <ele>778</ele>
        <time>2021-03-13T14:08:02Z</time>
      </trkpt>
      <trkpt lat="42.99471" lon="0.82635">
        <ele>778</ele>
        <time>2021-03-13T14:08:03Z</time>
      </trkpt>
      <trkpt lat="42.99471" lon="0.82634">
        <ele>778</ele>
        <time>2021-03-13T14:08:04Z</time>
      </trkpt>
      <trkpt lat="42.99471" lon="0.82633">
        <ele>778</ele>
        <time>2021-03-13T14:08:05Z</time>
      </trkpt>
      <trkpt lat="42.99471" lon="0.82632">
        <ele>778</ele>
        <time>2021-03-13T14:08:06Z</time>
      </trkpt>
      <trkpt lat="42.99472" lon="0.82632">
        <ele>778</ele>
        <time>2021-03-13T14:08:07Z</time>
      </trkpt>
      <trkpt lat="42.99472" lon="0.82631">
        <ele>778</ele>
        <time>2021-03-13T14:08:08Z</time>
      </trkpt>
      <trkpt lat="42.99472" lon="0.8263">
        <ele>778</ele>
        <time>2021-03-13T14:08:09Z</time>
      </trkpt>
      <trkpt lat="42.99472" lon="0.82629">
        <ele>779</ele>
        <time>2021-03-13T14:08:10Z</time>
      </trkpt>
      <trkpt lat="42.99472" lon="0.82628">
        <ele>779</ele>
        <time>2021-03-13T14:08:11Z</time>
      </trkpt>
      <trkpt lat="42.99472" lon="0.82627">
        <ele>779</ele>
        <time>2021-03-13T14:08:12Z</time>
      </trkpt>
      <trkpt lat="42.99473" lon="0.82627">
        <ele>779</ele>
        <time>2021-03-13T14:08:13Z</time>
      </trkpt>
      <trkpt lat="42.99473" lon="0.82626">
        <ele>779</ele>
        <time>2021-03-13T14:08:14Z</time>
      </trkpt>
      <trkpt lat="42.99473" lon="0.82625">
        <ele>779</ele>
        <time>2021-03-13T14:08:15Z</time>
      </trkpt>
      <trkpt lat="42.99473" lon="0.82624">
        <ele>779</ele>
        <time>2021-03-13T14:08:16Z</time>
      </trkpt>
      <trkpt lat="42.99473" lon="0.82623">
        <ele>779</ele>
        <time>2021-03-13T14:08:17Z</time>
      </trkpt>
      <trkpt lat="42.99474" lon="0.82622">
        <ele>779</ele>
        <time>2021-03-13T14:08:18Z</time>
      </trkpt>
      <trkpt lat="42.99474" lon="0.82622">
        <ele>779</ele>
        <time>2021-03-13T14:08:19Z</time>
      </trkpt>
      <trkpt lat="42.99474" lon="0.82621">
        <ele>782</ele>
        <time>2021-03-13T14:08:20Z</time>
      </trkpt>
      <trkpt lat="42.99474" lon="0.8262">
        <ele>782</ele>
        <time>2021-03-13T14:08:21Z</time>
      </trkpt>
      <trkpt lat="42.99474" lon="0.82619">
        <ele>782</ele>
        <time>2021-03-13T14:08:22Z</time>
      </trkpt>
      <trkpt lat="42.99474" lon="0.82618">
        <ele>782</ele>
        <time>2021-03-13T14:08:23Z</time>
      </trkpt>
      <trkpt lat="42.99474" lon="0.82617">
        <ele>782</ele>
        <time>2021-03-13T14:08:24Z</time>
      </trkpt>
      <trkpt lat="42.99474" lon="0.82616">
        <ele>784</ele>
        <time>2021-03-13T14:08:25Z</time>
      </trkpt>
      <trkpt lat="42.99474" lon="0.82615">
        <ele>784</ele>
        <time>2021-03-13T14:08:26Z</time>
      </trkpt>
      <trkpt lat="42.99473" lon="0.82614">
        <ele>784</ele>
        <time>2021-03-13T14:08:27Z</time>
      </trkpt>
      <trkpt lat="42.99473" lon="0.82614">
        <ele>784</ele>
        <time>2021-03-13T14:08:28Z</time>
      </trkpt>
      <trkpt lat="42.99473" lon="0.82613">
        <ele>784</ele>
        <time>2021-03-13T14:08:29Z</time>
      </trkpt>
      <trkpt lat="42.99473" lon="0.82612">
        <ele>785</ele>
        <time>2021-03-13T14:08:30Z</time>
      </trkpt>
      <trkpt lat="42.99473" lon="0.82611">
        <ele>785</ele>
        <time>2021-03-13T14:08:31Z</time>
      </trkpt>
      <trkpt lat="42.99472" lon="0.8261">
        <ele>785</ele>
        <time>2021-03-13T14:08:32Z</time>
      </trkpt>
      <trkpt lat="42.99472" lon="0.82609">
        <ele>785</ele>
        <time>2021-03-13T14:08:33Z</time>
      </trkpt>
      <trkpt lat="42.99472" lon="0.82608">
        <ele>785</ele>
        <time>2021-03-13T14:08:34Z</time>
      </trkpt>
      <trkpt lat="42.99472" lon="0.82607">
        <ele>785</ele>
        <time>2021-03-13T14:08:35Z</time>
      </trkpt>
      <trkpt lat="42.99472" lon="0.82606">
        <ele>785</ele>
        <time>2021-03-13T14:08:36Z</time>
      </trkpt>
      <trkpt lat="42.99472" lon="0.82605">
        <ele>785</ele>
        <time>2021-03-13T14:08:37Z</time>
      </trkpt>
      <trkpt lat="42.99472" lon="0.82603">
        <ele>785</ele>
        <time>2021-03-13T14:08:38Z</time>
      </trkpt>
      <trkpt lat="42.99472" lon="0.82602">
        <ele>785</ele>
        <time>2021-03-13T14:08:39Z</time>
      </trkpt>
      <trkpt lat="42.99473" lon="0.82601">
        <ele>787</ele>
        <time>2021-03-13T14:08:40Z</time>
      </trkpt>
      <trkpt lat="42.99473" lon="0.82599">
        <ele>787</ele>
        <time>2021-03-13T14:08:41Z</time>
      </trkpt>
      <trkpt lat="42.99473" lon="0.82598">
        <ele>787</ele>
        <time>2021-03-13T14:08:42Z</time>
      </trkpt>
      <trkpt lat="42.99473" lon="0.82596">
        <ele>787</ele>
        <time>2021-03-13T14:08:43Z</time>
      </trkpt>
      <trkpt lat="42.99474" lon="0.82595">
        <ele>787</ele>
        <time>2021-03-13T14:08:44Z</time>
      </trkpt>
      <trkpt lat="42.99474" lon="0.82594">
        <ele>787</ele>
        <time>2021-03-13T14:08:45Z</time>
      </trkpt>
      <trkpt lat="42.99474" lon="0.82592">
        <ele>787</ele>
        <time>2021-03-13T14:08:46Z</time>
      </trkpt>
      <trkpt lat="42.99474" lon="0.8259">
        <ele>787</ele>
        <time>2021-03-13T14:08:47Z</time>
      </trkpt>
      <trkpt lat="42.99473" lon="0.82589">
        <ele>787</ele>
        <time>2021-03-13T14:08:48Z</time>
      </trkpt>
      <trkpt lat="42.99473" lon="0.82587">
        <ele>787</ele>
        <time>2021-03-13T14:08:49Z</time>
      </trkpt>
      <trkpt lat="42.99473" lon="0.82585">
        <ele>788</ele>
        <time>2021-03-13T14:08:50Z</time>
      </trkpt>
      <trkpt lat="42.99472" lon="0.82583">
        <ele>788</ele>
        <time>2021-03-13T14:08:51Z</time>
      </trkpt>
      <trkpt lat="42.99472" lon="0.82582">
        <ele>788</ele>
        <time>2021-03-13T14:08:52Z</time>
      </trkpt>
      <trkpt lat="42.99471" lon="0.8258">
        <ele>788</ele>
        <time>2021-03-13T14:08:53Z</time>
      </trkpt>
      <trkpt lat="42.99471" lon="0.82578">
        <ele>788</ele>
        <time>2021-03-13T14:08:54Z</time>
      </trkpt>
      <trkpt lat="42.99472" lon="0.82576">
        <ele>788</ele>
        <time>2021-03-13T14:08:55Z</time>
      </trkpt>
      <trkpt lat="42.99473" lon="0.82574">
        <ele>788</ele>
        <time>2021-03-13T14:08:56Z</time>
      </trkpt>
      <trkpt lat="42.99474" lon="0.82572">
        <ele>788</ele>
        <time>2021-03-13T14:08:57Z</time>
      </trkpt>
      <trkpt lat="42.99475" lon="0.8257">
        <ele>788</ele>
        <time>2021-03-13T14:08:58Z</time>
      </trkpt>
      <trkpt lat="42.99476" lon="0.82568">
        <ele>788</ele>
        <time>2021-03-13T14:08:59Z</time>
      </trkpt>
      <trkpt lat="42.99477" lon="0.82565">
        <ele>788</ele>
        <time>2021-03-13T14:09:00Z</time>
      </trkpt>
      <trkpt lat="42.99479" lon="0.82562">
        <ele>788</ele>
        <time>2021-03-13T14:09:01Z</time>
      </trkpt>
      <trkpt lat="42.9948" lon="0.82559">
        <ele>788</ele>
        <time>2021-03-13T14:09:02Z</time>
      </trkpt>
      <trkpt lat="42.99482" lon="0.82555">
        <ele>788</ele>
        <time>2021-03-13T14:09:03Z</time>
      </trkpt>
      <trkpt lat="42.99483" lon="0.82552">
        <ele>788</ele>
        <time>2021-03-13T14:09:04Z</time>
      </trkpt>
      <trkpt lat="42.99484" lon="0.82549">
        <ele>788</ele>
        <time>2021-03-13T14:09:05Z</time>
      </trkpt>
      <trkpt lat="42.99485" lon="0.82547">
        <ele>788</ele>
        <time>2021-03-13T14:09:06Z</time>
      </trkpt>
      <trkpt lat="42.99486" lon="0.82544">
        <ele>788</ele>
        <time>2021-03-13T14:09:07Z</time>
      </trkpt>
      <trkpt lat="42.99487" lon="0.82542">
        <ele>788</ele>
        <time>2021-03-13T14:09:08Z</time>
      </trkpt>
      <trkpt lat="42.99488" lon="0.82539">
        <ele>788</ele>
        <time>2021-03-13T14:09:09Z</time>
      </trkpt>
      <trkpt lat="42.99489" lon="0.82535">
        <ele>788</ele>
        <time>2021-03-13T14:09:10Z</time>
      </trkpt>
      <trkpt lat="42.99491" lon="0.82532">
        <ele>788</ele>
        <time>2021-03-13T14:09:11Z</time>
      </trkpt>
      <trkpt lat="42.99492" lon="0.82528">
        <ele>788</ele>
        <time>2021-03-13T14:09:12Z</time>
      </trkpt>
      <trkpt lat="42.99493" lon="0.82525">
        <ele>788</ele>
        <time>2021-03-13T14:09:13Z</time>
      </trkpt>
      <trkpt lat="42.99494" lon="0.82521">
        <ele>788</ele>
        <time>2021-03-13T14:09:14Z</time>
      </trkpt>
      <trkpt lat="42.99495" lon="0.82518">
        <ele>788</ele>
        <time>2021-03-13T14:09:15Z</time>
      </trkpt>
      <trkpt lat="42.99495" lon="0.82514">
        <ele>788</ele>
        <time>2021-03-13T14:09:16Z</time>
      </trkpt>
      <trkpt lat="42.99496" lon="0.8251">
        <ele>788</ele>
        <time>2021-03-13T14:09:17Z</time>
      </trkpt>
      <trkpt lat="42.99494" lon="0.82505">
        <ele>788</ele>
        <time>2021-03-13T14:09:18Z</time>
      </trkpt>
      <trkpt lat="42.99492" lon="0.82499">
        <ele>788</ele>
        <time>2021-03-13T14:09:19Z</time>
      </trkpt>
      <trkpt lat="42.99489" lon="0.82494">
        <ele>788</ele>
        <time>2021-03-13T14:09:20Z</time>
      </trkpt>
      <trkpt lat="42.99487" lon="0.82488">
        <ele>788</ele>
        <time>2021-03-13T14:09:21Z</time>
      </trkpt>
      <trkpt lat="42.99481" lon="0.82478">
        <ele>788</ele>
        <time>2021-03-13T14:09:22Z</time>
      </trkpt>
      <trkpt lat="42.99479" lon="0.82475">
        <ele>788</ele>
        <time>2021-03-13T14:09:23Z</time>
      </trkpt>
      <trkpt lat="42.99474" lon="0.82466">
        <ele>788</ele>
        <time>2021-03-13T14:09:24Z</time>
      </trkpt>
      <trkpt lat="42.99472" lon="0.82463">
        <ele>788</ele>
        <time>2021-03-13T14:09:25Z</time>
      </trkpt>
      <trkpt lat="42.99469" lon="0.82457">
        <ele>788</ele>
        <time>2021-03-13T14:09:26Z</time>
      </trkpt>
      <trkpt lat="42.99469" lon="0.82457">
        <ele>788</ele>
        <time>2021-03-13T14:09:27Z</time>
      </trkpt>
      <trkpt lat="42.99466" lon="0.82449">
        <ele>788</ele>
        <time>2021-03-13T14:09:28Z</time>
      </trkpt>
      <trkpt lat="42.99463" lon="0.8244">
        <ele>788</ele>
        <time>2021-03-13T14:09:29Z</time>
      </trkpt>
      <trkpt lat="42.9946" lon="0.82432">
        <ele>787</ele>
        <time>2021-03-13T14:09:30Z</time>
      </trkpt>
      <trkpt lat="42.99453" lon="0.82421">
        <ele>787</ele>
        <time>2021-03-13T14:09:31Z</time>
      </trkpt>
      <trkpt lat="42.99451" lon="0.82418">
        <ele>787</ele>
        <time>2021-03-13T14:09:32Z</time>
      </trkpt>
      <trkpt lat="42.99444" lon="0.82409">
        <ele>787</ele>
        <time>2021-03-13T14:09:33Z</time>
      </trkpt>
      <trkpt lat="42.99442" lon="0.82406">
        <ele>787</ele>
        <time>2021-03-13T14:09:34Z</time>
      </trkpt>
      <trkpt lat="42.99438" lon="0.82401">
        <ele>787</ele>
        <time>2021-03-13T14:09:35Z</time>
      </trkpt>
      <trkpt lat="42.99438" lon="0.82401">
        <ele>787</ele>
        <time>2021-03-13T14:09:36Z</time>
      </trkpt>
      <trkpt lat="42.99433" lon="0.82395">
        <ele>787</ele>
        <time>2021-03-13T14:09:37Z</time>
      </trkpt>
      <trkpt lat="42.99429" lon="0.82388">
        <ele>787</ele>
        <time>2021-03-13T14:09:38Z</time>
      </trkpt>
      <trkpt lat="42.99424" lon="0.82382">
        <ele>787</ele>
        <time>2021-03-13T14:09:39Z</time>
      </trkpt>
      <trkpt lat="42.99418" lon="0.82373">
        <ele>782</ele>
        <time>2021-03-13T14:09:40Z</time>
      </trkpt>
      <trkpt lat="42.99416" lon="0.8237">
        <ele>782</ele>
        <time>2021-03-13T14:09:41Z</time>
      </trkpt>
      <trkpt lat="42.99409" lon="0.82361">
        <ele>782</ele>
        <time>2021-03-13T14:09:42Z</time>
      </trkpt>
      <trkpt lat="42.99407" lon="0.82359">
        <ele>782</ele>
        <time>2021-03-13T14:09:43Z</time>
      </trkpt>
      <trkpt lat="42.99403" lon="0.82354">
        <ele>782</ele>
        <time>2021-03-13T14:09:44Z</time>
      </trkpt>
      <trkpt lat="42.99403" lon="0.82354">
        <ele>779</ele>
        <time>2021-03-13T14:09:45Z</time>
      </trkpt>
      <trkpt lat="42.99398" lon="0.82349">
        <ele>779</ele>
        <time>2021-03-13T14:09:46Z</time>
      </trkpt>
      <trkpt lat="42.99392" lon="0.82344">
        <ele>779</ele>
        <time>2021-03-13T14:09:47Z</time>
      </trkpt>
      <trkpt lat="42.99387" lon="0.82338">
        <ele>779</ele>
        <time>2021-03-13T14:09:48Z</time>
      </trkpt>
      <trkpt lat="42.99379" lon="0.82332">
        <ele>779</ele>
        <time>2021-03-13T14:09:49Z</time>
      </trkpt>
      <trkpt lat="42.99377" lon="0.8233">
        <ele>777</ele>
        <time>2021-03-13T14:09:50Z</time>
      </trkpt>
      <trkpt lat="42.99369" lon="0.82322">
        <ele>776</ele>
        <time>2021-03-13T14:09:51Z</time>
      </trkpt>
      <trkpt lat="42.99367" lon="0.82319">
        <ele>775</ele>
        <time>2021-03-13T14:09:52Z</time>
      </trkpt>
      <trkpt lat="42.9936" lon="0.8231">
        <ele>775</ele>
        <time>2021-03-13T14:09:53Z</time>
      </trkpt>
      <trkpt lat="42.99358" lon="0.82308">
        <ele>775</ele>
        <time>2021-03-13T14:09:54Z</time>
      </trkpt>
      <trkpt lat="42.9935" lon="0.82301">
        <ele>774</ele>
        <time>2021-03-13T14:09:55Z</time>
      </trkpt>
      <trkpt lat="42.99348" lon="0.82299">
        <ele>774</ele>
        <time>2021-03-13T14:09:56Z</time>
      </trkpt>
      <trkpt lat="42.99342" lon="0.82293">
        <ele>773</ele>
        <time>2021-03-13T14:09:57Z</time>
      </trkpt>
      <trkpt lat="42.99339" lon="0.82291">
        <ele>773</ele>
        <time>2021-03-13T14:09:58Z</time>
      </trkpt>
      <trkpt lat="42.99335" lon="0.82288">
        <ele>773</ele>
        <time>2021-03-13T14:09:59Z</time>
      </trkpt>
      <trkpt lat="42.99335" lon="0.82288">
        <ele>774</ele>
        <time>2021-03-13T14:10:00Z</time>
      </trkpt>
      <trkpt lat="42.99325" lon="0.82285">
        <ele>774</ele>
        <time>2021-03-13T14:10:01Z</time>
      </trkpt>
      <trkpt lat="42.99325" lon="0.82285">
        <ele>774</ele>
        <time>2021-03-13T14:10:02Z</time>
      </trkpt>
      <trkpt lat="42.99322" lon="0.82283">
        <ele>774</ele>
        <time>2021-03-13T14:10:03Z</time>
      </trkpt>
      <trkpt lat="42.99319" lon="0.82282">
        <ele>774</ele>
        <time>2021-03-13T14:10:04Z</time>
      </trkpt>
      <trkpt lat="42.99316" lon="0.82281">
        <ele>775</ele>
        <time>2021-03-13T14:10:05Z</time>
      </trkpt>
      <trkpt lat="42.99313" lon="0.8228">
        <ele>775</ele>
        <time>2021-03-13T14:10:06Z</time>
      </trkpt>
      <trkpt lat="42.99309" lon="0.82279">
        <ele>775</ele>
        <time>2021-03-13T14:10:07Z</time>
      </trkpt>
      <trkpt lat="42.99306" lon="0.82278">
        <ele>775</ele>
        <time>2021-03-13T14:10:08Z</time>
      </trkpt>
      <trkpt lat="42.99303" lon="0.82277">
        <ele>775</ele>
        <time>2021-03-13T14:10:09Z</time>
      </trkpt>
      <trkpt lat="42.99299" lon="0.82277">
        <ele>776</ele>
        <time>2021-03-13T14:10:10Z</time>
      </trkpt>
      <trkpt lat="42.99296" lon="0.82277">
        <ele>776</ele>
        <time>2021-03-13T14:10:11Z</time>
      </trkpt>
      <trkpt lat="42.99293" lon="0.82276">
        <ele>776</ele>
        <time>2021-03-13T14:10:12Z</time>
      </trkpt>
      <trkpt lat="42.99289" lon="0.82276">
        <ele>776</ele>
        <time>2021-03-13T14:10:13Z</time>
      </trkpt>
      <trkpt lat="42.99286" lon="0.82275">
        <ele>776</ele>
        <time>2021-03-13T14:10:14Z</time>
      </trkpt>
      <trkpt lat="42.99283" lon="0.82274">
        <ele>776</ele>
        <time>2021-03-13T14:10:15Z</time>
      </trkpt>
      <trkpt lat="42.9928" lon="0.82273">
        <ele>776</ele>
        <time>2021-03-13T14:10:16Z</time>
      </trkpt>
      <trkpt lat="42.99278" lon="0.82272">
        <ele>776</ele>
        <time>2021-03-13T14:10:17Z</time>
      </trkpt>
      <trkpt lat="42.99276" lon="0.82272">
        <ele>776</ele>
        <time>2021-03-13T14:10:18Z</time>
      </trkpt>
      <trkpt lat="42.99274" lon="0.82271">
        <ele>776</ele>
        <time>2021-03-13T14:10:19Z</time>
      </trkpt>
      <trkpt lat="42.99271" lon="0.82271">
        <ele>776</ele>
        <time>2021-03-13T14:10:20Z</time>
      </trkpt>
      <trkpt lat="42.99269" lon="0.82272">
        <ele>776</ele>
        <time>2021-03-13T14:10:21Z</time>
      </trkpt>
      <trkpt lat="42.99267" lon="0.82272">
        <ele>776</ele>
        <time>2021-03-13T14:10:22Z</time>
      </trkpt>
      <trkpt lat="42.99264" lon="0.82272">
        <ele>776</ele>
        <time>2021-03-13T14:10:23Z</time>
      </trkpt>
      <trkpt lat="42.99262" lon="0.82272">
        <ele>776</ele>
        <time>2021-03-13T14:10:24Z</time>
      </trkpt>
      <trkpt lat="42.9926" lon="0.82272">
        <ele>776</ele>
        <time>2021-03-13T14:10:25Z</time>
      </trkpt>
      <trkpt lat="42.99258" lon="0.82272">
        <ele>776</ele>
        <time>2021-03-13T14:10:26Z</time>
      </trkpt>
      <trkpt lat="42.99256" lon="0.82272">
        <ele>776</ele>
        <time>2021-03-13T14:10:27Z</time>
      </trkpt>
      <trkpt lat="42.99253" lon="0.82272">
        <ele>776</ele>
        <time>2021-03-13T14:10:28Z</time>
      </trkpt>
      <trkpt lat="42.99251" lon="0.82272">
        <ele>776</ele>
        <time>2021-03-13T14:10:29Z</time>
      </trkpt>
      <trkpt lat="42.9925" lon="0.82268">
        <ele>776</ele>
        <time>2021-03-13T14:10:30Z</time>
      </trkpt>
      <trkpt lat="42.9925" lon="0.82264">
        <ele>776</ele>
        <time>2021-03-13T14:10:31Z</time>
      </trkpt>
      <trkpt lat="42.99249" lon="0.82261">
        <ele>776</ele>
        <time>2021-03-13T14:10:32Z</time>
      </trkpt>
      <trkpt lat="42.99248" lon="0.82257">
        <ele>776</ele>
        <time>2021-03-13T14:10:33Z</time>
      </trkpt>
      <trkpt lat="42.99248" lon="0.82253">
        <ele>776</ele>
        <time>2021-03-13T14:10:34Z</time>
      </trkpt>
      <trkpt lat="42.99249" lon="0.82249">
        <ele>776</ele>
        <time>2021-03-13T14:10:35Z</time>
      </trkpt>
      <trkpt lat="42.99249" lon="0.82245">
        <ele>776</ele>
        <time>2021-03-13T14:10:36Z</time>
      </trkpt>
      <trkpt lat="42.9925" lon="0.82241">
        <ele>776</ele>
        <time>2021-03-13T14:10:37Z</time>
      </trkpt>
      <trkpt lat="42.99251" lon="0.82236">
        <ele>776</ele>
        <time>2021-03-13T14:10:38Z</time>
      </trkpt>
      <trkpt lat="42.99252" lon="0.82232">
        <ele>776</ele>
        <time>2021-03-13T14:10:39Z</time>
      </trkpt>
      <trkpt lat="42.99253" lon="0.82227">
        <ele>776</ele>
        <time>2021-03-13T14:10:40Z</time>
      </trkpt>
      <trkpt lat="42.99254" lon="0.82222">
        <ele>776</ele>
        <time>2021-03-13T14:10:41Z</time>
      </trkpt>
      <trkpt lat="42.99255" lon="0.82217">
        <ele>776</ele>
        <time>2021-03-13T14:10:42Z</time>
      </trkpt>
      <trkpt lat="42.99255" lon="0.82212">
        <ele>776</ele>
        <time>2021-03-13T14:10:43Z</time>
      </trkpt>
      <trkpt lat="42.99258" lon="0.82209">
        <ele>776</ele>
        <time>2021-03-13T14:10:44Z</time>
      </trkpt>
      <trkpt lat="42.9926" lon="0.82205">
        <ele>776</ele>
        <time>2021-03-13T14:10:45Z</time>
      </trkpt>
      <trkpt lat="42.99262" lon="0.82201">
        <ele>776</ele>
        <time>2021-03-13T14:10:46Z</time>
      </trkpt>
      <trkpt lat="42.99264" lon="0.822">
        <ele>776</ele>
        <time>2021-03-13T14:10:47Z</time>
      </trkpt>
      <trkpt lat="42.99266" lon="0.82199">
        <ele>776</ele>
        <time>2021-03-13T14:10:48Z</time>
      </trkpt>
      <trkpt lat="42.99268" lon="0.82198">
        <ele>776</ele>
        <time>2021-03-13T14:10:49Z</time>
      </trkpt>
      <trkpt lat="42.99269" lon="0.82196">
        <ele>778</ele>
        <time>2021-03-13T14:10:50Z</time>
      </trkpt>
      <trkpt lat="42.99271" lon="0.82195">
        <ele>778</ele>
        <time>2021-03-13T14:10:51Z</time>
      </trkpt>
      <trkpt lat="42.99274" lon="0.82194">
        <ele>778</ele>
        <time>2021-03-13T14:10:52Z</time>
      </trkpt>
      <trkpt lat="42.99277" lon="0.82194">
        <ele>778</ele>
        <time>2021-03-13T14:10:53Z</time>
      </trkpt>
      <trkpt lat="42.99279" lon="0.82193">
        <ele>778</ele>
        <time>2021-03-13T14:10:54Z</time>
      </trkpt>
      <trkpt lat="42.99282" lon="0.82192">
        <ele>778</ele>
        <time>2021-03-13T14:10:55Z</time>
      </trkpt>
      <trkpt lat="42.99284" lon="0.82189">
        <ele>778</ele>
        <time>2021-03-13T14:10:56Z</time>
      </trkpt>
      <trkpt lat="42.99287" lon="0.82187">
        <ele>778</ele>
        <time>2021-03-13T14:10:57Z</time>
      </trkpt>
      <trkpt lat="42.99289" lon="0.82184">
        <ele>778</ele>
        <time>2021-03-13T14:10:58Z</time>
      </trkpt>
      <trkpt lat="42.99292" lon="0.82181">
        <ele>778</ele>
        <time>2021-03-13T14:10:59Z</time>
      </trkpt>
      <trkpt lat="42.99295" lon="0.82174">
        <ele>778</ele>
        <time>2021-03-13T14:11:00Z</time>
      </trkpt>
      <trkpt lat="42.99299" lon="0.82167">
        <ele>778</ele>
        <time>2021-03-13T14:11:01Z</time>
      </trkpt>
      <trkpt lat="42.99303" lon="0.8216">
        <ele>778</ele>
        <time>2021-03-13T14:11:02Z</time>
      </trkpt>
      <trkpt lat="42.99306" lon="0.82154">
        <ele>778</ele>
        <time>2021-03-13T14:11:03Z</time>
      </trkpt>
      <trkpt lat="42.99306" lon="0.82154">
        <ele>778</ele>
        <time>2021-03-13T14:11:04Z</time>
      </trkpt>
      <trkpt lat="42.99307" lon="0.82146">
        <ele>778</ele>
        <time>2021-03-13T14:11:05Z</time>
      </trkpt>
      <trkpt lat="42.99309" lon="0.82137">
        <ele>778</ele>
        <time>2021-03-13T14:11:06Z</time>
      </trkpt>
      <trkpt lat="42.9931" lon="0.82129">
        <ele>778</ele>
        <time>2021-03-13T14:11:07Z</time>
      </trkpt>
      <trkpt lat="42.99311" lon="0.82123">
        <ele>778</ele>
        <time>2021-03-13T14:11:08Z</time>
      </trkpt>
      <trkpt lat="42.99311" lon="0.82123">
        <ele>778</ele>
        <time>2021-03-13T14:11:09Z</time>
      </trkpt>
      <trkpt lat="42.99313" lon="0.82117">
        <ele>776</ele>
        <time>2021-03-13T14:11:10Z</time>
      </trkpt>
      <trkpt lat="42.99314" lon="0.82111">
        <ele>776</ele>
        <time>2021-03-13T14:11:11Z</time>
      </trkpt>
      <trkpt lat="42.99316" lon="0.82105">
        <ele>776</ele>
        <time>2021-03-13T14:11:12Z</time>
      </trkpt>
      <trkpt lat="42.99317" lon="0.82103">
        <ele>776</ele>
        <time>2021-03-13T14:11:13Z</time>
      </trkpt>
      <trkpt lat="42.99318" lon="0.82101">
        <ele>776</ele>
        <time>2021-03-13T14:11:14Z</time>
      </trkpt>
      <trkpt lat="42.99319" lon="0.82099">
        <ele>776</ele>
        <time>2021-03-13T14:11:15Z</time>
      </trkpt>
      <trkpt lat="42.99319" lon="0.82097">
        <ele>776</ele>
        <time>2021-03-13T14:11:16Z</time>
      </trkpt>
      <trkpt lat="42.9932" lon="0.82095">
        <ele>776</ele>
        <time>2021-03-13T14:11:17Z</time>
      </trkpt>
      <trkpt lat="42.99321" lon="0.82093">
        <ele>776</ele>
        <time>2021-03-13T14:11:18Z</time>
      </trkpt>
      <trkpt lat="42.99322" lon="0.82092">
        <ele>776</ele>
        <time>2021-03-13T14:11:19Z</time>
      </trkpt>
      <trkpt lat="42.99323" lon="0.82091">
        <ele>773</ele>
        <time>2021-03-13T14:11:20Z</time>
      </trkpt>
      <trkpt lat="42.99323" lon="0.8209">
        <ele>773</ele>
        <time>2021-03-13T14:11:21Z</time>
      </trkpt>
      <trkpt lat="42.99324" lon="0.8209">
        <ele>773</ele>
        <time>2021-03-13T14:11:22Z</time>
      </trkpt>
      <trkpt lat="42.99325" lon="0.82089">
        <ele>773</ele>
        <time>2021-03-13T14:11:23Z</time>
      </trkpt>
      <trkpt lat="42.99326" lon="0.82088">
        <ele>773</ele>
        <time>2021-03-13T14:11:24Z</time>
      </trkpt>
      <trkpt lat="42.99327" lon="0.82087">
        <ele>773</ele>
        <time>2021-03-13T14:11:25Z</time>
      </trkpt>
      <trkpt lat="42.99327" lon="0.82086">
        <ele>773</ele>
        <time>2021-03-13T14:11:26Z</time>
      </trkpt>
      <trkpt lat="42.99328" lon="0.82085">
        <ele>773</ele>
        <time>2021-03-13T14:11:27Z</time>
      </trkpt>
      <trkpt lat="42.99329" lon="0.82084">
        <ele>773</ele>
        <time>2021-03-13T14:11:28Z</time>
      </trkpt>
      <trkpt lat="42.99332" lon="0.82083">
        <ele>773</ele>
        <time>2021-03-13T14:11:29Z</time>
      </trkpt>
      <trkpt lat="42.99335" lon="0.82082">
        <ele>774</ele>
        <time>2021-03-13T14:11:30Z</time>
      </trkpt>
      <trkpt lat="42.99338" lon="0.8208">
        <ele>774</ele>
        <time>2021-03-13T14:11:31Z</time>
      </trkpt>
      <trkpt lat="42.99341" lon="0.82079">
        <ele>774</ele>
        <time>2021-03-13T14:11:32Z</time>
      </trkpt>
      <trkpt lat="42.99345" lon="0.82073">
        <ele>774</ele>
        <time>2021-03-13T14:11:33Z</time>
      </trkpt>
      <trkpt lat="42.99348" lon="0.82067">
        <ele>774</ele>
        <time>2021-03-13T14:11:34Z</time>
      </trkpt>
      <trkpt lat="42.99352" lon="0.82061">
        <ele>774</ele>
        <time>2021-03-13T14:11:35Z</time>
      </trkpt>
      <trkpt lat="42.99355" lon="0.82048">
        <ele>774</ele>
        <time>2021-03-13T14:11:36Z</time>
      </trkpt>
      <trkpt lat="42.99355" lon="0.82043">
        <ele>774</ele>
        <time>2021-03-13T14:11:37Z</time>
      </trkpt>
      <trkpt lat="42.99357" lon="0.82028">
        <ele>774</ele>
        <time>2021-03-13T14:11:38Z</time>
      </trkpt>
      <trkpt lat="42.99358" lon="0.82024">
        <ele>774</ele>
        <time>2021-03-13T14:11:39Z</time>
      </trkpt>
      <trkpt lat="42.9936" lon="0.82011">
        <ele>771</ele>
        <time>2021-03-13T14:11:40Z</time>
      </trkpt>
      <trkpt lat="42.99361" lon="0.82007">
        <ele>771</ele>
        <time>2021-03-13T14:11:41Z</time>
      </trkpt>
      <trkpt lat="42.99362" lon="0.81995">
        <ele>771</ele>
        <time>2021-03-13T14:11:42Z</time>
      </trkpt>
      <trkpt lat="42.99363" lon="0.81991">
        <ele>771</ele>
        <time>2021-03-13T14:11:43Z</time>
      </trkpt>
      <trkpt lat="42.99363" lon="0.8198">
        <ele>771</ele>
        <time>2021-03-13T14:11:44Z</time>
      </trkpt>
      <trkpt lat="42.99364" lon="0.81976">
        <ele>768</ele>
        <time>2021-03-13T14:11:45Z</time>
      </trkpt>
      <trkpt lat="42.99364" lon="0.8197">
        <ele>768</ele>
        <time>2021-03-13T14:11:46Z</time>
      </trkpt>
      <trkpt lat="42.99364" lon="0.8197">
        <ele>768</ele>
        <time>2021-03-13T14:11:47Z</time>
      </trkpt>
      <trkpt lat="42.99365" lon="0.81952">
        <ele>768</ele>
        <time>2021-03-13T14:11:48Z</time>
      </trkpt>
      <trkpt lat="42.99364" lon="0.81949">
        <ele>768</ele>
        <time>2021-03-13T14:11:49Z</time>
      </trkpt>
      <trkpt lat="42.99364" lon="0.81942">
        <ele>764</ele>
        <time>2021-03-13T14:11:50Z</time>
      </trkpt>
      <trkpt lat="42.99364" lon="0.81942">
        <ele>762</ele>
        <time>2021-03-13T14:11:51Z</time>
      </trkpt>
      <trkpt lat="42.9936" lon="0.81922">
        <ele>762</ele>
        <time>2021-03-13T14:11:52Z</time>
      </trkpt>
      <trkpt lat="42.99359" lon="0.81918">
        <ele>763</ele>
        <time>2021-03-13T14:11:53Z</time>
      </trkpt>
      <trkpt lat="42.99356" lon="0.81906">
        <ele>762</ele>
        <time>2021-03-13T14:11:54Z</time>
      </trkpt>
      <trkpt lat="42.99356" lon="0.81902">
        <ele>760</ele>
        <time>2021-03-13T14:11:55Z</time>
      </trkpt>
      <trkpt lat="42.99353" lon="0.81889">
        <ele>759</ele>
        <time>2021-03-13T14:11:56Z</time>
      </trkpt>
      <trkpt lat="42.99351" lon="0.81886">
        <ele>757</ele>
        <time>2021-03-13T14:11:57Z</time>
      </trkpt>
      <trkpt lat="42.99348" lon="0.81875">
        <ele>756</ele>
        <time>2021-03-13T14:11:58Z</time>
      </trkpt>
      <trkpt lat="42.99346" lon="0.81871">
        <ele>755</ele>
        <time>2021-03-13T14:11:59Z</time>
      </trkpt>
      <trkpt lat="42.99342" lon="0.81861">
        <ele>754</ele>
        <time>2021-03-13T14:12:00Z</time>
      </trkpt>
      <trkpt lat="42.99341" lon="0.81857">
        <ele>754</ele>
        <time>2021-03-13T14:12:01Z</time>
      </trkpt>
      <trkpt lat="42.99337" lon="0.81846">
        <ele>753</ele>
        <time>2021-03-13T14:12:02Z</time>
      </trkpt>
      <trkpt lat="42.99335" lon="0.81843">
        <ele>752</ele>
        <time>2021-03-13T14:12:03Z</time>
      </trkpt>
      <trkpt lat="42.9933" lon="0.81833">
        <ele>751</ele>
        <time>2021-03-13T14:12:04Z</time>
      </trkpt>
      <trkpt lat="42.99328" lon="0.8183">
        <ele>751</ele>
        <time>2021-03-13T14:12:05Z</time>
      </trkpt>
      <trkpt lat="42.99325" lon="0.81824">
        <ele>750</ele>
        <time>2021-03-13T14:12:06Z</time>
      </trkpt>
      <trkpt lat="42.99325" lon="0.81824">
        <ele>749</ele>
        <time>2021-03-13T14:12:07Z</time>
      </trkpt>
      <trkpt lat="42.99322" lon="0.8182">
        <ele>748</ele>
        <time>2021-03-13T14:12:08Z</time>
      </trkpt>
      <trkpt lat="42.9932" lon="0.81816">
        <ele>748</ele>
        <time>2021-03-13T14:12:09Z</time>
      </trkpt>
      <trkpt lat="42.99318" lon="0.81812">
        <ele>747</ele>
        <time>2021-03-13T14:12:10Z</time>
      </trkpt>
      <trkpt lat="42.99318" lon="0.8181">
        <ele>747</ele>
        <time>2021-03-13T14:12:11Z</time>
      </trkpt>
      <trkpt lat="42.99319" lon="0.81807">
        <ele>746</ele>
        <time>2021-03-13T14:12:12Z</time>
      </trkpt>
      <trkpt lat="42.9932" lon="0.81804">
        <ele>747</ele>
        <time>2021-03-13T14:12:13Z</time>
      </trkpt>
      <trkpt lat="42.9932" lon="0.81801">
        <ele>747</ele>
        <time>2021-03-13T14:12:14Z</time>
      </trkpt>
      <trkpt lat="42.99321" lon="0.81798">
        <ele>747</ele>
        <time>2021-03-13T14:12:15Z</time>
      </trkpt>
      <trkpt lat="42.99326" lon="0.81798">
        <ele>745</ele>
        <time>2021-03-13T14:12:16Z</time>
      </trkpt>
      <trkpt lat="42.9933" lon="0.81797">
        <ele>744</ele>
        <time>2021-03-13T14:12:17Z</time>
      </trkpt>
      <trkpt lat="42.99335" lon="0.81796">
        <ele>744</ele>
        <time>2021-03-13T14:12:18Z</time>
      </trkpt>
      <trkpt lat="42.99342" lon="0.81793">
        <ele>745</ele>
        <time>2021-03-13T14:12:19Z</time>
      </trkpt>
      <trkpt lat="42.99349" lon="0.81789">
        <ele>745</ele>
        <time>2021-03-13T14:12:20Z</time>
      </trkpt>
      <trkpt lat="42.99355" lon="0.81785">
        <ele>745</ele>
        <time>2021-03-13T14:12:21Z</time>
      </trkpt>
      <trkpt lat="42.99365" lon="0.8178">
        <ele>745</ele>
        <time>2021-03-13T14:12:22Z</time>
      </trkpt>
      <trkpt lat="42.99367" lon="0.81779">
        <ele>745</ele>
        <time>2021-03-13T14:12:23Z</time>
      </trkpt>
      <trkpt lat="42.99376" lon="0.81775">
        <ele>745</ele>
        <time>2021-03-13T14:12:24Z</time>
      </trkpt>
      <trkpt lat="42.99378" lon="0.81773">
        <ele>742</ele>
        <time>2021-03-13T14:12:25Z</time>
      </trkpt>
      <trkpt lat="42.99386" lon="0.81768">
        <ele>742</ele>
        <time>2021-03-13T14:12:26Z</time>
      </trkpt>
      <trkpt lat="42.99388" lon="0.81766">
        <ele>742</ele>
        <time>2021-03-13T14:12:27Z</time>
      </trkpt>
      <trkpt lat="42.99392" lon="0.81763">
        <ele>742</ele>
        <time>2021-03-13T14:12:28Z</time>
      </trkpt>
      <trkpt lat="42.99392" lon="0.81763">
        <ele>742</ele>
        <time>2021-03-13T14:12:29Z</time>
      </trkpt>
      <trkpt lat="42.99399" lon="0.81753">
        <ele>740</ele>
        <time>2021-03-13T14:12:30Z</time>
      </trkpt>
      <trkpt lat="42.99399" lon="0.81753">
        <ele>740</ele>
        <time>2021-03-13T14:12:31Z</time>
      </trkpt>
      <trkpt lat="42.99402" lon="0.81739">
        <ele>740</ele>
        <time>2021-03-13T14:12:32Z</time>
      </trkpt>
      <trkpt lat="42.99402" lon="0.81739">
        <ele>740</ele>
        <time>2021-03-13T14:12:33Z</time>
      </trkpt>
      <trkpt lat="42.99399" lon="0.81732">
        <ele>740</ele>
        <time>2021-03-13T14:12:34Z</time>
      </trkpt>
      <trkpt lat="42.99396" lon="0.81724">
        <ele>739</ele>
        <time>2021-03-13T14:12:35Z</time>
      </trkpt>
      <trkpt lat="42.99393" lon="0.81717">
        <ele>739</ele>
        <time>2021-03-13T14:12:36Z</time>
      </trkpt>
      <trkpt lat="42.99387" lon="0.81712">
        <ele>739</ele>
        <time>2021-03-13T14:12:37Z</time>
      </trkpt>
      <trkpt lat="42.99387" lon="0.81712">
        <ele>739</ele>
        <time>2021-03-13T14:12:38Z</time>
      </trkpt>
      <trkpt lat="42.99384" lon="0.81709">
        <ele>739</ele>
        <time>2021-03-13T14:12:39Z</time>
      </trkpt>
      <trkpt lat="42.9938" lon="0.81706">
        <ele>738</ele>
        <time>2021-03-13T14:12:40Z</time>
      </trkpt>
      <trkpt lat="42.99377" lon="0.81703">
        <ele>739</ele>
        <time>2021-03-13T14:12:41Z</time>
      </trkpt>
      <trkpt lat="42.99374" lon="0.81701">
        <ele>739</ele>
        <time>2021-03-13T14:12:42Z</time>
      </trkpt>
      <trkpt lat="42.99372" lon="0.81699">
        <ele>739</ele>
        <time>2021-03-13T14:12:43Z</time>
      </trkpt>
      <trkpt lat="42.9937" lon="0.81696">
        <ele>739</ele>
        <time>2021-03-13T14:12:44Z</time>
      </trkpt>
      <trkpt lat="42.99368" lon="0.81694">
        <ele>739</ele>
        <time>2021-03-13T14:12:45Z</time>
      </trkpt>
      <trkpt lat="42.99366" lon="0.81691">
        <ele>739</ele>
        <time>2021-03-13T14:12:46Z</time>
      </trkpt>
      <trkpt lat="42.9936" lon="0.81684">
        <ele>739</ele>
        <time>2021-03-13T14:12:47Z</time>
      </trkpt>
      <trkpt lat="42.99355" lon="0.81677">
        <ele>739</ele>
        <time>2021-03-13T14:12:48Z</time>
      </trkpt>
      <trkpt lat="42.9935" lon="0.8167">
        <ele>739</ele>
        <time>2021-03-13T14:12:49Z</time>
      </trkpt>
      <trkpt lat="42.99343" lon="0.8166">
        <ele>736</ele>
        <time>2021-03-13T14:12:50Z</time>
      </trkpt>
      <trkpt lat="42.9934" lon="0.81656">
        <ele>736</ele>
        <time>2021-03-13T14:12:51Z</time>
      </trkpt>
      <trkpt lat="42.99333" lon="0.81644">
        <ele>736</ele>
        <time>2021-03-13T14:12:52Z</time>
      </trkpt>
      <trkpt lat="42.99331" lon="0.8164">
        <ele>736</ele>
        <time>2021-03-13T14:12:53Z</time>
      </trkpt>
      <trkpt lat="42.99326" lon="0.81627">
        <ele>736</ele>
        <time>2021-03-13T14:12:54Z</time>
      </trkpt>
      <trkpt lat="42.99325" lon="0.81623">
        <ele>734</ele>
        <time>2021-03-13T14:12:55Z</time>
      </trkpt>
      <trkpt lat="42.99323" lon="0.81615">
        <ele>734</ele>
        <time>2021-03-13T14:12:56Z</time>
      </trkpt>
      <trkpt lat="42.99323" lon="0.81615">
        <ele>734</ele>
        <time>2021-03-13T14:12:57Z</time>
      </trkpt>
      <trkpt lat="42.99322" lon="0.81608">
        <ele>734</ele>
        <time>2021-03-13T14:12:58Z</time>
      </trkpt>
      <trkpt lat="42.99321" lon="0.81602">
        <ele>734</ele>
        <time>2021-03-13T14:12:59Z</time>
      </trkpt>
      <trkpt lat="42.9932" lon="0.81596">
        <ele>731</ele>
        <time>2021-03-13T14:13:00Z</time>
      </trkpt>
      <trkpt lat="42.99318" lon="0.81588">
        <ele>731</ele>
        <time>2021-03-13T14:13:01Z</time>
      </trkpt>
      <trkpt lat="42.99315" lon="0.81581">
        <ele>731</ele>
        <time>2021-03-13T14:13:02Z</time>
      </trkpt>
      <trkpt lat="42.99313" lon="0.81574">
        <ele>731</ele>
        <time>2021-03-13T14:13:03Z</time>
      </trkpt>
      <trkpt lat="42.99309" lon="0.81569">
        <ele>731</ele>
        <time>2021-03-13T14:13:04Z</time>
      </trkpt>
      <trkpt lat="42.99309" lon="0.81569">
        <ele>731</ele>
        <time>2021-03-13T14:13:05Z</time>
      </trkpt>
      <trkpt lat="42.99306" lon="0.81564">
        <ele>731</ele>
        <time>2021-03-13T14:13:06Z</time>
      </trkpt>
      <trkpt lat="42.99303" lon="0.8156">
        <ele>731</ele>
        <time>2021-03-13T14:13:07Z</time>
      </trkpt>
      <trkpt lat="42.993" lon="0.81556">
        <ele>731</ele>
        <time>2021-03-13T14:13:08Z</time>
      </trkpt>
      <trkpt lat="42.99299" lon="0.81551">
        <ele>731</ele>
        <time>2021-03-13T14:13:09Z</time>
      </trkpt>
      <trkpt lat="42.99297" lon="0.81546">
        <ele>731</ele>
        <time>2021-03-13T14:13:10Z</time>
      </trkpt>
      <trkpt lat="42.99296" lon="0.81541">
        <ele>731</ele>
        <time>2021-03-13T14:13:11Z</time>
      </trkpt>
      <trkpt lat="42.99296" lon="0.81535">
        <ele>731</ele>
        <time>2021-03-13T14:13:12Z</time>
      </trkpt>
      <trkpt lat="42.99296" lon="0.81529">
        <ele>731</ele>
        <time>2021-03-13T14:13:13Z</time>
      </trkpt>
      <trkpt lat="42.99296" lon="0.81523">
        <ele>731</ele>
        <time>2021-03-13T14:13:14Z</time>
      </trkpt>
      <trkpt lat="42.99296" lon="0.81517">
        <ele>731</ele>
        <time>2021-03-13T14:13:15Z</time>
      </trkpt>
      <trkpt lat="42.99296" lon="0.81511">
        <ele>731</ele>
        <time>2021-03-13T14:13:16Z</time>
      </trkpt>
      <trkpt lat="42.99296" lon="0.81506">
        <ele>731</ele>
        <time>2021-03-13T14:13:17Z</time>
      </trkpt>
      <trkpt lat="42.99294" lon="0.81501">
        <ele>731</ele>
        <time>2021-03-13T14:13:18Z</time>
      </trkpt>
      <trkpt lat="42.99293" lon="0.81496">
        <ele>731</ele>
        <time>2021-03-13T14:13:19Z</time>
      </trkpt>
      <trkpt lat="42.99291" lon="0.81491">
        <ele>730</ele>
        <time>2021-03-13T14:13:20Z</time>
      </trkpt>
      <trkpt lat="42.9929" lon="0.81487">
        <ele>730</ele>
        <time>2021-03-13T14:13:21Z</time>
      </trkpt>
      <trkpt lat="42.9929" lon="0.81484">
        <ele>730</ele>
        <time>2021-03-13T14:13:22Z</time>
      </trkpt>
      <trkpt lat="42.99289" lon="0.8148">
        <ele>730</ele>
        <time>2021-03-13T14:13:23Z</time>
      </trkpt>
      <trkpt lat="42.99288" lon="0.81477">
        <ele>730</ele>
        <time>2021-03-13T14:13:24Z</time>
      </trkpt>
      <trkpt lat="42.99288" lon="0.81473">
        <ele>730</ele>
        <time>2021-03-13T14:13:25Z</time>
      </trkpt>
      <trkpt lat="42.99288" lon="0.8147">
        <ele>730</ele>
        <time>2021-03-13T14:13:26Z</time>
      </trkpt>
      <trkpt lat="42.99288" lon="0.81466">
        <ele>730</ele>
        <time>2021-03-13T14:13:27Z</time>
      </trkpt>
      <trkpt lat="42.99288" lon="0.81462">
        <ele>730</ele>
        <time>2021-03-13T14:13:28Z</time>
      </trkpt>
      <trkpt lat="42.99287" lon="0.81459">
        <ele>730</ele>
        <time>2021-03-13T14:13:29Z</time>
      </trkpt>
      <trkpt lat="42.99286" lon="0.81455">
        <ele>731</ele>
        <time>2021-03-13T14:13:30Z</time>
      </trkpt>
      <trkpt lat="42.99285" lon="0.81451">
        <ele>731</ele>
        <time>2021-03-13T14:13:31Z</time>
      </trkpt>
      <trkpt lat="42.99284" lon="0.81447">
        <ele>731</ele>
        <time>2021-03-13T14:13:32Z</time>
      </trkpt>
      <trkpt lat="42.99283" lon="0.81442">
        <ele>731</ele>
        <time>2021-03-13T14:13:33Z</time>
      </trkpt>
      <trkpt lat="42.99282" lon="0.81437">
        <ele>731</ele>
        <time>2021-03-13T14:13:34Z</time>
      </trkpt>
      <trkpt lat="42.9928" lon="0.81432">
        <ele>731</ele>
        <time>2021-03-13T14:13:35Z</time>
      </trkpt>
      <trkpt lat="42.99278" lon="0.81427">
        <ele>731</ele>
        <time>2021-03-13T14:13:36Z</time>
      </trkpt>
      <trkpt lat="42.99276" lon="0.81421">
        <ele>731</ele>
        <time>2021-03-13T14:13:37Z</time>
      </trkpt>
      <trkpt lat="42.99274" lon="0.81415">
        <ele>731</ele>
        <time>2021-03-13T14:13:38Z</time>
      </trkpt>
      <trkpt lat="42.99273" lon="0.8141">
        <ele>731</ele>
        <time>2021-03-13T14:13:39Z</time>
      </trkpt>
      <trkpt lat="42.99271" lon="0.81404">
        <ele>732</ele>
        <time>2021-03-13T14:13:40Z</time>
      </trkpt>
      <trkpt lat="42.99269" lon="0.81398">
        <ele>732</ele>
        <time>2021-03-13T14:13:41Z</time>
      </trkpt>
      <trkpt lat="42.99269" lon="0.81393">
        <ele>732</ele>
        <time>2021-03-13T14:13:42Z</time>
      </trkpt>
      <trkpt lat="42.99269" lon="0.81388">
        <ele>732</ele>
        <time>2021-03-13T14:13:43Z</time>
      </trkpt>
      <trkpt lat="42.99269" lon="0.81382">
        <ele>732</ele>
        <time>2021-03-13T14:13:44Z</time>
      </trkpt>
      <trkpt lat="42.99271" lon="0.81379">
        <ele>732</ele>
        <time>2021-03-13T14:13:45Z</time>
      </trkpt>
      <trkpt lat="42.99272" lon="0.81375">
        <ele>732</ele>
        <time>2021-03-13T14:13:46Z</time>
      </trkpt>
      <trkpt lat="42.99273" lon="0.81372">
        <ele>732</ele>
        <time>2021-03-13T14:13:47Z</time>
      </trkpt>
      <trkpt lat="42.99275" lon="0.81369">
        <ele>732</ele>
        <time>2021-03-13T14:13:48Z</time>
      </trkpt>
      <trkpt lat="42.99277" lon="0.81365">
        <ele>732</ele>
        <time>2021-03-13T14:13:49Z</time>
      </trkpt>
      <trkpt lat="42.99279" lon="0.81362">
        <ele>733</ele>
        <time>2021-03-13T14:13:50Z</time>
      </trkpt>
      <trkpt lat="42.99281" lon="0.81358">
        <ele>733</ele>
        <time>2021-03-13T14:13:51Z</time>
      </trkpt>
      <trkpt lat="42.99284" lon="0.81355">
        <ele>733</ele>
        <time>2021-03-13T14:13:52Z</time>
      </trkpt>
      <trkpt lat="42.99285" lon="0.81351">
        <ele>733</ele>
        <time>2021-03-13T14:13:53Z</time>
      </trkpt>
      <trkpt lat="42.99287" lon="0.81347">
        <ele>733</ele>
        <time>2021-03-13T14:13:54Z</time>
      </trkpt>
      <trkpt lat="42.99289" lon="0.81343">
        <ele>733</ele>
        <time>2021-03-13T14:13:55Z</time>
      </trkpt>
      <trkpt lat="42.99289" lon="0.81339">
        <ele>733</ele>
        <time>2021-03-13T14:13:56Z</time>
      </trkpt>
      <trkpt lat="42.99289" lon="0.81334">
        <ele>733</ele>
        <time>2021-03-13T14:13:57Z</time>
      </trkpt>
      <trkpt lat="42.9929" lon="0.8133">
        <ele>733</ele>
        <time>2021-03-13T14:13:58Z</time>
      </trkpt>
      <trkpt lat="42.9929" lon="0.81326">
        <ele>733</ele>
        <time>2021-03-13T14:13:59Z</time>
      </trkpt>
      <trkpt lat="42.99291" lon="0.81322">
        <ele>736</ele>
        <time>2021-03-13T14:14:00Z</time>
      </trkpt>
      <trkpt lat="42.99292" lon="0.81317">
        <ele>736</ele>
        <time>2021-03-13T14:14:01Z</time>
      </trkpt>
      <trkpt lat="42.99293" lon="0.81313">
        <ele>736</ele>
        <time>2021-03-13T14:14:02Z</time>
      </trkpt>
      <trkpt lat="42.99293" lon="0.81308">
        <ele>736</ele>
        <time>2021-03-13T14:14:03Z</time>
      </trkpt>
      <trkpt lat="42.99293" lon="0.81304">
        <ele>736</ele>
        <time>2021-03-13T14:14:04Z</time>
      </trkpt>
      <trkpt lat="42.99293" lon="0.81299">
        <ele>736</ele>
        <time>2021-03-13T14:14:05Z</time>
      </trkpt>
      <trkpt lat="42.99295" lon="0.81296">
        <ele>736</ele>
        <time>2021-03-13T14:14:06Z</time>
      </trkpt>
      <trkpt lat="42.99296" lon="0.81292">
        <ele>736</ele>
        <time>2021-03-13T14:14:07Z</time>
      </trkpt>
      <trkpt lat="42.99297" lon="0.81289">
        <ele>736</ele>
        <time>2021-03-13T14:14:08Z</time>
      </trkpt>
      <trkpt lat="42.99298" lon="0.81285">
        <ele>736</ele>
        <time>2021-03-13T14:14:09Z</time>
      </trkpt>
      <trkpt lat="42.99299" lon="0.81281">
        <ele>737</ele>
        <time>2021-03-13T14:14:10Z</time>
      </trkpt>
      <trkpt lat="42.99301" lon="0.81277">
        <ele>737</ele>
        <time>2021-03-13T14:14:11Z</time>
      </trkpt>
      <trkpt lat="42.99302" lon="0.81273">
        <ele>737</ele>
        <time>2021-03-13T14:14:12Z</time>
      </trkpt>
      <trkpt lat="42.99304" lon="0.81268">
        <ele>737</ele>
        <time>2021-03-13T14:14:13Z</time>
      </trkpt>
      <trkpt lat="42.99305" lon="0.81264">
        <ele>737</ele>
        <time>2021-03-13T14:14:14Z</time>
      </trkpt>
      <trkpt lat="42.99306" lon="0.81259">
        <ele>737</ele>
        <time>2021-03-13T14:14:15Z</time>
      </trkpt>
      <trkpt lat="42.99307" lon="0.81255">
        <ele>737</ele>
        <time>2021-03-13T14:14:16Z</time>
      </trkpt>
      <trkpt lat="42.99309" lon="0.8125">
        <ele>737</ele>
        <time>2021-03-13T14:14:17Z</time>
      </trkpt>
      <trkpt lat="42.9931" lon="0.81245">
        <ele>737</ele>
        <time>2021-03-13T14:14:18Z</time>
      </trkpt>
      <trkpt lat="42.9931" lon="0.81237">
        <ele>737</ele>
        <time>2021-03-13T14:14:19Z</time>
      </trkpt>
      <trkpt lat="42.9931" lon="0.81229">
        <ele>737</ele>
        <time>2021-03-13T14:14:20Z</time>
      </trkpt>
      <trkpt lat="42.99311" lon="0.81221">
        <ele>737</ele>
        <time>2021-03-13T14:14:21Z</time>
      </trkpt>
      <trkpt lat="42.9931" lon="0.8121">
        <ele>737</ele>
        <time>2021-03-13T14:14:22Z</time>
      </trkpt>
      <trkpt lat="42.9931" lon="0.81206">
        <ele>737</ele>
        <time>2021-03-13T14:14:23Z</time>
      </trkpt>
      <trkpt lat="42.99308" lon="0.81195">
        <ele>737</ele>
        <time>2021-03-13T14:14:24Z</time>
      </trkpt>
      <trkpt lat="42.99308" lon="0.81192">
        <ele>737</ele>
        <time>2021-03-13T14:14:25Z</time>
      </trkpt>
      <trkpt lat="42.99307" lon="0.81185">
        <ele>737</ele>
        <time>2021-03-13T14:14:26Z</time>
      </trkpt>
      <trkpt lat="42.99307" lon="0.81185">
        <ele>737</ele>
        <time>2021-03-13T14:14:27Z</time>
      </trkpt>
      <trkpt lat="42.99307" lon="0.81167">
        <ele>737</ele>
        <time>2021-03-13T14:14:28Z</time>
      </trkpt>
      <trkpt lat="42.99307" lon="0.81163">
        <ele>737</ele>
        <time>2021-03-13T14:14:29Z</time>
      </trkpt>
      <trkpt lat="42.99305" lon="0.81156">
        <ele>735</ele>
        <time>2021-03-13T14:14:30Z</time>
      </trkpt>
      <trkpt lat="42.99305" lon="0.81156">
        <ele>735</ele>
        <time>2021-03-13T14:14:31Z</time>
      </trkpt>
      <trkpt lat="42.99304" lon="0.8115">
        <ele>735</ele>
        <time>2021-03-13T14:14:32Z</time>
      </trkpt>
      <trkpt lat="42.99303" lon="0.81144">
        <ele>735</ele>
        <time>2021-03-13T14:14:33Z</time>
      </trkpt>
      <trkpt lat="42.99301" lon="0.81138">
        <ele>735</ele>
        <time>2021-03-13T14:14:34Z</time>
      </trkpt>
      <trkpt lat="42.99301" lon="0.81134">
        <ele>735</ele>
        <time>2021-03-13T14:14:35Z</time>
      </trkpt>
      <trkpt lat="42.993" lon="0.8113">
        <ele>735</ele>
        <time>2021-03-13T14:14:36Z</time>
      </trkpt>
      <trkpt lat="42.99299" lon="0.81127">
        <ele>735</ele>
        <time>2021-03-13T14:14:37Z</time>
      </trkpt>
      <trkpt lat="42.99298" lon="0.81123">
        <ele>735</ele>
        <time>2021-03-13T14:14:38Z</time>
      </trkpt>
      <trkpt lat="42.99298" lon="0.81119">
        <ele>735</ele>
        <time>2021-03-13T14:14:39Z</time>
      </trkpt>
      <trkpt lat="42.99298" lon="0.81116">
        <ele>735</ele>
        <time>2021-03-13T14:14:40Z</time>
      </trkpt>
      <trkpt lat="42.99298" lon="0.81113">
        <ele>735</ele>
        <time>2021-03-13T14:14:41Z</time>
      </trkpt>
      <trkpt lat="42.99298" lon="0.81109">
        <ele>735</ele>
        <time>2021-03-13T14:14:42Z</time>
      </trkpt>
      <trkpt lat="42.99298" lon="0.81106">
        <ele>735</ele>
        <time>2021-03-13T14:14:43Z</time>
      </trkpt>
      <trkpt lat="42.99298" lon="0.81102">
        <ele>735</ele>
        <time>2021-03-13T14:14:44Z</time>
      </trkpt>
      <trkpt lat="42.99299" lon="0.81098">
        <ele>735</ele>
        <time>2021-03-13T14:14:45Z</time>
      </trkpt>
      <trkpt lat="42.99299" lon="0.81094">
        <ele>735</ele>
        <time>2021-03-13T14:14:46Z</time>
      </trkpt>
      <trkpt lat="42.99299" lon="0.8109">
        <ele>735</ele>
        <time>2021-03-13T14:14:47Z</time>
      </trkpt>
      <trkpt lat="42.99298" lon="0.81087">
        <ele>735</ele>
        <time>2021-03-13T14:14:48Z</time>
      </trkpt>
      <trkpt lat="42.99297" lon="0.81083">
        <ele>735</ele>
        <time>2021-03-13T14:14:49Z</time>
      </trkpt>
      <trkpt lat="42.99296" lon="0.81079">
        <ele>737</ele>
        <time>2021-03-13T14:14:50Z</time>
      </trkpt>
      <trkpt lat="42.99296" lon="0.81076">
        <ele>737</ele>
        <time>2021-03-13T14:14:51Z</time>
      </trkpt>
      <trkpt lat="42.99295" lon="0.81071">
        <ele>737</ele>
        <time>2021-03-13T14:14:52Z</time>
      </trkpt>
      <trkpt lat="42.99295" lon="0.81067">
        <ele>737</ele>
        <time>2021-03-13T14:14:53Z</time>
      </trkpt>
      <trkpt lat="42.99295" lon="0.81062">
        <ele>737</ele>
        <time>2021-03-13T14:14:54Z</time>
      </trkpt>
      <trkpt lat="42.99294" lon="0.81058">
        <ele>737</ele>
        <time>2021-03-13T14:14:55Z</time>
      </trkpt>
      <trkpt lat="42.99294" lon="0.81054">
        <ele>737</ele>
        <time>2021-03-13T14:14:56Z</time>
      </trkpt>
      <trkpt lat="42.99294" lon="0.81049">
        <ele>737</ele>
        <time>2021-03-13T14:14:57Z</time>
      </trkpt>
      <trkpt lat="42.99295" lon="0.81046">
        <ele>737</ele>
        <time>2021-03-13T14:14:58Z</time>
      </trkpt>
      <trkpt lat="42.99295" lon="0.81042">
        <ele>737</ele>
        <time>2021-03-13T14:14:59Z</time>
      </trkpt>
      <trkpt lat="42.99296" lon="0.81039">
        <ele>730</ele>
        <time>2021-03-13T14:15:00Z</time>
      </trkpt>
      <trkpt lat="42.99298" lon="0.81036">
        <ele>730</ele>
        <time>2021-03-13T14:15:01Z</time>
      </trkpt>
      <trkpt lat="42.993" lon="0.81034">
        <ele>730</ele>
        <time>2021-03-13T14:15:02Z</time>
      </trkpt>
      <trkpt lat="42.99302" lon="0.81031">
        <ele>728</ele>
        <time>2021-03-13T14:15:03Z</time>
      </trkpt>
      <trkpt lat="42.99304" lon="0.81029">
        <ele>727</ele>
        <time>2021-03-13T14:15:04Z</time>
      </trkpt>
      <trkpt lat="42.99306" lon="0.81025">
        <ele>725</ele>
        <time>2021-03-13T14:15:05Z</time>
      </trkpt>
      <trkpt lat="42.99308" lon="0.81021">
        <ele>724</ele>
        <time>2021-03-13T14:15:06Z</time>
      </trkpt>
      <trkpt lat="42.99309" lon="0.81017">
        <ele>724</ele>
        <time>2021-03-13T14:15:07Z</time>
      </trkpt>
      <trkpt lat="42.99311" lon="0.81014">
        <ele>723</ele>
        <time>2021-03-13T14:15:08Z</time>
      </trkpt>
      <trkpt lat="42.99313" lon="0.8101">
        <ele>722</ele>
        <time>2021-03-13T14:15:09Z</time>
      </trkpt>
      <trkpt lat="42.99315" lon="0.81007">
        <ele>722</ele>
        <time>2021-03-13T14:15:10Z</time>
      </trkpt>
      <trkpt lat="42.99317" lon="0.81004">
        <ele>720</ele>
        <time>2021-03-13T14:15:11Z</time>
      </trkpt>
      <trkpt lat="42.99317" lon="0.81">
        <ele>719</ele>
        <time>2021-03-13T14:15:12Z</time>
      </trkpt>
      <trkpt lat="42.99318" lon="0.80996">
        <ele>718</ele>
        <time>2021-03-13T14:15:13Z</time>
      </trkpt>
      <trkpt lat="42.99318" lon="0.80992">
        <ele>717</ele>
        <time>2021-03-13T14:15:14Z</time>
      </trkpt>
      <trkpt lat="42.99319" lon="0.80988">
        <ele>716</ele>
        <time>2021-03-13T14:15:15Z</time>
      </trkpt>
      <trkpt lat="42.9932" lon="0.80982">
        <ele>715</ele>
        <time>2021-03-13T14:15:16Z</time>
      </trkpt>
      <trkpt lat="42.99321" lon="0.80976">
        <ele>714</ele>
        <time>2021-03-13T14:15:17Z</time>
      </trkpt>
      <trkpt lat="42.99321" lon="0.8097">
        <ele>714</ele>
        <time>2021-03-13T14:15:18Z</time>
      </trkpt>
      <trkpt lat="42.99322" lon="0.80965">
        <ele>713</ele>
        <time>2021-03-13T14:15:19Z</time>
      </trkpt>
      <trkpt lat="42.99322" lon="0.80959">
        <ele>711</ele>
        <time>2021-03-13T14:15:20Z</time>
      </trkpt>
      <trkpt lat="42.99323" lon="0.80953">
        <ele>710</ele>
        <time>2021-03-13T14:15:21Z</time>
      </trkpt>
      <trkpt lat="42.99324" lon="0.80948">
        <ele>709</ele>
        <time>2021-03-13T14:15:22Z</time>
      </trkpt>
      <trkpt lat="42.99325" lon="0.80943">
        <ele>708</ele>
        <time>2021-03-13T14:15:23Z</time>
      </trkpt>
      <trkpt lat="42.99327" lon="0.80939">
        <ele>707</ele>
        <time>2021-03-13T14:15:24Z</time>
      </trkpt>
      <trkpt lat="42.99328" lon="0.80934">
        <ele>706</ele>
        <time>2021-03-13T14:15:25Z</time>
      </trkpt>
      <trkpt lat="42.9933" lon="0.8093">
        <ele>706</ele>
        <time>2021-03-13T14:15:26Z</time>
      </trkpt>
      <trkpt lat="42.99331" lon="0.80926">
        <ele>704</ele>
        <time>2021-03-13T14:15:27Z</time>
      </trkpt>
      <trkpt lat="42.99333" lon="0.80922">
        <ele>703</ele>
        <time>2021-03-13T14:15:28Z</time>
      </trkpt>
      <trkpt lat="42.99335" lon="0.80917">
        <ele>702</ele>
        <time>2021-03-13T14:15:29Z</time>
      </trkpt>
      <trkpt lat="42.99337" lon="0.80913">
        <ele>701</ele>
        <time>2021-03-13T14:15:30Z</time>
      </trkpt>
      <trkpt lat="42.9934" lon="0.80911">
        <ele>700</ele>
        <time>2021-03-13T14:15:31Z</time>
      </trkpt>
      <trkpt lat="42.99344" lon="0.80908">
        <ele>698</ele>
        <time>2021-03-13T14:15:32Z</time>
      </trkpt>
      <trkpt lat="42.99347" lon="0.80905">
        <ele>697</ele>
        <time>2021-03-13T14:15:33Z</time>
      </trkpt>
      <trkpt lat="42.9935" lon="0.80902">
        <ele>697</ele>
        <time>2021-03-13T14:15:34Z</time>
      </trkpt>
      <trkpt lat="42.99354" lon="0.80898">
        <ele>696</ele>
        <time>2021-03-13T14:15:35Z</time>
      </trkpt>
      <trkpt lat="42.99357" lon="0.80894">
        <ele>694</ele>
        <time>2021-03-13T14:15:36Z</time>
      </trkpt>
      <trkpt lat="42.99355" lon="0.8089">
        <ele>693</ele>
        <time>2021-03-13T14:15:37Z</time>
      </trkpt>
      <trkpt lat="42.99353" lon="0.80886">
        <ele>692</ele>
        <time>2021-03-13T14:15:38Z</time>
      </trkpt>
      <trkpt lat="42.9935" lon="0.80882">
        <ele>691</ele>
        <time>2021-03-13T14:15:39Z</time>
      </trkpt>
      <trkpt lat="42.99348" lon="0.80878">
        <ele>690</ele>
        <time>2021-03-13T14:15:40Z</time>
      </trkpt>
      <trkpt lat="42.99346" lon="0.80874">
        <ele>688</ele>
        <time>2021-03-13T14:15:41Z</time>
      </trkpt>
      <trkpt lat="42.99342" lon="0.8087">
        <ele>688</ele>
        <time>2021-03-13T14:15:42Z</time>
      </trkpt>
      <trkpt lat="42.99342" lon="0.8087">
        <ele>688</ele>
        <time>2021-03-13T14:15:43Z</time>
      </trkpt>
      <trkpt lat="42.9934" lon="0.80866">
        <ele>687</ele>
        <time>2021-03-13T14:15:44Z</time>
      </trkpt>
      <trkpt lat="42.99338" lon="0.80863">
        <ele>686</ele>
        <time>2021-03-13T14:15:45Z</time>
      </trkpt>
      <trkpt lat="42.99337" lon="0.8086">
        <ele>685</ele>
        <time>2021-03-13T14:15:46Z</time>
      </trkpt>
      <trkpt lat="42.99337" lon="0.80857">
        <ele>684</ele>
        <time>2021-03-13T14:15:47Z</time>
      </trkpt>
      <trkpt lat="42.99338" lon="0.80854">
        <ele>683</ele>
        <time>2021-03-13T14:15:48Z</time>
      </trkpt>
      <trkpt lat="42.99338" lon="0.80851">
        <ele>683</ele>
        <time>2021-03-13T14:15:49Z</time>
      </trkpt>
      <trkpt lat="42.99339" lon="0.80848">
        <ele>683</ele>
        <time>2021-03-13T14:15:50Z</time>
      </trkpt>
      <trkpt lat="42.99339" lon="0.80846">
        <ele>681</ele>
        <time>2021-03-13T14:15:51Z</time>
      </trkpt>
      <trkpt lat="42.99338" lon="0.80843">
        <ele>681</ele>
        <time>2021-03-13T14:15:52Z</time>
      </trkpt>
      <trkpt lat="42.99338" lon="0.80841">
        <ele>681</ele>
        <time>2021-03-13T14:15:53Z</time>
      </trkpt>
      <trkpt lat="42.99337" lon="0.80838">
        <ele>679</ele>
        <time>2021-03-13T14:15:54Z</time>
      </trkpt>
      <trkpt lat="42.99337" lon="0.80835">
        <ele>679</ele>
        <time>2021-03-13T14:15:55Z</time>
      </trkpt>
      <trkpt lat="42.99337" lon="0.80832">
        <ele>679</ele>
        <time>2021-03-13T14:15:56Z</time>
      </trkpt>
      <trkpt lat="42.99337" lon="0.80829">
        <ele>678</ele>
        <time>2021-03-13T14:15:57Z</time>
      </trkpt>
      <trkpt lat="42.99337" lon="0.80826">
        <ele>676</ele>
        <time>2021-03-13T14:15:58Z</time>
      </trkpt>
      <trkpt lat="42.99337" lon="0.80824">
        <ele>676</ele>
        <time>2021-03-13T14:15:59Z</time>
      </trkpt>
      <trkpt lat="42.99336" lon="0.80822">
        <ele>675</ele>
        <time>2021-03-13T14:16:00Z</time>
      </trkpt>
      <trkpt lat="42.99336" lon="0.80821">
        <ele>675</ele>
        <time>2021-03-13T14:16:01Z</time>
      </trkpt>
      <trkpt lat="42.99335" lon="0.80819">
        <ele>674</ele>
        <time>2021-03-13T14:16:02Z</time>
      </trkpt>
      <trkpt lat="42.99335" lon="0.80817">
        <ele>673</ele>
        <time>2021-03-13T14:16:03Z</time>
      </trkpt>
      <trkpt lat="42.99334" lon="0.80814">
        <ele>672</ele>
        <time>2021-03-13T14:16:04Z</time>
      </trkpt>
      <trkpt lat="42.99334" lon="0.80811">
        <ele>672</ele>
        <time>2021-03-13T14:16:05Z</time>
      </trkpt>
      <trkpt lat="42.99334" lon="0.80808">
        <ele>671</ele>
        <time>2021-03-13T14:16:06Z</time>
      </trkpt>
      <trkpt lat="42.99334" lon="0.80805">
        <ele>670</ele>
        <time>2021-03-13T14:16:07Z</time>
      </trkpt>
      <trkpt lat="42.99333" lon="0.80802">
        <ele>670</ele>
        <time>2021-03-13T14:16:08Z</time>
      </trkpt>
      <trkpt lat="42.99333" lon="0.80797">
        <ele>670</ele>
        <time>2021-03-13T14:16:09Z</time>
      </trkpt>
      <trkpt lat="42.99332" lon="0.80792">
        <ele>669</ele>
        <time>2021-03-13T14:16:10Z</time>
      </trkpt>
      <trkpt lat="42.99332" lon="0.80786">
        <ele>668</ele>
        <time>2021-03-13T14:16:11Z</time>
      </trkpt>
      <trkpt lat="42.99332" lon="0.80781">
        <ele>666</ele>
        <time>2021-03-13T14:16:12Z</time>
      </trkpt>
      <trkpt lat="42.99333" lon="0.80776">
        <ele>665</ele>
        <time>2021-03-13T14:16:13Z</time>
      </trkpt>
      <trkpt lat="42.99333" lon="0.8077">
        <ele>665</ele>
        <time>2021-03-13T14:16:14Z</time>
      </trkpt>
      <trkpt lat="42.99333" lon="0.80764">
        <ele>664</ele>
        <time>2021-03-13T14:16:15Z</time>
      </trkpt>
      <trkpt lat="42.99334" lon="0.80758">
        <ele>663</ele>
        <time>2021-03-13T14:16:16Z</time>
      </trkpt>
      <trkpt lat="42.99334" lon="0.80753">
        <ele>662</ele>
        <time>2021-03-13T14:16:17Z</time>
      </trkpt>
      <trkpt lat="42.99336" lon="0.80749">
        <ele>661</ele>
        <time>2021-03-13T14:16:18Z</time>
      </trkpt>
      <trkpt lat="42.99339" lon="0.80746">
        <ele>660</ele>
        <time>2021-03-13T14:16:19Z</time>
      </trkpt>
      <trkpt lat="42.99341" lon="0.80743">
        <ele>659</ele>
        <time>2021-03-13T14:16:20Z</time>
      </trkpt>
      <trkpt lat="42.99341" lon="0.8074">
        <ele>658</ele>
        <time>2021-03-13T14:16:21Z</time>
      </trkpt>
      <trkpt lat="42.9934" lon="0.80736">
        <ele>657</ele>
        <time>2021-03-13T14:16:22Z</time>
      </trkpt>
      <trkpt lat="42.9934" lon="0.80733">
        <ele>656</ele>
        <time>2021-03-13T14:16:23Z</time>
      </trkpt>
      <trkpt lat="42.9934" lon="0.80731">
        <ele>656</ele>
        <time>2021-03-13T14:16:24Z</time>
      </trkpt>
      <trkpt lat="42.99339" lon="0.80728">
        <ele>656</ele>
        <time>2021-03-13T14:16:25Z</time>
      </trkpt>
      <trkpt lat="42.99339" lon="0.80726">
        <ele>655</ele>
        <time>2021-03-13T14:16:26Z</time>
      </trkpt>
      <trkpt lat="42.99338" lon="0.80724">
        <ele>655</ele>
        <time>2021-03-13T14:16:27Z</time>
      </trkpt>
      <trkpt lat="42.99338" lon="0.80724">
        <ele>655</ele>
        <time>2021-03-13T14:16:28Z</time>
      </trkpt>
      <trkpt lat="42.99338" lon="0.80724">
        <ele>655</ele>
        <time>2021-03-13T14:16:29Z</time>
      </trkpt>
      <trkpt lat="42.99338" lon="0.80724">
        <ele>655</ele>
        <time>2021-03-13T14:16:30Z</time>
      </trkpt>
      <trkpt lat="42.99338" lon="0.80724">
        <ele>655</ele>
        <time>2021-03-13T14:16:31Z</time>
      </trkpt>
      <trkpt lat="42.99338" lon="0.80724">
        <ele>655</ele>
        <time>2021-03-13T14:16:32Z</time>
      </trkpt>
      <trkpt lat="42.99338" lon="0.80724">
        <ele>655</ele>
        <time>2021-03-13T14:16:33Z</time>
      </trkpt>
      <trkpt lat="42.99338" lon="0.80724">
        <ele>655</ele>
        <time>2021-03-13T14:16:34Z</time>
      </trkpt>
      <trkpt lat="42.99338" lon="0.80724">
        <ele>655</ele>
        <time>2021-03-13T14:16:35Z</time>
      </trkpt>
      <trkpt lat="42.99338" lon="0.80724">
        <ele>655</ele>
        <time>2021-03-13T14:16:36Z</time>
      </trkpt>
      <trkpt lat="42.99338" lon="0.80724">
        <ele>655</ele>
        <time>2021-03-13T14:16:37Z</time>
      </trkpt>
      <trkpt lat="42.99338" lon="0.80724">
        <ele>655</ele>
        <time>2021-03-13T14:16:38Z</time>
      </trkpt>
      <trkpt lat="42.99338" lon="0.80724">
        <ele>655</ele>
        <time>2021-03-13T14:16:39Z</time>
      </trkpt>
      <trkpt lat="42.99334" lon="0.80726">
        <ele>654</ele>
        <time>2021-03-13T14:16:40Z</time>
      </trkpt>
      <trkpt lat="42.99334" lon="0.80726">
        <ele>654</ele>
        <time>2021-03-13T14:16:41Z</time>
      </trkpt>
      <trkpt lat="42.99334" lon="0.80727">
        <ele>654</ele>
        <time>2021-03-13T14:16:42Z</time>
      </trkpt>
      <trkpt lat="42.99333" lon="0.80728">
        <ele>654</ele>
        <time>2021-03-13T14:16:43Z</time>
      </trkpt>
      <trkpt lat="42.99333" lon="0.80729">
        <ele>654</ele>
        <time>2021-03-13T14:16:44Z</time>
      </trkpt>
      <trkpt lat="42.99332" lon="0.8073">
        <ele>654</ele>
        <time>2021-03-13T14:16:45Z</time>
      </trkpt>
      <trkpt lat="42.99332" lon="0.80731">
        <ele>654</ele>
        <time>2021-03-13T14:16:46Z</time>
      </trkpt>
      <trkpt lat="42.99331" lon="0.80731">
        <ele>654</ele>
        <time>2021-03-13T14:16:47Z</time>
      </trkpt>
      <trkpt lat="42.9933" lon="0.80732">
        <ele>654</ele>
        <time>2021-03-13T14:16:48Z</time>
      </trkpt>
      <trkpt lat="42.99329" lon="0.80732">
        <ele>654</ele>
        <time>2021-03-13T14:16:49Z</time>
      </trkpt>
      <trkpt lat="42.99328" lon="0.80733">
        <ele>656</ele>
        <time>2021-03-13T14:16:50Z</time>
      </trkpt>
      <trkpt lat="42.99328" lon="0.80734">
        <ele>656</ele>
        <time>2021-03-13T14:16:51Z</time>
      </trkpt>
      <trkpt lat="42.99327" lon="0.80734">
        <ele>656</ele>
        <time>2021-03-13T14:16:52Z</time>
      </trkpt>
      <trkpt lat="42.99327" lon="0.80734">
        <ele>656</ele>
        <time>2021-03-13T14:16:53Z</time>
      </trkpt>
      <trkpt lat="42.99327" lon="0.80734">
        <ele>656</ele>
        <time>2021-03-13T14:16:54Z</time>
      </trkpt>
      <trkpt lat="42.99327" lon="0.80734">
        <ele>656</ele>
        <time>2021-03-13T14:16:55Z</time>
      </trkpt>
      <trkpt lat="42.99327" lon="0.80734">
        <ele>656</ele>
        <time>2021-03-13T14:16:56Z</time>
      </trkpt>
      <trkpt lat="42.99327" lon="0.80734">
        <ele>656</ele>
        <time>2021-03-13T14:16:57Z</time>
      </trkpt>
      <trkpt lat="42.99327" lon="0.80734">
        <ele>656</ele>
        <time>2021-03-13T14:16:58Z</time>
      </trkpt>
      <trkpt lat="42.99327" lon="0.80734">
        <ele>656</ele>
        <time>2021-03-13T14:16:59Z</time>
      </trkpt>
      <trkpt lat="42.99327" lon="0.80734">
        <ele>656</ele>
        <time>2021-03-13T14:17:00Z</time>
      </trkpt>
      <trkpt lat="42.99327" lon="0.80734">
        <ele>656</ele>
        <time>2021-03-13T14:17:01Z</time>
      </trkpt>
      <trkpt lat="42.99327" lon="0.80734">
        <ele>656</ele>
        <time>2021-03-13T14:17:02Z</time>
      </trkpt>
      <trkpt lat="42.99327" lon="0.80734">
        <ele>656</ele>
        <time>2021-03-13T14:17:03Z</time>
      </trkpt>
      <trkpt lat="42.99327" lon="0.80734">
        <ele>656</ele>
        <time>2021-03-13T14:17:04Z</time>
      </trkpt>
      <trkpt lat="42.99327" lon="0.80734">
        <ele>656</ele>
        <time>2021-03-13T14:17:05Z</time>
      </trkpt>
      <trkpt lat="42.99327" lon="0.80734">
        <ele>656</ele>
        <time>2021-03-13T14:17:06Z</time>
      </trkpt>
      <trkpt lat="42.99327" lon="0.80734">
        <ele>656</ele>
        <time>2021-03-13T14:17:07Z</time>
      </trkpt>
      <trkpt lat="42.99327" lon="0.80734">
        <ele>656</ele>
        <time>2021-03-13T14:17:08Z</time>
      </trkpt>
      <trkpt lat="42.99327" lon="0.80734">
        <ele>656</ele>
        <time>2021-03-13T14:17:09Z</time>
      </trkpt>
      <trkpt lat="42.99327" lon="0.80734">
        <ele>657</ele>
        <time>2021-03-13T14:17:10Z</time>
      </trkpt>
      <trkpt lat="42.99327" lon="0.80734">
        <ele>657</ele>
        <time>2021-03-13T14:17:11Z</time>
      </trkpt>
      <trkpt lat="42.99327" lon="0.80734">
        <ele>657</ele>
        <time>2021-03-13T14:17:12Z</time>
      </trkpt>
      <trkpt lat="42.99327" lon="0.80734">
        <ele>657</ele>
        <time>2021-03-13T14:17:13Z</time>
      </trkpt>
      <trkpt lat="42.99327" lon="0.80734">
        <ele>657</ele>
        <time>2021-03-13T14:17:14Z</time>
      </trkpt>
      <trkpt lat="42.99327" lon="0.80734">
        <ele>657</ele>
        <time>2021-03-13T14:17:15Z</time>
      </trkpt>
      <trkpt lat="42.99327" lon="0.80734">
        <ele>657</ele>
        <time>2021-03-13T14:17:16Z</time>
      </trkpt>
      <trkpt lat="42.99328" lon="0.80734">
        <ele>657</ele>
        <time>2021-03-13T14:17:17Z</time>
      </trkpt>
      <trkpt lat="42.99328" lon="0.80734">
        <ele>657</ele>
        <time>2021-03-13T14:17:18Z</time>
      </trkpt>
      <trkpt lat="42.99328" lon="0.80734">
        <ele>657</ele>
        <time>2021-03-13T14:17:19Z</time>
      </trkpt>
      <trkpt lat="42.99328" lon="0.80734">
        <ele>658</ele>
        <time>2021-03-13T14:17:20Z</time>
      </trkpt>
      <trkpt lat="42.99328" lon="0.80734">
        <ele>658</ele>
        <time>2021-03-13T14:17:21Z</time>
      </trkpt>
      <trkpt lat="42.99328" lon="0.80734">
        <ele>658</ele>
        <time>2021-03-13T14:17:22Z</time>
      </trkpt>
      <trkpt lat="42.99328" lon="0.80734">
        <ele>658</ele>
        <time>2021-03-13T14:17:23Z</time>
      </trkpt>
      <trkpt lat="42.99328" lon="0.80734">
        <ele>658</ele>
        <time>2021-03-13T14:17:24Z</time>
      </trkpt>
      <trkpt lat="42.99328" lon="0.80734">
        <ele>658</ele>
        <time>2021-03-13T14:17:25Z</time>
      </trkpt>
      <trkpt lat="42.99328" lon="0.80734">
        <ele>658</ele>
        <time>2021-03-13T14:17:26Z</time>
      </trkpt>
      <trkpt lat="42.99328" lon="0.80734">
        <ele>658</ele>
        <time>2021-03-13T14:17:27Z</time>
      </trkpt>
      <trkpt lat="42.99328" lon="0.80734">
        <ele>658</ele>
        <time>2021-03-13T14:17:28Z</time>
      </trkpt>
      <trkpt lat="42.99328" lon="0.80734">
        <ele>658</ele>
        <time>2021-03-13T14:17:29Z</time>
      </trkpt>
      <trkpt lat="42.99328" lon="0.80734">
        <ele>658</ele>
        <time>2021-03-13T14:17:30Z</time>
      </trkpt>
      <trkpt lat="42.99328" lon="0.80734">
        <ele>658</ele>
        <time>2021-03-13T14:17:31Z</time>
      </trkpt>
      <trkpt lat="42.99328" lon="0.80734">
        <ele>658</ele>
        <time>2021-03-13T14:17:32Z</time>
      </trkpt>
      <trkpt lat="42.99328" lon="0.80734">
        <ele>658</ele>
        <time>2021-03-13T14:17:33Z</time>
      </trkpt>
      <trkpt lat="42.99328" lon="0.80734">
        <ele>658</ele>
        <time>2021-03-13T14:17:34Z</time>
      </trkpt>
      <trkpt lat="42.99328" lon="0.80734">
        <ele>658</ele>
        <time>2021-03-13T14:17:35Z</time>
      </trkpt>
      <trkpt lat="42.99328" lon="0.80734">
        <ele>658</ele>
        <time>2021-03-13T14:17:36Z</time>
      </trkpt>
      <trkpt lat="42.99328" lon="0.80734">
        <ele>658</ele>
        <time>2021-03-13T14:17:37Z</time>
      </trkpt>
      <trkpt lat="42.99328" lon="0.80734">
        <ele>658</ele>
        <time>2021-03-13T14:17:38Z</time>
      </trkpt>
      <trkpt lat="42.99328" lon="0.80734">
        <ele>658</ele>
        <time>2021-03-13T14:17:39Z</time>
      </trkpt>
      <trkpt lat="42.99328" lon="0.80734">
        <ele>658</ele>
        <time>2021-03-13T14:17:40Z</time>
      </trkpt>
      <trkpt lat="42.99328" lon="0.80734">
        <ele>658</ele>
        <time>2021-03-13T14:17:41Z</time>
      </trkpt>
      <trkpt lat="42.99328" lon="0.80734">
        <ele>658</ele>
        <time>2021-03-13T14:17:42Z</time>
      </trkpt>
      <trkpt lat="42.99328" lon="0.80734">
        <ele>658</ele>
        <time>2021-03-13T14:17:43Z</time>
      </trkpt>
      <trkpt lat="42.99328" lon="0.80734">
        <ele>658</ele>
        <time>2021-03-13T14:17:44Z</time>
      </trkpt>
      <trkpt lat="42.99328" lon="0.80734">
        <ele>658</ele>
        <time>2021-03-13T14:17:45Z</time>
      </trkpt>
      <trkpt lat="42.99328" lon="0.80734">
        <ele>658</ele>
        <time>2021-03-13T14:17:46Z</time>
      </trkpt>
      <trkpt lat="42.99328" lon="0.80734">
        <ele>658</ele>
        <time>2021-03-13T14:17:47Z</time>
      </trkpt>
      <trkpt lat="42.99328" lon="0.80734">
        <ele>658</ele>
        <time>2021-03-13T14:17:48Z</time>
      </trkpt>
      <trkpt lat="42.99329" lon="0.80734">
        <ele>658</ele>
        <time>2021-03-13T14:17:49Z</time>
      </trkpt>
      <trkpt lat="42.99329" lon="0.80734">
        <ele>657</ele>
        <time>2021-03-13T14:17:50Z</time>
      </trkpt>
      <trkpt lat="42.99329" lon="0.80734">
        <ele>657</ele>
        <time>2021-03-13T14:17:51Z</time>
      </trkpt>
      <trkpt lat="42.99329" lon="0.80734">
        <ele>657</ele>
        <time>2021-03-13T14:17:52Z</time>
      </trkpt>
      <trkpt lat="42.99329" lon="0.80734">
        <ele>657</ele>
        <time>2021-03-13T14:17:53Z</time>
      </trkpt>
      <trkpt lat="42.99329" lon="0.80734">
        <ele>657</ele>
        <time>2021-03-13T14:17:54Z</time>
      </trkpt>
      <trkpt lat="42.99329" lon="0.80734">
        <ele>657</ele>
        <time>2021-03-13T14:17:55Z</time>
      </trkpt>
      <trkpt lat="42.99329" lon="0.80734">
        <ele>657</ele>
        <time>2021-03-13T14:17:56Z</time>
      </trkpt>
      <trkpt lat="42.99329" lon="0.80734">
        <ele>657</ele>
        <time>2021-03-13T14:17:57Z</time>
      </trkpt>
      <trkpt lat="42.99329" lon="0.80734">
        <ele>657</ele>
        <time>2021-03-13T14:17:58Z</time>
      </trkpt>
      <trkpt lat="42.99329" lon="0.80734">
        <ele>657</ele>
        <time>2021-03-13T14:17:59Z</time>
      </trkpt>
      <trkpt lat="42.99329" lon="0.80734">
        <ele>657</ele>
        <time>2021-03-13T14:18:00Z</time>
      </trkpt>
      <trkpt lat="42.99329" lon="0.80734">
        <ele>657</ele>
        <time>2021-03-13T14:18:01Z</time>
      </trkpt>
      <trkpt lat="42.99329" lon="0.80734">
        <ele>657</ele>
        <time>2021-03-13T14:18:02Z</time>
      </trkpt>
      <trkpt lat="42.99329" lon="0.80734">
        <ele>657</ele>
        <time>2021-03-13T14:18:03Z</time>
      </trkpt>
      <trkpt lat="42.99329" lon="0.80734">
        <ele>657</ele>
        <time>2021-03-13T14:18:04Z</time>
      </trkpt>
      <trkpt lat="42.99329" lon="0.80734">
        <ele>657</ele>
        <time>2021-03-13T14:18:05Z</time>
      </trkpt>
      <trkpt lat="42.99329" lon="0.80734">
        <ele>657</ele>
        <time>2021-03-13T14:18:06Z</time>
      </trkpt>
      <trkpt lat="42.99329" lon="0.80734">
        <ele>657</ele>
        <time>2021-03-13T14:18:07Z</time>
      </trkpt>
      <trkpt lat="42.99329" lon="0.80734">
        <ele>657</ele>
        <time>2021-03-13T14:18:08Z</time>
      </trkpt>
      <trkpt lat="42.99329" lon="0.80734">
        <ele>657</ele>
        <time>2021-03-13T14:18:09Z</time>
      </trkpt>
      <trkpt lat="42.99329" lon="0.80734">
        <ele>658</ele>
        <time>2021-03-13T14:18:10Z</time>
      </trkpt>
      <trkpt lat="42.99329" lon="0.80734">
        <ele>658</ele>
        <time>2021-03-13T14:18:11Z</time>
      </trkpt>
      <trkpt lat="42.99329" lon="0.80734">
        <ele>658</ele>
        <time>2021-03-13T14:18:12Z</time>
      </trkpt>
      <trkpt lat="42.99329" lon="0.80734">
        <ele>658</ele>
        <time>2021-03-13T14:18:13Z</time>
      </trkpt>
      <trkpt lat="42.99329" lon="0.80734">
        <ele>658</ele>
        <time>2021-03-13T14:18:14Z</time>
      </trkpt>
      <trkpt lat="42.99329" lon="0.80734">
        <ele>658</ele>
        <time>2021-03-13T14:18:15Z</time>
      </trkpt>
      <trkpt lat="42.99329" lon="0.80734">
        <ele>658</ele>
        <time>2021-03-13T14:18:16Z</time>
      </trkpt>
      <trkpt lat="42.99329" lon="0.80734">
        <ele>658</ele>
        <time>2021-03-13T14:18:17Z</time>
      </trkpt>
      <trkpt lat="42.99329" lon="0.80734">
        <ele>658</ele>
        <time>2021-03-13T14:18:18Z</time>
      </trkpt>
      <trkpt lat="42.99329" lon="0.80734">
        <ele>658</ele>
        <time>2021-03-13T14:18:19Z</time>
      </trkpt>
      <trkpt lat="42.99329" lon="0.80734">
        <ele>658</ele>
        <time>2021-03-13T14:18:20Z</time>
      </trkpt>
      <trkpt lat="42.99329" lon="0.80734">
        <ele>658</ele>
        <time>2021-03-13T14:18:21Z</time>
      </trkpt>
      <trkpt lat="42.9933" lon="0.80734">
        <ele>658</ele>
        <time>2021-03-13T14:18:22Z</time>
      </trkpt>
      <trkpt lat="42.9933" lon="0.80734">
        <ele>658</ele>
        <time>2021-03-13T14:18:23Z</time>
      </trkpt>
      <trkpt lat="42.9933" lon="0.80734">
        <ele>658</ele>
        <time>2021-03-13T14:18:24Z</time>
      </trkpt>
      <trkpt lat="42.9933" lon="0.80734">
        <ele>658</ele>
        <time>2021-03-13T14:18:25Z</time>
      </trkpt>
      <trkpt lat="42.9933" lon="0.80734">
        <ele>658</ele>
        <time>2021-03-13T14:18:26Z</time>
      </trkpt>
      <trkpt lat="42.9933" lon="0.80734">
        <ele>658</ele>
        <time>2021-03-13T14:18:27Z</time>
      </trkpt>
      <trkpt lat="42.9933" lon="0.80734">
        <ele>658</ele>
        <time>2021-03-13T14:18:28Z</time>
      </trkpt>
      <trkpt lat="42.9933" lon="0.80734">
        <ele>658</ele>
        <time>2021-03-13T14:18:29Z</time>
      </trkpt>
      <trkpt lat="42.9933" lon="0.80734">
        <ele>657</ele>
        <time>2021-03-13T14:18:30Z</time>
      </trkpt>
      <trkpt lat="42.9933" lon="0.80734">
        <ele>657</ele>
        <time>2021-03-13T14:18:31Z</time>
      </trkpt>
      <trkpt lat="42.9933" lon="0.80734">
        <ele>657</ele>
        <time>2021-03-13T14:18:32Z</time>
      </trkpt>
      <trkpt lat="42.9933" lon="0.80734">
        <ele>657</ele>
        <time>2021-03-13T14:18:33Z</time>
      </trkpt>
      <trkpt lat="42.9933" lon="0.80734">
        <ele>657</ele>
        <time>2021-03-13T14:18:34Z</time>
      </trkpt>
      <trkpt lat="42.9933" lon="0.80734">
        <ele>657</ele>
        <time>2021-03-13T14:18:35Z</time>
      </trkpt>
      <trkpt lat="42.9933" lon="0.80734">
        <ele>657</ele>
        <time>2021-03-13T14:18:36Z</time>
      </trkpt>
      <trkpt lat="42.9933" lon="0.80734">
        <ele>657</ele>
        <time>2021-03-13T14:18:37Z</time>
      </trkpt>
      <trkpt lat="42.9933" lon="0.80734">
        <ele>657</ele>
        <time>2021-03-13T14:18:38Z</time>
      </trkpt>
      <trkpt lat="42.9933" lon="0.80734">
        <ele>657</ele>
        <time>2021-03-13T14:18:39Z</time>
      </trkpt>
      <trkpt lat="42.9933" lon="0.80734">
        <ele>657</ele>
        <time>2021-03-13T14:18:40Z</time>
      </trkpt>
      <trkpt lat="42.9933" lon="0.80734">
        <ele>657</ele>
        <time>2021-03-13T14:18:41Z</time>
      </trkpt>
      <trkpt lat="42.9933" lon="0.80734">
        <ele>657</ele>
        <time>2021-03-13T14:18:42Z</time>
      </trkpt>
      <trkpt lat="42.9933" lon="0.80734">
        <ele>657</ele>
        <time>2021-03-13T14:18:43Z</time>
      </trkpt>
      <trkpt lat="42.9933" lon="0.80734">
        <ele>657</ele>
        <time>2021-03-13T14:18:44Z</time>
      </trkpt>
      <trkpt lat="42.9933" lon="0.80734">
        <ele>657</ele>
        <time>2021-03-13T14:18:45Z</time>
      </trkpt>
      <trkpt lat="42.9933" lon="0.80734">
        <ele>657</ele>
        <time>2021-03-13T14:18:46Z</time>
      </trkpt>
      <trkpt lat="42.9933" lon="0.80734">
        <ele>657</ele>
        <time>2021-03-13T14:18:47Z</time>
      </trkpt>
      <trkpt lat="42.9933" lon="0.80734">
        <ele>657</ele>
        <time>2021-03-13T14:18:48Z</time>
      </trkpt>
      <trkpt lat="42.9933" lon="0.80734">
        <ele>657</ele>
        <time>2021-03-13T14:18:49Z</time>
      </trkpt>
      <trkpt lat="42.9933" lon="0.80734">
        <ele>658</ele>
        <time>2021-03-13T14:18:50Z</time>
      </trkpt>
      <trkpt lat="42.9933" lon="0.80734">
        <ele>658</ele>
        <time>2021-03-13T14:18:51Z</time>
      </trkpt>
      <trkpt lat="42.9933" lon="0.80734">
        <ele>658</ele>
        <time>2021-03-13T14:18:52Z</time>
      </trkpt>
      <trkpt lat="42.9933" lon="0.80734">
        <ele>658</ele>
        <time>2021-03-13T14:18:53Z</time>
      </trkpt>
      <trkpt lat="42.99331" lon="0.80734">
        <ele>658</ele>
        <time>2021-03-13T14:18:54Z</time>
      </trkpt>
      <trkpt lat="42.99331" lon="0.80734">
        <ele>658</ele>
        <time>2021-03-13T14:18:55Z</time>
      </trkpt>
      <trkpt lat="42.99331" lon="0.80734">
        <ele>658</ele>
        <time>2021-03-13T14:18:56Z</time>
      </trkpt>
      <trkpt lat="42.99331" lon="0.80734">
        <ele>658</ele>
        <time>2021-03-13T14:18:57Z</time>
      </trkpt>
      <trkpt lat="42.99331" lon="0.80734">
        <ele>658</ele>
        <time>2021-03-13T14:18:58Z</time>
      </trkpt>
      <trkpt lat="42.99331" lon="0.80734">
        <ele>658</ele>
        <time>2021-03-13T14:18:59Z</time>
      </trkpt>
      <trkpt lat="42.99331" lon="0.80734">
        <ele>658</ele>
        <time>2021-03-13T14:19:00Z</time>
      </trkpt>
      <trkpt lat="42.99331" lon="0.80734">
        <ele>658</ele>
        <time>2021-03-13T14:19:01Z</time>
      </trkpt>
      <trkpt lat="42.99331" lon="0.80734">
        <ele>658</ele>
        <time>2021-03-13T14:19:02Z</time>
      </trkpt>
      <trkpt lat="42.99331" lon="0.80734">
        <ele>658</ele>
        <time>2021-03-13T14:19:03Z</time>
      </trkpt>
      <trkpt lat="42.99331" lon="0.80734">
        <ele>658</ele>
        <time>2021-03-13T14:19:04Z</time>
      </trkpt>
      <trkpt lat="42.99331" lon="0.80734">
        <ele>658</ele>
        <time>2021-03-13T14:19:05Z</time>
      </trkpt>
      <trkpt lat="42.99331" lon="0.80734">
        <ele>658</ele>
        <time>2021-03-13T14:19:06Z</time>
      </trkpt>
      <trkpt lat="42.99331" lon="0.80734">
        <ele>658</ele>
        <time>2021-03-13T14:19:07Z</time>
      </trkpt>
      <trkpt lat="42.99331" lon="0.80734">
        <ele>658</ele>
        <time>2021-03-13T14:19:08Z</time>
      </trkpt>
      <trkpt lat="42.99331" lon="0.80734">
        <ele>658</ele>
        <time>2021-03-13T14:19:09Z</time>
      </trkpt>
      <trkpt lat="42.99331" lon="0.80734">
        <ele>658</ele>
        <time>2021-03-13T14:19:10Z</time>
      </trkpt>
      <trkpt lat="42.99331" lon="0.80734">
        <ele>658</ele>
        <time>2021-03-13T14:19:11Z</time>
      </trkpt>
      <trkpt lat="42.99331" lon="0.80734">
        <ele>658</ele>
        <time>2021-03-13T14:19:12Z</time>
      </trkpt>
      <trkpt lat="42.99331" lon="0.80734">
        <ele>658</ele>
        <time>2021-03-13T14:19:13Z</time>
      </trkpt>
      <trkpt lat="42.99331" lon="0.80734">
        <ele>658</ele>
        <time>2021-03-13T14:19:14Z</time>
      </trkpt>
      <trkpt lat="42.99331" lon="0.80734">
        <ele>658</ele>
        <time>2021-03-13T14:19:15Z</time>
      </trkpt>
      <trkpt lat="42.99331" lon="0.80734">
        <ele>658</ele>
        <time>2021-03-13T14:19:16Z</time>
      </trkpt>
      <trkpt lat="42.99331" lon="0.80734">
        <ele>658</ele>
        <time>2021-03-13T14:19:17Z</time>
      </trkpt>
      <trkpt lat="42.99331" lon="0.80734">
        <ele>658</ele>
        <time>2021-03-13T14:19:18Z</time>
      </trkpt>
      <trkpt lat="42.99331" lon="0.80734">
        <ele>658</ele>
        <time>2021-03-13T14:19:19Z</time>
      </trkpt>
      <trkpt lat="42.99331" lon="0.80734">
        <ele>658</ele>
        <time>2021-03-13T14:19:20Z</time>
      </trkpt>
      <trkpt lat="42.99331" lon="0.80734">
        <ele>658</ele>
        <time>2021-03-13T14:19:21Z</time>
      </trkpt>
      <trkpt lat="42.99331" lon="0.80734">
        <ele>658</ele>
        <time>2021-03-13T14:19:22Z</time>
      </trkpt>
      <trkpt lat="42.99331" lon="0.80734">
        <ele>658</ele>
        <time>2021-03-13T14:19:23Z</time>
      </trkpt>
      <trkpt lat="42.99331" lon="0.80734">
        <ele>658</ele>
        <time>2021-03-13T14:19:24Z</time>
      </trkpt>
      <trkpt lat="42.99331" lon="0.80734">
        <ele>658</ele>
        <time>2021-03-13T14:19:25Z</time>
      </trkpt>
      <trkpt lat="42.99331" lon="0.80734">
        <ele>658</ele>
        <time>2021-03-13T14:19:26Z</time>
      </trkpt>
      <trkpt lat="42.99332" lon="0.80734">
        <ele>658</ele>
        <time>2021-03-13T14:19:27Z</time>
      </trkpt>
      <trkpt lat="42.99332" lon="0.80734">
        <ele>658</ele>
        <time>2021-03-13T14:19:28Z</time>
      </trkpt>
      <trkpt lat="42.99332" lon="0.80734">
        <ele>658</ele>
        <time>2021-03-13T14:19:29Z</time>
      </trkpt>
      <trkpt lat="42.99332" lon="0.80734">
        <ele>658</ele>
        <time>2021-03-13T14:19:30Z</time>
      </trkpt>
      <trkpt lat="42.99332" lon="0.80734">
        <ele>658</ele>
        <time>2021-03-13T14:19:31Z</time>
      </trkpt>
      <trkpt lat="42.99332" lon="0.80734">
        <ele>658</ele>
        <time>2021-03-13T14:19:32Z</time>
      </trkpt>
      <trkpt lat="42.99332" lon="0.80734">
        <ele>658</ele>
        <time>2021-03-13T14:19:33Z</time>
      </trkpt>
      <trkpt lat="42.99332" lon="0.80734">
        <ele>658</ele>
        <time>2021-03-13T14:19:34Z</time>
      </trkpt>
      <trkpt lat="42.99332" lon="0.80734">
        <ele>658</ele>
        <time>2021-03-13T14:19:35Z</time>
      </trkpt>
      <trkpt lat="42.99332" lon="0.80734">
        <ele>658</ele>
        <time>2021-03-13T14:19:36Z</time>
      </trkpt>
      <trkpt lat="42.99332" lon="0.80734">
        <ele>658</ele>
        <time>2021-03-13T14:19:37Z</time>
      </trkpt>
      <trkpt lat="42.99332" lon="0.80734">
        <ele>658</ele>
        <time>2021-03-13T14:19:38Z</time>
      </trkpt>
      <trkpt lat="42.99332" lon="0.80734">
        <ele>658</ele>
        <time>2021-03-13T14:19:39Z</time>
      </trkpt>
      <trkpt lat="42.99332" lon="0.80734">
        <ele>658</ele>
        <time>2021-03-13T14:19:40Z</time>
      </trkpt>
      <trkpt lat="42.99332" lon="0.80734">
        <ele>658</ele>
        <time>2021-03-13T14:19:41Z</time>
      </trkpt>
      <trkpt lat="42.99332" lon="0.80734">
        <ele>658</ele>
        <time>2021-03-13T14:19:42Z</time>
      </trkpt>
      <trkpt lat="42.99332" lon="0.80734">
        <ele>658</ele>
        <time>2021-03-13T14:19:43Z</time>
      </trkpt>
      <trkpt lat="42.99332" lon="0.80734">
        <ele>658</ele>
        <time>2021-03-13T14:19:44Z</time>
      </trkpt>
      <trkpt lat="42.99332" lon="0.80734">
        <ele>658</ele>
        <time>2021-03-13T14:19:45Z</time>
      </trkpt>
      <trkpt lat="42.99332" lon="0.80734">
        <ele>658</ele>
        <time>2021-03-13T14:19:46Z</time>
      </trkpt>
      <trkpt lat="42.99332" lon="0.80734">
        <ele>658</ele>
        <time>2021-03-13T14:19:47Z</time>
      </trkpt>
      <trkpt lat="42.99332" lon="0.80734">
        <ele>658</ele>
        <time>2021-03-13T14:19:48Z</time>
      </trkpt>
      <trkpt lat="42.99332" lon="0.80734">
        <ele>658</ele>
        <time>2021-03-13T14:19:49Z</time>
      </trkpt>
      <trkpt lat="42.99332" lon="0.80734">
        <ele>658</ele>
        <time>2021-03-13T14:19:50Z</time>
      </trkpt>
      <trkpt lat="42.99332" lon="0.80734">
        <ele>658</ele>
        <time>2021-03-13T14:19:51Z</time>
      </trkpt>
      <trkpt lat="42.99332" lon="0.80734">
        <ele>658</ele>
        <time>2021-03-13T14:19:52Z</time>
      </trkpt>
      <trkpt lat="42.99332" lon="0.80734">
        <ele>658</ele>
        <time>2021-03-13T14:19:53Z</time>
      </trkpt>
      <trkpt lat="42.99332" lon="0.80734">
        <ele>658</ele>
        <time>2021-03-13T14:19:54Z</time>
      </trkpt>
      <trkpt lat="42.99332" lon="0.80734">
        <ele>658</ele>
        <time>2021-03-13T14:19:55Z</time>
      </trkpt>
      <trkpt lat="42.99332" lon="0.80734">
        <ele>658</ele>
        <time>2021-03-13T14:19:56Z</time>
      </trkpt>
      <trkpt lat="42.99332" lon="0.80734">
        <ele>658</ele>
        <time>2021-03-13T14:19:57Z</time>
      </trkpt>
      <trkpt lat="42.99332" lon="0.80734">
        <ele>658</ele>
        <time>2021-03-13T14:19:58Z</time>
      </trkpt>
      <trkpt lat="42.99333" lon="0.80734">
        <ele>658</ele>
        <time>2021-03-13T14:19:59Z</time>
      </trkpt>
      <trkpt lat="42.99333" lon="0.80734">
        <ele>657</ele>
        <time>2021-03-13T14:20:00Z</time>
      </trkpt>
      <trkpt lat="42.99333" lon="0.80734">
        <ele>657</ele>
        <time>2021-03-13T14:20:01Z</time>
      </trkpt>
      <trkpt lat="42.99333" lon="0.80734">
        <ele>657</ele>
        <time>2021-03-13T14:20:02Z</time>
      </trkpt>
      <trkpt lat="42.99333" lon="0.80734">
        <ele>657</ele>
        <time>2021-03-13T14:20:03Z</time>
      </trkpt>
      <trkpt lat="42.99333" lon="0.80734">
        <ele>657</ele>
        <time>2021-03-13T14:20:04Z</time>
      </trkpt>
      <trkpt lat="42.99333" lon="0.80734">
        <ele>657</ele>
        <time>2021-03-13T14:20:05Z</time>
      </trkpt>
      <trkpt lat="42.99333" lon="0.80734">
        <ele>657</ele>
        <time>2021-03-13T14:20:06Z</time>
      </trkpt>
      <trkpt lat="42.99333" lon="0.80734">
        <ele>657</ele>
        <time>2021-03-13T14:20:07Z</time>
      </trkpt>
      <trkpt lat="42.99333" lon="0.80734">
        <ele>657</ele>
        <time>2021-03-13T14:20:08Z</time>
      </trkpt>
      <trkpt lat="42.99333" lon="0.80734">
        <ele>657</ele>
        <time>2021-03-13T14:20:09Z</time>
      </trkpt>
      <trkpt lat="42.99333" lon="0.80734">
        <ele>657</ele>
        <time>2021-03-13T14:20:10Z</time>
      </trkpt>
      <trkpt lat="42.99333" lon="0.80734">
        <ele>657</ele>
        <time>2021-03-13T14:20:11Z</time>
      </trkpt>
      <trkpt lat="42.99333" lon="0.80734">
        <ele>657</ele>
        <time>2021-03-13T14:20:12Z</time>
      </trkpt>
      <trkpt lat="42.99333" lon="0.80734">
        <ele>657</ele>
        <time>2021-03-13T14:20:13Z</time>
      </trkpt>
      <trkpt lat="42.99333" lon="0.80734">
        <ele>657</ele>
        <time>2021-03-13T14:20:14Z</time>
      </trkpt>
      <trkpt lat="42.99333" lon="0.80734">
        <ele>657</ele>
        <time>2021-03-13T14:20:15Z</time>
      </trkpt>
      <trkpt lat="42.99333" lon="0.80734">
        <ele>657</ele>
        <time>2021-03-13T14:20:16Z</time>
      </trkpt>
      <trkpt lat="42.99333" lon="0.80734">
        <ele>657</ele>
        <time>2021-03-13T14:20:17Z</time>
      </trkpt>
      <trkpt lat="42.99333" lon="0.80734">
        <ele>657</ele>
        <time>2021-03-13T14:20:18Z</time>
      </trkpt>
      <trkpt lat="42.99333" lon="0.80734">
        <ele>657</ele>
        <time>2021-03-13T14:20:19Z</time>
      </trkpt>
      <trkpt lat="42.99333" lon="0.80734">
        <ele>657</ele>
        <time>2021-03-13T14:20:20Z</time>
      </trkpt>
      <trkpt lat="42.99333" lon="0.80734">
        <ele>657</ele>
        <time>2021-03-13T14:20:21Z</time>
      </trkpt>
      <trkpt lat="42.99333" lon="0.80734">
        <ele>657</ele>
        <time>2021-03-13T14:20:22Z</time>
      </trkpt>
      <trkpt lat="42.99333" lon="0.80734">
        <ele>657</ele>
        <time>2021-03-13T14:20:23Z</time>
      </trkpt>
      <trkpt lat="42.99333" lon="0.80734">
        <ele>657</ele>
        <time>2021-03-13T14:20:24Z</time>
      </trkpt>
      <trkpt lat="42.99333" lon="0.80734">
        <ele>657</ele>
        <time>2021-03-13T14:20:25Z</time>
      </trkpt>
      <trkpt lat="42.99333" lon="0.80734">
        <ele>657</ele>
        <time>2021-03-13T14:20:26Z</time>
      </trkpt>
      <trkpt lat="42.99333" lon="0.80734">
        <ele>657</ele>
        <time>2021-03-13T14:20:27Z</time>
      </trkpt>
      <trkpt lat="42.99333" lon="0.80734">
        <ele>657</ele>
        <time>2021-03-13T14:20:28Z</time>
      </trkpt>
      <trkpt lat="42.99333" lon="0.80734">
        <ele>657</ele>
        <time>2021-03-13T14:20:29Z</time>
      </trkpt>
      <trkpt lat="42.99333" lon="0.80734">
        <ele>657</ele>
        <time>2021-03-13T14:20:30Z</time>
      </trkpt>
      <trkpt lat="42.99334" lon="0.80734">
        <ele>657</ele>
        <time>2021-03-13T14:20:31Z</time>
      </trkpt>
      <trkpt lat="42.99334" lon="0.80734">
        <ele>657</ele>
        <time>2021-03-13T14:20:32Z</time>
      </trkpt>
      <trkpt lat="42.99334" lon="0.80734">
        <ele>657</ele>
        <time>2021-03-13T14:20:33Z</time>
      </trkpt>
      <trkpt lat="42.99334" lon="0.80734">
        <ele>657</ele>
        <time>2021-03-13T14:20:34Z</time>
      </trkpt>
      <trkpt lat="42.99334" lon="0.80734">
        <ele>657</ele>
        <time>2021-03-13T14:20:35Z</time>
      </trkpt>
      <trkpt lat="42.99334" lon="0.80734">
        <ele>657</ele>
        <time>2021-03-13T14:20:36Z</time>
      </trkpt>
      <trkpt lat="42.99334" lon="0.80734">
        <ele>657</ele>
        <time>2021-03-13T14:20:37Z</time>
      </trkpt>
      <trkpt lat="42.99334" lon="0.80734">
        <ele>657</ele>
        <time>2021-03-13T14:20:38Z</time>
      </trkpt>
      <trkpt lat="42.99334" lon="0.80734">
        <ele>657</ele>
        <time>2021-03-13T14:20:39Z</time>
      </trkpt>
      <trkpt lat="42.99334" lon="0.80734">
        <ele>658</ele>
        <time>2021-03-13T14:20:40Z</time>
      </trkpt>
      <trkpt lat="42.99334" lon="0.80734">
        <ele>658</ele>
        <time>2021-03-13T14:20:41Z</time>
      </trkpt>
      <trkpt lat="42.99334" lon="0.80734">
        <ele>658</ele>
        <time>2021-03-13T14:20:42Z</time>
      </trkpt>
      <trkpt lat="42.99334" lon="0.80734">
        <ele>658</ele>
        <time>2021-03-13T14:20:43Z</time>
      </trkpt>
      <trkpt lat="42.99334" lon="0.80734">
        <ele>658</ele>
        <time>2021-03-13T14:20:44Z</time>
      </trkpt>
      <trkpt lat="42.99334" lon="0.80734">
        <ele>658</ele>
        <time>2021-03-13T14:20:45Z</time>
      </trkpt>
      <trkpt lat="42.99334" lon="0.80734">
        <ele>658</ele>
        <time>2021-03-13T14:20:46Z</time>
      </trkpt>
      <trkpt lat="42.99334" lon="0.80734">
        <ele>658</ele>
        <time>2021-03-13T14:20:47Z</time>
      </trkpt>
      <trkpt lat="42.99334" lon="0.80734">
        <ele>658</ele>
        <time>2021-03-13T14:20:48Z</time>
      </trkpt>
      <trkpt lat="42.99334" lon="0.80734">
        <ele>658</ele>
        <time>2021-03-13T14:20:49Z</time>
      </trkpt>
      <trkpt lat="42.99334" lon="0.80734">
        <ele>658</ele>
        <time>2021-03-13T14:20:50Z</time>
      </trkpt>
      <trkpt lat="42.99334" lon="0.80734">
        <ele>658</ele>
        <time>2021-03-13T14:20:51Z</time>
      </trkpt>
      <trkpt lat="42.99334" lon="0.80734">
        <ele>658</ele>
        <time>2021-03-13T14:20:52Z</time>
      </trkpt>
      <trkpt lat="42.99334" lon="0.80734">
        <ele>658</ele>
        <time>2021-03-13T14:20:53Z</time>
      </trkpt>
      <trkpt lat="42.99334" lon="0.80734">
        <ele>658</ele>
        <time>2021-03-13T14:20:54Z</time>
      </trkpt>
      <trkpt lat="42.99334" lon="0.80734">
        <ele>658</ele>
        <time>2021-03-13T14:20:55Z</time>
      </trkpt>
      <trkpt lat="42.99334" lon="0.80734">
        <ele>658</ele>
        <time>2021-03-13T14:20:56Z</time>
      </trkpt>
      <trkpt lat="42.99334" lon="0.80734">
        <ele>658</ele>
        <time>2021-03-13T14:20:57Z</time>
      </trkpt>
      <trkpt lat="42.99334" lon="0.80734">
        <ele>658</ele>
        <time>2021-03-13T14:20:58Z</time>
      </trkpt>
      <trkpt lat="42.99334" lon="0.80734">
        <ele>658</ele>
        <time>2021-03-13T14:20:59Z</time>
      </trkpt>
      <trkpt lat="42.99334" lon="0.80734">
        <ele>658</ele>
        <time>2021-03-13T14:21:00Z</time>
      </trkpt>
      <trkpt lat="42.99334" lon="0.80734">
        <ele>658</ele>
        <time>2021-03-13T14:21:01Z</time>
      </trkpt>
      <trkpt lat="42.99334" lon="0.80734">
        <ele>658</ele>
        <time>2021-03-13T14:21:02Z</time>
      </trkpt>
      <trkpt lat="42.99334" lon="0.80734">
        <ele>658</ele>
        <time>2021-03-13T14:21:03Z</time>
      </trkpt>
      <trkpt lat="42.99335" lon="0.80734">
        <ele>658</ele>
        <time>2021-03-13T14:21:04Z</time>
      </trkpt>
      <trkpt lat="42.99335" lon="0.80734">
        <ele>658</ele>
        <time>2021-03-13T14:21:05Z</time>
      </trkpt>
      <trkpt lat="42.99335" lon="0.80734">
        <ele>658</ele>
        <time>2021-03-13T14:21:06Z</time>
      </trkpt>
      <trkpt lat="42.99335" lon="0.80734">
        <ele>658</ele>
        <time>2021-03-13T14:21:07Z</time>
      </trkpt>
      <trkpt lat="42.99335" lon="0.80733">
        <ele>658</ele>
        <time>2021-03-13T14:21:08Z</time>
      </trkpt>
      <trkpt lat="42.99335" lon="0.80733">
        <ele>658</ele>
        <time>2021-03-13T14:21:09Z</time>
      </trkpt>
      <trkpt lat="42.99334" lon="0.80733">
        <ele>658</ele>
        <time>2021-03-13T14:21:10Z</time>
      </trkpt>
      <trkpt lat="42.99334" lon="0.80733">
        <ele>658</ele>
        <time>2021-03-13T14:21:11Z</time>
      </trkpt>
      <trkpt lat="42.99334" lon="0.80733">
        <ele>658</ele>
        <time>2021-03-13T14:21:12Z</time>
      </trkpt>
      <trkpt lat="42.99334" lon="0.80733">
        <ele>658</ele>
        <time>2021-03-13T14:21:13Z</time>
      </trkpt>
      <trkpt lat="42.99334" lon="0.80733">
        <ele>658</ele>
        <time>2021-03-13T14:21:14Z</time>
      </trkpt>
      <trkpt lat="42.99334" lon="0.80732">
        <ele>658</ele>
        <time>2021-03-13T14:21:15Z</time>
      </trkpt>
      <trkpt lat="42.99334" lon="0.80732">
        <ele>658</ele>
        <time>2021-03-13T14:21:16Z</time>
      </trkpt>
      <trkpt lat="42.99334" lon="0.80732">
        <ele>658</ele>
        <time>2021-03-13T14:21:17Z</time>
      </trkpt>
      <trkpt lat="42.99334" lon="0.80732">
        <ele>658</ele>
        <time>2021-03-13T14:21:18Z</time>
      </trkpt>
      <trkpt lat="42.99334" lon="0.80732">
        <ele>658</ele>
        <time>2021-03-13T14:21:19Z</time>
      </trkpt>
      <trkpt lat="42.99334" lon="0.80732">
        <ele>657</ele>
        <time>2021-03-13T14:21:20Z</time>
      </trkpt>
      <trkpt lat="42.99334" lon="0.80732">
        <ele>657</ele>
        <time>2021-03-13T14:21:21Z</time>
      </trkpt>
      <trkpt lat="42.99334" lon="0.80731">
        <ele>657</ele>
        <time>2021-03-13T14:21:22Z</time>
      </trkpt>
      <trkpt lat="42.99334" lon="0.80731">
        <ele>657</ele>
        <time>2021-03-13T14:21:23Z</time>
      </trkpt>
      <trkpt lat="42.99334" lon="0.80731">
        <ele>657</ele>
        <time>2021-03-13T14:21:24Z</time>
      </trkpt>
      <trkpt lat="42.99334" lon="0.80731">
        <ele>657</ele>
        <time>2021-03-13T14:21:25Z</time>
      </trkpt>
      <trkpt lat="42.99334" lon="0.80731">
        <ele>657</ele>
        <time>2021-03-13T14:21:26Z</time>
      </trkpt>
      <trkpt lat="42.99334" lon="0.80731">
        <ele>657</ele>
        <time>2021-03-13T14:21:27Z</time>
      </trkpt>
      <trkpt lat="42.99334" lon="0.8073">
        <ele>657</ele>
        <time>2021-03-13T14:21:28Z</time>
      </trkpt>
      <trkpt lat="42.99334" lon="0.8073">
        <ele>657</ele>
        <time>2021-03-13T14:21:29Z</time>
      </trkpt>
      <trkpt lat="42.99334" lon="0.8073">
        <ele>657</ele>
        <time>2021-03-13T14:21:30Z</time>
      </trkpt>
      <trkpt lat="42.99334" lon="0.8073">
        <ele>657</ele>
        <time>2021-03-13T14:21:31Z</time>
      </trkpt>
      <trkpt lat="42.99334" lon="0.8073">
        <ele>657</ele>
        <time>2021-03-13T14:21:32Z</time>
      </trkpt>
      <trkpt lat="42.99334" lon="0.8073">
        <ele>657</ele>
        <time>2021-03-13T14:21:33Z</time>
      </trkpt>
      <trkpt lat="42.99334" lon="0.8073">
        <ele>657</ele>
        <time>2021-03-13T14:21:34Z</time>
      </trkpt>
      <trkpt lat="42.99334" lon="0.80729">
        <ele>657</ele>
        <time>2021-03-13T14:21:35Z</time>
      </trkpt>
      <trkpt lat="42.99334" lon="0.80729">
        <ele>657</ele>
        <time>2021-03-13T14:21:36Z</time>
      </trkpt>
      <trkpt lat="42.99334" lon="0.80729">
        <ele>657</ele>
        <time>2021-03-13T14:21:37Z</time>
      </trkpt>
      <trkpt lat="42.99334" lon="0.80729">
        <ele>657</ele>
        <time>2021-03-13T14:21:38Z</time>
      </trkpt>
      <trkpt lat="42.99334" lon="0.80729">
        <ele>657</ele>
        <time>2021-03-13T14:21:39Z</time>
      </trkpt>
      <trkpt lat="42.99334" lon="0.80729">
        <ele>657</ele>
        <time>2021-03-13T14:21:40Z</time>
      </trkpt>
      <trkpt lat="42.99334" lon="0.80729">
        <ele>657</ele>
        <time>2021-03-13T14:21:41Z</time>
      </trkpt>
      <trkpt lat="42.99334" lon="0.80728">
        <ele>657</ele>
        <time>2021-03-13T14:21:42Z</time>
      </trkpt>
      <trkpt lat="42.99334" lon="0.80728">
        <ele>657</ele>
        <time>2021-03-13T14:21:43Z</time>
      </trkpt>
      <trkpt lat="42.99334" lon="0.80728">
        <ele>657</ele>
        <time>2021-03-13T14:21:44Z</time>
      </trkpt>
      <trkpt lat="42.99334" lon="0.80728">
        <ele>657</ele>
        <time>2021-03-13T14:21:45Z</time>
      </trkpt>
      <trkpt lat="42.99334" lon="0.80728">
        <ele>657</ele>
        <time>2021-03-13T14:21:46Z</time>
      </trkpt>
      <trkpt lat="42.99334" lon="0.80728">
        <ele>657</ele>
        <time>2021-03-13T14:21:47Z</time>
      </trkpt>
      <trkpt lat="42.99335" lon="0.80727">
        <ele>657</ele>
        <time>2021-03-13T14:21:48Z</time>
      </trkpt>
      <trkpt lat="42.99335" lon="0.80727">
        <ele>657</ele>
        <time>2021-03-13T14:21:49Z</time>
      </trkpt>
      <trkpt lat="42.99335" lon="0.80727">
        <ele>656</ele>
        <time>2021-03-13T14:21:50Z</time>
      </trkpt>
      <trkpt lat="42.99335" lon="0.80727">
        <ele>656</ele>
        <time>2021-03-13T14:21:51Z</time>
      </trkpt>
      <trkpt lat="42.99335" lon="0.80726">
        <ele>656</ele>
        <time>2021-03-13T14:21:52Z</time>
      </trkpt>
      <trkpt lat="42.99336" lon="0.80726">
        <ele>656</ele>
        <time>2021-03-13T14:21:53Z</time>
      </trkpt>
      <trkpt lat="42.99336" lon="0.80726">
        <ele>656</ele>
        <time>2021-03-13T14:21:54Z</time>
      </trkpt>
      <trkpt lat="42.99336" lon="0.80726">
        <ele>656</ele>
        <time>2021-03-13T14:21:55Z</time>
      </trkpt>
      <trkpt lat="42.99336" lon="0.80726">
        <ele>656</ele>
        <time>2021-03-13T14:21:56Z</time>
      </trkpt>
      <trkpt lat="42.99336" lon="0.80725">
        <ele>656</ele>
        <time>2021-03-13T14:21:57Z</time>
      </trkpt>
      <trkpt lat="42.99337" lon="0.80725">
        <ele>656</ele>
        <time>2021-03-13T14:21:58Z</time>
      </trkpt>
      <trkpt lat="42.99337" lon="0.80725">
        <ele>656</ele>
        <time>2021-03-13T14:21:59Z</time>
      </trkpt>
      <trkpt lat="42.99337" lon="0.80725">
        <ele>655</ele>
        <time>2021-03-13T14:22:00Z</time>
      </trkpt>
      <trkpt lat="42.99337" lon="0.80725">
        <ele>655</ele>
        <time>2021-03-13T14:22:01Z</time>
      </trkpt>
      <trkpt lat="42.99337" lon="0.80724">
        <ele>655</ele>
        <time>2021-03-13T14:22:02Z</time>
      </trkpt>
      <trkpt lat="42.99338" lon="0.80724">
        <ele>655</ele>
        <time>2021-03-13T14:22:03Z</time>
      </trkpt>
      <trkpt lat="42.99338" lon="0.80724">
        <ele>655</ele>
        <time>2021-03-13T14:22:04Z</time>
      </trkpt>
      <trkpt lat="42.99338" lon="0.80724">
        <ele>655</ele>
        <time>2021-03-13T14:22:05Z</time>
      </trkpt>
      <trkpt lat="42.99338" lon="0.80723">
        <ele>655</ele>
        <time>2021-03-13T14:22:06Z</time>
      </trkpt>
      <trkpt lat="42.99338" lon="0.80723">
        <ele>655</ele>
        <time>2021-03-13T14:22:07Z</time>
      </trkpt>
      <trkpt lat="42.99339" lon="0.80723">
        <ele>655</ele>
        <time>2021-03-13T14:22:08Z</time>
      </trkpt>
      <trkpt lat="42.99339" lon="0.80723">
        <ele>655</ele>
        <time>2021-03-13T14:22:09Z</time>
      </trkpt>
      <trkpt lat="42.9934" lon="0.80721">
        <ele>655</ele>
        <time>2021-03-13T14:22:10Z</time>
      </trkpt>
      <trkpt lat="42.9934" lon="0.8072">
        <ele>655</ele>
        <time>2021-03-13T14:22:11Z</time>
      </trkpt>
      <trkpt lat="42.99341" lon="0.80718">
        <ele>655</ele>
        <time>2021-03-13T14:22:12Z</time>
      </trkpt>
      <trkpt lat="42.99342" lon="0.80717">
        <ele>655</ele>
        <time>2021-03-13T14:22:13Z</time>
      </trkpt>
      <trkpt lat="42.99343" lon="0.80715">
        <ele>655</ele>
        <time>2021-03-13T14:22:14Z</time>
      </trkpt>
      <trkpt lat="42.99344" lon="0.80714">
        <ele>655</ele>
        <time>2021-03-13T14:22:15Z</time>
      </trkpt>
      <trkpt lat="42.99344" lon="0.80707">
        <ele>655</ele>
        <time>2021-03-13T14:22:16Z</time>
      </trkpt>
      <trkpt lat="42.99345" lon="0.807">
        <ele>655</ele>
        <time>2021-03-13T14:22:17Z</time>
      </trkpt>
      <trkpt lat="42.99345" lon="0.80693">
        <ele>655</ele>
        <time>2021-03-13T14:22:18Z</time>
      </trkpt>
      <trkpt lat="42.99346" lon="0.80688">
        <ele>655</ele>
        <time>2021-03-13T14:22:19Z</time>
      </trkpt>
      <trkpt lat="42.99346" lon="0.80688">
        <ele>651</ele>
        <time>2021-03-13T14:22:20Z</time>
      </trkpt>
      <trkpt lat="42.99348" lon="0.8068">
        <ele>651</ele>
        <time>2021-03-13T14:22:21Z</time>
      </trkpt>
      <trkpt lat="42.99348" lon="0.8068">
        <ele>651</ele>
        <time>2021-03-13T14:22:22Z</time>
      </trkpt>
      <trkpt lat="42.99348" lon="0.80677">
        <ele>651</ele>
        <time>2021-03-13T14:22:23Z</time>
      </trkpt>
      <trkpt lat="42.99349" lon="0.80674">
        <ele>651</ele>
        <time>2021-03-13T14:22:24Z</time>
      </trkpt>
      <trkpt lat="42.99349" lon="0.8067">
        <ele>647</ele>
        <time>2021-03-13T14:22:25Z</time>
      </trkpt>
      <trkpt lat="42.99349" lon="0.80667">
        <ele>647</ele>
        <time>2021-03-13T14:22:26Z</time>
      </trkpt>
      <trkpt lat="42.99355" lon="0.80664">
        <ele>647</ele>
        <time>2021-03-13T14:22:27Z</time>
      </trkpt>
      <trkpt lat="42.99355" lon="0.80664">
        <ele>647</ele>
        <time>2021-03-13T14:22:28Z</time>
      </trkpt>
      <trkpt lat="42.99362" lon="0.80666">
        <ele>647</ele>
        <time>2021-03-13T14:22:29Z</time>
      </trkpt>
      <trkpt lat="42.99362" lon="0.80666">
        <ele>644</ele>
        <time>2021-03-13T14:22:30Z</time>
      </trkpt>
      <trkpt lat="42.9937" lon="0.80672">
        <ele>643</ele>
        <time>2021-03-13T14:22:31Z</time>
      </trkpt>
      <trkpt lat="42.9937" lon="0.80672">
        <ele>642</ele>
        <time>2021-03-13T14:22:32Z</time>
      </trkpt>
      <trkpt lat="42.99372" lon="0.80671">
        <ele>641</ele>
        <time>2021-03-13T14:22:33Z</time>
      </trkpt>
      <trkpt lat="42.99374" lon="0.80671">
        <ele>640</ele>
        <time>2021-03-13T14:22:34Z</time>
      </trkpt>
      <trkpt lat="42.99376" lon="0.80671">
        <ele>639</ele>
        <time>2021-03-13T14:22:35Z</time>
      </trkpt>
      <trkpt lat="42.99378" lon="0.8067">
        <ele>638</ele>
        <time>2021-03-13T14:22:36Z</time>
      </trkpt>
      <trkpt lat="42.99379" lon="0.8067">
        <ele>637</ele>
        <time>2021-03-13T14:22:37Z</time>
      </trkpt>
      <trkpt lat="42.99381" lon="0.8067">
        <ele>637</ele>
        <time>2021-03-13T14:22:38Z</time>
      </trkpt>
      <trkpt lat="42.99383" lon="0.80666">
        <ele>637</ele>
        <time>2021-03-13T14:22:39Z</time>
      </trkpt>
      <trkpt lat="42.99385" lon="0.80662">
        <ele>636</ele>
        <time>2021-03-13T14:22:40Z</time>
      </trkpt>
      <trkpt lat="42.99387" lon="0.80657">
        <ele>636</ele>
        <time>2021-03-13T14:22:41Z</time>
      </trkpt>
      <trkpt lat="42.99389" lon="0.80653">
        <ele>635</ele>
        <time>2021-03-13T14:22:42Z</time>
      </trkpt>
      <trkpt lat="42.99391" lon="0.80648">
        <ele>633</ele>
        <time>2021-03-13T14:22:43Z</time>
      </trkpt>
      <trkpt lat="42.99394" lon="0.80643">
        <ele>632</ele>
        <time>2021-03-13T14:22:44Z</time>
      </trkpt>
      <trkpt lat="42.99394" lon="0.80635">
        <ele>632</ele>
        <time>2021-03-13T14:22:45Z</time>
      </trkpt>
      <trkpt lat="42.99395" lon="0.80627">
        <ele>631</ele>
        <time>2021-03-13T14:22:46Z</time>
      </trkpt>
      <trkpt lat="42.99396" lon="0.80619">
        <ele>629</ele>
        <time>2021-03-13T14:22:47Z</time>
      </trkpt>
      <trkpt lat="42.99391" lon="0.80606">
        <ele>628</ele>
        <time>2021-03-13T14:22:48Z</time>
      </trkpt>
      <trkpt lat="42.99389" lon="0.80602">
        <ele>627</ele>
        <time>2021-03-13T14:22:49Z</time>
      </trkpt>
      <trkpt lat="42.99386" lon="0.8059">
        <ele>626</ele>
        <time>2021-03-13T14:22:50Z</time>
      </trkpt>
      <trkpt lat="42.99385" lon="0.80586">
        <ele>624</ele>
        <time>2021-03-13T14:22:51Z</time>
      </trkpt>
      <trkpt lat="42.99385" lon="0.80579">
        <ele>623</ele>
        <time>2021-03-13T14:22:52Z</time>
      </trkpt>
      <trkpt lat="42.99385" lon="0.80579">
        <ele>623</ele>
        <time>2021-03-13T14:22:53Z</time>
      </trkpt>
      <trkpt lat="42.99385" lon="0.80573">
        <ele>622</ele>
        <time>2021-03-13T14:22:54Z</time>
      </trkpt>
      <trkpt lat="42.99384" lon="0.80567">
        <ele>621</ele>
        <time>2021-03-13T14:22:55Z</time>
      </trkpt>
      <trkpt lat="42.99383" lon="0.80561">
        <ele>620</ele>
        <time>2021-03-13T14:22:56Z</time>
      </trkpt>
      <trkpt lat="42.99384" lon="0.8056">
        <ele>619</ele>
        <time>2021-03-13T14:22:57Z</time>
      </trkpt>
      <trkpt lat="42.99384" lon="0.8056">
        <ele>618</ele>
        <time>2021-03-13T14:22:58Z</time>
      </trkpt>
      <trkpt lat="42.99384" lon="0.80559">
        <ele>617</ele>
        <time>2021-03-13T14:22:59Z</time>
      </trkpt>
      <trkpt lat="42.99384" lon="0.80559">
        <ele>617</ele>
        <time>2021-03-13T14:23:00Z</time>
      </trkpt>
      <trkpt lat="42.99384" lon="0.80559">
        <ele>618</ele>
        <time>2021-03-13T14:23:01Z</time>
      </trkpt>
      <trkpt lat="42.99384" lon="0.80558">
        <ele>618</ele>
        <time>2021-03-13T14:23:02Z</time>
      </trkpt>
      <trkpt lat="42.99384" lon="0.80558">
        <ele>617</ele>
        <time>2021-03-13T14:23:03Z</time>
      </trkpt>
      <trkpt lat="42.99384" lon="0.80557">
        <ele>617</ele>
        <time>2021-03-13T14:23:04Z</time>
      </trkpt>
      <trkpt lat="42.99384" lon="0.80557">
        <ele>617</ele>
        <time>2021-03-13T14:23:05Z</time>
      </trkpt>
      <trkpt lat="42.99384" lon="0.80556">
        <ele>617</ele>
        <time>2021-03-13T14:23:06Z</time>
      </trkpt>
      <trkpt lat="42.99384" lon="0.80556">
        <ele>618</ele>
        <time>2021-03-13T14:23:07Z</time>
      </trkpt>
      <trkpt lat="42.99385" lon="0.80556">
        <ele>617</ele>
        <time>2021-03-13T14:23:08Z</time>
      </trkpt>
      <trkpt lat="42.99385" lon="0.80555">
        <ele>617</ele>
        <time>2021-03-13T14:23:09Z</time>
      </trkpt>
      <trkpt lat="42.99385" lon="0.80555">
        <ele>617</ele>
        <time>2021-03-13T14:23:10Z</time>
      </trkpt>
      <trkpt lat="42.99385" lon="0.80554">
        <ele>617</ele>
        <time>2021-03-13T14:23:11Z</time>
      </trkpt>
      <trkpt lat="42.99385" lon="0.80554">
        <ele>617</ele>
        <time>2021-03-13T14:23:12Z</time>
      </trkpt>
      <trkpt lat="42.99385" lon="0.80553">
        <ele>617</ele>
        <time>2021-03-13T14:23:13Z</time>
      </trkpt>
      <trkpt lat="42.99385" lon="0.80553">
        <ele>617</ele>
        <time>2021-03-13T14:23:14Z</time>
      </trkpt>
      <trkpt lat="42.99385" lon="0.80553">
        <ele>617</ele>
        <time>2021-03-13T14:23:15Z</time>
      </trkpt>
      <trkpt lat="42.99385" lon="0.80552">
        <ele>617</ele>
        <time>2021-03-13T14:23:16Z</time>
      </trkpt>
      <trkpt lat="42.99385" lon="0.80552">
        <ele>617</ele>
        <time>2021-03-13T14:23:17Z</time>
      </trkpt>
      <trkpt lat="42.99387" lon="0.80548">
        <ele>617</ele>
        <time>2021-03-13T14:23:18Z</time>
      </trkpt>
      <trkpt lat="42.99388" lon="0.80545">
        <ele>617</ele>
        <time>2021-03-13T14:23:19Z</time>
      </trkpt>
      <trkpt lat="42.99389" lon="0.80541">
        <ele>617</ele>
        <time>2021-03-13T14:23:20Z</time>
      </trkpt>
      <trkpt lat="42.99392" lon="0.80537">
        <ele>617</ele>
        <time>2021-03-13T14:23:21Z</time>
      </trkpt>
      <trkpt lat="42.99395" lon="0.80533">
        <ele>617</ele>
        <time>2021-03-13T14:23:22Z</time>
      </trkpt>
      <trkpt lat="42.99397" lon="0.80531">
        <ele>617</ele>
        <time>2021-03-13T14:23:23Z</time>
      </trkpt>
      <trkpt lat="42.99399" lon="0.80529">
        <ele>617</ele>
        <time>2021-03-13T14:23:24Z</time>
      </trkpt>
      <trkpt lat="42.99407" lon="0.8052">
        <ele>617</ele>
        <time>2021-03-13T14:23:25Z</time>
      </trkpt>
      <trkpt lat="42.9941" lon="0.80516">
        <ele>617</ele>
        <time>2021-03-13T14:23:26Z</time>
      </trkpt>
      <trkpt lat="42.99412" lon="0.80513">
        <ele>617</ele>
        <time>2021-03-13T14:23:27Z</time>
      </trkpt>
      <trkpt lat="42.99414" lon="0.80511">
        <ele>617</ele>
        <time>2021-03-13T14:23:28Z</time>
      </trkpt>
      <trkpt lat="42.9942" lon="0.80503">
        <ele>617</ele>
        <time>2021-03-13T14:23:29Z</time>
      </trkpt>
      <trkpt lat="42.99422" lon="0.805">
        <ele>613</ele>
        <time>2021-03-13T14:23:30Z</time>
      </trkpt>
      <trkpt lat="42.9943" lon="0.80491">
        <ele>613</ele>
        <time>2021-03-13T14:23:31Z</time>
      </trkpt>
      <trkpt lat="42.99434" lon="0.80486">
        <ele>613</ele>
        <time>2021-03-13T14:23:32Z</time>
      </trkpt>
      <trkpt lat="42.99435" lon="0.80484">
        <ele>613</ele>
        <time>2021-03-13T14:23:33Z</time>
      </trkpt>
      <trkpt lat="42.99437" lon="0.80482">
        <ele>613</ele>
        <time>2021-03-13T14:23:34Z</time>
      </trkpt>
      <trkpt lat="42.99438" lon="0.8048">
        <ele>607</ele>
        <time>2021-03-13T14:23:35Z</time>
      </trkpt>
      <trkpt lat="42.99445" lon="0.80472">
        <ele>607</ele>
        <time>2021-03-13T14:23:36Z</time>
      </trkpt>
      <trkpt lat="42.99446" lon="0.8047">
        <ele>607</ele>
        <time>2021-03-13T14:23:37Z</time>
      </trkpt>
      <trkpt lat="42.99448" lon="0.80468">
        <ele>607</ele>
        <time>2021-03-13T14:23:38Z</time>
      </trkpt>
      <trkpt lat="42.99454" lon="0.8046">
        <ele>607</ele>
        <time>2021-03-13T14:23:39Z</time>
      </trkpt>
      <trkpt lat="42.99456" lon="0.80458">
        <ele>603</ele>
        <time>2021-03-13T14:23:40Z</time>
      </trkpt>
      <trkpt lat="42.99457" lon="0.80456">
        <ele>601</ele>
        <time>2021-03-13T14:23:41Z</time>
      </trkpt>
      <trkpt lat="42.99465" lon="0.80448">
        <ele>599</ele>
        <time>2021-03-13T14:23:42Z</time>
      </trkpt>
      <trkpt lat="42.99467" lon="0.80445">
        <ele>598</ele>
        <time>2021-03-13T14:23:43Z</time>
      </trkpt>
      <trkpt lat="42.99473" lon="0.80437">
        <ele>597</ele>
        <time>2021-03-13T14:23:44Z</time>
      </trkpt>
      <trkpt lat="42.99475" lon="0.80434">
        <ele>597</ele>
        <time>2021-03-13T14:23:45Z</time>
      </trkpt>
      <trkpt lat="42.99479" lon="0.80425">
        <ele>597</ele>
        <time>2021-03-13T14:23:46Z</time>
      </trkpt>
      <trkpt lat="42.9948" lon="0.80422">
        <ele>596</ele>
        <time>2021-03-13T14:23:47Z</time>
      </trkpt>
      <trkpt lat="42.99481" lon="0.80419">
        <ele>595</ele>
        <time>2021-03-13T14:23:48Z</time>
      </trkpt>
      <trkpt lat="42.99485" lon="0.80408">
        <ele>593</ele>
        <time>2021-03-13T14:23:49Z</time>
      </trkpt>
      <trkpt lat="42.99486" lon="0.80405">
        <ele>592</ele>
        <time>2021-03-13T14:23:50Z</time>
      </trkpt>
      <trkpt lat="42.99489" lon="0.80395">
        <ele>591</ele>
        <time>2021-03-13T14:23:51Z</time>
      </trkpt>
      <trkpt lat="42.9949" lon="0.80393">
        <ele>591</ele>
        <time>2021-03-13T14:23:52Z</time>
      </trkpt>
      <trkpt lat="42.99492" lon="0.8039">
        <ele>590</ele>
        <time>2021-03-13T14:23:53Z</time>
      </trkpt>
      <trkpt lat="42.99498" lon="0.80376">
        <ele>589</ele>
        <time>2021-03-13T14:23:54Z</time>
      </trkpt>
      <trkpt lat="42.995" lon="0.8037">
        <ele>589</ele>
        <time>2021-03-13T14:23:55Z</time>
      </trkpt>
      <trkpt lat="42.99502" lon="0.80364">
        <ele>588</ele>
        <time>2021-03-13T14:23:56Z</time>
      </trkpt>
      <trkpt lat="42.99504" lon="0.80358">
        <ele>588</ele>
        <time>2021-03-13T14:23:57Z</time>
      </trkpt>
      <trkpt lat="42.99506" lon="0.80355">
        <ele>588</ele>
        <time>2021-03-13T14:23:58Z</time>
      </trkpt>
      <trkpt lat="42.99507" lon="0.80352">
        <ele>588</ele>
        <time>2021-03-13T14:23:59Z</time>
      </trkpt>
      <trkpt lat="42.99512" lon="0.80343">
        <ele>586</ele>
        <time>2021-03-13T14:24:00Z</time>
      </trkpt>
      <trkpt lat="42.99513" lon="0.8034">
        <ele>586</ele>
        <time>2021-03-13T14:24:01Z</time>
      </trkpt>
      <trkpt lat="42.99518" lon="0.8033">
        <ele>586</ele>
        <time>2021-03-13T14:24:02Z</time>
      </trkpt>
      <trkpt lat="42.9952" lon="0.80327">
        <ele>585</ele>
        <time>2021-03-13T14:24:03Z</time>
      </trkpt>
      <trkpt lat="42.99524" lon="0.80317">
        <ele>584</ele>
        <time>2021-03-13T14:24:04Z</time>
      </trkpt>
      <trkpt lat="42.99526" lon="0.80314">
        <ele>582</ele>
        <time>2021-03-13T14:24:05Z</time>
      </trkpt>
      <trkpt lat="42.9953" lon="0.80305">
        <ele>582</ele>
        <time>2021-03-13T14:24:06Z</time>
      </trkpt>
      <trkpt lat="42.99532" lon="0.80302">
        <ele>582</ele>
        <time>2021-03-13T14:24:07Z</time>
      </trkpt>
      <trkpt lat="42.99537" lon="0.8029">
        <ele>581</ele>
        <time>2021-03-13T14:24:08Z</time>
      </trkpt>
      <trkpt lat="42.9954" lon="0.80285">
        <ele>580</ele>
        <time>2021-03-13T14:24:09Z</time>
      </trkpt>
      <trkpt lat="42.99542" lon="0.80279">
        <ele>579</ele>
        <time>2021-03-13T14:24:10Z</time>
      </trkpt>
      <trkpt lat="42.99545" lon="0.80273">
        <ele>579</ele>
        <time>2021-03-13T14:24:11Z</time>
      </trkpt>
      <trkpt lat="42.99546" lon="0.8027">
        <ele>579</ele>
        <time>2021-03-13T14:24:12Z</time>
      </trkpt>
      <trkpt lat="42.99548" lon="0.80267">
        <ele>578</ele>
        <time>2021-03-13T14:24:13Z</time>
      </trkpt>
      <trkpt lat="42.99552" lon="0.80257">
        <ele>576</ele>
        <time>2021-03-13T14:24:14Z</time>
      </trkpt>
      <trkpt lat="42.99554" lon="0.80254">
        <ele>575</ele>
        <time>2021-03-13T14:24:15Z</time>
      </trkpt>
      <trkpt lat="42.99558" lon="0.80245">
        <ele>574</ele>
        <time>2021-03-13T14:24:16Z</time>
      </trkpt>
      <trkpt lat="42.99559" lon="0.80242">
        <ele>573</ele>
        <time>2021-03-13T14:24:17Z</time>
      </trkpt>
      <trkpt lat="42.9956" lon="0.80239">
        <ele>572</ele>
        <time>2021-03-13T14:24:18Z</time>
      </trkpt>
      <trkpt lat="42.99563" lon="0.80228">
        <ele>570</ele>
        <time>2021-03-13T14:24:19Z</time>
      </trkpt>
      <trkpt lat="42.99562" lon="0.80225">
        <ele>570</ele>
        <time>2021-03-13T14:24:20Z</time>
      </trkpt>
      <trkpt lat="42.99562" lon="0.80221">
        <ele>570</ele>
        <time>2021-03-13T14:24:21Z</time>
      </trkpt>
      <trkpt lat="42.99559" lon="0.80209">
        <ele>569</ele>
        <time>2021-03-13T14:24:22Z</time>
      </trkpt>
      <trkpt lat="42.99557" lon="0.80205">
        <ele>568</ele>
        <time>2021-03-13T14:24:23Z</time>
      </trkpt>
      <trkpt lat="42.99551" lon="0.80193">
        <ele>568</ele>
        <time>2021-03-13T14:24:24Z</time>
      </trkpt>
      <trkpt lat="42.99548" lon="0.80187">
        <ele>567</ele>
        <time>2021-03-13T14:24:25Z</time>
      </trkpt>
      <trkpt lat="42.99546" lon="0.8018">
        <ele>566</ele>
        <time>2021-03-13T14:24:26Z</time>
      </trkpt>
      <trkpt lat="42.99545" lon="0.80174">
        <ele>566</ele>
        <time>2021-03-13T14:24:27Z</time>
      </trkpt>
      <trkpt lat="42.99545" lon="0.8017">
        <ele>565</ele>
        <time>2021-03-13T14:24:28Z</time>
      </trkpt>
      <trkpt lat="42.99545" lon="0.80166">
        <ele>565</ele>
        <time>2021-03-13T14:24:29Z</time>
      </trkpt>
      <trkpt lat="42.99545" lon="0.80163">
        <ele>564</ele>
        <time>2021-03-13T14:24:30Z</time>
      </trkpt>
      <trkpt lat="42.99546" lon="0.80158">
        <ele>563</ele>
        <time>2021-03-13T14:24:31Z</time>
      </trkpt>
      <trkpt lat="42.99547" lon="0.80154">
        <ele>563</ele>
        <time>2021-03-13T14:24:32Z</time>
      </trkpt>
      <trkpt lat="42.99548" lon="0.8015">
        <ele>563</ele>
        <time>2021-03-13T14:24:33Z</time>
      </trkpt>
      <trkpt lat="42.99549" lon="0.80144">
        <ele>563</ele>
        <time>2021-03-13T14:24:34Z</time>
      </trkpt>
      <trkpt lat="42.9955" lon="0.80137">
        <ele>562</ele>
        <time>2021-03-13T14:24:35Z</time>
      </trkpt>
      <trkpt lat="42.99551" lon="0.80131">
        <ele>561</ele>
        <time>2021-03-13T14:24:36Z</time>
      </trkpt>
      <trkpt lat="42.99552" lon="0.80124">
        <ele>561</ele>
        <time>2021-03-13T14:24:37Z</time>
      </trkpt>
      <trkpt lat="42.99553" lon="0.80121">
        <ele>561</ele>
        <time>2021-03-13T14:24:38Z</time>
      </trkpt>
      <trkpt lat="42.99553" lon="0.80117">
        <ele>561</ele>
        <time>2021-03-13T14:24:39Z</time>
      </trkpt>
      <trkpt lat="42.99555" lon="0.80105">
        <ele>561</ele>
        <time>2021-03-13T14:24:40Z</time>
      </trkpt>
      <trkpt lat="42.99556" lon="0.80099">
        <ele>561</ele>
        <time>2021-03-13T14:24:41Z</time>
      </trkpt>
      <trkpt lat="42.99558" lon="0.80087">
        <ele>561</ele>
        <time>2021-03-13T14:24:42Z</time>
      </trkpt>
      <trkpt lat="42.9956" lon="0.80079">
        <ele>561</ele>
        <time>2021-03-13T14:24:43Z</time>
      </trkpt>
      <trkpt lat="42.99562" lon="0.80071">
        <ele>561</ele>
        <time>2021-03-13T14:24:44Z</time>
      </trkpt>
      <trkpt lat="42.99564" lon="0.80068">
        <ele>560</ele>
        <time>2021-03-13T14:24:45Z</time>
      </trkpt>
      <trkpt lat="42.99566" lon="0.80065">
        <ele>560</ele>
        <time>2021-03-13T14:24:46Z</time>
      </trkpt>
      <trkpt lat="42.99571" lon="0.80055">
        <ele>560</ele>
        <time>2021-03-13T14:24:47Z</time>
      </trkpt>
      <trkpt lat="42.99573" lon="0.80053">
        <ele>560</ele>
        <time>2021-03-13T14:24:48Z</time>
      </trkpt>
      <trkpt lat="42.99578" lon="0.80041">
        <ele>560</ele>
        <time>2021-03-13T14:24:49Z</time>
      </trkpt>
      <trkpt lat="42.9958" lon="0.80036">
        <ele>555</ele>
        <time>2021-03-13T14:24:50Z</time>
      </trkpt>
      <trkpt lat="42.99578" lon="0.8003">
        <ele>553</ele>
        <time>2021-03-13T14:24:51Z</time>
      </trkpt>
      <trkpt lat="42.99575" lon="0.80025">
        <ele>553</ele>
        <time>2021-03-13T14:24:52Z</time>
      </trkpt>
      <trkpt lat="42.99573" lon="0.80023">
        <ele>552</ele>
        <time>2021-03-13T14:24:53Z</time>
      </trkpt>
      <trkpt lat="42.99571" lon="0.80022">
        <ele>552</ele>
        <time>2021-03-13T14:24:54Z</time>
      </trkpt>
      <trkpt lat="42.99561" lon="0.80019">
        <ele>552</ele>
        <time>2021-03-13T14:24:55Z</time>
      </trkpt>
      <trkpt lat="42.99556" lon="0.8002">
        <ele>551</ele>
        <time>2021-03-13T14:24:56Z</time>
      </trkpt>
      <trkpt lat="42.99551" lon="0.80022">
        <ele>550</ele>
        <time>2021-03-13T14:24:57Z</time>
      </trkpt>
      <trkpt lat="42.99547" lon="0.80024">
        <ele>549</ele>
        <time>2021-03-13T14:24:58Z</time>
      </trkpt>
      <trkpt lat="42.99538" lon="0.80028">
        <ele>548</ele>
        <time>2021-03-13T14:24:59Z</time>
      </trkpt>
      <trkpt lat="42.99535" lon="0.8003">
        <ele>548</ele>
        <time>2021-03-13T14:25:00Z</time>
      </trkpt>
      <trkpt lat="42.99532" lon="0.80032">
        <ele>547</ele>
        <time>2021-03-13T14:25:01Z</time>
      </trkpt>
      <trkpt lat="42.99524" lon="0.80039">
        <ele>546</ele>
        <time>2021-03-13T14:25:02Z</time>
      </trkpt>
      <trkpt lat="42.99522" lon="0.80041">
        <ele>545</ele>
        <time>2021-03-13T14:25:03Z</time>
      </trkpt>
      <trkpt lat="42.99514" lon="0.8005">
        <ele>545</ele>
        <time>2021-03-13T14:25:04Z</time>
      </trkpt>
      <trkpt lat="42.99511" lon="0.80055">
        <ele>543</ele>
        <time>2021-03-13T14:25:05Z</time>
      </trkpt>
      <trkpt lat="42.99508" lon="0.8006">
        <ele>543</ele>
        <time>2021-03-13T14:25:06Z</time>
      </trkpt>
      <trkpt lat="42.99505" lon="0.80065">
        <ele>542</ele>
        <time>2021-03-13T14:25:07Z</time>
      </trkpt>
      <trkpt lat="42.99503" lon="0.80069">
        <ele>541</ele>
        <time>2021-03-13T14:25:08Z</time>
      </trkpt>
      <trkpt lat="42.99502" lon="0.80072">
        <ele>539</ele>
        <time>2021-03-13T14:25:09Z</time>
      </trkpt>
      <trkpt lat="42.99495" lon="0.80082">
        <ele>538</ele>
        <time>2021-03-13T14:25:10Z</time>
      </trkpt>
      <trkpt lat="42.99491" lon="0.80087">
        <ele>538</ele>
        <time>2021-03-13T14:25:11Z</time>
      </trkpt>
      <trkpt lat="42.99489" lon="0.80085">
        <ele>536</ele>
        <time>2021-03-13T14:25:12Z</time>
      </trkpt>
      <trkpt lat="42.99488" lon="0.80084">
        <ele>534</ele>
        <time>2021-03-13T14:25:13Z</time>
      </trkpt>
      <trkpt lat="42.99486" lon="0.80082">
        <ele>534</ele>
        <time>2021-03-13T14:25:14Z</time>
      </trkpt>
      <trkpt lat="42.99479" lon="0.80072">
        <ele>533</ele>
        <time>2021-03-13T14:25:15Z</time>
      </trkpt>
      <trkpt lat="42.99478" lon="0.80066">
        <ele>532</ele>
        <time>2021-03-13T14:25:16Z</time>
      </trkpt>
      <trkpt lat="42.99478" lon="0.80059">
        <ele>531</ele>
        <time>2021-03-13T14:25:17Z</time>
      </trkpt>
      <trkpt lat="42.99478" lon="0.80052">
        <ele>530</ele>
        <time>2021-03-13T14:25:18Z</time>
      </trkpt>
      <trkpt lat="42.99478" lon="0.80048">
        <ele>529</ele>
        <time>2021-03-13T14:25:19Z</time>
      </trkpt>
      <trkpt lat="42.99478" lon="0.80044">
        <ele>528</ele>
        <time>2021-03-13T14:25:20Z</time>
      </trkpt>
      <trkpt lat="42.99478" lon="0.80032">
        <ele>526</ele>
        <time>2021-03-13T14:25:21Z</time>
      </trkpt>
      <trkpt lat="42.99477" lon="0.80028">
        <ele>525</ele>
        <time>2021-03-13T14:25:22Z</time>
      </trkpt>
      <trkpt lat="42.99475" lon="0.80013">
        <ele>525</ele>
        <time>2021-03-13T14:25:23Z</time>
      </trkpt>
      <trkpt lat="42.99474" lon="0.80007">
        <ele>523</ele>
        <time>2021-03-13T14:25:24Z</time>
      </trkpt>
      <trkpt lat="42.99471" lon="0.79994">
        <ele>522</ele>
        <time>2021-03-13T14:25:25Z</time>
      </trkpt>
      <trkpt lat="42.9947" lon="0.7999">
        <ele>519</ele>
        <time>2021-03-13T14:25:26Z</time>
      </trkpt>
      <trkpt lat="42.99468" lon="0.79986">
        <ele>518</ele>
        <time>2021-03-13T14:25:27Z</time>
      </trkpt>
      <trkpt lat="42.99463" lon="0.79975">
        <ele>516</ele>
        <time>2021-03-13T14:25:28Z</time>
      </trkpt>
      <trkpt lat="42.9946" lon="0.79971">
        <ele>516</ele>
        <time>2021-03-13T14:25:29Z</time>
      </trkpt>
      <trkpt lat="42.99454" lon="0.7996">
        <ele>515</ele>
        <time>2021-03-13T14:25:30Z</time>
      </trkpt>
      <trkpt lat="42.99452" lon="0.79957">
        <ele>514</ele>
        <time>2021-03-13T14:25:31Z</time>
      </trkpt>
      <trkpt lat="42.99446" lon="0.79948">
        <ele>514</ele>
        <time>2021-03-13T14:25:32Z</time>
      </trkpt>
      <trkpt lat="42.99444" lon="0.79945">
        <ele>511</ele>
        <time>2021-03-13T14:25:33Z</time>
      </trkpt>
      <trkpt lat="42.99438" lon="0.79937">
        <ele>511</ele>
        <time>2021-03-13T14:25:34Z</time>
      </trkpt>
      <trkpt lat="42.99436" lon="0.79935">
        <ele>511</ele>
        <time>2021-03-13T14:25:35Z</time>
      </trkpt>
      <trkpt lat="42.9943" lon="0.79927">
        <ele>510</ele>
        <time>2021-03-13T14:25:36Z</time>
      </trkpt>
      <trkpt lat="42.99427" lon="0.79923">
        <ele>510</ele>
        <time>2021-03-13T14:25:37Z</time>
      </trkpt>
      <trkpt lat="42.99425" lon="0.7992">
        <ele>510</ele>
        <time>2021-03-13T14:25:38Z</time>
      </trkpt>
      <trkpt lat="42.99424" lon="0.79918">
        <ele>509</ele>
        <time>2021-03-13T14:25:39Z</time>
      </trkpt>
      <trkpt lat="42.99423" lon="0.79917">
        <ele>509</ele>
        <time>2021-03-13T14:25:40Z</time>
      </trkpt>
      <trkpt lat="42.99423" lon="0.79915">
        <ele>509</ele>
        <time>2021-03-13T14:25:41Z</time>
      </trkpt>
      <trkpt lat="42.99422" lon="0.79913">
        <ele>509</ele>
        <time>2021-03-13T14:25:42Z</time>
      </trkpt>
      <trkpt lat="42.99421" lon="0.79912">
        <ele>509</ele>
        <time>2021-03-13T14:25:43Z</time>
      </trkpt>
      <trkpt lat="42.9942" lon="0.7991">
        <ele>508</ele>
        <time>2021-03-13T14:25:44Z</time>
      </trkpt>
      <trkpt lat="42.99419" lon="0.79909">
        <ele>508</ele>
        <time>2021-03-13T14:25:45Z</time>
      </trkpt>
      <trkpt lat="42.99415" lon="0.79901">
        <ele>507</ele>
        <time>2021-03-13T14:25:46Z</time>
      </trkpt>
      <trkpt lat="42.99415" lon="0.79901">
        <ele>507</ele>
        <time>2021-03-13T14:25:47Z</time>
      </trkpt>
      <trkpt lat="42.99409" lon="0.79894">
        <ele>507</ele>
        <time>2021-03-13T14:25:48Z</time>
      </trkpt>
      <trkpt lat="42.99409" lon="0.79894">
        <ele>506</ele>
        <time>2021-03-13T14:25:49Z</time>
      </trkpt>
      <trkpt lat="42.99403" lon="0.79886">
        <ele>505</ele>
        <time>2021-03-13T14:25:50Z</time>
      </trkpt>
      <trkpt lat="42.99403" lon="0.79886">
        <ele>505</ele>
        <time>2021-03-13T14:25:51Z</time>
      </trkpt>
      <trkpt lat="42.99396" lon="0.7988">
        <ele>505</ele>
        <time>2021-03-13T14:25:52Z</time>
      </trkpt>
      <trkpt lat="42.99396" lon="0.7988">
        <ele>505</ele>
        <time>2021-03-13T14:25:53Z</time>
      </trkpt>
      <trkpt lat="42.99389" lon="0.79875">
        <ele>505</ele>
        <time>2021-03-13T14:25:54Z</time>
      </trkpt>
      <trkpt lat="42.99389" lon="0.79875">
        <ele>501</ele>
        <time>2021-03-13T14:25:55Z</time>
      </trkpt>
      <trkpt lat="42.99387" lon="0.79876">
        <ele>501</ele>
        <time>2021-03-13T14:25:56Z</time>
      </trkpt>
      <trkpt lat="42.99385" lon="0.79876">
        <ele>501</ele>
        <time>2021-03-13T14:25:57Z</time>
      </trkpt>
      <trkpt lat="42.99382" lon="0.79876">
        <ele>501</ele>
        <time>2021-03-13T14:25:58Z</time>
      </trkpt>
      <trkpt lat="42.9938" lon="0.79876">
        <ele>501</ele>
        <time>2021-03-13T14:25:59Z</time>
      </trkpt>
      <trkpt lat="42.99378" lon="0.79879">
        <ele>498</ele>
        <time>2021-03-13T14:26:00Z</time>
      </trkpt>
      <trkpt lat="42.99377" lon="0.79882">
        <ele>498</ele>
        <time>2021-03-13T14:26:01Z</time>
      </trkpt>
      <trkpt lat="42.99375" lon="0.79886">
        <ele>498</ele>
        <time>2021-03-13T14:26:02Z</time>
      </trkpt>
      <trkpt lat="42.99375" lon="0.79885">
        <ele>498</ele>
        <time>2021-03-13T14:26:03Z</time>
      </trkpt>
      <trkpt lat="42.99375" lon="0.79884">
        <ele>497</ele>
        <time>2021-03-13T14:26:04Z</time>
      </trkpt>
      <trkpt lat="42.99375" lon="0.79883">
        <ele>497</ele>
        <time>2021-03-13T14:26:05Z</time>
      </trkpt>
      <trkpt lat="42.99375" lon="0.79883">
        <ele>497</ele>
        <time>2021-03-13T14:26:06Z</time>
      </trkpt>
      <trkpt lat="42.99375" lon="0.79882">
        <ele>497</ele>
        <time>2021-03-13T14:26:07Z</time>
      </trkpt>
      <trkpt lat="42.99375" lon="0.79881">
        <ele>497</ele>
        <time>2021-03-13T14:26:08Z</time>
      </trkpt>
      <trkpt lat="42.99375" lon="0.7988">
        <ele>497</ele>
        <time>2021-03-13T14:26:09Z</time>
      </trkpt>
      <trkpt lat="42.99375" lon="0.7988">
        <ele>498</ele>
        <time>2021-03-13T14:26:10Z</time>
      </trkpt>
      <trkpt lat="42.99375" lon="0.79879">
        <ele>498</ele>
        <time>2021-03-13T14:26:11Z</time>
      </trkpt>
      <trkpt lat="42.99375" lon="0.79878">
        <ele>498</ele>
        <time>2021-03-13T14:26:12Z</time>
      </trkpt>
      <trkpt lat="42.99375" lon="0.79878">
        <ele>498</ele>
        <time>2021-03-13T14:26:13Z</time>
      </trkpt>
      <trkpt lat="42.99375" lon="0.79877">
        <ele>498</ele>
        <time>2021-03-13T14:26:14Z</time>
      </trkpt>
      <trkpt lat="42.99375" lon="0.79876">
        <ele>498</ele>
        <time>2021-03-13T14:26:15Z</time>
      </trkpt>
      <trkpt lat="42.99375" lon="0.79875">
        <ele>498</ele>
        <time>2021-03-13T14:26:16Z</time>
      </trkpt>
      <trkpt lat="42.99375" lon="0.79875">
        <ele>498</ele>
        <time>2021-03-13T14:26:17Z</time>
      </trkpt>
      <trkpt lat="42.99375" lon="0.79874">
        <ele>498</ele>
        <time>2021-03-13T14:26:18Z</time>
      </trkpt>
      <trkpt lat="42.99375" lon="0.79873">
        <ele>498</ele>
        <time>2021-03-13T14:26:19Z</time>
      </trkpt>
      <trkpt lat="42.99375" lon="0.79872">
        <ele>496</ele>
        <time>2021-03-13T14:26:20Z</time>
      </trkpt>
      <trkpt lat="42.99375" lon="0.79872">
        <ele>496</ele>
        <time>2021-03-13T14:26:21Z</time>
      </trkpt>
      <trkpt lat="42.99375" lon="0.79871">
        <ele>496</ele>
        <time>2021-03-13T14:26:22Z</time>
      </trkpt>
      <trkpt lat="42.99375" lon="0.7987">
        <ele>496</ele>
        <time>2021-03-13T14:26:23Z</time>
      </trkpt>
      <trkpt lat="42.99374" lon="0.79868">
        <ele>496</ele>
        <time>2021-03-13T14:26:24Z</time>
      </trkpt>
      <trkpt lat="42.99373" lon="0.79867">
        <ele>496</ele>
        <time>2021-03-13T14:26:25Z</time>
      </trkpt>
      <trkpt lat="42.99372" lon="0.79865">
        <ele>496</ele>
        <time>2021-03-13T14:26:26Z</time>
      </trkpt>
      <trkpt lat="42.9937" lon="0.79864">
        <ele>496</ele>
        <time>2021-03-13T14:26:27Z</time>
      </trkpt>
      <trkpt lat="42.99369" lon="0.79862">
        <ele>496</ele>
        <time>2021-03-13T14:26:28Z</time>
      </trkpt>
      <trkpt lat="42.99368" lon="0.7986">
        <ele>496</ele>
        <time>2021-03-13T14:26:29Z</time>
      </trkpt>
      <trkpt lat="42.99366" lon="0.79858">
        <ele>496</ele>
        <time>2021-03-13T14:26:30Z</time>
      </trkpt>
      <trkpt lat="42.99364" lon="0.79855">
        <ele>496</ele>
        <time>2021-03-13T14:26:31Z</time>
      </trkpt>
      <trkpt lat="42.99363" lon="0.79853">
        <ele>496</ele>
        <time>2021-03-13T14:26:32Z</time>
      </trkpt>
      <trkpt lat="42.99361" lon="0.79851">
        <ele>496</ele>
        <time>2021-03-13T14:26:33Z</time>
      </trkpt>
      <trkpt lat="42.9936" lon="0.79847">
        <ele>496</ele>
        <time>2021-03-13T14:26:34Z</time>
      </trkpt>
      <trkpt lat="42.9936" lon="0.79843">
        <ele>496</ele>
        <time>2021-03-13T14:26:35Z</time>
      </trkpt>
      <trkpt lat="42.9936" lon="0.79839">
        <ele>496</ele>
        <time>2021-03-13T14:26:36Z</time>
      </trkpt>
      <trkpt lat="42.99359" lon="0.79836">
        <ele>496</ele>
        <time>2021-03-13T14:26:37Z</time>
      </trkpt>
      <trkpt lat="42.99359" lon="0.79831">
        <ele>496</ele>
        <time>2021-03-13T14:26:38Z</time>
      </trkpt>
      <trkpt lat="42.99359" lon="0.79827">
        <ele>496</ele>
        <time>2021-03-13T14:26:39Z</time>
      </trkpt>
      <trkpt lat="42.99359" lon="0.79822">
        <ele>498</ele>
        <time>2021-03-13T14:26:40Z</time>
      </trkpt>
      <trkpt lat="42.99359" lon="0.79818">
        <ele>498</ele>
        <time>2021-03-13T14:26:41Z</time>
      </trkpt>
      <trkpt lat="42.9936" lon="0.79813">
        <ele>498</ele>
        <time>2021-03-13T14:26:42Z</time>
      </trkpt>
      <trkpt lat="42.9936" lon="0.79809">
        <ele>498</ele>
        <time>2021-03-13T14:26:43Z</time>
      </trkpt>
      <trkpt lat="42.99361" lon="0.79804">
        <ele>498</ele>
        <time>2021-03-13T14:26:44Z</time>
      </trkpt>
      <trkpt lat="42.99362" lon="0.798">
        <ele>498</ele>
        <time>2021-03-13T14:26:45Z</time>
      </trkpt>
      <trkpt lat="42.99363" lon="0.79795">
        <ele>498</ele>
        <time>2021-03-13T14:26:46Z</time>
      </trkpt>
      <trkpt lat="42.99364" lon="0.79791">
        <ele>498</ele>
        <time>2021-03-13T14:26:47Z</time>
      </trkpt>
      <trkpt lat="42.99365" lon="0.79787">
        <ele>498</ele>
        <time>2021-03-13T14:26:48Z</time>
      </trkpt>
      <trkpt lat="42.99367" lon="0.79783">
        <ele>498</ele>
        <time>2021-03-13T14:26:49Z</time>
      </trkpt>
      <trkpt lat="42.99368" lon="0.79778">
        <ele>499</ele>
        <time>2021-03-13T14:26:50Z</time>
      </trkpt>
      <trkpt lat="42.99369" lon="0.79774">
        <ele>499</ele>
        <time>2021-03-13T14:26:51Z</time>
      </trkpt>
      <trkpt lat="42.99371" lon="0.7977">
        <ele>499</ele>
        <time>2021-03-13T14:26:52Z</time>
      </trkpt>
      <trkpt lat="42.99372" lon="0.79766">
        <ele>499</ele>
        <time>2021-03-13T14:26:53Z</time>
      </trkpt>
      <trkpt lat="42.99374" lon="0.79762">
        <ele>499</ele>
        <time>2021-03-13T14:26:54Z</time>
      </trkpt>
      <trkpt lat="42.99375" lon="0.79757">
        <ele>499</ele>
        <time>2021-03-13T14:26:55Z</time>
      </trkpt>
      <trkpt lat="42.99376" lon="0.79753">
        <ele>499</ele>
        <time>2021-03-13T14:26:56Z</time>
      </trkpt>
      <trkpt lat="42.99377" lon="0.79748">
        <ele>499</ele>
        <time>2021-03-13T14:26:57Z</time>
      </trkpt>
      <trkpt lat="42.99378" lon="0.79744">
        <ele>499</ele>
        <time>2021-03-13T14:26:58Z</time>
      </trkpt>
      <trkpt lat="42.99379" lon="0.7974">
        <ele>499</ele>
        <time>2021-03-13T14:26:59Z</time>
      </trkpt>
      <trkpt lat="42.99379" lon="0.79735">
        <ele>502</ele>
        <time>2021-03-13T14:27:00Z</time>
      </trkpt>
      <trkpt lat="42.9938" lon="0.79731">
        <ele>502</ele>
        <time>2021-03-13T14:27:01Z</time>
      </trkpt>
      <trkpt lat="42.99381" lon="0.79727">
        <ele>502</ele>
        <time>2021-03-13T14:27:02Z</time>
      </trkpt>
      <trkpt lat="42.99381" lon="0.79723">
        <ele>502</ele>
        <time>2021-03-13T14:27:03Z</time>
      </trkpt>
      <trkpt lat="42.99381" lon="0.79719">
        <ele>502</ele>
        <time>2021-03-13T14:27:04Z</time>
      </trkpt>
      <trkpt lat="42.99381" lon="0.79715">
        <ele>503</ele>
        <time>2021-03-13T14:27:05Z</time>
      </trkpt>
      <trkpt lat="42.99381" lon="0.79711">
        <ele>503</ele>
        <time>2021-03-13T14:27:06Z</time>
      </trkpt>
      <trkpt lat="42.9938" lon="0.79707">
        <ele>503</ele>
        <time>2021-03-13T14:27:07Z</time>
      </trkpt>
      <trkpt lat="42.99379" lon="0.79703">
        <ele>503</ele>
        <time>2021-03-13T14:27:08Z</time>
      </trkpt>
      <trkpt lat="42.99378" lon="0.79699">
        <ele>503</ele>
        <time>2021-03-13T14:27:09Z</time>
      </trkpt>
      <trkpt lat="42.99377" lon="0.79694">
        <ele>505</ele>
        <time>2021-03-13T14:27:10Z</time>
      </trkpt>
      <trkpt lat="42.99376" lon="0.7969">
        <ele>505</ele>
        <time>2021-03-13T14:27:11Z</time>
      </trkpt>
      <trkpt lat="42.99376" lon="0.79686">
        <ele>505</ele>
        <time>2021-03-13T14:27:12Z</time>
      </trkpt>
      <trkpt lat="42.99373" lon="0.79681">
        <ele>505</ele>
        <time>2021-03-13T14:27:13Z</time>
      </trkpt>
      <trkpt lat="42.99371" lon="0.79675">
        <ele>505</ele>
        <time>2021-03-13T14:27:14Z</time>
      </trkpt>
      <trkpt lat="42.99369" lon="0.7967">
        <ele>506</ele>
        <time>2021-03-13T14:27:15Z</time>
      </trkpt>
      <trkpt lat="42.99367" lon="0.79666">
        <ele>506</ele>
        <time>2021-03-13T14:27:16Z</time>
      </trkpt>
      <trkpt lat="42.99367" lon="0.79666">
        <ele>506</ele>
        <time>2021-03-13T14:27:17Z</time>
      </trkpt>
      <trkpt lat="42.99362" lon="0.79661">
        <ele>506</ele>
        <time>2021-03-13T14:27:18Z</time>
      </trkpt>
      <trkpt lat="42.99362" lon="0.79661">
        <ele>506</ele>
        <time>2021-03-13T14:27:19Z</time>
      </trkpt>
      <trkpt lat="42.99359" lon="0.79658">
        <ele>507</ele>
        <time>2021-03-13T14:27:20Z</time>
      </trkpt>
      <trkpt lat="42.99357" lon="0.79655">
        <ele>507</ele>
        <time>2021-03-13T14:27:21Z</time>
      </trkpt>
      <trkpt lat="42.99354" lon="0.79652">
        <ele>507</ele>
        <time>2021-03-13T14:27:22Z</time>
      </trkpt>
      <trkpt lat="42.99351" lon="0.79651">
        <ele>507</ele>
        <time>2021-03-13T14:27:23Z</time>
      </trkpt>
      <trkpt lat="42.99348" lon="0.79649">
        <ele>507</ele>
        <time>2021-03-13T14:27:24Z</time>
      </trkpt>
      <trkpt lat="42.99344" lon="0.79648">
        <ele>507</ele>
        <time>2021-03-13T14:27:25Z</time>
      </trkpt>
      <trkpt lat="42.99341" lon="0.79646">
        <ele>507</ele>
        <time>2021-03-13T14:27:26Z</time>
      </trkpt>
      <trkpt lat="42.99338" lon="0.79645">
        <ele>507</ele>
        <time>2021-03-13T14:27:27Z</time>
      </trkpt>
      <trkpt lat="42.99335" lon="0.79644">
        <ele>507</ele>
        <time>2021-03-13T14:27:28Z</time>
      </trkpt>
      <trkpt lat="42.99331" lon="0.79644">
        <ele>507</ele>
        <time>2021-03-13T14:27:29Z</time>
      </trkpt>
      <trkpt lat="42.99328" lon="0.79643">
        <ele>507</ele>
        <time>2021-03-13T14:27:30Z</time>
      </trkpt>
      <trkpt lat="42.99325" lon="0.79642">
        <ele>507</ele>
        <time>2021-03-13T14:27:31Z</time>
      </trkpt>
      <trkpt lat="42.99322" lon="0.79642">
        <ele>507</ele>
        <time>2021-03-13T14:27:32Z</time>
      </trkpt>
      <trkpt lat="42.99319" lon="0.79642">
        <ele>507</ele>
        <time>2021-03-13T14:27:33Z</time>
      </trkpt>
      <trkpt lat="42.99315" lon="0.79642">
        <ele>507</ele>
        <time>2021-03-13T14:27:34Z</time>
      </trkpt>
      <trkpt lat="42.99312" lon="0.79642">
        <ele>507</ele>
        <time>2021-03-13T14:27:35Z</time>
      </trkpt>
      <trkpt lat="42.99309" lon="0.79642">
        <ele>507</ele>
        <time>2021-03-13T14:27:36Z</time>
      </trkpt>
      <trkpt lat="42.99306" lon="0.79642">
        <ele>507</ele>
        <time>2021-03-13T14:27:37Z</time>
      </trkpt>
      <trkpt lat="42.99299" lon="0.79643">
        <ele>507</ele>
        <time>2021-03-13T14:27:38Z</time>
      </trkpt>
      <trkpt lat="42.99299" lon="0.79643">
        <ele>507</ele>
        <time>2021-03-13T14:27:39Z</time>
      </trkpt>
      <trkpt lat="42.99293" lon="0.79644">
        <ele>510</ele>
        <time>2021-03-13T14:27:40Z</time>
      </trkpt>
      <trkpt lat="42.99293" lon="0.79644">
        <ele>510</ele>
        <time>2021-03-13T14:27:41Z</time>
      </trkpt>
      <trkpt lat="42.99286" lon="0.79645">
        <ele>510</ele>
        <time>2021-03-13T14:27:42Z</time>
      </trkpt>
      <trkpt lat="42.99286" lon="0.79645">
        <ele>510</ele>
        <time>2021-03-13T14:27:43Z</time>
      </trkpt>
      <trkpt lat="42.9928" lon="0.79646">
        <ele>510</ele>
        <time>2021-03-13T14:27:44Z</time>
      </trkpt>
      <trkpt lat="42.9928" lon="0.79646">
        <ele>511</ele>
        <time>2021-03-13T14:27:45Z</time>
      </trkpt>
      <trkpt lat="42.99273" lon="0.79648">
        <ele>511</ele>
        <time>2021-03-13T14:27:46Z</time>
      </trkpt>
      <trkpt lat="42.99273" lon="0.79648">
        <ele>511</ele>
        <time>2021-03-13T14:27:47Z</time>
      </trkpt>
      <trkpt lat="42.99267" lon="0.7965">
        <ele>511</ele>
        <time>2021-03-13T14:27:48Z</time>
      </trkpt>
      <trkpt lat="42.99267" lon="0.7965">
        <ele>511</ele>
        <time>2021-03-13T14:27:49Z</time>
      </trkpt>
      <trkpt lat="42.99261" lon="0.79652">
        <ele>512</ele>
        <time>2021-03-13T14:27:50Z</time>
      </trkpt>
      <trkpt lat="42.99261" lon="0.79652">
        <ele>512</ele>
        <time>2021-03-13T14:27:51Z</time>
      </trkpt>
      <trkpt lat="42.99254" lon="0.79655">
        <ele>512</ele>
        <time>2021-03-13T14:27:52Z</time>
      </trkpt>
      <trkpt lat="42.99254" lon="0.79655">
        <ele>512</ele>
        <time>2021-03-13T14:27:53Z</time>
      </trkpt>
      <trkpt lat="42.99248" lon="0.79659">
        <ele>512</ele>
        <time>2021-03-13T14:27:54Z</time>
      </trkpt>
      <trkpt lat="42.99248" lon="0.79659">
        <ele>512</ele>
        <time>2021-03-13T14:27:55Z</time>
      </trkpt>
      <trkpt lat="42.99242" lon="0.79663">
        <ele>512</ele>
        <time>2021-03-13T14:27:56Z</time>
      </trkpt>
      <trkpt lat="42.99242" lon="0.79663">
        <ele>512</ele>
        <time>2021-03-13T14:27:57Z</time>
      </trkpt>
      <trkpt lat="42.99236" lon="0.79667">
        <ele>512</ele>
        <time>2021-03-13T14:27:58Z</time>
      </trkpt>
      <trkpt lat="42.99236" lon="0.79667">
        <ele>512</ele>
        <time>2021-03-13T14:27:59Z</time>
      </trkpt>
      <trkpt lat="42.99231" lon="0.79672">
        <ele>513</ele>
        <time>2021-03-13T14:28:00Z</time>
      </trkpt>
      <trkpt lat="42.99231" lon="0.79672">
        <ele>513</ele>
        <time>2021-03-13T14:28:01Z</time>
      </trkpt>
      <trkpt lat="42.99225" lon="0.79677">
        <ele>513</ele>
        <time>2021-03-13T14:28:02Z</time>
      </trkpt>
      <trkpt lat="42.99225" lon="0.79677">
        <ele>513</ele>
        <time>2021-03-13T14:28:03Z</time>
      </trkpt>
      <trkpt lat="42.99219" lon="0.79682">
        <ele>513</ele>
        <time>2021-03-13T14:28:04Z</time>
      </trkpt>
      <trkpt lat="42.99219" lon="0.79682">
        <ele>513</ele>
        <time>2021-03-13T14:28:05Z</time>
      </trkpt>
      <trkpt lat="42.99214" lon="0.79688">
        <ele>513</ele>
        <time>2021-03-13T14:28:06Z</time>
      </trkpt>
      <trkpt lat="42.99214" lon="0.79688">
        <ele>513</ele>
        <time>2021-03-13T14:28:07Z</time>
      </trkpt>
      <trkpt lat="42.99208" lon="0.79693">
        <ele>513</ele>
        <time>2021-03-13T14:28:08Z</time>
      </trkpt>
      <trkpt lat="42.99208" lon="0.79693">
        <ele>513</ele>
        <time>2021-03-13T14:28:09Z</time>
      </trkpt>
      <trkpt lat="42.99206" lon="0.79696">
        <ele>514</ele>
        <time>2021-03-13T14:28:10Z</time>
      </trkpt>
      <trkpt lat="42.99203" lon="0.79699">
        <ele>514</ele>
        <time>2021-03-13T14:28:11Z</time>
      </trkpt>
      <trkpt lat="42.992" lon="0.79702">
        <ele>514</ele>
        <time>2021-03-13T14:28:12Z</time>
      </trkpt>
      <trkpt lat="42.99198" lon="0.79705">
        <ele>514</ele>
        <time>2021-03-13T14:28:13Z</time>
      </trkpt>
      <trkpt lat="42.99195" lon="0.79708">
        <ele>514</ele>
        <time>2021-03-13T14:28:14Z</time>
      </trkpt>
      <trkpt lat="42.99192" lon="0.79711">
        <ele>514</ele>
        <time>2021-03-13T14:28:15Z</time>
      </trkpt>
      <trkpt lat="42.99189" lon="0.79714">
        <ele>514</ele>
        <time>2021-03-13T14:28:16Z</time>
      </trkpt>
      <trkpt lat="42.99186" lon="0.79717">
        <ele>514</ele>
        <time>2021-03-13T14:28:17Z</time>
      </trkpt>
      <trkpt lat="42.99183" lon="0.7972">
        <ele>514</ele>
        <time>2021-03-13T14:28:18Z</time>
      </trkpt>
      <trkpt lat="42.99181" lon="0.79723">
        <ele>514</ele>
        <time>2021-03-13T14:28:19Z</time>
      </trkpt>
      <trkpt lat="42.99178" lon="0.79726">
        <ele>516</ele>
        <time>2021-03-13T14:28:20Z</time>
      </trkpt>
      <trkpt lat="42.99175" lon="0.79729">
        <ele>516</ele>
        <time>2021-03-13T14:28:21Z</time>
      </trkpt>
      <trkpt lat="42.99172" lon="0.79732">
        <ele>516</ele>
        <time>2021-03-13T14:28:22Z</time>
      </trkpt>
      <trkpt lat="42.9917" lon="0.79735">
        <ele>516</ele>
        <time>2021-03-13T14:28:23Z</time>
      </trkpt>
      <trkpt lat="42.99167" lon="0.79738">
        <ele>516</ele>
        <time>2021-03-13T14:28:24Z</time>
      </trkpt>
      <trkpt lat="42.99164" lon="0.79741">
        <ele>516</ele>
        <time>2021-03-13T14:28:25Z</time>
      </trkpt>
      <trkpt lat="42.99161" lon="0.79745">
        <ele>516</ele>
        <time>2021-03-13T14:28:26Z</time>
      </trkpt>
      <trkpt lat="42.99159" lon="0.79748">
        <ele>516</ele>
        <time>2021-03-13T14:28:27Z</time>
      </trkpt>
      <trkpt lat="42.99156" lon="0.7975">
        <ele>516</ele>
        <time>2021-03-13T14:28:28Z</time>
      </trkpt>
      <trkpt lat="42.99153" lon="0.79753">
        <ele>516</ele>
        <time>2021-03-13T14:28:29Z</time>
      </trkpt>
      <trkpt lat="42.9915" lon="0.79756">
        <ele>516</ele>
        <time>2021-03-13T14:28:30Z</time>
      </trkpt>
      <trkpt lat="42.99147" lon="0.79759">
        <ele>516</ele>
        <time>2021-03-13T14:28:31Z</time>
      </trkpt>
      <trkpt lat="42.99145" lon="0.79762">
        <ele>516</ele>
        <time>2021-03-13T14:28:32Z</time>
      </trkpt>
      <trkpt lat="42.99142" lon="0.79765">
        <ele>516</ele>
        <time>2021-03-13T14:28:33Z</time>
      </trkpt>
      <trkpt lat="42.99139" lon="0.79769">
        <ele>516</ele>
        <time>2021-03-13T14:28:34Z</time>
      </trkpt>
      <trkpt lat="42.99136" lon="0.79772">
        <ele>516</ele>
        <time>2021-03-13T14:28:35Z</time>
      </trkpt>
      <trkpt lat="42.99134" lon="0.79776">
        <ele>516</ele>
        <time>2021-03-13T14:28:36Z</time>
      </trkpt>
      <trkpt lat="42.99131" lon="0.7978">
        <ele>516</ele>
        <time>2021-03-13T14:28:37Z</time>
      </trkpt>
      <trkpt lat="42.99129" lon="0.79784">
        <ele>516</ele>
        <time>2021-03-13T14:28:38Z</time>
      </trkpt>
      <trkpt lat="42.99126" lon="0.79788">
        <ele>516</ele>
        <time>2021-03-13T14:28:39Z</time>
      </trkpt>
      <trkpt lat="42.99124" lon="0.79793">
        <ele>516</ele>
        <time>2021-03-13T14:28:40Z</time>
      </trkpt>
      <trkpt lat="42.99122" lon="0.79798">
        <ele>516</ele>
        <time>2021-03-13T14:28:41Z</time>
      </trkpt>
      <trkpt lat="42.9912" lon="0.79805">
        <ele>516</ele>
        <time>2021-03-13T14:28:42Z</time>
      </trkpt>
      <trkpt lat="42.99118" lon="0.79811">
        <ele>516</ele>
        <time>2021-03-13T14:28:43Z</time>
      </trkpt>
      <trkpt lat="42.99116" lon="0.79818">
        <ele>516</ele>
        <time>2021-03-13T14:28:44Z</time>
      </trkpt>
      <trkpt lat="42.99114" lon="0.79825">
        <ele>516</ele>
        <time>2021-03-13T14:28:45Z</time>
      </trkpt>
      <trkpt lat="42.99112" lon="0.79832">
        <ele>516</ele>
        <time>2021-03-13T14:28:46Z</time>
      </trkpt>
      <trkpt lat="42.9911" lon="0.79839">
        <ele>516</ele>
        <time>2021-03-13T14:28:47Z</time>
      </trkpt>
      <trkpt lat="42.99108" lon="0.79847">
        <ele>516</ele>
        <time>2021-03-13T14:28:48Z</time>
      </trkpt>
      <trkpt lat="42.99107" lon="0.7985">
        <ele>516</ele>
        <time>2021-03-13T14:28:49Z</time>
      </trkpt>
      <trkpt lat="42.99106" lon="0.79854">
        <ele>516</ele>
        <time>2021-03-13T14:28:50Z</time>
      </trkpt>
      <trkpt lat="42.99103" lon="0.79867">
        <ele>516</ele>
        <time>2021-03-13T14:28:51Z</time>
      </trkpt>
      <trkpt lat="42.99102" lon="0.79873">
        <ele>516</ele>
        <time>2021-03-13T14:28:52Z</time>
      </trkpt>
      <trkpt lat="42.991" lon="0.79884">
        <ele>516</ele>
        <time>2021-03-13T14:28:53Z</time>
      </trkpt>
      <trkpt lat="42.99099" lon="0.79891">
        <ele>516</ele>
        <time>2021-03-13T14:28:54Z</time>
      </trkpt>
      <trkpt lat="42.99097" lon="0.79899">
        <ele>516</ele>
        <time>2021-03-13T14:28:55Z</time>
      </trkpt>
      <trkpt lat="42.99096" lon="0.79906">
        <ele>516</ele>
        <time>2021-03-13T14:28:56Z</time>
      </trkpt>
      <trkpt lat="42.99095" lon="0.79913">
        <ele>516</ele>
        <time>2021-03-13T14:28:57Z</time>
      </trkpt>
      <trkpt lat="42.99093" lon="0.79921">
        <ele>516</ele>
        <time>2021-03-13T14:28:58Z</time>
      </trkpt>
      <trkpt lat="42.99092" lon="0.79928">
        <ele>516</ele>
        <time>2021-03-13T14:28:59Z</time>
      </trkpt>
      <trkpt lat="42.9909" lon="0.79936">
        <ele>515</ele>
        <time>2021-03-13T14:29:00Z</time>
      </trkpt>
      <trkpt lat="42.99089" lon="0.79941">
        <ele>515</ele>
        <time>2021-03-13T14:29:01Z</time>
      </trkpt>
      <trkpt lat="42.99088" lon="0.79947">
        <ele>515</ele>
        <time>2021-03-13T14:29:02Z</time>
      </trkpt>
      <trkpt lat="42.99086" lon="0.79959">
        <ele>515</ele>
        <time>2021-03-13T14:29:03Z</time>
      </trkpt>
      <trkpt lat="42.99084" lon="0.79966">
        <ele>515</ele>
        <time>2021-03-13T14:29:04Z</time>
      </trkpt>
      <trkpt lat="42.99083" lon="0.79974">
        <ele>515</ele>
        <time>2021-03-13T14:29:05Z</time>
      </trkpt>
      <trkpt lat="42.99081" lon="0.79981">
        <ele>515</ele>
        <time>2021-03-13T14:29:06Z</time>
      </trkpt>
      <trkpt lat="42.9908" lon="0.79989">
        <ele>515</ele>
        <time>2021-03-13T14:29:07Z</time>
      </trkpt>
      <trkpt lat="42.99079" lon="0.79996">
        <ele>515</ele>
        <time>2021-03-13T14:29:08Z</time>
      </trkpt>
      <trkpt lat="42.99078" lon="0.80004">
        <ele>515</ele>
        <time>2021-03-13T14:29:09Z</time>
      </trkpt>
      <trkpt lat="42.99077" lon="0.80011">
        <ele>515</ele>
        <time>2021-03-13T14:29:10Z</time>
      </trkpt>
      <trkpt lat="42.99076" lon="0.80015">
        <ele>515</ele>
        <time>2021-03-13T14:29:11Z</time>
      </trkpt>
      <trkpt lat="42.99076" lon="0.80019">
        <ele>515</ele>
        <time>2021-03-13T14:29:12Z</time>
      </trkpt>
      <trkpt lat="42.99074" lon="0.8003">
        <ele>515</ele>
        <time>2021-03-13T14:29:13Z</time>
      </trkpt>
      <trkpt lat="42.99074" lon="0.80034">
        <ele>515</ele>
        <time>2021-03-13T14:29:14Z</time>
      </trkpt>
      <trkpt lat="42.99072" lon="0.80045">
        <ele>515</ele>
        <time>2021-03-13T14:29:15Z</time>
      </trkpt>
      <trkpt lat="42.99072" lon="0.80049">
        <ele>515</ele>
        <time>2021-03-13T14:29:16Z</time>
      </trkpt>
      <trkpt lat="42.9907" lon="0.8006">
        <ele>515</ele>
        <time>2021-03-13T14:29:17Z</time>
      </trkpt>
      <trkpt lat="42.9907" lon="0.80063">
        <ele>515</ele>
        <time>2021-03-13T14:29:18Z</time>
      </trkpt>
      <trkpt lat="42.99067" lon="0.80074">
        <ele>515</ele>
        <time>2021-03-13T14:29:19Z</time>
      </trkpt>
      <trkpt lat="42.99066" lon="0.80078">
        <ele>514</ele>
        <time>2021-03-13T14:29:20Z</time>
      </trkpt>
      <trkpt lat="42.99062" lon="0.80091">
        <ele>514</ele>
        <time>2021-03-13T14:29:21Z</time>
      </trkpt>
      <trkpt lat="42.9906" lon="0.80097">
        <ele>514</ele>
        <time>2021-03-13T14:29:22Z</time>
      </trkpt>
      <trkpt lat="42.99059" lon="0.801">
        <ele>514</ele>
        <time>2021-03-13T14:29:23Z</time>
      </trkpt>
      <trkpt lat="42.99057" lon="0.80103">
        <ele>514</ele>
        <time>2021-03-13T14:29:24Z</time>
      </trkpt>
      <trkpt lat="42.99052" lon="0.80115">
        <ele>514</ele>
        <time>2021-03-13T14:29:25Z</time>
      </trkpt>
      <trkpt lat="42.99048" lon="0.8012">
        <ele>514</ele>
        <time>2021-03-13T14:29:26Z</time>
      </trkpt>
      <trkpt lat="42.99045" lon="0.80126">
        <ele>514</ele>
        <time>2021-03-13T14:29:27Z</time>
      </trkpt>
      <trkpt lat="42.99042" lon="0.80131">
        <ele>514</ele>
        <time>2021-03-13T14:29:28Z</time>
      </trkpt>
      <trkpt lat="42.99041" lon="0.80134">
        <ele>514</ele>
        <time>2021-03-13T14:29:29Z</time>
      </trkpt>
      <trkpt lat="42.99039" lon="0.80137">
        <ele>512</ele>
        <time>2021-03-13T14:29:30Z</time>
      </trkpt>
      <trkpt lat="42.99033" lon="0.80148">
        <ele>512</ele>
        <time>2021-03-13T14:29:31Z</time>
      </trkpt>
      <trkpt lat="42.99031" lon="0.80154">
        <ele>512</ele>
        <time>2021-03-13T14:29:32Z</time>
      </trkpt>
      <trkpt lat="42.99028" lon="0.8016">
        <ele>512</ele>
        <time>2021-03-13T14:29:33Z</time>
      </trkpt>
      <trkpt lat="42.99026" lon="0.80165">
        <ele>512</ele>
        <time>2021-03-13T14:29:34Z</time>
      </trkpt>
      <trkpt lat="42.99024" lon="0.80171">
        <ele>512</ele>
        <time>2021-03-13T14:29:35Z</time>
      </trkpt>
      <trkpt lat="42.99022" lon="0.80177">
        <ele>512</ele>
        <time>2021-03-13T14:29:36Z</time>
      </trkpt>
      <trkpt lat="42.99021" lon="0.80183">
        <ele>512</ele>
        <time>2021-03-13T14:29:37Z</time>
      </trkpt>
      <trkpt lat="42.9902" lon="0.80189">
        <ele>512</ele>
        <time>2021-03-13T14:29:38Z</time>
      </trkpt>
      <trkpt lat="42.99019" lon="0.80195">
        <ele>512</ele>
        <time>2021-03-13T14:29:39Z</time>
      </trkpt>
      <trkpt lat="42.99018" lon="0.80201">
        <ele>513</ele>
        <time>2021-03-13T14:29:40Z</time>
      </trkpt>
      <trkpt lat="42.99017" lon="0.80208">
        <ele>513</ele>
        <time>2021-03-13T14:29:41Z</time>
      </trkpt>
      <trkpt lat="42.99016" lon="0.80214">
        <ele>513</ele>
        <time>2021-03-13T14:29:42Z</time>
      </trkpt>
      <trkpt lat="42.99015" lon="0.8022">
        <ele>513</ele>
        <time>2021-03-13T14:29:43Z</time>
      </trkpt>
      <trkpt lat="42.99014" lon="0.80226">
        <ele>513</ele>
        <time>2021-03-13T14:29:44Z</time>
      </trkpt>
      <trkpt lat="42.99013" lon="0.80233">
        <ele>513</ele>
        <time>2021-03-13T14:29:45Z</time>
      </trkpt>
      <trkpt lat="42.99012" lon="0.80239">
        <ele>513</ele>
        <time>2021-03-13T14:29:46Z</time>
      </trkpt>
      <trkpt lat="42.99011" lon="0.80246">
        <ele>513</ele>
        <time>2021-03-13T14:29:47Z</time>
      </trkpt>
      <trkpt lat="42.9901" lon="0.80252">
        <ele>513</ele>
        <time>2021-03-13T14:29:48Z</time>
      </trkpt>
      <trkpt lat="42.99009" lon="0.80258">
        <ele>513</ele>
        <time>2021-03-13T14:29:49Z</time>
      </trkpt>
      <trkpt lat="42.99008" lon="0.80264">
        <ele>514</ele>
        <time>2021-03-13T14:29:50Z</time>
      </trkpt>
      <trkpt lat="42.99006" lon="0.80271">
        <ele>514</ele>
        <time>2021-03-13T14:29:51Z</time>
      </trkpt>
      <trkpt lat="42.99005" lon="0.80277">
        <ele>514</ele>
        <time>2021-03-13T14:29:52Z</time>
      </trkpt>
      <trkpt lat="42.99003" lon="0.80283">
        <ele>514</ele>
        <time>2021-03-13T14:29:53Z</time>
      </trkpt>
      <trkpt lat="42.99002" lon="0.80288">
        <ele>514</ele>
        <time>2021-03-13T14:29:54Z</time>
      </trkpt>
      <trkpt lat="42.99" lon="0.80295">
        <ele>514</ele>
        <time>2021-03-13T14:29:55Z</time>
      </trkpt>
      <trkpt lat="42.98998" lon="0.80301">
        <ele>514</ele>
        <time>2021-03-13T14:29:56Z</time>
      </trkpt>
      <trkpt lat="42.98996" lon="0.80307">
        <ele>514</ele>
        <time>2021-03-13T14:29:57Z</time>
      </trkpt>
      <trkpt lat="42.98994" lon="0.80314">
        <ele>514</ele>
        <time>2021-03-13T14:29:58Z</time>
      </trkpt>
      <trkpt lat="42.98992" lon="0.80319">
        <ele>514</ele>
        <time>2021-03-13T14:29:59Z</time>
      </trkpt>
      <trkpt lat="42.98989" lon="0.80325">
        <ele>515</ele>
        <time>2021-03-13T14:30:00Z</time>
      </trkpt>
      <trkpt lat="42.98988" lon="0.80328">
        <ele>515</ele>
        <time>2021-03-13T14:30:01Z</time>
      </trkpt>
      <trkpt lat="42.98986" lon="0.8033">
        <ele>515</ele>
        <time>2021-03-13T14:30:02Z</time>
      </trkpt>
      <trkpt lat="42.9898" lon="0.80341">
        <ele>515</ele>
        <time>2021-03-13T14:30:03Z</time>
      </trkpt>
      <trkpt lat="42.98978" lon="0.80346">
        <ele>515</ele>
        <time>2021-03-13T14:30:04Z</time>
      </trkpt>
      <trkpt lat="42.98975" lon="0.80351">
        <ele>515</ele>
        <time>2021-03-13T14:30:05Z</time>
      </trkpt>
      <trkpt lat="42.98972" lon="0.80355">
        <ele>515</ele>
        <time>2021-03-13T14:30:06Z</time>
      </trkpt>
      <trkpt lat="42.9897" lon="0.8036">
        <ele>515</ele>
        <time>2021-03-13T14:30:07Z</time>
      </trkpt>
      <trkpt lat="42.98967" lon="0.80364">
        <ele>515</ele>
        <time>2021-03-13T14:30:08Z</time>
      </trkpt>
      <trkpt lat="42.98965" lon="0.80368">
        <ele>515</ele>
        <time>2021-03-13T14:30:09Z</time>
      </trkpt>
      <trkpt lat="42.98963" lon="0.80373">
        <ele>515</ele>
        <time>2021-03-13T14:30:10Z</time>
      </trkpt>
      <trkpt lat="42.98961" lon="0.80378">
        <ele>515</ele>
        <time>2021-03-13T14:30:11Z</time>
      </trkpt>
      <trkpt lat="42.98959" lon="0.80382">
        <ele>515</ele>
        <time>2021-03-13T14:30:12Z</time>
      </trkpt>
      <trkpt lat="42.98957" lon="0.80387">
        <ele>515</ele>
        <time>2021-03-13T14:30:13Z</time>
      </trkpt>
      <trkpt lat="42.98956" lon="0.80392">
        <ele>515</ele>
        <time>2021-03-13T14:30:14Z</time>
      </trkpt>
      <trkpt lat="42.98955" lon="0.80395">
        <ele>515</ele>
        <time>2021-03-13T14:30:15Z</time>
      </trkpt>
      <trkpt lat="42.98954" lon="0.80397">
        <ele>515</ele>
        <time>2021-03-13T14:30:16Z</time>
      </trkpt>
      <trkpt lat="42.98953" lon="0.804">
        <ele>515</ele>
        <time>2021-03-13T14:30:17Z</time>
      </trkpt>
      <trkpt lat="42.98948" lon="0.80412">
        <ele>515</ele>
        <time>2021-03-13T14:30:18Z</time>
      </trkpt>
      <trkpt lat="42.98946" lon="0.80417">
        <ele>515</ele>
        <time>2021-03-13T14:30:19Z</time>
      </trkpt>
      <trkpt lat="42.98944" lon="0.80422">
        <ele>516</ele>
        <time>2021-03-13T14:30:20Z</time>
      </trkpt>
      <trkpt lat="42.98942" lon="0.80427">
        <ele>516</ele>
        <time>2021-03-13T14:30:21Z</time>
      </trkpt>
      <trkpt lat="42.9894" lon="0.80432">
        <ele>516</ele>
        <time>2021-03-13T14:30:22Z</time>
      </trkpt>
      <trkpt lat="42.98937" lon="0.80437">
        <ele>516</ele>
        <time>2021-03-13T14:30:23Z</time>
      </trkpt>
      <trkpt lat="42.98935" lon="0.80442">
        <ele>516</ele>
        <time>2021-03-13T14:30:24Z</time>
      </trkpt>
      <trkpt lat="42.98933" lon="0.80447">
        <ele>516</ele>
        <time>2021-03-13T14:30:25Z</time>
      </trkpt>
      <trkpt lat="42.98931" lon="0.80452">
        <ele>516</ele>
        <time>2021-03-13T14:30:26Z</time>
      </trkpt>
      <trkpt lat="42.98929" lon="0.80457">
        <ele>516</ele>
        <time>2021-03-13T14:30:27Z</time>
      </trkpt>
      <trkpt lat="42.98926" lon="0.80462">
        <ele>516</ele>
        <time>2021-03-13T14:30:28Z</time>
      </trkpt>
      <trkpt lat="42.98924" lon="0.80467">
        <ele>516</ele>
        <time>2021-03-13T14:30:29Z</time>
      </trkpt>
      <trkpt lat="42.9892" lon="0.80477">
        <ele>516</ele>
        <time>2021-03-13T14:30:30Z</time>
      </trkpt>
      <trkpt lat="42.9892" lon="0.80477">
        <ele>516</ele>
        <time>2021-03-13T14:30:31Z</time>
      </trkpt>
      <trkpt lat="42.98915" lon="0.80487">
        <ele>516</ele>
        <time>2021-03-13T14:30:32Z</time>
      </trkpt>
      <trkpt lat="42.98915" lon="0.80487">
        <ele>516</ele>
        <time>2021-03-13T14:30:33Z</time>
      </trkpt>
      <trkpt lat="42.98911" lon="0.80496">
        <ele>516</ele>
        <time>2021-03-13T14:30:34Z</time>
      </trkpt>
      <trkpt lat="42.98911" lon="0.80496">
        <ele>516</ele>
        <time>2021-03-13T14:30:35Z</time>
      </trkpt>
      <trkpt lat="42.98909" lon="0.80501">
        <ele>516</ele>
        <time>2021-03-13T14:30:36Z</time>
      </trkpt>
      <trkpt lat="42.98906" lon="0.80505">
        <ele>516</ele>
        <time>2021-03-13T14:30:37Z</time>
      </trkpt>
      <trkpt lat="42.98904" lon="0.8051">
        <ele>516</ele>
        <time>2021-03-13T14:30:38Z</time>
      </trkpt>
      <trkpt lat="42.98902" lon="0.80514">
        <ele>516</ele>
        <time>2021-03-13T14:30:39Z</time>
      </trkpt>
      <trkpt lat="42.989" lon="0.80519">
        <ele>517</ele>
        <time>2021-03-13T14:30:40Z</time>
      </trkpt>
      <trkpt lat="42.98897" lon="0.80523">
        <ele>517</ele>
        <time>2021-03-13T14:30:41Z</time>
      </trkpt>
      <trkpt lat="42.98895" lon="0.80528">
        <ele>517</ele>
        <time>2021-03-13T14:30:42Z</time>
      </trkpt>
      <trkpt lat="42.98892" lon="0.80532">
        <ele>517</ele>
        <time>2021-03-13T14:30:43Z</time>
      </trkpt>
      <trkpt lat="42.9889" lon="0.80537">
        <ele>517</ele>
        <time>2021-03-13T14:30:44Z</time>
      </trkpt>
      <trkpt lat="42.98888" lon="0.80542">
        <ele>517</ele>
        <time>2021-03-13T14:30:45Z</time>
      </trkpt>
      <trkpt lat="42.98886" lon="0.80547">
        <ele>517</ele>
        <time>2021-03-13T14:30:46Z</time>
      </trkpt>
      <trkpt lat="42.98883" lon="0.80552">
        <ele>517</ele>
        <time>2021-03-13T14:30:47Z</time>
      </trkpt>
      <trkpt lat="42.98879" lon="0.80559">
        <ele>517</ele>
        <time>2021-03-13T14:30:48Z</time>
      </trkpt>
      <trkpt lat="42.98875" lon="0.80566">
        <ele>517</ele>
        <time>2021-03-13T14:30:49Z</time>
      </trkpt>
      <trkpt lat="42.98871" lon="0.80573">
        <ele>517</ele>
        <time>2021-03-13T14:30:50Z</time>
      </trkpt>
      <trkpt lat="42.98866" lon="0.8058">
        <ele>517</ele>
        <time>2021-03-13T14:30:51Z</time>
      </trkpt>
      <trkpt lat="42.98864" lon="0.80583">
        <ele>517</ele>
        <time>2021-03-13T14:30:52Z</time>
      </trkpt>
      <trkpt lat="42.9886" lon="0.80588">
        <ele>517</ele>
        <time>2021-03-13T14:30:53Z</time>
      </trkpt>
      <trkpt lat="42.9886" lon="0.80588">
        <ele>517</ele>
        <time>2021-03-13T14:30:54Z</time>
      </trkpt>
      <trkpt lat="42.9885" lon="0.806">
        <ele>517</ele>
        <time>2021-03-13T14:30:55Z</time>
      </trkpt>
      <trkpt lat="42.98848" lon="0.80603">
        <ele>517</ele>
        <time>2021-03-13T14:30:56Z</time>
      </trkpt>
      <trkpt lat="42.98842" lon="0.8061">
        <ele>517</ele>
        <time>2021-03-13T14:30:57Z</time>
      </trkpt>
      <trkpt lat="42.9884" lon="0.80612">
        <ele>517</ele>
        <time>2021-03-13T14:30:58Z</time>
      </trkpt>
      <trkpt lat="42.98834" lon="0.80619">
        <ele>517</ele>
        <time>2021-03-13T14:30:59Z</time>
      </trkpt>
      <trkpt lat="42.98833" lon="0.80622">
        <ele>516</ele>
        <time>2021-03-13T14:31:00Z</time>
      </trkpt>
      <trkpt lat="42.9883" lon="0.80627">
        <ele>516</ele>
        <time>2021-03-13T14:31:01Z</time>
      </trkpt>
      <trkpt lat="42.9883" lon="0.80627">
        <ele>516</ele>
        <time>2021-03-13T14:31:02Z</time>
      </trkpt>
      <trkpt lat="42.98827" lon="0.80638">
        <ele>516</ele>
        <time>2021-03-13T14:31:03Z</time>
      </trkpt>
      <trkpt lat="42.98827" lon="0.80638">
        <ele>516</ele>
        <time>2021-03-13T14:31:04Z</time>
      </trkpt>
      <trkpt lat="42.98823" lon="0.80647">
        <ele>516</ele>
        <time>2021-03-13T14:31:05Z</time>
      </trkpt>
      <trkpt lat="42.98823" lon="0.80647">
        <ele>516</ele>
        <time>2021-03-13T14:31:06Z</time>
      </trkpt>
      <trkpt lat="42.98819" lon="0.8065">
        <ele>516</ele>
        <time>2021-03-13T14:31:07Z</time>
      </trkpt>
      <trkpt lat="42.98814" lon="0.80653">
        <ele>516</ele>
        <time>2021-03-13T14:31:08Z</time>
      </trkpt>
      <trkpt lat="42.9881" lon="0.80656">
        <ele>516</ele>
        <time>2021-03-13T14:31:09Z</time>
      </trkpt>
      <trkpt lat="42.98807" lon="0.80658">
        <ele>517</ele>
        <time>2021-03-13T14:31:10Z</time>
      </trkpt>
      <trkpt lat="42.98807" lon="0.80658">
        <ele>517</ele>
        <time>2021-03-13T14:31:11Z</time>
      </trkpt>
      <trkpt lat="42.98804" lon="0.8066">
        <ele>517</ele>
        <time>2021-03-13T14:31:12Z</time>
      </trkpt>
      <trkpt lat="42.98802" lon="0.80662">
        <ele>517</ele>
        <time>2021-03-13T14:31:13Z</time>
      </trkpt>
      <trkpt lat="42.98799" lon="0.80665">
        <ele>517</ele>
        <time>2021-03-13T14:31:14Z</time>
      </trkpt>
      <trkpt lat="42.98797" lon="0.80662">
        <ele>517</ele>
        <time>2021-03-13T14:31:15Z</time>
      </trkpt>
      <trkpt lat="42.98794" lon="0.80659">
        <ele>517</ele>
        <time>2021-03-13T14:31:16Z</time>
      </trkpt>
      <trkpt lat="42.98792" lon="0.80655">
        <ele>517</ele>
        <time>2021-03-13T14:31:17Z</time>
      </trkpt>
      <trkpt lat="42.98789" lon="0.80652">
        <ele>517</ele>
        <time>2021-03-13T14:31:18Z</time>
      </trkpt>
      <trkpt lat="42.98787" lon="0.80649">
        <ele>517</ele>
        <time>2021-03-13T14:31:19Z</time>
      </trkpt>
      <trkpt lat="42.98783" lon="0.80646">
        <ele>519</ele>
        <time>2021-03-13T14:31:20Z</time>
      </trkpt>
      <trkpt lat="42.98783" lon="0.80646">
        <ele>519</ele>
        <time>2021-03-13T14:31:21Z</time>
      </trkpt>
      <trkpt lat="42.9878" lon="0.80642">
        <ele>519</ele>
        <time>2021-03-13T14:31:22Z</time>
      </trkpt>
      <trkpt lat="42.98777" lon="0.80639">
        <ele>519</ele>
        <time>2021-03-13T14:31:23Z</time>
      </trkpt>
      <trkpt lat="42.98774" lon="0.80635">
        <ele>519</ele>
        <time>2021-03-13T14:31:24Z</time>
      </trkpt>
      <trkpt lat="42.98773" lon="0.80631">
        <ele>519</ele>
        <time>2021-03-13T14:31:25Z</time>
      </trkpt>
      <trkpt lat="42.98772" lon="0.80627">
        <ele>519</ele>
        <time>2021-03-13T14:31:26Z</time>
      </trkpt>
      <trkpt lat="42.98771" lon="0.80622">
        <ele>519</ele>
        <time>2021-03-13T14:31:27Z</time>
      </trkpt>
      <trkpt lat="42.98771" lon="0.80618">
        <ele>519</ele>
        <time>2021-03-13T14:31:28Z</time>
      </trkpt>
      <trkpt lat="42.98771" lon="0.80613">
        <ele>519</ele>
        <time>2021-03-13T14:31:29Z</time>
      </trkpt>
      <trkpt lat="42.98772" lon="0.80609">
        <ele>520</ele>
        <time>2021-03-13T14:31:30Z</time>
      </trkpt>
      <trkpt lat="42.98772" lon="0.80604">
        <ele>520</ele>
        <time>2021-03-13T14:31:31Z</time>
      </trkpt>
      <trkpt lat="42.98772" lon="0.806">
        <ele>520</ele>
        <time>2021-03-13T14:31:32Z</time>
      </trkpt>
      <trkpt lat="42.98773" lon="0.80595">
        <ele>520</ele>
        <time>2021-03-13T14:31:33Z</time>
      </trkpt>
      <trkpt lat="42.98774" lon="0.8059">
        <ele>520</ele>
        <time>2021-03-13T14:31:34Z</time>
      </trkpt>
      <trkpt lat="42.98774" lon="0.80586">
        <ele>520</ele>
        <time>2021-03-13T14:31:35Z</time>
      </trkpt>
      <trkpt lat="42.98775" lon="0.80581">
        <ele>520</ele>
        <time>2021-03-13T14:31:36Z</time>
      </trkpt>
      <trkpt lat="42.98775" lon="0.80576">
        <ele>520</ele>
        <time>2021-03-13T14:31:37Z</time>
      </trkpt>
      <trkpt lat="42.98775" lon="0.80572">
        <ele>520</ele>
        <time>2021-03-13T14:31:38Z</time>
      </trkpt>
      <trkpt lat="42.98775" lon="0.80568">
        <ele>520</ele>
        <time>2021-03-13T14:31:39Z</time>
      </trkpt>
      <trkpt lat="42.98776" lon="0.80563">
        <ele>520</ele>
        <time>2021-03-13T14:31:40Z</time>
      </trkpt>
      <trkpt lat="42.98776" lon="0.80559">
        <ele>520</ele>
        <time>2021-03-13T14:31:41Z</time>
      </trkpt>
      <trkpt lat="42.98775" lon="0.80554">
        <ele>520</ele>
        <time>2021-03-13T14:31:42Z</time>
      </trkpt>
      <trkpt lat="42.98775" lon="0.8055">
        <ele>520</ele>
        <time>2021-03-13T14:31:43Z</time>
      </trkpt>
      <trkpt lat="42.98774" lon="0.80545">
        <ele>520</ele>
        <time>2021-03-13T14:31:44Z</time>
      </trkpt>
      <trkpt lat="42.98773" lon="0.80541">
        <ele>520</ele>
        <time>2021-03-13T14:31:45Z</time>
      </trkpt>
      <trkpt lat="42.98772" lon="0.80537">
        <ele>520</ele>
        <time>2021-03-13T14:31:46Z</time>
      </trkpt>
      <trkpt lat="42.98771" lon="0.80532">
        <ele>520</ele>
        <time>2021-03-13T14:31:47Z</time>
      </trkpt>
      <trkpt lat="42.9877" lon="0.80528">
        <ele>520</ele>
        <time>2021-03-13T14:31:48Z</time>
      </trkpt>
      <trkpt lat="42.98768" lon="0.80523">
        <ele>520</ele>
        <time>2021-03-13T14:31:49Z</time>
      </trkpt>
      <trkpt lat="42.98767" lon="0.80519">
        <ele>522</ele>
        <time>2021-03-13T14:31:50Z</time>
      </trkpt>
      <trkpt lat="42.98767" lon="0.80514">
        <ele>522</ele>
        <time>2021-03-13T14:31:51Z</time>
      </trkpt>
      <trkpt lat="42.98766" lon="0.8051">
        <ele>522</ele>
        <time>2021-03-13T14:31:52Z</time>
      </trkpt>
      <trkpt lat="42.98765" lon="0.80505">
        <ele>522</ele>
        <time>2021-03-13T14:31:53Z</time>
      </trkpt>
      <trkpt lat="42.98765" lon="0.80501">
        <ele>522</ele>
        <time>2021-03-13T14:31:54Z</time>
      </trkpt>
      <trkpt lat="42.98764" lon="0.80496">
        <ele>522</ele>
        <time>2021-03-13T14:31:55Z</time>
      </trkpt>
      <trkpt lat="42.98764" lon="0.80492">
        <ele>522</ele>
        <time>2021-03-13T14:31:56Z</time>
      </trkpt>
      <trkpt lat="42.98764" lon="0.80488">
        <ele>522</ele>
        <time>2021-03-13T14:31:57Z</time>
      </trkpt>
      <trkpt lat="42.98764" lon="0.80483">
        <ele>522</ele>
        <time>2021-03-13T14:31:58Z</time>
      </trkpt>
      <trkpt lat="42.98764" lon="0.80479">
        <ele>522</ele>
        <time>2021-03-13T14:31:59Z</time>
      </trkpt>
      <trkpt lat="42.98764" lon="0.80475">
        <ele>525</ele>
        <time>2021-03-13T14:32:00Z</time>
      </trkpt>
      <trkpt lat="42.98763" lon="0.80471">
        <ele>525</ele>
        <time>2021-03-13T14:32:01Z</time>
      </trkpt>
      <trkpt lat="42.98762" lon="0.80467">
        <ele>525</ele>
        <time>2021-03-13T14:32:02Z</time>
      </trkpt>
      <trkpt lat="42.98762" lon="0.80463">
        <ele>525</ele>
        <time>2021-03-13T14:32:03Z</time>
      </trkpt>
      <trkpt lat="42.98761" lon="0.80459">
        <ele>525</ele>
        <time>2021-03-13T14:32:04Z</time>
      </trkpt>
      <trkpt lat="42.9876" lon="0.80454">
        <ele>526</ele>
        <time>2021-03-13T14:32:05Z</time>
      </trkpt>
      <trkpt lat="42.98759" lon="0.8045">
        <ele>526</ele>
        <time>2021-03-13T14:32:06Z</time>
      </trkpt>
      <trkpt lat="42.98758" lon="0.80446">
        <ele>526</ele>
        <time>2021-03-13T14:32:07Z</time>
      </trkpt>
      <trkpt lat="42.98757" lon="0.80442">
        <ele>526</ele>
        <time>2021-03-13T14:32:08Z</time>
      </trkpt>
      <trkpt lat="42.98756" lon="0.80437">
        <ele>526</ele>
        <time>2021-03-13T14:32:09Z</time>
      </trkpt>
      <trkpt lat="42.98755" lon="0.80433">
        <ele>526</ele>
        <time>2021-03-13T14:32:10Z</time>
      </trkpt>
      <trkpt lat="42.98754" lon="0.80428">
        <ele>526</ele>
        <time>2021-03-13T14:32:11Z</time>
      </trkpt>
      <trkpt lat="42.98753" lon="0.80424">
        <ele>526</ele>
        <time>2021-03-13T14:32:12Z</time>
      </trkpt>
      <trkpt lat="42.98752" lon="0.80419">
        <ele>526</ele>
        <time>2021-03-13T14:32:13Z</time>
      </trkpt>
      <trkpt lat="42.98751" lon="0.80414">
        <ele>526</ele>
        <time>2021-03-13T14:32:14Z</time>
      </trkpt>
      <trkpt lat="42.9875" lon="0.8041">
        <ele>526</ele>
        <time>2021-03-13T14:32:15Z</time>
      </trkpt>
      <trkpt lat="42.9875" lon="0.80405">
        <ele>526</ele>
        <time>2021-03-13T14:32:16Z</time>
      </trkpt>
      <trkpt lat="42.98749" lon="0.80401">
        <ele>526</ele>
        <time>2021-03-13T14:32:17Z</time>
      </trkpt>
      <trkpt lat="42.98748" lon="0.80397">
        <ele>526</ele>
        <time>2021-03-13T14:32:18Z</time>
      </trkpt>
      <trkpt lat="42.98747" lon="0.80392">
        <ele>526</ele>
        <time>2021-03-13T14:32:19Z</time>
      </trkpt>
      <trkpt lat="42.98746" lon="0.80388">
        <ele>529</ele>
        <time>2021-03-13T14:32:20Z</time>
      </trkpt>
      <trkpt lat="42.98745" lon="0.80384">
        <ele>529</ele>
        <time>2021-03-13T14:32:21Z</time>
      </trkpt>
      <trkpt lat="42.98744" lon="0.8038">
        <ele>529</ele>
        <time>2021-03-13T14:32:22Z</time>
      </trkpt>
      <trkpt lat="42.98744" lon="0.80376">
        <ele>529</ele>
        <time>2021-03-13T14:32:23Z</time>
      </trkpt>
      <trkpt lat="42.98744" lon="0.80372">
        <ele>529</ele>
        <time>2021-03-13T14:32:24Z</time>
      </trkpt>
      <trkpt lat="42.98743" lon="0.80369">
        <ele>529</ele>
        <time>2021-03-13T14:32:25Z</time>
      </trkpt>
      <trkpt lat="42.98744" lon="0.80366">
        <ele>529</ele>
        <time>2021-03-13T14:32:26Z</time>
      </trkpt>
      <trkpt lat="42.98746" lon="0.80363">
        <ele>529</ele>
        <time>2021-03-13T14:32:27Z</time>
      </trkpt>
      <trkpt lat="42.98747" lon="0.8036">
        <ele>529</ele>
        <time>2021-03-13T14:32:28Z</time>
      </trkpt>
      <trkpt lat="42.98748" lon="0.80357">
        <ele>529</ele>
        <time>2021-03-13T14:32:29Z</time>
      </trkpt>
      <trkpt lat="42.98749" lon="0.80355">
        <ele>531</ele>
        <time>2021-03-13T14:32:30Z</time>
      </trkpt>
      <trkpt lat="42.98751" lon="0.80352">
        <ele>531</ele>
        <time>2021-03-13T14:32:31Z</time>
      </trkpt>
      <trkpt lat="42.98753" lon="0.80349">
        <ele>531</ele>
        <time>2021-03-13T14:32:32Z</time>
      </trkpt>
      <trkpt lat="42.98754" lon="0.80346">
        <ele>531</ele>
        <time>2021-03-13T14:32:33Z</time>
      </trkpt>
      <trkpt lat="42.98756" lon="0.80344">
        <ele>531</ele>
        <time>2021-03-13T14:32:34Z</time>
      </trkpt>
      <trkpt lat="42.98759" lon="0.80342">
        <ele>534</ele>
        <time>2021-03-13T14:32:35Z</time>
      </trkpt>
      <trkpt lat="42.98761" lon="0.80341">
        <ele>534</ele>
        <time>2021-03-13T14:32:36Z</time>
      </trkpt>
      <trkpt lat="42.98764" lon="0.8034">
        <ele>534</ele>
        <time>2021-03-13T14:32:37Z</time>
      </trkpt>
      <trkpt lat="42.98767" lon="0.80337">
        <ele>534</ele>
        <time>2021-03-13T14:32:38Z</time>
      </trkpt>
      <trkpt lat="42.98769" lon="0.80335">
        <ele>534</ele>
        <time>2021-03-13T14:32:39Z</time>
      </trkpt>
      <trkpt lat="42.98772" lon="0.80333">
        <ele>534</ele>
        <time>2021-03-13T14:32:40Z</time>
      </trkpt>
      <trkpt lat="42.98774" lon="0.8033">
        <ele>534</ele>
        <time>2021-03-13T14:32:41Z</time>
      </trkpt>
      <trkpt lat="42.98775" lon="0.80327">
        <ele>534</ele>
        <time>2021-03-13T14:32:42Z</time>
      </trkpt>
      <trkpt lat="42.98777" lon="0.80323">
        <ele>534</ele>
        <time>2021-03-13T14:32:43Z</time>
      </trkpt>
      <trkpt lat="42.98778" lon="0.8032">
        <ele>534</ele>
        <time>2021-03-13T14:32:44Z</time>
      </trkpt>
      <trkpt lat="42.98779" lon="0.80316">
        <ele>533</ele>
        <time>2021-03-13T14:32:45Z</time>
      </trkpt>
      <trkpt lat="42.98779" lon="0.80312">
        <ele>533</ele>
        <time>2021-03-13T14:32:46Z</time>
      </trkpt>
      <trkpt lat="42.9878" lon="0.80307">
        <ele>533</ele>
        <time>2021-03-13T14:32:47Z</time>
      </trkpt>
      <trkpt lat="42.9878" lon="0.80303">
        <ele>533</ele>
        <time>2021-03-13T14:32:48Z</time>
      </trkpt>
      <trkpt lat="42.98781" lon="0.80299">
        <ele>533</ele>
        <time>2021-03-13T14:32:49Z</time>
      </trkpt>
      <trkpt lat="42.98782" lon="0.80296">
        <ele>533</ele>
        <time>2021-03-13T14:32:50Z</time>
      </trkpt>
      <trkpt lat="42.98783" lon="0.80292">
        <ele>533</ele>
        <time>2021-03-13T14:32:51Z</time>
      </trkpt>
      <trkpt lat="42.98784" lon="0.80288">
        <ele>533</ele>
        <time>2021-03-13T14:32:52Z</time>
      </trkpt>
      <trkpt lat="42.98785" lon="0.80285">
        <ele>533</ele>
        <time>2021-03-13T14:32:53Z</time>
      </trkpt>
      <trkpt lat="42.98785" lon="0.80281">
        <ele>533</ele>
        <time>2021-03-13T14:32:54Z</time>
      </trkpt>
      <trkpt lat="42.98786" lon="0.80278">
        <ele>533</ele>
        <time>2021-03-13T14:32:55Z</time>
      </trkpt>
      <trkpt lat="42.98787" lon="0.80274">
        <ele>533</ele>
        <time>2021-03-13T14:32:56Z</time>
      </trkpt>
      <trkpt lat="42.98787" lon="0.80271">
        <ele>533</ele>
        <time>2021-03-13T14:32:57Z</time>
      </trkpt>
      <trkpt lat="42.98788" lon="0.80267">
        <ele>533</ele>
        <time>2021-03-13T14:32:58Z</time>
      </trkpt>
      <trkpt lat="42.98789" lon="0.80264">
        <ele>533</ele>
        <time>2021-03-13T14:32:59Z</time>
      </trkpt>
      <trkpt lat="42.98789" lon="0.8026">
        <ele>532</ele>
        <time>2021-03-13T14:33:00Z</time>
      </trkpt>
      <trkpt lat="42.98789" lon="0.80258">
        <ele>532</ele>
        <time>2021-03-13T14:33:01Z</time>
      </trkpt>
      <trkpt lat="42.9879" lon="0.80257">
        <ele>532</ele>
        <time>2021-03-13T14:33:02Z</time>
      </trkpt>
      <trkpt lat="42.9879" lon="0.80255">
        <ele>532</ele>
        <time>2021-03-13T14:33:03Z</time>
      </trkpt>
      <trkpt lat="42.9879" lon="0.80254">
        <ele>532</ele>
        <time>2021-03-13T14:33:04Z</time>
      </trkpt>
      <trkpt lat="42.9879" lon="0.80252">
        <ele>532</ele>
        <time>2021-03-13T14:33:05Z</time>
      </trkpt>
      <trkpt lat="42.98792" lon="0.80244">
        <ele>532</ele>
        <time>2021-03-13T14:33:06Z</time>
      </trkpt>
      <trkpt lat="42.98792" lon="0.80242">
        <ele>532</ele>
        <time>2021-03-13T14:33:07Z</time>
      </trkpt>
      <trkpt lat="42.98793" lon="0.80241">
        <ele>532</ele>
        <time>2021-03-13T14:33:08Z</time>
      </trkpt>
      <trkpt lat="42.98793" lon="0.8024">
        <ele>532</ele>
        <time>2021-03-13T14:33:09Z</time>
      </trkpt>
      <trkpt lat="42.98794" lon="0.80238">
        <ele>534</ele>
        <time>2021-03-13T14:33:10Z</time>
      </trkpt>
      <trkpt lat="42.98797" lon="0.80231">
        <ele>534</ele>
        <time>2021-03-13T14:33:11Z</time>
      </trkpt>
      <trkpt lat="42.98797" lon="0.8023">
        <ele>534</ele>
        <time>2021-03-13T14:33:12Z</time>
      </trkpt>
      <trkpt lat="42.98797" lon="0.80229">
        <ele>534</ele>
        <time>2021-03-13T14:33:13Z</time>
      </trkpt>
      <trkpt lat="42.98798" lon="0.80228">
        <ele>534</ele>
        <time>2021-03-13T14:33:14Z</time>
      </trkpt>
      <trkpt lat="42.98798" lon="0.80227">
        <ele>534</ele>
        <time>2021-03-13T14:33:15Z</time>
      </trkpt>
      <trkpt lat="42.98799" lon="0.80227">
        <ele>534</ele>
        <time>2021-03-13T14:33:16Z</time>
      </trkpt>
      <trkpt lat="42.98799" lon="0.80226">
        <ele>534</ele>
        <time>2021-03-13T14:33:17Z</time>
      </trkpt>
      <trkpt lat="42.98802" lon="0.80218">
        <ele>534</ele>
        <time>2021-03-13T14:33:18Z</time>
      </trkpt>
      <trkpt lat="42.98803" lon="0.80217">
        <ele>534</ele>
        <time>2021-03-13T14:33:19Z</time>
      </trkpt>
      <trkpt lat="42.98803" lon="0.80215">
        <ele>534</ele>
        <time>2021-03-13T14:33:20Z</time>
      </trkpt>
      <trkpt lat="42.98803" lon="0.80214">
        <ele>534</ele>
        <time>2021-03-13T14:33:21Z</time>
      </trkpt>
      <trkpt lat="42.98803" lon="0.80212">
        <ele>534</ele>
        <time>2021-03-13T14:33:22Z</time>
      </trkpt>
      <trkpt lat="42.98804" lon="0.80211">
        <ele>534</ele>
        <time>2021-03-13T14:33:23Z</time>
      </trkpt>
      <trkpt lat="42.98804" lon="0.80209">
        <ele>534</ele>
        <time>2021-03-13T14:33:24Z</time>
      </trkpt>
      <trkpt lat="42.98804" lon="0.80208">
        <ele>534</ele>
        <time>2021-03-13T14:33:25Z</time>
      </trkpt>
      <trkpt lat="42.98804" lon="0.80206">
        <ele>534</ele>
        <time>2021-03-13T14:33:26Z</time>
      </trkpt>
      <trkpt lat="42.98805" lon="0.80205">
        <ele>534</ele>
        <time>2021-03-13T14:33:27Z</time>
      </trkpt>
      <trkpt lat="42.98805" lon="0.80203">
        <ele>534</ele>
        <time>2021-03-13T14:33:28Z</time>
      </trkpt>
      <trkpt lat="42.98805" lon="0.80202">
        <ele>534</ele>
        <time>2021-03-13T14:33:29Z</time>
      </trkpt>
      <trkpt lat="42.98805" lon="0.802">
        <ele>535</ele>
        <time>2021-03-13T14:33:30Z</time>
      </trkpt>
      <trkpt lat="42.98805" lon="0.80199">
        <ele>535</ele>
        <time>2021-03-13T14:33:31Z</time>
      </trkpt>
      <trkpt lat="42.98806" lon="0.80189">
        <ele>535</ele>
        <time>2021-03-13T14:33:32Z</time>
      </trkpt>
      <trkpt lat="42.98806" lon="0.80188">
        <ele>535</ele>
        <time>2021-03-13T14:33:33Z</time>
      </trkpt>
      <trkpt lat="42.98806" lon="0.80186">
        <ele>535</ele>
        <time>2021-03-13T14:33:34Z</time>
      </trkpt>
      <trkpt lat="42.98806" lon="0.80184">
        <ele>535</ele>
        <time>2021-03-13T14:33:35Z</time>
      </trkpt>
      <trkpt lat="42.98807" lon="0.80175">
        <ele>535</ele>
        <time>2021-03-13T14:33:36Z</time>
      </trkpt>
      <trkpt lat="42.98807" lon="0.80173">
        <ele>535</ele>
        <time>2021-03-13T14:33:37Z</time>
      </trkpt>
      <trkpt lat="42.98807" lon="0.80171">
        <ele>535</ele>
        <time>2021-03-13T14:33:38Z</time>
      </trkpt>
      <trkpt lat="42.98807" lon="0.8017">
        <ele>535</ele>
        <time>2021-03-13T14:33:39Z</time>
      </trkpt>
      <trkpt lat="42.98807" lon="0.80168">
        <ele>535</ele>
        <time>2021-03-13T14:33:40Z</time>
      </trkpt>
      <trkpt lat="42.98807" lon="0.80166">
        <ele>535</ele>
        <time>2021-03-13T14:33:41Z</time>
      </trkpt>
      <trkpt lat="42.98806" lon="0.80165">
        <ele>535</ele>
        <time>2021-03-13T14:33:42Z</time>
      </trkpt>
      <trkpt lat="42.98806" lon="0.80163">
        <ele>535</ele>
        <time>2021-03-13T14:33:43Z</time>
      </trkpt>
      <trkpt lat="42.98806" lon="0.80161">
        <ele>535</ele>
        <time>2021-03-13T14:33:44Z</time>
      </trkpt>
      <trkpt lat="42.98807" lon="0.80159">
        <ele>535</ele>
        <time>2021-03-13T14:33:45Z</time>
      </trkpt>
      <trkpt lat="42.98807" lon="0.80157">
        <ele>535</ele>
        <time>2021-03-13T14:33:46Z</time>
      </trkpt>
      <trkpt lat="42.98807" lon="0.80155">
        <ele>535</ele>
        <time>2021-03-13T14:33:47Z</time>
      </trkpt>
      <trkpt lat="42.98809" lon="0.80145">
        <ele>535</ele>
        <time>2021-03-13T14:33:48Z</time>
      </trkpt>
      <trkpt lat="42.98809" lon="0.80143">
        <ele>535</ele>
        <time>2021-03-13T14:33:49Z</time>
      </trkpt>
      <trkpt lat="42.9881" lon="0.8014">
        <ele>535</ele>
        <time>2021-03-13T14:33:50Z</time>
      </trkpt>
      <trkpt lat="42.98813" lon="0.80131">
        <ele>535</ele>
        <time>2021-03-13T14:33:51Z</time>
      </trkpt>
      <trkpt lat="42.98814" lon="0.80128">
        <ele>535</ele>
        <time>2021-03-13T14:33:52Z</time>
      </trkpt>
      <trkpt lat="42.98815" lon="0.80126">
        <ele>535</ele>
        <time>2021-03-13T14:33:53Z</time>
      </trkpt>
      <trkpt lat="42.98816" lon="0.80123">
        <ele>535</ele>
        <time>2021-03-13T14:33:54Z</time>
      </trkpt>
      <trkpt lat="42.98817" lon="0.80121">
        <ele>535</ele>
        <time>2021-03-13T14:33:55Z</time>
      </trkpt>
      <trkpt lat="42.98817" lon="0.8012">
        <ele>535</ele>
        <time>2021-03-13T14:33:56Z</time>
      </trkpt>
      <trkpt lat="42.98817" lon="0.8012">
        <ele>535</ele>
        <time>2021-03-13T14:33:57Z</time>
      </trkpt>
      <trkpt lat="42.98817" lon="0.80119">
        <ele>535</ele>
        <time>2021-03-13T14:33:58Z</time>
      </trkpt>
      <trkpt lat="42.98818" lon="0.80119">
        <ele>535</ele>
        <time>2021-03-13T14:33:59Z</time>
      </trkpt>
      <trkpt lat="42.98818" lon="0.80118">
        <ele>533</ele>
        <time>2021-03-13T14:34:00Z</time>
      </trkpt>
      <trkpt lat="42.98818" lon="0.80117">
        <ele>533</ele>
        <time>2021-03-13T14:34:01Z</time>
      </trkpt>
      <trkpt lat="42.98818" lon="0.80117">
        <ele>533</ele>
        <time>2021-03-13T14:34:02Z</time>
      </trkpt>
      <trkpt lat="42.98819" lon="0.80116">
        <ele>533</ele>
        <time>2021-03-13T14:34:03Z</time>
      </trkpt>
      <trkpt lat="42.98819" lon="0.80116">
        <ele>533</ele>
        <time>2021-03-13T14:34:04Z</time>
      </trkpt>
      <trkpt lat="42.98819" lon="0.80115">
        <ele>533</ele>
        <time>2021-03-13T14:34:05Z</time>
      </trkpt>
      <trkpt lat="42.98819" lon="0.80114">
        <ele>533</ele>
        <time>2021-03-13T14:34:06Z</time>
      </trkpt>
      <trkpt lat="42.9882" lon="0.80114">
        <ele>533</ele>
        <time>2021-03-13T14:34:07Z</time>
      </trkpt>
      <trkpt lat="42.9882" lon="0.80113">
        <ele>533</ele>
        <time>2021-03-13T14:34:08Z</time>
      </trkpt>
      <trkpt lat="42.9882" lon="0.80112">
        <ele>533</ele>
        <time>2021-03-13T14:34:09Z</time>
      </trkpt>
      <trkpt lat="42.9882" lon="0.80112">
        <ele>533</ele>
        <time>2021-03-13T14:34:10Z</time>
      </trkpt>
      <trkpt lat="42.98821" lon="0.80112">
        <ele>533</ele>
        <time>2021-03-13T14:34:11Z</time>
      </trkpt>
      <trkpt lat="42.98821" lon="0.80111">
        <ele>533</ele>
        <time>2021-03-13T14:34:12Z</time>
      </trkpt>
      <trkpt lat="42.98821" lon="0.80111">
        <ele>533</ele>
        <time>2021-03-13T14:34:13Z</time>
      </trkpt>
      <trkpt lat="42.98821" lon="0.8011">
        <ele>533</ele>
        <time>2021-03-13T14:34:14Z</time>
      </trkpt>
      <trkpt lat="42.98822" lon="0.8011">
        <ele>533</ele>
        <time>2021-03-13T14:34:15Z</time>
      </trkpt>
      <trkpt lat="42.98822" lon="0.8011">
        <ele>533</ele>
        <time>2021-03-13T14:34:16Z</time>
      </trkpt>
      <trkpt lat="42.98822" lon="0.80109">
        <ele>533</ele>
        <time>2021-03-13T14:34:17Z</time>
      </trkpt>
      <trkpt lat="42.98822" lon="0.80109">
        <ele>533</ele>
        <time>2021-03-13T14:34:18Z</time>
      </trkpt>
      <trkpt lat="42.98823" lon="0.80108">
        <ele>533</ele>
        <time>2021-03-13T14:34:19Z</time>
      </trkpt>
      <trkpt lat="42.98823" lon="0.80108">
        <ele>533</ele>
        <time>2021-03-13T14:34:20Z</time>
      </trkpt>
      <trkpt lat="42.98823" lon="0.80108">
        <ele>533</ele>
        <time>2021-03-13T14:34:21Z</time>
      </trkpt>
      <trkpt lat="42.98823" lon="0.80107">
        <ele>533</ele>
        <time>2021-03-13T14:34:22Z</time>
      </trkpt>
      <trkpt lat="42.98824" lon="0.80107">
        <ele>533</ele>
        <time>2021-03-13T14:34:23Z</time>
      </trkpt>
      <trkpt lat="42.98824" lon="0.80106">
        <ele>533</ele>
        <time>2021-03-13T14:34:24Z</time>
      </trkpt>
      <trkpt lat="42.98824" lon="0.80106">
        <ele>533</ele>
        <time>2021-03-13T14:34:25Z</time>
      </trkpt>
      <trkpt lat="42.98824" lon="0.80106">
        <ele>533</ele>
        <time>2021-03-13T14:34:26Z</time>
      </trkpt>
      <trkpt lat="42.98825" lon="0.80105">
        <ele>533</ele>
        <time>2021-03-13T14:34:27Z</time>
      </trkpt>
      <trkpt lat="42.98825" lon="0.80105">
        <ele>533</ele>
        <time>2021-03-13T14:34:28Z</time>
      </trkpt>
      <trkpt lat="42.98825" lon="0.80104">
        <ele>534</ele>
        <time>2021-03-13T14:34:29Z</time>
      </trkpt>
      <trkpt lat="42.98825" lon="0.80104">
        <ele>534</ele>
        <time>2021-03-13T14:34:30Z</time>
      </trkpt>
      <trkpt lat="42.98826" lon="0.80104">
        <ele>534</ele>
        <time>2021-03-13T14:34:31Z</time>
      </trkpt>
      <trkpt lat="42.98826" lon="0.80103">
        <ele>534</ele>
        <time>2021-03-13T14:34:32Z</time>
      </trkpt>
      <trkpt lat="42.98826" lon="0.80103">
        <ele>534</ele>
        <time>2021-03-13T14:34:33Z</time>
      </trkpt>
      <trkpt lat="42.98826" lon="0.80102">
        <ele>534</ele>
        <time>2021-03-13T14:34:34Z</time>
      </trkpt>
      <trkpt lat="42.98827" lon="0.80102">
        <ele>534</ele>
        <time>2021-03-13T14:34:35Z</time>
      </trkpt>
      <trkpt lat="42.98827" lon="0.80101">
        <ele>534</ele>
        <time>2021-03-13T14:34:36Z</time>
      </trkpt>
      <trkpt lat="42.98828" lon="0.80101">
        <ele>534</ele>
        <time>2021-03-13T14:34:37Z</time>
      </trkpt>
      <trkpt lat="42.98828" lon="0.801">
        <ele>534</ele>
        <time>2021-03-13T14:34:38Z</time>
      </trkpt>
      <trkpt lat="42.98829" lon="0.801">
        <ele>534</ele>
        <time>2021-03-13T14:34:39Z</time>
      </trkpt>
      <trkpt lat="42.98829" lon="0.80099">
        <ele>535</ele>
        <time>2021-03-13T14:34:40Z</time>
      </trkpt>
      <trkpt lat="42.98829" lon="0.80099">
        <ele>535</ele>
        <time>2021-03-13T14:34:41Z</time>
      </trkpt>
      <trkpt lat="42.9883" lon="0.80098">
        <ele>535</ele>
        <time>2021-03-13T14:34:42Z</time>
      </trkpt>
      <trkpt lat="42.9883" lon="0.80098">
        <ele>535</ele>
        <time>2021-03-13T14:34:43Z</time>
      </trkpt>
      <trkpt lat="42.98831" lon="0.80097">
        <ele>535</ele>
        <time>2021-03-13T14:34:44Z</time>
      </trkpt>
      <trkpt lat="42.98835" lon="0.80091">
        <ele>535</ele>
        <time>2021-03-13T14:34:45Z</time>
      </trkpt>
      <trkpt lat="42.98836" lon="0.8009">
        <ele>535</ele>
        <time>2021-03-13T14:34:46Z</time>
      </trkpt>
      <trkpt lat="42.98837" lon="0.80088">
        <ele>535</ele>
        <time>2021-03-13T14:34:47Z</time>
      </trkpt>
      <trkpt lat="42.98837" lon="0.80087">
        <ele>535</ele>
        <time>2021-03-13T14:34:48Z</time>
      </trkpt>
      <trkpt lat="42.98838" lon="0.80086">
        <ele>535</ele>
        <time>2021-03-13T14:34:49Z</time>
      </trkpt>
      <trkpt lat="42.98842" lon="0.80077">
        <ele>535</ele>
        <time>2021-03-13T14:34:50Z</time>
      </trkpt>
      <trkpt lat="42.98843" lon="0.80075">
        <ele>535</ele>
        <time>2021-03-13T14:34:51Z</time>
      </trkpt>
      <trkpt lat="42.98843" lon="0.80073">
        <ele>535</ele>
        <time>2021-03-13T14:34:52Z</time>
      </trkpt>
      <trkpt lat="42.98844" lon="0.80071">
        <ele>535</ele>
        <time>2021-03-13T14:34:53Z</time>
      </trkpt>
      <trkpt lat="42.98846" lon="0.8006">
        <ele>535</ele>
        <time>2021-03-13T14:34:54Z</time>
      </trkpt>
      <trkpt lat="42.98847" lon="0.80058">
        <ele>535</ele>
        <time>2021-03-13T14:34:55Z</time>
      </trkpt>
      <trkpt lat="42.98848" lon="0.80055">
        <ele>535</ele>
        <time>2021-03-13T14:34:56Z</time>
      </trkpt>
      <trkpt lat="42.9885" lon="0.80046">
        <ele>535</ele>
        <time>2021-03-13T14:34:57Z</time>
      </trkpt>
      <trkpt lat="42.9885" lon="0.80044">
        <ele>535</ele>
        <time>2021-03-13T14:34:58Z</time>
      </trkpt>
      <trkpt lat="42.98851" lon="0.80042">
        <ele>535</ele>
        <time>2021-03-13T14:34:59Z</time>
      </trkpt>
      <trkpt lat="42.98851" lon="0.80039">
        <ele>535</ele>
        <time>2021-03-13T14:35:00Z</time>
      </trkpt>
      <trkpt lat="42.98853" lon="0.80026">
        <ele>535</ele>
        <time>2021-03-13T14:35:01Z</time>
      </trkpt>
      <trkpt lat="42.98854" lon="0.80021">
        <ele>535</ele>
        <time>2021-03-13T14:35:02Z</time>
      </trkpt>
      <trkpt lat="42.98854" lon="0.80017">
        <ele>535</ele>
        <time>2021-03-13T14:35:03Z</time>
      </trkpt>
      <trkpt lat="42.98855" lon="0.80014">
        <ele>535</ele>
        <time>2021-03-13T14:35:04Z</time>
      </trkpt>
      <trkpt lat="42.98856" lon="0.80012">
        <ele>535</ele>
        <time>2021-03-13T14:35:05Z</time>
      </trkpt>
      <trkpt lat="42.98856" lon="0.80009">
        <ele>535</ele>
        <time>2021-03-13T14:35:06Z</time>
      </trkpt>
      <trkpt lat="42.98858" lon="0.8">
        <ele>535</ele>
        <time>2021-03-13T14:35:07Z</time>
      </trkpt>
      <trkpt lat="42.98859" lon="0.79997">
        <ele>535</ele>
        <time>2021-03-13T14:35:08Z</time>
      </trkpt>
      <trkpt lat="42.98859" lon="0.79995">
        <ele>535</ele>
        <time>2021-03-13T14:35:09Z</time>
      </trkpt>
      <trkpt lat="42.98861" lon="0.79983">
        <ele>535</ele>
        <time>2021-03-13T14:35:10Z</time>
      </trkpt>
      <trkpt lat="42.98862" lon="0.79978">
        <ele>535</ele>
        <time>2021-03-13T14:35:11Z</time>
      </trkpt>
      <trkpt lat="42.98862" lon="0.79974">
        <ele>535</ele>
        <time>2021-03-13T14:35:12Z</time>
      </trkpt>
      <trkpt lat="42.98862" lon="0.79971">
        <ele>535</ele>
        <time>2021-03-13T14:35:13Z</time>
      </trkpt>
      <trkpt lat="42.98862" lon="0.79969">
        <ele>535</ele>
        <time>2021-03-13T14:35:14Z</time>
      </trkpt>
      <trkpt lat="42.98862" lon="0.79967">
        <ele>535</ele>
        <time>2021-03-13T14:35:15Z</time>
      </trkpt>
      <trkpt lat="42.98863" lon="0.79955">
        <ele>535</ele>
        <time>2021-03-13T14:35:16Z</time>
      </trkpt>
      <trkpt lat="42.98863" lon="0.79951">
        <ele>535</ele>
        <time>2021-03-13T14:35:17Z</time>
      </trkpt>
      <trkpt lat="42.98863" lon="0.79947">
        <ele>535</ele>
        <time>2021-03-13T14:35:18Z</time>
      </trkpt>
      <trkpt lat="42.98863" lon="0.79945">
        <ele>535</ele>
        <time>2021-03-13T14:35:19Z</time>
      </trkpt>
      <trkpt lat="42.98863" lon="0.79943">
        <ele>535</ele>
        <time>2021-03-13T14:35:20Z</time>
      </trkpt>
      <trkpt lat="42.98864" lon="0.79941">
        <ele>535</ele>
        <time>2021-03-13T14:35:21Z</time>
      </trkpt>
      <trkpt lat="42.98864" lon="0.79939">
        <ele>535</ele>
        <time>2021-03-13T14:35:22Z</time>
      </trkpt>
      <trkpt lat="42.98864" lon="0.7993">
        <ele>535</ele>
        <time>2021-03-13T14:35:23Z</time>
      </trkpt>
      <trkpt lat="42.98864" lon="0.79928">
        <ele>535</ele>
        <time>2021-03-13T14:35:24Z</time>
      </trkpt>
      <trkpt lat="42.98864" lon="0.79926">
        <ele>535</ele>
        <time>2021-03-13T14:35:25Z</time>
      </trkpt>
      <trkpt lat="42.98864" lon="0.79925">
        <ele>535</ele>
        <time>2021-03-13T14:35:26Z</time>
      </trkpt>
      <trkpt lat="42.98865" lon="0.79915">
        <ele>535</ele>
        <time>2021-03-13T14:35:27Z</time>
      </trkpt>
      <trkpt lat="42.98865" lon="0.79913">
        <ele>535</ele>
        <time>2021-03-13T14:35:28Z</time>
      </trkpt>
      <trkpt lat="42.98865" lon="0.79911">
        <ele>535</ele>
        <time>2021-03-13T14:35:29Z</time>
      </trkpt>
      <trkpt lat="42.98866" lon="0.79909">
        <ele>535</ele>
        <time>2021-03-13T14:35:30Z</time>
      </trkpt>
      <trkpt lat="42.98868" lon="0.79898">
        <ele>535</ele>
        <time>2021-03-13T14:35:31Z</time>
      </trkpt>
      <trkpt lat="42.98868" lon="0.79896">
        <ele>535</ele>
        <time>2021-03-13T14:35:32Z</time>
      </trkpt>
      <trkpt lat="42.98868" lon="0.79893">
        <ele>535</ele>
        <time>2021-03-13T14:35:33Z</time>
      </trkpt>
      <trkpt lat="42.98869" lon="0.79882">
        <ele>535</ele>
        <time>2021-03-13T14:35:34Z</time>
      </trkpt>
      <trkpt lat="42.98869" lon="0.79879">
        <ele>535</ele>
        <time>2021-03-13T14:35:35Z</time>
      </trkpt>
      <trkpt lat="42.9887" lon="0.79876">
        <ele>535</ele>
        <time>2021-03-13T14:35:36Z</time>
      </trkpt>
      <trkpt lat="42.9887" lon="0.79873">
        <ele>535</ele>
        <time>2021-03-13T14:35:37Z</time>
      </trkpt>
      <trkpt lat="42.98871" lon="0.79872">
        <ele>535</ele>
        <time>2021-03-13T14:35:38Z</time>
      </trkpt>
      <trkpt lat="42.98871" lon="0.79872">
        <ele>535</ele>
        <time>2021-03-13T14:35:39Z</time>
      </trkpt>
      <trkpt lat="42.98871" lon="0.79871">
        <ele>535</ele>
        <time>2021-03-13T14:35:40Z</time>
      </trkpt>
      <trkpt lat="42.98872" lon="0.7987">
        <ele>535</ele>
        <time>2021-03-13T14:35:41Z</time>
      </trkpt>
      <trkpt lat="42.98872" lon="0.7987">
        <ele>535</ele>
        <time>2021-03-13T14:35:42Z</time>
      </trkpt>
      <trkpt lat="42.98872" lon="0.79869">
        <ele>535</ele>
        <time>2021-03-13T14:35:43Z</time>
      </trkpt>
      <trkpt lat="42.98873" lon="0.79869">
        <ele>535</ele>
        <time>2021-03-13T14:35:44Z</time>
      </trkpt>
      <trkpt lat="42.98873" lon="0.79868">
        <ele>535</ele>
        <time>2021-03-13T14:35:45Z</time>
      </trkpt>
      <trkpt lat="42.98873" lon="0.79867">
        <ele>535</ele>
        <time>2021-03-13T14:35:46Z</time>
      </trkpt>
      <trkpt lat="42.98874" lon="0.79867">
        <ele>535</ele>
        <time>2021-03-13T14:35:47Z</time>
      </trkpt>
      <trkpt lat="42.98874" lon="0.79866">
        <ele>535</ele>
        <time>2021-03-13T14:35:48Z</time>
      </trkpt>
      <trkpt lat="42.98874" lon="0.79866">
        <ele>535</ele>
        <time>2021-03-13T14:35:49Z</time>
      </trkpt>
      <trkpt lat="42.98875" lon="0.79865">
        <ele>535</ele>
        <time>2021-03-13T14:35:50Z</time>
      </trkpt>
      <trkpt lat="42.98875" lon="0.79864">
        <ele>535</ele>
        <time>2021-03-13T14:35:51Z</time>
      </trkpt>
      <trkpt lat="42.98875" lon="0.79864">
        <ele>535</ele>
        <time>2021-03-13T14:35:52Z</time>
      </trkpt>
      <trkpt lat="42.98876" lon="0.79863">
        <ele>535</ele>
        <time>2021-03-13T14:35:53Z</time>
      </trkpt>
      <trkpt lat="42.98876" lon="0.79862">
        <ele>535</ele>
        <time>2021-03-13T14:35:54Z</time>
      </trkpt>
      <trkpt lat="42.98877" lon="0.79862">
        <ele>535</ele>
        <time>2021-03-13T14:35:55Z</time>
      </trkpt>
      <trkpt lat="42.98877" lon="0.79861">
        <ele>535</ele>
        <time>2021-03-13T14:35:56Z</time>
      </trkpt>
      <trkpt lat="42.98877" lon="0.79861">
        <ele>535</ele>
        <time>2021-03-13T14:35:57Z</time>
      </trkpt>
      <trkpt lat="42.98878" lon="0.7986">
        <ele>535</ele>
        <time>2021-03-13T14:35:58Z</time>
      </trkpt>
      <trkpt lat="42.98878" lon="0.79859">
        <ele>535</ele>
        <time>2021-03-13T14:35:59Z</time>
      </trkpt>
      <trkpt lat="42.9888" lon="0.79852">
        <ele>533</ele>
        <time>2021-03-13T14:36:00Z</time>
      </trkpt>
      <trkpt lat="42.98882" lon="0.79844">
        <ele>533</ele>
        <time>2021-03-13T14:36:01Z</time>
      </trkpt>
      <trkpt lat="42.98883" lon="0.79837">
        <ele>533</ele>
        <time>2021-03-13T14:36:02Z</time>
      </trkpt>
      <trkpt lat="42.98884" lon="0.7983">
        <ele>533</ele>
        <time>2021-03-13T14:36:03Z</time>
      </trkpt>
      <trkpt lat="42.98884" lon="0.7983">
        <ele>533</ele>
        <time>2021-03-13T14:36:04Z</time>
      </trkpt>
      <trkpt lat="42.98887" lon="0.79816">
        <ele>533</ele>
        <time>2021-03-13T14:36:05Z</time>
      </trkpt>
      <trkpt lat="42.98887" lon="0.79816">
        <ele>533</ele>
        <time>2021-03-13T14:36:06Z</time>
      </trkpt>
      <trkpt lat="42.98887" lon="0.79812">
        <ele>533</ele>
        <time>2021-03-13T14:36:07Z</time>
      </trkpt>
      <trkpt lat="42.98886" lon="0.79807">
        <ele>533</ele>
        <time>2021-03-13T14:36:08Z</time>
      </trkpt>
      <trkpt lat="42.98886" lon="0.79803">
        <ele>533</ele>
        <time>2021-03-13T14:36:09Z</time>
      </trkpt>
      <trkpt lat="42.98884" lon="0.79794">
        <ele>532</ele>
        <time>2021-03-13T14:36:10Z</time>
      </trkpt>
      <trkpt lat="42.98884" lon="0.79794">
        <ele>532</ele>
        <time>2021-03-13T14:36:11Z</time>
      </trkpt>
      <trkpt lat="42.98884" lon="0.79786">
        <ele>532</ele>
        <time>2021-03-13T14:36:12Z</time>
      </trkpt>
      <trkpt lat="42.98884" lon="0.79786">
        <ele>532</ele>
        <time>2021-03-13T14:36:13Z</time>
      </trkpt>
      <trkpt lat="42.98883" lon="0.79782">
        <ele>532</ele>
        <time>2021-03-13T14:36:14Z</time>
      </trkpt>
      <trkpt lat="42.98883" lon="0.79777">
        <ele>532</ele>
        <time>2021-03-13T14:36:15Z</time>
      </trkpt>
      <trkpt lat="42.98883" lon="0.79773">
        <ele>532</ele>
        <time>2021-03-13T14:36:16Z</time>
      </trkpt>
      <trkpt lat="42.9888" lon="0.79764">
        <ele>532</ele>
        <time>2021-03-13T14:36:17Z</time>
      </trkpt>
      <trkpt lat="42.9888" lon="0.79764">
        <ele>532</ele>
        <time>2021-03-13T14:36:18Z</time>
      </trkpt>
      <trkpt lat="42.98874" lon="0.79752">
        <ele>532</ele>
        <time>2021-03-13T14:36:19Z</time>
      </trkpt>
      <trkpt lat="42.98874" lon="0.79752">
        <ele>529</ele>
        <time>2021-03-13T14:36:20Z</time>
      </trkpt>
      <trkpt lat="42.98868" lon="0.79743">
        <ele>529</ele>
        <time>2021-03-13T14:36:21Z</time>
      </trkpt>
      <trkpt lat="42.98868" lon="0.79743">
        <ele>529</ele>
        <time>2021-03-13T14:36:22Z</time>
      </trkpt>
      <trkpt lat="42.9886" lon="0.79738">
        <ele>529</ele>
        <time>2021-03-13T14:36:23Z</time>
      </trkpt>
      <trkpt lat="42.9886" lon="0.79738">
        <ele>529</ele>
        <time>2021-03-13T14:36:24Z</time>
      </trkpt>
      <trkpt lat="42.98855" lon="0.79736">
        <ele>526</ele>
        <time>2021-03-13T14:36:25Z</time>
      </trkpt>
      <trkpt lat="42.98849" lon="0.79734">
        <ele>526</ele>
        <time>2021-03-13T14:36:26Z</time>
      </trkpt>
      <trkpt lat="42.98844" lon="0.79732">
        <ele>526</ele>
        <time>2021-03-13T14:36:27Z</time>
      </trkpt>
      <trkpt lat="42.98839" lon="0.79731">
        <ele>526</ele>
        <time>2021-03-13T14:36:28Z</time>
      </trkpt>
      <trkpt lat="42.98839" lon="0.79731">
        <ele>526</ele>
        <time>2021-03-13T14:36:29Z</time>
      </trkpt>
      <trkpt lat="42.98829" lon="0.79728">
        <ele>523</ele>
        <time>2021-03-13T14:36:30Z</time>
      </trkpt>
      <trkpt lat="42.98829" lon="0.79728">
        <ele>521</ele>
        <time>2021-03-13T14:36:31Z</time>
      </trkpt>
      <trkpt lat="42.98827" lon="0.79725">
        <ele>520</ele>
        <time>2021-03-13T14:36:32Z</time>
      </trkpt>
      <trkpt lat="42.98824" lon="0.79722">
        <ele>519</ele>
        <time>2021-03-13T14:36:33Z</time>
      </trkpt>
      <trkpt lat="42.98821" lon="0.79719">
        <ele>519</ele>
        <time>2021-03-13T14:36:34Z</time>
      </trkpt>
      <trkpt lat="42.98818" lon="0.79715">
        <ele>518</ele>
        <time>2021-03-13T14:36:35Z</time>
      </trkpt>
      <trkpt lat="42.98815" lon="0.7971">
        <ele>517</ele>
        <time>2021-03-13T14:36:36Z</time>
      </trkpt>
      <trkpt lat="42.98811" lon="0.79706">
        <ele>516</ele>
        <time>2021-03-13T14:36:37Z</time>
      </trkpt>
      <trkpt lat="42.98809" lon="0.79702">
        <ele>515</ele>
        <time>2021-03-13T14:36:38Z</time>
      </trkpt>
      <trkpt lat="42.98806" lon="0.79698">
        <ele>514</ele>
        <time>2021-03-13T14:36:39Z</time>
      </trkpt>
      <trkpt lat="42.98804" lon="0.79694">
        <ele>514</ele>
        <time>2021-03-13T14:36:40Z</time>
      </trkpt>
      <trkpt lat="42.98803" lon="0.79688">
        <ele>513</ele>
        <time>2021-03-13T14:36:41Z</time>
      </trkpt>
      <trkpt lat="42.98802" lon="0.79681">
        <ele>512</ele>
        <time>2021-03-13T14:36:42Z</time>
      </trkpt>
      <trkpt lat="42.98801" lon="0.79675">
        <ele>511</ele>
        <time>2021-03-13T14:36:43Z</time>
      </trkpt>
      <trkpt lat="42.98796" lon="0.7967">
        <ele>510</ele>
        <time>2021-03-13T14:36:44Z</time>
      </trkpt>
      <trkpt lat="42.98791" lon="0.79666">
        <ele>510</ele>
        <time>2021-03-13T14:36:45Z</time>
      </trkpt>
      <trkpt lat="42.98786" lon="0.79661">
        <ele>510</ele>
        <time>2021-03-13T14:36:46Z</time>
      </trkpt>
      <trkpt lat="42.98782" lon="0.79659">
        <ele>510</ele>
        <time>2021-03-13T14:36:47Z</time>
      </trkpt>
      <trkpt lat="42.98782" lon="0.79659">
        <ele>510</ele>
        <time>2021-03-13T14:36:48Z</time>
      </trkpt>
      <trkpt lat="42.98768" lon="0.79661">
        <ele>508</ele>
        <time>2021-03-13T14:36:49Z</time>
      </trkpt>
      <trkpt lat="42.98765" lon="0.79662">
        <ele>508</ele>
        <time>2021-03-13T14:36:50Z</time>
      </trkpt>
      <trkpt lat="42.98757" lon="0.79664">
        <ele>508</ele>
        <time>2021-03-13T14:36:51Z</time>
      </trkpt>
      <trkpt lat="42.98754" lon="0.79665">
        <ele>507</ele>
        <time>2021-03-13T14:36:52Z</time>
      </trkpt>
      <trkpt lat="42.98746" lon="0.7967">
        <ele>506</ele>
        <time>2021-03-13T14:36:53Z</time>
      </trkpt>
      <trkpt lat="42.98744" lon="0.79672">
        <ele>506</ele>
        <time>2021-03-13T14:36:54Z</time>
      </trkpt>
      <trkpt lat="42.98739" lon="0.79676">
        <ele>505</ele>
        <time>2021-03-13T14:36:55Z</time>
      </trkpt>
      <trkpt lat="42.98739" lon="0.79676">
        <ele>505</ele>
        <time>2021-03-13T14:36:56Z</time>
      </trkpt>
      <trkpt lat="42.98735" lon="0.79678">
        <ele>505</ele>
        <time>2021-03-13T14:36:57Z</time>
      </trkpt>
      <trkpt lat="42.98732" lon="0.79679">
        <ele>504</ele>
        <time>2021-03-13T14:36:58Z</time>
      </trkpt>
      <trkpt lat="42.98728" lon="0.79681">
        <ele>504</ele>
        <time>2021-03-13T14:36:59Z</time>
      </trkpt>
      <trkpt lat="42.98725" lon="0.79681">
        <ele>504</ele>
        <time>2021-03-13T14:37:00Z</time>
      </trkpt>
      <trkpt lat="42.98721" lon="0.79681">
        <ele>504</ele>
        <time>2021-03-13T14:37:01Z</time>
      </trkpt>
      <trkpt lat="42.98718" lon="0.79681">
        <ele>504</ele>
        <time>2021-03-13T14:37:02Z</time>
      </trkpt>
      <trkpt lat="42.98717" lon="0.79679">
        <ele>504</ele>
        <time>2021-03-13T14:37:03Z</time>
      </trkpt>
      <trkpt lat="42.98717" lon="0.79678">
        <ele>504</ele>
        <time>2021-03-13T14:37:04Z</time>
      </trkpt>
      <trkpt lat="42.98717" lon="0.79677">
        <ele>504</ele>
        <time>2021-03-13T14:37:05Z</time>
      </trkpt>
      <trkpt lat="42.98716" lon="0.79676">
        <ele>504</ele>
        <time>2021-03-13T14:37:06Z</time>
      </trkpt>
      <trkpt lat="42.98716" lon="0.79674">
        <ele>504</ele>
        <time>2021-03-13T14:37:07Z</time>
      </trkpt>
      <trkpt lat="42.98715" lon="0.79673">
        <ele>504</ele>
        <time>2021-03-13T14:37:08Z</time>
      </trkpt>
      <trkpt lat="42.98715" lon="0.79672">
        <ele>504</ele>
        <time>2021-03-13T14:37:09Z</time>
      </trkpt>
      <trkpt lat="42.98715" lon="0.79671">
        <ele>504</ele>
        <time>2021-03-13T14:37:10Z</time>
      </trkpt>
      <trkpt lat="42.98714" lon="0.7967">
        <ele>504</ele>
        <time>2021-03-13T14:37:11Z</time>
      </trkpt>
      <trkpt lat="42.98714" lon="0.7967">
        <ele>504</ele>
        <time>2021-03-13T14:37:12Z</time>
      </trkpt>
      <trkpt lat="42.98713" lon="0.79669">
        <ele>504</ele>
        <time>2021-03-13T14:37:13Z</time>
      </trkpt>
      <trkpt lat="42.98713" lon="0.79669">
        <ele>504</ele>
        <time>2021-03-13T14:37:14Z</time>
      </trkpt>
      <trkpt lat="42.98712" lon="0.79669">
        <ele>504</ele>
        <time>2021-03-13T14:37:15Z</time>
      </trkpt>
      <trkpt lat="42.98712" lon="0.79668">
        <ele>504</ele>
        <time>2021-03-13T14:37:16Z</time>
      </trkpt>
      <trkpt lat="42.98711" lon="0.79668">
        <ele>504</ele>
        <time>2021-03-13T14:37:17Z</time>
      </trkpt>
      <trkpt lat="42.98711" lon="0.79668">
        <ele>504</ele>
        <time>2021-03-13T14:37:18Z</time>
      </trkpt>
      <trkpt lat="42.9871" lon="0.79667">
        <ele>504</ele>
        <time>2021-03-13T14:37:19Z</time>
      </trkpt>
      <trkpt lat="42.9871" lon="0.79667">
        <ele>504</ele>
        <time>2021-03-13T14:37:20Z</time>
      </trkpt>
      <trkpt lat="42.98709" lon="0.79666">
        <ele>504</ele>
        <time>2021-03-13T14:37:21Z</time>
      </trkpt>
      <trkpt lat="42.98709" lon="0.79666">
        <ele>504</ele>
        <time>2021-03-13T14:37:22Z</time>
      </trkpt>
      <trkpt lat="42.98709" lon="0.79666">
        <ele>504</ele>
        <time>2021-03-13T14:37:23Z</time>
      </trkpt>
      <trkpt lat="42.98708" lon="0.79665">
        <ele>504</ele>
        <time>2021-03-13T14:37:24Z</time>
      </trkpt>
      <trkpt lat="42.98708" lon="0.79665">
        <ele>504</ele>
        <time>2021-03-13T14:37:25Z</time>
      </trkpt>
      <trkpt lat="42.98707" lon="0.79664">
        <ele>504</ele>
        <time>2021-03-13T14:37:26Z</time>
      </trkpt>
      <trkpt lat="42.98706" lon="0.79663">
        <ele>504</ele>
        <time>2021-03-13T14:37:27Z</time>
      </trkpt>
      <trkpt lat="42.98705" lon="0.79663">
        <ele>504</ele>
        <time>2021-03-13T14:37:28Z</time>
      </trkpt>
      <trkpt lat="42.98704" lon="0.79662">
        <ele>504</ele>
        <time>2021-03-13T14:37:29Z</time>
      </trkpt>
      <trkpt lat="42.98703" lon="0.79661">
        <ele>505</ele>
        <time>2021-03-13T14:37:30Z</time>
      </trkpt>
      <trkpt lat="42.98702" lon="0.79661">
        <ele>505</ele>
        <time>2021-03-13T14:37:31Z</time>
      </trkpt>
      <trkpt lat="42.98701" lon="0.7966">
        <ele>505</ele>
        <time>2021-03-13T14:37:32Z</time>
      </trkpt>
      <trkpt lat="42.987" lon="0.79659">
        <ele>505</ele>
        <time>2021-03-13T14:37:33Z</time>
      </trkpt>
      <trkpt lat="42.98699" lon="0.79658">
        <ele>505</ele>
        <time>2021-03-13T14:37:34Z</time>
      </trkpt>
      <trkpt lat="42.98698" lon="0.79657">
        <ele>505</ele>
        <time>2021-03-13T14:37:35Z</time>
      </trkpt>
      <trkpt lat="42.98697" lon="0.79657">
        <ele>505</ele>
        <time>2021-03-13T14:37:36Z</time>
      </trkpt>
      <trkpt lat="42.98696" lon="0.79656">
        <ele>505</ele>
        <time>2021-03-13T14:37:37Z</time>
      </trkpt>
      <trkpt lat="42.98695" lon="0.79655">
        <ele>505</ele>
        <time>2021-03-13T14:37:38Z</time>
      </trkpt>
      <trkpt lat="42.98694" lon="0.79654">
        <ele>505</ele>
        <time>2021-03-13T14:37:39Z</time>
      </trkpt>
      <trkpt lat="42.98693" lon="0.79653">
        <ele>506</ele>
        <time>2021-03-13T14:37:40Z</time>
      </trkpt>
      <trkpt lat="42.98692" lon="0.79652">
        <ele>506</ele>
        <time>2021-03-13T14:37:41Z</time>
      </trkpt>
      <trkpt lat="42.98691" lon="0.79652">
        <ele>506</ele>
        <time>2021-03-13T14:37:42Z</time>
      </trkpt>
      <trkpt lat="42.9869" lon="0.79651">
        <ele>506</ele>
        <time>2021-03-13T14:37:43Z</time>
      </trkpt>
      <trkpt lat="42.98689" lon="0.79651">
        <ele>506</ele>
        <time>2021-03-13T14:37:44Z</time>
      </trkpt>
      <trkpt lat="42.98688" lon="0.79651">
        <ele>506</ele>
        <time>2021-03-13T14:37:45Z</time>
      </trkpt>
      <trkpt lat="42.98687" lon="0.7965">
        <ele>506</ele>
        <time>2021-03-13T14:37:46Z</time>
      </trkpt>
      <trkpt lat="42.98687" lon="0.7965">
        <ele>506</ele>
        <time>2021-03-13T14:37:47Z</time>
      </trkpt>
      <trkpt lat="42.98686" lon="0.7965">
        <ele>506</ele>
        <time>2021-03-13T14:37:48Z</time>
      </trkpt>
      <trkpt lat="42.98685" lon="0.79649">
        <ele>506</ele>
        <time>2021-03-13T14:37:49Z</time>
      </trkpt>
      <trkpt lat="42.98684" lon="0.79649">
        <ele>506</ele>
        <time>2021-03-13T14:37:50Z</time>
      </trkpt>
      <trkpt lat="42.98683" lon="0.79649">
        <ele>506</ele>
        <time>2021-03-13T14:37:51Z</time>
      </trkpt>
      <trkpt lat="42.98683" lon="0.79648">
        <ele>506</ele>
        <time>2021-03-13T14:37:52Z</time>
      </trkpt>
      <trkpt lat="42.98682" lon="0.79647">
        <ele>506</ele>
        <time>2021-03-13T14:37:53Z</time>
      </trkpt>
      <trkpt lat="42.98682" lon="0.79646">
        <ele>506</ele>
        <time>2021-03-13T14:37:54Z</time>
      </trkpt>
      <trkpt lat="42.98681" lon="0.79645">
        <ele>506</ele>
        <time>2021-03-13T14:37:55Z</time>
      </trkpt>
      <trkpt lat="42.9868" lon="0.79644">
        <ele>506</ele>
        <time>2021-03-13T14:37:56Z</time>
      </trkpt>
      <trkpt lat="42.9868" lon="0.79643">
        <ele>506</ele>
        <time>2021-03-13T14:37:57Z</time>
      </trkpt>
      <trkpt lat="42.98679" lon="0.79642">
        <ele>506</ele>
        <time>2021-03-13T14:37:58Z</time>
      </trkpt>
      <trkpt lat="42.98679" lon="0.79641">
        <ele>506</ele>
        <time>2021-03-13T14:37:59Z</time>
      </trkpt>
      <trkpt lat="42.98678" lon="0.7964">
        <ele>504</ele>
        <time>2021-03-13T14:38:00Z</time>
      </trkpt>
      <trkpt lat="42.98678" lon="0.79639">
        <ele>504</ele>
        <time>2021-03-13T14:38:01Z</time>
      </trkpt>
      <trkpt lat="42.98677" lon="0.79638">
        <ele>504</ele>
        <time>2021-03-13T14:38:02Z</time>
      </trkpt>
      <trkpt lat="42.98677" lon="0.79637">
        <ele>504</ele>
        <time>2021-03-13T14:38:03Z</time>
      </trkpt>
      <trkpt lat="42.98677" lon="0.79636">
        <ele>504</ele>
        <time>2021-03-13T14:38:04Z</time>
      </trkpt>
      <trkpt lat="42.98677" lon="0.79635">
        <ele>504</ele>
        <time>2021-03-13T14:38:05Z</time>
      </trkpt>
      <trkpt lat="42.98678" lon="0.79635">
        <ele>504</ele>
        <time>2021-03-13T14:38:06Z</time>
      </trkpt>
      <trkpt lat="42.98678" lon="0.79634">
        <ele>504</ele>
        <time>2021-03-13T14:38:07Z</time>
      </trkpt>
      <trkpt lat="42.98678" lon="0.79633">
        <ele>504</ele>
        <time>2021-03-13T14:38:08Z</time>
      </trkpt>
      <trkpt lat="42.98679" lon="0.79632">
        <ele>504</ele>
        <time>2021-03-13T14:38:09Z</time>
      </trkpt>
      <trkpt lat="42.98679" lon="0.79631">
        <ele>505</ele>
        <time>2021-03-13T14:38:10Z</time>
      </trkpt>
      <trkpt lat="42.98679" lon="0.7963">
        <ele>505</ele>
        <time>2021-03-13T14:38:11Z</time>
      </trkpt>
      <trkpt lat="42.9868" lon="0.79629">
        <ele>505</ele>
        <time>2021-03-13T14:38:12Z</time>
      </trkpt>
      <trkpt lat="42.9868" lon="0.79628">
        <ele>505</ele>
        <time>2021-03-13T14:38:13Z</time>
      </trkpt>
      <trkpt lat="42.9868" lon="0.79627">
        <ele>505</ele>
        <time>2021-03-13T14:38:14Z</time>
      </trkpt>
      <trkpt lat="42.98681" lon="0.79626">
        <ele>505</ele>
        <time>2021-03-13T14:38:15Z</time>
      </trkpt>
      <trkpt lat="42.98681" lon="0.79625">
        <ele>505</ele>
        <time>2021-03-13T14:38:16Z</time>
      </trkpt>
      <trkpt lat="42.98681" lon="0.79625">
        <ele>505</ele>
        <time>2021-03-13T14:38:17Z</time>
      </trkpt>
      <trkpt lat="42.98681" lon="0.79624">
        <ele>505</ele>
        <time>2021-03-13T14:38:18Z</time>
      </trkpt>
      <trkpt lat="42.98681" lon="0.79623">
        <ele>505</ele>
        <time>2021-03-13T14:38:19Z</time>
      </trkpt>
      <trkpt lat="42.98681" lon="0.79623">
        <ele>505</ele>
        <time>2021-03-13T14:38:20Z</time>
      </trkpt>
      <trkpt lat="42.98681" lon="0.79622">
        <ele>505</ele>
        <time>2021-03-13T14:38:21Z</time>
      </trkpt>
      <trkpt lat="42.9868" lon="0.79622">
        <ele>505</ele>
        <time>2021-03-13T14:38:22Z</time>
      </trkpt>
      <trkpt lat="42.9868" lon="0.79621">
        <ele>505</ele>
        <time>2021-03-13T14:38:23Z</time>
      </trkpt>
      <trkpt lat="42.9868" lon="0.79621">
        <ele>505</ele>
        <time>2021-03-13T14:38:24Z</time>
      </trkpt>
      <trkpt lat="42.9868" lon="0.7962">
        <ele>505</ele>
        <time>2021-03-13T14:38:25Z</time>
      </trkpt>
      <trkpt lat="42.9868" lon="0.7962">
        <ele>505</ele>
        <time>2021-03-13T14:38:26Z</time>
      </trkpt>
      <trkpt lat="42.9868" lon="0.79619">
        <ele>505</ele>
        <time>2021-03-13T14:38:27Z</time>
      </trkpt>
      <trkpt lat="42.9868" lon="0.79619">
        <ele>505</ele>
        <time>2021-03-13T14:38:28Z</time>
      </trkpt>
      <trkpt lat="42.9868" lon="0.79618">
        <ele>505</ele>
        <time>2021-03-13T14:38:29Z</time>
      </trkpt>
      <trkpt lat="42.9868" lon="0.79618">
        <ele>504</ele>
        <time>2021-03-13T14:38:30Z</time>
      </trkpt>
      <trkpt lat="42.9868" lon="0.79617">
        <ele>504</ele>
        <time>2021-03-13T14:38:31Z</time>
      </trkpt>
      <trkpt lat="42.9868" lon="0.79617">
        <ele>504</ele>
        <time>2021-03-13T14:38:32Z</time>
      </trkpt>
      <trkpt lat="42.98679" lon="0.79616">
        <ele>504</ele>
        <time>2021-03-13T14:38:33Z</time>
      </trkpt>
      <trkpt lat="42.98679" lon="0.79616">
        <ele>504</ele>
        <time>2021-03-13T14:38:34Z</time>
      </trkpt>
      <trkpt lat="42.98679" lon="0.79615">
        <ele>504</ele>
        <time>2021-03-13T14:38:35Z</time>
      </trkpt>
      <trkpt lat="42.98679" lon="0.79615">
        <ele>504</ele>
        <time>2021-03-13T14:38:36Z</time>
      </trkpt>
      <trkpt lat="42.98679" lon="0.79614">
        <ele>504</ele>
        <time>2021-03-13T14:38:37Z</time>
      </trkpt>
      <trkpt lat="42.98679" lon="0.79614">
        <ele>504</ele>
        <time>2021-03-13T14:38:38Z</time>
      </trkpt>
      <trkpt lat="42.98679" lon="0.79613">
        <ele>504</ele>
        <time>2021-03-13T14:38:39Z</time>
      </trkpt>
      <trkpt lat="42.98679" lon="0.79613">
        <ele>506</ele>
        <time>2021-03-13T14:38:40Z</time>
      </trkpt>
      <trkpt lat="42.98679" lon="0.79612">
        <ele>506</ele>
        <time>2021-03-13T14:38:41Z</time>
      </trkpt>
      <trkpt lat="42.98679" lon="0.79612">
        <ele>506</ele>
        <time>2021-03-13T14:38:42Z</time>
      </trkpt>
      <trkpt lat="42.98678" lon="0.79611">
        <ele>506</ele>
        <time>2021-03-13T14:38:43Z</time>
      </trkpt>
      <trkpt lat="42.98678" lon="0.7961">
        <ele>506</ele>
        <time>2021-03-13T14:38:44Z</time>
      </trkpt>
      <trkpt lat="42.98678" lon="0.79609">
        <ele>506</ele>
        <time>2021-03-13T14:38:45Z</time>
      </trkpt>
      <trkpt lat="42.98678" lon="0.79608">
        <ele>506</ele>
        <time>2021-03-13T14:38:46Z</time>
      </trkpt>
      <trkpt lat="42.98678" lon="0.79607">
        <ele>506</ele>
        <time>2021-03-13T14:38:47Z</time>
      </trkpt>
      <trkpt lat="42.98678" lon="0.79607">
        <ele>506</ele>
        <time>2021-03-13T14:38:48Z</time>
      </trkpt>
      <trkpt lat="42.98678" lon="0.79606">
        <ele>506</ele>
        <time>2021-03-13T14:38:49Z</time>
      </trkpt>
      <trkpt lat="42.98678" lon="0.79605">
        <ele>508</ele>
        <time>2021-03-13T14:38:50Z</time>
      </trkpt>
      <trkpt lat="42.98678" lon="0.79604">
        <ele>508</ele>
        <time>2021-03-13T14:38:51Z</time>
      </trkpt>
      <trkpt lat="42.98676" lon="0.79595">
        <ele>508</ele>
        <time>2021-03-13T14:38:52Z</time>
      </trkpt>
      <trkpt lat="42.98676" lon="0.79594">
        <ele>508</ele>
        <time>2021-03-13T14:38:53Z</time>
      </trkpt>
      <trkpt lat="42.98676" lon="0.79593">
        <ele>508</ele>
        <time>2021-03-13T14:38:54Z</time>
      </trkpt>
      <trkpt lat="42.98675" lon="0.79592">
        <ele>509</ele>
        <time>2021-03-13T14:38:55Z</time>
      </trkpt>
      <trkpt lat="42.98675" lon="0.7959">
        <ele>509</ele>
        <time>2021-03-13T14:38:56Z</time>
      </trkpt>
      <trkpt lat="42.98674" lon="0.79589">
        <ele>509</ele>
        <time>2021-03-13T14:38:57Z</time>
      </trkpt>
      <trkpt lat="42.9867" lon="0.79579">
        <ele>509</ele>
        <time>2021-03-13T14:38:58Z</time>
      </trkpt>
      <trkpt lat="42.98668" lon="0.79577">
        <ele>509</ele>
        <time>2021-03-13T14:38:59Z</time>
      </trkpt>
      <trkpt lat="42.98666" lon="0.79575">
        <ele>506</ele>
        <time>2021-03-13T14:39:00Z</time>
      </trkpt>
      <trkpt lat="42.98658" lon="0.79567">
        <ele>506</ele>
        <time>2021-03-13T14:39:01Z</time>
      </trkpt>
      <trkpt lat="42.98656" lon="0.79565">
        <ele>506</ele>
        <time>2021-03-13T14:39:02Z</time>
      </trkpt>
      <trkpt lat="42.98648" lon="0.79554">
        <ele>506</ele>
        <time>2021-03-13T14:39:03Z</time>
      </trkpt>
      <trkpt lat="42.98645" lon="0.79549">
        <ele>506</ele>
        <time>2021-03-13T14:39:04Z</time>
      </trkpt>
      <trkpt lat="42.98643" lon="0.79546">
        <ele>503</ele>
        <time>2021-03-13T14:39:05Z</time>
      </trkpt>
      <trkpt lat="42.98642" lon="0.79542">
        <ele>503</ele>
        <time>2021-03-13T14:39:06Z</time>
      </trkpt>
      <trkpt lat="42.98638" lon="0.79533">
        <ele>503</ele>
        <time>2021-03-13T14:39:07Z</time>
      </trkpt>
      <trkpt lat="42.98636" lon="0.79529">
        <ele>503</ele>
        <time>2021-03-13T14:39:08Z</time>
      </trkpt>
      <trkpt lat="42.98631" lon="0.7952">
        <ele>503</ele>
        <time>2021-03-13T14:39:09Z</time>
      </trkpt>
      <trkpt lat="42.98629" lon="0.79517">
        <ele>499</ele>
        <time>2021-03-13T14:39:10Z</time>
      </trkpt>
      <trkpt lat="42.98623" lon="0.79508">
        <ele>497</ele>
        <time>2021-03-13T14:39:11Z</time>
      </trkpt>
      <trkpt lat="42.98622" lon="0.79505">
        <ele>496</ele>
        <time>2021-03-13T14:39:12Z</time>
      </trkpt>
      <trkpt lat="42.9862" lon="0.79503">
        <ele>495</ele>
        <time>2021-03-13T14:39:13Z</time>
      </trkpt>
      <trkpt lat="42.98614" lon="0.79493">
        <ele>494</ele>
        <time>2021-03-13T14:39:14Z</time>
      </trkpt>
      <trkpt lat="42.98613" lon="0.79491">
        <ele>494</ele>
        <time>2021-03-13T14:39:15Z</time>
      </trkpt>
      <trkpt lat="42.98612" lon="0.79488">
        <ele>494</ele>
        <time>2021-03-13T14:39:16Z</time>
      </trkpt>
      <trkpt lat="42.98609" lon="0.7948">
        <ele>494</ele>
        <time>2021-03-13T14:39:17Z</time>
      </trkpt>
      <trkpt lat="42.98608" lon="0.79479">
        <ele>494</ele>
        <time>2021-03-13T14:39:18Z</time>
      </trkpt>
      <trkpt lat="42.98607" lon="0.79477">
        <ele>493</ele>
        <time>2021-03-13T14:39:19Z</time>
      </trkpt>
      <trkpt lat="42.98606" lon="0.79475">
        <ele>492</ele>
        <time>2021-03-13T14:39:20Z</time>
      </trkpt>
      <trkpt lat="42.98603" lon="0.79468">
        <ele>492</ele>
        <time>2021-03-13T14:39:21Z</time>
      </trkpt>
      <trkpt lat="42.98602" lon="0.79467">
        <ele>492</ele>
        <time>2021-03-13T14:39:22Z</time>
      </trkpt>
      <trkpt lat="42.98601" lon="0.79466">
        <ele>492</ele>
        <time>2021-03-13T14:39:23Z</time>
      </trkpt>
      <trkpt lat="42.98601" lon="0.79465">
        <ele>491</ele>
        <time>2021-03-13T14:39:24Z</time>
      </trkpt>
      <trkpt lat="42.986" lon="0.79463">
        <ele>492</ele>
        <time>2021-03-13T14:39:25Z</time>
      </trkpt>
      <trkpt lat="42.98596" lon="0.79456">
        <ele>492</ele>
        <time>2021-03-13T14:39:26Z</time>
      </trkpt>
      <trkpt lat="42.98595" lon="0.79453">
        <ele>491</ele>
        <time>2021-03-13T14:39:27Z</time>
      </trkpt>
      <trkpt lat="42.98594" lon="0.79451">
        <ele>491</ele>
        <time>2021-03-13T14:39:28Z</time>
      </trkpt>
      <trkpt lat="42.98593" lon="0.79448">
        <ele>491</ele>
        <time>2021-03-13T14:39:29Z</time>
      </trkpt>
      <trkpt lat="42.98592" lon="0.79446">
        <ele>492</ele>
        <time>2021-03-13T14:39:30Z</time>
      </trkpt>
      <trkpt lat="42.98592" lon="0.79445">
        <ele>492</ele>
        <time>2021-03-13T14:39:31Z</time>
      </trkpt>
      <trkpt lat="42.98591" lon="0.79444">
        <ele>492</ele>
        <time>2021-03-13T14:39:32Z</time>
      </trkpt>
      <trkpt lat="42.9859" lon="0.79444">
        <ele>492</ele>
        <time>2021-03-13T14:39:33Z</time>
      </trkpt>
      <trkpt lat="42.9859" lon="0.79443">
        <ele>492</ele>
        <time>2021-03-13T14:39:34Z</time>
      </trkpt>
      <trkpt lat="42.98589" lon="0.79442">
        <ele>492</ele>
        <time>2021-03-13T14:39:35Z</time>
      </trkpt>
      <trkpt lat="42.98589" lon="0.79442">
        <ele>492</ele>
        <time>2021-03-13T14:39:36Z</time>
      </trkpt>
      <trkpt lat="42.98588" lon="0.79441">
        <ele>492</ele>
        <time>2021-03-13T14:39:37Z</time>
      </trkpt>
      <trkpt lat="42.98588" lon="0.7944">
        <ele>492</ele>
        <time>2021-03-13T14:39:38Z</time>
      </trkpt>
      <trkpt lat="42.98582" lon="0.79435">
        <ele>492</ele>
        <time>2021-03-13T14:39:39Z</time>
      </trkpt>
      <trkpt lat="42.98581" lon="0.79434">
        <ele>494</ele>
        <time>2021-03-13T14:39:40Z</time>
      </trkpt>
      <trkpt lat="42.9858" lon="0.79434">
        <ele>494</ele>
        <time>2021-03-13T14:39:41Z</time>
      </trkpt>
      <trkpt lat="42.98579" lon="0.79434">
        <ele>494</ele>
        <time>2021-03-13T14:39:42Z</time>
      </trkpt>
      <trkpt lat="42.98578" lon="0.79433">
        <ele>494</ele>
        <time>2021-03-13T14:39:43Z</time>
      </trkpt>
      <trkpt lat="42.98572" lon="0.7943">
        <ele>494</ele>
        <time>2021-03-13T14:39:44Z</time>
      </trkpt>
      <trkpt lat="42.9857" lon="0.79429">
        <ele>496</ele>
        <time>2021-03-13T14:39:45Z</time>
      </trkpt>
      <trkpt lat="42.98568" lon="0.79428">
        <ele>496</ele>
        <time>2021-03-13T14:39:46Z</time>
      </trkpt>
      <trkpt lat="42.98566" lon="0.79426">
        <ele>496</ele>
        <time>2021-03-13T14:39:47Z</time>
      </trkpt>
      <trkpt lat="42.98565" lon="0.79425">
        <ele>496</ele>
        <time>2021-03-13T14:39:48Z</time>
      </trkpt>
      <trkpt lat="42.98563" lon="0.79424">
        <ele>496</ele>
        <time>2021-03-13T14:39:49Z</time>
      </trkpt>
      <trkpt lat="42.98562" lon="0.79423">
        <ele>496</ele>
        <time>2021-03-13T14:39:50Z</time>
      </trkpt>
      <trkpt lat="42.98561" lon="0.79422">
        <ele>496</ele>
        <time>2021-03-13T14:39:51Z</time>
      </trkpt>
      <trkpt lat="42.9856" lon="0.79421">
        <ele>496</ele>
        <time>2021-03-13T14:39:52Z</time>
      </trkpt>
      <trkpt lat="42.98554" lon="0.79416">
        <ele>496</ele>
        <time>2021-03-13T14:39:53Z</time>
      </trkpt>
      <trkpt lat="42.98552" lon="0.79414">
        <ele>496</ele>
        <time>2021-03-13T14:39:54Z</time>
      </trkpt>
      <trkpt lat="42.9855" lon="0.79413">
        <ele>496</ele>
        <time>2021-03-13T14:39:55Z</time>
      </trkpt>
      <trkpt lat="42.98549" lon="0.79411">
        <ele>496</ele>
        <time>2021-03-13T14:39:56Z</time>
      </trkpt>
      <trkpt lat="42.98547" lon="0.7941">
        <ele>496</ele>
        <time>2021-03-13T14:39:57Z</time>
      </trkpt>
      <trkpt lat="42.98546" lon="0.79408">
        <ele>496</ele>
        <time>2021-03-13T14:39:58Z</time>
      </trkpt>
      <trkpt lat="42.98545" lon="0.79406">
        <ele>496</ele>
        <time>2021-03-13T14:39:59Z</time>
      </trkpt>
      <trkpt lat="42.98544" lon="0.79404">
        <ele>496</ele>
        <time>2021-03-13T14:40:00Z</time>
      </trkpt>
      <trkpt lat="42.9854" lon="0.79396">
        <ele>496</ele>
        <time>2021-03-13T14:40:01Z</time>
      </trkpt>
      <trkpt lat="42.9854" lon="0.79394">
        <ele>496</ele>
        <time>2021-03-13T14:40:02Z</time>
      </trkpt>
      <trkpt lat="42.9854" lon="0.79392">
        <ele>496</ele>
        <time>2021-03-13T14:40:03Z</time>
      </trkpt>
      <trkpt lat="42.9854" lon="0.7939">
        <ele>496</ele>
        <time>2021-03-13T14:40:04Z</time>
      </trkpt>
      <trkpt lat="42.9854" lon="0.79378">
        <ele>496</ele>
        <time>2021-03-13T14:40:05Z</time>
      </trkpt>
      <trkpt lat="42.98542" lon="0.79374">
        <ele>496</ele>
        <time>2021-03-13T14:40:06Z</time>
      </trkpt>
      <trkpt lat="42.98547" lon="0.79364">
        <ele>496</ele>
        <time>2021-03-13T14:40:07Z</time>
      </trkpt>
      <trkpt lat="42.9855" lon="0.79361">
        <ele>496</ele>
        <time>2021-03-13T14:40:08Z</time>
      </trkpt>
      <trkpt lat="42.98558" lon="0.79351">
        <ele>496</ele>
        <time>2021-03-13T14:40:09Z</time>
      </trkpt>
      <trkpt lat="42.9856" lon="0.79347">
        <ele>488</ele>
        <time>2021-03-13T14:40:10Z</time>
      </trkpt>
      <trkpt lat="42.98564" lon="0.79339">
        <ele>484</ele>
        <time>2021-03-13T14:40:11Z</time>
      </trkpt>
      <trkpt lat="42.98563" lon="0.79338">
        <ele>484</ele>
        <time>2021-03-13T14:40:12Z</time>
      </trkpt>
      <trkpt lat="42.98563" lon="0.79337">
        <ele>482</ele>
        <time>2021-03-13T14:40:13Z</time>
      </trkpt>
      <trkpt lat="42.98562" lon="0.79336">
        <ele>482</ele>
        <time>2021-03-13T14:40:14Z</time>
      </trkpt>
      <trkpt lat="42.98561" lon="0.79334">
        <ele>482</ele>
        <time>2021-03-13T14:40:15Z</time>
      </trkpt>
      <trkpt lat="42.98561" lon="0.79333">
        <ele>482</ele>
        <time>2021-03-13T14:40:16Z</time>
      </trkpt>
      <trkpt lat="42.98556" lon="0.79325">
        <ele>482</ele>
        <time>2021-03-13T14:40:17Z</time>
      </trkpt>
      <trkpt lat="42.98554" lon="0.79324">
        <ele>482</ele>
        <time>2021-03-13T14:40:18Z</time>
      </trkpt>
      <trkpt lat="42.98552" lon="0.79322">
        <ele>482</ele>
        <time>2021-03-13T14:40:19Z</time>
      </trkpt>
      <trkpt lat="42.98545" lon="0.79316">
        <ele>482</ele>
        <time>2021-03-13T14:40:20Z</time>
      </trkpt>
      <trkpt lat="42.98544" lon="0.79315">
        <ele>483</ele>
        <time>2021-03-13T14:40:21Z</time>
      </trkpt>
      <trkpt lat="42.98542" lon="0.79314">
        <ele>483</ele>
        <time>2021-03-13T14:40:22Z</time>
      </trkpt>
      <trkpt lat="42.98536" lon="0.79309">
        <ele>482</ele>
        <time>2021-03-13T14:40:23Z</time>
      </trkpt>
      <trkpt lat="42.98535" lon="0.79309">
        <ele>482</ele>
        <time>2021-03-13T14:40:24Z</time>
      </trkpt>
      <trkpt lat="42.98533" lon="0.79308">
        <ele>482</ele>
        <time>2021-03-13T14:40:25Z</time>
      </trkpt>
      <trkpt lat="42.98532" lon="0.79307">
        <ele>482</ele>
        <time>2021-03-13T14:40:26Z</time>
      </trkpt>
      <trkpt lat="42.98523" lon="0.79303">
        <ele>482</ele>
        <time>2021-03-13T14:40:27Z</time>
      </trkpt>
      <trkpt lat="42.98521" lon="0.79302">
        <ele>482</ele>
        <time>2021-03-13T14:40:28Z</time>
      </trkpt>
      <trkpt lat="42.98519" lon="0.79301">
        <ele>482</ele>
        <time>2021-03-13T14:40:29Z</time>
      </trkpt>
      <trkpt lat="42.98508" lon="0.79295">
        <ele>482</ele>
        <time>2021-03-13T14:40:30Z</time>
      </trkpt>
      <trkpt lat="42.98503" lon="0.79293">
        <ele>482</ele>
        <time>2021-03-13T14:40:31Z</time>
      </trkpt>
      <trkpt lat="42.985" lon="0.79292">
        <ele>482</ele>
        <time>2021-03-13T14:40:32Z</time>
      </trkpt>
      <trkpt lat="42.98497" lon="0.79291">
        <ele>482</ele>
        <time>2021-03-13T14:40:33Z</time>
      </trkpt>
      <trkpt lat="42.98488" lon="0.79289">
        <ele>482</ele>
        <time>2021-03-13T14:40:34Z</time>
      </trkpt>
      <trkpt lat="42.98485" lon="0.79288">
        <ele>482</ele>
        <time>2021-03-13T14:40:35Z</time>
      </trkpt>
      <trkpt lat="42.98476" lon="0.79287">
        <ele>482</ele>
        <time>2021-03-13T14:40:36Z</time>
      </trkpt>
      <trkpt lat="42.98473" lon="0.79286">
        <ele>482</ele>
        <time>2021-03-13T14:40:37Z</time>
      </trkpt>
      <trkpt lat="42.98465" lon="0.79286">
        <ele>482</ele>
        <time>2021-03-13T14:40:38Z</time>
      </trkpt>
      <trkpt lat="42.98462" lon="0.79286">
        <ele>482</ele>
        <time>2021-03-13T14:40:39Z</time>
      </trkpt>
      <trkpt lat="42.98451" lon="0.79285">
        <ele>482</ele>
        <time>2021-03-13T14:40:40Z</time>
      </trkpt>
      <trkpt lat="42.98446" lon="0.79286">
        <ele>482</ele>
        <time>2021-03-13T14:40:41Z</time>
      </trkpt>
      <trkpt lat="42.98443" lon="0.79286">
        <ele>482</ele>
        <time>2021-03-13T14:40:42Z</time>
      </trkpt>
      <trkpt lat="42.98441" lon="0.79286">
        <ele>482</ele>
        <time>2021-03-13T14:40:43Z</time>
      </trkpt>
      <trkpt lat="42.98433" lon="0.79287">
        <ele>482</ele>
        <time>2021-03-13T14:40:44Z</time>
      </trkpt>
      <trkpt lat="42.98431" lon="0.79286">
        <ele>482</ele>
        <time>2021-03-13T14:40:45Z</time>
      </trkpt>
      <trkpt lat="42.98428" lon="0.79286">
        <ele>482</ele>
        <time>2021-03-13T14:40:46Z</time>
      </trkpt>
      <trkpt lat="42.98416" lon="0.79283">
        <ele>482</ele>
        <time>2021-03-13T14:40:47Z</time>
      </trkpt>
      <trkpt lat="42.98412" lon="0.7928">
        <ele>482</ele>
        <time>2021-03-13T14:40:48Z</time>
      </trkpt>
      <trkpt lat="42.9841" lon="0.79279">
        <ele>482</ele>
        <time>2021-03-13T14:40:49Z</time>
      </trkpt>
      <trkpt lat="42.98408" lon="0.79278">
        <ele>482</ele>
        <time>2021-03-13T14:40:50Z</time>
      </trkpt>
      <trkpt lat="42.98407" lon="0.79277">
        <ele>482</ele>
        <time>2021-03-13T14:40:51Z</time>
      </trkpt>
      <trkpt lat="42.984" lon="0.79272">
        <ele>482</ele>
        <time>2021-03-13T14:40:52Z</time>
      </trkpt>
      <trkpt lat="42.98397" lon="0.7927">
        <ele>482</ele>
        <time>2021-03-13T14:40:53Z</time>
      </trkpt>
      <trkpt lat="42.98394" lon="0.79268">
        <ele>482</ele>
        <time>2021-03-13T14:40:54Z</time>
      </trkpt>
      <trkpt lat="42.98391" lon="0.79267">
        <ele>482</ele>
        <time>2021-03-13T14:40:55Z</time>
      </trkpt>
      <trkpt lat="42.98387" lon="0.79266">
        <ele>482</ele>
        <time>2021-03-13T14:40:56Z</time>
      </trkpt>
      <trkpt lat="42.98386" lon="0.79264">
        <ele>482</ele>
        <time>2021-03-13T14:40:57Z</time>
      </trkpt>
      <trkpt lat="42.98385" lon="0.79262">
        <ele>482</ele>
        <time>2021-03-13T14:40:58Z</time>
      </trkpt>
      <trkpt lat="42.98384" lon="0.7926">
        <ele>482</ele>
        <time>2021-03-13T14:40:59Z</time>
      </trkpt>
      <trkpt lat="42.98378" lon="0.79248">
        <ele>481</ele>
        <time>2021-03-13T14:41:00Z</time>
      </trkpt>
      <trkpt lat="42.98376" lon="0.79243">
        <ele>481</ele>
        <time>2021-03-13T14:41:01Z</time>
      </trkpt>
      <trkpt lat="42.98374" lon="0.79238">
        <ele>481</ele>
        <time>2021-03-13T14:41:02Z</time>
      </trkpt>
      <trkpt lat="42.98373" lon="0.79232">
        <ele>481</ele>
        <time>2021-03-13T14:41:03Z</time>
      </trkpt>
      <trkpt lat="42.98372" lon="0.79227">
        <ele>481</ele>
        <time>2021-03-13T14:41:04Z</time>
      </trkpt>
      <trkpt lat="42.9837" lon="0.79223">
        <ele>481</ele>
        <time>2021-03-13T14:41:05Z</time>
      </trkpt>
      <trkpt lat="42.98368" lon="0.79219">
        <ele>481</ele>
        <time>2021-03-13T14:41:06Z</time>
      </trkpt>
      <trkpt lat="42.98367" lon="0.79215">
        <ele>481</ele>
        <time>2021-03-13T14:41:07Z</time>
      </trkpt>
      <trkpt lat="42.98364" lon="0.79212">
        <ele>481</ele>
        <time>2021-03-13T14:41:08Z</time>
      </trkpt>
      <trkpt lat="42.98362" lon="0.79208">
        <ele>481</ele>
        <time>2021-03-13T14:41:09Z</time>
      </trkpt>
      <trkpt lat="42.9836" lon="0.79205">
        <ele>482</ele>
        <time>2021-03-13T14:41:10Z</time>
      </trkpt>
      <trkpt lat="42.98357" lon="0.79204">
        <ele>482</ele>
        <time>2021-03-13T14:41:11Z</time>
      </trkpt>
      <trkpt lat="42.98354" lon="0.79203">
        <ele>482</ele>
        <time>2021-03-13T14:41:12Z</time>
      </trkpt>
      <trkpt lat="42.98351" lon="0.79202">
        <ele>482</ele>
        <time>2021-03-13T14:41:13Z</time>
      </trkpt>
      <trkpt lat="42.98348" lon="0.79201">
        <ele>482</ele>
        <time>2021-03-13T14:41:14Z</time>
      </trkpt>
      <trkpt lat="42.98344" lon="0.79201">
        <ele>482</ele>
        <time>2021-03-13T14:41:15Z</time>
      </trkpt>
      <trkpt lat="42.98341" lon="0.792">
        <ele>482</ele>
        <time>2021-03-13T14:41:16Z</time>
      </trkpt>
      <trkpt lat="42.98338" lon="0.79199">
        <ele>482</ele>
        <time>2021-03-13T14:41:17Z</time>
      </trkpt>
      <trkpt lat="42.98334" lon="0.79199">
        <ele>482</ele>
        <time>2021-03-13T14:41:18Z</time>
      </trkpt>
      <trkpt lat="42.98331" lon="0.79199">
        <ele>482</ele>
        <time>2021-03-13T14:41:19Z</time>
      </trkpt>
      <trkpt lat="42.98327" lon="0.79198">
        <ele>482</ele>
        <time>2021-03-13T14:41:20Z</time>
      </trkpt>
      <trkpt lat="42.98323" lon="0.79198">
        <ele>482</ele>
        <time>2021-03-13T14:41:21Z</time>
      </trkpt>
      <trkpt lat="42.9832" lon="0.79198">
        <ele>482</ele>
        <time>2021-03-13T14:41:22Z</time>
      </trkpt>
      <trkpt lat="42.98317" lon="0.79198">
        <ele>482</ele>
        <time>2021-03-13T14:41:23Z</time>
      </trkpt>
      <trkpt lat="42.98314" lon="0.79199">
        <ele>482</ele>
        <time>2021-03-13T14:41:24Z</time>
      </trkpt>
      <trkpt lat="42.98311" lon="0.79198">
        <ele>482</ele>
        <time>2021-03-13T14:41:25Z</time>
      </trkpt>
      <trkpt lat="42.98309" lon="0.79197">
        <ele>482</ele>
        <time>2021-03-13T14:41:26Z</time>
      </trkpt>
      <trkpt lat="42.98306" lon="0.79197">
        <ele>482</ele>
        <time>2021-03-13T14:41:27Z</time>
      </trkpt>
      <trkpt lat="42.98306" lon="0.79193">
        <ele>482</ele>
        <time>2021-03-13T14:41:28Z</time>
      </trkpt>
      <trkpt lat="42.98305" lon="0.7919">
        <ele>482</ele>
        <time>2021-03-13T14:41:29Z</time>
      </trkpt>
      <trkpt lat="42.98304" lon="0.79186">
        <ele>484</ele>
        <time>2021-03-13T14:41:30Z</time>
      </trkpt>
      <trkpt lat="42.98304" lon="0.79182">
        <ele>484</ele>
        <time>2021-03-13T14:41:31Z</time>
      </trkpt>
      <trkpt lat="42.98305" lon="0.79177">
        <ele>484</ele>
        <time>2021-03-13T14:41:32Z</time>
      </trkpt>
      <trkpt lat="42.98305" lon="0.79172">
        <ele>484</ele>
        <time>2021-03-13T14:41:33Z</time>
      </trkpt>
      <trkpt lat="42.98306" lon="0.79167">
        <ele>484</ele>
        <time>2021-03-13T14:41:34Z</time>
      </trkpt>
      <trkpt lat="42.98306" lon="0.79161">
        <ele>484</ele>
        <time>2021-03-13T14:41:35Z</time>
      </trkpt>
      <trkpt lat="42.98307" lon="0.79157">
        <ele>484</ele>
        <time>2021-03-13T14:41:36Z</time>
      </trkpt>
      <trkpt lat="42.98307" lon="0.79152">
        <ele>484</ele>
        <time>2021-03-13T14:41:37Z</time>
      </trkpt>
      <trkpt lat="42.98308" lon="0.79147">
        <ele>484</ele>
        <time>2021-03-13T14:41:38Z</time>
      </trkpt>
      <trkpt lat="42.98309" lon="0.79142">
        <ele>484</ele>
        <time>2021-03-13T14:41:39Z</time>
      </trkpt>
      <trkpt lat="42.98309" lon="0.79136">
        <ele>484</ele>
        <time>2021-03-13T14:41:40Z</time>
      </trkpt>
      <trkpt lat="42.9831" lon="0.79131">
        <ele>484</ele>
        <time>2021-03-13T14:41:41Z</time>
      </trkpt>
      <trkpt lat="42.98311" lon="0.79126">
        <ele>484</ele>
        <time>2021-03-13T14:41:42Z</time>
      </trkpt>
      <trkpt lat="42.98312" lon="0.79121">
        <ele>484</ele>
        <time>2021-03-13T14:41:43Z</time>
      </trkpt>
      <trkpt lat="42.98312" lon="0.79116">
        <ele>484</ele>
        <time>2021-03-13T14:41:44Z</time>
      </trkpt>
      <trkpt lat="42.98312" lon="0.79112">
        <ele>484</ele>
        <time>2021-03-13T14:41:45Z</time>
      </trkpt>
      <trkpt lat="42.98311" lon="0.79108">
        <ele>484</ele>
        <time>2021-03-13T14:41:46Z</time>
      </trkpt>
      <trkpt lat="42.98311" lon="0.79108">
        <ele>484</ele>
        <time>2021-03-13T14:41:47Z</time>
      </trkpt>
      <trkpt lat="42.98307" lon="0.79104">
        <ele>484</ele>
        <time>2021-03-13T14:41:48Z</time>
      </trkpt>
      <trkpt lat="42.98307" lon="0.79104">
        <ele>484</ele>
        <time>2021-03-13T14:41:49Z</time>
      </trkpt>
      <trkpt lat="42.98304" lon="0.79104">
        <ele>485</ele>
        <time>2021-03-13T14:41:50Z</time>
      </trkpt>
      <trkpt lat="42.98302" lon="0.79103">
        <ele>485</ele>
        <time>2021-03-13T14:41:51Z</time>
      </trkpt>
      <trkpt lat="42.983" lon="0.79102">
        <ele>485</ele>
        <time>2021-03-13T14:41:52Z</time>
      </trkpt>
      <trkpt lat="42.98294" lon="0.79101">
        <ele>485</ele>
        <time>2021-03-13T14:41:53Z</time>
      </trkpt>
      <trkpt lat="42.98294" lon="0.79101">
        <ele>485</ele>
        <time>2021-03-13T14:41:54Z</time>
      </trkpt>
      <trkpt lat="42.98288" lon="0.79099">
        <ele>485</ele>
        <time>2021-03-13T14:41:55Z</time>
      </trkpt>
      <trkpt lat="42.98288" lon="0.79099">
        <ele>485</ele>
        <time>2021-03-13T14:41:56Z</time>
      </trkpt>
      <trkpt lat="42.98281" lon="0.79098">
        <ele>485</ele>
        <time>2021-03-13T14:41:57Z</time>
      </trkpt>
      <trkpt lat="42.98281" lon="0.79098">
        <ele>485</ele>
        <time>2021-03-13T14:41:58Z</time>
      </trkpt>
      <trkpt lat="42.98276" lon="0.79096">
        <ele>485</ele>
        <time>2021-03-13T14:41:59Z</time>
      </trkpt>
      <trkpt lat="42.98276" lon="0.79096">
        <ele>488</ele>
        <time>2021-03-13T14:42:00Z</time>
      </trkpt>
      <trkpt lat="42.9827" lon="0.79094">
        <ele>488</ele>
        <time>2021-03-13T14:42:01Z</time>
      </trkpt>
      <trkpt lat="42.9827" lon="0.79094">
        <ele>488</ele>
        <time>2021-03-13T14:42:02Z</time>
      </trkpt>
      <trkpt lat="42.98263" lon="0.79092">
        <ele>488</ele>
        <time>2021-03-13T14:42:03Z</time>
      </trkpt>
      <trkpt lat="42.98263" lon="0.79092">
        <ele>488</ele>
        <time>2021-03-13T14:42:04Z</time>
      </trkpt>
      <trkpt lat="42.98257" lon="0.79092">
        <ele>488</ele>
        <time>2021-03-13T14:42:05Z</time>
      </trkpt>
      <trkpt lat="42.98257" lon="0.79092">
        <ele>488</ele>
        <time>2021-03-13T14:42:06Z</time>
      </trkpt>
      <trkpt lat="42.98254" lon="0.79092">
        <ele>488</ele>
        <time>2021-03-13T14:42:07Z</time>
      </trkpt>
      <trkpt lat="42.98251" lon="0.79091">
        <ele>488</ele>
        <time>2021-03-13T14:42:08Z</time>
      </trkpt>
      <trkpt lat="42.98248" lon="0.79091">
        <ele>488</ele>
        <time>2021-03-13T14:42:09Z</time>
      </trkpt>
      <trkpt lat="42.98243" lon="0.7909">
        <ele>488</ele>
        <time>2021-03-13T14:42:10Z</time>
      </trkpt>
      <trkpt lat="42.98238" lon="0.79089">
        <ele>488</ele>
        <time>2021-03-13T14:42:11Z</time>
      </trkpt>
      <trkpt lat="42.98234" lon="0.79087">
        <ele>488</ele>
        <time>2021-03-13T14:42:12Z</time>
      </trkpt>
      <trkpt lat="42.9823" lon="0.79086">
        <ele>488</ele>
        <time>2021-03-13T14:42:13Z</time>
      </trkpt>
      <trkpt lat="42.9823" lon="0.79086">
        <ele>488</ele>
        <time>2021-03-13T14:42:14Z</time>
      </trkpt>
      <trkpt lat="42.98224" lon="0.79084">
        <ele>488</ele>
        <time>2021-03-13T14:42:15Z</time>
      </trkpt>
      <trkpt lat="42.98224" lon="0.79084">
        <ele>488</ele>
        <time>2021-03-13T14:42:16Z</time>
      </trkpt>
      <trkpt lat="42.98217" lon="0.79082">
        <ele>488</ele>
        <time>2021-03-13T14:42:17Z</time>
      </trkpt>
      <trkpt lat="42.98217" lon="0.79082">
        <ele>488</ele>
        <time>2021-03-13T14:42:18Z</time>
      </trkpt>
      <trkpt lat="42.98211" lon="0.7908">
        <ele>488</ele>
        <time>2021-03-13T14:42:19Z</time>
      </trkpt>
      <trkpt lat="42.98211" lon="0.7908">
        <ele>489</ele>
        <time>2021-03-13T14:42:20Z</time>
      </trkpt>
      <trkpt lat="42.98204" lon="0.79076">
        <ele>489</ele>
        <time>2021-03-13T14:42:21Z</time>
      </trkpt>
      <trkpt lat="42.98204" lon="0.79076">
        <ele>489</ele>
        <time>2021-03-13T14:42:22Z</time>
      </trkpt>
      <trkpt lat="42.98198" lon="0.79073">
        <ele>489</ele>
        <time>2021-03-13T14:42:23Z</time>
      </trkpt>
      <trkpt lat="42.98198" lon="0.79073">
        <ele>489</ele>
        <time>2021-03-13T14:42:24Z</time>
      </trkpt>
      <trkpt lat="42.98195" lon="0.79072">
        <ele>489</ele>
        <time>2021-03-13T14:42:25Z</time>
      </trkpt>
      <trkpt lat="42.98192" lon="0.7907">
        <ele>489</ele>
        <time>2021-03-13T14:42:26Z</time>
      </trkpt>
      <trkpt lat="42.98188" lon="0.79069">
        <ele>489</ele>
        <time>2021-03-13T14:42:27Z</time>
      </trkpt>
      <trkpt lat="42.98185" lon="0.79067">
        <ele>489</ele>
        <time>2021-03-13T14:42:28Z</time>
      </trkpt>
      <trkpt lat="42.98182" lon="0.79066">
        <ele>489</ele>
        <time>2021-03-13T14:42:29Z</time>
      </trkpt>
      <trkpt lat="42.98179" lon="0.79064">
        <ele>491</ele>
        <time>2021-03-13T14:42:30Z</time>
      </trkpt>
      <trkpt lat="42.98177" lon="0.79063">
        <ele>491</ele>
        <time>2021-03-13T14:42:31Z</time>
      </trkpt>
      <trkpt lat="42.98174" lon="0.79062">
        <ele>491</ele>
        <time>2021-03-13T14:42:32Z</time>
      </trkpt>
      <trkpt lat="42.98171" lon="0.79061">
        <ele>491</ele>
        <time>2021-03-13T14:42:33Z</time>
      </trkpt>
      <trkpt lat="42.98168" lon="0.7906">
        <ele>491</ele>
        <time>2021-03-13T14:42:34Z</time>
      </trkpt>
      <trkpt lat="42.98165" lon="0.7906">
        <ele>491</ele>
        <time>2021-03-13T14:42:35Z</time>
      </trkpt>
      <trkpt lat="42.98162" lon="0.7906">
        <ele>491</ele>
        <time>2021-03-13T14:42:36Z</time>
      </trkpt>
      <trkpt lat="42.98158" lon="0.7906">
        <ele>491</ele>
        <time>2021-03-13T14:42:37Z</time>
      </trkpt>
      <trkpt lat="42.98156" lon="0.7906">
        <ele>491</ele>
        <time>2021-03-13T14:42:38Z</time>
      </trkpt>
      <trkpt lat="42.98153" lon="0.79061">
        <ele>491</ele>
        <time>2021-03-13T14:42:39Z</time>
      </trkpt>
      <trkpt lat="42.9815" lon="0.79062">
        <ele>494</ele>
        <time>2021-03-13T14:42:40Z</time>
      </trkpt>
      <trkpt lat="42.98148" lon="0.79062">
        <ele>494</ele>
        <time>2021-03-13T14:42:41Z</time>
      </trkpt>
      <trkpt lat="42.98145" lon="0.79063">
        <ele>494</ele>
        <time>2021-03-13T14:42:42Z</time>
      </trkpt>
      <trkpt lat="42.98143" lon="0.79064">
        <ele>494</ele>
        <time>2021-03-13T14:42:43Z</time>
      </trkpt>
      <trkpt lat="42.98141" lon="0.79065">
        <ele>494</ele>
        <time>2021-03-13T14:42:44Z</time>
      </trkpt>
      <trkpt lat="42.98139" lon="0.79065">
        <ele>497</ele>
        <time>2021-03-13T14:42:45Z</time>
      </trkpt>
      <trkpt lat="42.98137" lon="0.79066">
        <ele>497</ele>
        <time>2021-03-13T14:42:46Z</time>
      </trkpt>
      <trkpt lat="42.98135" lon="0.79067">
        <ele>497</ele>
        <time>2021-03-13T14:42:47Z</time>
      </trkpt>
      <trkpt lat="42.98133" lon="0.79067">
        <ele>497</ele>
        <time>2021-03-13T14:42:48Z</time>
      </trkpt>
      <trkpt lat="42.98132" lon="0.79068">
        <ele>497</ele>
        <time>2021-03-13T14:42:49Z</time>
      </trkpt>
      <trkpt lat="42.9813" lon="0.79069">
        <ele>500</ele>
        <time>2021-03-13T14:42:50Z</time>
      </trkpt>
      <trkpt lat="42.98128" lon="0.7907">
        <ele>501</ele>
        <time>2021-03-13T14:42:51Z</time>
      </trkpt>
      <trkpt lat="42.98126" lon="0.7907">
        <ele>501</ele>
        <time>2021-03-13T14:42:52Z</time>
      </trkpt>
      <trkpt lat="42.98124" lon="0.79071">
        <ele>501</ele>
        <time>2021-03-13T14:42:53Z</time>
      </trkpt>
      <trkpt lat="42.98122" lon="0.79072">
        <ele>501</ele>
        <time>2021-03-13T14:42:54Z</time>
      </trkpt>
      <trkpt lat="42.98119" lon="0.79072">
        <ele>502</ele>
        <time>2021-03-13T14:42:55Z</time>
      </trkpt>
      <trkpt lat="42.98117" lon="0.79073">
        <ele>502</ele>
        <time>2021-03-13T14:42:56Z</time>
      </trkpt>
      <trkpt lat="42.98115" lon="0.79074">
        <ele>503</ele>
        <time>2021-03-13T14:42:57Z</time>
      </trkpt>
      <trkpt lat="42.98113" lon="0.79074">
        <ele>503</ele>
        <time>2021-03-13T14:42:58Z</time>
      </trkpt>
      <trkpt lat="42.98112" lon="0.79074">
        <ele>505</ele>
        <time>2021-03-13T14:42:59Z</time>
      </trkpt>
      <trkpt lat="42.9811" lon="0.79074">
        <ele>505</ele>
        <time>2021-03-13T14:43:00Z</time>
      </trkpt>
      <trkpt lat="42.98108" lon="0.79075">
        <ele>505</ele>
        <time>2021-03-13T14:43:01Z</time>
      </trkpt>
      <trkpt lat="42.98106" lon="0.79075">
        <ele>505</ele>
        <time>2021-03-13T14:43:02Z</time>
      </trkpt>
      <trkpt lat="42.98105" lon="0.79075">
        <ele>505</ele>
        <time>2021-03-13T14:43:03Z</time>
      </trkpt>
      <trkpt lat="42.98103" lon="0.79073">
        <ele>507</ele>
        <time>2021-03-13T14:43:04Z</time>
      </trkpt>
      <trkpt lat="42.98102" lon="0.79072">
        <ele>507</ele>
        <time>2021-03-13T14:43:05Z</time>
      </trkpt>
      <trkpt lat="42.98101" lon="0.7907">
        <ele>507</ele>
        <time>2021-03-13T14:43:06Z</time>
      </trkpt>
      <trkpt lat="42.98099" lon="0.79068">
        <ele>507</ele>
        <time>2021-03-13T14:43:07Z</time>
      </trkpt>
      <trkpt lat="42.98098" lon="0.79067">
        <ele>507</ele>
        <time>2021-03-13T14:43:08Z</time>
      </trkpt>
      <trkpt lat="42.98097" lon="0.79065">
        <ele>507</ele>
        <time>2021-03-13T14:43:09Z</time>
      </trkpt>
      <trkpt lat="42.98096" lon="0.79062">
        <ele>508</ele>
        <time>2021-03-13T14:43:10Z</time>
      </trkpt>
      <trkpt lat="42.98095" lon="0.7906">
        <ele>508</ele>
        <time>2021-03-13T14:43:11Z</time>
      </trkpt>
      <trkpt lat="42.98094" lon="0.79057">
        <ele>508</ele>
        <time>2021-03-13T14:43:12Z</time>
      </trkpt>
      <trkpt lat="42.98093" lon="0.79055">
        <ele>508</ele>
        <time>2021-03-13T14:43:13Z</time>
      </trkpt>
      <trkpt lat="42.98092" lon="0.79052">
        <ele>508</ele>
        <time>2021-03-13T14:43:14Z</time>
      </trkpt>
      <trkpt lat="42.98091" lon="0.79049">
        <ele>509</ele>
        <time>2021-03-13T14:43:15Z</time>
      </trkpt>
      <trkpt lat="42.98091" lon="0.79046">
        <ele>509</ele>
        <time>2021-03-13T14:43:16Z</time>
      </trkpt>
      <trkpt lat="42.9809" lon="0.79044">
        <ele>509</ele>
        <time>2021-03-13T14:43:17Z</time>
      </trkpt>
      <trkpt lat="42.9809" lon="0.79041">
        <ele>509</ele>
        <time>2021-03-13T14:43:18Z</time>
      </trkpt>
      <trkpt lat="42.98089" lon="0.79038">
        <ele>509</ele>
        <time>2021-03-13T14:43:19Z</time>
      </trkpt>
      <trkpt lat="42.98088" lon="0.79035">
        <ele>511</ele>
        <time>2021-03-13T14:43:20Z</time>
      </trkpt>
      <trkpt lat="42.98087" lon="0.79033">
        <ele>511</ele>
        <time>2021-03-13T14:43:21Z</time>
      </trkpt>
      <trkpt lat="42.98086" lon="0.7903">
        <ele>511</ele>
        <time>2021-03-13T14:43:22Z</time>
      </trkpt>
      <trkpt lat="42.98085" lon="0.79027">
        <ele>511</ele>
        <time>2021-03-13T14:43:23Z</time>
      </trkpt>
      <trkpt lat="42.98084" lon="0.79025">
        <ele>511</ele>
        <time>2021-03-13T14:43:24Z</time>
      </trkpt>
      <trkpt lat="42.98083" lon="0.79022">
        <ele>513</ele>
        <time>2021-03-13T14:43:25Z</time>
      </trkpt>
      <trkpt lat="42.98083" lon="0.79019">
        <ele>513</ele>
        <time>2021-03-13T14:43:26Z</time>
      </trkpt>
      <trkpt lat="42.98082" lon="0.79017">
        <ele>513</ele>
        <time>2021-03-13T14:43:27Z</time>
      </trkpt>
      <trkpt lat="42.98081" lon="0.79014">
        <ele>513</ele>
        <time>2021-03-13T14:43:28Z</time>
      </trkpt>
      <trkpt lat="42.9808" lon="0.7901">
        <ele>513</ele>
        <time>2021-03-13T14:43:29Z</time>
      </trkpt>
      <trkpt lat="42.98079" lon="0.79007">
        <ele>514</ele>
        <time>2021-03-13T14:43:30Z</time>
      </trkpt>
      <trkpt lat="42.98075" lon="0.78999">
        <ele>514</ele>
        <time>2021-03-13T14:43:31Z</time>
      </trkpt>
      <trkpt lat="42.98075" lon="0.78999">
        <ele>514</ele>
        <time>2021-03-13T14:43:32Z</time>
      </trkpt>
      <trkpt lat="42.98071" lon="0.7899">
        <ele>514</ele>
        <time>2021-03-13T14:43:33Z</time>
      </trkpt>
      <trkpt lat="42.98071" lon="0.7899">
        <ele>514</ele>
        <time>2021-03-13T14:43:34Z</time>
      </trkpt>
      <trkpt lat="42.98068" lon="0.78982">
        <ele>514</ele>
        <time>2021-03-13T14:43:35Z</time>
      </trkpt>
      <trkpt lat="42.98068" lon="0.78982">
        <ele>514</ele>
        <time>2021-03-13T14:43:36Z</time>
      </trkpt>
      <trkpt lat="42.98068" lon="0.78978">
        <ele>514</ele>
        <time>2021-03-13T14:43:37Z</time>
      </trkpt>
      <trkpt lat="42.98067" lon="0.78974">
        <ele>514</ele>
        <time>2021-03-13T14:43:38Z</time>
      </trkpt>
      <trkpt lat="42.98066" lon="0.78971">
        <ele>514</ele>
        <time>2021-03-13T14:43:39Z</time>
      </trkpt>
      <trkpt lat="42.98066" lon="0.78967">
        <ele>514</ele>
        <time>2021-03-13T14:43:40Z</time>
      </trkpt>
      <trkpt lat="42.98065" lon="0.78963">
        <ele>514</ele>
        <time>2021-03-13T14:43:41Z</time>
      </trkpt>
      <trkpt lat="42.98065" lon="0.78959">
        <ele>514</ele>
        <time>2021-03-13T14:43:42Z</time>
      </trkpt>
      <trkpt lat="42.98064" lon="0.78956">
        <ele>514</ele>
        <time>2021-03-13T14:43:43Z</time>
      </trkpt>
      <trkpt lat="42.98064" lon="0.78952">
        <ele>514</ele>
        <time>2021-03-13T14:43:44Z</time>
      </trkpt>
      <trkpt lat="42.98063" lon="0.78949">
        <ele>514</ele>
        <time>2021-03-13T14:43:45Z</time>
      </trkpt>
      <trkpt lat="42.98063" lon="0.78945">
        <ele>514</ele>
        <time>2021-03-13T14:43:46Z</time>
      </trkpt>
      <trkpt lat="42.98062" lon="0.78941">
        <ele>514</ele>
        <time>2021-03-13T14:43:47Z</time>
      </trkpt>
      <trkpt lat="42.98062" lon="0.78938">
        <ele>514</ele>
        <time>2021-03-13T14:43:48Z</time>
      </trkpt>
      <trkpt lat="42.98062" lon="0.78934">
        <ele>514</ele>
        <time>2021-03-13T14:43:49Z</time>
      </trkpt>
      <trkpt lat="42.98061" lon="0.7893">
        <ele>515</ele>
        <time>2021-03-13T14:43:50Z</time>
      </trkpt>
      <trkpt lat="42.98059" lon="0.78927">
        <ele>515</ele>
        <time>2021-03-13T14:43:51Z</time>
      </trkpt>
      <trkpt lat="42.98058" lon="0.78923">
        <ele>515</ele>
        <time>2021-03-13T14:43:52Z</time>
      </trkpt>
      <trkpt lat="42.98057" lon="0.7892">
        <ele>515</ele>
        <time>2021-03-13T14:43:53Z</time>
      </trkpt>
      <trkpt lat="42.98056" lon="0.78916">
        <ele>515</ele>
        <time>2021-03-13T14:43:54Z</time>
      </trkpt>
      <trkpt lat="42.98055" lon="0.78913">
        <ele>515</ele>
        <time>2021-03-13T14:43:55Z</time>
      </trkpt>
      <trkpt lat="42.98054" lon="0.7891">
        <ele>515</ele>
        <time>2021-03-13T14:43:56Z</time>
      </trkpt>
      <trkpt lat="42.98053" lon="0.78906">
        <ele>515</ele>
        <time>2021-03-13T14:43:57Z</time>
      </trkpt>
      <trkpt lat="42.98051" lon="0.78903">
        <ele>515</ele>
        <time>2021-03-13T14:43:58Z</time>
      </trkpt>
      <trkpt lat="42.9805" lon="0.789">
        <ele>515</ele>
        <time>2021-03-13T14:43:59Z</time>
      </trkpt>
      <trkpt lat="42.98049" lon="0.78897">
        <ele>517</ele>
        <time>2021-03-13T14:44:00Z</time>
      </trkpt>
      <trkpt lat="42.98048" lon="0.78894">
        <ele>517</ele>
        <time>2021-03-13T14:44:01Z</time>
      </trkpt>
      <trkpt lat="42.98046" lon="0.78891">
        <ele>517</ele>
        <time>2021-03-13T14:44:02Z</time>
      </trkpt>
      <trkpt lat="42.98046" lon="0.78889">
        <ele>517</ele>
        <time>2021-03-13T14:44:03Z</time>
      </trkpt>
      <trkpt lat="42.98045" lon="0.78888">
        <ele>517</ele>
        <time>2021-03-13T14:44:04Z</time>
      </trkpt>
      <trkpt lat="42.98044" lon="0.78886">
        <ele>517</ele>
        <time>2021-03-13T14:44:05Z</time>
      </trkpt>
      <trkpt lat="42.98044" lon="0.78885">
        <ele>517</ele>
        <time>2021-03-13T14:44:06Z</time>
      </trkpt>
      <trkpt lat="42.98041" lon="0.78875">
        <ele>517</ele>
        <time>2021-03-13T14:44:07Z</time>
      </trkpt>
      <trkpt lat="42.9804" lon="0.78871">
        <ele>517</ele>
        <time>2021-03-13T14:44:08Z</time>
      </trkpt>
      <trkpt lat="42.9804" lon="0.78868">
        <ele>517</ele>
        <time>2021-03-13T14:44:09Z</time>
      </trkpt>
      <trkpt lat="42.9804" lon="0.78865">
        <ele>520</ele>
        <time>2021-03-13T14:44:10Z</time>
      </trkpt>
      <trkpt lat="42.9804" lon="0.78862">
        <ele>520</ele>
        <time>2021-03-13T14:44:11Z</time>
      </trkpt>
      <trkpt lat="42.98039" lon="0.78859">
        <ele>520</ele>
        <time>2021-03-13T14:44:12Z</time>
      </trkpt>
      <trkpt lat="42.9804" lon="0.78857">
        <ele>520</ele>
        <time>2021-03-13T14:44:13Z</time>
      </trkpt>
      <trkpt lat="42.98041" lon="0.78855">
        <ele>520</ele>
        <time>2021-03-13T14:44:14Z</time>
      </trkpt>
      <trkpt lat="42.98042" lon="0.78852">
        <ele>522</ele>
        <time>2021-03-13T14:44:15Z</time>
      </trkpt>
      <trkpt lat="42.98042" lon="0.7885">
        <ele>522</ele>
        <time>2021-03-13T14:44:16Z</time>
      </trkpt>
      <trkpt lat="42.98043" lon="0.78848">
        <ele>522</ele>
        <time>2021-03-13T14:44:17Z</time>
      </trkpt>
      <trkpt lat="42.98044" lon="0.78847">
        <ele>522</ele>
        <time>2021-03-13T14:44:18Z</time>
      </trkpt>
      <trkpt lat="42.98046" lon="0.78847">
        <ele>522</ele>
        <time>2021-03-13T14:44:19Z</time>
      </trkpt>
      <trkpt lat="42.98047" lon="0.78846">
        <ele>522</ele>
        <time>2021-03-13T14:44:20Z</time>
      </trkpt>
      <trkpt lat="42.98049" lon="0.78846">
        <ele>522</ele>
        <time>2021-03-13T14:44:21Z</time>
      </trkpt>
      <trkpt lat="42.98057" lon="0.78843">
        <ele>522</ele>
        <time>2021-03-13T14:44:22Z</time>
      </trkpt>
      <trkpt lat="42.9806" lon="0.78841">
        <ele>522</ele>
        <time>2021-03-13T14:44:23Z</time>
      </trkpt>
      <trkpt lat="42.98063" lon="0.7884">
        <ele>522</ele>
        <time>2021-03-13T14:44:24Z</time>
      </trkpt>
      <trkpt lat="42.98064" lon="0.7884">
        <ele>522</ele>
        <time>2021-03-13T14:44:25Z</time>
      </trkpt>
      <trkpt lat="42.98066" lon="0.78839">
        <ele>522</ele>
        <time>2021-03-13T14:44:26Z</time>
      </trkpt>
      <trkpt lat="42.98067" lon="0.78839">
        <ele>522</ele>
        <time>2021-03-13T14:44:27Z</time>
      </trkpt>
      <trkpt lat="42.98068" lon="0.78838">
        <ele>522</ele>
        <time>2021-03-13T14:44:28Z</time>
      </trkpt>
      <trkpt lat="42.98076" lon="0.78835">
        <ele>522</ele>
        <time>2021-03-13T14:44:29Z</time>
      </trkpt>
      <trkpt lat="42.98077" lon="0.78835">
        <ele>525</ele>
        <time>2021-03-13T14:44:30Z</time>
      </trkpt>
      <trkpt lat="42.98079" lon="0.78834">
        <ele>525</ele>
        <time>2021-03-13T14:44:31Z</time>
      </trkpt>
      <trkpt lat="42.98086" lon="0.78832">
        <ele>525</ele>
        <time>2021-03-13T14:44:32Z</time>
      </trkpt>
      <trkpt lat="42.98088" lon="0.78832">
        <ele>525</ele>
        <time>2021-03-13T14:44:33Z</time>
      </trkpt>
      <trkpt lat="42.9809" lon="0.78832">
        <ele>525</ele>
        <time>2021-03-13T14:44:34Z</time>
      </trkpt>
      <trkpt lat="42.98097" lon="0.78829">
        <ele>526</ele>
        <time>2021-03-13T14:44:35Z</time>
      </trkpt>
      <trkpt lat="42.98098" lon="0.78829">
        <ele>526</ele>
        <time>2021-03-13T14:44:36Z</time>
      </trkpt>
      <trkpt lat="42.981" lon="0.78828">
        <ele>526</ele>
        <time>2021-03-13T14:44:37Z</time>
      </trkpt>
      <trkpt lat="42.98101" lon="0.78828">
        <ele>526</ele>
        <time>2021-03-13T14:44:38Z</time>
      </trkpt>
      <trkpt lat="42.98109" lon="0.78825">
        <ele>526</ele>
        <time>2021-03-13T14:44:39Z</time>
      </trkpt>
      <trkpt lat="42.98111" lon="0.78825">
        <ele>528</ele>
        <time>2021-03-13T14:44:40Z</time>
      </trkpt>
      <trkpt lat="42.98112" lon="0.78824">
        <ele>528</ele>
        <time>2021-03-13T14:44:41Z</time>
      </trkpt>
      <trkpt lat="42.98114" lon="0.78824">
        <ele>528</ele>
        <time>2021-03-13T14:44:42Z</time>
      </trkpt>
      <trkpt lat="42.98122" lon="0.78823">
        <ele>528</ele>
        <time>2021-03-13T14:44:43Z</time>
      </trkpt>
      <trkpt lat="42.98124" lon="0.78823">
        <ele>528</ele>
        <time>2021-03-13T14:44:44Z</time>
      </trkpt>
      <trkpt lat="42.98125" lon="0.78823">
        <ele>528</ele>
        <time>2021-03-13T14:44:45Z</time>
      </trkpt>
      <trkpt lat="42.98134" lon="0.78823">
        <ele>528</ele>
        <time>2021-03-13T14:44:46Z</time>
      </trkpt>
      <trkpt lat="42.98137" lon="0.78824">
        <ele>528</ele>
        <time>2021-03-13T14:44:47Z</time>
      </trkpt>
      <trkpt lat="42.98141" lon="0.78824">
        <ele>528</ele>
        <time>2021-03-13T14:44:48Z</time>
      </trkpt>
      <trkpt lat="42.98143" lon="0.78824">
        <ele>528</ele>
        <time>2021-03-13T14:44:49Z</time>
      </trkpt>
      <trkpt lat="42.98144" lon="0.78824">
        <ele>528</ele>
        <time>2021-03-13T14:44:50Z</time>
      </trkpt>
      <trkpt lat="42.98146" lon="0.78825">
        <ele>528</ele>
        <time>2021-03-13T14:44:51Z</time>
      </trkpt>
      <trkpt lat="42.98154" lon="0.78825">
        <ele>528</ele>
        <time>2021-03-13T14:44:52Z</time>
      </trkpt>
      <trkpt lat="42.98158" lon="0.78824">
        <ele>528</ele>
        <time>2021-03-13T14:44:53Z</time>
      </trkpt>
      <trkpt lat="42.98161" lon="0.78824">
        <ele>528</ele>
        <time>2021-03-13T14:44:54Z</time>
      </trkpt>
      <trkpt lat="42.98164" lon="0.78822">
        <ele>528</ele>
        <time>2021-03-13T14:44:55Z</time>
      </trkpt>
      <trkpt lat="42.98167" lon="0.7882">
        <ele>528</ele>
        <time>2021-03-13T14:44:56Z</time>
      </trkpt>
      <trkpt lat="42.9817" lon="0.78819">
        <ele>528</ele>
        <time>2021-03-13T14:44:57Z</time>
      </trkpt>
      <trkpt lat="42.98173" lon="0.78816">
        <ele>528</ele>
        <time>2021-03-13T14:44:58Z</time>
      </trkpt>
      <trkpt lat="42.98176" lon="0.78813">
        <ele>528</ele>
        <time>2021-03-13T14:44:59Z</time>
      </trkpt>
      <trkpt lat="42.98178" lon="0.7881">
        <ele>531</ele>
        <time>2021-03-13T14:45:00Z</time>
      </trkpt>
      <trkpt lat="42.9818" lon="0.78809">
        <ele>531</ele>
        <time>2021-03-13T14:45:01Z</time>
      </trkpt>
      <trkpt lat="42.98181" lon="0.78807">
        <ele>531</ele>
        <time>2021-03-13T14:45:02Z</time>
      </trkpt>
      <trkpt lat="42.98183" lon="0.78806">
        <ele>531</ele>
        <time>2021-03-13T14:45:03Z</time>
      </trkpt>
      <trkpt lat="42.98189" lon="0.78802">
        <ele>531</ele>
        <time>2021-03-13T14:45:04Z</time>
      </trkpt>
      <trkpt lat="42.98191" lon="0.78801">
        <ele>531</ele>
        <time>2021-03-13T14:45:05Z</time>
      </trkpt>
      <trkpt lat="42.98193" lon="0.788">
        <ele>531</ele>
        <time>2021-03-13T14:45:06Z</time>
      </trkpt>
      <trkpt lat="42.98203" lon="0.78798">
        <ele>531</ele>
        <time>2021-03-13T14:45:07Z</time>
      </trkpt>
      <trkpt lat="42.98207" lon="0.78799">
        <ele>531</ele>
        <time>2021-03-13T14:45:08Z</time>
      </trkpt>
      <trkpt lat="42.98211" lon="0.788">
        <ele>531</ele>
        <time>2021-03-13T14:45:09Z</time>
      </trkpt>
      <trkpt lat="42.98216" lon="0.78802">
        <ele>529</ele>
        <time>2021-03-13T14:45:10Z</time>
      </trkpt>
      <trkpt lat="42.9822" lon="0.78804">
        <ele>529</ele>
        <time>2021-03-13T14:45:11Z</time>
      </trkpt>
      <trkpt lat="42.98225" lon="0.78806">
        <ele>529</ele>
        <time>2021-03-13T14:45:12Z</time>
      </trkpt>
      <trkpt lat="42.9823" lon="0.78808">
        <ele>529</ele>
        <time>2021-03-13T14:45:13Z</time>
      </trkpt>
      <trkpt lat="42.98234" lon="0.78811">
        <ele>529</ele>
        <time>2021-03-13T14:45:14Z</time>
      </trkpt>
      <trkpt lat="42.98237" lon="0.78812">
        <ele>529</ele>
        <time>2021-03-13T14:45:15Z</time>
      </trkpt>
      <trkpt lat="42.9824" lon="0.78814">
        <ele>529</ele>
        <time>2021-03-13T14:45:16Z</time>
      </trkpt>
      <trkpt lat="42.98247" lon="0.78818">
        <ele>529</ele>
        <time>2021-03-13T14:45:17Z</time>
      </trkpt>
      <trkpt lat="42.9825" lon="0.78819">
        <ele>529</ele>
        <time>2021-03-13T14:45:18Z</time>
      </trkpt>
      <trkpt lat="42.98259" lon="0.78823">
        <ele>529</ele>
        <time>2021-03-13T14:45:19Z</time>
      </trkpt>
      <trkpt lat="42.98261" lon="0.78825">
        <ele>526</ele>
        <time>2021-03-13T14:45:20Z</time>
      </trkpt>
      <trkpt lat="42.98271" lon="0.78829">
        <ele>526</ele>
        <time>2021-03-13T14:45:21Z</time>
      </trkpt>
      <trkpt lat="42.98275" lon="0.78831">
        <ele>526</ele>
        <time>2021-03-13T14:45:22Z</time>
      </trkpt>
      <trkpt lat="42.98283" lon="0.78834">
        <ele>526</ele>
        <time>2021-03-13T14:45:23Z</time>
      </trkpt>
      <trkpt lat="42.98288" lon="0.78835">
        <ele>526</ele>
        <time>2021-03-13T14:45:24Z</time>
      </trkpt>
      <trkpt lat="42.98293" lon="0.78836">
        <ele>525</ele>
        <time>2021-03-13T14:45:25Z</time>
      </trkpt>
      <trkpt lat="42.98298" lon="0.78836">
        <ele>525</ele>
        <time>2021-03-13T14:45:26Z</time>
      </trkpt>
      <trkpt lat="42.98302" lon="0.78835">
        <ele>525</ele>
        <time>2021-03-13T14:45:27Z</time>
      </trkpt>
      <trkpt lat="42.98307" lon="0.78835">
        <ele>525</ele>
        <time>2021-03-13T14:45:28Z</time>
      </trkpt>
      <trkpt lat="42.9831" lon="0.78833">
        <ele>525</ele>
        <time>2021-03-13T14:45:29Z</time>
      </trkpt>
      <trkpt lat="42.98314" lon="0.78832">
        <ele>524</ele>
        <time>2021-03-13T14:45:30Z</time>
      </trkpt>
      <trkpt lat="42.98315" lon="0.78831">
        <ele>524</ele>
        <time>2021-03-13T14:45:31Z</time>
      </trkpt>
      <trkpt lat="42.98317" lon="0.78829">
        <ele>524</ele>
        <time>2021-03-13T14:45:32Z</time>
      </trkpt>
      <trkpt lat="42.98318" lon="0.78827">
        <ele>524</ele>
        <time>2021-03-13T14:45:33Z</time>
      </trkpt>
      <trkpt lat="42.9832" lon="0.78825">
        <ele>524</ele>
        <time>2021-03-13T14:45:34Z</time>
      </trkpt>
      <trkpt lat="42.98317" lon="0.78825">
        <ele>524</ele>
        <time>2021-03-13T14:45:35Z</time>
      </trkpt>
      <trkpt lat="42.98314" lon="0.78825">
        <ele>524</ele>
        <time>2021-03-13T14:45:36Z</time>
      </trkpt>
      <trkpt lat="42.98311" lon="0.78825">
        <ele>524</ele>
        <time>2021-03-13T14:45:37Z</time>
      </trkpt>
      <trkpt lat="42.98307" lon="0.78827">
        <ele>524</ele>
        <time>2021-03-13T14:45:38Z</time>
      </trkpt>
      <trkpt lat="42.98304" lon="0.78829">
        <ele>524</ele>
        <time>2021-03-13T14:45:39Z</time>
      </trkpt>
      <trkpt lat="42.983" lon="0.7883">
        <ele>524</ele>
        <time>2021-03-13T14:45:40Z</time>
      </trkpt>
      <trkpt lat="42.98297" lon="0.78831">
        <ele>524</ele>
        <time>2021-03-13T14:45:41Z</time>
      </trkpt>
      <trkpt lat="42.98293" lon="0.7883">
        <ele>524</ele>
        <time>2021-03-13T14:45:42Z</time>
      </trkpt>
      <trkpt lat="42.9829" lon="0.78829">
        <ele>524</ele>
        <time>2021-03-13T14:45:43Z</time>
      </trkpt>
      <trkpt lat="42.9829" lon="0.78828">
        <ele>524</ele>
        <time>2021-03-13T14:45:44Z</time>
      </trkpt>
      <trkpt lat="42.98289" lon="0.78826">
        <ele>524</ele>
        <time>2021-03-13T14:45:45Z</time>
      </trkpt>
      <trkpt lat="42.98289" lon="0.78824">
        <ele>524</ele>
        <time>2021-03-13T14:45:46Z</time>
      </trkpt>
      <trkpt lat="42.98289" lon="0.78822">
        <ele>524</ele>
        <time>2021-03-13T14:45:47Z</time>
      </trkpt>
      <trkpt lat="42.98289" lon="0.78812">
        <ele>524</ele>
        <time>2021-03-13T14:45:48Z</time>
      </trkpt>
      <trkpt lat="42.98291" lon="0.7881">
        <ele>524</ele>
        <time>2021-03-13T14:45:49Z</time>
      </trkpt>
      <trkpt lat="42.98292" lon="0.78807">
        <ele>526</ele>
        <time>2021-03-13T14:45:50Z</time>
      </trkpt>
      <trkpt lat="42.98293" lon="0.78806">
        <ele>526</ele>
        <time>2021-03-13T14:45:51Z</time>
      </trkpt>
      <trkpt lat="42.98294" lon="0.78804">
        <ele>526</ele>
        <time>2021-03-13T14:45:52Z</time>
      </trkpt>
      <trkpt lat="42.98295" lon="0.78803">
        <ele>526</ele>
        <time>2021-03-13T14:45:53Z</time>
      </trkpt>
      <trkpt lat="42.98295" lon="0.78801">
        <ele>526</ele>
        <time>2021-03-13T14:45:54Z</time>
      </trkpt>
      <trkpt lat="42.983" lon="0.78793">
        <ele>526</ele>
        <time>2021-03-13T14:45:55Z</time>
      </trkpt>
      <trkpt lat="42.98301" lon="0.7879">
        <ele>526</ele>
        <time>2021-03-13T14:45:56Z</time>
      </trkpt>
      <trkpt lat="42.98302" lon="0.78786">
        <ele>526</ele>
        <time>2021-03-13T14:45:57Z</time>
      </trkpt>
      <trkpt lat="42.98303" lon="0.78783">
        <ele>526</ele>
        <time>2021-03-13T14:45:58Z</time>
      </trkpt>
      <trkpt lat="42.98303" lon="0.7878">
        <ele>526</ele>
        <time>2021-03-13T14:45:59Z</time>
      </trkpt>
      <trkpt lat="42.98303" lon="0.78776">
        <ele>531</ele>
        <time>2021-03-13T14:46:00Z</time>
      </trkpt>
      <trkpt lat="42.98303" lon="0.78772">
        <ele>531</ele>
        <time>2021-03-13T14:46:01Z</time>
      </trkpt>
      <trkpt lat="42.98303" lon="0.78769">
        <ele>531</ele>
        <time>2021-03-13T14:46:02Z</time>
      </trkpt>
      <trkpt lat="42.98303" lon="0.78765">
        <ele>531</ele>
        <time>2021-03-13T14:46:03Z</time>
      </trkpt>
      <trkpt lat="42.98303" lon="0.78762">
        <ele>531</ele>
        <time>2021-03-13T14:46:04Z</time>
      </trkpt>
      <trkpt lat="42.98303" lon="0.78758">
        <ele>531</ele>
        <time>2021-03-13T14:46:05Z</time>
      </trkpt>
      <trkpt lat="42.98303" lon="0.78754">
        <ele>532</ele>
        <time>2021-03-13T14:46:06Z</time>
      </trkpt>
      <trkpt lat="42.98303" lon="0.7875">
        <ele>532</ele>
        <time>2021-03-13T14:46:07Z</time>
      </trkpt>
      <trkpt lat="42.98303" lon="0.78746">
        <ele>532</ele>
        <time>2021-03-13T14:46:08Z</time>
      </trkpt>
      <trkpt lat="42.98303" lon="0.78743">
        <ele>532</ele>
        <time>2021-03-13T14:46:09Z</time>
      </trkpt>
      <trkpt lat="42.98302" lon="0.78739">
        <ele>532</ele>
        <time>2021-03-13T14:46:10Z</time>
      </trkpt>
      <trkpt lat="42.98303" lon="0.78735">
        <ele>532</ele>
        <time>2021-03-13T14:46:11Z</time>
      </trkpt>
      <trkpt lat="42.98303" lon="0.78731">
        <ele>532</ele>
        <time>2021-03-13T14:46:12Z</time>
      </trkpt>
      <trkpt lat="42.98303" lon="0.78728">
        <ele>532</ele>
        <time>2021-03-13T14:46:13Z</time>
      </trkpt>
      <trkpt lat="42.98303" lon="0.78724">
        <ele>532</ele>
        <time>2021-03-13T14:46:14Z</time>
      </trkpt>
      <trkpt lat="42.98303" lon="0.7872">
        <ele>532</ele>
        <time>2021-03-13T14:46:15Z</time>
      </trkpt>
      <trkpt lat="42.98304" lon="0.78716">
        <ele>532</ele>
        <time>2021-03-13T14:46:16Z</time>
      </trkpt>
      <trkpt lat="42.98304" lon="0.78712">
        <ele>532</ele>
        <time>2021-03-13T14:46:17Z</time>
      </trkpt>
      <trkpt lat="42.98304" lon="0.78708">
        <ele>532</ele>
        <time>2021-03-13T14:46:18Z</time>
      </trkpt>
      <trkpt lat="42.98304" lon="0.78704">
        <ele>532</ele>
        <time>2021-03-13T14:46:19Z</time>
      </trkpt>
      <trkpt lat="42.98304" lon="0.787">
        <ele>534</ele>
        <time>2021-03-13T14:46:20Z</time>
      </trkpt>
      <trkpt lat="42.98304" lon="0.78696">
        <ele>534</ele>
        <time>2021-03-13T14:46:21Z</time>
      </trkpt>
      <trkpt lat="42.98304" lon="0.78692">
        <ele>534</ele>
        <time>2021-03-13T14:46:22Z</time>
      </trkpt>
      <trkpt lat="42.98305" lon="0.78688">
        <ele>534</ele>
        <time>2021-03-13T14:46:23Z</time>
      </trkpt>
      <trkpt lat="42.98305" lon="0.78684">
        <ele>534</ele>
        <time>2021-03-13T14:46:24Z</time>
      </trkpt>
      <trkpt lat="42.98305" lon="0.7868">
        <ele>534</ele>
        <time>2021-03-13T14:46:25Z</time>
      </trkpt>
      <trkpt lat="42.98306" lon="0.78672">
        <ele>534</ele>
        <time>2021-03-13T14:46:26Z</time>
      </trkpt>
      <trkpt lat="42.98306" lon="0.78672">
        <ele>534</ele>
        <time>2021-03-13T14:46:27Z</time>
      </trkpt>
      <trkpt lat="42.98308" lon="0.78664">
        <ele>534</ele>
        <time>2021-03-13T14:46:28Z</time>
      </trkpt>
      <trkpt lat="42.98308" lon="0.78664">
        <ele>534</ele>
        <time>2021-03-13T14:46:29Z</time>
      </trkpt>
      <trkpt lat="42.98308" lon="0.78655">
        <ele>537</ele>
        <time>2021-03-13T14:46:30Z</time>
      </trkpt>
      <trkpt lat="42.98308" lon="0.78655">
        <ele>537</ele>
        <time>2021-03-13T14:46:31Z</time>
      </trkpt>
      <trkpt lat="42.98309" lon="0.78647">
        <ele>537</ele>
        <time>2021-03-13T14:46:32Z</time>
      </trkpt>
      <trkpt lat="42.98309" lon="0.78647">
        <ele>537</ele>
        <time>2021-03-13T14:46:33Z</time>
      </trkpt>
      <trkpt lat="42.98309" lon="0.78639">
        <ele>537</ele>
        <time>2021-03-13T14:46:34Z</time>
      </trkpt>
      <trkpt lat="42.98309" lon="0.78639">
        <ele>537</ele>
        <time>2021-03-13T14:46:35Z</time>
      </trkpt>
      <trkpt lat="42.9831" lon="0.78631">
        <ele>537</ele>
        <time>2021-03-13T14:46:36Z</time>
      </trkpt>
      <trkpt lat="42.9831" lon="0.78631">
        <ele>537</ele>
        <time>2021-03-13T14:46:37Z</time>
      </trkpt>
      <trkpt lat="42.9831" lon="0.78622">
        <ele>537</ele>
        <time>2021-03-13T14:46:38Z</time>
      </trkpt>
      <trkpt lat="42.9831" lon="0.78622">
        <ele>537</ele>
        <time>2021-03-13T14:46:39Z</time>
      </trkpt>
      <trkpt lat="42.9831" lon="0.78618">
        <ele>538</ele>
        <time>2021-03-13T14:46:40Z</time>
      </trkpt>
      <trkpt lat="42.9831" lon="0.78614">
        <ele>538</ele>
        <time>2021-03-13T14:46:41Z</time>
      </trkpt>
      <trkpt lat="42.98311" lon="0.7861">
        <ele>538</ele>
        <time>2021-03-13T14:46:42Z</time>
      </trkpt>
      <trkpt lat="42.98311" lon="0.78606">
        <ele>538</ele>
        <time>2021-03-13T14:46:43Z</time>
      </trkpt>
      <trkpt lat="42.98311" lon="0.78602">
        <ele>538</ele>
        <time>2021-03-13T14:46:44Z</time>
      </trkpt>
      <trkpt lat="42.98312" lon="0.78599">
        <ele>538</ele>
        <time>2021-03-13T14:46:45Z</time>
      </trkpt>
      <trkpt lat="42.98312" lon="0.78595">
        <ele>538</ele>
        <time>2021-03-13T14:46:46Z</time>
      </trkpt>
      <trkpt lat="42.98312" lon="0.78592">
        <ele>538</ele>
        <time>2021-03-13T14:46:47Z</time>
      </trkpt>
      <trkpt lat="42.98313" lon="0.78588">
        <ele>538</ele>
        <time>2021-03-13T14:46:48Z</time>
      </trkpt>
      <trkpt lat="42.98313" lon="0.78584">
        <ele>538</ele>
        <time>2021-03-13T14:46:49Z</time>
      </trkpt>
      <trkpt lat="42.98314" lon="0.7858">
        <ele>540</ele>
        <time>2021-03-13T14:46:50Z</time>
      </trkpt>
      <trkpt lat="42.98316" lon="0.78576">
        <ele>540</ele>
        <time>2021-03-13T14:46:51Z</time>
      </trkpt>
      <trkpt lat="42.98317" lon="0.78572">
        <ele>540</ele>
        <time>2021-03-13T14:46:52Z</time>
      </trkpt>
      <trkpt lat="42.98319" lon="0.78568">
        <ele>540</ele>
        <time>2021-03-13T14:46:53Z</time>
      </trkpt>
      <trkpt lat="42.98322" lon="0.78566">
        <ele>540</ele>
        <time>2021-03-13T14:46:54Z</time>
      </trkpt>
      <trkpt lat="42.98325" lon="0.78564">
        <ele>540</ele>
        <time>2021-03-13T14:46:55Z</time>
      </trkpt>
      <trkpt lat="42.98328" lon="0.78563">
        <ele>540</ele>
        <time>2021-03-13T14:46:56Z</time>
      </trkpt>
      <trkpt lat="42.98331" lon="0.78561">
        <ele>540</ele>
        <time>2021-03-13T14:46:57Z</time>
      </trkpt>
      <trkpt lat="42.98334" lon="0.78562">
        <ele>540</ele>
        <time>2021-03-13T14:46:58Z</time>
      </trkpt>
      <trkpt lat="42.98337" lon="0.78563">
        <ele>540</ele>
        <time>2021-03-13T14:46:59Z</time>
      </trkpt>
      <trkpt lat="42.98339" lon="0.78564">
        <ele>541</ele>
        <time>2021-03-13T14:47:00Z</time>
      </trkpt>
      <trkpt lat="42.98342" lon="0.78565">
        <ele>541</ele>
        <time>2021-03-13T14:47:01Z</time>
      </trkpt>
      <trkpt lat="42.98344" lon="0.78567">
        <ele>541</ele>
        <time>2021-03-13T14:47:02Z</time>
      </trkpt>
      <trkpt lat="42.98346" lon="0.78568">
        <ele>541</ele>
        <time>2021-03-13T14:47:03Z</time>
      </trkpt>
      <trkpt lat="42.98349" lon="0.78569">
        <ele>541</ele>
        <time>2021-03-13T14:47:04Z</time>
      </trkpt>
      <trkpt lat="42.98351" lon="0.78571">
        <ele>541</ele>
        <time>2021-03-13T14:47:05Z</time>
      </trkpt>
      <trkpt lat="42.98353" lon="0.78572">
        <ele>541</ele>
        <time>2021-03-13T14:47:06Z</time>
      </trkpt>
      <trkpt lat="42.98355" lon="0.78573">
        <ele>541</ele>
        <time>2021-03-13T14:47:07Z</time>
      </trkpt>
      <trkpt lat="42.98357" lon="0.78575">
        <ele>541</ele>
        <time>2021-03-13T14:47:08Z</time>
      </trkpt>
      <trkpt lat="42.98359" lon="0.78576">
        <ele>541</ele>
        <time>2021-03-13T14:47:09Z</time>
      </trkpt>
      <trkpt lat="42.98361" lon="0.78578">
        <ele>544</ele>
        <time>2021-03-13T14:47:10Z</time>
      </trkpt>
      <trkpt lat="42.98363" lon="0.78579">
        <ele>544</ele>
        <time>2021-03-13T14:47:11Z</time>
      </trkpt>
      <trkpt lat="42.98364" lon="0.7858">
        <ele>544</ele>
        <time>2021-03-13T14:47:12Z</time>
      </trkpt>
      <trkpt lat="42.98366" lon="0.78582">
        <ele>544</ele>
        <time>2021-03-13T14:47:13Z</time>
      </trkpt>
      <trkpt lat="42.98368" lon="0.78583">
        <ele>544</ele>
        <time>2021-03-13T14:47:14Z</time>
      </trkpt>
      <trkpt lat="42.9837" lon="0.78584">
        <ele>546</ele>
        <time>2021-03-13T14:47:15Z</time>
      </trkpt>
      <trkpt lat="42.98372" lon="0.78585">
        <ele>546</ele>
        <time>2021-03-13T14:47:16Z</time>
      </trkpt>
      <trkpt lat="42.98374" lon="0.78586">
        <ele>546</ele>
        <time>2021-03-13T14:47:17Z</time>
      </trkpt>
      <trkpt lat="42.98376" lon="0.78586">
        <ele>546</ele>
        <time>2021-03-13T14:47:18Z</time>
      </trkpt>
      <trkpt lat="42.98378" lon="0.78586">
        <ele>546</ele>
        <time>2021-03-13T14:47:19Z</time>
      </trkpt>
      <trkpt lat="42.9838" lon="0.78587">
        <ele>548</ele>
        <time>2021-03-13T14:47:20Z</time>
      </trkpt>
      <trkpt lat="42.98382" lon="0.78587">
        <ele>548</ele>
        <time>2021-03-13T14:47:21Z</time>
      </trkpt>
      <trkpt lat="42.98385" lon="0.78586">
        <ele>548</ele>
        <time>2021-03-13T14:47:22Z</time>
      </trkpt>
      <trkpt lat="42.98387" lon="0.78586">
        <ele>548</ele>
        <time>2021-03-13T14:47:23Z</time>
      </trkpt>
      <trkpt lat="42.98389" lon="0.78586">
        <ele>548</ele>
        <time>2021-03-13T14:47:24Z</time>
      </trkpt>
      <trkpt lat="42.98391" lon="0.78586">
        <ele>550</ele>
        <time>2021-03-13T14:47:25Z</time>
      </trkpt>
      <trkpt lat="42.98393" lon="0.78586">
        <ele>550</ele>
        <time>2021-03-13T14:47:26Z</time>
      </trkpt>
      <trkpt lat="42.98396" lon="0.78586">
        <ele>550</ele>
        <time>2021-03-13T14:47:27Z</time>
      </trkpt>
      <trkpt lat="42.98398" lon="0.78586">
        <ele>550</ele>
        <time>2021-03-13T14:47:28Z</time>
      </trkpt>
      <trkpt lat="42.98401" lon="0.78585">
        <ele>550</ele>
        <time>2021-03-13T14:47:29Z</time>
      </trkpt>
      <trkpt lat="42.98403" lon="0.78585">
        <ele>551</ele>
        <time>2021-03-13T14:47:30Z</time>
      </trkpt>
      <trkpt lat="42.98405" lon="0.78586">
        <ele>551</ele>
        <time>2021-03-13T14:47:31Z</time>
      </trkpt>
      <trkpt lat="42.98407" lon="0.78587">
        <ele>551</ele>
        <time>2021-03-13T14:47:32Z</time>
      </trkpt>
      <trkpt lat="42.98409" lon="0.78588">
        <ele>551</ele>
        <time>2021-03-13T14:47:33Z</time>
      </trkpt>
      <trkpt lat="42.98411" lon="0.78589">
        <ele>551</ele>
        <time>2021-03-13T14:47:34Z</time>
      </trkpt>
      <trkpt lat="42.98413" lon="0.7859">
        <ele>551</ele>
        <time>2021-03-13T14:47:35Z</time>
      </trkpt>
      <trkpt lat="42.98416" lon="0.78592">
        <ele>551</ele>
        <time>2021-03-13T14:47:36Z</time>
      </trkpt>
      <trkpt lat="42.98418" lon="0.78594">
        <ele>551</ele>
        <time>2021-03-13T14:47:37Z</time>
      </trkpt>
      <trkpt lat="42.9842" lon="0.78596">
        <ele>551</ele>
        <time>2021-03-13T14:47:38Z</time>
      </trkpt>
      <trkpt lat="42.98422" lon="0.78598">
        <ele>551</ele>
        <time>2021-03-13T14:47:39Z</time>
      </trkpt>
      <trkpt lat="42.98424" lon="0.786">
        <ele>553</ele>
        <time>2021-03-13T14:47:40Z</time>
      </trkpt>
      <trkpt lat="42.98426" lon="0.78603">
        <ele>553</ele>
        <time>2021-03-13T14:47:41Z</time>
      </trkpt>
      <trkpt lat="42.98428" lon="0.78605">
        <ele>553</ele>
        <time>2021-03-13T14:47:42Z</time>
      </trkpt>
      <trkpt lat="42.9843" lon="0.78608">
        <ele>553</ele>
        <time>2021-03-13T14:47:43Z</time>
      </trkpt>
      <trkpt lat="42.98431" lon="0.7861">
        <ele>553</ele>
        <time>2021-03-13T14:47:44Z</time>
      </trkpt>
      <trkpt lat="42.98433" lon="0.78612">
        <ele>553</ele>
        <time>2021-03-13T14:47:45Z</time>
      </trkpt>
      <trkpt lat="42.98435" lon="0.78614">
        <ele>553</ele>
        <time>2021-03-13T14:47:46Z</time>
      </trkpt>
      <trkpt lat="42.98436" lon="0.78617">
        <ele>553</ele>
        <time>2021-03-13T14:47:47Z</time>
      </trkpt>
      <trkpt lat="42.98438" lon="0.78619">
        <ele>553</ele>
        <time>2021-03-13T14:47:48Z</time>
      </trkpt>
      <trkpt lat="42.9844" lon="0.7862">
        <ele>553</ele>
        <time>2021-03-13T14:47:49Z</time>
      </trkpt>
      <trkpt lat="42.98441" lon="0.78621">
        <ele>553</ele>
        <time>2021-03-13T14:47:50Z</time>
      </trkpt>
      <trkpt lat="42.98443" lon="0.78623">
        <ele>553</ele>
        <time>2021-03-13T14:47:51Z</time>
      </trkpt>
      <trkpt lat="42.98445" lon="0.78624">
        <ele>553</ele>
        <time>2021-03-13T14:47:52Z</time>
      </trkpt>
      <trkpt lat="42.98447" lon="0.78625">
        <ele>553</ele>
        <time>2021-03-13T14:47:53Z</time>
      </trkpt>
      <trkpt lat="42.98448" lon="0.78624">
        <ele>553</ele>
        <time>2021-03-13T14:47:54Z</time>
      </trkpt>
      <trkpt lat="42.9845" lon="0.78623">
        <ele>553</ele>
        <time>2021-03-13T14:47:55Z</time>
      </trkpt>
      <trkpt lat="42.98451" lon="0.78622">
        <ele>553</ele>
        <time>2021-03-13T14:47:56Z</time>
      </trkpt>
      <trkpt lat="42.98453" lon="0.7862">
        <ele>553</ele>
        <time>2021-03-13T14:47:57Z</time>
      </trkpt>
      <trkpt lat="42.98455" lon="0.78619">
        <ele>553</ele>
        <time>2021-03-13T14:47:58Z</time>
      </trkpt>
      <trkpt lat="42.98454" lon="0.78617">
        <ele>553</ele>
        <time>2021-03-13T14:47:59Z</time>
      </trkpt>
      <trkpt lat="42.98453" lon="0.78614">
        <ele>556</ele>
        <time>2021-03-13T14:48:00Z</time>
      </trkpt>
      <trkpt lat="42.98453" lon="0.78612">
        <ele>556</ele>
        <time>2021-03-13T14:48:01Z</time>
      </trkpt>
      <trkpt lat="42.98452" lon="0.78609">
        <ele>556</ele>
        <time>2021-03-13T14:48:02Z</time>
      </trkpt>
      <trkpt lat="42.98452" lon="0.78607">
        <ele>556</ele>
        <time>2021-03-13T14:48:03Z</time>
      </trkpt>
      <trkpt lat="42.9845" lon="0.78605">
        <ele>556</ele>
        <time>2021-03-13T14:48:04Z</time>
      </trkpt>
      <trkpt lat="42.98449" lon="0.78603">
        <ele>557</ele>
        <time>2021-03-13T14:48:05Z</time>
      </trkpt>
      <trkpt lat="42.98447" lon="0.78602">
        <ele>557</ele>
        <time>2021-03-13T14:48:06Z</time>
      </trkpt>
      <trkpt lat="42.98445" lon="0.786">
        <ele>557</ele>
        <time>2021-03-13T14:48:07Z</time>
      </trkpt>
      <trkpt lat="42.98444" lon="0.78598">
        <ele>557</ele>
        <time>2021-03-13T14:48:08Z</time>
      </trkpt>
      <trkpt lat="42.98442" lon="0.78597">
        <ele>557</ele>
        <time>2021-03-13T14:48:09Z</time>
      </trkpt>
      <trkpt lat="42.98441" lon="0.78594">
        <ele>559</ele>
        <time>2021-03-13T14:48:10Z</time>
      </trkpt>
      <trkpt lat="42.98439" lon="0.78592">
        <ele>559</ele>
        <time>2021-03-13T14:48:11Z</time>
      </trkpt>
      <trkpt lat="42.98438" lon="0.78589">
        <ele>559</ele>
        <time>2021-03-13T14:48:12Z</time>
      </trkpt>
      <trkpt lat="42.98436" lon="0.78587">
        <ele>559</ele>
        <time>2021-03-13T14:48:13Z</time>
      </trkpt>
      <trkpt lat="42.98435" lon="0.78584">
        <ele>559</ele>
        <time>2021-03-13T14:48:14Z</time>
      </trkpt>
      <trkpt lat="42.98434" lon="0.78582">
        <ele>559</ele>
        <time>2021-03-13T14:48:15Z</time>
      </trkpt>
      <trkpt lat="42.98433" lon="0.78579">
        <ele>559</ele>
        <time>2021-03-13T14:48:16Z</time>
      </trkpt>
      <trkpt lat="42.98432" lon="0.78576">
        <ele>559</ele>
        <time>2021-03-13T14:48:17Z</time>
      </trkpt>
      <trkpt lat="42.98431" lon="0.78574">
        <ele>559</ele>
        <time>2021-03-13T14:48:18Z</time>
      </trkpt>
      <trkpt lat="42.9843" lon="0.78572">
        <ele>559</ele>
        <time>2021-03-13T14:48:19Z</time>
      </trkpt>
      <trkpt lat="42.98428" lon="0.7857">
        <ele>561</ele>
        <time>2021-03-13T14:48:20Z</time>
      </trkpt>
      <trkpt lat="42.98427" lon="0.78567">
        <ele>561</ele>
        <time>2021-03-13T14:48:21Z</time>
      </trkpt>
      <trkpt lat="42.98426" lon="0.78565">
        <ele>561</ele>
        <time>2021-03-13T14:48:22Z</time>
      </trkpt>
      <trkpt lat="42.98424" lon="0.78563">
        <ele>561</ele>
        <time>2021-03-13T14:48:23Z</time>
      </trkpt>
      <trkpt lat="42.98422" lon="0.78562">
        <ele>561</ele>
        <time>2021-03-13T14:48:24Z</time>
      </trkpt>
      <trkpt lat="42.9842" lon="0.7856">
        <ele>561</ele>
        <time>2021-03-13T14:48:25Z</time>
      </trkpt>
      <trkpt lat="42.98418" lon="0.78559">
        <ele>561</ele>
        <time>2021-03-13T14:48:26Z</time>
      </trkpt>
      <trkpt lat="42.98416" lon="0.78557">
        <ele>561</ele>
        <time>2021-03-13T14:48:27Z</time>
      </trkpt>
      <trkpt lat="42.98414" lon="0.78556">
        <ele>561</ele>
        <time>2021-03-13T14:48:28Z</time>
      </trkpt>
      <trkpt lat="42.98412" lon="0.78555">
        <ele>561</ele>
        <time>2021-03-13T14:48:29Z</time>
      </trkpt>
      <trkpt lat="42.98409" lon="0.78555">
        <ele>563</ele>
        <time>2021-03-13T14:48:30Z</time>
      </trkpt>
      <trkpt lat="42.98407" lon="0.78555">
        <ele>563</ele>
        <time>2021-03-13T14:48:31Z</time>
      </trkpt>
      <trkpt lat="42.98405" lon="0.78554">
        <ele>563</ele>
        <time>2021-03-13T14:48:32Z</time>
      </trkpt>
      <trkpt lat="42.98403" lon="0.78554">
        <ele>563</ele>
        <time>2021-03-13T14:48:33Z</time>
      </trkpt>
      <trkpt lat="42.98401" lon="0.78552">
        <ele>563</ele>
        <time>2021-03-13T14:48:34Z</time>
      </trkpt>
      <trkpt lat="42.98399" lon="0.78551">
        <ele>563</ele>
        <time>2021-03-13T14:48:35Z</time>
      </trkpt>
      <trkpt lat="42.98398" lon="0.78549">
        <ele>563</ele>
        <time>2021-03-13T14:48:36Z</time>
      </trkpt>
      <trkpt lat="42.98396" lon="0.78548">
        <ele>563</ele>
        <time>2021-03-13T14:48:37Z</time>
      </trkpt>
      <trkpt lat="42.98394" lon="0.78547">
        <ele>563</ele>
        <time>2021-03-13T14:48:38Z</time>
      </trkpt>
      <trkpt lat="42.98393" lon="0.78545">
        <ele>563</ele>
        <time>2021-03-13T14:48:39Z</time>
      </trkpt>
      <trkpt lat="42.98391" lon="0.78544">
        <ele>564</ele>
        <time>2021-03-13T14:48:40Z</time>
      </trkpt>
      <trkpt lat="42.98389" lon="0.78542">
        <ele>564</ele>
        <time>2021-03-13T14:48:41Z</time>
      </trkpt>
      <trkpt lat="42.98387" lon="0.78541">
        <ele>564</ele>
        <time>2021-03-13T14:48:42Z</time>
      </trkpt>
      <trkpt lat="42.98386" lon="0.7854">
        <ele>564</ele>
        <time>2021-03-13T14:48:43Z</time>
      </trkpt>
      <trkpt lat="42.98384" lon="0.78537">
        <ele>564</ele>
        <time>2021-03-13T14:48:44Z</time>
      </trkpt>
      <trkpt lat="42.98383" lon="0.78535">
        <ele>564</ele>
        <time>2021-03-13T14:48:45Z</time>
      </trkpt>
      <trkpt lat="42.98381" lon="0.78533">
        <ele>564</ele>
        <time>2021-03-13T14:48:46Z</time>
      </trkpt>
      <trkpt lat="42.9838" lon="0.78531">
        <ele>564</ele>
        <time>2021-03-13T14:48:47Z</time>
      </trkpt>
      <trkpt lat="42.98378" lon="0.78529">
        <ele>564</ele>
        <time>2021-03-13T14:48:48Z</time>
      </trkpt>
      <trkpt lat="42.98377" lon="0.78526">
        <ele>564</ele>
        <time>2021-03-13T14:48:49Z</time>
      </trkpt>
      <trkpt lat="42.98376" lon="0.78523">
        <ele>568</ele>
        <time>2021-03-13T14:48:50Z</time>
      </trkpt>
      <trkpt lat="42.98374" lon="0.7852">
        <ele>568</ele>
        <time>2021-03-13T14:48:51Z</time>
      </trkpt>
      <trkpt lat="42.98373" lon="0.78517">
        <ele>568</ele>
        <time>2021-03-13T14:48:52Z</time>
      </trkpt>
      <trkpt lat="42.98372" lon="0.78514">
        <ele>568</ele>
        <time>2021-03-13T14:48:53Z</time>
      </trkpt>
      <trkpt lat="42.98371" lon="0.78511">
        <ele>568</ele>
        <time>2021-03-13T14:48:54Z</time>
      </trkpt>
      <trkpt lat="42.9837" lon="0.78509">
        <ele>570</ele>
        <time>2021-03-13T14:48:55Z</time>
      </trkpt>
      <trkpt lat="42.9837" lon="0.78506">
        <ele>570</ele>
        <time>2021-03-13T14:48:56Z</time>
      </trkpt>
      <trkpt lat="42.98369" lon="0.78503">
        <ele>570</ele>
        <time>2021-03-13T14:48:57Z</time>
      </trkpt>
      <trkpt lat="42.98369" lon="0.785">
        <ele>570</ele>
        <time>2021-03-13T14:48:58Z</time>
      </trkpt>
      <trkpt lat="42.98368" lon="0.78497">
        <ele>570</ele>
        <time>2021-03-13T14:48:59Z</time>
      </trkpt>
      <trkpt lat="42.98368" lon="0.78494">
        <ele>572</ele>
        <time>2021-03-13T14:49:00Z</time>
      </trkpt>
      <trkpt lat="42.98368" lon="0.78491">
        <ele>572</ele>
        <time>2021-03-13T14:49:01Z</time>
      </trkpt>
      <trkpt lat="42.98367" lon="0.78488">
        <ele>572</ele>
        <time>2021-03-13T14:49:02Z</time>
      </trkpt>
      <trkpt lat="42.98367" lon="0.78485">
        <ele>572</ele>
        <time>2021-03-13T14:49:03Z</time>
      </trkpt>
      <trkpt lat="42.98367" lon="0.78483">
        <ele>572</ele>
        <time>2021-03-13T14:49:04Z</time>
      </trkpt>
      <trkpt lat="42.98367" lon="0.7848">
        <ele>573</ele>
        <time>2021-03-13T14:49:05Z</time>
      </trkpt>
      <trkpt lat="42.98367" lon="0.78477">
        <ele>573</ele>
        <time>2021-03-13T14:49:06Z</time>
      </trkpt>
      <trkpt lat="42.98368" lon="0.78473">
        <ele>573</ele>
        <time>2021-03-13T14:49:07Z</time>
      </trkpt>
      <trkpt lat="42.98368" lon="0.7847">
        <ele>573</ele>
        <time>2021-03-13T14:49:08Z</time>
      </trkpt>
      <trkpt lat="42.98369" lon="0.78467">
        <ele>573</ele>
        <time>2021-03-13T14:49:09Z</time>
      </trkpt>
      <trkpt lat="42.98369" lon="0.78464">
        <ele>574</ele>
        <time>2021-03-13T14:49:10Z</time>
      </trkpt>
      <trkpt lat="42.9837" lon="0.78461">
        <ele>574</ele>
        <time>2021-03-13T14:49:11Z</time>
      </trkpt>
      <trkpt lat="42.9837" lon="0.78458">
        <ele>574</ele>
        <time>2021-03-13T14:49:12Z</time>
      </trkpt>
      <trkpt lat="42.98371" lon="0.78455">
        <ele>574</ele>
        <time>2021-03-13T14:49:13Z</time>
      </trkpt>
      <trkpt lat="42.98372" lon="0.78452">
        <ele>574</ele>
        <time>2021-03-13T14:49:14Z</time>
      </trkpt>
      <trkpt lat="42.98372" lon="0.7845">
        <ele>574</ele>
        <time>2021-03-13T14:49:15Z</time>
      </trkpt>
      <trkpt lat="42.98373" lon="0.78447">
        <ele>574</ele>
        <time>2021-03-13T14:49:16Z</time>
      </trkpt>
      <trkpt lat="42.98374" lon="0.78445">
        <ele>574</ele>
        <time>2021-03-13T14:49:17Z</time>
      </trkpt>
      <trkpt lat="42.98374" lon="0.78442">
        <ele>574</ele>
        <time>2021-03-13T14:49:18Z</time>
      </trkpt>
      <trkpt lat="42.98374" lon="0.7844">
        <ele>574</ele>
        <time>2021-03-13T14:49:19Z</time>
      </trkpt>
      <trkpt lat="42.98375" lon="0.78437">
        <ele>575</ele>
        <time>2021-03-13T14:49:20Z</time>
      </trkpt>
      <trkpt lat="42.98375" lon="0.78434">
        <ele>575</ele>
        <time>2021-03-13T14:49:21Z</time>
      </trkpt>
      <trkpt lat="42.98375" lon="0.78432">
        <ele>575</ele>
        <time>2021-03-13T14:49:22Z</time>
      </trkpt>
      <trkpt lat="42.98375" lon="0.78431">
        <ele>575</ele>
        <time>2021-03-13T14:49:23Z</time>
      </trkpt>
      <trkpt lat="42.98375" lon="0.78429">
        <ele>575</ele>
        <time>2021-03-13T14:49:24Z</time>
      </trkpt>
      <trkpt lat="42.98375" lon="0.78428">
        <ele>575</ele>
        <time>2021-03-13T14:49:25Z</time>
      </trkpt>
      <trkpt lat="42.98375" lon="0.78427">
        <ele>575</ele>
        <time>2021-03-13T14:49:26Z</time>
      </trkpt>
      <trkpt lat="42.98375" lon="0.78426">
        <ele>575</ele>
        <time>2021-03-13T14:49:27Z</time>
      </trkpt>
      <trkpt lat="42.98375" lon="0.78424">
        <ele>575</ele>
        <time>2021-03-13T14:49:28Z</time>
      </trkpt>
      <trkpt lat="42.98374" lon="0.78414">
        <ele>575</ele>
        <time>2021-03-13T14:49:29Z</time>
      </trkpt>
      <trkpt lat="42.98374" lon="0.78411">
        <ele>578</ele>
        <time>2021-03-13T14:49:30Z</time>
      </trkpt>
      <trkpt lat="42.98375" lon="0.78407">
        <ele>578</ele>
        <time>2021-03-13T14:49:31Z</time>
      </trkpt>
      <trkpt lat="42.98376" lon="0.78408">
        <ele>578</ele>
        <time>2021-03-13T14:49:32Z</time>
      </trkpt>
      <trkpt lat="42.98377" lon="0.78408">
        <ele>578</ele>
        <time>2021-03-13T14:49:33Z</time>
      </trkpt>
      <trkpt lat="42.98379" lon="0.78408">
        <ele>578</ele>
        <time>2021-03-13T14:49:34Z</time>
      </trkpt>
      <trkpt lat="42.9838" lon="0.78408">
        <ele>580</ele>
        <time>2021-03-13T14:49:35Z</time>
      </trkpt>
      <trkpt lat="42.98381" lon="0.78409">
        <ele>580</ele>
        <time>2021-03-13T14:49:36Z</time>
      </trkpt>
      <trkpt lat="42.98383" lon="0.78409">
        <ele>580</ele>
        <time>2021-03-13T14:49:37Z</time>
      </trkpt>
      <trkpt lat="42.98383" lon="0.78411">
        <ele>580</ele>
        <time>2021-03-13T14:49:38Z</time>
      </trkpt>
      <trkpt lat="42.98384" lon="0.78412">
        <ele>580</ele>
        <time>2021-03-13T14:49:39Z</time>
      </trkpt>
      <trkpt lat="42.98385" lon="0.78414">
        <ele>581</ele>
        <time>2021-03-13T14:49:40Z</time>
      </trkpt>
      <trkpt lat="42.98385" lon="0.78415">
        <ele>581</ele>
        <time>2021-03-13T14:49:41Z</time>
      </trkpt>
      <trkpt lat="42.98388" lon="0.78425">
        <ele>581</ele>
        <time>2021-03-13T14:49:42Z</time>
      </trkpt>
      <trkpt lat="42.98388" lon="0.78428">
        <ele>581</ele>
        <time>2021-03-13T14:49:43Z</time>
      </trkpt>
      <trkpt lat="42.98388" lon="0.78432">
        <ele>581</ele>
        <time>2021-03-13T14:49:44Z</time>
      </trkpt>
      <trkpt lat="42.98388" lon="0.78435">
        <ele>582</ele>
        <time>2021-03-13T14:49:45Z</time>
      </trkpt>
      <trkpt lat="42.98387" lon="0.78438">
        <ele>582</ele>
        <time>2021-03-13T14:49:46Z</time>
      </trkpt>
      <trkpt lat="42.98387" lon="0.78442">
        <ele>582</ele>
        <time>2021-03-13T14:49:47Z</time>
      </trkpt>
      <trkpt lat="42.98387" lon="0.78445">
        <ele>582</ele>
        <time>2021-03-13T14:49:48Z</time>
      </trkpt>
      <trkpt lat="42.98386" lon="0.78448">
        <ele>582</ele>
        <time>2021-03-13T14:49:49Z</time>
      </trkpt>
      <trkpt lat="42.98386" lon="0.78451">
        <ele>583</ele>
        <time>2021-03-13T14:49:50Z</time>
      </trkpt>
      <trkpt lat="42.98386" lon="0.78455">
        <ele>583</ele>
        <time>2021-03-13T14:49:51Z</time>
      </trkpt>
      <trkpt lat="42.98386" lon="0.78458">
        <ele>583</ele>
        <time>2021-03-13T14:49:52Z</time>
      </trkpt>
      <trkpt lat="42.98386" lon="0.78461">
        <ele>583</ele>
        <time>2021-03-13T14:49:53Z</time>
      </trkpt>
      <trkpt lat="42.98387" lon="0.78464">
        <ele>583</ele>
        <time>2021-03-13T14:49:54Z</time>
      </trkpt>
      <trkpt lat="42.98387" lon="0.78467">
        <ele>583</ele>
        <time>2021-03-13T14:49:55Z</time>
      </trkpt>
      <trkpt lat="42.98387" lon="0.78471">
        <ele>583</ele>
        <time>2021-03-13T14:49:56Z</time>
      </trkpt>
      <trkpt lat="42.98388" lon="0.78474">
        <ele>583</ele>
        <time>2021-03-13T14:49:57Z</time>
      </trkpt>
      <trkpt lat="42.98389" lon="0.78476">
        <ele>583</ele>
        <time>2021-03-13T14:49:58Z</time>
      </trkpt>
      <trkpt lat="42.9839" lon="0.78478">
        <ele>583</ele>
        <time>2021-03-13T14:49:59Z</time>
      </trkpt>
      <trkpt lat="42.98391" lon="0.7848">
        <ele>584</ele>
        <time>2021-03-13T14:50:00Z</time>
      </trkpt>
      <trkpt lat="42.98393" lon="0.78483">
        <ele>584</ele>
        <time>2021-03-13T14:50:01Z</time>
      </trkpt>
      <trkpt lat="42.98394" lon="0.78485">
        <ele>584</ele>
        <time>2021-03-13T14:50:02Z</time>
      </trkpt>
      <trkpt lat="42.98395" lon="0.78485">
        <ele>584</ele>
        <time>2021-03-13T14:50:03Z</time>
      </trkpt>
      <trkpt lat="42.98396" lon="0.78485">
        <ele>584</ele>
        <time>2021-03-13T14:50:04Z</time>
      </trkpt>
      <trkpt lat="42.98397" lon="0.78485">
        <ele>584</ele>
        <time>2021-03-13T14:50:05Z</time>
      </trkpt>
      <trkpt lat="42.98397" lon="0.78485">
        <ele>584</ele>
        <time>2021-03-13T14:50:06Z</time>
      </trkpt>
      <trkpt lat="42.98398" lon="0.78485">
        <ele>584</ele>
        <time>2021-03-13T14:50:07Z</time>
      </trkpt>
      <trkpt lat="42.98399" lon="0.78485">
        <ele>584</ele>
        <time>2021-03-13T14:50:08Z</time>
      </trkpt>
      <trkpt lat="42.98406" lon="0.78485">
        <ele>584</ele>
        <time>2021-03-13T14:50:09Z</time>
      </trkpt>
      <trkpt lat="42.98407" lon="0.78485">
        <ele>586</ele>
        <time>2021-03-13T14:50:10Z</time>
      </trkpt>
      <trkpt lat="42.98409" lon="0.78484">
        <ele>586</ele>
        <time>2021-03-13T14:50:11Z</time>
      </trkpt>
      <trkpt lat="42.9841" lon="0.78484">
        <ele>586</ele>
        <time>2021-03-13T14:50:12Z</time>
      </trkpt>
      <trkpt lat="42.98417" lon="0.78482">
        <ele>586</ele>
        <time>2021-03-13T14:50:13Z</time>
      </trkpt>
      <trkpt lat="42.98418" lon="0.78481">
        <ele>586</ele>
        <time>2021-03-13T14:50:14Z</time>
      </trkpt>
      <trkpt lat="42.98419" lon="0.78481">
        <ele>586</ele>
        <time>2021-03-13T14:50:15Z</time>
      </trkpt>
      <trkpt lat="42.9842" lon="0.7848">
        <ele>586</ele>
        <time>2021-03-13T14:50:16Z</time>
      </trkpt>
      <trkpt lat="42.98426" lon="0.78477">
        <ele>586</ele>
        <time>2021-03-13T14:50:17Z</time>
      </trkpt>
      <trkpt lat="42.98427" lon="0.78476">
        <ele>586</ele>
        <time>2021-03-13T14:50:18Z</time>
      </trkpt>
      <trkpt lat="42.98428" lon="0.78475">
        <ele>586</ele>
        <time>2021-03-13T14:50:19Z</time>
      </trkpt>
      <trkpt lat="42.98429" lon="0.78474">
        <ele>589</ele>
        <time>2021-03-13T14:50:20Z</time>
      </trkpt>
      <trkpt lat="42.9843" lon="0.78473">
        <ele>589</ele>
        <time>2021-03-13T14:50:21Z</time>
      </trkpt>
      <trkpt lat="42.98437" lon="0.78466">
        <ele>589</ele>
        <time>2021-03-13T14:50:22Z</time>
      </trkpt>
      <trkpt lat="42.98439" lon="0.78463">
        <ele>589</ele>
        <time>2021-03-13T14:50:23Z</time>
      </trkpt>
      <trkpt lat="42.98441" lon="0.7846">
        <ele>589</ele>
        <time>2021-03-13T14:50:24Z</time>
      </trkpt>
      <trkpt lat="42.98442" lon="0.78458">
        <ele>591</ele>
        <time>2021-03-13T14:50:25Z</time>
      </trkpt>
      <trkpt lat="42.98443" lon="0.78455">
        <ele>591</ele>
        <time>2021-03-13T14:50:26Z</time>
      </trkpt>
      <trkpt lat="42.98445" lon="0.78452">
        <ele>591</ele>
        <time>2021-03-13T14:50:27Z</time>
      </trkpt>
      <trkpt lat="42.98446" lon="0.78449">
        <ele>591</ele>
        <time>2021-03-13T14:50:28Z</time>
      </trkpt>
      <trkpt lat="42.98447" lon="0.78446">
        <ele>591</ele>
        <time>2021-03-13T14:50:29Z</time>
      </trkpt>
      <trkpt lat="42.98447" lon="0.78444">
        <ele>593</ele>
        <time>2021-03-13T14:50:30Z</time>
      </trkpt>
      <trkpt lat="42.98448" lon="0.78443">
        <ele>593</ele>
        <time>2021-03-13T14:50:31Z</time>
      </trkpt>
      <trkpt lat="42.98448" lon="0.78442">
        <ele>593</ele>
        <time>2021-03-13T14:50:32Z</time>
      </trkpt>
      <trkpt lat="42.98449" lon="0.7844">
        <ele>593</ele>
        <time>2021-03-13T14:50:33Z</time>
      </trkpt>
      <trkpt lat="42.98449" lon="0.78439">
        <ele>593</ele>
        <time>2021-03-13T14:50:34Z</time>
      </trkpt>
      <trkpt lat="42.98452" lon="0.7843">
        <ele>595</ele>
        <time>2021-03-13T14:50:35Z</time>
      </trkpt>
      <trkpt lat="42.98453" lon="0.78428">
        <ele>595</ele>
        <time>2021-03-13T14:50:36Z</time>
      </trkpt>
      <trkpt lat="42.98455" lon="0.78426">
        <ele>595</ele>
        <time>2021-03-13T14:50:37Z</time>
      </trkpt>
      <trkpt lat="42.98456" lon="0.78424">
        <ele>595</ele>
        <time>2021-03-13T14:50:38Z</time>
      </trkpt>
      <trkpt lat="42.98457" lon="0.78421">
        <ele>595</ele>
        <time>2021-03-13T14:50:39Z</time>
      </trkpt>
      <trkpt lat="42.98458" lon="0.7842">
        <ele>595</ele>
        <time>2021-03-13T14:50:40Z</time>
      </trkpt>
      <trkpt lat="42.98458" lon="0.78419">
        <ele>595</ele>
        <time>2021-03-13T14:50:41Z</time>
      </trkpt>
      <trkpt lat="42.98458" lon="0.78418">
        <ele>595</ele>
        <time>2021-03-13T14:50:42Z</time>
      </trkpt>
      <trkpt lat="42.98459" lon="0.78416">
        <ele>595</ele>
        <time>2021-03-13T14:50:43Z</time>
      </trkpt>
      <trkpt lat="42.98459" lon="0.78415">
        <ele>595</ele>
        <time>2021-03-13T14:50:44Z</time>
      </trkpt>
      <trkpt lat="42.98463" lon="0.78408">
        <ele>597</ele>
        <time>2021-03-13T14:50:45Z</time>
      </trkpt>
      <trkpt lat="42.98463" lon="0.78407">
        <ele>597</ele>
        <time>2021-03-13T14:50:46Z</time>
      </trkpt>
      <trkpt lat="42.98464" lon="0.78406">
        <ele>597</ele>
        <time>2021-03-13T14:50:47Z</time>
      </trkpt>
      <trkpt lat="42.98465" lon="0.78405">
        <ele>597</ele>
        <time>2021-03-13T14:50:48Z</time>
      </trkpt>
      <trkpt lat="42.98465" lon="0.78404">
        <ele>597</ele>
        <time>2021-03-13T14:50:49Z</time>
      </trkpt>
      <trkpt lat="42.98466" lon="0.78403">
        <ele>598</ele>
        <time>2021-03-13T14:50:50Z</time>
      </trkpt>
      <trkpt lat="42.9847" lon="0.78395">
        <ele>598</ele>
        <time>2021-03-13T14:50:51Z</time>
      </trkpt>
      <trkpt lat="42.98471" lon="0.78393">
        <ele>598</ele>
        <time>2021-03-13T14:50:52Z</time>
      </trkpt>
      <trkpt lat="42.98472" lon="0.78392">
        <ele>598</ele>
        <time>2021-03-13T14:50:53Z</time>
      </trkpt>
      <trkpt lat="42.98472" lon="0.7839">
        <ele>598</ele>
        <time>2021-03-13T14:50:54Z</time>
      </trkpt>
      <trkpt lat="42.98475" lon="0.78382">
        <ele>599</ele>
        <time>2021-03-13T14:50:55Z</time>
      </trkpt>
      <trkpt lat="42.98476" lon="0.7838">
        <ele>599</ele>
        <time>2021-03-13T14:50:56Z</time>
      </trkpt>
      <trkpt lat="42.98477" lon="0.78379">
        <ele>599</ele>
        <time>2021-03-13T14:50:57Z</time>
      </trkpt>
      <trkpt lat="42.98478" lon="0.78377">
        <ele>599</ele>
        <time>2021-03-13T14:50:58Z</time>
      </trkpt>
      <trkpt lat="42.98482" lon="0.7837">
        <ele>599</ele>
        <time>2021-03-13T14:50:59Z</time>
      </trkpt>
      <trkpt lat="42.98482" lon="0.78369">
        <ele>601</ele>
        <time>2021-03-13T14:51:00Z</time>
      </trkpt>
      <trkpt lat="42.98483" lon="0.78367">
        <ele>601</ele>
        <time>2021-03-13T14:51:01Z</time>
      </trkpt>
      <trkpt lat="42.98483" lon="0.78366">
        <ele>601</ele>
        <time>2021-03-13T14:51:02Z</time>
      </trkpt>
      <trkpt lat="42.98484" lon="0.78365">
        <ele>601</ele>
        <time>2021-03-13T14:51:03Z</time>
      </trkpt>
      <trkpt lat="42.98487" lon="0.78356">
        <ele>601</ele>
        <time>2021-03-13T14:51:04Z</time>
      </trkpt>
      <trkpt lat="42.98489" lon="0.78353">
        <ele>602</ele>
        <time>2021-03-13T14:51:05Z</time>
      </trkpt>
      <trkpt lat="42.9849" lon="0.78351">
        <ele>602</ele>
        <time>2021-03-13T14:51:06Z</time>
      </trkpt>
      <trkpt lat="42.98492" lon="0.78348">
        <ele>602</ele>
        <time>2021-03-13T14:51:07Z</time>
      </trkpt>
      <trkpt lat="42.98492" lon="0.78346">
        <ele>602</ele>
        <time>2021-03-13T14:51:08Z</time>
      </trkpt>
      <trkpt lat="42.98493" lon="0.78344">
        <ele>602</ele>
        <time>2021-03-13T14:51:09Z</time>
      </trkpt>
      <trkpt lat="42.98494" lon="0.78341">
        <ele>603</ele>
        <time>2021-03-13T14:51:10Z</time>
      </trkpt>
      <trkpt lat="42.98494" lon="0.78339">
        <ele>603</ele>
        <time>2021-03-13T14:51:11Z</time>
      </trkpt>
      <trkpt lat="42.98495" lon="0.78337">
        <ele>603</ele>
        <time>2021-03-13T14:51:12Z</time>
      </trkpt>
      <trkpt lat="42.98496" lon="0.78335">
        <ele>603</ele>
        <time>2021-03-13T14:51:13Z</time>
      </trkpt>
      <trkpt lat="42.98496" lon="0.78334">
        <ele>603</ele>
        <time>2021-03-13T14:51:14Z</time>
      </trkpt>
      <trkpt lat="42.98497" lon="0.78333">
        <ele>603</ele>
        <time>2021-03-13T14:51:15Z</time>
      </trkpt>
      <trkpt lat="42.98498" lon="0.78332">
        <ele>603</ele>
        <time>2021-03-13T14:51:16Z</time>
      </trkpt>
      <trkpt lat="42.98498" lon="0.78331">
        <ele>603</ele>
        <time>2021-03-13T14:51:17Z</time>
      </trkpt>
      <trkpt lat="42.98499" lon="0.7833">
        <ele>603</ele>
        <time>2021-03-13T14:51:18Z</time>
      </trkpt>
      <trkpt lat="42.98499" lon="0.78328">
        <ele>603</ele>
        <time>2021-03-13T14:51:19Z</time>
      </trkpt>
      <trkpt lat="42.98505" lon="0.7832">
        <ele>605</ele>
        <time>2021-03-13T14:51:20Z</time>
      </trkpt>
      <trkpt lat="42.98507" lon="0.78318">
        <ele>605</ele>
        <time>2021-03-13T14:51:21Z</time>
      </trkpt>
      <trkpt lat="42.98509" lon="0.78316">
        <ele>605</ele>
        <time>2021-03-13T14:51:22Z</time>
      </trkpt>
      <trkpt lat="42.98511" lon="0.78314">
        <ele>605</ele>
        <time>2021-03-13T14:51:23Z</time>
      </trkpt>
      <trkpt lat="42.98512" lon="0.78313">
        <ele>605</ele>
        <time>2021-03-13T14:51:24Z</time>
      </trkpt>
      <trkpt lat="42.98513" lon="0.78313">
        <ele>608</ele>
        <time>2021-03-13T14:51:25Z</time>
      </trkpt>
      <trkpt lat="42.98514" lon="0.78312">
        <ele>608</ele>
        <time>2021-03-13T14:51:26Z</time>
      </trkpt>
      <trkpt lat="42.98515" lon="0.78312">
        <ele>608</ele>
        <time>2021-03-13T14:51:27Z</time>
      </trkpt>
      <trkpt lat="42.98516" lon="0.78311">
        <ele>608</ele>
        <time>2021-03-13T14:51:28Z</time>
      </trkpt>
      <trkpt lat="42.98516" lon="0.7831">
        <ele>608</ele>
        <time>2021-03-13T14:51:29Z</time>
      </trkpt>
      <trkpt lat="42.98522" lon="0.78305">
        <ele>609</ele>
        <time>2021-03-13T14:51:30Z</time>
      </trkpt>
      <trkpt lat="42.98523" lon="0.78303">
        <ele>609</ele>
        <time>2021-03-13T14:51:31Z</time>
      </trkpt>
      <trkpt lat="42.98524" lon="0.78302">
        <ele>609</ele>
        <time>2021-03-13T14:51:32Z</time>
      </trkpt>
      <trkpt lat="42.98525" lon="0.783">
        <ele>609</ele>
        <time>2021-03-13T14:51:33Z</time>
      </trkpt>
      <trkpt lat="42.98528" lon="0.78291">
        <ele>609</ele>
        <time>2021-03-13T14:51:34Z</time>
      </trkpt>
      <trkpt lat="42.98528" lon="0.78288">
        <ele>611</ele>
        <time>2021-03-13T14:51:35Z</time>
      </trkpt>
      <trkpt lat="42.98529" lon="0.78286">
        <ele>611</ele>
        <time>2021-03-13T14:51:36Z</time>
      </trkpt>
      <trkpt lat="42.98529" lon="0.78283">
        <ele>611</ele>
        <time>2021-03-13T14:51:37Z</time>
      </trkpt>
      <trkpt lat="42.9853" lon="0.7828">
        <ele>611</ele>
        <time>2021-03-13T14:51:38Z</time>
      </trkpt>
      <trkpt lat="42.9853" lon="0.78277">
        <ele>611</ele>
        <time>2021-03-13T14:51:39Z</time>
      </trkpt>
      <trkpt lat="42.98531" lon="0.78273">
        <ele>612</ele>
        <time>2021-03-13T14:51:40Z</time>
      </trkpt>
      <trkpt lat="42.98532" lon="0.7827">
        <ele>612</ele>
        <time>2021-03-13T14:51:41Z</time>
      </trkpt>
      <trkpt lat="42.98532" lon="0.78266">
        <ele>612</ele>
        <time>2021-03-13T14:51:42Z</time>
      </trkpt>
      <trkpt lat="42.98533" lon="0.78263">
        <ele>612</ele>
        <time>2021-03-13T14:51:43Z</time>
      </trkpt>
      <trkpt lat="42.98533" lon="0.78259">
        <ele>612</ele>
        <time>2021-03-13T14:51:44Z</time>
      </trkpt>
      <trkpt lat="42.98534" lon="0.78256">
        <ele>614</ele>
        <time>2021-03-13T14:51:45Z</time>
      </trkpt>
      <trkpt lat="42.98534" lon="0.78252">
        <ele>614</ele>
        <time>2021-03-13T14:51:46Z</time>
      </trkpt>
      <trkpt lat="42.98534" lon="0.7825">
        <ele>614</ele>
        <time>2021-03-13T14:51:47Z</time>
      </trkpt>
      <trkpt lat="42.98534" lon="0.78247">
        <ele>614</ele>
        <time>2021-03-13T14:51:48Z</time>
      </trkpt>
      <trkpt lat="42.98534" lon="0.78244">
        <ele>614</ele>
        <time>2021-03-13T14:51:49Z</time>
      </trkpt>
      <trkpt lat="42.98534" lon="0.78242">
        <ele>614</ele>
        <time>2021-03-13T14:51:50Z</time>
      </trkpt>
      <trkpt lat="42.98534" lon="0.78239">
        <ele>614</ele>
        <time>2021-03-13T14:51:51Z</time>
      </trkpt>
      <trkpt lat="42.98535" lon="0.78236">
        <ele>614</ele>
        <time>2021-03-13T14:51:52Z</time>
      </trkpt>
      <trkpt lat="42.98535" lon="0.78233">
        <ele>614</ele>
        <time>2021-03-13T14:51:53Z</time>
      </trkpt>
      <trkpt lat="42.98536" lon="0.78231">
        <ele>614</ele>
        <time>2021-03-13T14:51:54Z</time>
      </trkpt>
      <trkpt lat="42.98537" lon="0.78228">
        <ele>616</ele>
        <time>2021-03-13T14:51:55Z</time>
      </trkpt>
      <trkpt lat="42.98537" lon="0.78225">
        <ele>616</ele>
        <time>2021-03-13T14:51:56Z</time>
      </trkpt>
      <trkpt lat="42.98537" lon="0.78222">
        <ele>616</ele>
        <time>2021-03-13T14:51:57Z</time>
      </trkpt>
      <trkpt lat="42.98538" lon="0.78219">
        <ele>616</ele>
        <time>2021-03-13T14:51:58Z</time>
      </trkpt>
      <trkpt lat="42.98538" lon="0.78217">
        <ele>616</ele>
        <time>2021-03-13T14:51:59Z</time>
      </trkpt>
      <trkpt lat="42.98539" lon="0.78214">
        <ele>618</ele>
        <time>2021-03-13T14:52:00Z</time>
      </trkpt>
      <trkpt lat="42.98539" lon="0.78211">
        <ele>618</ele>
        <time>2021-03-13T14:52:01Z</time>
      </trkpt>
      <trkpt lat="42.98539" lon="0.78208">
        <ele>618</ele>
        <time>2021-03-13T14:52:02Z</time>
      </trkpt>
      <trkpt lat="42.98539" lon="0.78205">
        <ele>618</ele>
        <time>2021-03-13T14:52:03Z</time>
      </trkpt>
      <trkpt lat="42.98538" lon="0.78202">
        <ele>618</ele>
        <time>2021-03-13T14:52:04Z</time>
      </trkpt>
      <trkpt lat="42.98538" lon="0.78198">
        <ele>618</ele>
        <time>2021-03-13T14:52:05Z</time>
      </trkpt>
      <trkpt lat="42.98538" lon="0.78195">
        <ele>618</ele>
        <time>2021-03-13T14:52:06Z</time>
      </trkpt>
      <trkpt lat="42.98537" lon="0.78192">
        <ele>618</ele>
        <time>2021-03-13T14:52:07Z</time>
      </trkpt>
      <trkpt lat="42.98537" lon="0.78189">
        <ele>618</ele>
        <time>2021-03-13T14:52:08Z</time>
      </trkpt>
      <trkpt lat="42.98536" lon="0.78186">
        <ele>618</ele>
        <time>2021-03-13T14:52:09Z</time>
      </trkpt>
      <trkpt lat="42.98536" lon="0.78183">
        <ele>620</ele>
        <time>2021-03-13T14:52:10Z</time>
      </trkpt>
      <trkpt lat="42.98535" lon="0.78181">
        <ele>620</ele>
        <time>2021-03-13T14:52:11Z</time>
      </trkpt>
      <trkpt lat="42.98535" lon="0.78178">
        <ele>620</ele>
        <time>2021-03-13T14:52:12Z</time>
      </trkpt>
      <trkpt lat="42.98535" lon="0.78175">
        <ele>620</ele>
        <time>2021-03-13T14:52:13Z</time>
      </trkpt>
      <trkpt lat="42.98534" lon="0.78173">
        <ele>620</ele>
        <time>2021-03-13T14:52:14Z</time>
      </trkpt>
      <trkpt lat="42.98534" lon="0.7817">
        <ele>620</ele>
        <time>2021-03-13T14:52:15Z</time>
      </trkpt>
      <trkpt lat="42.98534" lon="0.78167">
        <ele>620</ele>
        <time>2021-03-13T14:52:16Z</time>
      </trkpt>
      <trkpt lat="42.98534" lon="0.78165">
        <ele>620</ele>
        <time>2021-03-13T14:52:17Z</time>
      </trkpt>
      <trkpt lat="42.98533" lon="0.78162">
        <ele>620</ele>
        <time>2021-03-13T14:52:18Z</time>
      </trkpt>
      <trkpt lat="42.98533" lon="0.78159">
        <ele>620</ele>
        <time>2021-03-13T14:52:19Z</time>
      </trkpt>
      <trkpt lat="42.98532" lon="0.78156">
        <ele>622</ele>
        <time>2021-03-13T14:52:20Z</time>
      </trkpt>
      <trkpt lat="42.98532" lon="0.78153">
        <ele>622</ele>
        <time>2021-03-13T14:52:21Z</time>
      </trkpt>
      <trkpt lat="42.98531" lon="0.7815">
        <ele>622</ele>
        <time>2021-03-13T14:52:22Z</time>
      </trkpt>
      <trkpt lat="42.98532" lon="0.78147">
        <ele>622</ele>
        <time>2021-03-13T14:52:23Z</time>
      </trkpt>
      <trkpt lat="42.98533" lon="0.78144">
        <ele>622</ele>
        <time>2021-03-13T14:52:24Z</time>
      </trkpt>
      <trkpt lat="42.98534" lon="0.78141">
        <ele>622</ele>
        <time>2021-03-13T14:52:25Z</time>
      </trkpt>
      <trkpt lat="42.98534" lon="0.78137">
        <ele>622</ele>
        <time>2021-03-13T14:52:26Z</time>
      </trkpt>
      <trkpt lat="42.98535" lon="0.78134">
        <ele>622</ele>
        <time>2021-03-13T14:52:27Z</time>
      </trkpt>
      <trkpt lat="42.98535" lon="0.78131">
        <ele>622</ele>
        <time>2021-03-13T14:52:28Z</time>
      </trkpt>
      <trkpt lat="42.98535" lon="0.78128">
        <ele>622</ele>
        <time>2021-03-13T14:52:29Z</time>
      </trkpt>
      <trkpt lat="42.98535" lon="0.78125">
        <ele>623</ele>
        <time>2021-03-13T14:52:30Z</time>
      </trkpt>
      <trkpt lat="42.98535" lon="0.78122">
        <ele>623</ele>
        <time>2021-03-13T14:52:31Z</time>
      </trkpt>
      <trkpt lat="42.98535" lon="0.78118">
        <ele>623</ele>
        <time>2021-03-13T14:52:32Z</time>
      </trkpt>
      <trkpt lat="42.98535" lon="0.78115">
        <ele>623</ele>
        <time>2021-03-13T14:52:33Z</time>
      </trkpt>
      <trkpt lat="42.98534" lon="0.78112">
        <ele>623</ele>
        <time>2021-03-13T14:52:34Z</time>
      </trkpt>
      <trkpt lat="42.98534" lon="0.78109">
        <ele>623</ele>
        <time>2021-03-13T14:52:35Z</time>
      </trkpt>
      <trkpt lat="42.98534" lon="0.78106">
        <ele>623</ele>
        <time>2021-03-13T14:52:36Z</time>
      </trkpt>
      <trkpt lat="42.98533" lon="0.78103">
        <ele>623</ele>
        <time>2021-03-13T14:52:37Z</time>
      </trkpt>
      <trkpt lat="42.98533" lon="0.78099">
        <ele>623</ele>
        <time>2021-03-13T14:52:38Z</time>
      </trkpt>
      <trkpt lat="42.98533" lon="0.78096">
        <ele>623</ele>
        <time>2021-03-13T14:52:39Z</time>
      </trkpt>
      <trkpt lat="42.98532" lon="0.78093">
        <ele>626</ele>
        <time>2021-03-13T14:52:40Z</time>
      </trkpt>
      <trkpt lat="42.98532" lon="0.7809">
        <ele>626</ele>
        <time>2021-03-13T14:52:41Z</time>
      </trkpt>
      <trkpt lat="42.98531" lon="0.78087">
        <ele>626</ele>
        <time>2021-03-13T14:52:42Z</time>
      </trkpt>
      <trkpt lat="42.98532" lon="0.78084">
        <ele>626</ele>
        <time>2021-03-13T14:52:43Z</time>
      </trkpt>
      <trkpt lat="42.98532" lon="0.78081">
        <ele>626</ele>
        <time>2021-03-13T14:52:44Z</time>
      </trkpt>
      <trkpt lat="42.98532" lon="0.78078">
        <ele>627</ele>
        <time>2021-03-13T14:52:45Z</time>
      </trkpt>
      <trkpt lat="42.98532" lon="0.78075">
        <ele>627</ele>
        <time>2021-03-13T14:52:46Z</time>
      </trkpt>
      <trkpt lat="42.98532" lon="0.78072">
        <ele>627</ele>
        <time>2021-03-13T14:52:47Z</time>
      </trkpt>
      <trkpt lat="42.98532" lon="0.78069">
        <ele>627</ele>
        <time>2021-03-13T14:52:48Z</time>
      </trkpt>
      <trkpt lat="42.98532" lon="0.78066">
        <ele>627</ele>
        <time>2021-03-13T14:52:49Z</time>
      </trkpt>
      <trkpt lat="42.98532" lon="0.78063">
        <ele>629</ele>
        <time>2021-03-13T14:52:50Z</time>
      </trkpt>
      <trkpt lat="42.98531" lon="0.7806">
        <ele>629</ele>
        <time>2021-03-13T14:52:51Z</time>
      </trkpt>
      <trkpt lat="42.98531" lon="0.78056">
        <ele>629</ele>
        <time>2021-03-13T14:52:52Z</time>
      </trkpt>
      <trkpt lat="42.98531" lon="0.78053">
        <ele>629</ele>
        <time>2021-03-13T14:52:53Z</time>
      </trkpt>
      <trkpt lat="42.98531" lon="0.7805">
        <ele>629</ele>
        <time>2021-03-13T14:52:54Z</time>
      </trkpt>
      <trkpt lat="42.98531" lon="0.78048">
        <ele>630</ele>
        <time>2021-03-13T14:52:55Z</time>
      </trkpt>
      <trkpt lat="42.98531" lon="0.78045">
        <ele>630</ele>
        <time>2021-03-13T14:52:56Z</time>
      </trkpt>
      <trkpt lat="42.98531" lon="0.78042">
        <ele>630</ele>
        <time>2021-03-13T14:52:57Z</time>
      </trkpt>
      <trkpt lat="42.98531" lon="0.78038">
        <ele>630</ele>
        <time>2021-03-13T14:52:58Z</time>
      </trkpt>
      <trkpt lat="42.9853" lon="0.78035">
        <ele>630</ele>
        <time>2021-03-13T14:52:59Z</time>
      </trkpt>
      <trkpt lat="42.9853" lon="0.78032">
        <ele>632</ele>
        <time>2021-03-13T14:53:00Z</time>
      </trkpt>
      <trkpt lat="42.9853" lon="0.78029">
        <ele>632</ele>
        <time>2021-03-13T14:53:01Z</time>
      </trkpt>
      <trkpt lat="42.9853" lon="0.78026">
        <ele>632</ele>
        <time>2021-03-13T14:53:02Z</time>
      </trkpt>
      <trkpt lat="42.98529" lon="0.78023">
        <ele>632</ele>
        <time>2021-03-13T14:53:03Z</time>
      </trkpt>
      <trkpt lat="42.98528" lon="0.78019">
        <ele>632</ele>
        <time>2021-03-13T14:53:04Z</time>
      </trkpt>
      <trkpt lat="42.98528" lon="0.78016">
        <ele>633</ele>
        <time>2021-03-13T14:53:05Z</time>
      </trkpt>
      <trkpt lat="42.98527" lon="0.78013">
        <ele>633</ele>
        <time>2021-03-13T14:53:06Z</time>
      </trkpt>
      <trkpt lat="42.98527" lon="0.7801">
        <ele>633</ele>
        <time>2021-03-13T14:53:07Z</time>
      </trkpt>
      <trkpt lat="42.98526" lon="0.78007">
        <ele>633</ele>
        <time>2021-03-13T14:53:08Z</time>
      </trkpt>
      <trkpt lat="42.98526" lon="0.78004">
        <ele>633</ele>
        <time>2021-03-13T14:53:09Z</time>
      </trkpt>
      <trkpt lat="42.98526" lon="0.78001">
        <ele>634</ele>
        <time>2021-03-13T14:53:10Z</time>
      </trkpt>
      <trkpt lat="42.98526" lon="0.77998">
        <ele>634</ele>
        <time>2021-03-13T14:53:11Z</time>
      </trkpt>
      <trkpt lat="42.98525" lon="0.77995">
        <ele>634</ele>
        <time>2021-03-13T14:53:12Z</time>
      </trkpt>
      <trkpt lat="42.98525" lon="0.77991">
        <ele>634</ele>
        <time>2021-03-13T14:53:13Z</time>
      </trkpt>
      <trkpt lat="42.98525" lon="0.77988">
        <ele>634</ele>
        <time>2021-03-13T14:53:14Z</time>
      </trkpt>
      <trkpt lat="42.98524" lon="0.77985">
        <ele>636</ele>
        <time>2021-03-13T14:53:15Z</time>
      </trkpt>
      <trkpt lat="42.98524" lon="0.77982">
        <ele>636</ele>
        <time>2021-03-13T14:53:16Z</time>
      </trkpt>
      <trkpt lat="42.98524" lon="0.77979">
        <ele>636</ele>
        <time>2021-03-13T14:53:17Z</time>
      </trkpt>
      <trkpt lat="42.98524" lon="0.77976">
        <ele>636</ele>
        <time>2021-03-13T14:53:18Z</time>
      </trkpt>
      <trkpt lat="42.98524" lon="0.77972">
        <ele>636</ele>
        <time>2021-03-13T14:53:19Z</time>
      </trkpt>
      <trkpt lat="42.98524" lon="0.77969">
        <ele>637</ele>
        <time>2021-03-13T14:53:20Z</time>
      </trkpt>
      <trkpt lat="42.98524" lon="0.77966">
        <ele>637</ele>
        <time>2021-03-13T14:53:21Z</time>
      </trkpt>
      <trkpt lat="42.98524" lon="0.77963">
        <ele>637</ele>
        <time>2021-03-13T14:53:22Z</time>
      </trkpt>
      <trkpt lat="42.98525" lon="0.7796">
        <ele>637</ele>
        <time>2021-03-13T14:53:23Z</time>
      </trkpt>
      <trkpt lat="42.98527" lon="0.77957">
        <ele>637</ele>
        <time>2021-03-13T14:53:24Z</time>
      </trkpt>
      <trkpt lat="42.98528" lon="0.77954">
        <ele>637</ele>
        <time>2021-03-13T14:53:25Z</time>
      </trkpt>
      <trkpt lat="42.98529" lon="0.77951">
        <ele>637</ele>
        <time>2021-03-13T14:53:26Z</time>
      </trkpt>
      <trkpt lat="42.9853" lon="0.77948">
        <ele>637</ele>
        <time>2021-03-13T14:53:27Z</time>
      </trkpt>
      <trkpt lat="42.9853" lon="0.77945">
        <ele>637</ele>
        <time>2021-03-13T14:53:28Z</time>
      </trkpt>
      <trkpt lat="42.98531" lon="0.77943">
        <ele>637</ele>
        <time>2021-03-13T14:53:29Z</time>
      </trkpt>
      <trkpt lat="42.98531" lon="0.7794">
        <ele>639</ele>
        <time>2021-03-13T14:53:30Z</time>
      </trkpt>
      <trkpt lat="42.98532" lon="0.77937">
        <ele>639</ele>
        <time>2021-03-13T14:53:31Z</time>
      </trkpt>
      <trkpt lat="42.98533" lon="0.77934">
        <ele>639</ele>
        <time>2021-03-13T14:53:32Z</time>
      </trkpt>
      <trkpt lat="42.98534" lon="0.77931">
        <ele>639</ele>
        <time>2021-03-13T14:53:33Z</time>
      </trkpt>
      <trkpt lat="42.98535" lon="0.77928">
        <ele>639</ele>
        <time>2021-03-13T14:53:34Z</time>
      </trkpt>
      <trkpt lat="42.98536" lon="0.77926">
        <ele>639</ele>
        <time>2021-03-13T14:53:35Z</time>
      </trkpt>
      <trkpt lat="42.98537" lon="0.77923">
        <ele>639</ele>
        <time>2021-03-13T14:53:36Z</time>
      </trkpt>
      <trkpt lat="42.98537" lon="0.7792">
        <ele>639</ele>
        <time>2021-03-13T14:53:37Z</time>
      </trkpt>
      <trkpt lat="42.98538" lon="0.77917">
        <ele>639</ele>
        <time>2021-03-13T14:53:38Z</time>
      </trkpt>
      <trkpt lat="42.98539" lon="0.77915">
        <ele>639</ele>
        <time>2021-03-13T14:53:39Z</time>
      </trkpt>
      <trkpt lat="42.9854" lon="0.77912">
        <ele>641</ele>
        <time>2021-03-13T14:53:40Z</time>
      </trkpt>
      <trkpt lat="42.9854" lon="0.77909">
        <ele>641</ele>
        <time>2021-03-13T14:53:41Z</time>
      </trkpt>
      <trkpt lat="42.98541" lon="0.77906">
        <ele>641</ele>
        <time>2021-03-13T14:53:42Z</time>
      </trkpt>
      <trkpt lat="42.98541" lon="0.77904">
        <ele>641</ele>
        <time>2021-03-13T14:53:43Z</time>
      </trkpt>
      <trkpt lat="42.98542" lon="0.77901">
        <ele>641</ele>
        <time>2021-03-13T14:53:44Z</time>
      </trkpt>
      <trkpt lat="42.98542" lon="0.77898">
        <ele>641</ele>
        <time>2021-03-13T14:53:45Z</time>
      </trkpt>
      <trkpt lat="42.98543" lon="0.77896">
        <ele>641</ele>
        <time>2021-03-13T14:53:46Z</time>
      </trkpt>
      <trkpt lat="42.98544" lon="0.77893">
        <ele>641</ele>
        <time>2021-03-13T14:53:47Z</time>
      </trkpt>
      <trkpt lat="42.98545" lon="0.77891">
        <ele>641</ele>
        <time>2021-03-13T14:53:48Z</time>
      </trkpt>
      <trkpt lat="42.98546" lon="0.77889">
        <ele>641</ele>
        <time>2021-03-13T14:53:49Z</time>
      </trkpt>
      <trkpt lat="42.98547" lon="0.77887">
        <ele>643</ele>
        <time>2021-03-13T14:53:50Z</time>
      </trkpt>
      <trkpt lat="42.98548" lon="0.77885">
        <ele>643</ele>
        <time>2021-03-13T14:53:51Z</time>
      </trkpt>
      <trkpt lat="42.98549" lon="0.77883">
        <ele>643</ele>
        <time>2021-03-13T14:53:52Z</time>
      </trkpt>
      <trkpt lat="42.98551" lon="0.7788">
        <ele>643</ele>
        <time>2021-03-13T14:53:53Z</time>
      </trkpt>
      <trkpt lat="42.98553" lon="0.77877">
        <ele>643</ele>
        <time>2021-03-13T14:53:54Z</time>
      </trkpt>
      <trkpt lat="42.98555" lon="0.77875">
        <ele>644</ele>
        <time>2021-03-13T14:53:55Z</time>
      </trkpt>
      <trkpt lat="42.98556" lon="0.77872">
        <ele>644</ele>
        <time>2021-03-13T14:53:56Z</time>
      </trkpt>
      <trkpt lat="42.98558" lon="0.77869">
        <ele>644</ele>
        <time>2021-03-13T14:53:57Z</time>
      </trkpt>
      <trkpt lat="42.9856" lon="0.77867">
        <ele>644</ele>
        <time>2021-03-13T14:53:58Z</time>
      </trkpt>
      <trkpt lat="42.98562" lon="0.77864">
        <ele>644</ele>
        <time>2021-03-13T14:53:59Z</time>
      </trkpt>
      <trkpt lat="42.98564" lon="0.77861">
        <ele>646</ele>
        <time>2021-03-13T14:54:00Z</time>
      </trkpt>
      <trkpt lat="42.98566" lon="0.77859">
        <ele>646</ele>
        <time>2021-03-13T14:54:01Z</time>
      </trkpt>
      <trkpt lat="42.98568" lon="0.77857">
        <ele>646</ele>
        <time>2021-03-13T14:54:02Z</time>
      </trkpt>
      <trkpt lat="42.9857" lon="0.77855">
        <ele>646</ele>
        <time>2021-03-13T14:54:03Z</time>
      </trkpt>
      <trkpt lat="42.98573" lon="0.77852">
        <ele>646</ele>
        <time>2021-03-13T14:54:04Z</time>
      </trkpt>
      <trkpt lat="42.98575" lon="0.77849">
        <ele>646</ele>
        <time>2021-03-13T14:54:05Z</time>
      </trkpt>
      <trkpt lat="42.98577" lon="0.77846">
        <ele>646</ele>
        <time>2021-03-13T14:54:06Z</time>
      </trkpt>
      <trkpt lat="42.98578" lon="0.77843">
        <ele>646</ele>
        <time>2021-03-13T14:54:07Z</time>
      </trkpt>
      <trkpt lat="42.9858" lon="0.77841">
        <ele>646</ele>
        <time>2021-03-13T14:54:08Z</time>
      </trkpt>
      <trkpt lat="42.98581" lon="0.77838">
        <ele>646</ele>
        <time>2021-03-13T14:54:09Z</time>
      </trkpt>
      <trkpt lat="42.98582" lon="0.77835">
        <ele>648</ele>
        <time>2021-03-13T14:54:10Z</time>
      </trkpt>
      <trkpt lat="42.98583" lon="0.77832">
        <ele>648</ele>
        <time>2021-03-13T14:54:11Z</time>
      </trkpt>
      <trkpt lat="42.98584" lon="0.77829">
        <ele>648</ele>
        <time>2021-03-13T14:54:12Z</time>
      </trkpt>
      <trkpt lat="42.98585" lon="0.77826">
        <ele>648</ele>
        <time>2021-03-13T14:54:13Z</time>
      </trkpt>
      <trkpt lat="42.98585" lon="0.77823">
        <ele>648</ele>
        <time>2021-03-13T14:54:14Z</time>
      </trkpt>
      <trkpt lat="42.98585" lon="0.7782">
        <ele>648</ele>
        <time>2021-03-13T14:54:15Z</time>
      </trkpt>
      <trkpt lat="42.98585" lon="0.77818">
        <ele>648</ele>
        <time>2021-03-13T14:54:16Z</time>
      </trkpt>
      <trkpt lat="42.98585" lon="0.77815">
        <ele>648</ele>
        <time>2021-03-13T14:54:17Z</time>
      </trkpt>
      <trkpt lat="42.98585" lon="0.77812">
        <ele>648</ele>
        <time>2021-03-13T14:54:18Z</time>
      </trkpt>
      <trkpt lat="42.98585" lon="0.77811">
        <ele>648</ele>
        <time>2021-03-13T14:54:19Z</time>
      </trkpt>
      <trkpt lat="42.98585" lon="0.7781">
        <ele>650</ele>
        <time>2021-03-13T14:54:20Z</time>
      </trkpt>
      <trkpt lat="42.98585" lon="0.77809">
        <ele>650</ele>
        <time>2021-03-13T14:54:21Z</time>
      </trkpt>
      <trkpt lat="42.98585" lon="0.77807">
        <ele>650</ele>
        <time>2021-03-13T14:54:22Z</time>
      </trkpt>
      <trkpt lat="42.98585" lon="0.77806">
        <ele>650</ele>
        <time>2021-03-13T14:54:23Z</time>
      </trkpt>
      <trkpt lat="42.98585" lon="0.77805">
        <ele>650</ele>
        <time>2021-03-13T14:54:24Z</time>
      </trkpt>
      <trkpt lat="42.98584" lon="0.77795">
        <ele>650</ele>
        <time>2021-03-13T14:54:25Z</time>
      </trkpt>
      <trkpt lat="42.98584" lon="0.77793">
        <ele>650</ele>
        <time>2021-03-13T14:54:26Z</time>
      </trkpt>
      <trkpt lat="42.98585" lon="0.7779">
        <ele>650</ele>
        <time>2021-03-13T14:54:27Z</time>
      </trkpt>
      <trkpt lat="42.98585" lon="0.77787">
        <ele>650</ele>
        <time>2021-03-13T14:54:28Z</time>
      </trkpt>
      <trkpt lat="42.98585" lon="0.77785">
        <ele>650</ele>
        <time>2021-03-13T14:54:29Z</time>
      </trkpt>
      <trkpt lat="42.98586" lon="0.77783">
        <ele>653</ele>
        <time>2021-03-13T14:54:30Z</time>
      </trkpt>
      <trkpt lat="42.98586" lon="0.77782">
        <ele>653</ele>
        <time>2021-03-13T14:54:31Z</time>
      </trkpt>
      <trkpt lat="42.98586" lon="0.77781">
        <ele>653</ele>
        <time>2021-03-13T14:54:32Z</time>
      </trkpt>
      <trkpt lat="42.98586" lon="0.7778">
        <ele>653</ele>
        <time>2021-03-13T14:54:33Z</time>
      </trkpt>
      <trkpt lat="42.98586" lon="0.77778">
        <ele>653</ele>
        <time>2021-03-13T14:54:34Z</time>
      </trkpt>
      <trkpt lat="42.98587" lon="0.77777">
        <ele>654</ele>
        <time>2021-03-13T14:54:35Z</time>
      </trkpt>
      <trkpt lat="42.98588" lon="0.77768">
        <ele>654</ele>
        <time>2021-03-13T14:54:36Z</time>
      </trkpt>
      <trkpt lat="42.98588" lon="0.77767">
        <ele>654</ele>
        <time>2021-03-13T14:54:37Z</time>
      </trkpt>
      <trkpt lat="42.98587" lon="0.77765">
        <ele>654</ele>
        <time>2021-03-13T14:54:38Z</time>
      </trkpt>
      <trkpt lat="42.98587" lon="0.77764">
        <ele>654</ele>
        <time>2021-03-13T14:54:39Z</time>
      </trkpt>
      <trkpt lat="42.98587" lon="0.77763">
        <ele>655</ele>
        <time>2021-03-13T14:54:40Z</time>
      </trkpt>
      <trkpt lat="42.98587" lon="0.77761">
        <ele>655</ele>
        <time>2021-03-13T14:54:41Z</time>
      </trkpt>
      <trkpt lat="42.98587" lon="0.77751">
        <ele>655</ele>
        <time>2021-03-13T14:54:42Z</time>
      </trkpt>
      <trkpt lat="42.98587" lon="0.77749">
        <ele>655</ele>
        <time>2021-03-13T14:54:43Z</time>
      </trkpt>
      <trkpt lat="42.98587" lon="0.77747">
        <ele>655</ele>
        <time>2021-03-13T14:54:44Z</time>
      </trkpt>
      <trkpt lat="42.98588" lon="0.77745">
        <ele>655</ele>
        <time>2021-03-13T14:54:45Z</time>
      </trkpt>
      <trkpt lat="42.98588" lon="0.77743">
        <ele>655</ele>
        <time>2021-03-13T14:54:46Z</time>
      </trkpt>
      <trkpt lat="42.98588" lon="0.77741">
        <ele>655</ele>
        <time>2021-03-13T14:54:47Z</time>
      </trkpt>
      <trkpt lat="42.98588" lon="0.77739">
        <ele>655</ele>
        <time>2021-03-13T14:54:48Z</time>
      </trkpt>
      <trkpt lat="42.9859" lon="0.7774">
        <ele>655</ele>
        <time>2021-03-13T14:54:49Z</time>
      </trkpt>
      <trkpt lat="42.98591" lon="0.77741">
        <ele>657</ele>
        <time>2021-03-13T14:54:50Z</time>
      </trkpt>
      <trkpt lat="42.98593" lon="0.77742">
        <ele>657</ele>
        <time>2021-03-13T14:54:51Z</time>
      </trkpt>
      <trkpt lat="42.98594" lon="0.77743">
        <ele>657</ele>
        <time>2021-03-13T14:54:52Z</time>
      </trkpt>
      <trkpt lat="42.98596" lon="0.77744">
        <ele>657</ele>
        <time>2021-03-13T14:54:53Z</time>
      </trkpt>
      <trkpt lat="42.98597" lon="0.77745">
        <ele>657</ele>
        <time>2021-03-13T14:54:54Z</time>
      </trkpt>
      <trkpt lat="42.98598" lon="0.77745">
        <ele>657</ele>
        <time>2021-03-13T14:54:55Z</time>
      </trkpt>
      <trkpt lat="42.98599" lon="0.77746">
        <ele>657</ele>
        <time>2021-03-13T14:54:56Z</time>
      </trkpt>
      <trkpt lat="42.986" lon="0.77747">
        <ele>657</ele>
        <time>2021-03-13T14:54:57Z</time>
      </trkpt>
      <trkpt lat="42.98601" lon="0.77747">
        <ele>657</ele>
        <time>2021-03-13T14:54:58Z</time>
      </trkpt>
      <trkpt lat="42.98601" lon="0.77748">
        <ele>657</ele>
        <time>2021-03-13T14:54:59Z</time>
      </trkpt>
      <trkpt lat="42.98602" lon="0.77749">
        <ele>659</ele>
        <time>2021-03-13T14:55:00Z</time>
      </trkpt>
      <trkpt lat="42.98609" lon="0.77754">
        <ele>659</ele>
        <time>2021-03-13T14:55:01Z</time>
      </trkpt>
      <trkpt lat="42.98611" lon="0.77756">
        <ele>659</ele>
        <time>2021-03-13T14:55:02Z</time>
      </trkpt>
      <trkpt lat="42.98613" lon="0.77758">
        <ele>659</ele>
        <time>2021-03-13T14:55:03Z</time>
      </trkpt>
      <trkpt lat="42.98615" lon="0.77759">
        <ele>659</ele>
        <time>2021-03-13T14:55:04Z</time>
      </trkpt>
      <trkpt lat="42.98616" lon="0.7776">
        <ele>660</ele>
        <time>2021-03-13T14:55:05Z</time>
      </trkpt>
      <trkpt lat="42.98617" lon="0.77761">
        <ele>660</ele>
        <time>2021-03-13T14:55:06Z</time>
      </trkpt>
      <trkpt lat="42.98618" lon="0.77762">
        <ele>660</ele>
        <time>2021-03-13T14:55:07Z</time>
      </trkpt>
      <trkpt lat="42.98619" lon="0.77762">
        <ele>660</ele>
        <time>2021-03-13T14:55:08Z</time>
      </trkpt>
      <trkpt lat="42.98627" lon="0.77768">
        <ele>660</ele>
        <time>2021-03-13T14:55:09Z</time>
      </trkpt>
      <trkpt lat="42.9863" lon="0.7777">
        <ele>661</ele>
        <time>2021-03-13T14:55:10Z</time>
      </trkpt>
      <trkpt lat="42.98633" lon="0.77772">
        <ele>661</ele>
        <time>2021-03-13T14:55:11Z</time>
      </trkpt>
      <trkpt lat="42.98634" lon="0.77773">
        <ele>661</ele>
        <time>2021-03-13T14:55:12Z</time>
      </trkpt>
      <trkpt lat="42.98636" lon="0.77775">
        <ele>661</ele>
        <time>2021-03-13T14:55:13Z</time>
      </trkpt>
      <trkpt lat="42.98637" lon="0.77776">
        <ele>661</ele>
        <time>2021-03-13T14:55:14Z</time>
      </trkpt>
      <trkpt lat="42.98638" lon="0.77778">
        <ele>661</ele>
        <time>2021-03-13T14:55:15Z</time>
      </trkpt>
      <trkpt lat="42.9864" lon="0.77779">
        <ele>661</ele>
        <time>2021-03-13T14:55:16Z</time>
      </trkpt>
      <trkpt lat="42.98641" lon="0.77781">
        <ele>661</ele>
        <time>2021-03-13T14:55:17Z</time>
      </trkpt>
      <trkpt lat="42.98642" lon="0.77782">
        <ele>661</ele>
        <time>2021-03-13T14:55:18Z</time>
      </trkpt>
      <trkpt lat="42.98642" lon="0.77782">
        <ele>661</ele>
        <time>2021-03-13T14:55:19Z</time>
      </trkpt>
      <trkpt lat="42.98643" lon="0.77783">
        <ele>663</ele>
        <time>2021-03-13T14:55:20Z</time>
      </trkpt>
      <trkpt lat="42.98643" lon="0.77784">
        <ele>663</ele>
        <time>2021-03-13T14:55:21Z</time>
      </trkpt>
      <trkpt lat="42.98644" lon="0.77785">
        <ele>663</ele>
        <time>2021-03-13T14:55:22Z</time>
      </trkpt>
      <trkpt lat="42.98644" lon="0.77786">
        <ele>663</ele>
        <time>2021-03-13T14:55:23Z</time>
      </trkpt>
      <trkpt lat="42.98649" lon="0.77793">
        <ele>663</ele>
        <time>2021-03-13T14:55:24Z</time>
      </trkpt>
      <trkpt lat="42.9865" lon="0.77795">
        <ele>663</ele>
        <time>2021-03-13T14:55:25Z</time>
      </trkpt>
      <trkpt lat="42.98652" lon="0.77796">
        <ele>663</ele>
        <time>2021-03-13T14:55:26Z</time>
      </trkpt>
      <trkpt lat="42.98653" lon="0.77798">
        <ele>663</ele>
        <time>2021-03-13T14:55:27Z</time>
      </trkpt>
      <trkpt lat="42.98654" lon="0.778">
        <ele>663</ele>
        <time>2021-03-13T14:55:28Z</time>
      </trkpt>
      <trkpt lat="42.98656" lon="0.77802">
        <ele>663</ele>
        <time>2021-03-13T14:55:29Z</time>
      </trkpt>
      <trkpt lat="42.98657" lon="0.77804">
        <ele>666</ele>
        <time>2021-03-13T14:55:30Z</time>
      </trkpt>
      <trkpt lat="42.98659" lon="0.77806">
        <ele>666</ele>
        <time>2021-03-13T14:55:31Z</time>
      </trkpt>
      <trkpt lat="42.9866" lon="0.77809">
        <ele>666</ele>
        <time>2021-03-13T14:55:32Z</time>
      </trkpt>
      <trkpt lat="42.98661" lon="0.7781">
        <ele>666</ele>
        <time>2021-03-13T14:55:33Z</time>
      </trkpt>
      <trkpt lat="42.98662" lon="0.77811">
        <ele>666</ele>
        <time>2021-03-13T14:55:34Z</time>
      </trkpt>
      <trkpt lat="42.98662" lon="0.77811">
        <ele>667</ele>
        <time>2021-03-13T14:55:35Z</time>
      </trkpt>
      <trkpt lat="42.98663" lon="0.77812">
        <ele>667</ele>
        <time>2021-03-13T14:55:36Z</time>
      </trkpt>
      <trkpt lat="42.98664" lon="0.77813">
        <ele>667</ele>
        <time>2021-03-13T14:55:37Z</time>
      </trkpt>
      <trkpt lat="42.98668" lon="0.7782">
        <ele>667</ele>
        <time>2021-03-13T14:55:38Z</time>
      </trkpt>
      <trkpt lat="42.9867" lon="0.77822">
        <ele>667</ele>
        <time>2021-03-13T14:55:39Z</time>
      </trkpt>
      <trkpt lat="42.98671" lon="0.77825">
        <ele>668</ele>
        <time>2021-03-13T14:55:40Z</time>
      </trkpt>
      <trkpt lat="42.98672" lon="0.77827">
        <ele>668</ele>
        <time>2021-03-13T14:55:41Z</time>
      </trkpt>
      <trkpt lat="42.98674" lon="0.77829">
        <ele>668</ele>
        <time>2021-03-13T14:55:42Z</time>
      </trkpt>
      <trkpt lat="42.98675" lon="0.77831">
        <ele>668</ele>
        <time>2021-03-13T14:55:43Z</time>
      </trkpt>
      <trkpt lat="42.98676" lon="0.77833">
        <ele>668</ele>
        <time>2021-03-13T14:55:44Z</time>
      </trkpt>
      <trkpt lat="42.98678" lon="0.77835">
        <ele>669</ele>
        <time>2021-03-13T14:55:45Z</time>
      </trkpt>
      <trkpt lat="42.98679" lon="0.77837">
        <ele>669</ele>
        <time>2021-03-13T14:55:46Z</time>
      </trkpt>
      <trkpt lat="42.9868" lon="0.77839">
        <ele>669</ele>
        <time>2021-03-13T14:55:47Z</time>
      </trkpt>
      <trkpt lat="42.98681" lon="0.77841">
        <ele>669</ele>
        <time>2021-03-13T14:55:48Z</time>
      </trkpt>
      <trkpt lat="42.98682" lon="0.77844">
        <ele>669</ele>
        <time>2021-03-13T14:55:49Z</time>
      </trkpt>
      <trkpt lat="42.98683" lon="0.77846">
        <ele>670</ele>
        <time>2021-03-13T14:55:50Z</time>
      </trkpt>
      <trkpt lat="42.98684" lon="0.77849">
        <ele>670</ele>
        <time>2021-03-13T14:55:51Z</time>
      </trkpt>
      <trkpt lat="42.98685" lon="0.77851">
        <ele>670</ele>
        <time>2021-03-13T14:55:52Z</time>
      </trkpt>
      <trkpt lat="42.98686" lon="0.77854">
        <ele>670</ele>
        <time>2021-03-13T14:55:53Z</time>
      </trkpt>
      <trkpt lat="42.98687" lon="0.77856">
        <ele>670</ele>
        <time>2021-03-13T14:55:54Z</time>
      </trkpt>
      <trkpt lat="42.98688" lon="0.77859">
        <ele>670</ele>
        <time>2021-03-13T14:55:55Z</time>
      </trkpt>
      <trkpt lat="42.98689" lon="0.77861">
        <ele>670</ele>
        <time>2021-03-13T14:55:56Z</time>
      </trkpt>
      <trkpt lat="42.98689" lon="0.77862">
        <ele>670</ele>
        <time>2021-03-13T14:55:57Z</time>
      </trkpt>
      <trkpt lat="42.98689" lon="0.77864">
        <ele>670</ele>
        <time>2021-03-13T14:55:58Z</time>
      </trkpt>
      <trkpt lat="42.9869" lon="0.77866">
        <ele>670</ele>
        <time>2021-03-13T14:55:59Z</time>
      </trkpt>
      <trkpt lat="42.98692" lon="0.77874">
        <ele>672</ele>
        <time>2021-03-13T14:56:00Z</time>
      </trkpt>
      <trkpt lat="42.98693" lon="0.77876">
        <ele>672</ele>
        <time>2021-03-13T14:56:01Z</time>
      </trkpt>
      <trkpt lat="42.98693" lon="0.77878">
        <ele>672</ele>
        <time>2021-03-13T14:56:02Z</time>
      </trkpt>
      <trkpt lat="42.98694" lon="0.77879">
        <ele>672</ele>
        <time>2021-03-13T14:56:03Z</time>
      </trkpt>
      <trkpt lat="42.98697" lon="0.77889">
        <ele>672</ele>
        <time>2021-03-13T14:56:04Z</time>
      </trkpt>
      <trkpt lat="42.98698" lon="0.77892">
        <ele>672</ele>
        <time>2021-03-13T14:56:05Z</time>
      </trkpt>
      <trkpt lat="42.987" lon="0.77895">
        <ele>672</ele>
        <time>2021-03-13T14:56:06Z</time>
      </trkpt>
      <trkpt lat="42.98701" lon="0.77898">
        <ele>672</ele>
        <time>2021-03-13T14:56:07Z</time>
      </trkpt>
      <trkpt lat="42.98702" lon="0.77901">
        <ele>672</ele>
        <time>2021-03-13T14:56:08Z</time>
      </trkpt>
      <trkpt lat="42.98703" lon="0.77904">
        <ele>672</ele>
        <time>2021-03-13T14:56:09Z</time>
      </trkpt>
      <trkpt lat="42.98705" lon="0.77907">
        <ele>674</ele>
        <time>2021-03-13T14:56:10Z</time>
      </trkpt>
      <trkpt lat="42.98706" lon="0.77909">
        <ele>674</ele>
        <time>2021-03-13T14:56:11Z</time>
      </trkpt>
      <trkpt lat="42.98708" lon="0.77912">
        <ele>674</ele>
        <time>2021-03-13T14:56:12Z</time>
      </trkpt>
      <trkpt lat="42.9871" lon="0.77914">
        <ele>674</ele>
        <time>2021-03-13T14:56:13Z</time>
      </trkpt>
      <trkpt lat="42.98712" lon="0.77917">
        <ele>674</ele>
        <time>2021-03-13T14:56:14Z</time>
      </trkpt>
      <trkpt lat="42.98714" lon="0.77919">
        <ele>674</ele>
        <time>2021-03-13T14:56:15Z</time>
      </trkpt>
      <trkpt lat="42.98715" lon="0.77922">
        <ele>674</ele>
        <time>2021-03-13T14:56:16Z</time>
      </trkpt>
      <trkpt lat="42.98717" lon="0.77924">
        <ele>674</ele>
        <time>2021-03-13T14:56:17Z</time>
      </trkpt>
      <trkpt lat="42.98719" lon="0.77926">
        <ele>674</ele>
        <time>2021-03-13T14:56:18Z</time>
      </trkpt>
      <trkpt lat="42.9872" lon="0.77927">
        <ele>674</ele>
        <time>2021-03-13T14:56:19Z</time>
      </trkpt>
      <trkpt lat="42.98721" lon="0.77928">
        <ele>674</ele>
        <time>2021-03-13T14:56:20Z</time>
      </trkpt>
      <trkpt lat="42.98723" lon="0.7793">
        <ele>674</ele>
        <time>2021-03-13T14:56:21Z</time>
      </trkpt>
      <trkpt lat="42.9873" lon="0.77936">
        <ele>674</ele>
        <time>2021-03-13T14:56:22Z</time>
      </trkpt>
      <trkpt lat="42.98732" lon="0.77937">
        <ele>674</ele>
        <time>2021-03-13T14:56:23Z</time>
      </trkpt>
      <trkpt lat="42.98733" lon="0.77938">
        <ele>674</ele>
        <time>2021-03-13T14:56:24Z</time>
      </trkpt>
      <trkpt lat="42.98739" lon="0.77943">
        <ele>674</ele>
        <time>2021-03-13T14:56:25Z</time>
      </trkpt>
      <trkpt lat="42.9874" lon="0.77944">
        <ele>674</ele>
        <time>2021-03-13T14:56:26Z</time>
      </trkpt>
      <trkpt lat="42.98742" lon="0.77945">
        <ele>674</ele>
        <time>2021-03-13T14:56:27Z</time>
      </trkpt>
      <trkpt lat="42.98743" lon="0.77946">
        <ele>674</ele>
        <time>2021-03-13T14:56:28Z</time>
      </trkpt>
      <trkpt lat="42.98749" lon="0.7795">
        <ele>674</ele>
        <time>2021-03-13T14:56:29Z</time>
      </trkpt>
      <trkpt lat="42.9875" lon="0.77951">
        <ele>674</ele>
        <time>2021-03-13T14:56:30Z</time>
      </trkpt>
      <trkpt lat="42.98751" lon="0.77951">
        <ele>674</ele>
        <time>2021-03-13T14:56:31Z</time>
      </trkpt>
      <trkpt lat="42.98753" lon="0.77952">
        <ele>674</ele>
        <time>2021-03-13T14:56:32Z</time>
      </trkpt>
      <trkpt lat="42.98754" lon="0.77952">
        <ele>674</ele>
        <time>2021-03-13T14:56:33Z</time>
      </trkpt>
      <trkpt lat="42.98761" lon="0.77955">
        <ele>674</ele>
        <time>2021-03-13T14:56:34Z</time>
      </trkpt>
      <trkpt lat="42.98762" lon="0.77955">
        <ele>674</ele>
        <time>2021-03-13T14:56:35Z</time>
      </trkpt>
      <trkpt lat="42.98763" lon="0.77955">
        <ele>674</ele>
        <time>2021-03-13T14:56:36Z</time>
      </trkpt>
      <trkpt lat="42.98764" lon="0.77955">
        <ele>674</ele>
        <time>2021-03-13T14:56:37Z</time>
      </trkpt>
      <trkpt lat="42.98766" lon="0.77955">
        <ele>674</ele>
        <time>2021-03-13T14:56:38Z</time>
      </trkpt>
      <trkpt lat="42.98774" lon="0.77955">
        <ele>674</ele>
        <time>2021-03-13T14:56:39Z</time>
      </trkpt>
      <trkpt lat="42.98777" lon="0.77955">
        <ele>674</ele>
        <time>2021-03-13T14:56:40Z</time>
      </trkpt>
      <trkpt lat="42.98779" lon="0.77954">
        <ele>674</ele>
        <time>2021-03-13T14:56:41Z</time>
      </trkpt>
      <trkpt lat="42.98782" lon="0.77954">
        <ele>674</ele>
        <time>2021-03-13T14:56:42Z</time>
      </trkpt>
      <trkpt lat="42.98783" lon="0.77953">
        <ele>674</ele>
        <time>2021-03-13T14:56:43Z</time>
      </trkpt>
      <trkpt lat="42.98784" lon="0.77952">
        <ele>674</ele>
        <time>2021-03-13T14:56:44Z</time>
      </trkpt>
      <trkpt lat="42.98785" lon="0.7795">
        <ele>674</ele>
        <time>2021-03-13T14:56:45Z</time>
      </trkpt>
      <trkpt lat="42.98786" lon="0.77949">
        <ele>674</ele>
        <time>2021-03-13T14:56:46Z</time>
      </trkpt>
      <trkpt lat="42.98786" lon="0.77948">
        <ele>674</ele>
        <time>2021-03-13T14:56:47Z</time>
      </trkpt>
      <trkpt lat="42.98792" lon="0.77942">
        <ele>674</ele>
        <time>2021-03-13T14:56:48Z</time>
      </trkpt>
      <trkpt lat="42.98793" lon="0.77941">
        <ele>674</ele>
        <time>2021-03-13T14:56:49Z</time>
      </trkpt>
      <trkpt lat="42.98794" lon="0.77941">
        <ele>676</ele>
        <time>2021-03-13T14:56:50Z</time>
      </trkpt>
      <trkpt lat="42.98795" lon="0.7794">
        <ele>676</ele>
        <time>2021-03-13T14:56:51Z</time>
      </trkpt>
      <trkpt lat="42.98796" lon="0.77939">
        <ele>676</ele>
        <time>2021-03-13T14:56:52Z</time>
      </trkpt>
      <trkpt lat="42.98802" lon="0.77935">
        <ele>676</ele>
        <time>2021-03-13T14:56:53Z</time>
      </trkpt>
      <trkpt lat="42.98803" lon="0.77935">
        <ele>676</ele>
        <time>2021-03-13T14:56:54Z</time>
      </trkpt>
      <trkpt lat="42.98805" lon="0.77935">
        <ele>676</ele>
        <time>2021-03-13T14:56:55Z</time>
      </trkpt>
      <trkpt lat="42.98806" lon="0.77934">
        <ele>676</ele>
        <time>2021-03-13T14:56:56Z</time>
      </trkpt>
      <trkpt lat="42.98807" lon="0.77934">
        <ele>676</ele>
        <time>2021-03-13T14:56:57Z</time>
      </trkpt>
      <trkpt lat="42.98816" lon="0.77932">
        <ele>676</ele>
        <time>2021-03-13T14:56:58Z</time>
      </trkpt>
      <trkpt lat="42.9882" lon="0.77931">
        <ele>676</ele>
        <time>2021-03-13T14:56:59Z</time>
      </trkpt>
      <trkpt lat="42.98823" lon="0.7793">
        <ele>677</ele>
        <time>2021-03-13T14:57:00Z</time>
      </trkpt>
      <trkpt lat="42.98826" lon="0.7793">
        <ele>677</ele>
        <time>2021-03-13T14:57:01Z</time>
      </trkpt>
      <trkpt lat="42.98829" lon="0.77929">
        <ele>677</ele>
        <time>2021-03-13T14:57:02Z</time>
      </trkpt>
      <trkpt lat="42.98833" lon="0.77929">
        <ele>677</ele>
        <time>2021-03-13T14:57:03Z</time>
      </trkpt>
      <trkpt lat="42.98836" lon="0.77928">
        <ele>677</ele>
        <time>2021-03-13T14:57:04Z</time>
      </trkpt>
      <trkpt lat="42.98839" lon="0.77928">
        <ele>677</ele>
        <time>2021-03-13T14:57:05Z</time>
      </trkpt>
      <trkpt lat="42.98841" lon="0.77927">
        <ele>677</ele>
        <time>2021-03-13T14:57:06Z</time>
      </trkpt>
      <trkpt lat="42.98844" lon="0.77927">
        <ele>677</ele>
        <time>2021-03-13T14:57:07Z</time>
      </trkpt>
      <trkpt lat="42.98847" lon="0.77927">
        <ele>677</ele>
        <time>2021-03-13T14:57:08Z</time>
      </trkpt>
      <trkpt lat="42.98849" lon="0.77926">
        <ele>677</ele>
        <time>2021-03-13T14:57:09Z</time>
      </trkpt>
      <trkpt lat="42.98853" lon="0.77926">
        <ele>677</ele>
        <time>2021-03-13T14:57:10Z</time>
      </trkpt>
      <trkpt lat="42.98856" lon="0.77925">
        <ele>677</ele>
        <time>2021-03-13T14:57:11Z</time>
      </trkpt>
      <trkpt lat="42.9886" lon="0.77925">
        <ele>677</ele>
        <time>2021-03-13T14:57:12Z</time>
      </trkpt>
      <trkpt lat="42.98863" lon="0.77925">
        <ele>677</ele>
        <time>2021-03-13T14:57:13Z</time>
      </trkpt>
      <trkpt lat="42.98866" lon="0.77925">
        <ele>677</ele>
        <time>2021-03-13T14:57:14Z</time>
      </trkpt>
      <trkpt lat="42.98869" lon="0.77925">
        <ele>677</ele>
        <time>2021-03-13T14:57:15Z</time>
      </trkpt>
      <trkpt lat="42.98871" lon="0.77925">
        <ele>677</ele>
        <time>2021-03-13T14:57:16Z</time>
      </trkpt>
      <trkpt lat="42.98873" lon="0.77925">
        <ele>677</ele>
        <time>2021-03-13T14:57:17Z</time>
      </trkpt>
      <trkpt lat="42.98875" lon="0.77924">
        <ele>677</ele>
        <time>2021-03-13T14:57:18Z</time>
      </trkpt>
      <trkpt lat="42.98878" lon="0.77923">
        <ele>677</ele>
        <time>2021-03-13T14:57:19Z</time>
      </trkpt>
      <trkpt lat="42.9888" lon="0.77922">
        <ele>678</ele>
        <time>2021-03-13T14:57:20Z</time>
      </trkpt>
      <trkpt lat="42.98883" lon="0.77921">
        <ele>678</ele>
        <time>2021-03-13T14:57:21Z</time>
      </trkpt>
      <trkpt lat="42.98885" lon="0.7792">
        <ele>678</ele>
        <time>2021-03-13T14:57:22Z</time>
      </trkpt>
      <trkpt lat="42.98888" lon="0.77919">
        <ele>678</ele>
        <time>2021-03-13T14:57:23Z</time>
      </trkpt>
      <trkpt lat="42.9889" lon="0.77918">
        <ele>678</ele>
        <time>2021-03-13T14:57:24Z</time>
      </trkpt>
      <trkpt lat="42.98893" lon="0.77918">
        <ele>678</ele>
        <time>2021-03-13T14:57:25Z</time>
      </trkpt>
      <trkpt lat="42.98896" lon="0.77917">
        <ele>678</ele>
        <time>2021-03-13T14:57:26Z</time>
      </trkpt>
      <trkpt lat="42.98899" lon="0.77916">
        <ele>678</ele>
        <time>2021-03-13T14:57:27Z</time>
      </trkpt>
      <trkpt lat="42.98902" lon="0.77916">
        <ele>678</ele>
        <time>2021-03-13T14:57:28Z</time>
      </trkpt>
      <trkpt lat="42.98905" lon="0.77915">
        <ele>678</ele>
        <time>2021-03-13T14:57:29Z</time>
      </trkpt>
      <trkpt lat="42.98908" lon="0.77915">
        <ele>680</ele>
        <time>2021-03-13T14:57:30Z</time>
      </trkpt>
      <trkpt lat="42.98911" lon="0.77915">
        <ele>680</ele>
        <time>2021-03-13T14:57:31Z</time>
      </trkpt>
      <trkpt lat="42.98914" lon="0.77915">
        <ele>680</ele>
        <time>2021-03-13T14:57:32Z</time>
      </trkpt>
      <trkpt lat="42.98916" lon="0.77914">
        <ele>680</ele>
        <time>2021-03-13T14:57:33Z</time>
      </trkpt>
      <trkpt lat="42.98919" lon="0.77914">
        <ele>680</ele>
        <time>2021-03-13T14:57:34Z</time>
      </trkpt>
      <trkpt lat="42.98921" lon="0.77913">
        <ele>680</ele>
        <time>2021-03-13T14:57:35Z</time>
      </trkpt>
      <trkpt lat="42.98923" lon="0.77912">
        <ele>680</ele>
        <time>2021-03-13T14:57:36Z</time>
      </trkpt>
      <trkpt lat="42.98925" lon="0.77911">
        <ele>680</ele>
        <time>2021-03-13T14:57:37Z</time>
      </trkpt>
      <trkpt lat="42.98927" lon="0.7791">
        <ele>680</ele>
        <time>2021-03-13T14:57:38Z</time>
      </trkpt>
      <trkpt lat="42.9893" lon="0.77909">
        <ele>680</ele>
        <time>2021-03-13T14:57:39Z</time>
      </trkpt>
      <trkpt lat="42.98932" lon="0.77907">
        <ele>680</ele>
        <time>2021-03-13T14:57:40Z</time>
      </trkpt>
      <trkpt lat="42.98934" lon="0.77906">
        <ele>680</ele>
        <time>2021-03-13T14:57:41Z</time>
      </trkpt>
      <trkpt lat="42.98937" lon="0.77906">
        <ele>680</ele>
        <time>2021-03-13T14:57:42Z</time>
      </trkpt>
      <trkpt lat="42.98939" lon="0.77905">
        <ele>680</ele>
        <time>2021-03-13T14:57:43Z</time>
      </trkpt>
      <trkpt lat="42.98942" lon="0.77904">
        <ele>680</ele>
        <time>2021-03-13T14:57:44Z</time>
      </trkpt>
      <trkpt lat="42.98945" lon="0.77903">
        <ele>680</ele>
        <time>2021-03-13T14:57:45Z</time>
      </trkpt>
      <trkpt lat="42.98947" lon="0.77902">
        <ele>680</ele>
        <time>2021-03-13T14:57:46Z</time>
      </trkpt>
      <trkpt lat="42.98954" lon="0.77901">
        <ele>680</ele>
        <time>2021-03-13T14:57:47Z</time>
      </trkpt>
      <trkpt lat="42.98954" lon="0.77901">
        <ele>680</ele>
        <time>2021-03-13T14:57:48Z</time>
      </trkpt>
      <trkpt lat="42.98957" lon="0.77902">
        <ele>680</ele>
        <time>2021-03-13T14:57:49Z</time>
      </trkpt>
      <trkpt lat="42.9896" lon="0.77903">
        <ele>681</ele>
        <time>2021-03-13T14:57:50Z</time>
      </trkpt>
      <trkpt lat="42.98963" lon="0.77903">
        <ele>681</ele>
        <time>2021-03-13T14:57:51Z</time>
      </trkpt>
      <trkpt lat="42.98965" lon="0.77905">
        <ele>681</ele>
        <time>2021-03-13T14:57:52Z</time>
      </trkpt>
      <trkpt lat="42.98968" lon="0.77907">
        <ele>681</ele>
        <time>2021-03-13T14:57:53Z</time>
      </trkpt>
      <trkpt lat="42.9897" lon="0.77909">
        <ele>681</ele>
        <time>2021-03-13T14:57:54Z</time>
      </trkpt>
      <trkpt lat="42.98972" lon="0.77911">
        <ele>681</ele>
        <time>2021-03-13T14:57:55Z</time>
      </trkpt>
      <trkpt lat="42.98974" lon="0.77913">
        <ele>681</ele>
        <time>2021-03-13T14:57:56Z</time>
      </trkpt>
      <trkpt lat="42.98977" lon="0.77916">
        <ele>681</ele>
        <time>2021-03-13T14:57:57Z</time>
      </trkpt>
      <trkpt lat="42.98979" lon="0.77919">
        <ele>681</ele>
        <time>2021-03-13T14:57:58Z</time>
      </trkpt>
      <trkpt lat="42.98982" lon="0.77922">
        <ele>681</ele>
        <time>2021-03-13T14:57:59Z</time>
      </trkpt>
      <trkpt lat="42.98984" lon="0.77924">
        <ele>683</ele>
        <time>2021-03-13T14:58:00Z</time>
      </trkpt>
      <trkpt lat="42.98987" lon="0.77926">
        <ele>683</ele>
        <time>2021-03-13T14:58:01Z</time>
      </trkpt>
      <trkpt lat="42.9899" lon="0.77927">
        <ele>683</ele>
        <time>2021-03-13T14:58:02Z</time>
      </trkpt>
      <trkpt lat="42.98994" lon="0.77928">
        <ele>683</ele>
        <time>2021-03-13T14:58:03Z</time>
      </trkpt>
      <trkpt lat="42.98996" lon="0.77928">
        <ele>683</ele>
        <time>2021-03-13T14:58:04Z</time>
      </trkpt>
      <trkpt lat="42.98998" lon="0.77928">
        <ele>683</ele>
        <time>2021-03-13T14:58:05Z</time>
      </trkpt>
      <trkpt lat="42.99001" lon="0.77928">
        <ele>683</ele>
        <time>2021-03-13T14:58:06Z</time>
      </trkpt>
      <trkpt lat="42.99003" lon="0.77929">
        <ele>683</ele>
        <time>2021-03-13T14:58:07Z</time>
      </trkpt>
      <trkpt lat="42.99006" lon="0.77929">
        <ele>683</ele>
        <time>2021-03-13T14:58:08Z</time>
      </trkpt>
      <trkpt lat="42.99009" lon="0.7793">
        <ele>683</ele>
        <time>2021-03-13T14:58:09Z</time>
      </trkpt>
      <trkpt lat="42.99013" lon="0.7793">
        <ele>684</ele>
        <time>2021-03-13T14:58:10Z</time>
      </trkpt>
      <trkpt lat="42.99015" lon="0.77932">
        <ele>684</ele>
        <time>2021-03-13T14:58:11Z</time>
      </trkpt>
      <trkpt lat="42.99017" lon="0.77934">
        <ele>684</ele>
        <time>2021-03-13T14:58:12Z</time>
      </trkpt>
      <trkpt lat="42.9902" lon="0.77935">
        <ele>684</ele>
        <time>2021-03-13T14:58:13Z</time>
      </trkpt>
      <trkpt lat="42.99021" lon="0.77938">
        <ele>684</ele>
        <time>2021-03-13T14:58:14Z</time>
      </trkpt>
      <trkpt lat="42.99023" lon="0.77941">
        <ele>684</ele>
        <time>2021-03-13T14:58:15Z</time>
      </trkpt>
      <trkpt lat="42.99025" lon="0.77944">
        <ele>684</ele>
        <time>2021-03-13T14:58:16Z</time>
      </trkpt>
      <trkpt lat="42.99026" lon="0.77948">
        <ele>684</ele>
        <time>2021-03-13T14:58:17Z</time>
      </trkpt>
      <trkpt lat="42.99027" lon="0.77951">
        <ele>684</ele>
        <time>2021-03-13T14:58:18Z</time>
      </trkpt>
      <trkpt lat="42.99028" lon="0.77955">
        <ele>684</ele>
        <time>2021-03-13T14:58:19Z</time>
      </trkpt>
      <trkpt lat="42.99029" lon="0.77959">
        <ele>686</ele>
        <time>2021-03-13T14:58:20Z</time>
      </trkpt>
      <trkpt lat="42.9903" lon="0.77963">
        <ele>686</ele>
        <time>2021-03-13T14:58:21Z</time>
      </trkpt>
      <trkpt lat="42.99031" lon="0.77968">
        <ele>686</ele>
        <time>2021-03-13T14:58:22Z</time>
      </trkpt>
      <trkpt lat="42.99032" lon="0.77971">
        <ele>686</ele>
        <time>2021-03-13T14:58:23Z</time>
      </trkpt>
      <trkpt lat="42.99033" lon="0.77974">
        <ele>686</ele>
        <time>2021-03-13T14:58:24Z</time>
      </trkpt>
      <trkpt lat="42.99035" lon="0.77978">
        <ele>686</ele>
        <time>2021-03-13T14:58:25Z</time>
      </trkpt>
      <trkpt lat="42.99036" lon="0.77981">
        <ele>686</ele>
        <time>2021-03-13T14:58:26Z</time>
      </trkpt>
      <trkpt lat="42.99037" lon="0.77985">
        <ele>686</ele>
        <time>2021-03-13T14:58:27Z</time>
      </trkpt>
      <trkpt lat="42.99038" lon="0.77989">
        <ele>686</ele>
        <time>2021-03-13T14:58:28Z</time>
      </trkpt>
      <trkpt lat="42.99039" lon="0.77992">
        <ele>686</ele>
        <time>2021-03-13T14:58:29Z</time>
      </trkpt>
      <trkpt lat="42.99041" lon="0.77996">
        <ele>688</ele>
        <time>2021-03-13T14:58:30Z</time>
      </trkpt>
      <trkpt lat="42.99042" lon="0.78">
        <ele>688</ele>
        <time>2021-03-13T14:58:31Z</time>
      </trkpt>
      <trkpt lat="42.99044" lon="0.78003">
        <ele>688</ele>
        <time>2021-03-13T14:58:32Z</time>
      </trkpt>
      <trkpt lat="42.99045" lon="0.78006">
        <ele>688</ele>
        <time>2021-03-13T14:58:33Z</time>
      </trkpt>
      <trkpt lat="42.99047" lon="0.78009">
        <ele>688</ele>
        <time>2021-03-13T14:58:34Z</time>
      </trkpt>
      <trkpt lat="42.99049" lon="0.78012">
        <ele>688</ele>
        <time>2021-03-13T14:58:35Z</time>
      </trkpt>
      <trkpt lat="42.99051" lon="0.78014">
        <ele>688</ele>
        <time>2021-03-13T14:58:36Z</time>
      </trkpt>
      <trkpt lat="42.99052" lon="0.78016">
        <ele>688</ele>
        <time>2021-03-13T14:58:37Z</time>
      </trkpt>
      <trkpt lat="42.99055" lon="0.78018">
        <ele>688</ele>
        <time>2021-03-13T14:58:38Z</time>
      </trkpt>
      <trkpt lat="42.99057" lon="0.78019">
        <ele>688</ele>
        <time>2021-03-13T14:58:39Z</time>
      </trkpt>
      <trkpt lat="42.99059" lon="0.7802">
        <ele>690</ele>
        <time>2021-03-13T14:58:40Z</time>
      </trkpt>
      <trkpt lat="42.99061" lon="0.78022">
        <ele>690</ele>
        <time>2021-03-13T14:58:41Z</time>
      </trkpt>
      <trkpt lat="42.99064" lon="0.78023">
        <ele>690</ele>
        <time>2021-03-13T14:58:42Z</time>
      </trkpt>
      <trkpt lat="42.99067" lon="0.78024">
        <ele>690</ele>
        <time>2021-03-13T14:58:43Z</time>
      </trkpt>
      <trkpt lat="42.99069" lon="0.78025">
        <ele>690</ele>
        <time>2021-03-13T14:58:44Z</time>
      </trkpt>
      <trkpt lat="42.99072" lon="0.78026">
        <ele>690</ele>
        <time>2021-03-13T14:58:45Z</time>
      </trkpt>
      <trkpt lat="42.99075" lon="0.78026">
        <ele>690</ele>
        <time>2021-03-13T14:58:46Z</time>
      </trkpt>
      <trkpt lat="42.99078" lon="0.78026">
        <ele>690</ele>
        <time>2021-03-13T14:58:47Z</time>
      </trkpt>
      <trkpt lat="42.99081" lon="0.78026">
        <ele>690</ele>
        <time>2021-03-13T14:58:48Z</time>
      </trkpt>
      <trkpt lat="42.99084" lon="0.78027">
        <ele>690</ele>
        <time>2021-03-13T14:58:49Z</time>
      </trkpt>
      <trkpt lat="42.99086" lon="0.78026">
        <ele>691</ele>
        <time>2021-03-13T14:58:50Z</time>
      </trkpt>
      <trkpt lat="42.99089" lon="0.78026">
        <ele>691</ele>
        <time>2021-03-13T14:58:51Z</time>
      </trkpt>
      <trkpt lat="42.99092" lon="0.78026">
        <ele>691</ele>
        <time>2021-03-13T14:58:52Z</time>
      </trkpt>
      <trkpt lat="42.99094" lon="0.78026">
        <ele>691</ele>
        <time>2021-03-13T14:58:53Z</time>
      </trkpt>
      <trkpt lat="42.99097" lon="0.78026">
        <ele>691</ele>
        <time>2021-03-13T14:58:54Z</time>
      </trkpt>
      <trkpt lat="42.99099" lon="0.78026">
        <ele>691</ele>
        <time>2021-03-13T14:58:55Z</time>
      </trkpt>
      <trkpt lat="42.99102" lon="0.78026">
        <ele>691</ele>
        <time>2021-03-13T14:58:56Z</time>
      </trkpt>
      <trkpt lat="42.99104" lon="0.78027">
        <ele>691</ele>
        <time>2021-03-13T14:58:57Z</time>
      </trkpt>
      <trkpt lat="42.99107" lon="0.78028">
        <ele>691</ele>
        <time>2021-03-13T14:58:58Z</time>
      </trkpt>
      <trkpt lat="42.99109" lon="0.78029">
        <ele>691</ele>
        <time>2021-03-13T14:58:59Z</time>
      </trkpt>
      <trkpt lat="42.99113" lon="0.78031">
        <ele>692</ele>
        <time>2021-03-13T14:59:00Z</time>
      </trkpt>
      <trkpt lat="42.99116" lon="0.78032">
        <ele>692</ele>
        <time>2021-03-13T14:59:01Z</time>
      </trkpt>
      <trkpt lat="42.99119" lon="0.78034">
        <ele>692</ele>
        <time>2021-03-13T14:59:02Z</time>
      </trkpt>
      <trkpt lat="42.99122" lon="0.78036">
        <ele>692</ele>
        <time>2021-03-13T14:59:03Z</time>
      </trkpt>
      <trkpt lat="42.99125" lon="0.78038">
        <ele>692</ele>
        <time>2021-03-13T14:59:04Z</time>
      </trkpt>
      <trkpt lat="42.99125" lon="0.78038">
        <ele>692</ele>
        <time>2021-03-13T14:59:05Z</time>
      </trkpt>
      <trkpt lat="42.99132" lon="0.78044">
        <ele>692</ele>
        <time>2021-03-13T14:59:06Z</time>
      </trkpt>
      <trkpt lat="42.99132" lon="0.78044">
        <ele>692</ele>
        <time>2021-03-13T14:59:07Z</time>
      </trkpt>
      <trkpt lat="42.99135" lon="0.78047">
        <ele>692</ele>
        <time>2021-03-13T14:59:08Z</time>
      </trkpt>
      <trkpt lat="42.99137" lon="0.7805">
        <ele>692</ele>
        <time>2021-03-13T14:59:09Z</time>
      </trkpt>
      <trkpt lat="42.9914" lon="0.78053">
        <ele>693</ele>
        <time>2021-03-13T14:59:10Z</time>
      </trkpt>
      <trkpt lat="42.99141" lon="0.78057">
        <ele>693</ele>
        <time>2021-03-13T14:59:11Z</time>
      </trkpt>
      <trkpt lat="42.99142" lon="0.78061">
        <ele>693</ele>
        <time>2021-03-13T14:59:12Z</time>
      </trkpt>
      <trkpt lat="42.99144" lon="0.78065">
        <ele>693</ele>
        <time>2021-03-13T14:59:13Z</time>
      </trkpt>
      <trkpt lat="42.99144" lon="0.78069">
        <ele>693</ele>
        <time>2021-03-13T14:59:14Z</time>
      </trkpt>
      <trkpt lat="42.99145" lon="0.78074">
        <ele>693</ele>
        <time>2021-03-13T14:59:15Z</time>
      </trkpt>
      <trkpt lat="42.99146" lon="0.78078">
        <ele>693</ele>
        <time>2021-03-13T14:59:16Z</time>
      </trkpt>
      <trkpt lat="42.99147" lon="0.78082">
        <ele>693</ele>
        <time>2021-03-13T14:59:17Z</time>
      </trkpt>
      <trkpt lat="42.99148" lon="0.78086">
        <ele>693</ele>
        <time>2021-03-13T14:59:18Z</time>
      </trkpt>
      <trkpt lat="42.99149" lon="0.78091">
        <ele>693</ele>
        <time>2021-03-13T14:59:19Z</time>
      </trkpt>
      <trkpt lat="42.9915" lon="0.78099">
        <ele>693</ele>
        <time>2021-03-13T14:59:20Z</time>
      </trkpt>
      <trkpt lat="42.9915" lon="0.78099">
        <ele>693</ele>
        <time>2021-03-13T14:59:21Z</time>
      </trkpt>
      <trkpt lat="42.99152" lon="0.78106">
        <ele>693</ele>
        <time>2021-03-13T14:59:22Z</time>
      </trkpt>
      <trkpt lat="42.99152" lon="0.78106">
        <ele>693</ele>
        <time>2021-03-13T14:59:23Z</time>
      </trkpt>
      <trkpt lat="42.99155" lon="0.78113">
        <ele>693</ele>
        <time>2021-03-13T14:59:24Z</time>
      </trkpt>
      <trkpt lat="42.99155" lon="0.78113">
        <ele>693</ele>
        <time>2021-03-13T14:59:25Z</time>
      </trkpt>
      <trkpt lat="42.99156" lon="0.78116">
        <ele>693</ele>
        <time>2021-03-13T14:59:26Z</time>
      </trkpt>
      <trkpt lat="42.99158" lon="0.78119">
        <ele>693</ele>
        <time>2021-03-13T14:59:27Z</time>
      </trkpt>
      <trkpt lat="42.99159" lon="0.78122">
        <ele>693</ele>
        <time>2021-03-13T14:59:28Z</time>
      </trkpt>
      <trkpt lat="42.99161" lon="0.78125">
        <ele>693</ele>
        <time>2021-03-13T14:59:29Z</time>
      </trkpt>
      <trkpt lat="42.99162" lon="0.78128">
        <ele>695</ele>
        <time>2021-03-13T14:59:30Z</time>
      </trkpt>
      <trkpt lat="42.99164" lon="0.7813">
        <ele>695</ele>
        <time>2021-03-13T14:59:31Z</time>
      </trkpt>
      <trkpt lat="42.99165" lon="0.78133">
        <ele>695</ele>
        <time>2021-03-13T14:59:32Z</time>
      </trkpt>
      <trkpt lat="42.99167" lon="0.78136">
        <ele>695</ele>
        <time>2021-03-13T14:59:33Z</time>
      </trkpt>
      <trkpt lat="42.99169" lon="0.78138">
        <ele>695</ele>
        <time>2021-03-13T14:59:34Z</time>
      </trkpt>
      <trkpt lat="42.9917" lon="0.78141">
        <ele>695</ele>
        <time>2021-03-13T14:59:35Z</time>
      </trkpt>
      <trkpt lat="42.99171" lon="0.78144">
        <ele>695</ele>
        <time>2021-03-13T14:59:36Z</time>
      </trkpt>
      <trkpt lat="42.99172" lon="0.78148">
        <ele>695</ele>
        <time>2021-03-13T14:59:37Z</time>
      </trkpt>
      <trkpt lat="42.99173" lon="0.78151">
        <ele>695</ele>
        <time>2021-03-13T14:59:38Z</time>
      </trkpt>
      <trkpt lat="42.99174" lon="0.78155">
        <ele>695</ele>
        <time>2021-03-13T14:59:39Z</time>
      </trkpt>
      <trkpt lat="42.99175" lon="0.78159">
        <ele>696</ele>
        <time>2021-03-13T14:59:40Z</time>
      </trkpt>
      <trkpt lat="42.99176" lon="0.78162">
        <ele>696</ele>
        <time>2021-03-13T14:59:41Z</time>
      </trkpt>
      <trkpt lat="42.99176" lon="0.78165">
        <ele>696</ele>
        <time>2021-03-13T14:59:42Z</time>
      </trkpt>
      <trkpt lat="42.99176" lon="0.78169">
        <ele>696</ele>
        <time>2021-03-13T14:59:43Z</time>
      </trkpt>
      <trkpt lat="42.99177" lon="0.78172">
        <ele>696</ele>
        <time>2021-03-13T14:59:44Z</time>
      </trkpt>
      <trkpt lat="42.99177" lon="0.78175">
        <ele>696</ele>
        <time>2021-03-13T14:59:45Z</time>
      </trkpt>
      <trkpt lat="42.99178" lon="0.78178">
        <ele>696</ele>
        <time>2021-03-13T14:59:46Z</time>
      </trkpt>
      <trkpt lat="42.99178" lon="0.78182">
        <ele>696</ele>
        <time>2021-03-13T14:59:47Z</time>
      </trkpt>
      <trkpt lat="42.9918" lon="0.78185">
        <ele>696</ele>
        <time>2021-03-13T14:59:48Z</time>
      </trkpt>
      <trkpt lat="42.99181" lon="0.78188">
        <ele>696</ele>
        <time>2021-03-13T14:59:49Z</time>
      </trkpt>
      <trkpt lat="42.99183" lon="0.78191">
        <ele>699</ele>
        <time>2021-03-13T14:59:50Z</time>
      </trkpt>
      <trkpt lat="42.99186" lon="0.78193">
        <ele>699</ele>
        <time>2021-03-13T14:59:51Z</time>
      </trkpt>
      <trkpt lat="42.99188" lon="0.78195">
        <ele>699</ele>
        <time>2021-03-13T14:59:52Z</time>
      </trkpt>
      <trkpt lat="42.99189" lon="0.78193">
        <ele>699</ele>
        <time>2021-03-13T14:59:53Z</time>
      </trkpt>
      <trkpt lat="42.9919" lon="0.78191">
        <ele>699</ele>
        <time>2021-03-13T14:59:54Z</time>
      </trkpt>
      <trkpt lat="42.9919" lon="0.78189">
        <ele>700</ele>
        <time>2021-03-13T14:59:55Z</time>
      </trkpt>
      <trkpt lat="42.99191" lon="0.78187">
        <ele>700</ele>
        <time>2021-03-13T14:59:56Z</time>
      </trkpt>
      <trkpt lat="42.99192" lon="0.78186">
        <ele>700</ele>
        <time>2021-03-13T14:59:57Z</time>
      </trkpt>
      <trkpt lat="42.99192" lon="0.78183">
        <ele>700</ele>
        <time>2021-03-13T14:59:58Z</time>
      </trkpt>
      <trkpt lat="42.99192" lon="0.78181">
        <ele>700</ele>
        <time>2021-03-13T14:59:59Z</time>
      </trkpt>
      <trkpt lat="42.99192" lon="0.78179">
        <ele>701</ele>
        <time>2021-03-13T15:00:00Z</time>
      </trkpt>
      <trkpt lat="42.99193" lon="0.78176">
        <ele>701</ele>
        <time>2021-03-13T15:00:01Z</time>
      </trkpt>
      <trkpt lat="42.99192" lon="0.78174">
        <ele>701</ele>
        <time>2021-03-13T15:00:02Z</time>
      </trkpt>
      <trkpt lat="42.99192" lon="0.78171">
        <ele>701</ele>
        <time>2021-03-13T15:00:03Z</time>
      </trkpt>
      <trkpt lat="42.99192" lon="0.78169">
        <ele>701</ele>
        <time>2021-03-13T15:00:04Z</time>
      </trkpt>
      <trkpt lat="42.99191" lon="0.78166">
        <ele>702</ele>
        <time>2021-03-13T15:00:05Z</time>
      </trkpt>
      <trkpt lat="42.99191" lon="0.78163">
        <ele>702</ele>
        <time>2021-03-13T15:00:06Z</time>
      </trkpt>
      <trkpt lat="42.9919" lon="0.7816">
        <ele>702</ele>
        <time>2021-03-13T15:00:07Z</time>
      </trkpt>
      <trkpt lat="42.9919" lon="0.78158">
        <ele>702</ele>
        <time>2021-03-13T15:00:08Z</time>
      </trkpt>
      <trkpt lat="42.99189" lon="0.78155">
        <ele>702</ele>
        <time>2021-03-13T15:00:09Z</time>
      </trkpt>
      <trkpt lat="42.99189" lon="0.78153">
        <ele>704</ele>
        <time>2021-03-13T15:00:10Z</time>
      </trkpt>
      <trkpt lat="42.99188" lon="0.7815">
        <ele>704</ele>
        <time>2021-03-13T15:00:11Z</time>
      </trkpt>
      <trkpt lat="42.99187" lon="0.78148">
        <ele>704</ele>
        <time>2021-03-13T15:00:12Z</time>
      </trkpt>
      <trkpt lat="42.99187" lon="0.78145">
        <ele>704</ele>
        <time>2021-03-13T15:00:13Z</time>
      </trkpt>
      <trkpt lat="42.99186" lon="0.78142">
        <ele>704</ele>
        <time>2021-03-13T15:00:14Z</time>
      </trkpt>
      <trkpt lat="42.99185" lon="0.78139">
        <ele>704</ele>
        <time>2021-03-13T15:00:15Z</time>
      </trkpt>
      <trkpt lat="42.99185" lon="0.78137">
        <ele>704</ele>
        <time>2021-03-13T15:00:16Z</time>
      </trkpt>
      <trkpt lat="42.99185" lon="0.78134">
        <ele>704</ele>
        <time>2021-03-13T15:00:17Z</time>
      </trkpt>
      <trkpt lat="42.99184" lon="0.78132">
        <ele>704</ele>
        <time>2021-03-13T15:00:18Z</time>
      </trkpt>
      <trkpt lat="42.99184" lon="0.78129">
        <ele>704</ele>
        <time>2021-03-13T15:00:19Z</time>
      </trkpt>
      <trkpt lat="42.99183" lon="0.78126">
        <ele>706</ele>
        <time>2021-03-13T15:00:20Z</time>
      </trkpt>
      <trkpt lat="42.99182" lon="0.78124">
        <ele>706</ele>
        <time>2021-03-13T15:00:21Z</time>
      </trkpt>
      <trkpt lat="42.99182" lon="0.78121">
        <ele>706</ele>
        <time>2021-03-13T15:00:22Z</time>
      </trkpt>
      <trkpt lat="42.99181" lon="0.78118">
        <ele>706</ele>
        <time>2021-03-13T15:00:23Z</time>
      </trkpt>
      <trkpt lat="42.99181" lon="0.78115">
        <ele>706</ele>
        <time>2021-03-13T15:00:24Z</time>
      </trkpt>
      <trkpt lat="42.9918" lon="0.78112">
        <ele>706</ele>
        <time>2021-03-13T15:00:25Z</time>
      </trkpt>
      <trkpt lat="42.9918" lon="0.78109">
        <ele>706</ele>
        <time>2021-03-13T15:00:26Z</time>
      </trkpt>
      <trkpt lat="42.9918" lon="0.78107">
        <ele>706</ele>
        <time>2021-03-13T15:00:27Z</time>
      </trkpt>
      <trkpt lat="42.99179" lon="0.78104">
        <ele>706</ele>
        <time>2021-03-13T15:00:28Z</time>
      </trkpt>
      <trkpt lat="42.99179" lon="0.78101">
        <ele>706</ele>
        <time>2021-03-13T15:00:29Z</time>
      </trkpt>
      <trkpt lat="42.99179" lon="0.78099">
        <ele>708</ele>
        <time>2021-03-13T15:00:30Z</time>
      </trkpt>
      <trkpt lat="42.99179" lon="0.78097">
        <ele>708</ele>
        <time>2021-03-13T15:00:31Z</time>
      </trkpt>
      <trkpt lat="42.99178" lon="0.78094">
        <ele>708</ele>
        <time>2021-03-13T15:00:32Z</time>
      </trkpt>
      <trkpt lat="42.99178" lon="0.78092">
        <ele>708</ele>
        <time>2021-03-13T15:00:33Z</time>
      </trkpt>
      <trkpt lat="42.99177" lon="0.78089">
        <ele>708</ele>
        <time>2021-03-13T15:00:34Z</time>
      </trkpt>
      <trkpt lat="42.99177" lon="0.78087">
        <ele>708</ele>
        <time>2021-03-13T15:00:35Z</time>
      </trkpt>
      <trkpt lat="42.99177" lon="0.78084">
        <ele>708</ele>
        <time>2021-03-13T15:00:36Z</time>
      </trkpt>
      <trkpt lat="42.99176" lon="0.78081">
        <ele>708</ele>
        <time>2021-03-13T15:00:37Z</time>
      </trkpt>
      <trkpt lat="42.99176" lon="0.78079">
        <ele>708</ele>
        <time>2021-03-13T15:00:38Z</time>
      </trkpt>
      <trkpt lat="42.99175" lon="0.78076">
        <ele>708</ele>
        <time>2021-03-13T15:00:39Z</time>
      </trkpt>
      <trkpt lat="42.99175" lon="0.78073">
        <ele>710</ele>
        <time>2021-03-13T15:00:40Z</time>
      </trkpt>
      <trkpt lat="42.99175" lon="0.78071">
        <ele>710</ele>
        <time>2021-03-13T15:00:41Z</time>
      </trkpt>
      <trkpt lat="42.99174" lon="0.78068">
        <ele>710</ele>
        <time>2021-03-13T15:00:42Z</time>
      </trkpt>
      <trkpt lat="42.99174" lon="0.78066">
        <ele>710</ele>
        <time>2021-03-13T15:00:43Z</time>
      </trkpt>
      <trkpt lat="42.99174" lon="0.78063">
        <ele>710</ele>
        <time>2021-03-13T15:00:44Z</time>
      </trkpt>
      <trkpt lat="42.99174" lon="0.7806">
        <ele>711</ele>
        <time>2021-03-13T15:00:45Z</time>
      </trkpt>
      <trkpt lat="42.99174" lon="0.78057">
        <ele>711</ele>
        <time>2021-03-13T15:00:46Z</time>
      </trkpt>
      <trkpt lat="42.99174" lon="0.78055">
        <ele>711</ele>
        <time>2021-03-13T15:00:47Z</time>
      </trkpt>
      <trkpt lat="42.99174" lon="0.78052">
        <ele>711</ele>
        <time>2021-03-13T15:00:48Z</time>
      </trkpt>
      <trkpt lat="42.99174" lon="0.78049">
        <ele>711</ele>
        <time>2021-03-13T15:00:49Z</time>
      </trkpt>
      <trkpt lat="42.99174" lon="0.78047">
        <ele>713</ele>
        <time>2021-03-13T15:00:50Z</time>
      </trkpt>
      <trkpt lat="42.99174" lon="0.78044">
        <ele>713</ele>
        <time>2021-03-13T15:00:51Z</time>
      </trkpt>
      <trkpt lat="42.99173" lon="0.78041">
        <ele>713</ele>
        <time>2021-03-13T15:00:52Z</time>
      </trkpt>
      <trkpt lat="42.99173" lon="0.78039">
        <ele>713</ele>
        <time>2021-03-13T15:00:53Z</time>
      </trkpt>
      <trkpt lat="42.99172" lon="0.78036">
        <ele>713</ele>
        <time>2021-03-13T15:00:54Z</time>
      </trkpt>
      <trkpt lat="42.99172" lon="0.78034">
        <ele>714</ele>
        <time>2021-03-13T15:00:55Z</time>
      </trkpt>
      <trkpt lat="42.99171" lon="0.78032">
        <ele>714</ele>
        <time>2021-03-13T15:00:56Z</time>
      </trkpt>
      <trkpt lat="42.99171" lon="0.78029">
        <ele>714</ele>
        <time>2021-03-13T15:00:57Z</time>
      </trkpt>
      <trkpt lat="42.9917" lon="0.78027">
        <ele>714</ele>
        <time>2021-03-13T15:00:58Z</time>
      </trkpt>
      <trkpt lat="42.9917" lon="0.78025">
        <ele>714</ele>
        <time>2021-03-13T15:00:59Z</time>
      </trkpt>
      <trkpt lat="42.99169" lon="0.78023">
        <ele>716</ele>
        <time>2021-03-13T15:01:00Z</time>
      </trkpt>
      <trkpt lat="42.99169" lon="0.78021">
        <ele>716</ele>
        <time>2021-03-13T15:01:01Z</time>
      </trkpt>
      <trkpt lat="42.99168" lon="0.78019">
        <ele>716</ele>
        <time>2021-03-13T15:01:02Z</time>
      </trkpt>
      <trkpt lat="42.99168" lon="0.78018">
        <ele>716</ele>
        <time>2021-03-13T15:01:03Z</time>
      </trkpt>
      <trkpt lat="42.99167" lon="0.78016">
        <ele>716</ele>
        <time>2021-03-13T15:01:04Z</time>
      </trkpt>
      <trkpt lat="42.99165" lon="0.78015">
        <ele>717</ele>
        <time>2021-03-13T15:01:05Z</time>
      </trkpt>
      <trkpt lat="42.99164" lon="0.78013">
        <ele>717</ele>
        <time>2021-03-13T15:01:06Z</time>
      </trkpt>
      <trkpt lat="42.99163" lon="0.78012">
        <ele>717</ele>
        <time>2021-03-13T15:01:07Z</time>
      </trkpt>
      <trkpt lat="42.99162" lon="0.7801">
        <ele>717</ele>
        <time>2021-03-13T15:01:08Z</time>
      </trkpt>
      <trkpt lat="42.9916" lon="0.78008">
        <ele>717</ele>
        <time>2021-03-13T15:01:09Z</time>
      </trkpt>
      <trkpt lat="42.99159" lon="0.78007">
        <ele>718</ele>
        <time>2021-03-13T15:01:10Z</time>
      </trkpt>
      <trkpt lat="42.99157" lon="0.78005">
        <ele>718</ele>
        <time>2021-03-13T15:01:11Z</time>
      </trkpt>
      <trkpt lat="42.99156" lon="0.78003">
        <ele>718</ele>
        <time>2021-03-13T15:01:12Z</time>
      </trkpt>
      <trkpt lat="42.99153" lon="0.78001">
        <ele>718</ele>
        <time>2021-03-13T15:01:13Z</time>
      </trkpt>
      <trkpt lat="42.99151" lon="0.77999">
        <ele>718</ele>
        <time>2021-03-13T15:01:14Z</time>
      </trkpt>
      <trkpt lat="42.99149" lon="0.77997">
        <ele>718</ele>
        <time>2021-03-13T15:01:15Z</time>
      </trkpt>
      <trkpt lat="42.99147" lon="0.77995">
        <ele>718</ele>
        <time>2021-03-13T15:01:16Z</time>
      </trkpt>
      <trkpt lat="42.99145" lon="0.77993">
        <ele>718</ele>
        <time>2021-03-13T15:01:17Z</time>
      </trkpt>
      <trkpt lat="42.99143" lon="0.77992">
        <ele>718</ele>
        <time>2021-03-13T15:01:18Z</time>
      </trkpt>
      <trkpt lat="42.99142" lon="0.77991">
        <ele>718</ele>
        <time>2021-03-13T15:01:19Z</time>
      </trkpt>
      <trkpt lat="42.9914" lon="0.7799">
        <ele>719</ele>
        <time>2021-03-13T15:01:20Z</time>
      </trkpt>
      <trkpt lat="42.99138" lon="0.77989">
        <ele>719</ele>
        <time>2021-03-13T15:01:21Z</time>
      </trkpt>
      <trkpt lat="42.99136" lon="0.77988">
        <ele>719</ele>
        <time>2021-03-13T15:01:22Z</time>
      </trkpt>
      <trkpt lat="42.99135" lon="0.77987">
        <ele>719</ele>
        <time>2021-03-13T15:01:23Z</time>
      </trkpt>
      <trkpt lat="42.99134" lon="0.77985">
        <ele>719</ele>
        <time>2021-03-13T15:01:24Z</time>
      </trkpt>
      <trkpt lat="42.99132" lon="0.77984">
        <ele>719</ele>
        <time>2021-03-13T15:01:25Z</time>
      </trkpt>
      <trkpt lat="42.99131" lon="0.77983">
        <ele>719</ele>
        <time>2021-03-13T15:01:26Z</time>
      </trkpt>
      <trkpt lat="42.99129" lon="0.77982">
        <ele>719</ele>
        <time>2021-03-13T15:01:27Z</time>
      </trkpt>
      <trkpt lat="42.99128" lon="0.77981">
        <ele>719</ele>
        <time>2021-03-13T15:01:28Z</time>
      </trkpt>
      <trkpt lat="42.99126" lon="0.77979">
        <ele>719</ele>
        <time>2021-03-13T15:01:29Z</time>
      </trkpt>
      <trkpt lat="42.99124" lon="0.77978">
        <ele>721</ele>
        <time>2021-03-13T15:01:30Z</time>
      </trkpt>
      <trkpt lat="42.99122" lon="0.77976">
        <ele>721</ele>
        <time>2021-03-13T15:01:31Z</time>
      </trkpt>
      <trkpt lat="42.9912" lon="0.77974">
        <ele>721</ele>
        <time>2021-03-13T15:01:32Z</time>
      </trkpt>
      <trkpt lat="42.99118" lon="0.77973">
        <ele>721</ele>
        <time>2021-03-13T15:01:33Z</time>
      </trkpt>
      <trkpt lat="42.99117" lon="0.77972">
        <ele>721</ele>
        <time>2021-03-13T15:01:34Z</time>
      </trkpt>
      <trkpt lat="42.99115" lon="0.77971">
        <ele>721</ele>
        <time>2021-03-13T15:01:35Z</time>
      </trkpt>
      <trkpt lat="42.99113" lon="0.77969">
        <ele>721</ele>
        <time>2021-03-13T15:01:36Z</time>
      </trkpt>
      <trkpt lat="42.99112" lon="0.77968">
        <ele>721</ele>
        <time>2021-03-13T15:01:37Z</time>
      </trkpt>
      <trkpt lat="42.9911" lon="0.77967">
        <ele>721</ele>
        <time>2021-03-13T15:01:38Z</time>
      </trkpt>
      <trkpt lat="42.99108" lon="0.77965">
        <ele>721</ele>
        <time>2021-03-13T15:01:39Z</time>
      </trkpt>
      <trkpt lat="42.99107" lon="0.77964">
        <ele>724</ele>
        <time>2021-03-13T15:01:40Z</time>
      </trkpt>
      <trkpt lat="42.99105" lon="0.77962">
        <ele>724</ele>
        <time>2021-03-13T15:01:41Z</time>
      </trkpt>
      <trkpt lat="42.99103" lon="0.7796">
        <ele>724</ele>
        <time>2021-03-13T15:01:42Z</time>
      </trkpt>
      <trkpt lat="42.99102" lon="0.77958">
        <ele>724</ele>
        <time>2021-03-13T15:01:43Z</time>
      </trkpt>
      <trkpt lat="42.991" lon="0.77956">
        <ele>724</ele>
        <time>2021-03-13T15:01:44Z</time>
      </trkpt>
      <trkpt lat="42.99099" lon="0.77954">
        <ele>726</ele>
        <time>2021-03-13T15:01:45Z</time>
      </trkpt>
      <trkpt lat="42.99097" lon="0.77952">
        <ele>726</ele>
        <time>2021-03-13T15:01:46Z</time>
      </trkpt>
      <trkpt lat="42.99095" lon="0.7795">
        <ele>726</ele>
        <time>2021-03-13T15:01:47Z</time>
      </trkpt>
      <trkpt lat="42.99093" lon="0.77948">
        <ele>726</ele>
        <time>2021-03-13T15:01:48Z</time>
      </trkpt>
      <trkpt lat="42.99092" lon="0.77945">
        <ele>726</ele>
        <time>2021-03-13T15:01:49Z</time>
      </trkpt>
      <trkpt lat="42.99091" lon="0.77943">
        <ele>727</ele>
        <time>2021-03-13T15:01:50Z</time>
      </trkpt>
      <trkpt lat="42.9909" lon="0.7794">
        <ele>727</ele>
        <time>2021-03-13T15:01:51Z</time>
      </trkpt>
      <trkpt lat="42.9909" lon="0.77938">
        <ele>727</ele>
        <time>2021-03-13T15:01:52Z</time>
      </trkpt>
      <trkpt lat="42.99089" lon="0.77935">
        <ele>727</ele>
        <time>2021-03-13T15:01:53Z</time>
      </trkpt>
      <trkpt lat="42.99088" lon="0.77932">
        <ele>727</ele>
        <time>2021-03-13T15:01:54Z</time>
      </trkpt>
      <trkpt lat="42.99087" lon="0.77928">
        <ele>728</ele>
        <time>2021-03-13T15:01:55Z</time>
      </trkpt>
      <trkpt lat="42.99087" lon="0.77925">
        <ele>728</ele>
        <time>2021-03-13T15:01:56Z</time>
      </trkpt>
      <trkpt lat="42.99087" lon="0.77922">
        <ele>728</ele>
        <time>2021-03-13T15:01:57Z</time>
      </trkpt>
      <trkpt lat="42.99086" lon="0.77919">
        <ele>728</ele>
        <time>2021-03-13T15:01:58Z</time>
      </trkpt>
      <trkpt lat="42.99086" lon="0.77916">
        <ele>728</ele>
        <time>2021-03-13T15:01:59Z</time>
      </trkpt>
      <trkpt lat="42.99086" lon="0.77914">
        <ele>729</ele>
        <time>2021-03-13T15:02:00Z</time>
      </trkpt>
      <trkpt lat="42.99085" lon="0.77911">
        <ele>729</ele>
        <time>2021-03-13T15:02:01Z</time>
      </trkpt>
      <trkpt lat="42.99085" lon="0.77909">
        <ele>729</ele>
        <time>2021-03-13T15:02:02Z</time>
      </trkpt>
      <trkpt lat="42.99084" lon="0.77906">
        <ele>729</ele>
        <time>2021-03-13T15:02:03Z</time>
      </trkpt>
      <trkpt lat="42.99084" lon="0.77904">
        <ele>729</ele>
        <time>2021-03-13T15:02:04Z</time>
      </trkpt>
      <trkpt lat="42.99083" lon="0.77901">
        <ele>730</ele>
        <time>2021-03-13T15:02:05Z</time>
      </trkpt>
      <trkpt lat="42.99082" lon="0.77899">
        <ele>730</ele>
        <time>2021-03-13T15:02:06Z</time>
      </trkpt>
      <trkpt lat="42.99082" lon="0.77896">
        <ele>730</ele>
        <time>2021-03-13T15:02:07Z</time>
      </trkpt>
      <trkpt lat="42.99081" lon="0.77894">
        <ele>730</ele>
        <time>2021-03-13T15:02:08Z</time>
      </trkpt>
      <trkpt lat="42.99081" lon="0.77891">
        <ele>730</ele>
        <time>2021-03-13T15:02:09Z</time>
      </trkpt>
      <trkpt lat="42.9908" lon="0.77889">
        <ele>732</ele>
        <time>2021-03-13T15:02:10Z</time>
      </trkpt>
      <trkpt lat="42.9908" lon="0.77886">
        <ele>732</ele>
        <time>2021-03-13T15:02:11Z</time>
      </trkpt>
      <trkpt lat="42.9908" lon="0.77882">
        <ele>732</ele>
        <time>2021-03-13T15:02:12Z</time>
      </trkpt>
      <trkpt lat="42.99079" lon="0.77879">
        <ele>732</ele>
        <time>2021-03-13T15:02:13Z</time>
      </trkpt>
      <trkpt lat="42.99079" lon="0.77877">
        <ele>732</ele>
        <time>2021-03-13T15:02:14Z</time>
      </trkpt>
      <trkpt lat="42.99078" lon="0.77874">
        <ele>733</ele>
        <time>2021-03-13T15:02:15Z</time>
      </trkpt>
      <trkpt lat="42.99078" lon="0.77871">
        <ele>733</ele>
        <time>2021-03-13T15:02:16Z</time>
      </trkpt>
      <trkpt lat="42.99077" lon="0.77868">
        <ele>733</ele>
        <time>2021-03-13T15:02:17Z</time>
      </trkpt>
      <trkpt lat="42.99077" lon="0.77865">
        <ele>733</ele>
        <time>2021-03-13T15:02:18Z</time>
      </trkpt>
      <trkpt lat="42.99076" lon="0.77863">
        <ele>733</ele>
        <time>2021-03-13T15:02:19Z</time>
      </trkpt>
      <trkpt lat="42.99076" lon="0.7786">
        <ele>735</ele>
        <time>2021-03-13T15:02:20Z</time>
      </trkpt>
      <trkpt lat="42.99075" lon="0.77858">
        <ele>735</ele>
        <time>2021-03-13T15:02:21Z</time>
      </trkpt>
      <trkpt lat="42.99074" lon="0.77855">
        <ele>735</ele>
        <time>2021-03-13T15:02:22Z</time>
      </trkpt>
      <trkpt lat="42.99073" lon="0.77851">
        <ele>735</ele>
        <time>2021-03-13T15:02:23Z</time>
      </trkpt>
      <trkpt lat="42.99072" lon="0.77848">
        <ele>735</ele>
        <time>2021-03-13T15:02:24Z</time>
      </trkpt>
      <trkpt lat="42.99071" lon="0.77846">
        <ele>735</ele>
        <time>2021-03-13T15:02:25Z</time>
      </trkpt>
      <trkpt lat="42.99069" lon="0.77844">
        <ele>735</ele>
        <time>2021-03-13T15:02:26Z</time>
      </trkpt>
      <trkpt lat="42.99067" lon="0.77842">
        <ele>735</ele>
        <time>2021-03-13T15:02:27Z</time>
      </trkpt>
      <trkpt lat="42.99065" lon="0.77841">
        <ele>735</ele>
        <time>2021-03-13T15:02:28Z</time>
      </trkpt>
      <trkpt lat="42.99064" lon="0.7784">
        <ele>735</ele>
        <time>2021-03-13T15:02:29Z</time>
      </trkpt>
      <trkpt lat="42.99062" lon="0.77839">
        <ele>736</ele>
        <time>2021-03-13T15:02:30Z</time>
      </trkpt>
      <trkpt lat="42.9906" lon="0.77838">
        <ele>736</ele>
        <time>2021-03-13T15:02:31Z</time>
      </trkpt>
      <trkpt lat="42.99058" lon="0.77838">
        <ele>736</ele>
        <time>2021-03-13T15:02:32Z</time>
      </trkpt>
      <trkpt lat="42.99056" lon="0.77837">
        <ele>736</ele>
        <time>2021-03-13T15:02:33Z</time>
      </trkpt>
      <trkpt lat="42.99054" lon="0.77836">
        <ele>736</ele>
        <time>2021-03-13T15:02:34Z</time>
      </trkpt>
      <trkpt lat="42.99052" lon="0.77834">
        <ele>736</ele>
        <time>2021-03-13T15:02:35Z</time>
      </trkpt>
      <trkpt lat="42.9905" lon="0.77833">
        <ele>736</ele>
        <time>2021-03-13T15:02:36Z</time>
      </trkpt>
      <trkpt lat="42.99049" lon="0.77831">
        <ele>736</ele>
        <time>2021-03-13T15:02:37Z</time>
      </trkpt>
      <trkpt lat="42.99047" lon="0.77829">
        <ele>736</ele>
        <time>2021-03-13T15:02:38Z</time>
      </trkpt>
      <trkpt lat="42.99044" lon="0.77827">
        <ele>736</ele>
        <time>2021-03-13T15:02:39Z</time>
      </trkpt>
      <trkpt lat="42.99042" lon="0.77825">
        <ele>737</ele>
        <time>2021-03-13T15:02:40Z</time>
      </trkpt>
      <trkpt lat="42.99041" lon="0.77823">
        <ele>737</ele>
        <time>2021-03-13T15:02:41Z</time>
      </trkpt>
      <trkpt lat="42.99039" lon="0.7782">
        <ele>737</ele>
        <time>2021-03-13T15:02:42Z</time>
      </trkpt>
      <trkpt lat="42.99037" lon="0.77818">
        <ele>737</ele>
        <time>2021-03-13T15:02:43Z</time>
      </trkpt>
      <trkpt lat="42.99036" lon="0.77815">
        <ele>737</ele>
        <time>2021-03-13T15:02:44Z</time>
      </trkpt>
      <trkpt lat="42.99035" lon="0.77813">
        <ele>737</ele>
        <time>2021-03-13T15:02:45Z</time>
      </trkpt>
      <trkpt lat="42.99034" lon="0.7781">
        <ele>737</ele>
        <time>2021-03-13T15:02:46Z</time>
      </trkpt>
      <trkpt lat="42.99033" lon="0.77808">
        <ele>737</ele>
        <time>2021-03-13T15:02:47Z</time>
      </trkpt>
      <trkpt lat="42.99031" lon="0.77805">
        <ele>737</ele>
        <time>2021-03-13T15:02:48Z</time>
      </trkpt>
      <trkpt lat="42.9903" lon="0.77803">
        <ele>737</ele>
        <time>2021-03-13T15:02:49Z</time>
      </trkpt>
      <trkpt lat="42.99029" lon="0.778">
        <ele>740</ele>
        <time>2021-03-13T15:02:50Z</time>
      </trkpt>
      <trkpt lat="42.99027" lon="0.77798">
        <ele>740</ele>
        <time>2021-03-13T15:02:51Z</time>
      </trkpt>
      <trkpt lat="42.99026" lon="0.77795">
        <ele>740</ele>
        <time>2021-03-13T15:02:52Z</time>
      </trkpt>
      <trkpt lat="42.99025" lon="0.77793">
        <ele>740</ele>
        <time>2021-03-13T15:02:53Z</time>
      </trkpt>
      <trkpt lat="42.99023" lon="0.7779">
        <ele>740</ele>
        <time>2021-03-13T15:02:54Z</time>
      </trkpt>
      <trkpt lat="42.99022" lon="0.77788">
        <ele>741</ele>
        <time>2021-03-13T15:02:55Z</time>
      </trkpt>
      <trkpt lat="42.9902" lon="0.77785">
        <ele>741</ele>
        <time>2021-03-13T15:02:56Z</time>
      </trkpt>
      <trkpt lat="42.99018" lon="0.77783">
        <ele>741</ele>
        <time>2021-03-13T15:02:57Z</time>
      </trkpt>
      <trkpt lat="42.99017" lon="0.77781">
        <ele>741</ele>
        <time>2021-03-13T15:02:58Z</time>
      </trkpt>
      <trkpt lat="42.99015" lon="0.7778">
        <ele>741</ele>
        <time>2021-03-13T15:02:59Z</time>
      </trkpt>
      <trkpt lat="42.99013" lon="0.77778">
        <ele>742</ele>
        <time>2021-03-13T15:03:00Z</time>
      </trkpt>
      <trkpt lat="42.99011" lon="0.77777">
        <ele>742</ele>
        <time>2021-03-13T15:03:01Z</time>
      </trkpt>
      <trkpt lat="42.99009" lon="0.77775">
        <ele>742</ele>
        <time>2021-03-13T15:03:02Z</time>
      </trkpt>
      <trkpt lat="42.99006" lon="0.77774">
        <ele>742</ele>
        <time>2021-03-13T15:03:03Z</time>
      </trkpt>
      <trkpt lat="42.99004" lon="0.77774">
        <ele>742</ele>
        <time>2021-03-13T15:03:04Z</time>
      </trkpt>
      <trkpt lat="42.99001" lon="0.77773">
        <ele>742</ele>
        <time>2021-03-13T15:03:05Z</time>
      </trkpt>
      <trkpt lat="42.98999" lon="0.77773">
        <ele>742</ele>
        <time>2021-03-13T15:03:06Z</time>
      </trkpt>
      <trkpt lat="42.98997" lon="0.77774">
        <ele>742</ele>
        <time>2021-03-13T15:03:07Z</time>
      </trkpt>
      <trkpt lat="42.98995" lon="0.77774">
        <ele>742</ele>
        <time>2021-03-13T15:03:08Z</time>
      </trkpt>
      <trkpt lat="42.98992" lon="0.77775">
        <ele>742</ele>
        <time>2021-03-13T15:03:09Z</time>
      </trkpt>
      <trkpt lat="42.98988" lon="0.77774">
        <ele>744</ele>
        <time>2021-03-13T15:03:10Z</time>
      </trkpt>
      <trkpt lat="42.98988" lon="0.77774">
        <ele>744</ele>
        <time>2021-03-13T15:03:11Z</time>
      </trkpt>
      <trkpt lat="42.98986" lon="0.77772">
        <ele>744</ele>
        <time>2021-03-13T15:03:12Z</time>
      </trkpt>
      <trkpt lat="42.98985" lon="0.7777">
        <ele>744</ele>
        <time>2021-03-13T15:03:13Z</time>
      </trkpt>
      <trkpt lat="42.98983" lon="0.77767">
        <ele>744</ele>
        <time>2021-03-13T15:03:14Z</time>
      </trkpt>
      <trkpt lat="42.98985" lon="0.77766">
        <ele>744</ele>
        <time>2021-03-13T15:03:15Z</time>
      </trkpt>
      <trkpt lat="42.98986" lon="0.77764">
        <ele>744</ele>
        <time>2021-03-13T15:03:16Z</time>
      </trkpt>
      <trkpt lat="42.98988" lon="0.77762">
        <ele>744</ele>
        <time>2021-03-13T15:03:17Z</time>
      </trkpt>
      <trkpt lat="42.98989" lon="0.7776">
        <ele>744</ele>
        <time>2021-03-13T15:03:18Z</time>
      </trkpt>
      <trkpt lat="42.9899" lon="0.77759">
        <ele>744</ele>
        <time>2021-03-13T15:03:19Z</time>
      </trkpt>
      <trkpt lat="42.98993" lon="0.77759">
        <ele>746</ele>
        <time>2021-03-13T15:03:20Z</time>
      </trkpt>
      <trkpt lat="42.98996" lon="0.7776">
        <ele>746</ele>
        <time>2021-03-13T15:03:21Z</time>
      </trkpt>
      <trkpt lat="42.98999" lon="0.7776">
        <ele>746</ele>
        <time>2021-03-13T15:03:22Z</time>
      </trkpt>
      <trkpt lat="42.99002" lon="0.7776">
        <ele>746</ele>
        <time>2021-03-13T15:03:23Z</time>
      </trkpt>
      <trkpt lat="42.99004" lon="0.7776">
        <ele>746</ele>
        <time>2021-03-13T15:03:24Z</time>
      </trkpt>
      <trkpt lat="42.99006" lon="0.7776">
        <ele>746</ele>
        <time>2021-03-13T15:03:25Z</time>
      </trkpt>
      <trkpt lat="42.99008" lon="0.7776">
        <ele>746</ele>
        <time>2021-03-13T15:03:26Z</time>
      </trkpt>
      <trkpt lat="42.9901" lon="0.77761">
        <ele>746</ele>
        <time>2021-03-13T15:03:27Z</time>
      </trkpt>
      <trkpt lat="42.99012" lon="0.77762">
        <ele>746</ele>
        <time>2021-03-13T15:03:28Z</time>
      </trkpt>
      <trkpt lat="42.99014" lon="0.77762">
        <ele>746</ele>
        <time>2021-03-13T15:03:29Z</time>
      </trkpt>
      <trkpt lat="42.99016" lon="0.77763">
        <ele>748</ele>
        <time>2021-03-13T15:03:30Z</time>
      </trkpt>
      <trkpt lat="42.99019" lon="0.77764">
        <ele>748</ele>
        <time>2021-03-13T15:03:31Z</time>
      </trkpt>
      <trkpt lat="42.99021" lon="0.77766">
        <ele>748</ele>
        <time>2021-03-13T15:03:32Z</time>
      </trkpt>
      <trkpt lat="42.99023" lon="0.77767">
        <ele>748</ele>
        <time>2021-03-13T15:03:33Z</time>
      </trkpt>
      <trkpt lat="42.99026" lon="0.77768">
        <ele>748</ele>
        <time>2021-03-13T15:03:34Z</time>
      </trkpt>
      <trkpt lat="42.99028" lon="0.7777">
        <ele>749</ele>
        <time>2021-03-13T15:03:35Z</time>
      </trkpt>
      <trkpt lat="42.9903" lon="0.77771">
        <ele>749</ele>
        <time>2021-03-13T15:03:36Z</time>
      </trkpt>
      <trkpt lat="42.99032" lon="0.77773">
        <ele>749</ele>
        <time>2021-03-13T15:03:37Z</time>
      </trkpt>
      <trkpt lat="42.99034" lon="0.77775">
        <ele>749</ele>
        <time>2021-03-13T15:03:38Z</time>
      </trkpt>
      <trkpt lat="42.99036" lon="0.77777">
        <ele>749</ele>
        <time>2021-03-13T15:03:39Z</time>
      </trkpt>
      <trkpt lat="42.99037" lon="0.77779">
        <ele>750</ele>
        <time>2021-03-13T15:03:40Z</time>
      </trkpt>
      <trkpt lat="42.99039" lon="0.77781">
        <ele>750</ele>
        <time>2021-03-13T15:03:41Z</time>
      </trkpt>
      <trkpt lat="42.9904" lon="0.77784">
        <ele>750</ele>
        <time>2021-03-13T15:03:42Z</time>
      </trkpt>
      <trkpt lat="42.99042" lon="0.77786">
        <ele>750</ele>
        <time>2021-03-13T15:03:43Z</time>
      </trkpt>
      <trkpt lat="42.99043" lon="0.77787">
        <ele>750</ele>
        <time>2021-03-13T15:03:44Z</time>
      </trkpt>
      <trkpt lat="42.99045" lon="0.77789">
        <ele>750</ele>
        <time>2021-03-13T15:03:45Z</time>
      </trkpt>
      <trkpt lat="42.99047" lon="0.77791">
        <ele>750</ele>
        <time>2021-03-13T15:03:46Z</time>
      </trkpt>
      <trkpt lat="42.99048" lon="0.77793">
        <ele>750</ele>
        <time>2021-03-13T15:03:47Z</time>
      </trkpt>
      <trkpt lat="42.9905" lon="0.77794">
        <ele>750</ele>
        <time>2021-03-13T15:03:48Z</time>
      </trkpt>
      <trkpt lat="42.99052" lon="0.77795">
        <ele>750</ele>
        <time>2021-03-13T15:03:49Z</time>
      </trkpt>
      <trkpt lat="42.99054" lon="0.77796">
        <ele>752</ele>
        <time>2021-03-13T15:03:50Z</time>
      </trkpt>
      <trkpt lat="42.99056" lon="0.77797">
        <ele>752</ele>
        <time>2021-03-13T15:03:51Z</time>
      </trkpt>
      <trkpt lat="42.99058" lon="0.77797">
        <ele>752</ele>
        <time>2021-03-13T15:03:52Z</time>
      </trkpt>
      <trkpt lat="42.9906" lon="0.77798">
        <ele>752</ele>
        <time>2021-03-13T15:03:53Z</time>
      </trkpt>
      <trkpt lat="42.99062" lon="0.77798">
        <ele>752</ele>
        <time>2021-03-13T15:03:54Z</time>
      </trkpt>
      <trkpt lat="42.99064" lon="0.77799">
        <ele>752</ele>
        <time>2021-03-13T15:03:55Z</time>
      </trkpt>
      <trkpt lat="42.99066" lon="0.77799">
        <ele>752</ele>
        <time>2021-03-13T15:03:56Z</time>
      </trkpt>
      <trkpt lat="42.99069" lon="0.77799">
        <ele>752</ele>
        <time>2021-03-13T15:03:57Z</time>
      </trkpt>
      <trkpt lat="42.99071" lon="0.77798">
        <ele>752</ele>
        <time>2021-03-13T15:03:58Z</time>
      </trkpt>
      <trkpt lat="42.99074" lon="0.77798">
        <ele>752</ele>
        <time>2021-03-13T15:03:59Z</time>
      </trkpt>
      <trkpt lat="42.99077" lon="0.77799">
        <ele>755</ele>
        <time>2021-03-13T15:04:00Z</time>
      </trkpt>
      <trkpt lat="42.9908" lon="0.77799">
        <ele>755</ele>
        <time>2021-03-13T15:04:01Z</time>
      </trkpt>
      <trkpt lat="42.99083" lon="0.77799">
        <ele>755</ele>
        <time>2021-03-13T15:04:02Z</time>
      </trkpt>
      <trkpt lat="42.99085" lon="0.77799">
        <ele>755</ele>
        <time>2021-03-13T15:04:03Z</time>
      </trkpt>
      <trkpt lat="42.99088" lon="0.778">
        <ele>755</ele>
        <time>2021-03-13T15:04:04Z</time>
      </trkpt>
      <trkpt lat="42.99089" lon="0.77801">
        <ele>756</ele>
        <time>2021-03-13T15:04:05Z</time>
      </trkpt>
      <trkpt lat="42.99091" lon="0.77803">
        <ele>756</ele>
        <time>2021-03-13T15:04:06Z</time>
      </trkpt>
      <trkpt lat="42.99093" lon="0.77805">
        <ele>756</ele>
        <time>2021-03-13T15:04:07Z</time>
      </trkpt>
      <trkpt lat="42.99095" lon="0.77808">
        <ele>756</ele>
        <time>2021-03-13T15:04:08Z</time>
      </trkpt>
      <trkpt lat="42.99096" lon="0.77811">
        <ele>756</ele>
        <time>2021-03-13T15:04:09Z</time>
      </trkpt>
      <trkpt lat="42.99098" lon="0.77814">
        <ele>757</ele>
        <time>2021-03-13T15:04:10Z</time>
      </trkpt>
      <trkpt lat="42.99099" lon="0.77817">
        <ele>757</ele>
        <time>2021-03-13T15:04:11Z</time>
      </trkpt>
      <trkpt lat="42.99099" lon="0.7782">
        <ele>757</ele>
        <time>2021-03-13T15:04:12Z</time>
      </trkpt>
      <trkpt lat="42.991" lon="0.77823">
        <ele>757</ele>
        <time>2021-03-13T15:04:13Z</time>
      </trkpt>
      <trkpt lat="42.99101" lon="0.77826">
        <ele>757</ele>
        <time>2021-03-13T15:04:14Z</time>
      </trkpt>
      <trkpt lat="42.99102" lon="0.77828">
        <ele>758</ele>
        <time>2021-03-13T15:04:15Z</time>
      </trkpt>
      <trkpt lat="42.99104" lon="0.77831">
        <ele>758</ele>
        <time>2021-03-13T15:04:16Z</time>
      </trkpt>
      <trkpt lat="42.99106" lon="0.77833">
        <ele>758</ele>
        <time>2021-03-13T15:04:17Z</time>
      </trkpt>
      <trkpt lat="42.99108" lon="0.77834">
        <ele>758</ele>
        <time>2021-03-13T15:04:18Z</time>
      </trkpt>
      <trkpt lat="42.9911" lon="0.77836">
        <ele>758</ele>
        <time>2021-03-13T15:04:19Z</time>
      </trkpt>
      <trkpt lat="42.9911" lon="0.77834">
        <ele>758</ele>
        <time>2021-03-13T15:04:20Z</time>
      </trkpt>
      <trkpt lat="42.9911" lon="0.77832">
        <ele>758</ele>
        <time>2021-03-13T15:04:21Z</time>
      </trkpt>
      <trkpt lat="42.9911" lon="0.7783">
        <ele>758</ele>
        <time>2021-03-13T15:04:22Z</time>
      </trkpt>
      <trkpt lat="42.9911" lon="0.77829">
        <ele>758</ele>
        <time>2021-03-13T15:04:23Z</time>
      </trkpt>
      <trkpt lat="42.99111" lon="0.77827">
        <ele>758</ele>
        <time>2021-03-13T15:04:24Z</time>
      </trkpt>
      <trkpt lat="42.99109" lon="0.77825">
        <ele>758</ele>
        <time>2021-03-13T15:04:25Z</time>
      </trkpt>
      <trkpt lat="42.99107" lon="0.77823">
        <ele>758</ele>
        <time>2021-03-13T15:04:26Z</time>
      </trkpt>
      <trkpt lat="42.99106" lon="0.77821">
        <ele>758</ele>
        <time>2021-03-13T15:04:27Z</time>
      </trkpt>
      <trkpt lat="42.99105" lon="0.77819">
        <ele>758</ele>
        <time>2021-03-13T15:04:28Z</time>
      </trkpt>
      <trkpt lat="42.99104" lon="0.77816">
        <ele>758</ele>
        <time>2021-03-13T15:04:29Z</time>
      </trkpt>
      <trkpt lat="42.99103" lon="0.77813">
        <ele>761</ele>
        <time>2021-03-13T15:04:30Z</time>
      </trkpt>
      <trkpt lat="42.99103" lon="0.77811">
        <ele>761</ele>
        <time>2021-03-13T15:04:31Z</time>
      </trkpt>
      <trkpt lat="42.99102" lon="0.77808">
        <ele>761</ele>
        <time>2021-03-13T15:04:32Z</time>
      </trkpt>
      <trkpt lat="42.99102" lon="0.77806">
        <ele>761</ele>
        <time>2021-03-13T15:04:33Z</time>
      </trkpt>
      <trkpt lat="42.99101" lon="0.77803">
        <ele>761</ele>
        <time>2021-03-13T15:04:34Z</time>
      </trkpt>
      <trkpt lat="42.99101" lon="0.77801">
        <ele>764</ele>
        <time>2021-03-13T15:04:35Z</time>
      </trkpt>
      <trkpt lat="42.991" lon="0.77799">
        <ele>764</ele>
        <time>2021-03-13T15:04:36Z</time>
      </trkpt>
      <trkpt lat="42.991" lon="0.77797">
        <ele>764</ele>
        <time>2021-03-13T15:04:37Z</time>
      </trkpt>
      <trkpt lat="42.99099" lon="0.77794">
        <ele>764</ele>
        <time>2021-03-13T15:04:38Z</time>
      </trkpt>
      <trkpt lat="42.99098" lon="0.77791">
        <ele>764</ele>
        <time>2021-03-13T15:04:39Z</time>
      </trkpt>
      <trkpt lat="42.99096" lon="0.77789">
        <ele>765</ele>
        <time>2021-03-13T15:04:40Z</time>
      </trkpt>
      <trkpt lat="42.99095" lon="0.77786">
        <ele>765</ele>
        <time>2021-03-13T15:04:41Z</time>
      </trkpt>
      <trkpt lat="42.99093" lon="0.77784">
        <ele>765</ele>
        <time>2021-03-13T15:04:42Z</time>
      </trkpt>
      <trkpt lat="42.99091" lon="0.77782">
        <ele>765</ele>
        <time>2021-03-13T15:04:43Z</time>
      </trkpt>
      <trkpt lat="42.99089" lon="0.7778">
        <ele>765</ele>
        <time>2021-03-13T15:04:44Z</time>
      </trkpt>
      <trkpt lat="42.99087" lon="0.77779">
        <ele>766</ele>
        <time>2021-03-13T15:04:45Z</time>
      </trkpt>
      <trkpt lat="42.99085" lon="0.77778">
        <ele>766</ele>
        <time>2021-03-13T15:04:46Z</time>
      </trkpt>
      <trkpt lat="42.99083" lon="0.77778">
        <ele>766</ele>
        <time>2021-03-13T15:04:47Z</time>
      </trkpt>
      <trkpt lat="42.99081" lon="0.77777">
        <ele>766</ele>
        <time>2021-03-13T15:04:48Z</time>
      </trkpt>
      <trkpt lat="42.99079" lon="0.77776">
        <ele>766</ele>
        <time>2021-03-13T15:04:49Z</time>
      </trkpt>
      <trkpt lat="42.99078" lon="0.77775">
        <ele>767</ele>
        <time>2021-03-13T15:04:50Z</time>
      </trkpt>
      <trkpt lat="42.99076" lon="0.77775">
        <ele>767</ele>
        <time>2021-03-13T15:04:51Z</time>
      </trkpt>
      <trkpt lat="42.99074" lon="0.77774">
        <ele>767</ele>
        <time>2021-03-13T15:04:52Z</time>
      </trkpt>
      <trkpt lat="42.99072" lon="0.77773">
        <ele>767</ele>
        <time>2021-03-13T15:04:53Z</time>
      </trkpt>
      <trkpt lat="42.9907" lon="0.77772">
        <ele>767</ele>
        <time>2021-03-13T15:04:54Z</time>
      </trkpt>
      <trkpt lat="42.99068" lon="0.77771">
        <ele>768</ele>
        <time>2021-03-13T15:04:55Z</time>
      </trkpt>
      <trkpt lat="42.99066" lon="0.7777">
        <ele>768</ele>
        <time>2021-03-13T15:04:56Z</time>
      </trkpt>
      <trkpt lat="42.99064" lon="0.77768">
        <ele>768</ele>
        <time>2021-03-13T15:04:57Z</time>
      </trkpt>
      <trkpt lat="42.99063" lon="0.77766">
        <ele>768</ele>
        <time>2021-03-13T15:04:58Z</time>
      </trkpt>
      <trkpt lat="42.99062" lon="0.77763">
        <ele>768</ele>
        <time>2021-03-13T15:04:59Z</time>
      </trkpt>
      <trkpt lat="42.99061" lon="0.77759">
        <ele>770</ele>
        <time>2021-03-13T15:05:00Z</time>
      </trkpt>
      <trkpt lat="42.99061" lon="0.77756">
        <ele>770</ele>
        <time>2021-03-13T15:05:01Z</time>
      </trkpt>
      <trkpt lat="42.99061" lon="0.77752">
        <ele>770</ele>
        <time>2021-03-13T15:05:02Z</time>
      </trkpt>
      <trkpt lat="42.99063" lon="0.77751">
        <ele>770</ele>
        <time>2021-03-13T15:05:03Z</time>
      </trkpt>
      <trkpt lat="42.99065" lon="0.7775">
        <ele>770</ele>
        <time>2021-03-13T15:05:04Z</time>
      </trkpt>
      <trkpt lat="42.99067" lon="0.77748">
        <ele>771</ele>
        <time>2021-03-13T15:05:05Z</time>
      </trkpt>
      <trkpt lat="42.99069" lon="0.77749">
        <ele>771</ele>
        <time>2021-03-13T15:05:06Z</time>
      </trkpt>
      <trkpt lat="42.99071" lon="0.7775">
        <ele>771</ele>
        <time>2021-03-13T15:05:07Z</time>
      </trkpt>
      <trkpt lat="42.99073" lon="0.7775">
        <ele>771</ele>
        <time>2021-03-13T15:05:08Z</time>
      </trkpt>
      <trkpt lat="42.99074" lon="0.77751">
        <ele>771</ele>
        <time>2021-03-13T15:05:09Z</time>
      </trkpt>
      <trkpt lat="42.99077" lon="0.77751">
        <ele>772</ele>
        <time>2021-03-13T15:05:10Z</time>
      </trkpt>
      <trkpt lat="42.99079" lon="0.77751">
        <ele>772</ele>
        <time>2021-03-13T15:05:11Z</time>
      </trkpt>
      <trkpt lat="42.99081" lon="0.77751">
        <ele>772</ele>
        <time>2021-03-13T15:05:12Z</time>
      </trkpt>
      <trkpt lat="42.99083" lon="0.77751">
        <ele>772</ele>
        <time>2021-03-13T15:05:13Z</time>
      </trkpt>
      <trkpt lat="42.99086" lon="0.7775">
        <ele>772</ele>
        <time>2021-03-13T15:05:14Z</time>
      </trkpt>
      <trkpt lat="42.99088" lon="0.77749">
        <ele>772</ele>
        <time>2021-03-13T15:05:15Z</time>
      </trkpt>
      <trkpt lat="42.9909" lon="0.77748">
        <ele>772</ele>
        <time>2021-03-13T15:05:16Z</time>
      </trkpt>
      <trkpt lat="42.99093" lon="0.77746">
        <ele>772</ele>
        <time>2021-03-13T15:05:17Z</time>
      </trkpt>
      <trkpt lat="42.99095" lon="0.77743">
        <ele>772</ele>
        <time>2021-03-13T15:05:18Z</time>
      </trkpt>
      <trkpt lat="42.99096" lon="0.7774">
        <ele>772</ele>
        <time>2021-03-13T15:05:19Z</time>
      </trkpt>
      <trkpt lat="42.99097" lon="0.77737">
        <ele>774</ele>
        <time>2021-03-13T15:05:20Z</time>
      </trkpt>
      <trkpt lat="42.99098" lon="0.77733">
        <ele>774</ele>
        <time>2021-03-13T15:05:21Z</time>
      </trkpt>
      <trkpt lat="42.99098" lon="0.7773">
        <ele>774</ele>
        <time>2021-03-13T15:05:22Z</time>
      </trkpt>
      <trkpt lat="42.99099" lon="0.77727">
        <ele>774</ele>
        <time>2021-03-13T15:05:23Z</time>
      </trkpt>
      <trkpt lat="42.991" lon="0.77724">
        <ele>774</ele>
        <time>2021-03-13T15:05:24Z</time>
      </trkpt>
      <trkpt lat="42.99101" lon="0.77721">
        <ele>774</ele>
        <time>2021-03-13T15:05:25Z</time>
      </trkpt>
      <trkpt lat="42.99102" lon="0.77718">
        <ele>774</ele>
        <time>2021-03-13T15:05:26Z</time>
      </trkpt>
      <trkpt lat="42.99103" lon="0.77716">
        <ele>774</ele>
        <time>2021-03-13T15:05:27Z</time>
      </trkpt>
      <trkpt lat="42.99104" lon="0.77712">
        <ele>774</ele>
        <time>2021-03-13T15:05:28Z</time>
      </trkpt>
      <trkpt lat="42.99106" lon="0.77709">
        <ele>774</ele>
        <time>2021-03-13T15:05:29Z</time>
      </trkpt>
      <trkpt lat="42.99106" lon="0.77709">
        <ele>776</ele>
        <time>2021-03-13T15:05:30Z</time>
      </trkpt>
      <trkpt lat="42.99108" lon="0.77704">
        <ele>776</ele>
        <time>2021-03-13T15:05:31Z</time>
      </trkpt>
      <trkpt lat="42.99109" lon="0.77701">
        <ele>776</ele>
        <time>2021-03-13T15:05:32Z</time>
      </trkpt>
      <trkpt lat="42.9911" lon="0.77699">
        <ele>776</ele>
        <time>2021-03-13T15:05:33Z</time>
      </trkpt>
      <trkpt lat="42.99111" lon="0.77696">
        <ele>776</ele>
        <time>2021-03-13T15:05:34Z</time>
      </trkpt>
      <trkpt lat="42.99112" lon="0.77693">
        <ele>778</ele>
        <time>2021-03-13T15:05:35Z</time>
      </trkpt>
      <trkpt lat="42.99113" lon="0.77691">
        <ele>778</ele>
        <time>2021-03-13T15:05:36Z</time>
      </trkpt>
      <trkpt lat="42.99114" lon="0.77688">
        <ele>778</ele>
        <time>2021-03-13T15:05:37Z</time>
      </trkpt>
      <trkpt lat="42.99116" lon="0.77685">
        <ele>778</ele>
        <time>2021-03-13T15:05:38Z</time>
      </trkpt>
      <trkpt lat="42.99117" lon="0.77682">
        <ele>778</ele>
        <time>2021-03-13T15:05:39Z</time>
      </trkpt>
      <trkpt lat="42.99117" lon="0.77682">
        <ele>780</ele>
        <time>2021-03-13T15:05:40Z</time>
      </trkpt>
      <trkpt lat="42.99118" lon="0.77677">
        <ele>780</ele>
        <time>2021-03-13T15:05:41Z</time>
      </trkpt>
      <trkpt lat="42.99119" lon="0.77674">
        <ele>780</ele>
        <time>2021-03-13T15:05:42Z</time>
      </trkpt>
      <trkpt lat="42.9912" lon="0.77672">
        <ele>780</ele>
        <time>2021-03-13T15:05:43Z</time>
      </trkpt>
      <trkpt lat="42.99121" lon="0.77669">
        <ele>780</ele>
        <time>2021-03-13T15:05:44Z</time>
      </trkpt>
      <trkpt lat="42.99122" lon="0.77665">
        <ele>780</ele>
        <time>2021-03-13T15:05:45Z</time>
      </trkpt>
      <trkpt lat="42.99124" lon="0.77663">
        <ele>780</ele>
        <time>2021-03-13T15:05:46Z</time>
      </trkpt>
      <trkpt lat="42.99125" lon="0.7766">
        <ele>780</ele>
        <time>2021-03-13T15:05:47Z</time>
      </trkpt>
      <trkpt lat="42.99125" lon="0.7766">
        <ele>780</ele>
        <time>2021-03-13T15:05:48Z</time>
      </trkpt>
      <trkpt lat="42.99127" lon="0.77657">
        <ele>780</ele>
        <time>2021-03-13T15:05:49Z</time>
      </trkpt>
      <trkpt lat="42.99128" lon="0.77655">
        <ele>780</ele>
        <time>2021-03-13T15:05:50Z</time>
      </trkpt>
      <trkpt lat="42.9913" lon="0.77653">
        <ele>780</ele>
        <time>2021-03-13T15:05:51Z</time>
      </trkpt>
      <trkpt lat="42.99131" lon="0.77652">
        <ele>780</ele>
        <time>2021-03-13T15:05:52Z</time>
      </trkpt>
      <trkpt lat="42.99134" lon="0.77649">
        <ele>780</ele>
        <time>2021-03-13T15:05:53Z</time>
      </trkpt>
      <trkpt lat="42.99136" lon="0.77647">
        <ele>780</ele>
        <time>2021-03-13T15:05:54Z</time>
      </trkpt>
      <trkpt lat="42.9914" lon="0.77644">
        <ele>780</ele>
        <time>2021-03-13T15:05:55Z</time>
      </trkpt>
      <trkpt lat="42.99144" lon="0.77642">
        <ele>780</ele>
        <time>2021-03-13T15:05:56Z</time>
      </trkpt>
      <trkpt lat="42.99148" lon="0.7764">
        <ele>780</ele>
        <time>2021-03-13T15:05:57Z</time>
      </trkpt>
      <trkpt lat="42.99151" lon="0.77638">
        <ele>780</ele>
        <time>2021-03-13T15:05:58Z</time>
      </trkpt>
      <trkpt lat="42.99155" lon="0.77639">
        <ele>780</ele>
        <time>2021-03-13T15:05:59Z</time>
      </trkpt>
      <trkpt lat="42.99159" lon="0.77639">
        <ele>775</ele>
        <time>2021-03-13T15:06:00Z</time>
      </trkpt>
      <trkpt lat="42.99162" lon="0.7764">
        <ele>775</ele>
        <time>2021-03-13T15:06:01Z</time>
      </trkpt>
      <trkpt lat="42.99165" lon="0.77641">
        <ele>775</ele>
        <time>2021-03-13T15:06:02Z</time>
      </trkpt>
      <trkpt lat="42.99168" lon="0.77642">
        <ele>775</ele>
        <time>2021-03-13T15:06:03Z</time>
      </trkpt>
      <trkpt lat="42.99171" lon="0.77644">
        <ele>775</ele>
        <time>2021-03-13T15:06:04Z</time>
      </trkpt>
      <trkpt lat="42.99174" lon="0.77646">
        <ele>775</ele>
        <time>2021-03-13T15:06:05Z</time>
      </trkpt>
      <trkpt lat="42.99177" lon="0.77647">
        <ele>776</ele>
        <time>2021-03-13T15:06:06Z</time>
      </trkpt>
      <trkpt lat="42.9918" lon="0.77648">
        <ele>776</ele>
        <time>2021-03-13T15:06:07Z</time>
      </trkpt>
      <trkpt lat="42.99182" lon="0.77649">
        <ele>776</ele>
        <time>2021-03-13T15:06:08Z</time>
      </trkpt>
      <trkpt lat="42.99185" lon="0.7765">
        <ele>776</ele>
        <time>2021-03-13T15:06:09Z</time>
      </trkpt>
      <trkpt lat="42.99186" lon="0.7765">
        <ele>776</ele>
        <time>2021-03-13T15:06:10Z</time>
      </trkpt>
      <trkpt lat="42.99187" lon="0.7765">
        <ele>776</ele>
        <time>2021-03-13T15:06:11Z</time>
      </trkpt>
      <trkpt lat="42.99187" lon="0.77651">
        <ele>776</ele>
        <time>2021-03-13T15:06:12Z</time>
      </trkpt>
      <trkpt lat="42.99188" lon="0.77651">
        <ele>776</ele>
        <time>2021-03-13T15:06:13Z</time>
      </trkpt>
      <trkpt lat="42.99189" lon="0.77651">
        <ele>776</ele>
        <time>2021-03-13T15:06:14Z</time>
      </trkpt>
      <trkpt lat="42.9919" lon="0.77651">
        <ele>776</ele>
        <time>2021-03-13T15:06:15Z</time>
      </trkpt>
      <trkpt lat="42.99191" lon="0.77652">
        <ele>776</ele>
        <time>2021-03-13T15:06:16Z</time>
      </trkpt>
      <trkpt lat="42.99192" lon="0.77652">
        <ele>776</ele>
        <time>2021-03-13T15:06:17Z</time>
      </trkpt>
      <trkpt lat="42.99193" lon="0.77652">
        <ele>776</ele>
        <time>2021-03-13T15:06:18Z</time>
      </trkpt>
      <trkpt lat="42.99194" lon="0.77653">
        <ele>776</ele>
        <time>2021-03-13T15:06:19Z</time>
      </trkpt>
      <trkpt lat="42.99194" lon="0.77653">
        <ele>776</ele>
        <time>2021-03-13T15:06:20Z</time>
      </trkpt>
      <trkpt lat="42.99195" lon="0.77653">
        <ele>776</ele>
        <time>2021-03-13T15:06:21Z</time>
      </trkpt>
      <trkpt lat="42.99196" lon="0.77653">
        <ele>776</ele>
        <time>2021-03-13T15:06:22Z</time>
      </trkpt>
      <trkpt lat="42.99197" lon="0.77654">
        <ele>776</ele>
        <time>2021-03-13T15:06:23Z</time>
      </trkpt>
      <trkpt lat="42.99198" lon="0.77654">
        <ele>776</ele>
        <time>2021-03-13T15:06:24Z</time>
      </trkpt>
      <trkpt lat="42.99199" lon="0.77655">
        <ele>776</ele>
        <time>2021-03-13T15:06:25Z</time>
      </trkpt>
      <trkpt lat="42.99201" lon="0.77656">
        <ele>776</ele>
        <time>2021-03-13T15:06:26Z</time>
      </trkpt>
      <trkpt lat="42.99202" lon="0.77657">
        <ele>776</ele>
        <time>2021-03-13T15:06:27Z</time>
      </trkpt>
      <trkpt lat="42.99203" lon="0.77657">
        <ele>776</ele>
        <time>2021-03-13T15:06:28Z</time>
      </trkpt>
      <trkpt lat="42.99205" lon="0.77658">
        <ele>776</ele>
        <time>2021-03-13T15:06:29Z</time>
      </trkpt>
      <trkpt lat="42.99206" lon="0.77658">
        <ele>778</ele>
        <time>2021-03-13T15:06:30Z</time>
      </trkpt>
      <trkpt lat="42.99207" lon="0.77658">
        <ele>778</ele>
        <time>2021-03-13T15:06:31Z</time>
      </trkpt>
      <trkpt lat="42.99208" lon="0.77659">
        <ele>778</ele>
        <time>2021-03-13T15:06:32Z</time>
      </trkpt>
      <trkpt lat="42.99209" lon="0.77659">
        <ele>778</ele>
        <time>2021-03-13T15:06:33Z</time>
      </trkpt>
      <trkpt lat="42.99211" lon="0.7766">
        <ele>778</ele>
        <time>2021-03-13T15:06:34Z</time>
      </trkpt>
      <trkpt lat="42.99212" lon="0.77661">
        <ele>778</ele>
        <time>2021-03-13T15:06:35Z</time>
      </trkpt>
      <trkpt lat="42.99214" lon="0.77663">
        <ele>778</ele>
        <time>2021-03-13T15:06:36Z</time>
      </trkpt>
      <trkpt lat="42.99216" lon="0.77664">
        <ele>778</ele>
        <time>2021-03-13T15:06:37Z</time>
      </trkpt>
      <trkpt lat="42.99217" lon="0.77665">
        <ele>778</ele>
        <time>2021-03-13T15:06:38Z</time>
      </trkpt>
      <trkpt lat="42.99219" lon="0.77666">
        <ele>778</ele>
        <time>2021-03-13T15:06:39Z</time>
      </trkpt>
      <trkpt lat="42.99221" lon="0.77668">
        <ele>780</ele>
        <time>2021-03-13T15:06:40Z</time>
      </trkpt>
      <trkpt lat="42.99224" lon="0.77669">
        <ele>780</ele>
        <time>2021-03-13T15:06:41Z</time>
      </trkpt>
      <trkpt lat="42.99226" lon="0.7767">
        <ele>780</ele>
        <time>2021-03-13T15:06:42Z</time>
      </trkpt>
      <trkpt lat="42.99229" lon="0.77671">
        <ele>780</ele>
        <time>2021-03-13T15:06:43Z</time>
      </trkpt>
      <trkpt lat="42.99231" lon="0.77672">
        <ele>780</ele>
        <time>2021-03-13T15:06:44Z</time>
      </trkpt>
      <trkpt lat="42.99233" lon="0.77674">
        <ele>780</ele>
        <time>2021-03-13T15:06:45Z</time>
      </trkpt>
      <trkpt lat="42.99235" lon="0.77675">
        <ele>780</ele>
        <time>2021-03-13T15:06:46Z</time>
      </trkpt>
      <trkpt lat="42.99237" lon="0.77677">
        <ele>780</ele>
        <time>2021-03-13T15:06:47Z</time>
      </trkpt>
      <trkpt lat="42.99239" lon="0.77678">
        <ele>780</ele>
        <time>2021-03-13T15:06:48Z</time>
      </trkpt>
      <trkpt lat="42.99241" lon="0.7768">
        <ele>780</ele>
        <time>2021-03-13T15:06:49Z</time>
      </trkpt>
      <trkpt lat="42.99242" lon="0.77681">
        <ele>784</ele>
        <time>2021-03-13T15:06:50Z</time>
      </trkpt>
      <trkpt lat="42.99244" lon="0.77682">
        <ele>784</ele>
        <time>2021-03-13T15:06:51Z</time>
      </trkpt>
      <trkpt lat="42.99245" lon="0.77683">
        <ele>784</ele>
        <time>2021-03-13T15:06:52Z</time>
      </trkpt>
      <trkpt lat="42.99247" lon="0.77685">
        <ele>784</ele>
        <time>2021-03-13T15:06:53Z</time>
      </trkpt>
      <trkpt lat="42.99249" lon="0.77686">
        <ele>784</ele>
        <time>2021-03-13T15:06:54Z</time>
      </trkpt>
      <trkpt lat="42.9925" lon="0.77686">
        <ele>788</ele>
        <time>2021-03-13T15:06:55Z</time>
      </trkpt>
      <trkpt lat="42.99252" lon="0.77687">
        <ele>788</ele>
        <time>2021-03-13T15:06:56Z</time>
      </trkpt>
      <trkpt lat="42.99254" lon="0.77688">
        <ele>788</ele>
        <time>2021-03-13T15:06:57Z</time>
      </trkpt>
      <trkpt lat="42.99255" lon="0.77689">
        <ele>788</ele>
        <time>2021-03-13T15:06:58Z</time>
      </trkpt>
      <trkpt lat="42.99256" lon="0.7769">
        <ele>788</ele>
        <time>2021-03-13T15:06:59Z</time>
      </trkpt>
      <trkpt lat="42.99258" lon="0.77691">
        <ele>791</ele>
        <time>2021-03-13T15:07:00Z</time>
      </trkpt>
      <trkpt lat="42.99259" lon="0.77692">
        <ele>791</ele>
        <time>2021-03-13T15:07:01Z</time>
      </trkpt>
      <trkpt lat="42.99261" lon="0.77693">
        <ele>790</ele>
        <time>2021-03-13T15:07:02Z</time>
      </trkpt>
      <trkpt lat="42.99262" lon="0.77693">
        <ele>790</ele>
        <time>2021-03-13T15:07:03Z</time>
      </trkpt>
      <trkpt lat="42.99265" lon="0.77695">
        <ele>791</ele>
        <time>2021-03-13T15:07:04Z</time>
      </trkpt>
      <trkpt lat="42.99267" lon="0.77696">
        <ele>791</ele>
        <time>2021-03-13T15:07:05Z</time>
      </trkpt>
      <trkpt lat="42.9927" lon="0.77698">
        <ele>791</ele>
        <time>2021-03-13T15:07:06Z</time>
      </trkpt>
      <trkpt lat="42.99272" lon="0.77699">
        <ele>791</ele>
        <time>2021-03-13T15:07:07Z</time>
      </trkpt>
      <trkpt lat="42.99274" lon="0.777">
        <ele>791</ele>
        <time>2021-03-13T15:07:08Z</time>
      </trkpt>
      <trkpt lat="42.99277" lon="0.77702">
        <ele>791</ele>
        <time>2021-03-13T15:07:09Z</time>
      </trkpt>
      <trkpt lat="42.99278" lon="0.77703">
        <ele>792</ele>
        <time>2021-03-13T15:07:10Z</time>
      </trkpt>
      <trkpt lat="42.9928" lon="0.77705">
        <ele>792</ele>
        <time>2021-03-13T15:07:11Z</time>
      </trkpt>
      <trkpt lat="42.99281" lon="0.77706">
        <ele>792</ele>
        <time>2021-03-13T15:07:12Z</time>
      </trkpt>
      <trkpt lat="42.99283" lon="0.77708">
        <ele>792</ele>
        <time>2021-03-13T15:07:13Z</time>
      </trkpt>
      <trkpt lat="42.99284" lon="0.77711">
        <ele>792</ele>
        <time>2021-03-13T15:07:14Z</time>
      </trkpt>
      <trkpt lat="42.99286" lon="0.77714">
        <ele>792</ele>
        <time>2021-03-13T15:07:15Z</time>
      </trkpt>
      <trkpt lat="42.99287" lon="0.77717">
        <ele>792</ele>
        <time>2021-03-13T15:07:16Z</time>
      </trkpt>
      <trkpt lat="42.99288" lon="0.7772">
        <ele>792</ele>
        <time>2021-03-13T15:07:17Z</time>
      </trkpt>
      <trkpt lat="42.99289" lon="0.77722">
        <ele>792</ele>
        <time>2021-03-13T15:07:18Z</time>
      </trkpt>
      <trkpt lat="42.99291" lon="0.77725">
        <ele>792</ele>
        <time>2021-03-13T15:07:19Z</time>
      </trkpt>
      <trkpt lat="42.99292" lon="0.77728">
        <ele>793</ele>
        <time>2021-03-13T15:07:20Z</time>
      </trkpt>
      <trkpt lat="42.99293" lon="0.77731">
        <ele>793</ele>
        <time>2021-03-13T15:07:21Z</time>
      </trkpt>
      <trkpt lat="42.99295" lon="0.77734">
        <ele>793</ele>
        <time>2021-03-13T15:07:22Z</time>
      </trkpt>
      <trkpt lat="42.99297" lon="0.77737">
        <ele>793</ele>
        <time>2021-03-13T15:07:23Z</time>
      </trkpt>
      <trkpt lat="42.99298" lon="0.7774">
        <ele>793</ele>
        <time>2021-03-13T15:07:24Z</time>
      </trkpt>
      <trkpt lat="42.993" lon="0.77744">
        <ele>793</ele>
        <time>2021-03-13T15:07:25Z</time>
      </trkpt>
      <trkpt lat="42.99301" lon="0.77747">
        <ele>793</ele>
        <time>2021-03-13T15:07:26Z</time>
      </trkpt>
      <trkpt lat="42.99303" lon="0.7775">
        <ele>793</ele>
        <time>2021-03-13T15:07:27Z</time>
      </trkpt>
      <trkpt lat="42.99304" lon="0.77753">
        <ele>793</ele>
        <time>2021-03-13T15:07:28Z</time>
      </trkpt>
      <trkpt lat="42.99306" lon="0.77756">
        <ele>793</ele>
        <time>2021-03-13T15:07:29Z</time>
      </trkpt>
      <trkpt lat="42.99307" lon="0.77764">
        <ele>793</ele>
        <time>2021-03-13T15:07:30Z</time>
      </trkpt>
      <trkpt lat="42.99307" lon="0.77764">
        <ele>793</ele>
        <time>2021-03-13T15:07:31Z</time>
      </trkpt>
      <trkpt lat="42.9931" lon="0.77771">
        <ele>793</ele>
        <time>2021-03-13T15:07:32Z</time>
      </trkpt>
      <trkpt lat="42.9931" lon="0.77771">
        <ele>793</ele>
        <time>2021-03-13T15:07:33Z</time>
      </trkpt>
      <trkpt lat="42.99314" lon="0.77778">
        <ele>793</ele>
        <time>2021-03-13T15:07:34Z</time>
      </trkpt>
      <trkpt lat="42.99314" lon="0.77778">
        <ele>793</ele>
        <time>2021-03-13T15:07:35Z</time>
      </trkpt>
      <trkpt lat="42.99316" lon="0.77786">
        <ele>793</ele>
        <time>2021-03-13T15:07:36Z</time>
      </trkpt>
      <trkpt lat="42.99316" lon="0.77786">
        <ele>793</ele>
        <time>2021-03-13T15:07:37Z</time>
      </trkpt>
      <trkpt lat="42.9932" lon="0.77795">
        <ele>793</ele>
        <time>2021-03-13T15:07:38Z</time>
      </trkpt>
      <trkpt lat="42.9932" lon="0.77795">
        <ele>793</ele>
        <time>2021-03-13T15:07:39Z</time>
      </trkpt>
      <trkpt lat="42.99322" lon="0.77804">
        <ele>793</ele>
        <time>2021-03-13T15:07:40Z</time>
      </trkpt>
      <trkpt lat="42.99322" lon="0.77804">
        <ele>793</ele>
        <time>2021-03-13T15:07:41Z</time>
      </trkpt>
      <trkpt lat="42.99324" lon="0.77807">
        <ele>793</ele>
        <time>2021-03-13T15:07:42Z</time>
      </trkpt>
      <trkpt lat="42.99326" lon="0.7781">
        <ele>793</ele>
        <time>2021-03-13T15:07:43Z</time>
      </trkpt>
      <trkpt lat="42.99328" lon="0.77814">
        <ele>793</ele>
        <time>2021-03-13T15:07:44Z</time>
      </trkpt>
      <trkpt lat="42.99332" lon="0.77822">
        <ele>793</ele>
        <time>2021-03-13T15:07:45Z</time>
      </trkpt>
      <trkpt lat="42.99332" lon="0.77822">
        <ele>793</ele>
        <time>2021-03-13T15:07:46Z</time>
      </trkpt>
      <trkpt lat="42.99339" lon="0.77832">
        <ele>793</ele>
        <time>2021-03-13T15:07:47Z</time>
      </trkpt>
      <trkpt lat="42.99339" lon="0.77832">
        <ele>793</ele>
        <time>2021-03-13T15:07:48Z</time>
      </trkpt>
      <trkpt lat="42.99346" lon="0.77841">
        <ele>793</ele>
        <time>2021-03-13T15:07:49Z</time>
      </trkpt>
      <trkpt lat="42.99346" lon="0.77841">
        <ele>792</ele>
        <time>2021-03-13T15:07:50Z</time>
      </trkpt>
      <trkpt lat="42.99349" lon="0.77844">
        <ele>792</ele>
        <time>2021-03-13T15:07:51Z</time>
      </trkpt>
      <trkpt lat="42.99352" lon="0.77848">
        <ele>792</ele>
        <time>2021-03-13T15:07:52Z</time>
      </trkpt>
      <trkpt lat="42.99354" lon="0.77851">
        <ele>792</ele>
        <time>2021-03-13T15:07:53Z</time>
      </trkpt>
      <trkpt lat="42.99358" lon="0.77856">
        <ele>792</ele>
        <time>2021-03-13T15:07:54Z</time>
      </trkpt>
      <trkpt lat="42.99362" lon="0.7786">
        <ele>792</ele>
        <time>2021-03-13T15:07:55Z</time>
      </trkpt>
      <trkpt lat="42.99366" lon="0.77864">
        <ele>792</ele>
        <time>2021-03-13T15:07:56Z</time>
      </trkpt>
      <trkpt lat="42.9937" lon="0.77868">
        <ele>792</ele>
        <time>2021-03-13T15:07:57Z</time>
      </trkpt>
      <trkpt lat="42.9937" lon="0.77868">
        <ele>792</ele>
        <time>2021-03-13T15:07:58Z</time>
      </trkpt>
      <trkpt lat="42.99373" lon="0.7787">
        <ele>792</ele>
        <time>2021-03-13T15:07:59Z</time>
      </trkpt>
      <trkpt lat="42.99376" lon="0.77873">
        <ele>791</ele>
        <time>2021-03-13T15:08:00Z</time>
      </trkpt>
      <trkpt lat="42.99379" lon="0.77876">
        <ele>791</ele>
        <time>2021-03-13T15:08:01Z</time>
      </trkpt>
      <trkpt lat="42.99382" lon="0.77878">
        <ele>791</ele>
        <time>2021-03-13T15:08:02Z</time>
      </trkpt>
      <trkpt lat="42.99386" lon="0.7788">
        <ele>791</ele>
        <time>2021-03-13T15:08:03Z</time>
      </trkpt>
      <trkpt lat="42.99389" lon="0.77882">
        <ele>791</ele>
        <time>2021-03-13T15:08:04Z</time>
      </trkpt>
      <trkpt lat="42.99391" lon="0.77884">
        <ele>791</ele>
        <time>2021-03-13T15:08:05Z</time>
      </trkpt>
      <trkpt lat="42.99394" lon="0.77886">
        <ele>791</ele>
        <time>2021-03-13T15:08:06Z</time>
      </trkpt>
      <trkpt lat="42.99397" lon="0.77888">
        <ele>791</ele>
        <time>2021-03-13T15:08:07Z</time>
      </trkpt>
      <trkpt lat="42.994" lon="0.7789">
        <ele>791</ele>
        <time>2021-03-13T15:08:08Z</time>
      </trkpt>
      <trkpt lat="42.99403" lon="0.77892">
        <ele>791</ele>
        <time>2021-03-13T15:08:09Z</time>
      </trkpt>
      <trkpt lat="42.99405" lon="0.77894">
        <ele>791</ele>
        <time>2021-03-13T15:08:10Z</time>
      </trkpt>
      <trkpt lat="42.99414" lon="0.77898">
        <ele>791</ele>
        <time>2021-03-13T15:08:11Z</time>
      </trkpt>
      <trkpt lat="42.99414" lon="0.77898">
        <ele>791</ele>
        <time>2021-03-13T15:08:12Z</time>
      </trkpt>
      <trkpt lat="42.99422" lon="0.77901">
        <ele>791</ele>
        <time>2021-03-13T15:08:13Z</time>
      </trkpt>
      <trkpt lat="42.99422" lon="0.77901">
        <ele>791</ele>
        <time>2021-03-13T15:08:14Z</time>
      </trkpt>
      <trkpt lat="42.99432" lon="0.77904">
        <ele>791</ele>
        <time>2021-03-13T15:08:15Z</time>
      </trkpt>
      <trkpt lat="42.99432" lon="0.77904">
        <ele>791</ele>
        <time>2021-03-13T15:08:16Z</time>
      </trkpt>
      <trkpt lat="42.9944" lon="0.77907">
        <ele>791</ele>
        <time>2021-03-13T15:08:17Z</time>
      </trkpt>
      <trkpt lat="42.9944" lon="0.77907">
        <ele>791</ele>
        <time>2021-03-13T15:08:18Z</time>
      </trkpt>
      <trkpt lat="42.99449" lon="0.77909">
        <ele>791</ele>
        <time>2021-03-13T15:08:19Z</time>
      </trkpt>
      <trkpt lat="42.99449" lon="0.77909">
        <ele>788</ele>
        <time>2021-03-13T15:08:20Z</time>
      </trkpt>
      <trkpt lat="42.99453" lon="0.77911">
        <ele>788</ele>
        <time>2021-03-13T15:08:21Z</time>
      </trkpt>
      <trkpt lat="42.99457" lon="0.77912">
        <ele>788</ele>
        <time>2021-03-13T15:08:22Z</time>
      </trkpt>
      <trkpt lat="42.99461" lon="0.77913">
        <ele>788</ele>
        <time>2021-03-13T15:08:23Z</time>
      </trkpt>
      <trkpt lat="42.99464" lon="0.77914">
        <ele>788</ele>
        <time>2021-03-13T15:08:24Z</time>
      </trkpt>
      <trkpt lat="42.99467" lon="0.77916">
        <ele>788</ele>
        <time>2021-03-13T15:08:25Z</time>
      </trkpt>
      <trkpt lat="42.9947" lon="0.77917">
        <ele>788</ele>
        <time>2021-03-13T15:08:26Z</time>
      </trkpt>
      <trkpt lat="42.99473" lon="0.77919">
        <ele>788</ele>
        <time>2021-03-13T15:08:27Z</time>
      </trkpt>
      <trkpt lat="42.99477" lon="0.77921">
        <ele>788</ele>
        <time>2021-03-13T15:08:28Z</time>
      </trkpt>
      <trkpt lat="42.99481" lon="0.77923">
        <ele>788</ele>
        <time>2021-03-13T15:08:29Z</time>
      </trkpt>
      <trkpt lat="42.99485" lon="0.77925">
        <ele>788</ele>
        <time>2021-03-13T15:08:30Z</time>
      </trkpt>
      <trkpt lat="42.9949" lon="0.77927">
        <ele>788</ele>
        <time>2021-03-13T15:08:31Z</time>
      </trkpt>
      <trkpt lat="42.99496" lon="0.77929">
        <ele>788</ele>
        <time>2021-03-13T15:08:32Z</time>
      </trkpt>
      <trkpt lat="42.99502" lon="0.77931">
        <ele>788</ele>
        <time>2021-03-13T15:08:33Z</time>
      </trkpt>
      <trkpt lat="42.9951" lon="0.77933">
        <ele>788</ele>
        <time>2021-03-13T15:08:34Z</time>
      </trkpt>
      <trkpt lat="42.99512" lon="0.77934">
        <ele>788</ele>
        <time>2021-03-13T15:08:35Z</time>
      </trkpt>
      <trkpt lat="42.99516" lon="0.77937">
        <ele>788</ele>
        <time>2021-03-13T15:08:36Z</time>
      </trkpt>
      <trkpt lat="42.99516" lon="0.77937">
        <ele>788</ele>
        <time>2021-03-13T15:08:37Z</time>
      </trkpt>
      <trkpt lat="42.99524" lon="0.77944">
        <ele>788</ele>
        <time>2021-03-13T15:08:38Z</time>
      </trkpt>
      <trkpt lat="42.99524" lon="0.77944">
        <ele>788</ele>
        <time>2021-03-13T15:08:39Z</time>
      </trkpt>
      <trkpt lat="42.99527" lon="0.77947">
        <ele>785</ele>
        <time>2021-03-13T15:08:40Z</time>
      </trkpt>
      <trkpt lat="42.9953" lon="0.77949">
        <ele>785</ele>
        <time>2021-03-13T15:08:41Z</time>
      </trkpt>
      <trkpt lat="42.99533" lon="0.77952">
        <ele>785</ele>
        <time>2021-03-13T15:08:42Z</time>
      </trkpt>
      <trkpt lat="42.99536" lon="0.77955">
        <ele>785</ele>
        <time>2021-03-13T15:08:43Z</time>
      </trkpt>
      <trkpt lat="42.9954" lon="0.77957">
        <ele>785</ele>
        <time>2021-03-13T15:08:44Z</time>
      </trkpt>
      <trkpt lat="42.99543" lon="0.7796">
        <ele>786</ele>
        <time>2021-03-13T15:08:45Z</time>
      </trkpt>
      <trkpt lat="42.99546" lon="0.77962">
        <ele>786</ele>
        <time>2021-03-13T15:08:46Z</time>
      </trkpt>
      <trkpt lat="42.99549" lon="0.77965">
        <ele>786</ele>
        <time>2021-03-13T15:08:47Z</time>
      </trkpt>
      <trkpt lat="42.99552" lon="0.77967">
        <ele>786</ele>
        <time>2021-03-13T15:08:48Z</time>
      </trkpt>
      <trkpt lat="42.99555" lon="0.7797">
        <ele>786</ele>
        <time>2021-03-13T15:08:49Z</time>
      </trkpt>
      <trkpt lat="42.99558" lon="0.77973">
        <ele>787</ele>
        <time>2021-03-13T15:08:50Z</time>
      </trkpt>
      <trkpt lat="42.9956" lon="0.77976">
        <ele>787</ele>
        <time>2021-03-13T15:08:51Z</time>
      </trkpt>
      <trkpt lat="42.99564" lon="0.77981">
        <ele>787</ele>
        <time>2021-03-13T15:08:52Z</time>
      </trkpt>
      <trkpt lat="42.99568" lon="0.77985">
        <ele>787</ele>
        <time>2021-03-13T15:08:53Z</time>
      </trkpt>
      <trkpt lat="42.99573" lon="0.77989">
        <ele>787</ele>
        <time>2021-03-13T15:08:54Z</time>
      </trkpt>
      <trkpt lat="42.99576" lon="0.77991">
        <ele>787</ele>
        <time>2021-03-13T15:08:55Z</time>
      </trkpt>
      <trkpt lat="42.99576" lon="0.77991">
        <ele>787</ele>
        <time>2021-03-13T15:08:56Z</time>
      </trkpt>
      <trkpt lat="42.99582" lon="0.77996">
        <ele>787</ele>
        <time>2021-03-13T15:08:57Z</time>
      </trkpt>
      <trkpt lat="42.99582" lon="0.77996">
        <ele>787</ele>
        <time>2021-03-13T15:08:58Z</time>
      </trkpt>
      <trkpt lat="42.99588" lon="0.78002">
        <ele>787</ele>
        <time>2021-03-13T15:08:59Z</time>
      </trkpt>
      <trkpt lat="42.99588" lon="0.78002">
        <ele>788</ele>
        <time>2021-03-13T15:09:00Z</time>
      </trkpt>
      <trkpt lat="42.99593" lon="0.78007">
        <ele>788</ele>
        <time>2021-03-13T15:09:01Z</time>
      </trkpt>
      <trkpt lat="42.99593" lon="0.78007">
        <ele>788</ele>
        <time>2021-03-13T15:09:02Z</time>
      </trkpt>
      <trkpt lat="42.99596" lon="0.78009">
        <ele>788</ele>
        <time>2021-03-13T15:09:03Z</time>
      </trkpt>
      <trkpt lat="42.99598" lon="0.78011">
        <ele>788</ele>
        <time>2021-03-13T15:09:04Z</time>
      </trkpt>
      <trkpt lat="42.996" lon="0.78013">
        <ele>788</ele>
        <time>2021-03-13T15:09:05Z</time>
      </trkpt>
      <trkpt lat="42.99603" lon="0.78015">
        <ele>788</ele>
        <time>2021-03-13T15:09:06Z</time>
      </trkpt>
      <trkpt lat="42.99605" lon="0.78017">
        <ele>788</ele>
        <time>2021-03-13T15:09:07Z</time>
      </trkpt>
      <trkpt lat="42.99608" lon="0.78019">
        <ele>788</ele>
        <time>2021-03-13T15:09:08Z</time>
      </trkpt>
      <trkpt lat="42.9961" lon="0.78022">
        <ele>788</ele>
        <time>2021-03-13T15:09:09Z</time>
      </trkpt>
      <trkpt lat="42.99613" lon="0.78026">
        <ele>788</ele>
        <time>2021-03-13T15:09:10Z</time>
      </trkpt>
      <trkpt lat="42.99615" lon="0.78029">
        <ele>788</ele>
        <time>2021-03-13T15:09:11Z</time>
      </trkpt>
      <trkpt lat="42.99618" lon="0.78033">
        <ele>788</ele>
        <time>2021-03-13T15:09:12Z</time>
      </trkpt>
      <trkpt lat="42.9962" lon="0.78037">
        <ele>788</ele>
        <time>2021-03-13T15:09:13Z</time>
      </trkpt>
      <trkpt lat="42.9962" lon="0.78037">
        <ele>788</ele>
        <time>2021-03-13T15:09:14Z</time>
      </trkpt>
      <trkpt lat="42.99622" lon="0.7804">
        <ele>788</ele>
        <time>2021-03-13T15:09:15Z</time>
      </trkpt>
      <trkpt lat="42.99624" lon="0.78043">
        <ele>788</ele>
        <time>2021-03-13T15:09:16Z</time>
      </trkpt>
      <trkpt lat="42.99627" lon="0.78046">
        <ele>788</ele>
        <time>2021-03-13T15:09:17Z</time>
      </trkpt>
      <trkpt lat="42.99632" lon="0.78051">
        <ele>788</ele>
        <time>2021-03-13T15:09:18Z</time>
      </trkpt>
      <trkpt lat="42.99632" lon="0.78051">
        <ele>788</ele>
        <time>2021-03-13T15:09:19Z</time>
      </trkpt>
      <trkpt lat="42.99638" lon="0.78056">
        <ele>789</ele>
        <time>2021-03-13T15:09:20Z</time>
      </trkpt>
      <trkpt lat="42.99638" lon="0.78056">
        <ele>789</ele>
        <time>2021-03-13T15:09:21Z</time>
      </trkpt>
      <trkpt lat="42.9964" lon="0.78058">
        <ele>789</ele>
        <time>2021-03-13T15:09:22Z</time>
      </trkpt>
      <trkpt lat="42.99643" lon="0.78061">
        <ele>789</ele>
        <time>2021-03-13T15:09:23Z</time>
      </trkpt>
      <trkpt lat="42.99645" lon="0.78063">
        <ele>789</ele>
        <time>2021-03-13T15:09:24Z</time>
      </trkpt>
      <trkpt lat="42.99648" lon="0.78065">
        <ele>789</ele>
        <time>2021-03-13T15:09:25Z</time>
      </trkpt>
      <trkpt lat="42.9965" lon="0.78067">
        <ele>789</ele>
        <time>2021-03-13T15:09:26Z</time>
      </trkpt>
      <trkpt lat="42.99653" lon="0.78069">
        <ele>789</ele>
        <time>2021-03-13T15:09:27Z</time>
      </trkpt>
      <trkpt lat="42.99656" lon="0.7807">
        <ele>789</ele>
        <time>2021-03-13T15:09:28Z</time>
      </trkpt>
      <trkpt lat="42.9966" lon="0.78072">
        <ele>789</ele>
        <time>2021-03-13T15:09:29Z</time>
      </trkpt>
      <trkpt lat="42.99663" lon="0.78073">
        <ele>791</ele>
        <time>2021-03-13T15:09:30Z</time>
      </trkpt>
      <trkpt lat="42.99666" lon="0.78073">
        <ele>791</ele>
        <time>2021-03-13T15:09:31Z</time>
      </trkpt>
      <trkpt lat="42.9967" lon="0.78072">
        <ele>791</ele>
        <time>2021-03-13T15:09:32Z</time>
      </trkpt>
      <trkpt lat="42.99673" lon="0.78072">
        <ele>791</ele>
        <time>2021-03-13T15:09:33Z</time>
      </trkpt>
      <trkpt lat="42.99675" lon="0.78071">
        <ele>791</ele>
        <time>2021-03-13T15:09:34Z</time>
      </trkpt>
      <trkpt lat="42.99678" lon="0.7807">
        <ele>791</ele>
        <time>2021-03-13T15:09:35Z</time>
      </trkpt>
      <trkpt lat="42.9968" lon="0.7807">
        <ele>791</ele>
        <time>2021-03-13T15:09:36Z</time>
      </trkpt>
      <trkpt lat="42.99682" lon="0.78066">
        <ele>791</ele>
        <time>2021-03-13T15:09:37Z</time>
      </trkpt>
      <trkpt lat="42.99684" lon="0.78063">
        <ele>791</ele>
        <time>2021-03-13T15:09:38Z</time>
      </trkpt>
      <trkpt lat="42.99686" lon="0.78059">
        <ele>791</ele>
        <time>2021-03-13T15:09:39Z</time>
      </trkpt>
      <trkpt lat="42.99691" lon="0.78048">
        <ele>791</ele>
        <time>2021-03-13T15:09:40Z</time>
      </trkpt>
      <trkpt lat="42.99691" lon="0.78048">
        <ele>791</ele>
        <time>2021-03-13T15:09:41Z</time>
      </trkpt>
      <trkpt lat="42.99693" lon="0.78039">
        <ele>791</ele>
        <time>2021-03-13T15:09:42Z</time>
      </trkpt>
      <trkpt lat="42.99693" lon="0.78039">
        <ele>791</ele>
        <time>2021-03-13T15:09:43Z</time>
      </trkpt>
      <trkpt lat="42.99696" lon="0.78039">
        <ele>791</ele>
        <time>2021-03-13T15:09:44Z</time>
      </trkpt>
      <trkpt lat="42.99698" lon="0.7804">
        <ele>791</ele>
        <time>2021-03-13T15:09:45Z</time>
      </trkpt>
      <trkpt lat="42.99701" lon="0.7804">
        <ele>791</ele>
        <time>2021-03-13T15:09:46Z</time>
      </trkpt>
      <trkpt lat="42.99705" lon="0.78041">
        <ele>791</ele>
        <time>2021-03-13T15:09:47Z</time>
      </trkpt>
      <trkpt lat="42.9971" lon="0.78042">
        <ele>791</ele>
        <time>2021-03-13T15:09:48Z</time>
      </trkpt>
      <trkpt lat="42.99714" lon="0.78042">
        <ele>791</ele>
        <time>2021-03-13T15:09:49Z</time>
      </trkpt>
      <trkpt lat="42.99719" lon="0.78043">
        <ele>787</ele>
        <time>2021-03-13T15:09:50Z</time>
      </trkpt>
      <trkpt lat="42.99727" lon="0.78044">
        <ele>787</ele>
        <time>2021-03-13T15:09:51Z</time>
      </trkpt>
      <trkpt lat="42.99729" lon="0.78045">
        <ele>787</ele>
        <time>2021-03-13T15:09:52Z</time>
      </trkpt>
      <trkpt lat="42.99734" lon="0.78045">
        <ele>787</ele>
        <time>2021-03-13T15:09:53Z</time>
      </trkpt>
      <trkpt lat="42.99734" lon="0.78045">
        <ele>787</ele>
        <time>2021-03-13T15:09:54Z</time>
      </trkpt>
      <trkpt lat="42.99738" lon="0.78047">
        <ele>781</ele>
        <time>2021-03-13T15:09:55Z</time>
      </trkpt>
      <trkpt lat="42.99742" lon="0.78049">
        <ele>781</ele>
        <time>2021-03-13T15:09:56Z</time>
      </trkpt>
      <trkpt lat="42.99746" lon="0.7805">
        <ele>781</ele>
        <time>2021-03-13T15:09:57Z</time>
      </trkpt>
      <trkpt lat="42.9975" lon="0.78054">
        <ele>781</ele>
        <time>2021-03-13T15:09:58Z</time>
      </trkpt>
      <trkpt lat="42.99754" lon="0.78057">
        <ele>781</ele>
        <time>2021-03-13T15:09:59Z</time>
      </trkpt>
      <trkpt lat="42.99758" lon="0.78061">
        <ele>772</ele>
        <time>2021-03-13T15:10:00Z</time>
      </trkpt>
      <trkpt lat="42.99761" lon="0.78063">
        <ele>772</ele>
        <time>2021-03-13T15:10:01Z</time>
      </trkpt>
      <trkpt lat="42.99764" lon="0.78065">
        <ele>771</ele>
        <time>2021-03-13T15:10:02Z</time>
      </trkpt>
      <trkpt lat="42.99772" lon="0.78071">
        <ele>771</ele>
        <time>2021-03-13T15:10:03Z</time>
      </trkpt>
      <trkpt lat="42.99775" lon="0.78074">
        <ele>770</ele>
        <time>2021-03-13T15:10:04Z</time>
      </trkpt>
      <trkpt lat="42.99783" lon="0.78081">
        <ele>769</ele>
        <time>2021-03-13T15:10:05Z</time>
      </trkpt>
      <trkpt lat="42.99786" lon="0.78084">
        <ele>769</ele>
        <time>2021-03-13T15:10:06Z</time>
      </trkpt>
      <trkpt lat="42.99794" lon="0.78095">
        <ele>769</ele>
        <time>2021-03-13T15:10:07Z</time>
      </trkpt>
      <trkpt lat="42.99798" lon="0.781">
        <ele>769</ele>
        <time>2021-03-13T15:10:08Z</time>
      </trkpt>
      <trkpt lat="42.99802" lon="0.78104">
        <ele>769</ele>
        <time>2021-03-13T15:10:09Z</time>
      </trkpt>
      <trkpt lat="42.99805" lon="0.78108">
        <ele>769</ele>
        <time>2021-03-13T15:10:10Z</time>
      </trkpt>
      <trkpt lat="42.99808" lon="0.78111">
        <ele>769</ele>
        <time>2021-03-13T15:10:11Z</time>
      </trkpt>
      <trkpt lat="42.9981" lon="0.78114">
        <ele>769</ele>
        <time>2021-03-13T15:10:12Z</time>
      </trkpt>
      <trkpt lat="42.99812" lon="0.78117">
        <ele>769</ele>
        <time>2021-03-13T15:10:13Z</time>
      </trkpt>
      <trkpt lat="42.99813" lon="0.78119">
        <ele>769</ele>
        <time>2021-03-13T15:10:14Z</time>
      </trkpt>
      <trkpt lat="42.99815" lon="0.78122">
        <ele>768</ele>
        <time>2021-03-13T15:10:15Z</time>
      </trkpt>
      <trkpt lat="42.99817" lon="0.78125">
        <ele>768</ele>
        <time>2021-03-13T15:10:16Z</time>
      </trkpt>
      <trkpt lat="42.99819" lon="0.78128">
        <ele>768</ele>
        <time>2021-03-13T15:10:17Z</time>
      </trkpt>
      <trkpt lat="42.99821" lon="0.78131">
        <ele>768</ele>
        <time>2021-03-13T15:10:18Z</time>
      </trkpt>
      <trkpt lat="42.99824" lon="0.78134">
        <ele>768</ele>
        <time>2021-03-13T15:10:19Z</time>
      </trkpt>
      <trkpt lat="42.99827" lon="0.78136">
        <ele>767</ele>
        <time>2021-03-13T15:10:20Z</time>
      </trkpt>
      <trkpt lat="42.99829" lon="0.78138">
        <ele>767</ele>
        <time>2021-03-13T15:10:21Z</time>
      </trkpt>
      <trkpt lat="42.99831" lon="0.7814">
        <ele>767</ele>
        <time>2021-03-13T15:10:22Z</time>
      </trkpt>
      <trkpt lat="42.99834" lon="0.78141">
        <ele>767</ele>
        <time>2021-03-13T15:10:23Z</time>
      </trkpt>
      <trkpt lat="42.99836" lon="0.78143">
        <ele>767</ele>
        <time>2021-03-13T15:10:24Z</time>
      </trkpt>
      <trkpt lat="42.99839" lon="0.78144">
        <ele>767</ele>
        <time>2021-03-13T15:10:25Z</time>
      </trkpt>
      <trkpt lat="42.99842" lon="0.78146">
        <ele>767</ele>
        <time>2021-03-13T15:10:26Z</time>
      </trkpt>
      <trkpt lat="42.99845" lon="0.78147">
        <ele>767</ele>
        <time>2021-03-13T15:10:27Z</time>
      </trkpt>
      <trkpt lat="42.99848" lon="0.78148">
        <ele>767</ele>
        <time>2021-03-13T15:10:28Z</time>
      </trkpt>
      <trkpt lat="42.99852" lon="0.7815">
        <ele>767</ele>
        <time>2021-03-13T15:10:29Z</time>
      </trkpt>
      <trkpt lat="42.99857" lon="0.78151">
        <ele>765</ele>
        <time>2021-03-13T15:10:30Z</time>
      </trkpt>
      <trkpt lat="42.99861" lon="0.78151">
        <ele>765</ele>
        <time>2021-03-13T15:10:31Z</time>
      </trkpt>
      <trkpt lat="42.99864" lon="0.78151">
        <ele>765</ele>
        <time>2021-03-13T15:10:32Z</time>
      </trkpt>
      <trkpt lat="42.99867" lon="0.7815">
        <ele>765</ele>
        <time>2021-03-13T15:10:33Z</time>
      </trkpt>
      <trkpt lat="42.99876" lon="0.78149">
        <ele>765</ele>
        <time>2021-03-13T15:10:34Z</time>
      </trkpt>
      <trkpt lat="42.9988" lon="0.78148">
        <ele>765</ele>
        <time>2021-03-13T15:10:35Z</time>
      </trkpt>
      <trkpt lat="42.99893" lon="0.7815">
        <ele>765</ele>
        <time>2021-03-13T15:10:36Z</time>
      </trkpt>
      <trkpt lat="42.999" lon="0.78152">
        <ele>765</ele>
        <time>2021-03-13T15:10:37Z</time>
      </trkpt>
      <trkpt lat="42.99912" lon="0.78156">
        <ele>765</ele>
        <time>2021-03-13T15:10:38Z</time>
      </trkpt>
      <trkpt lat="42.9992" lon="0.7816">
        <ele>765</ele>
        <time>2021-03-13T15:10:39Z</time>
      </trkpt>
      <trkpt lat="42.99928" lon="0.78164">
        <ele>760</ele>
        <time>2021-03-13T15:10:40Z</time>
      </trkpt>
      <trkpt lat="42.99935" lon="0.78169">
        <ele>757</ele>
        <time>2021-03-13T15:10:41Z</time>
      </trkpt>
      <trkpt lat="42.99942" lon="0.78173">
        <ele>757</ele>
        <time>2021-03-13T15:10:42Z</time>
      </trkpt>
      <trkpt lat="42.99948" lon="0.78176">
        <ele>757</ele>
        <time>2021-03-13T15:10:43Z</time>
      </trkpt>
      <trkpt lat="42.99955" lon="0.7818">
        <ele>757</ele>
        <time>2021-03-13T15:10:44Z</time>
      </trkpt>
      <trkpt lat="42.99961" lon="0.78183">
        <ele>757</ele>
        <time>2021-03-13T15:10:45Z</time>
      </trkpt>
      <trkpt lat="42.99966" lon="0.78184">
        <ele>757</ele>
        <time>2021-03-13T15:10:46Z</time>
      </trkpt>
      <trkpt lat="42.99971" lon="0.78185">
        <ele>757</ele>
        <time>2021-03-13T15:10:47Z</time>
      </trkpt>
      <trkpt lat="42.99976" lon="0.78185">
        <ele>757</ele>
        <time>2021-03-13T15:10:48Z</time>
      </trkpt>
      <trkpt lat="42.99981" lon="0.78185">
        <ele>757</ele>
        <time>2021-03-13T15:10:49Z</time>
      </trkpt>
      <trkpt lat="42.99985" lon="0.78184">
        <ele>758</ele>
        <time>2021-03-13T15:10:50Z</time>
      </trkpt>
      <trkpt lat="42.99988" lon="0.78185">
        <ele>758</ele>
        <time>2021-03-13T15:10:51Z</time>
      </trkpt>
      <trkpt lat="42.99992" lon="0.78185">
        <ele>758</ele>
        <time>2021-03-13T15:10:52Z</time>
      </trkpt>
      <trkpt lat="42.99996" lon="0.78185">
        <ele>758</ele>
        <time>2021-03-13T15:10:53Z</time>
      </trkpt>
      <trkpt lat="42.99999" lon="0.78185">
        <ele>758</ele>
        <time>2021-03-13T15:10:54Z</time>
      </trkpt>
      <trkpt lat="43.00003" lon="0.78186">
        <ele>758</ele>
        <time>2021-03-13T15:10:55Z</time>
      </trkpt>
      <trkpt lat="43.00007" lon="0.78187">
        <ele>758</ele>
        <time>2021-03-13T15:10:56Z</time>
      </trkpt>
      <trkpt lat="43.0001" lon="0.78187">
        <ele>758</ele>
        <time>2021-03-13T15:10:57Z</time>
      </trkpt>
      <trkpt lat="43.00013" lon="0.78188">
        <ele>758</ele>
        <time>2021-03-13T15:10:58Z</time>
      </trkpt>
      <trkpt lat="43.00016" lon="0.78189">
        <ele>758</ele>
        <time>2021-03-13T15:10:59Z</time>
      </trkpt>
      <trkpt lat="43.00019" lon="0.7819">
        <ele>759</ele>
        <time>2021-03-13T15:11:00Z</time>
      </trkpt>
      <trkpt lat="43.00022" lon="0.78191">
        <ele>759</ele>
        <time>2021-03-13T15:11:01Z</time>
      </trkpt>
      <trkpt lat="43.00025" lon="0.78192">
        <ele>759</ele>
        <time>2021-03-13T15:11:02Z</time>
      </trkpt>
      <trkpt lat="43.00029" lon="0.78192">
        <ele>759</ele>
        <time>2021-03-13T15:11:03Z</time>
      </trkpt>
      <trkpt lat="43.00033" lon="0.78192">
        <ele>759</ele>
        <time>2021-03-13T15:11:04Z</time>
      </trkpt>
      <trkpt lat="43.00037" lon="0.78192">
        <ele>759</ele>
        <time>2021-03-13T15:11:05Z</time>
      </trkpt>
      <trkpt lat="43.00041" lon="0.78192">
        <ele>759</ele>
        <time>2021-03-13T15:11:06Z</time>
      </trkpt>
      <trkpt lat="43.00046" lon="0.78191">
        <ele>759</ele>
        <time>2021-03-13T15:11:07Z</time>
      </trkpt>
      <trkpt lat="43.0005" lon="0.7819">
        <ele>759</ele>
        <time>2021-03-13T15:11:08Z</time>
      </trkpt>
      <trkpt lat="43.00056" lon="0.7819">
        <ele>759</ele>
        <time>2021-03-13T15:11:09Z</time>
      </trkpt>
      <trkpt lat="43.00061" lon="0.78189">
        <ele>759</ele>
        <time>2021-03-13T15:11:10Z</time>
      </trkpt>
      <trkpt lat="43.00067" lon="0.78189">
        <ele>759</ele>
        <time>2021-03-13T15:11:11Z</time>
      </trkpt>
      <trkpt lat="43.00073" lon="0.78189">
        <ele>759</ele>
        <time>2021-03-13T15:11:12Z</time>
      </trkpt>
      <trkpt lat="43.00079" lon="0.7819">
        <ele>759</ele>
        <time>2021-03-13T15:11:13Z</time>
      </trkpt>
      <trkpt lat="43.00082" lon="0.7819">
        <ele>759</ele>
        <time>2021-03-13T15:11:14Z</time>
      </trkpt>
      <trkpt lat="43.00085" lon="0.7819">
        <ele>759</ele>
        <time>2021-03-13T15:11:15Z</time>
      </trkpt>
      <trkpt lat="43.00094" lon="0.7819">
        <ele>759</ele>
        <time>2021-03-13T15:11:16Z</time>
      </trkpt>
      <trkpt lat="43.00098" lon="0.78191">
        <ele>759</ele>
        <time>2021-03-13T15:11:17Z</time>
      </trkpt>
      <trkpt lat="43.00109" lon="0.78192">
        <ele>759</ele>
        <time>2021-03-13T15:11:18Z</time>
      </trkpt>
      <trkpt lat="43.00112" lon="0.78192">
        <ele>759</ele>
        <time>2021-03-13T15:11:19Z</time>
      </trkpt>
      <trkpt lat="43.00122" lon="0.78195">
        <ele>753</ele>
        <time>2021-03-13T15:11:20Z</time>
      </trkpt>
      <trkpt lat="43.00124" lon="0.78196">
        <ele>751</ele>
        <time>2021-03-13T15:11:21Z</time>
      </trkpt>
      <trkpt lat="43.00131" lon="0.78203">
        <ele>750</ele>
        <time>2021-03-13T15:11:22Z</time>
      </trkpt>
      <trkpt lat="43.00134" lon="0.78207">
        <ele>748</ele>
        <time>2021-03-13T15:11:23Z</time>
      </trkpt>
      <trkpt lat="43.00142" lon="0.78219">
        <ele>747</ele>
        <time>2021-03-13T15:11:24Z</time>
      </trkpt>
      <trkpt lat="43.00145" lon="0.78224">
        <ele>746</ele>
        <time>2021-03-13T15:11:25Z</time>
      </trkpt>
      <trkpt lat="43.00155" lon="0.78237">
        <ele>745</ele>
        <time>2021-03-13T15:11:26Z</time>
      </trkpt>
      <trkpt lat="43.00157" lon="0.78242">
        <ele>745</ele>
        <time>2021-03-13T15:11:27Z</time>
      </trkpt>
      <trkpt lat="43.00166" lon="0.78255">
        <ele>744</ele>
        <time>2021-03-13T15:11:28Z</time>
      </trkpt>
      <trkpt lat="43.00169" lon="0.78259">
        <ele>742</ele>
        <time>2021-03-13T15:11:29Z</time>
      </trkpt>
      <trkpt lat="43.00178" lon="0.78271">
        <ele>741</ele>
        <time>2021-03-13T15:11:30Z</time>
      </trkpt>
      <trkpt lat="43.00182" lon="0.78275">
        <ele>740</ele>
        <time>2021-03-13T15:11:31Z</time>
      </trkpt>
      <trkpt lat="43.00192" lon="0.78285">
        <ele>738</ele>
        <time>2021-03-13T15:11:32Z</time>
      </trkpt>
      <trkpt lat="43.00196" lon="0.78288">
        <ele>737</ele>
        <time>2021-03-13T15:11:33Z</time>
      </trkpt>
      <trkpt lat="43.00206" lon="0.78296">
        <ele>736</ele>
        <time>2021-03-13T15:11:34Z</time>
      </trkpt>
      <trkpt lat="43.0021" lon="0.78299">
        <ele>735</ele>
        <time>2021-03-13T15:11:35Z</time>
      </trkpt>
      <trkpt lat="43.00221" lon="0.78306">
        <ele>734</ele>
        <time>2021-03-13T15:11:36Z</time>
      </trkpt>
      <trkpt lat="43.00224" lon="0.78308">
        <ele>733</ele>
        <time>2021-03-13T15:11:37Z</time>
      </trkpt>
      <trkpt lat="43.00234" lon="0.78315">
        <ele>731</ele>
        <time>2021-03-13T15:11:38Z</time>
      </trkpt>
      <trkpt lat="43.00237" lon="0.78317">
        <ele>730</ele>
        <time>2021-03-13T15:11:39Z</time>
      </trkpt>
      <trkpt lat="43.00247" lon="0.78324">
        <ele>729</ele>
        <time>2021-03-13T15:11:40Z</time>
      </trkpt>
      <trkpt lat="43.0025" lon="0.78327">
        <ele>728</ele>
        <time>2021-03-13T15:11:41Z</time>
      </trkpt>
      <trkpt lat="43.00261" lon="0.7834">
        <ele>727</ele>
        <time>2021-03-13T15:11:42Z</time>
      </trkpt>
      <trkpt lat="43.00265" lon="0.78346">
        <ele>727</ele>
        <time>2021-03-13T15:11:43Z</time>
      </trkpt>
      <trkpt lat="43.00274" lon="0.78358">
        <ele>726</ele>
        <time>2021-03-13T15:11:44Z</time>
      </trkpt>
      <trkpt lat="43.00277" lon="0.78361">
        <ele>725</ele>
        <time>2021-03-13T15:11:45Z</time>
      </trkpt>
      <trkpt lat="43.0028" lon="0.78363">
        <ele>723</ele>
        <time>2021-03-13T15:11:46Z</time>
      </trkpt>
      <trkpt lat="43.0029" lon="0.78371">
        <ele>722</ele>
        <time>2021-03-13T15:11:47Z</time>
      </trkpt>
      <trkpt lat="43.00293" lon="0.78374">
        <ele>721</ele>
        <time>2021-03-13T15:11:48Z</time>
      </trkpt>
      <trkpt lat="43.00303" lon="0.78382">
        <ele>720</ele>
        <time>2021-03-13T15:11:49Z</time>
      </trkpt>
      <trkpt lat="43.00307" lon="0.78385">
        <ele>719</ele>
        <time>2021-03-13T15:11:50Z</time>
      </trkpt>
      <trkpt lat="43.00318" lon="0.78392">
        <ele>719</ele>
        <time>2021-03-13T15:11:51Z</time>
      </trkpt>
      <trkpt lat="43.00322" lon="0.78394">
        <ele>718</ele>
        <time>2021-03-13T15:11:52Z</time>
      </trkpt>
      <trkpt lat="43.00334" lon="0.78399">
        <ele>717</ele>
        <time>2021-03-13T15:11:53Z</time>
      </trkpt>
      <trkpt lat="43.00338" lon="0.784">
        <ele>716</ele>
        <time>2021-03-13T15:11:54Z</time>
      </trkpt>
      <trkpt lat="43.0035" lon="0.78403">
        <ele>715</ele>
        <time>2021-03-13T15:11:55Z</time>
      </trkpt>
      <trkpt lat="43.00353" lon="0.78405">
        <ele>714</ele>
        <time>2021-03-13T15:11:56Z</time>
      </trkpt>
      <trkpt lat="43.00364" lon="0.78409">
        <ele>713</ele>
        <time>2021-03-13T15:11:57Z</time>
      </trkpt>
      <trkpt lat="43.00368" lon="0.78411">
        <ele>711</ele>
        <time>2021-03-13T15:11:58Z</time>
      </trkpt>
      <trkpt lat="43.00379" lon="0.78416">
        <ele>710</ele>
        <time>2021-03-13T15:11:59Z</time>
      </trkpt>
      <trkpt lat="43.00382" lon="0.78418">
        <ele>709</ele>
        <time>2021-03-13T15:12:00Z</time>
      </trkpt>
      <trkpt lat="43.00394" lon="0.78425">
        <ele>709</ele>
        <time>2021-03-13T15:12:01Z</time>
      </trkpt>
      <trkpt lat="43.00398" lon="0.78427">
        <ele>708</ele>
        <time>2021-03-13T15:12:02Z</time>
      </trkpt>
      <trkpt lat="43.00409" lon="0.78433">
        <ele>707</ele>
        <time>2021-03-13T15:12:03Z</time>
      </trkpt>
      <trkpt lat="43.00413" lon="0.78434">
        <ele>707</ele>
        <time>2021-03-13T15:12:04Z</time>
      </trkpt>
      <trkpt lat="43.00425" lon="0.78437">
        <ele>705</ele>
        <time>2021-03-13T15:12:05Z</time>
      </trkpt>
      <trkpt lat="43.00428" lon="0.78438">
        <ele>703</ele>
        <time>2021-03-13T15:12:06Z</time>
      </trkpt>
      <trkpt lat="43.00438" lon="0.7844">
        <ele>702</ele>
        <time>2021-03-13T15:12:07Z</time>
      </trkpt>
      <trkpt lat="43.00442" lon="0.7844">
        <ele>702</ele>
        <time>2021-03-13T15:12:08Z</time>
      </trkpt>
      <trkpt lat="43.00451" lon="0.78443">
        <ele>700</ele>
        <time>2021-03-13T15:12:09Z</time>
      </trkpt>
      <trkpt lat="43.00454" lon="0.78444">
        <ele>700</ele>
        <time>2021-03-13T15:12:10Z</time>
      </trkpt>
      <trkpt lat="43.00464" lon="0.78448">
        <ele>699</ele>
        <time>2021-03-13T15:12:11Z</time>
      </trkpt>
      <trkpt lat="43.00469" lon="0.7845">
        <ele>699</ele>
        <time>2021-03-13T15:12:12Z</time>
      </trkpt>
      <trkpt lat="43.00473" lon="0.78452">
        <ele>699</ele>
        <time>2021-03-13T15:12:13Z</time>
      </trkpt>
      <trkpt lat="43.00478" lon="0.78454">
        <ele>698</ele>
        <time>2021-03-13T15:12:14Z</time>
      </trkpt>
      <trkpt lat="43.00484" lon="0.78456">
        <ele>697</ele>
        <time>2021-03-13T15:12:15Z</time>
      </trkpt>
      <trkpt lat="43.00489" lon="0.78459">
        <ele>695</ele>
        <time>2021-03-13T15:12:16Z</time>
      </trkpt>
      <trkpt lat="43.00501" lon="0.78465">
        <ele>694</ele>
        <time>2021-03-13T15:12:17Z</time>
      </trkpt>
      <trkpt lat="43.00501" lon="0.78465">
        <ele>693</ele>
        <time>2021-03-13T15:12:18Z</time>
      </trkpt>
      <trkpt lat="43.00503" lon="0.78467">
        <ele>693</ele>
        <time>2021-03-13T15:12:19Z</time>
      </trkpt>
      <trkpt lat="43.00506" lon="0.78469">
        <ele>692</ele>
        <time>2021-03-13T15:12:20Z</time>
      </trkpt>
      <trkpt lat="43.00509" lon="0.78471">
        <ele>692</ele>
        <time>2021-03-13T15:12:21Z</time>
      </trkpt>
      <trkpt lat="43.00508" lon="0.78475">
        <ele>691</ele>
        <time>2021-03-13T15:12:22Z</time>
      </trkpt>
      <trkpt lat="43.00507" lon="0.7848">
        <ele>691</ele>
        <time>2021-03-13T15:12:23Z</time>
      </trkpt>
      <trkpt lat="43.00506" lon="0.78484">
        <ele>691</ele>
        <time>2021-03-13T15:12:24Z</time>
      </trkpt>
      <trkpt lat="43.00511" lon="0.78499">
        <ele>691</ele>
        <time>2021-03-13T15:12:25Z</time>
      </trkpt>
      <trkpt lat="43.00513" lon="0.78503">
        <ele>691</ele>
        <time>2021-03-13T15:12:26Z</time>
      </trkpt>
      <trkpt lat="43.00516" lon="0.78511">
        <ele>691</ele>
        <time>2021-03-13T15:12:27Z</time>
      </trkpt>
      <trkpt lat="43.00519" lon="0.78519">
        <ele>691</ele>
        <time>2021-03-13T15:12:28Z</time>
      </trkpt>
      <trkpt lat="43.00521" lon="0.78527">
        <ele>691</ele>
        <time>2021-03-13T15:12:29Z</time>
      </trkpt>
      <trkpt lat="43.00522" lon="0.78535">
        <ele>690</ele>
        <time>2021-03-13T15:12:30Z</time>
      </trkpt>
      <trkpt lat="43.00522" lon="0.78544">
        <ele>690</ele>
        <time>2021-03-13T15:12:31Z</time>
      </trkpt>
      <trkpt lat="43.00522" lon="0.78544">
        <ele>690</ele>
        <time>2021-03-13T15:12:32Z</time>
      </trkpt>
      <trkpt lat="43.00522" lon="0.78557">
        <ele>690</ele>
        <time>2021-03-13T15:12:33Z</time>
      </trkpt>
      <trkpt lat="43.00522" lon="0.78557">
        <ele>690</ele>
        <time>2021-03-13T15:12:34Z</time>
      </trkpt>
      <trkpt lat="43.00519" lon="0.78568">
        <ele>689</ele>
        <time>2021-03-13T15:12:35Z</time>
      </trkpt>
      <trkpt lat="43.00519" lon="0.78568">
        <ele>689</ele>
        <time>2021-03-13T15:12:36Z</time>
      </trkpt>
      <trkpt lat="43.00517" lon="0.78578">
        <ele>689</ele>
        <time>2021-03-13T15:12:37Z</time>
      </trkpt>
      <trkpt lat="43.00517" lon="0.78578">
        <ele>689</ele>
        <time>2021-03-13T15:12:38Z</time>
      </trkpt>
      <trkpt lat="43.00513" lon="0.78588">
        <ele>689</ele>
        <time>2021-03-13T15:12:39Z</time>
      </trkpt>
      <trkpt lat="43.00513" lon="0.78588">
        <ele>689</ele>
        <time>2021-03-13T15:12:40Z</time>
      </trkpt>
      <trkpt lat="43.00509" lon="0.78598">
        <ele>689</ele>
        <time>2021-03-13T15:12:41Z</time>
      </trkpt>
      <trkpt lat="43.00509" lon="0.78598">
        <ele>689</ele>
        <time>2021-03-13T15:12:42Z</time>
      </trkpt>
      <trkpt lat="43.00505" lon="0.78609">
        <ele>689</ele>
        <time>2021-03-13T15:12:43Z</time>
      </trkpt>
      <trkpt lat="43.00505" lon="0.78609">
        <ele>689</ele>
        <time>2021-03-13T15:12:44Z</time>
      </trkpt>
      <trkpt lat="43.00502" lon="0.78619">
        <ele>689</ele>
        <time>2021-03-13T15:12:45Z</time>
      </trkpt>
      <trkpt lat="43.00502" lon="0.78619">
        <ele>689</ele>
        <time>2021-03-13T15:12:46Z</time>
      </trkpt>
      <trkpt lat="43.005" lon="0.78629">
        <ele>689</ele>
        <time>2021-03-13T15:12:47Z</time>
      </trkpt>
      <trkpt lat="43.005" lon="0.78629">
        <ele>689</ele>
        <time>2021-03-13T15:12:48Z</time>
      </trkpt>
      <trkpt lat="43.00499" lon="0.78638">
        <ele>689</ele>
        <time>2021-03-13T15:12:49Z</time>
      </trkpt>
      <trkpt lat="43.00499" lon="0.78638">
        <ele>690</ele>
        <time>2021-03-13T15:12:50Z</time>
      </trkpt>
      <trkpt lat="43.00498" lon="0.78647">
        <ele>690</ele>
        <time>2021-03-13T15:12:51Z</time>
      </trkpt>
      <trkpt lat="43.00498" lon="0.78647">
        <ele>690</ele>
        <time>2021-03-13T15:12:52Z</time>
      </trkpt>
      <trkpt lat="43.00499" lon="0.78656">
        <ele>690</ele>
        <time>2021-03-13T15:12:53Z</time>
      </trkpt>
      <trkpt lat="43.00499" lon="0.78656">
        <ele>690</ele>
        <time>2021-03-13T15:12:54Z</time>
      </trkpt>
      <trkpt lat="43.005" lon="0.78664">
        <ele>690</ele>
        <time>2021-03-13T15:12:55Z</time>
      </trkpt>
      <trkpt lat="43.005" lon="0.78664">
        <ele>690</ele>
        <time>2021-03-13T15:12:56Z</time>
      </trkpt>
      <trkpt lat="43.00502" lon="0.78673">
        <ele>690</ele>
        <time>2021-03-13T15:12:57Z</time>
      </trkpt>
      <trkpt lat="43.00502" lon="0.78673">
        <ele>690</ele>
        <time>2021-03-13T15:12:58Z</time>
      </trkpt>
      <trkpt lat="43.00506" lon="0.78681">
        <ele>690</ele>
        <time>2021-03-13T15:12:59Z</time>
      </trkpt>
      <trkpt lat="43.00506" lon="0.78681">
        <ele>692</ele>
        <time>2021-03-13T15:13:00Z</time>
      </trkpt>
      <trkpt lat="43.00511" lon="0.78688">
        <ele>692</ele>
        <time>2021-03-13T15:13:01Z</time>
      </trkpt>
      <trkpt lat="43.00511" lon="0.78688">
        <ele>692</ele>
        <time>2021-03-13T15:13:02Z</time>
      </trkpt>
      <trkpt lat="43.00518" lon="0.78693">
        <ele>692</ele>
        <time>2021-03-13T15:13:03Z</time>
      </trkpt>
      <trkpt lat="43.00518" lon="0.78693">
        <ele>692</ele>
        <time>2021-03-13T15:13:04Z</time>
      </trkpt>
      <trkpt lat="43.00524" lon="0.78697">
        <ele>692</ele>
        <time>2021-03-13T15:13:05Z</time>
      </trkpt>
      <trkpt lat="43.00524" lon="0.78697">
        <ele>692</ele>
        <time>2021-03-13T15:13:06Z</time>
      </trkpt>
      <trkpt lat="43.0053" lon="0.78703">
        <ele>692</ele>
        <time>2021-03-13T15:13:07Z</time>
      </trkpt>
      <trkpt lat="43.0053" lon="0.78703">
        <ele>692</ele>
        <time>2021-03-13T15:13:08Z</time>
      </trkpt>
      <trkpt lat="43.00536" lon="0.78707">
        <ele>692</ele>
        <time>2021-03-13T15:13:09Z</time>
      </trkpt>
      <trkpt lat="43.00536" lon="0.78707">
        <ele>693</ele>
        <time>2021-03-13T15:13:10Z</time>
      </trkpt>
      <trkpt lat="43.00542" lon="0.78711">
        <ele>693</ele>
        <time>2021-03-13T15:13:11Z</time>
      </trkpt>
      <trkpt lat="43.00542" lon="0.78711">
        <ele>693</ele>
        <time>2021-03-13T15:13:12Z</time>
      </trkpt>
      <trkpt lat="43.00547" lon="0.78715">
        <ele>693</ele>
        <time>2021-03-13T15:13:13Z</time>
      </trkpt>
      <trkpt lat="43.00547" lon="0.78715">
        <ele>693</ele>
        <time>2021-03-13T15:13:14Z</time>
      </trkpt>
      <trkpt lat="43.00549" lon="0.78717">
        <ele>693</ele>
        <time>2021-03-13T15:13:15Z</time>
      </trkpt>
      <trkpt lat="43.00552" lon="0.78719">
        <ele>693</ele>
        <time>2021-03-13T15:13:16Z</time>
      </trkpt>
      <trkpt lat="43.00555" lon="0.7872">
        <ele>693</ele>
        <time>2021-03-13T15:13:17Z</time>
      </trkpt>
      <trkpt lat="43.00561" lon="0.78723">
        <ele>693</ele>
        <time>2021-03-13T15:13:18Z</time>
      </trkpt>
      <trkpt lat="43.00561" lon="0.78723">
        <ele>693</ele>
        <time>2021-03-13T15:13:19Z</time>
      </trkpt>
      <trkpt lat="43.00568" lon="0.78726">
        <ele>694</ele>
        <time>2021-03-13T15:13:20Z</time>
      </trkpt>
      <trkpt lat="43.00568" lon="0.78726">
        <ele>694</ele>
        <time>2021-03-13T15:13:21Z</time>
      </trkpt>
      <trkpt lat="43.00575" lon="0.78728">
        <ele>694</ele>
        <time>2021-03-13T15:13:22Z</time>
      </trkpt>
      <trkpt lat="43.00575" lon="0.78728">
        <ele>694</ele>
        <time>2021-03-13T15:13:23Z</time>
      </trkpt>
      <trkpt lat="43.00583" lon="0.78729">
        <ele>694</ele>
        <time>2021-03-13T15:13:24Z</time>
      </trkpt>
      <trkpt lat="43.00583" lon="0.78729">
        <ele>694</ele>
        <time>2021-03-13T15:13:25Z</time>
      </trkpt>
      <trkpt lat="43.0059" lon="0.7873">
        <ele>694</ele>
        <time>2021-03-13T15:13:26Z</time>
      </trkpt>
      <trkpt lat="43.0059" lon="0.7873">
        <ele>694</ele>
        <time>2021-03-13T15:13:27Z</time>
      </trkpt>
      <trkpt lat="43.00604" lon="0.78734">
        <ele>694</ele>
        <time>2021-03-13T15:13:28Z</time>
      </trkpt>
      <trkpt lat="43.00607" lon="0.78734">
        <ele>694</ele>
        <time>2021-03-13T15:13:29Z</time>
      </trkpt>
      <trkpt lat="43.00616" lon="0.78736">
        <ele>693</ele>
        <time>2021-03-13T15:13:30Z</time>
      </trkpt>
      <trkpt lat="43.00619" lon="0.78737">
        <ele>693</ele>
        <time>2021-03-13T15:13:31Z</time>
      </trkpt>
      <trkpt lat="43.00629" lon="0.78741">
        <ele>693</ele>
        <time>2021-03-13T15:13:32Z</time>
      </trkpt>
      <trkpt lat="43.00632" lon="0.78742">
        <ele>693</ele>
        <time>2021-03-13T15:13:33Z</time>
      </trkpt>
      <trkpt lat="43.0064" lon="0.78747">
        <ele>693</ele>
        <time>2021-03-13T15:13:34Z</time>
      </trkpt>
      <trkpt lat="43.00643" lon="0.78749">
        <ele>693</ele>
        <time>2021-03-13T15:13:35Z</time>
      </trkpt>
      <trkpt lat="43.00652" lon="0.78754">
        <ele>693</ele>
        <time>2021-03-13T15:13:36Z</time>
      </trkpt>
      <trkpt lat="43.00655" lon="0.78755">
        <ele>693</ele>
        <time>2021-03-13T15:13:37Z</time>
      </trkpt>
      <trkpt lat="43.00665" lon="0.78756">
        <ele>693</ele>
        <time>2021-03-13T15:13:38Z</time>
      </trkpt>
      <trkpt lat="43.00668" lon="0.78756">
        <ele>693</ele>
        <time>2021-03-13T15:13:39Z</time>
      </trkpt>
      <trkpt lat="43.00679" lon="0.78754">
        <ele>689</ele>
        <time>2021-03-13T15:13:40Z</time>
      </trkpt>
      <trkpt lat="43.00683" lon="0.78754">
        <ele>689</ele>
        <time>2021-03-13T15:13:41Z</time>
      </trkpt>
      <trkpt lat="43.00693" lon="0.78753">
        <ele>689</ele>
        <time>2021-03-13T15:13:42Z</time>
      </trkpt>
      <trkpt lat="43.00696" lon="0.78754">
        <ele>689</ele>
        <time>2021-03-13T15:13:43Z</time>
      </trkpt>
      <trkpt lat="43.00704" lon="0.78757">
        <ele>689</ele>
        <time>2021-03-13T15:13:44Z</time>
      </trkpt>
      <trkpt lat="43.00707" lon="0.78758">
        <ele>686</ele>
        <time>2021-03-13T15:13:45Z</time>
      </trkpt>
      <trkpt lat="43.00711" lon="0.7876">
        <ele>686</ele>
        <time>2021-03-13T15:13:46Z</time>
      </trkpt>
      <trkpt lat="43.00711" lon="0.7876">
        <ele>686</ele>
        <time>2021-03-13T15:13:47Z</time>
      </trkpt>
      <trkpt lat="43.00715" lon="0.78761">
        <ele>686</ele>
        <time>2021-03-13T15:13:48Z</time>
      </trkpt>
      <trkpt lat="43.00718" lon="0.78763">
        <ele>686</ele>
        <time>2021-03-13T15:13:49Z</time>
      </trkpt>
      <trkpt lat="43.00722" lon="0.78764">
        <ele>685</ele>
        <time>2021-03-13T15:13:50Z</time>
      </trkpt>
      <trkpt lat="43.00725" lon="0.78764">
        <ele>685</ele>
        <time>2021-03-13T15:13:51Z</time>
      </trkpt>
      <trkpt lat="43.00727" lon="0.78763">
        <ele>685</ele>
        <time>2021-03-13T15:13:52Z</time>
      </trkpt>
      <trkpt lat="43.0073" lon="0.78763">
        <ele>685</ele>
        <time>2021-03-13T15:13:53Z</time>
      </trkpt>
      <trkpt lat="43.00733" lon="0.78762">
        <ele>685</ele>
        <time>2021-03-13T15:13:54Z</time>
      </trkpt>
      <trkpt lat="43.00735" lon="0.78759">
        <ele>686</ele>
        <time>2021-03-13T15:13:55Z</time>
      </trkpt>
      <trkpt lat="43.00736" lon="0.78757">
        <ele>686</ele>
        <time>2021-03-13T15:13:56Z</time>
      </trkpt>
      <trkpt lat="43.00738" lon="0.78754">
        <ele>686</ele>
        <time>2021-03-13T15:13:57Z</time>
      </trkpt>
      <trkpt lat="43.00741" lon="0.78751">
        <ele>686</ele>
        <time>2021-03-13T15:13:58Z</time>
      </trkpt>
      <trkpt lat="43.00743" lon="0.78748">
        <ele>686</ele>
        <time>2021-03-13T15:13:59Z</time>
      </trkpt>
      <trkpt lat="43.00745" lon="0.78745">
        <ele>688</ele>
        <time>2021-03-13T15:14:00Z</time>
      </trkpt>
      <trkpt lat="43.00748" lon="0.78742">
        <ele>688</ele>
        <time>2021-03-13T15:14:01Z</time>
      </trkpt>
      <trkpt lat="43.0075" lon="0.78739">
        <ele>688</ele>
        <time>2021-03-13T15:14:02Z</time>
      </trkpt>
      <trkpt lat="43.00753" lon="0.78736">
        <ele>688</ele>
        <time>2021-03-13T15:14:03Z</time>
      </trkpt>
      <trkpt lat="43.00755" lon="0.78732">
        <ele>688</ele>
        <time>2021-03-13T15:14:04Z</time>
      </trkpt>
      <trkpt lat="43.00758" lon="0.78729">
        <ele>688</ele>
        <time>2021-03-13T15:14:05Z</time>
      </trkpt>
      <trkpt lat="43.0076" lon="0.78726">
        <ele>688</ele>
        <time>2021-03-13T15:14:06Z</time>
      </trkpt>
      <trkpt lat="43.00763" lon="0.78723">
        <ele>688</ele>
        <time>2021-03-13T15:14:07Z</time>
      </trkpt>
      <trkpt lat="43.00765" lon="0.7872">
        <ele>688</ele>
        <time>2021-03-13T15:14:08Z</time>
      </trkpt>
      <trkpt lat="43.00768" lon="0.78717">
        <ele>688</ele>
        <time>2021-03-13T15:14:09Z</time>
      </trkpt>
      <trkpt lat="43.0077" lon="0.78714">
        <ele>688</ele>
        <time>2021-03-13T15:14:10Z</time>
      </trkpt>
      <trkpt lat="43.00773" lon="0.7871">
        <ele>688</ele>
        <time>2021-03-13T15:14:11Z</time>
      </trkpt>
      <trkpt lat="43.00775" lon="0.78707">
        <ele>688</ele>
        <time>2021-03-13T15:14:12Z</time>
      </trkpt>
      <trkpt lat="43.0078" lon="0.78701">
        <ele>688</ele>
        <time>2021-03-13T15:14:13Z</time>
      </trkpt>
      <trkpt lat="43.00784" lon="0.78696">
        <ele>688</ele>
        <time>2021-03-13T15:14:14Z</time>
      </trkpt>
      <trkpt lat="43.00789" lon="0.7869">
        <ele>688</ele>
        <time>2021-03-13T15:14:15Z</time>
      </trkpt>
      <trkpt lat="43.00793" lon="0.78686">
        <ele>688</ele>
        <time>2021-03-13T15:14:16Z</time>
      </trkpt>
      <trkpt lat="43.00793" lon="0.78686">
        <ele>688</ele>
        <time>2021-03-13T15:14:17Z</time>
      </trkpt>
      <trkpt lat="43.00801" lon="0.7868">
        <ele>688</ele>
        <time>2021-03-13T15:14:18Z</time>
      </trkpt>
      <trkpt lat="43.00801" lon="0.7868">
        <ele>688</ele>
        <time>2021-03-13T15:14:19Z</time>
      </trkpt>
      <trkpt lat="43.00813" lon="0.78673">
        <ele>686</ele>
        <time>2021-03-13T15:14:20Z</time>
      </trkpt>
      <trkpt lat="43.00816" lon="0.78671">
        <ele>686</ele>
        <time>2021-03-13T15:14:21Z</time>
      </trkpt>
      <trkpt lat="43.0082" lon="0.78669">
        <ele>686</ele>
        <time>2021-03-13T15:14:22Z</time>
      </trkpt>
      <trkpt lat="43.0082" lon="0.78669">
        <ele>686</ele>
        <time>2021-03-13T15:14:23Z</time>
      </trkpt>
      <trkpt lat="43.00824" lon="0.78665">
        <ele>686</ele>
        <time>2021-03-13T15:14:24Z</time>
      </trkpt>
      <trkpt lat="43.00829" lon="0.78661">
        <ele>686</ele>
        <time>2021-03-13T15:14:25Z</time>
      </trkpt>
      <trkpt lat="43.00833" lon="0.78657">
        <ele>686</ele>
        <time>2021-03-13T15:14:26Z</time>
      </trkpt>
      <trkpt lat="43.00836" lon="0.78654">
        <ele>686</ele>
        <time>2021-03-13T15:14:27Z</time>
      </trkpt>
      <trkpt lat="43.00836" lon="0.78654">
        <ele>686</ele>
        <time>2021-03-13T15:14:28Z</time>
      </trkpt>
      <trkpt lat="43.00842" lon="0.7865">
        <ele>686</ele>
        <time>2021-03-13T15:14:29Z</time>
      </trkpt>
      <trkpt lat="43.00842" lon="0.7865">
        <ele>684</ele>
        <time>2021-03-13T15:14:30Z</time>
      </trkpt>
      <trkpt lat="43.0085" lon="0.78646">
        <ele>684</ele>
        <time>2021-03-13T15:14:31Z</time>
      </trkpt>
      <trkpt lat="43.0085" lon="0.78646">
        <ele>684</ele>
        <time>2021-03-13T15:14:32Z</time>
      </trkpt>
      <trkpt lat="43.00856" lon="0.78641">
        <ele>684</ele>
        <time>2021-03-13T15:14:33Z</time>
      </trkpt>
      <trkpt lat="43.00856" lon="0.78641">
        <ele>684</ele>
        <time>2021-03-13T15:14:34Z</time>
      </trkpt>
      <trkpt lat="43.00862" lon="0.78636">
        <ele>684</ele>
        <time>2021-03-13T15:14:35Z</time>
      </trkpt>
      <trkpt lat="43.00862" lon="0.78636">
        <ele>684</ele>
        <time>2021-03-13T15:14:36Z</time>
      </trkpt>
      <trkpt lat="43.00868" lon="0.78632">
        <ele>684</ele>
        <time>2021-03-13T15:14:37Z</time>
      </trkpt>
      <trkpt lat="43.00868" lon="0.78632">
        <ele>684</ele>
        <time>2021-03-13T15:14:38Z</time>
      </trkpt>
      <trkpt lat="43.00875" lon="0.7863">
        <ele>684</ele>
        <time>2021-03-13T15:14:39Z</time>
      </trkpt>
      <trkpt lat="43.00875" lon="0.7863">
        <ele>684</ele>
        <time>2021-03-13T15:14:40Z</time>
      </trkpt>
      <trkpt lat="43.00885" lon="0.78631">
        <ele>684</ele>
        <time>2021-03-13T15:14:41Z</time>
      </trkpt>
      <trkpt lat="43.00887" lon="0.78632">
        <ele>684</ele>
        <time>2021-03-13T15:14:42Z</time>
      </trkpt>
      <trkpt lat="43.0089" lon="0.78635">
        <ele>684</ele>
        <time>2021-03-13T15:14:43Z</time>
      </trkpt>
      <trkpt lat="43.0089" lon="0.78635">
        <ele>684</ele>
        <time>2021-03-13T15:14:44Z</time>
      </trkpt>
      <trkpt lat="43.00895" lon="0.78638">
        <ele>684</ele>
        <time>2021-03-13T15:14:45Z</time>
      </trkpt>
      <trkpt lat="43.00895" lon="0.78638">
        <ele>684</ele>
        <time>2021-03-13T15:14:46Z</time>
      </trkpt>
      <trkpt lat="43.00895" lon="0.78638">
        <ele>684</ele>
        <time>2021-03-13T15:14:47Z</time>
      </trkpt>
      <trkpt lat="43.00895" lon="0.78638">
        <ele>684</ele>
        <time>2021-03-13T15:14:48Z</time>
      </trkpt>
      <trkpt lat="43.00895" lon="0.78638">
        <ele>684</ele>
        <time>2021-03-13T15:14:49Z</time>
      </trkpt>
      <trkpt lat="43.00895" lon="0.78638">
        <ele>683</ele>
        <time>2021-03-13T15:14:50Z</time>
      </trkpt>
      <trkpt lat="43.00895" lon="0.78638">
        <ele>683</ele>
        <time>2021-03-13T15:14:51Z</time>
      </trkpt>
      <trkpt lat="43.00895" lon="0.78638">
        <ele>683</ele>
        <time>2021-03-13T15:14:52Z</time>
      </trkpt>
      <trkpt lat="43.00895" lon="0.78638">
        <ele>683</ele>
        <time>2021-03-13T15:14:53Z</time>
      </trkpt>
      <trkpt lat="43.00895" lon="0.78638">
        <ele>683</ele>
        <time>2021-03-13T15:14:54Z</time>
      </trkpt>
      <trkpt lat="43.00895" lon="0.78638">
        <ele>683</ele>
        <time>2021-03-13T15:14:55Z</time>
      </trkpt>
      <trkpt lat="43.00895" lon="0.78638">
        <ele>683</ele>
        <time>2021-03-13T15:14:56Z</time>
      </trkpt>
      <trkpt lat="43.00895" lon="0.78638">
        <ele>683</ele>
        <time>2021-03-13T15:14:57Z</time>
      </trkpt>
      <trkpt lat="43.00895" lon="0.78638">
        <ele>683</ele>
        <time>2021-03-13T15:14:58Z</time>
      </trkpt>
      <trkpt lat="43.00896" lon="0.78638">
        <ele>683</ele>
        <time>2021-03-13T15:14:59Z</time>
      </trkpt>
      <trkpt lat="43.00896" lon="0.78638">
        <ele>682</ele>
        <time>2021-03-13T15:15:00Z</time>
      </trkpt>
      <trkpt lat="43.00896" lon="0.78638">
        <ele>682</ele>
        <time>2021-03-13T15:15:01Z</time>
      </trkpt>
      <trkpt lat="43.00896" lon="0.78638">
        <ele>682</ele>
        <time>2021-03-13T15:15:02Z</time>
      </trkpt>
      <trkpt lat="43.00896" lon="0.78638">
        <ele>682</ele>
        <time>2021-03-13T15:15:03Z</time>
      </trkpt>
      <trkpt lat="43.00896" lon="0.78638">
        <ele>682</ele>
        <time>2021-03-13T15:15:04Z</time>
      </trkpt>
      <trkpt lat="43.00896" lon="0.78638">
        <ele>682</ele>
        <time>2021-03-13T15:15:05Z</time>
      </trkpt>
      <trkpt lat="43.00896" lon="0.78638">
        <ele>682</ele>
        <time>2021-03-13T15:15:06Z</time>
      </trkpt>
      <trkpt lat="43.00896" lon="0.78638">
        <ele>682</ele>
        <time>2021-03-13T15:15:07Z</time>
      </trkpt>
      <trkpt lat="43.00896" lon="0.78638">
        <ele>682</ele>
        <time>2021-03-13T15:15:08Z</time>
      </trkpt>
      <trkpt lat="43.00896" lon="0.78639">
        <ele>682</ele>
        <time>2021-03-13T15:15:09Z</time>
      </trkpt>
      <trkpt lat="43.00896" lon="0.78639">
        <ele>683</ele>
        <time>2021-03-13T15:15:10Z</time>
      </trkpt>
      <trkpt lat="43.00896" lon="0.78639">
        <ele>683</ele>
        <time>2021-03-13T15:15:11Z</time>
      </trkpt>
      <trkpt lat="43.00896" lon="0.78639">
        <ele>683</ele>
        <time>2021-03-13T15:15:12Z</time>
      </trkpt>
      <trkpt lat="43.00896" lon="0.78639">
        <ele>683</ele>
        <time>2021-03-13T15:15:13Z</time>
      </trkpt>
      <trkpt lat="43.00896" lon="0.78639">
        <ele>683</ele>
        <time>2021-03-13T15:15:14Z</time>
      </trkpt>
      <trkpt lat="43.00896" lon="0.78639">
        <ele>683</ele>
        <time>2021-03-13T15:15:15Z</time>
      </trkpt>
      <trkpt lat="43.00896" lon="0.78639">
        <ele>683</ele>
        <time>2021-03-13T15:15:16Z</time>
      </trkpt>
      <trkpt lat="43.00896" lon="0.78639">
        <ele>683</ele>
        <time>2021-03-13T15:15:17Z</time>
      </trkpt>
      <trkpt lat="43.00896" lon="0.78639">
        <ele>683</ele>
        <time>2021-03-13T15:15:18Z</time>
      </trkpt>
      <trkpt lat="43.00896" lon="0.78639">
        <ele>683</ele>
        <time>2021-03-13T15:15:19Z</time>
      </trkpt>
      <trkpt lat="43.00896" lon="0.78639">
        <ele>683</ele>
        <time>2021-03-13T15:15:20Z</time>
      </trkpt>
      <trkpt lat="43.00896" lon="0.78639">
        <ele>683</ele>
        <time>2021-03-13T15:15:21Z</time>
      </trkpt>
      <trkpt lat="43.00897" lon="0.78639">
        <ele>683</ele>
        <time>2021-03-13T15:15:22Z</time>
      </trkpt>
      <trkpt lat="43.00897" lon="0.78639">
        <ele>683</ele>
        <time>2021-03-13T15:15:23Z</time>
      </trkpt>
      <trkpt lat="43.00897" lon="0.78639">
        <ele>683</ele>
        <time>2021-03-13T15:15:24Z</time>
      </trkpt>
      <trkpt lat="43.00897" lon="0.78639">
        <ele>683</ele>
        <time>2021-03-13T15:15:25Z</time>
      </trkpt>
      <trkpt lat="43.00897" lon="0.78639">
        <ele>683</ele>
        <time>2021-03-13T15:15:26Z</time>
      </trkpt>
      <trkpt lat="43.00897" lon="0.78639">
        <ele>683</ele>
        <time>2021-03-13T15:15:27Z</time>
      </trkpt>
      <trkpt lat="43.00897" lon="0.78639">
        <ele>683</ele>
        <time>2021-03-13T15:15:28Z</time>
      </trkpt>
      <trkpt lat="43.00897" lon="0.78639">
        <ele>683</ele>
        <time>2021-03-13T15:15:29Z</time>
      </trkpt>
      <trkpt lat="43.00897" lon="0.78639">
        <ele>683</ele>
        <time>2021-03-13T15:15:30Z</time>
      </trkpt>
      <trkpt lat="43.00897" lon="0.78639">
        <ele>683</ele>
        <time>2021-03-13T15:15:31Z</time>
      </trkpt>
      <trkpt lat="43.00897" lon="0.78639">
        <ele>683</ele>
        <time>2021-03-13T15:15:32Z</time>
      </trkpt>
      <trkpt lat="43.00897" lon="0.78639">
        <ele>683</ele>
        <time>2021-03-13T15:15:33Z</time>
      </trkpt>
      <trkpt lat="43.00897" lon="0.78639">
        <ele>683</ele>
        <time>2021-03-13T15:15:34Z</time>
      </trkpt>
      <trkpt lat="43.00897" lon="0.78639">
        <ele>683</ele>
        <time>2021-03-13T15:15:35Z</time>
      </trkpt>
      <trkpt lat="43.00897" lon="0.78639">
        <ele>683</ele>
        <time>2021-03-13T15:15:36Z</time>
      </trkpt>
      <trkpt lat="43.00897" lon="0.78639">
        <ele>683</ele>
        <time>2021-03-13T15:15:37Z</time>
      </trkpt>
      <trkpt lat="43.00897" lon="0.78639">
        <ele>683</ele>
        <time>2021-03-13T15:15:38Z</time>
      </trkpt>
      <trkpt lat="43.00897" lon="0.78639">
        <ele>683</ele>
        <time>2021-03-13T15:15:39Z</time>
      </trkpt>
      <trkpt lat="43.00897" lon="0.78639">
        <ele>682</ele>
        <time>2021-03-13T15:15:40Z</time>
      </trkpt>
      <trkpt lat="43.00897" lon="0.78639">
        <ele>682</ele>
        <time>2021-03-13T15:15:41Z</time>
      </trkpt>
      <trkpt lat="43.00897" lon="0.78639">
        <ele>682</ele>
        <time>2021-03-13T15:15:42Z</time>
      </trkpt>
      <trkpt lat="43.00897" lon="0.78639">
        <ele>682</ele>
        <time>2021-03-13T15:15:43Z</time>
      </trkpt>
      <trkpt lat="43.00897" lon="0.78639">
        <ele>682</ele>
        <time>2021-03-13T15:15:44Z</time>
      </trkpt>
      <trkpt lat="43.00898" lon="0.78639">
        <ele>682</ele>
        <time>2021-03-13T15:15:45Z</time>
      </trkpt>
      <trkpt lat="43.00898" lon="0.78639">
        <ele>682</ele>
        <time>2021-03-13T15:15:46Z</time>
      </trkpt>
      <trkpt lat="43.00898" lon="0.78639">
        <ele>682</ele>
        <time>2021-03-13T15:15:47Z</time>
      </trkpt>
      <trkpt lat="43.00898" lon="0.78639">
        <ele>682</ele>
        <time>2021-03-13T15:15:48Z</time>
      </trkpt>
      <trkpt lat="43.00898" lon="0.78639">
        <ele>682</ele>
        <time>2021-03-13T15:15:49Z</time>
      </trkpt>
      <trkpt lat="43.00898" lon="0.78639">
        <ele>682</ele>
        <time>2021-03-13T15:15:50Z</time>
      </trkpt>
      <trkpt lat="43.00898" lon="0.78639">
        <ele>682</ele>
        <time>2021-03-13T15:15:51Z</time>
      </trkpt>
      <trkpt lat="43.00898" lon="0.78639">
        <ele>682</ele>
        <time>2021-03-13T15:15:52Z</time>
      </trkpt>
      <trkpt lat="43.00898" lon="0.78639">
        <ele>682</ele>
        <time>2021-03-13T15:15:53Z</time>
      </trkpt>
      <trkpt lat="43.00898" lon="0.78639">
        <ele>682</ele>
        <time>2021-03-13T15:15:54Z</time>
      </trkpt>
      <trkpt lat="43.00898" lon="0.78639">
        <ele>682</ele>
        <time>2021-03-13T15:15:55Z</time>
      </trkpt>
      <trkpt lat="43.00898" lon="0.78639">
        <ele>682</ele>
        <time>2021-03-13T15:15:56Z</time>
      </trkpt>
      <trkpt lat="43.00898" lon="0.78639">
        <ele>682</ele>
        <time>2021-03-13T15:15:57Z</time>
      </trkpt>
      <trkpt lat="43.00898" lon="0.7864">
        <ele>682</ele>
        <time>2021-03-13T15:15:58Z</time>
      </trkpt>
      <trkpt lat="43.00898" lon="0.7864">
        <ele>682</ele>
        <time>2021-03-13T15:15:59Z</time>
      </trkpt>
      <trkpt lat="43.00898" lon="0.7864">
        <ele>682</ele>
        <time>2021-03-13T15:16:00Z</time>
      </trkpt>
      <trkpt lat="43.00898" lon="0.7864">
        <ele>682</ele>
        <time>2021-03-13T15:16:01Z</time>
      </trkpt>
      <trkpt lat="43.00898" lon="0.7864">
        <ele>682</ele>
        <time>2021-03-13T15:16:02Z</time>
      </trkpt>
      <trkpt lat="43.00898" lon="0.7864">
        <ele>682</ele>
        <time>2021-03-13T15:16:03Z</time>
      </trkpt>
      <trkpt lat="43.00898" lon="0.7864">
        <ele>682</ele>
        <time>2021-03-13T15:16:04Z</time>
      </trkpt>
      <trkpt lat="43.00898" lon="0.7864">
        <ele>682</ele>
        <time>2021-03-13T15:16:05Z</time>
      </trkpt>
      <trkpt lat="43.00898" lon="0.7864">
        <ele>682</ele>
        <time>2021-03-13T15:16:06Z</time>
      </trkpt>
      <trkpt lat="43.00899" lon="0.7864">
        <ele>682</ele>
        <time>2021-03-13T15:16:07Z</time>
      </trkpt>
      <trkpt lat="43.00899" lon="0.7864">
        <ele>682</ele>
        <time>2021-03-13T15:16:08Z</time>
      </trkpt>
      <trkpt lat="43.00899" lon="0.7864">
        <ele>682</ele>
        <time>2021-03-13T15:16:09Z</time>
      </trkpt>
      <trkpt lat="43.00899" lon="0.7864">
        <ele>682</ele>
        <time>2021-03-13T15:16:10Z</time>
      </trkpt>
      <trkpt lat="43.00899" lon="0.7864">
        <ele>682</ele>
        <time>2021-03-13T15:16:11Z</time>
      </trkpt>
      <trkpt lat="43.00899" lon="0.7864">
        <ele>682</ele>
        <time>2021-03-13T15:16:12Z</time>
      </trkpt>
      <trkpt lat="43.00899" lon="0.7864">
        <ele>682</ele>
        <time>2021-03-13T15:16:13Z</time>
      </trkpt>
      <trkpt lat="43.00899" lon="0.7864">
        <ele>682</ele>
        <time>2021-03-13T15:16:14Z</time>
      </trkpt>
      <trkpt lat="43.00899" lon="0.7864">
        <ele>682</ele>
        <time>2021-03-13T15:16:15Z</time>
      </trkpt>
      <trkpt lat="43.00899" lon="0.7864">
        <ele>682</ele>
        <time>2021-03-13T15:16:16Z</time>
      </trkpt>
      <trkpt lat="43.00899" lon="0.7864">
        <ele>682</ele>
        <time>2021-03-13T15:16:17Z</time>
      </trkpt>
      <trkpt lat="43.00899" lon="0.7864">
        <ele>682</ele>
        <time>2021-03-13T15:16:18Z</time>
      </trkpt>
      <trkpt lat="43.00899" lon="0.7864">
        <ele>682</ele>
        <time>2021-03-13T15:16:19Z</time>
      </trkpt>
      <trkpt lat="43.00899" lon="0.7864">
        <ele>682</ele>
        <time>2021-03-13T15:16:20Z</time>
      </trkpt>
      <trkpt lat="43.00899" lon="0.7864">
        <ele>682</ele>
        <time>2021-03-13T15:16:21Z</time>
      </trkpt>
      <trkpt lat="43.00899" lon="0.7864">
        <ele>682</ele>
        <time>2021-03-13T15:16:22Z</time>
      </trkpt>
      <trkpt lat="43.00899" lon="0.7864">
        <ele>682</ele>
        <time>2021-03-13T15:16:23Z</time>
      </trkpt>
      <trkpt lat="43.00899" lon="0.7864">
        <ele>682</ele>
        <time>2021-03-13T15:16:24Z</time>
      </trkpt>
      <trkpt lat="43.00899" lon="0.7864">
        <ele>682</ele>
        <time>2021-03-13T15:16:25Z</time>
      </trkpt>
      <trkpt lat="43.00899" lon="0.7864">
        <ele>682</ele>
        <time>2021-03-13T15:16:26Z</time>
      </trkpt>
      <trkpt lat="43.00899" lon="0.7864">
        <ele>682</ele>
        <time>2021-03-13T15:16:27Z</time>
      </trkpt>
      <trkpt lat="43.00899" lon="0.7864">
        <ele>682</ele>
        <time>2021-03-13T15:16:28Z</time>
      </trkpt>
      <trkpt lat="43.00899" lon="0.7864">
        <ele>682</ele>
        <time>2021-03-13T15:16:29Z</time>
      </trkpt>
      <trkpt lat="43.009" lon="0.7864">
        <ele>681</ele>
        <time>2021-03-13T15:16:30Z</time>
      </trkpt>
      <trkpt lat="43.009" lon="0.7864">
        <ele>681</ele>
        <time>2021-03-13T15:16:31Z</time>
      </trkpt>
      <trkpt lat="43.009" lon="0.7864">
        <ele>681</ele>
        <time>2021-03-13T15:16:32Z</time>
      </trkpt>
      <trkpt lat="43.009" lon="0.7864">
        <ele>681</ele>
        <time>2021-03-13T15:16:33Z</time>
      </trkpt>
      <trkpt lat="43.009" lon="0.7864">
        <ele>681</ele>
        <time>2021-03-13T15:16:34Z</time>
      </trkpt>
      <trkpt lat="43.009" lon="0.7864">
        <ele>681</ele>
        <time>2021-03-13T15:16:35Z</time>
      </trkpt>
      <trkpt lat="43.009" lon="0.7864">
        <ele>681</ele>
        <time>2021-03-13T15:16:36Z</time>
      </trkpt>
      <trkpt lat="43.009" lon="0.7864">
        <ele>681</ele>
        <time>2021-03-13T15:16:37Z</time>
      </trkpt>
      <trkpt lat="43.009" lon="0.7864">
        <ele>681</ele>
        <time>2021-03-13T15:16:38Z</time>
      </trkpt>
      <trkpt lat="43.009" lon="0.7864">
        <ele>681</ele>
        <time>2021-03-13T15:16:39Z</time>
      </trkpt>
      <trkpt lat="43.009" lon="0.7864">
        <ele>681</ele>
        <time>2021-03-13T15:16:40Z</time>
      </trkpt>
      <trkpt lat="43.009" lon="0.7864">
        <ele>681</ele>
        <time>2021-03-13T15:16:41Z</time>
      </trkpt>
      <trkpt lat="43.009" lon="0.7864">
        <ele>681</ele>
        <time>2021-03-13T15:16:42Z</time>
      </trkpt>
      <trkpt lat="43.009" lon="0.7864">
        <ele>681</ele>
        <time>2021-03-13T15:16:43Z</time>
      </trkpt>
      <trkpt lat="43.009" lon="0.7864">
        <ele>681</ele>
        <time>2021-03-13T15:16:44Z</time>
      </trkpt>
      <trkpt lat="43.009" lon="0.7864">
        <ele>681</ele>
        <time>2021-03-13T15:16:45Z</time>
      </trkpt>
      <trkpt lat="43.009" lon="0.7864">
        <ele>681</ele>
        <time>2021-03-13T15:16:46Z</time>
      </trkpt>
      <trkpt lat="43.009" lon="0.7864">
        <ele>681</ele>
        <time>2021-03-13T15:16:47Z</time>
      </trkpt>
      <trkpt lat="43.009" lon="0.78641">
        <ele>681</ele>
        <time>2021-03-13T15:16:48Z</time>
      </trkpt>
      <trkpt lat="43.009" lon="0.78641">
        <ele>681</ele>
        <time>2021-03-13T15:16:49Z</time>
      </trkpt>
      <trkpt lat="43.009" lon="0.78641">
        <ele>681</ele>
        <time>2021-03-13T15:16:50Z</time>
      </trkpt>
      <trkpt lat="43.009" lon="0.78641">
        <ele>681</ele>
        <time>2021-03-13T15:16:51Z</time>
      </trkpt>
      <trkpt lat="43.009" lon="0.78641">
        <ele>681</ele>
        <time>2021-03-13T15:16:52Z</time>
      </trkpt>
      <trkpt lat="43.00901" lon="0.78641">
        <ele>681</ele>
        <time>2021-03-13T15:16:53Z</time>
      </trkpt>
      <trkpt lat="43.00901" lon="0.78641">
        <ele>681</ele>
        <time>2021-03-13T15:16:54Z</time>
      </trkpt>
      <trkpt lat="43.00901" lon="0.78641">
        <ele>681</ele>
        <time>2021-03-13T15:16:55Z</time>
      </trkpt>
      <trkpt lat="43.00901" lon="0.78641">
        <ele>681</ele>
        <time>2021-03-13T15:16:56Z</time>
      </trkpt>
      <trkpt lat="43.00901" lon="0.78641">
        <ele>681</ele>
        <time>2021-03-13T15:16:57Z</time>
      </trkpt>
      <trkpt lat="43.00901" lon="0.78641">
        <ele>681</ele>
        <time>2021-03-13T15:16:58Z</time>
      </trkpt>
      <trkpt lat="43.00901" lon="0.78641">
        <ele>681</ele>
        <time>2021-03-13T15:16:59Z</time>
      </trkpt>
      <trkpt lat="43.00901" lon="0.78641">
        <ele>682</ele>
        <time>2021-03-13T15:17:00Z</time>
      </trkpt>
      <trkpt lat="43.00901" lon="0.78641">
        <ele>682</ele>
        <time>2021-03-13T15:17:01Z</time>
      </trkpt>
      <trkpt lat="43.00901" lon="0.78641">
        <ele>682</ele>
        <time>2021-03-13T15:17:02Z</time>
      </trkpt>
      <trkpt lat="43.00901" lon="0.78641">
        <ele>682</ele>
        <time>2021-03-13T15:17:03Z</time>
      </trkpt>
      <trkpt lat="43.00901" lon="0.78641">
        <ele>682</ele>
        <time>2021-03-13T15:17:04Z</time>
      </trkpt>
      <trkpt lat="43.00901" lon="0.78641">
        <ele>682</ele>
        <time>2021-03-13T15:17:05Z</time>
      </trkpt>
      <trkpt lat="43.00904" lon="0.78644">
        <ele>682</ele>
        <time>2021-03-13T15:17:06Z</time>
      </trkpt>
      <trkpt lat="43.00907" lon="0.78647">
        <ele>682</ele>
        <time>2021-03-13T15:17:07Z</time>
      </trkpt>
      <trkpt lat="43.00911" lon="0.7865">
        <ele>682</ele>
        <time>2021-03-13T15:17:08Z</time>
      </trkpt>
      <trkpt lat="43.00914" lon="0.78654">
        <ele>682</ele>
        <time>2021-03-13T15:17:09Z</time>
      </trkpt>
      <trkpt lat="43.00918" lon="0.78657">
        <ele>680</ele>
        <time>2021-03-13T15:17:10Z</time>
      </trkpt>
      <trkpt lat="43.00922" lon="0.78659">
        <ele>680</ele>
        <time>2021-03-13T15:17:11Z</time>
      </trkpt>
      <trkpt lat="43.00926" lon="0.78662">
        <ele>680</ele>
        <time>2021-03-13T15:17:12Z</time>
      </trkpt>
      <trkpt lat="43.0093" lon="0.78665">
        <ele>680</ele>
        <time>2021-03-13T15:17:13Z</time>
      </trkpt>
      <trkpt lat="43.00934" lon="0.7867">
        <ele>680</ele>
        <time>2021-03-13T15:17:14Z</time>
      </trkpt>
      <trkpt lat="43.00938" lon="0.78675">
        <ele>680</ele>
        <time>2021-03-13T15:17:15Z</time>
      </trkpt>
      <trkpt lat="43.00942" lon="0.7868">
        <ele>680</ele>
        <time>2021-03-13T15:17:16Z</time>
      </trkpt>
      <trkpt lat="43.00947" lon="0.78685">
        <ele>680</ele>
        <time>2021-03-13T15:17:17Z</time>
      </trkpt>
      <trkpt lat="43.00951" lon="0.78691">
        <ele>680</ele>
        <time>2021-03-13T15:17:18Z</time>
      </trkpt>
      <trkpt lat="43.00956" lon="0.78697">
        <ele>680</ele>
        <time>2021-03-13T15:17:19Z</time>
      </trkpt>
      <trkpt lat="43.00962" lon="0.78702">
        <ele>675</ele>
        <time>2021-03-13T15:17:20Z</time>
      </trkpt>
      <trkpt lat="43.00967" lon="0.78708">
        <ele>675</ele>
        <time>2021-03-13T15:17:21Z</time>
      </trkpt>
      <trkpt lat="43.00972" lon="0.78713">
        <ele>675</ele>
        <time>2021-03-13T15:17:22Z</time>
      </trkpt>
      <trkpt lat="43.00977" lon="0.78719">
        <ele>675</ele>
        <time>2021-03-13T15:17:23Z</time>
      </trkpt>
      <trkpt lat="43.00982" lon="0.78723">
        <ele>675</ele>
        <time>2021-03-13T15:17:24Z</time>
      </trkpt>
      <trkpt lat="43.00985" lon="0.78725">
        <ele>673</ele>
        <time>2021-03-13T15:17:25Z</time>
      </trkpt>
      <trkpt lat="43.00987" lon="0.78728">
        <ele>673</ele>
        <time>2021-03-13T15:17:26Z</time>
      </trkpt>
      <trkpt lat="43.00995" lon="0.78734">
        <ele>673</ele>
        <time>2021-03-13T15:17:27Z</time>
      </trkpt>
      <trkpt lat="43.00997" lon="0.78736">
        <ele>673</ele>
        <time>2021-03-13T15:17:28Z</time>
      </trkpt>
      <trkpt lat="43.01003" lon="0.78742">
        <ele>673</ele>
        <time>2021-03-13T15:17:29Z</time>
      </trkpt>
      <trkpt lat="43.01005" lon="0.78743">
        <ele>672</ele>
        <time>2021-03-13T15:17:30Z</time>
      </trkpt>
      <trkpt lat="43.01007" lon="0.78745">
        <ele>672</ele>
        <time>2021-03-13T15:17:31Z</time>
      </trkpt>
      <trkpt lat="43.01015" lon="0.78754">
        <ele>672</ele>
        <time>2021-03-13T15:17:32Z</time>
      </trkpt>
      <trkpt lat="43.01018" lon="0.78757">
        <ele>672</ele>
        <time>2021-03-13T15:17:33Z</time>
      </trkpt>
      <trkpt lat="43.0102" lon="0.78759">
        <ele>672</ele>
        <time>2021-03-13T15:17:34Z</time>
      </trkpt>
      <trkpt lat="43.01021" lon="0.7876">
        <ele>673</ele>
        <time>2021-03-13T15:17:35Z</time>
      </trkpt>
      <trkpt lat="43.01023" lon="0.78762">
        <ele>673</ele>
        <time>2021-03-13T15:17:36Z</time>
      </trkpt>
      <trkpt lat="43.0103" lon="0.78771">
        <ele>673</ele>
        <time>2021-03-13T15:17:37Z</time>
      </trkpt>
      <trkpt lat="43.01032" lon="0.78775">
        <ele>673</ele>
        <time>2021-03-13T15:17:38Z</time>
      </trkpt>
      <trkpt lat="43.01035" lon="0.78778">
        <ele>673</ele>
        <time>2021-03-13T15:17:39Z</time>
      </trkpt>
      <trkpt lat="43.01037" lon="0.78782">
        <ele>673</ele>
        <time>2021-03-13T15:17:40Z</time>
      </trkpt>
      <trkpt lat="43.01042" lon="0.78784">
        <ele>673</ele>
        <time>2021-03-13T15:17:41Z</time>
      </trkpt>
      <trkpt lat="43.01046" lon="0.78787">
        <ele>673</ele>
        <time>2021-03-13T15:17:42Z</time>
      </trkpt>
      <trkpt lat="43.01051" lon="0.78789">
        <ele>673</ele>
        <time>2021-03-13T15:17:43Z</time>
      </trkpt>
      <trkpt lat="43.01055" lon="0.7879">
        <ele>673</ele>
        <time>2021-03-13T15:17:44Z</time>
      </trkpt>
      <trkpt lat="43.01055" lon="0.7879">
        <ele>673</ele>
        <time>2021-03-13T15:17:45Z</time>
      </trkpt>
      <trkpt lat="43.01065" lon="0.7879">
        <ele>673</ele>
        <time>2021-03-13T15:17:46Z</time>
      </trkpt>
      <trkpt lat="43.01065" lon="0.7879">
        <ele>673</ele>
        <time>2021-03-13T15:17:47Z</time>
      </trkpt>
      <trkpt lat="43.01079" lon="0.7879">
        <ele>673</ele>
        <time>2021-03-13T15:17:48Z</time>
      </trkpt>
      <trkpt lat="43.01082" lon="0.7879">
        <ele>673</ele>
        <time>2021-03-13T15:17:49Z</time>
      </trkpt>
      <trkpt lat="43.01091" lon="0.78789">
        <ele>670</ele>
        <time>2021-03-13T15:17:50Z</time>
      </trkpt>
      <trkpt lat="43.01094" lon="0.78789">
        <ele>670</ele>
        <time>2021-03-13T15:17:51Z</time>
      </trkpt>
      <trkpt lat="43.01103" lon="0.78789">
        <ele>670</ele>
        <time>2021-03-13T15:17:52Z</time>
      </trkpt>
      <trkpt lat="43.01107" lon="0.78789">
        <ele>670</ele>
        <time>2021-03-13T15:17:53Z</time>
      </trkpt>
      <trkpt lat="43.01116" lon="0.78788">
        <ele>670</ele>
        <time>2021-03-13T15:17:54Z</time>
      </trkpt>
      <trkpt lat="43.0112" lon="0.78788">
        <ele>667</ele>
        <time>2021-03-13T15:17:55Z</time>
      </trkpt>
      <trkpt lat="43.01126" lon="0.78787">
        <ele>667</ele>
        <time>2021-03-13T15:17:56Z</time>
      </trkpt>
      <trkpt lat="43.01133" lon="0.78787">
        <ele>667</ele>
        <time>2021-03-13T15:17:57Z</time>
      </trkpt>
      <trkpt lat="43.01139" lon="0.78787">
        <ele>666</ele>
        <time>2021-03-13T15:17:58Z</time>
      </trkpt>
      <trkpt lat="43.01139" lon="0.78787">
        <ele>666</ele>
        <time>2021-03-13T15:17:59Z</time>
      </trkpt>
      <trkpt lat="43.01153" lon="0.78785">
        <ele>663</ele>
        <time>2021-03-13T15:18:00Z</time>
      </trkpt>
      <trkpt lat="43.01155" lon="0.78785">
        <ele>663</ele>
        <time>2021-03-13T15:18:01Z</time>
      </trkpt>
      <trkpt lat="43.01162" lon="0.78784">
        <ele>662</ele>
        <time>2021-03-13T15:18:02Z</time>
      </trkpt>
      <trkpt lat="43.01164" lon="0.78784">
        <ele>661</ele>
        <time>2021-03-13T15:18:03Z</time>
      </trkpt>
      <trkpt lat="43.01168" lon="0.78783">
        <ele>661</ele>
        <time>2021-03-13T15:18:04Z</time>
      </trkpt>
      <trkpt lat="43.01168" lon="0.78783">
        <ele>662</ele>
        <time>2021-03-13T15:18:05Z</time>
      </trkpt>
      <trkpt lat="43.01175" lon="0.78779">
        <ele>664</ele>
        <time>2021-03-13T15:18:06Z</time>
      </trkpt>
      <trkpt lat="43.01175" lon="0.78779">
        <ele>665</ele>
        <time>2021-03-13T15:18:07Z</time>
      </trkpt>
      <trkpt lat="43.0118" lon="0.78773">
        <ele>665</ele>
        <time>2021-03-13T15:18:08Z</time>
      </trkpt>
      <trkpt lat="43.0118" lon="0.78773">
        <ele>665</ele>
        <time>2021-03-13T15:18:09Z</time>
      </trkpt>
      <trkpt lat="43.01184" lon="0.78762">
        <ele>665</ele>
        <time>2021-03-13T15:18:10Z</time>
      </trkpt>
      <trkpt lat="43.01185" lon="0.78759">
        <ele>665</ele>
        <time>2021-03-13T15:18:11Z</time>
      </trkpt>
      <trkpt lat="43.01185" lon="0.78759">
        <ele>665</ele>
        <time>2021-03-13T15:18:12Z</time>
      </trkpt>
      <trkpt lat="43.01187" lon="0.7875">
        <ele>665</ele>
        <time>2021-03-13T15:18:13Z</time>
      </trkpt>
      <trkpt lat="43.01187" lon="0.7875">
        <ele>665</ele>
        <time>2021-03-13T15:18:14Z</time>
      </trkpt>
      <trkpt lat="43.0119" lon="0.78742">
        <ele>664</ele>
        <time>2021-03-13T15:18:15Z</time>
      </trkpt>
      <trkpt lat="43.0119" lon="0.78742">
        <ele>664</ele>
        <time>2021-03-13T15:18:16Z</time>
      </trkpt>
      <trkpt lat="43.01195" lon="0.78735">
        <ele>664</ele>
        <time>2021-03-13T15:18:17Z</time>
      </trkpt>
      <trkpt lat="43.01195" lon="0.78735">
        <ele>664</ele>
        <time>2021-03-13T15:18:18Z</time>
      </trkpt>
      <trkpt lat="43.01199" lon="0.78728">
        <ele>664</ele>
        <time>2021-03-13T15:18:19Z</time>
      </trkpt>
      <trkpt lat="43.01199" lon="0.78728">
        <ele>664</ele>
        <time>2021-03-13T15:18:20Z</time>
      </trkpt>
      <trkpt lat="43.01203" lon="0.78721">
        <ele>664</ele>
        <time>2021-03-13T15:18:21Z</time>
      </trkpt>
      <trkpt lat="43.01203" lon="0.78721">
        <ele>664</ele>
        <time>2021-03-13T15:18:22Z</time>
      </trkpt>
      <trkpt lat="43.01205" lon="0.78717">
        <ele>664</ele>
        <time>2021-03-13T15:18:23Z</time>
      </trkpt>
      <trkpt lat="43.01207" lon="0.78714">
        <ele>664</ele>
        <time>2021-03-13T15:18:24Z</time>
      </trkpt>
      <trkpt lat="43.01208" lon="0.78711">
        <ele>664</ele>
        <time>2021-03-13T15:18:25Z</time>
      </trkpt>
      <trkpt lat="43.0121" lon="0.78708">
        <ele>664</ele>
        <time>2021-03-13T15:18:26Z</time>
      </trkpt>
      <trkpt lat="43.01211" lon="0.78705">
        <ele>664</ele>
        <time>2021-03-13T15:18:27Z</time>
      </trkpt>
      <trkpt lat="43.01213" lon="0.78702">
        <ele>664</ele>
        <time>2021-03-13T15:18:28Z</time>
      </trkpt>
      <trkpt lat="43.01215" lon="0.78699">
        <ele>664</ele>
        <time>2021-03-13T15:18:29Z</time>
      </trkpt>
      <trkpt lat="43.01216" lon="0.78696">
        <ele>666</ele>
        <time>2021-03-13T15:18:30Z</time>
      </trkpt>
      <trkpt lat="43.01218" lon="0.78693">
        <ele>666</ele>
        <time>2021-03-13T15:18:31Z</time>
      </trkpt>
      <trkpt lat="43.0122" lon="0.7869">
        <ele>666</ele>
        <time>2021-03-13T15:18:32Z</time>
      </trkpt>
      <trkpt lat="43.01221" lon="0.78687">
        <ele>666</ele>
        <time>2021-03-13T15:18:33Z</time>
      </trkpt>
      <trkpt lat="43.01223" lon="0.78685">
        <ele>666</ele>
        <time>2021-03-13T15:18:34Z</time>
      </trkpt>
      <trkpt lat="43.01224" lon="0.78682">
        <ele>666</ele>
        <time>2021-03-13T15:18:35Z</time>
      </trkpt>
      <trkpt lat="43.01226" lon="0.78679">
        <ele>666</ele>
        <time>2021-03-13T15:18:36Z</time>
      </trkpt>
      <trkpt lat="43.01228" lon="0.78677">
        <ele>666</ele>
        <time>2021-03-13T15:18:37Z</time>
      </trkpt>
      <trkpt lat="43.0123" lon="0.78675">
        <ele>666</ele>
        <time>2021-03-13T15:18:38Z</time>
      </trkpt>
      <trkpt lat="43.01231" lon="0.78672">
        <ele>666</ele>
        <time>2021-03-13T15:18:39Z</time>
      </trkpt>
      <trkpt lat="43.01233" lon="0.7867">
        <ele>669</ele>
        <time>2021-03-13T15:18:40Z</time>
      </trkpt>
      <trkpt lat="43.01235" lon="0.78667">
        <ele>669</ele>
        <time>2021-03-13T15:18:41Z</time>
      </trkpt>
      <trkpt lat="43.01236" lon="0.78664">
        <ele>669</ele>
        <time>2021-03-13T15:18:42Z</time>
      </trkpt>
      <trkpt lat="43.01238" lon="0.7866">
        <ele>669</ele>
        <time>2021-03-13T15:18:43Z</time>
      </trkpt>
      <trkpt lat="43.0124" lon="0.78657">
        <ele>669</ele>
        <time>2021-03-13T15:18:44Z</time>
      </trkpt>
      <trkpt lat="43.01242" lon="0.78653">
        <ele>669</ele>
        <time>2021-03-13T15:18:45Z</time>
      </trkpt>
      <trkpt lat="43.01243" lon="0.78649">
        <ele>669</ele>
        <time>2021-03-13T15:18:46Z</time>
      </trkpt>
      <trkpt lat="43.01245" lon="0.78645">
        <ele>669</ele>
        <time>2021-03-13T15:18:47Z</time>
      </trkpt>
      <trkpt lat="43.01251" lon="0.78635">
        <ele>669</ele>
        <time>2021-03-13T15:18:48Z</time>
      </trkpt>
      <trkpt lat="43.01251" lon="0.78635">
        <ele>669</ele>
        <time>2021-03-13T15:18:49Z</time>
      </trkpt>
      <trkpt lat="43.01258" lon="0.78626">
        <ele>669</ele>
        <time>2021-03-13T15:18:50Z</time>
      </trkpt>
      <trkpt lat="43.01258" lon="0.78626">
        <ele>669</ele>
        <time>2021-03-13T15:18:51Z</time>
      </trkpt>
      <trkpt lat="43.0127" lon="0.78617">
        <ele>669</ele>
        <time>2021-03-13T15:18:52Z</time>
      </trkpt>
      <trkpt lat="43.01272" lon="0.78616">
        <ele>668</ele>
        <time>2021-03-13T15:18:53Z</time>
      </trkpt>
      <trkpt lat="43.0128" lon="0.78615">
        <ele>668</ele>
        <time>2021-03-13T15:18:54Z</time>
      </trkpt>
      <trkpt lat="43.01283" lon="0.78615">
        <ele>668</ele>
        <time>2021-03-13T15:18:55Z</time>
      </trkpt>
      <trkpt lat="43.01291" lon="0.78616">
        <ele>668</ele>
        <time>2021-03-13T15:18:56Z</time>
      </trkpt>
      <trkpt lat="43.01294" lon="0.78617">
        <ele>668</ele>
        <time>2021-03-13T15:18:57Z</time>
      </trkpt>
      <trkpt lat="43.01302" lon="0.7862">
        <ele>668</ele>
        <time>2021-03-13T15:18:58Z</time>
      </trkpt>
      <trkpt lat="43.01304" lon="0.78621">
        <ele>668</ele>
        <time>2021-03-13T15:18:59Z</time>
      </trkpt>
      <trkpt lat="43.01309" lon="0.78623">
        <ele>661</ele>
        <time>2021-03-13T15:19:00Z</time>
      </trkpt>
      <trkpt lat="43.01309" lon="0.78623">
        <ele>661</ele>
        <time>2021-03-13T15:19:01Z</time>
      </trkpt>
      <trkpt lat="43.01322" lon="0.78627">
        <ele>659</ele>
        <time>2021-03-13T15:19:02Z</time>
      </trkpt>
      <trkpt lat="43.01325" lon="0.78628">
        <ele>659</ele>
        <time>2021-03-13T15:19:03Z</time>
      </trkpt>
      <trkpt lat="43.0133" lon="0.78629">
        <ele>659</ele>
        <time>2021-03-13T15:19:04Z</time>
      </trkpt>
      <trkpt lat="43.0133" lon="0.78629">
        <ele>659</ele>
        <time>2021-03-13T15:19:05Z</time>
      </trkpt>
      <trkpt lat="43.01338" lon="0.78633">
        <ele>657</ele>
        <time>2021-03-13T15:19:06Z</time>
      </trkpt>
      <trkpt lat="43.01338" lon="0.78633">
        <ele>657</ele>
        <time>2021-03-13T15:19:07Z</time>
      </trkpt>
      <trkpt lat="43.0135" lon="0.7864">
        <ele>656</ele>
        <time>2021-03-13T15:19:08Z</time>
      </trkpt>
      <trkpt lat="43.01352" lon="0.78641">
        <ele>655</ele>
        <time>2021-03-13T15:19:09Z</time>
      </trkpt>
      <trkpt lat="43.0136" lon="0.78645">
        <ele>654</ele>
        <time>2021-03-13T15:19:10Z</time>
      </trkpt>
      <trkpt lat="43.01362" lon="0.78646">
        <ele>653</ele>
        <time>2021-03-13T15:19:11Z</time>
      </trkpt>
      <trkpt lat="43.01366" lon="0.78646">
        <ele>652</ele>
        <time>2021-03-13T15:19:12Z</time>
      </trkpt>
      <trkpt lat="43.01366" lon="0.78646">
        <ele>651</ele>
        <time>2021-03-13T15:19:13Z</time>
      </trkpt>
      <trkpt lat="43.01379" lon="0.78644">
        <ele>651</ele>
        <time>2021-03-13T15:19:14Z</time>
      </trkpt>
      <trkpt lat="43.01382" lon="0.78643">
        <ele>650</ele>
        <time>2021-03-13T15:19:15Z</time>
      </trkpt>
      <trkpt lat="43.01387" lon="0.78642">
        <ele>649</ele>
        <time>2021-03-13T15:19:16Z</time>
      </trkpt>
      <trkpt lat="43.01387" lon="0.78642">
        <ele>648</ele>
        <time>2021-03-13T15:19:17Z</time>
      </trkpt>
      <trkpt lat="43.014" lon="0.78644">
        <ele>646</ele>
        <time>2021-03-13T15:19:18Z</time>
      </trkpt>
      <trkpt lat="43.01403" lon="0.78644">
        <ele>645</ele>
        <time>2021-03-13T15:19:19Z</time>
      </trkpt>
      <trkpt lat="43.01412" lon="0.78645">
        <ele>645</ele>
        <time>2021-03-13T15:19:20Z</time>
      </trkpt>
      <trkpt lat="43.01415" lon="0.78646">
        <ele>645</ele>
        <time>2021-03-13T15:19:21Z</time>
      </trkpt>
      <trkpt lat="43.01421" lon="0.78646">
        <ele>642</ele>
        <time>2021-03-13T15:19:22Z</time>
      </trkpt>
      <trkpt lat="43.01421" lon="0.78646">
        <ele>642</ele>
        <time>2021-03-13T15:19:23Z</time>
      </trkpt>
      <trkpt lat="43.01425" lon="0.78649">
        <ele>642</ele>
        <time>2021-03-13T15:19:24Z</time>
      </trkpt>
      <trkpt lat="43.0143" lon="0.78651">
        <ele>641</ele>
        <time>2021-03-13T15:19:25Z</time>
      </trkpt>
      <trkpt lat="43.01434" lon="0.78653">
        <ele>641</ele>
        <time>2021-03-13T15:19:26Z</time>
      </trkpt>
      <trkpt lat="43.01438" lon="0.78654">
        <ele>639</ele>
        <time>2021-03-13T15:19:27Z</time>
      </trkpt>
      <trkpt lat="43.01441" lon="0.78655">
        <ele>638</ele>
        <time>2021-03-13T15:19:28Z</time>
      </trkpt>
      <trkpt lat="43.01444" lon="0.78656">
        <ele>638</ele>
        <time>2021-03-13T15:19:29Z</time>
      </trkpt>
      <trkpt lat="43.01445" lon="0.78656">
        <ele>637</ele>
        <time>2021-03-13T15:19:30Z</time>
      </trkpt>
      <trkpt lat="43.01445" lon="0.78656">
        <ele>637</ele>
        <time>2021-03-13T15:19:31Z</time>
      </trkpt>
      <trkpt lat="43.01446" lon="0.78657">
        <ele>636</ele>
        <time>2021-03-13T15:19:32Z</time>
      </trkpt>
      <trkpt lat="43.01446" lon="0.78657">
        <ele>636</ele>
        <time>2021-03-13T15:19:33Z</time>
      </trkpt>
      <trkpt lat="43.01447" lon="0.78657">
        <ele>637</ele>
        <time>2021-03-13T15:19:34Z</time>
      </trkpt>
      <trkpt lat="43.01447" lon="0.78657">
        <ele>637</ele>
        <time>2021-03-13T15:19:35Z</time>
      </trkpt>
      <trkpt lat="43.01448" lon="0.78657">
        <ele>637</ele>
        <time>2021-03-13T15:19:36Z</time>
      </trkpt>
      <trkpt lat="43.01448" lon="0.78657">
        <ele>637</ele>
        <time>2021-03-13T15:19:37Z</time>
      </trkpt>
      <trkpt lat="43.01449" lon="0.78657">
        <ele>637</ele>
        <time>2021-03-13T15:19:38Z</time>
      </trkpt>
      <trkpt lat="43.01449" lon="0.78657">
        <ele>636</ele>
        <time>2021-03-13T15:19:39Z</time>
      </trkpt>
      <trkpt lat="43.0145" lon="0.78657">
        <ele>636</ele>
        <time>2021-03-13T15:19:40Z</time>
      </trkpt>
      <trkpt lat="43.0145" lon="0.78658">
        <ele>636</ele>
        <time>2021-03-13T15:19:41Z</time>
      </trkpt>
      <trkpt lat="43.01451" lon="0.78658">
        <ele>636</ele>
        <time>2021-03-13T15:19:42Z</time>
      </trkpt>
      <trkpt lat="43.01451" lon="0.78658">
        <ele>636</ele>
        <time>2021-03-13T15:19:43Z</time>
      </trkpt>
      <trkpt lat="43.01452" lon="0.78658">
        <ele>636</ele>
        <time>2021-03-13T15:19:44Z</time>
      </trkpt>
      <trkpt lat="43.01452" lon="0.78658">
        <ele>636</ele>
        <time>2021-03-13T15:19:45Z</time>
      </trkpt>
      <trkpt lat="43.01453" lon="0.78658">
        <ele>636</ele>
        <time>2021-03-13T15:19:46Z</time>
      </trkpt>
      <trkpt lat="43.01453" lon="0.78658">
        <ele>636</ele>
        <time>2021-03-13T15:19:47Z</time>
      </trkpt>
      <trkpt lat="43.01455" lon="0.78659">
        <ele>636</ele>
        <time>2021-03-13T15:19:48Z</time>
      </trkpt>
      <trkpt lat="43.01456" lon="0.7866">
        <ele>636</ele>
        <time>2021-03-13T15:19:49Z</time>
      </trkpt>
      <trkpt lat="43.01457" lon="0.78661">
        <ele>634</ele>
        <time>2021-03-13T15:19:50Z</time>
      </trkpt>
      <trkpt lat="43.01459" lon="0.78661">
        <ele>634</ele>
        <time>2021-03-13T15:19:51Z</time>
      </trkpt>
      <trkpt lat="43.0146" lon="0.78662">
        <ele>634</ele>
        <time>2021-03-13T15:19:52Z</time>
      </trkpt>
      <trkpt lat="43.0146" lon="0.78661">
        <ele>634</ele>
        <time>2021-03-13T15:19:53Z</time>
      </trkpt>
      <trkpt lat="43.0146" lon="0.7866">
        <ele>634</ele>
        <time>2021-03-13T15:19:54Z</time>
      </trkpt>
      <trkpt lat="43.0146" lon="0.78659">
        <ele>634</ele>
        <time>2021-03-13T15:19:55Z</time>
      </trkpt>
      <trkpt lat="43.0146" lon="0.78657">
        <ele>634</ele>
        <time>2021-03-13T15:19:56Z</time>
      </trkpt>
      <trkpt lat="43.0146" lon="0.78656">
        <ele>634</ele>
        <time>2021-03-13T15:19:57Z</time>
      </trkpt>
      <trkpt lat="43.0146" lon="0.78655">
        <ele>634</ele>
        <time>2021-03-13T15:19:58Z</time>
      </trkpt>
      <trkpt lat="43.0146" lon="0.78654">
        <ele>634</ele>
        <time>2021-03-13T15:19:59Z</time>
      </trkpt>
      <trkpt lat="43.0146" lon="0.78653">
        <ele>633</ele>
        <time>2021-03-13T15:20:00Z</time>
      </trkpt>
      <trkpt lat="43.0146" lon="0.78651">
        <ele>633</ele>
        <time>2021-03-13T15:20:01Z</time>
      </trkpt>
      <trkpt lat="43.0146" lon="0.7865">
        <ele>633</ele>
        <time>2021-03-13T15:20:02Z</time>
      </trkpt>
      <trkpt lat="43.01459" lon="0.78646">
        <ele>633</ele>
        <time>2021-03-13T15:20:03Z</time>
      </trkpt>
      <trkpt lat="43.01457" lon="0.78642">
        <ele>633</ele>
        <time>2021-03-13T15:20:04Z</time>
      </trkpt>
      <trkpt lat="43.01456" lon="0.78638">
        <ele>633</ele>
        <time>2021-03-13T15:20:05Z</time>
      </trkpt>
      <trkpt lat="43.0145" lon="0.78621">
        <ele>633</ele>
        <time>2021-03-13T15:20:06Z</time>
      </trkpt>
      <trkpt lat="43.01448" lon="0.78617">
        <ele>633</ele>
        <time>2021-03-13T15:20:07Z</time>
      </trkpt>
      <trkpt lat="43.01444" lon="0.78605">
        <ele>633</ele>
        <time>2021-03-13T15:20:08Z</time>
      </trkpt>
      <trkpt lat="43.01442" lon="0.78601">
        <ele>633</ele>
        <time>2021-03-13T15:20:09Z</time>
      </trkpt>
      <trkpt lat="43.01439" lon="0.78592">
        <ele>628</ele>
        <time>2021-03-13T15:20:10Z</time>
      </trkpt>
      <trkpt lat="43.01439" lon="0.78592">
        <ele>628</ele>
        <time>2021-03-13T15:20:11Z</time>
      </trkpt>
      <trkpt lat="43.01436" lon="0.78586">
        <ele>628</ele>
        <time>2021-03-13T15:20:12Z</time>
      </trkpt>
      <trkpt lat="43.01434" lon="0.78581">
        <ele>628</ele>
        <time>2021-03-13T15:20:13Z</time>
      </trkpt>
      <trkpt lat="43.01433" lon="0.78578">
        <ele>628</ele>
        <time>2021-03-13T15:20:14Z</time>
      </trkpt>
      <trkpt lat="43.01431" lon="0.78576">
        <ele>623</ele>
        <time>2021-03-13T15:20:15Z</time>
      </trkpt>
      <trkpt lat="43.0143" lon="0.78573">
        <ele>623</ele>
        <time>2021-03-13T15:20:16Z</time>
      </trkpt>
      <trkpt lat="43.01425" lon="0.78563">
        <ele>623</ele>
        <time>2021-03-13T15:20:17Z</time>
      </trkpt>
      <trkpt lat="43.01424" lon="0.78561">
        <ele>623</ele>
        <time>2021-03-13T15:20:18Z</time>
      </trkpt>
      <trkpt lat="43.01423" lon="0.78558">
        <ele>623</ele>
        <time>2021-03-13T15:20:19Z</time>
      </trkpt>
      <trkpt lat="43.01417" lon="0.78548">
        <ele>619</ele>
        <time>2021-03-13T15:20:20Z</time>
      </trkpt>
      <trkpt lat="43.01416" lon="0.78545">
        <ele>616</ele>
        <time>2021-03-13T15:20:21Z</time>
      </trkpt>
      <trkpt lat="43.01415" lon="0.78543">
        <ele>615</ele>
        <time>2021-03-13T15:20:22Z</time>
      </trkpt>
      <trkpt lat="43.01408" lon="0.78529">
        <ele>614</ele>
        <time>2021-03-13T15:20:23Z</time>
      </trkpt>
      <trkpt lat="43.01405" lon="0.78523">
        <ele>614</ele>
        <time>2021-03-13T15:20:24Z</time>
      </trkpt>
      <trkpt lat="43.01403" lon="0.7852">
        <ele>613</ele>
        <time>2021-03-13T15:20:25Z</time>
      </trkpt>
      <trkpt lat="43.01402" lon="0.78518">
        <ele>613</ele>
        <time>2021-03-13T15:20:26Z</time>
      </trkpt>
      <trkpt lat="43.01401" lon="0.78515">
        <ele>611</ele>
        <time>2021-03-13T15:20:27Z</time>
      </trkpt>
      <trkpt lat="43.01395" lon="0.78504">
        <ele>610</ele>
        <time>2021-03-13T15:20:28Z</time>
      </trkpt>
      <trkpt lat="43.01393" lon="0.78501">
        <ele>610</ele>
        <time>2021-03-13T15:20:29Z</time>
      </trkpt>
      <trkpt lat="43.01392" lon="0.78499">
        <ele>608</ele>
        <time>2021-03-13T15:20:30Z</time>
      </trkpt>
      <trkpt lat="43.01385" lon="0.78487">
        <ele>607</ele>
        <time>2021-03-13T15:20:31Z</time>
      </trkpt>
      <trkpt lat="43.01383" lon="0.78484">
        <ele>607</ele>
        <time>2021-03-13T15:20:32Z</time>
      </trkpt>
      <trkpt lat="43.01378" lon="0.78475">
        <ele>606</ele>
        <time>2021-03-13T15:20:33Z</time>
      </trkpt>
      <trkpt lat="43.01377" lon="0.78473">
        <ele>606</ele>
        <time>2021-03-13T15:20:34Z</time>
      </trkpt>
      <trkpt lat="43.01375" lon="0.7847">
        <ele>606</ele>
        <time>2021-03-13T15:20:35Z</time>
      </trkpt>
      <trkpt lat="43.0137" lon="0.7846">
        <ele>605</ele>
        <time>2021-03-13T15:20:36Z</time>
      </trkpt>
      <trkpt lat="43.01369" lon="0.78457">
        <ele>604</ele>
        <time>2021-03-13T15:20:37Z</time>
      </trkpt>
      <trkpt lat="43.01368" lon="0.78455">
        <ele>602</ele>
        <time>2021-03-13T15:20:38Z</time>
      </trkpt>
      <trkpt lat="43.01363" lon="0.78444">
        <ele>601</ele>
        <time>2021-03-13T15:20:39Z</time>
      </trkpt>
      <trkpt lat="43.01362" lon="0.78441">
        <ele>600</ele>
        <time>2021-03-13T15:20:40Z</time>
      </trkpt>
      <trkpt lat="43.01357" lon="0.78432">
        <ele>599</ele>
        <time>2021-03-13T15:20:41Z</time>
      </trkpt>
      <trkpt lat="43.01355" lon="0.78429">
        <ele>598</ele>
        <time>2021-03-13T15:20:42Z</time>
      </trkpt>
      <trkpt lat="43.01349" lon="0.7842">
        <ele>597</ele>
        <time>2021-03-13T15:20:43Z</time>
      </trkpt>
      <trkpt lat="43.01347" lon="0.78416">
        <ele>597</ele>
        <time>2021-03-13T15:20:44Z</time>
      </trkpt>
      <trkpt lat="43.01341" lon="0.78407">
        <ele>596</ele>
        <time>2021-03-13T15:20:45Z</time>
      </trkpt>
      <trkpt lat="43.01339" lon="0.78405">
        <ele>595</ele>
        <time>2021-03-13T15:20:46Z</time>
      </trkpt>
      <trkpt lat="43.01332" lon="0.78395">
        <ele>594</ele>
        <time>2021-03-13T15:20:47Z</time>
      </trkpt>
      <trkpt lat="43.01329" lon="0.78389">
        <ele>592</ele>
        <time>2021-03-13T15:20:48Z</time>
      </trkpt>
      <trkpt lat="43.01327" lon="0.78387">
        <ele>591</ele>
        <time>2021-03-13T15:20:49Z</time>
      </trkpt>
      <trkpt lat="43.01325" lon="0.78384">
        <ele>590</ele>
        <time>2021-03-13T15:20:50Z</time>
      </trkpt>
      <trkpt lat="43.0132" lon="0.78377">
        <ele>589</ele>
        <time>2021-03-13T15:20:51Z</time>
      </trkpt>
      <trkpt lat="43.01318" lon="0.78375">
        <ele>588</ele>
        <time>2021-03-13T15:20:52Z</time>
      </trkpt>
      <trkpt lat="43.01312" lon="0.78368">
        <ele>588</ele>
        <time>2021-03-13T15:20:53Z</time>
      </trkpt>
      <trkpt lat="43.0131" lon="0.78366">
        <ele>587</ele>
        <time>2021-03-13T15:20:54Z</time>
      </trkpt>
      <trkpt lat="43.01309" lon="0.78364">
        <ele>587</ele>
        <time>2021-03-13T15:20:55Z</time>
      </trkpt>
      <trkpt lat="43.01303" lon="0.78357">
        <ele>587</ele>
        <time>2021-03-13T15:20:56Z</time>
      </trkpt>
      <trkpt lat="43.01301" lon="0.78356">
        <ele>586</ele>
        <time>2021-03-13T15:20:57Z</time>
      </trkpt>
      <trkpt lat="43.013" lon="0.78355">
        <ele>585</ele>
        <time>2021-03-13T15:20:58Z</time>
      </trkpt>
      <trkpt lat="43.01299" lon="0.78353">
        <ele>584</ele>
        <time>2021-03-13T15:20:59Z</time>
      </trkpt>
      <trkpt lat="43.01295" lon="0.78348">
        <ele>582</ele>
        <time>2021-03-13T15:21:00Z</time>
      </trkpt>
      <trkpt lat="43.01296" lon="0.78347">
        <ele>582</ele>
        <time>2021-03-13T15:21:01Z</time>
      </trkpt>
      <trkpt lat="43.01298" lon="0.78346">
        <ele>582</ele>
        <time>2021-03-13T15:21:02Z</time>
      </trkpt>
      <trkpt lat="43.01299" lon="0.78346">
        <ele>582</ele>
        <time>2021-03-13T15:21:03Z</time>
      </trkpt>
      <trkpt lat="43.013" lon="0.78345">
        <ele>581</ele>
        <time>2021-03-13T15:21:04Z</time>
      </trkpt>
      <trkpt lat="43.01307" lon="0.78341">
        <ele>580</ele>
        <time>2021-03-13T15:21:05Z</time>
      </trkpt>
      <trkpt lat="43.01309" lon="0.78341">
        <ele>579</ele>
        <time>2021-03-13T15:21:06Z</time>
      </trkpt>
      <trkpt lat="43.01311" lon="0.78341">
        <ele>579</ele>
        <time>2021-03-13T15:21:07Z</time>
      </trkpt>
      <trkpt lat="43.01322" lon="0.78339">
        <ele>577</ele>
        <time>2021-03-13T15:21:08Z</time>
      </trkpt>
      <trkpt lat="43.01325" lon="0.78339">
        <ele>575</ele>
        <time>2021-03-13T15:21:09Z</time>
      </trkpt>
      <trkpt lat="43.01335" lon="0.78338">
        <ele>574</ele>
        <time>2021-03-13T15:21:10Z</time>
      </trkpt>
      <trkpt lat="43.01338" lon="0.78338">
        <ele>573</ele>
        <time>2021-03-13T15:21:11Z</time>
      </trkpt>
      <trkpt lat="43.01347" lon="0.78336">
        <ele>572</ele>
        <time>2021-03-13T15:21:12Z</time>
      </trkpt>
      <trkpt lat="43.01349" lon="0.78336">
        <ele>570</ele>
        <time>2021-03-13T15:21:13Z</time>
      </trkpt>
      <trkpt lat="43.01351" lon="0.78335">
        <ele>570</ele>
        <time>2021-03-13T15:21:14Z</time>
      </trkpt>
      <trkpt lat="43.0136" lon="0.78334">
        <ele>569</ele>
        <time>2021-03-13T15:21:15Z</time>
      </trkpt>
      <trkpt lat="43.01361" lon="0.78334">
        <ele>568</ele>
        <time>2021-03-13T15:21:16Z</time>
      </trkpt>
      <trkpt lat="43.01363" lon="0.78334">
        <ele>566</ele>
        <time>2021-03-13T15:21:17Z</time>
      </trkpt>
      <trkpt lat="43.01371" lon="0.78334">
        <ele>565</ele>
        <time>2021-03-13T15:21:18Z</time>
      </trkpt>
      <trkpt lat="43.01373" lon="0.78335">
        <ele>565</ele>
        <time>2021-03-13T15:21:19Z</time>
      </trkpt>
      <trkpt lat="43.01375" lon="0.78336">
        <ele>564</ele>
        <time>2021-03-13T15:21:20Z</time>
      </trkpt>
      <trkpt lat="43.01383" lon="0.78338">
        <ele>564</ele>
        <time>2021-03-13T15:21:21Z</time>
      </trkpt>
      <trkpt lat="43.01385" lon="0.78339">
        <ele>563</ele>
        <time>2021-03-13T15:21:22Z</time>
      </trkpt>
      <trkpt lat="43.01387" lon="0.78339">
        <ele>562</ele>
        <time>2021-03-13T15:21:23Z</time>
      </trkpt>
      <trkpt lat="43.01399" lon="0.78342">
        <ele>561</ele>
        <time>2021-03-13T15:21:24Z</time>
      </trkpt>
      <trkpt lat="43.01404" lon="0.78343">
        <ele>561</ele>
        <time>2021-03-13T15:21:25Z</time>
      </trkpt>
      <trkpt lat="43.01406" lon="0.78344">
        <ele>560</ele>
        <time>2021-03-13T15:21:26Z</time>
      </trkpt>
      <trkpt lat="43.01408" lon="0.78344">
        <ele>559</ele>
        <time>2021-03-13T15:21:27Z</time>
      </trkpt>
      <trkpt lat="43.01411" lon="0.78344">
        <ele>559</ele>
        <time>2021-03-13T15:21:28Z</time>
      </trkpt>
      <trkpt lat="43.01421" lon="0.78346">
        <ele>557</ele>
        <time>2021-03-13T15:21:29Z</time>
      </trkpt>
      <trkpt lat="43.01424" lon="0.78347">
        <ele>556</ele>
        <time>2021-03-13T15:21:30Z</time>
      </trkpt>
      <trkpt lat="43.01433" lon="0.78349">
        <ele>555</ele>
        <time>2021-03-13T15:21:31Z</time>
      </trkpt>
      <trkpt lat="43.01435" lon="0.7835">
        <ele>555</ele>
        <time>2021-03-13T15:21:32Z</time>
      </trkpt>
      <trkpt lat="43.01443" lon="0.78352">
        <ele>554</ele>
        <time>2021-03-13T15:21:33Z</time>
      </trkpt>
      <trkpt lat="43.01445" lon="0.78353">
        <ele>553</ele>
        <time>2021-03-13T15:21:34Z</time>
      </trkpt>
      <trkpt lat="43.01448" lon="0.78354">
        <ele>552</ele>
        <time>2021-03-13T15:21:35Z</time>
      </trkpt>
      <trkpt lat="43.01456" lon="0.78358">
        <ele>552</ele>
        <time>2021-03-13T15:21:36Z</time>
      </trkpt>
      <trkpt lat="43.01458" lon="0.78359">
        <ele>551</ele>
        <time>2021-03-13T15:21:37Z</time>
      </trkpt>
      <trkpt lat="43.01459" lon="0.78361">
        <ele>550</ele>
        <time>2021-03-13T15:21:38Z</time>
      </trkpt>
      <trkpt lat="43.01467" lon="0.78366">
        <ele>549</ele>
        <time>2021-03-13T15:21:39Z</time>
      </trkpt>
      <trkpt lat="43.01469" lon="0.78368">
        <ele>548</ele>
        <time>2021-03-13T15:21:40Z</time>
      </trkpt>
      <trkpt lat="43.01471" lon="0.78369">
        <ele>547</ele>
        <time>2021-03-13T15:21:41Z</time>
      </trkpt>
      <trkpt lat="43.0148" lon="0.78376">
        <ele>546</ele>
        <time>2021-03-13T15:21:42Z</time>
      </trkpt>
      <trkpt lat="43.01483" lon="0.78378">
        <ele>544</ele>
        <time>2021-03-13T15:21:43Z</time>
      </trkpt>
      <trkpt lat="43.01491" lon="0.78385">
        <ele>543</ele>
        <time>2021-03-13T15:21:44Z</time>
      </trkpt>
      <trkpt lat="43.01494" lon="0.78388">
        <ele>543</ele>
        <time>2021-03-13T15:21:45Z</time>
      </trkpt>
      <trkpt lat="43.01503" lon="0.78396">
        <ele>543</ele>
        <time>2021-03-13T15:21:46Z</time>
      </trkpt>
      <trkpt lat="43.01505" lon="0.78398">
        <ele>542</ele>
        <time>2021-03-13T15:21:47Z</time>
      </trkpt>
      <trkpt lat="43.01514" lon="0.78404">
        <ele>541</ele>
        <time>2021-03-13T15:21:48Z</time>
      </trkpt>
      <trkpt lat="43.01517" lon="0.78406">
        <ele>540</ele>
        <time>2021-03-13T15:21:49Z</time>
      </trkpt>
      <trkpt lat="43.01525" lon="0.7841">
        <ele>539</ele>
        <time>2021-03-13T15:21:50Z</time>
      </trkpt>
      <trkpt lat="43.01528" lon="0.78411">
        <ele>538</ele>
        <time>2021-03-13T15:21:51Z</time>
      </trkpt>
      <trkpt lat="43.01534" lon="0.78415">
        <ele>538</ele>
        <time>2021-03-13T15:21:52Z</time>
      </trkpt>
      <trkpt lat="43.01536" lon="0.78416">
        <ele>537</ele>
        <time>2021-03-13T15:21:53Z</time>
      </trkpt>
      <trkpt lat="43.01538" lon="0.78418">
        <ele>536</ele>
        <time>2021-03-13T15:21:54Z</time>
      </trkpt>
      <trkpt lat="43.01543" lon="0.78422">
        <ele>535</ele>
        <time>2021-03-13T15:21:55Z</time>
      </trkpt>
      <trkpt lat="43.01543" lon="0.78422">
        <ele>535</ele>
        <time>2021-03-13T15:21:56Z</time>
      </trkpt>
      <trkpt lat="43.01544" lon="0.78422">
        <ele>534</ele>
        <time>2021-03-13T15:21:57Z</time>
      </trkpt>
      <trkpt lat="43.01544" lon="0.78423">
        <ele>534</ele>
        <time>2021-03-13T15:21:58Z</time>
      </trkpt>
      <trkpt lat="43.01544" lon="0.78423">
        <ele>534</ele>
        <time>2021-03-13T15:21:59Z</time>
      </trkpt>
      <trkpt lat="43.01544" lon="0.78423">
        <ele>534</ele>
        <time>2021-03-13T15:22:00Z</time>
      </trkpt>
      <trkpt lat="43.01544" lon="0.78424">
        <ele>534</ele>
        <time>2021-03-13T15:22:01Z</time>
      </trkpt>
      <trkpt lat="43.01544" lon="0.78424">
        <ele>534</ele>
        <time>2021-03-13T15:22:02Z</time>
      </trkpt>
      <trkpt lat="43.01544" lon="0.78424">
        <ele>534</ele>
        <time>2021-03-13T15:22:03Z</time>
      </trkpt>
      <trkpt lat="43.01544" lon="0.78424">
        <ele>534</ele>
        <time>2021-03-13T15:22:04Z</time>
      </trkpt>
      <trkpt lat="43.01545" lon="0.78425">
        <ele>534</ele>
        <time>2021-03-13T15:22:05Z</time>
      </trkpt>
      <trkpt lat="43.01545" lon="0.78425">
        <ele>534</ele>
        <time>2021-03-13T15:22:06Z</time>
      </trkpt>
      <trkpt lat="43.01545" lon="0.78425">
        <ele>534</ele>
        <time>2021-03-13T15:22:07Z</time>
      </trkpt>
      <trkpt lat="43.01545" lon="0.78426">
        <ele>534</ele>
        <time>2021-03-13T15:22:08Z</time>
      </trkpt>
      <trkpt lat="43.01545" lon="0.78426">
        <ele>534</ele>
        <time>2021-03-13T15:22:09Z</time>
      </trkpt>
      <trkpt lat="43.01545" lon="0.78426">
        <ele>534</ele>
        <time>2021-03-13T15:22:10Z</time>
      </trkpt>
      <trkpt lat="43.01545" lon="0.78426">
        <ele>534</ele>
        <time>2021-03-13T15:22:11Z</time>
      </trkpt>
      <trkpt lat="43.01545" lon="0.78427">
        <ele>534</ele>
        <time>2021-03-13T15:22:12Z</time>
      </trkpt>
      <trkpt lat="43.01546" lon="0.78427">
        <ele>534</ele>
        <time>2021-03-13T15:22:13Z</time>
      </trkpt>
      <trkpt lat="43.01546" lon="0.78427">
        <ele>534</ele>
        <time>2021-03-13T15:22:14Z</time>
      </trkpt>
      <trkpt lat="43.01546" lon="0.78428">
        <ele>534</ele>
        <time>2021-03-13T15:22:15Z</time>
      </trkpt>
      <trkpt lat="43.01552" lon="0.78436">
        <ele>534</ele>
        <time>2021-03-13T15:22:16Z</time>
      </trkpt>
      <trkpt lat="43.01556" lon="0.78438">
        <ele>534</ele>
        <time>2021-03-13T15:22:17Z</time>
      </trkpt>
      <trkpt lat="43.01561" lon="0.78441">
        <ele>534</ele>
        <time>2021-03-13T15:22:18Z</time>
      </trkpt>
      <trkpt lat="43.01565" lon="0.78443">
        <ele>534</ele>
        <time>2021-03-13T15:22:19Z</time>
      </trkpt>
      <trkpt lat="43.0157" lon="0.78445">
        <ele>532</ele>
        <time>2021-03-13T15:22:20Z</time>
      </trkpt>
      <trkpt lat="43.01574" lon="0.78447">
        <ele>532</ele>
        <time>2021-03-13T15:22:21Z</time>
      </trkpt>
      <trkpt lat="43.01578" lon="0.7845">
        <ele>532</ele>
        <time>2021-03-13T15:22:22Z</time>
      </trkpt>
      <trkpt lat="43.01583" lon="0.78453">
        <ele>532</ele>
        <time>2021-03-13T15:22:23Z</time>
      </trkpt>
      <trkpt lat="43.01585" lon="0.78455">
        <ele>532</ele>
        <time>2021-03-13T15:22:24Z</time>
      </trkpt>
      <trkpt lat="43.01587" lon="0.78456">
        <ele>532</ele>
        <time>2021-03-13T15:22:25Z</time>
      </trkpt>
      <trkpt lat="43.01589" lon="0.78458">
        <ele>532</ele>
        <time>2021-03-13T15:22:26Z</time>
      </trkpt>
      <trkpt lat="43.01597" lon="0.78462">
        <ele>532</ele>
        <time>2021-03-13T15:22:27Z</time>
      </trkpt>
      <trkpt lat="43.01599" lon="0.78462">
        <ele>532</ele>
        <time>2021-03-13T15:22:28Z</time>
      </trkpt>
      <trkpt lat="43.01601" lon="0.78462">
        <ele>532</ele>
        <time>2021-03-13T15:22:29Z</time>
      </trkpt>
      <trkpt lat="43.01606" lon="0.78461">
        <ele>525</ele>
        <time>2021-03-13T15:22:30Z</time>
      </trkpt>
      <trkpt lat="43.01606" lon="0.78459">
        <ele>521</ele>
        <time>2021-03-13T15:22:31Z</time>
      </trkpt>
      <trkpt lat="43.01605" lon="0.78458">
        <ele>521</ele>
        <time>2021-03-13T15:22:32Z</time>
      </trkpt>
      <trkpt lat="43.01605" lon="0.78456">
        <ele>521</ele>
        <time>2021-03-13T15:22:33Z</time>
      </trkpt>
      <trkpt lat="43.01604" lon="0.78454">
        <ele>520</ele>
        <time>2021-03-13T15:22:34Z</time>
      </trkpt>
      <trkpt lat="43.01602" lon="0.78443">
        <ele>519</ele>
        <time>2021-03-13T15:22:35Z</time>
      </trkpt>
      <trkpt lat="43.01601" lon="0.78439">
        <ele>517</ele>
        <time>2021-03-13T15:22:36Z</time>
      </trkpt>
      <trkpt lat="43.016" lon="0.78436">
        <ele>516</ele>
        <time>2021-03-13T15:22:37Z</time>
      </trkpt>
      <trkpt lat="43.01596" lon="0.78423">
        <ele>515</ele>
        <time>2021-03-13T15:22:38Z</time>
      </trkpt>
      <trkpt lat="43.01595" lon="0.78419">
        <ele>513</ele>
        <time>2021-03-13T15:22:39Z</time>
      </trkpt>
      <trkpt lat="43.0159" lon="0.78406">
        <ele>512</ele>
        <time>2021-03-13T15:22:40Z</time>
      </trkpt>
      <trkpt lat="43.01588" lon="0.78402">
        <ele>511</ele>
        <time>2021-03-13T15:22:41Z</time>
      </trkpt>
      <trkpt lat="43.01583" lon="0.78388">
        <ele>510</ele>
        <time>2021-03-13T15:22:42Z</time>
      </trkpt>
      <trkpt lat="43.01581" lon="0.78384">
        <ele>510</ele>
        <time>2021-03-13T15:22:43Z</time>
      </trkpt>
      <trkpt lat="43.01577" lon="0.78372">
        <ele>509</ele>
        <time>2021-03-13T15:22:44Z</time>
      </trkpt>
      <trkpt lat="43.01576" lon="0.78368">
        <ele>509</ele>
        <time>2021-03-13T15:22:45Z</time>
      </trkpt>
      <trkpt lat="43.01572" lon="0.78357">
        <ele>509</ele>
        <time>2021-03-13T15:22:46Z</time>
      </trkpt>
      <trkpt lat="43.0157" lon="0.78353">
        <ele>507</ele>
        <time>2021-03-13T15:22:47Z</time>
      </trkpt>
      <trkpt lat="43.01566" lon="0.78343">
        <ele>506</ele>
        <time>2021-03-13T15:22:48Z</time>
      </trkpt>
      <trkpt lat="43.01564" lon="0.7834">
        <ele>505</ele>
        <time>2021-03-13T15:22:49Z</time>
      </trkpt>
      <trkpt lat="43.01558" lon="0.78328">
        <ele>505</ele>
        <time>2021-03-13T15:22:50Z</time>
      </trkpt>
      <trkpt lat="43.01555" lon="0.78322">
        <ele>505</ele>
        <time>2021-03-13T15:22:51Z</time>
      </trkpt>
      <trkpt lat="43.01554" lon="0.78319">
        <ele>504</ele>
        <time>2021-03-13T15:22:52Z</time>
      </trkpt>
      <trkpt lat="43.01553" lon="0.78316">
        <ele>502</ele>
        <time>2021-03-13T15:22:53Z</time>
      </trkpt>
      <trkpt lat="43.01548" lon="0.78306">
        <ele>502</ele>
        <time>2021-03-13T15:22:54Z</time>
      </trkpt>
      <trkpt lat="43.01547" lon="0.78303">
        <ele>502</ele>
        <time>2021-03-13T15:22:55Z</time>
      </trkpt>
      <trkpt lat="43.01542" lon="0.78294">
        <ele>501</ele>
        <time>2021-03-13T15:22:56Z</time>
      </trkpt>
      <trkpt lat="43.01541" lon="0.78291">
        <ele>500</ele>
        <time>2021-03-13T15:22:57Z</time>
      </trkpt>
      <trkpt lat="43.0154" lon="0.78288">
        <ele>499</ele>
        <time>2021-03-13T15:22:58Z</time>
      </trkpt>
      <trkpt lat="43.01538" lon="0.78281">
        <ele>498</ele>
        <time>2021-03-13T15:22:59Z</time>
      </trkpt>
      <trkpt lat="43.01539" lon="0.78281">
        <ele>497</ele>
        <time>2021-03-13T15:23:00Z</time>
      </trkpt>
      <trkpt lat="43.0154" lon="0.78282">
        <ele>497</ele>
        <time>2021-03-13T15:23:01Z</time>
      </trkpt>
      <trkpt lat="43.01541" lon="0.78282">
        <ele>497</ele>
        <time>2021-03-13T15:23:02Z</time>
      </trkpt>
      <trkpt lat="43.01542" lon="0.78282">
        <ele>497</ele>
        <time>2021-03-13T15:23:03Z</time>
      </trkpt>
      <trkpt lat="43.01543" lon="0.78283">
        <ele>497</ele>
        <time>2021-03-13T15:23:04Z</time>
      </trkpt>
      <trkpt lat="43.01544" lon="0.78283">
        <ele>496</ele>
        <time>2021-03-13T15:23:05Z</time>
      </trkpt>
      <trkpt lat="43.01545" lon="0.78284">
        <ele>496</ele>
        <time>2021-03-13T15:23:06Z</time>
      </trkpt>
      <trkpt lat="43.01546" lon="0.78284">
        <ele>496</ele>
        <time>2021-03-13T15:23:07Z</time>
      </trkpt>
      <trkpt lat="43.01547" lon="0.78286">
        <ele>496</ele>
        <time>2021-03-13T15:23:08Z</time>
      </trkpt>
      <trkpt lat="43.01548" lon="0.78288">
        <ele>497</ele>
        <time>2021-03-13T15:23:09Z</time>
      </trkpt>
      <trkpt lat="43.01549" lon="0.7829">
        <ele>497</ele>
        <time>2021-03-13T15:23:10Z</time>
      </trkpt>
      <trkpt lat="43.01555" lon="0.78299">
        <ele>497</ele>
        <time>2021-03-13T15:23:11Z</time>
      </trkpt>
      <trkpt lat="43.01557" lon="0.78303">
        <ele>497</ele>
        <time>2021-03-13T15:23:12Z</time>
      </trkpt>
      <trkpt lat="43.01559" lon="0.78307">
        <ele>497</ele>
        <time>2021-03-13T15:23:13Z</time>
      </trkpt>
      <trkpt lat="43.0156" lon="0.78309">
        <ele>497</ele>
        <time>2021-03-13T15:23:14Z</time>
      </trkpt>
      <trkpt lat="43.01561" lon="0.78311">
        <ele>497</ele>
        <time>2021-03-13T15:23:15Z</time>
      </trkpt>
      <trkpt lat="43.01562" lon="0.78312">
        <ele>497</ele>
        <time>2021-03-13T15:23:16Z</time>
      </trkpt>
      <trkpt lat="43.01569" lon="0.7832">
        <ele>497</ele>
        <time>2021-03-13T15:23:17Z</time>
      </trkpt>
      <trkpt lat="43.01571" lon="0.78323">
        <ele>497</ele>
        <time>2021-03-13T15:23:18Z</time>
      </trkpt>
      <trkpt lat="43.01574" lon="0.78326">
        <ele>497</ele>
        <time>2021-03-13T15:23:19Z</time>
      </trkpt>
      <trkpt lat="43.01575" lon="0.78328">
        <ele>498</ele>
        <time>2021-03-13T15:23:20Z</time>
      </trkpt>
      <trkpt lat="43.01576" lon="0.78329">
        <ele>498</ele>
        <time>2021-03-13T15:23:21Z</time>
      </trkpt>
      <trkpt lat="43.01578" lon="0.78331">
        <ele>498</ele>
        <time>2021-03-13T15:23:22Z</time>
      </trkpt>
      <trkpt lat="43.01584" lon="0.78339">
        <ele>498</ele>
        <time>2021-03-13T15:23:23Z</time>
      </trkpt>
      <trkpt lat="43.01586" lon="0.78342">
        <ele>498</ele>
        <time>2021-03-13T15:23:24Z</time>
      </trkpt>
      <trkpt lat="43.01588" lon="0.78346">
        <ele>498</ele>
        <time>2021-03-13T15:23:25Z</time>
      </trkpt>
      <trkpt lat="43.0159" lon="0.78347">
        <ele>498</ele>
        <time>2021-03-13T15:23:26Z</time>
      </trkpt>
      <trkpt lat="43.01591" lon="0.78349">
        <ele>498</ele>
        <time>2021-03-13T15:23:27Z</time>
      </trkpt>
      <trkpt lat="43.01592" lon="0.78351">
        <ele>498</ele>
        <time>2021-03-13T15:23:28Z</time>
      </trkpt>
      <trkpt lat="43.01598" lon="0.78358">
        <ele>498</ele>
        <time>2021-03-13T15:23:29Z</time>
      </trkpt>
      <trkpt lat="43.016" lon="0.7836">
        <ele>498</ele>
        <time>2021-03-13T15:23:30Z</time>
      </trkpt>
      <trkpt lat="43.01601" lon="0.78362">
        <ele>498</ele>
        <time>2021-03-13T15:23:31Z</time>
      </trkpt>
      <trkpt lat="43.01609" lon="0.78372">
        <ele>498</ele>
        <time>2021-03-13T15:23:32Z</time>
      </trkpt>
      <trkpt lat="43.01611" lon="0.78374">
        <ele>498</ele>
        <time>2021-03-13T15:23:33Z</time>
      </trkpt>
      <trkpt lat="43.01617" lon="0.78385">
        <ele>498</ele>
        <time>2021-03-13T15:23:34Z</time>
      </trkpt>
      <trkpt lat="43.0162" lon="0.7839">
        <ele>498</ele>
        <time>2021-03-13T15:23:35Z</time>
      </trkpt>
      <trkpt lat="43.01623" lon="0.78395">
        <ele>498</ele>
        <time>2021-03-13T15:23:36Z</time>
      </trkpt>
      <trkpt lat="43.01626" lon="0.78401">
        <ele>498</ele>
        <time>2021-03-13T15:23:37Z</time>
      </trkpt>
      <trkpt lat="43.01629" lon="0.78406">
        <ele>498</ele>
        <time>2021-03-13T15:23:38Z</time>
      </trkpt>
      <trkpt lat="43.01631" lon="0.78411">
        <ele>498</ele>
        <time>2021-03-13T15:23:39Z</time>
      </trkpt>
      <trkpt lat="43.01635" lon="0.78417">
        <ele>497</ele>
        <time>2021-03-13T15:23:40Z</time>
      </trkpt>
      <trkpt lat="43.01638" lon="0.78422">
        <ele>497</ele>
        <time>2021-03-13T15:23:41Z</time>
      </trkpt>
      <trkpt lat="43.0164" lon="0.78424">
        <ele>497</ele>
        <time>2021-03-13T15:23:42Z</time>
      </trkpt>
      <trkpt lat="43.01642" lon="0.78426">
        <ele>497</ele>
        <time>2021-03-13T15:23:43Z</time>
      </trkpt>
      <trkpt lat="43.01644" lon="0.78428">
        <ele>497</ele>
        <time>2021-03-13T15:23:44Z</time>
      </trkpt>
      <trkpt lat="43.01651" lon="0.78437">
        <ele>497</ele>
        <time>2021-03-13T15:23:45Z</time>
      </trkpt>
      <trkpt lat="43.01653" lon="0.78439">
        <ele>497</ele>
        <time>2021-03-13T15:23:46Z</time>
      </trkpt>
      <trkpt lat="43.0166" lon="0.78448">
        <ele>497</ele>
        <time>2021-03-13T15:23:47Z</time>
      </trkpt>
      <trkpt lat="43.01663" lon="0.78453">
        <ele>497</ele>
        <time>2021-03-13T15:23:48Z</time>
      </trkpt>
      <trkpt lat="43.01667" lon="0.78457">
        <ele>497</ele>
        <time>2021-03-13T15:23:49Z</time>
      </trkpt>
      <trkpt lat="43.0167" lon="0.78462">
        <ele>496</ele>
        <time>2021-03-13T15:23:50Z</time>
      </trkpt>
      <trkpt lat="43.01673" lon="0.78467">
        <ele>496</ele>
        <time>2021-03-13T15:23:51Z</time>
      </trkpt>
      <trkpt lat="43.01676" lon="0.78471">
        <ele>496</ele>
        <time>2021-03-13T15:23:52Z</time>
      </trkpt>
      <trkpt lat="43.01678" lon="0.78474">
        <ele>496</ele>
        <time>2021-03-13T15:23:53Z</time>
      </trkpt>
      <trkpt lat="43.0168" lon="0.78476">
        <ele>496</ele>
        <time>2021-03-13T15:23:54Z</time>
      </trkpt>
      <trkpt lat="43.01682" lon="0.78479">
        <ele>496</ele>
        <time>2021-03-13T15:23:55Z</time>
      </trkpt>
      <trkpt lat="43.0169" lon="0.78491">
        <ele>496</ele>
        <time>2021-03-13T15:23:56Z</time>
      </trkpt>
      <trkpt lat="43.01694" lon="0.78496">
        <ele>496</ele>
        <time>2021-03-13T15:23:57Z</time>
      </trkpt>
      <trkpt lat="43.01697" lon="0.78502">
        <ele>496</ele>
        <time>2021-03-13T15:23:58Z</time>
      </trkpt>
      <trkpt lat="43.017" lon="0.78507">
        <ele>496</ele>
        <time>2021-03-13T15:23:59Z</time>
      </trkpt>
      <trkpt lat="43.01702" lon="0.7851">
        <ele>496</ele>
        <time>2021-03-13T15:24:00Z</time>
      </trkpt>
      <trkpt lat="43.01703" lon="0.78513">
        <ele>496</ele>
        <time>2021-03-13T15:24:01Z</time>
      </trkpt>
      <trkpt lat="43.0171" lon="0.78523">
        <ele>496</ele>
        <time>2021-03-13T15:24:02Z</time>
      </trkpt>
      <trkpt lat="43.01713" lon="0.78529">
        <ele>496</ele>
        <time>2021-03-13T15:24:03Z</time>
      </trkpt>
      <trkpt lat="43.01715" lon="0.78531">
        <ele>496</ele>
        <time>2021-03-13T15:24:04Z</time>
      </trkpt>
      <trkpt lat="43.01716" lon="0.78534">
        <ele>496</ele>
        <time>2021-03-13T15:24:05Z</time>
      </trkpt>
      <trkpt lat="43.01723" lon="0.78544">
        <ele>496</ele>
        <time>2021-03-13T15:24:06Z</time>
      </trkpt>
      <trkpt lat="43.01727" lon="0.78549">
        <ele>496</ele>
        <time>2021-03-13T15:24:07Z</time>
      </trkpt>
      <trkpt lat="43.0173" lon="0.78554">
        <ele>496</ele>
        <time>2021-03-13T15:24:08Z</time>
      </trkpt>
      <trkpt lat="43.01733" lon="0.7856">
        <ele>496</ele>
        <time>2021-03-13T15:24:09Z</time>
      </trkpt>
      <trkpt lat="43.01734" lon="0.78563">
        <ele>496</ele>
        <time>2021-03-13T15:24:10Z</time>
      </trkpt>
      <trkpt lat="43.01735" lon="0.78565">
        <ele>496</ele>
        <time>2021-03-13T15:24:11Z</time>
      </trkpt>
      <trkpt lat="43.01737" lon="0.78568">
        <ele>496</ele>
        <time>2021-03-13T15:24:12Z</time>
      </trkpt>
      <trkpt lat="43.01743" lon="0.78582">
        <ele>496</ele>
        <time>2021-03-13T15:24:13Z</time>
      </trkpt>
      <trkpt lat="43.01745" lon="0.78587">
        <ele>496</ele>
        <time>2021-03-13T15:24:14Z</time>
      </trkpt>
      <trkpt lat="43.01746" lon="0.78594">
        <ele>496</ele>
        <time>2021-03-13T15:24:15Z</time>
      </trkpt>
      <trkpt lat="43.01748" lon="0.78601">
        <ele>496</ele>
        <time>2021-03-13T15:24:16Z</time>
      </trkpt>
      <trkpt lat="43.01747" lon="0.78605">
        <ele>496</ele>
        <time>2021-03-13T15:24:17Z</time>
      </trkpt>
      <trkpt lat="43.01747" lon="0.78609">
        <ele>496</ele>
        <time>2021-03-13T15:24:18Z</time>
      </trkpt>
      <trkpt lat="43.01746" lon="0.78621">
        <ele>496</ele>
        <time>2021-03-13T15:24:19Z</time>
      </trkpt>
      <trkpt lat="43.01745" lon="0.78625">
        <ele>494</ele>
        <time>2021-03-13T15:24:20Z</time>
      </trkpt>
      <trkpt lat="43.01743" lon="0.78636">
        <ele>494</ele>
        <time>2021-03-13T15:24:21Z</time>
      </trkpt>
      <trkpt lat="43.01743" lon="0.7864">
        <ele>494</ele>
        <time>2021-03-13T15:24:22Z</time>
      </trkpt>
      <trkpt lat="43.01744" lon="0.78652">
        <ele>494</ele>
        <time>2021-03-13T15:24:23Z</time>
      </trkpt>
      <trkpt lat="43.01745" lon="0.78656">
        <ele>494</ele>
        <time>2021-03-13T15:24:24Z</time>
      </trkpt>
      <trkpt lat="43.01747" lon="0.78669">
        <ele>493</ele>
        <time>2021-03-13T15:24:25Z</time>
      </trkpt>
      <trkpt lat="43.01748" lon="0.78675">
        <ele>493</ele>
        <time>2021-03-13T15:24:26Z</time>
      </trkpt>
      <trkpt lat="43.01749" lon="0.78682">
        <ele>493</ele>
        <time>2021-03-13T15:24:27Z</time>
      </trkpt>
      <trkpt lat="43.01751" lon="0.78688">
        <ele>493</ele>
        <time>2021-03-13T15:24:28Z</time>
      </trkpt>
      <trkpt lat="43.01751" lon="0.78691">
        <ele>493</ele>
        <time>2021-03-13T15:24:29Z</time>
      </trkpt>
      <trkpt lat="43.01752" lon="0.78693">
        <ele>495</ele>
        <time>2021-03-13T15:24:30Z</time>
      </trkpt>
      <trkpt lat="43.01753" lon="0.78696">
        <ele>495</ele>
        <time>2021-03-13T15:24:31Z</time>
      </trkpt>
      <trkpt lat="43.01755" lon="0.78707">
        <ele>495</ele>
        <time>2021-03-13T15:24:32Z</time>
      </trkpt>
      <trkpt lat="43.01756" lon="0.7871">
        <ele>495</ele>
        <time>2021-03-13T15:24:33Z</time>
      </trkpt>
      <trkpt lat="43.01756" lon="0.78713">
        <ele>495</ele>
        <time>2021-03-13T15:24:34Z</time>
      </trkpt>
      <trkpt lat="43.01758" lon="0.78727">
        <ele>495</ele>
        <time>2021-03-13T15:24:35Z</time>
      </trkpt>
      <trkpt lat="43.01759" lon="0.78731">
        <ele>495</ele>
        <time>2021-03-13T15:24:36Z</time>
      </trkpt>
      <trkpt lat="43.0176" lon="0.78736">
        <ele>495</ele>
        <time>2021-03-13T15:24:37Z</time>
      </trkpt>
      <trkpt lat="43.0176" lon="0.78738">
        <ele>495</ele>
        <time>2021-03-13T15:24:38Z</time>
      </trkpt>
      <trkpt lat="43.0176" lon="0.78741">
        <ele>495</ele>
        <time>2021-03-13T15:24:39Z</time>
      </trkpt>
      <trkpt lat="43.01761" lon="0.78743">
        <ele>495</ele>
        <time>2021-03-13T15:24:40Z</time>
      </trkpt>
      <trkpt lat="43.01761" lon="0.78746">
        <ele>495</ele>
        <time>2021-03-13T15:24:41Z</time>
      </trkpt>
      <trkpt lat="43.01762" lon="0.78749">
        <ele>495</ele>
        <time>2021-03-13T15:24:42Z</time>
      </trkpt>
      <trkpt lat="43.01762" lon="0.7875">
        <ele>495</ele>
        <time>2021-03-13T15:24:43Z</time>
      </trkpt>
      <trkpt lat="43.01762" lon="0.78752">
        <ele>495</ele>
        <time>2021-03-13T15:24:44Z</time>
      </trkpt>
      <trkpt lat="43.01762" lon="0.78753">
        <ele>495</ele>
        <time>2021-03-13T15:24:45Z</time>
      </trkpt>
      <trkpt lat="43.01762" lon="0.78755">
        <ele>495</ele>
        <time>2021-03-13T15:24:46Z</time>
      </trkpt>
      <trkpt lat="43.01762" lon="0.78757">
        <ele>495</ele>
        <time>2021-03-13T15:24:47Z</time>
      </trkpt>
      <trkpt lat="43.01762" lon="0.78758">
        <ele>495</ele>
        <time>2021-03-13T15:24:48Z</time>
      </trkpt>
      <trkpt lat="43.01762" lon="0.7876">
        <ele>495</ele>
        <time>2021-03-13T15:24:49Z</time>
      </trkpt>
      <trkpt lat="43.01762" lon="0.78762">
        <ele>496</ele>
        <time>2021-03-13T15:24:50Z</time>
      </trkpt>
      <trkpt lat="43.01762" lon="0.78764">
        <ele>496</ele>
        <time>2021-03-13T15:24:51Z</time>
      </trkpt>
      <trkpt lat="43.01762" lon="0.78766">
        <ele>496</ele>
        <time>2021-03-13T15:24:52Z</time>
      </trkpt>
      <trkpt lat="43.01762" lon="0.78768">
        <ele>496</ele>
        <time>2021-03-13T15:24:53Z</time>
      </trkpt>
      <trkpt lat="43.01762" lon="0.7877">
        <ele>496</ele>
        <time>2021-03-13T15:24:54Z</time>
      </trkpt>
      <trkpt lat="43.01763" lon="0.78781">
        <ele>496</ele>
        <time>2021-03-13T15:24:55Z</time>
      </trkpt>
      <trkpt lat="43.01763" lon="0.78784">
        <ele>496</ele>
        <time>2021-03-13T15:24:56Z</time>
      </trkpt>
      <trkpt lat="43.01764" lon="0.78786">
        <ele>496</ele>
        <time>2021-03-13T15:24:57Z</time>
      </trkpt>
      <trkpt lat="43.01767" lon="0.78801">
        <ele>496</ele>
        <time>2021-03-13T15:24:58Z</time>
      </trkpt>
      <trkpt lat="43.01768" lon="0.78808">
        <ele>496</ele>
        <time>2021-03-13T15:24:59Z</time>
      </trkpt>
      <trkpt lat="43.01769" lon="0.78812">
        <ele>494</ele>
        <time>2021-03-13T15:25:00Z</time>
      </trkpt>
      <trkpt lat="43.0177" lon="0.78816">
        <ele>494</ele>
        <time>2021-03-13T15:25:01Z</time>
      </trkpt>
      <trkpt lat="43.01772" lon="0.78827">
        <ele>494</ele>
        <time>2021-03-13T15:25:02Z</time>
      </trkpt>
      <trkpt lat="43.01773" lon="0.7883">
        <ele>494</ele>
        <time>2021-03-13T15:25:03Z</time>
      </trkpt>
      <trkpt lat="43.01776" lon="0.78841">
        <ele>494</ele>
        <time>2021-03-13T15:25:04Z</time>
      </trkpt>
      <trkpt lat="43.01778" lon="0.78845">
        <ele>493</ele>
        <time>2021-03-13T15:25:05Z</time>
      </trkpt>
      <trkpt lat="43.01781" lon="0.78856">
        <ele>493</ele>
        <time>2021-03-13T15:25:06Z</time>
      </trkpt>
      <trkpt lat="43.01782" lon="0.78859">
        <ele>493</ele>
        <time>2021-03-13T15:25:07Z</time>
      </trkpt>
      <trkpt lat="43.01785" lon="0.78871">
        <ele>493</ele>
        <time>2021-03-13T15:25:08Z</time>
      </trkpt>
      <trkpt lat="43.01786" lon="0.78874">
        <ele>493</ele>
        <time>2021-03-13T15:25:09Z</time>
      </trkpt>
      <trkpt lat="43.01789" lon="0.78892">
        <ele>491</ele>
        <time>2021-03-13T15:25:10Z</time>
      </trkpt>
      <trkpt lat="43.01791" lon="0.78902">
        <ele>491</ele>
        <time>2021-03-13T15:25:11Z</time>
      </trkpt>
      <trkpt lat="43.01793" lon="0.78912">
        <ele>491</ele>
        <time>2021-03-13T15:25:12Z</time>
      </trkpt>
      <trkpt lat="43.01796" lon="0.78925">
        <ele>491</ele>
        <time>2021-03-13T15:25:13Z</time>
      </trkpt>
      <trkpt lat="43.01796" lon="0.7893">
        <ele>491</ele>
        <time>2021-03-13T15:25:14Z</time>
      </trkpt>
      <trkpt lat="43.01798" lon="0.78943">
        <ele>490</ele>
        <time>2021-03-13T15:25:15Z</time>
      </trkpt>
      <trkpt lat="43.01798" lon="0.78947">
        <ele>490</ele>
        <time>2021-03-13T15:25:16Z</time>
      </trkpt>
      <trkpt lat="43.018" lon="0.7896">
        <ele>490</ele>
        <time>2021-03-13T15:25:17Z</time>
      </trkpt>
      <trkpt lat="43.018" lon="0.78964">
        <ele>490</ele>
        <time>2021-03-13T15:25:18Z</time>
      </trkpt>
      <trkpt lat="43.01801" lon="0.78977">
        <ele>490</ele>
        <time>2021-03-13T15:25:19Z</time>
      </trkpt>
      <trkpt lat="43.01801" lon="0.78981">
        <ele>488</ele>
        <time>2021-03-13T15:25:20Z</time>
      </trkpt>
      <trkpt lat="43.01801" lon="0.78988">
        <ele>488</ele>
        <time>2021-03-13T15:25:21Z</time>
      </trkpt>
      <trkpt lat="43.01801" lon="0.78988">
        <ele>488</ele>
        <time>2021-03-13T15:25:22Z</time>
      </trkpt>
      <trkpt lat="43.018" lon="0.78995">
        <ele>488</ele>
        <time>2021-03-13T15:25:23Z</time>
      </trkpt>
      <trkpt lat="43.01799" lon="0.79002">
        <ele>488</ele>
        <time>2021-03-13T15:25:24Z</time>
      </trkpt>
      <trkpt lat="43.01797" lon="0.7901">
        <ele>485</ele>
        <time>2021-03-13T15:25:25Z</time>
      </trkpt>
      <trkpt lat="43.01794" lon="0.79019">
        <ele>485</ele>
        <time>2021-03-13T15:25:26Z</time>
      </trkpt>
      <trkpt lat="43.01792" lon="0.79023">
        <ele>485</ele>
        <time>2021-03-13T15:25:27Z</time>
      </trkpt>
      <trkpt lat="43.01787" lon="0.79034">
        <ele>485</ele>
        <time>2021-03-13T15:25:28Z</time>
      </trkpt>
      <trkpt lat="43.01784" lon="0.79037">
        <ele>485</ele>
        <time>2021-03-13T15:25:29Z</time>
      </trkpt>
      <trkpt lat="43.01778" lon="0.79048">
        <ele>484</ele>
        <time>2021-03-13T15:25:30Z</time>
      </trkpt>
      <trkpt lat="43.01777" lon="0.79051">
        <ele>484</ele>
        <time>2021-03-13T15:25:31Z</time>
      </trkpt>
      <trkpt lat="43.01772" lon="0.79062">
        <ele>484</ele>
        <time>2021-03-13T15:25:32Z</time>
      </trkpt>
      <trkpt lat="43.0177" lon="0.79066">
        <ele>484</ele>
        <time>2021-03-13T15:25:33Z</time>
      </trkpt>
      <trkpt lat="43.01767" lon="0.79077">
        <ele>484</ele>
        <time>2021-03-13T15:25:34Z</time>
      </trkpt>
      <trkpt lat="43.01766" lon="0.79081">
        <ele>481</ele>
        <time>2021-03-13T15:25:35Z</time>
      </trkpt>
      <trkpt lat="43.01765" lon="0.79089">
        <ele>481</ele>
        <time>2021-03-13T15:25:36Z</time>
      </trkpt>
      <trkpt lat="43.01765" lon="0.79089">
        <ele>481</ele>
        <time>2021-03-13T15:25:37Z</time>
      </trkpt>
      <trkpt lat="43.01765" lon="0.79094">
        <ele>481</ele>
        <time>2021-03-13T15:25:38Z</time>
      </trkpt>
      <trkpt lat="43.01765" lon="0.79099">
        <ele>481</ele>
        <time>2021-03-13T15:25:39Z</time>
      </trkpt>
      <trkpt lat="43.01766" lon="0.79104">
        <ele>479</ele>
        <time>2021-03-13T15:25:40Z</time>
      </trkpt>
      <trkpt lat="43.01765" lon="0.79111">
        <ele>479</ele>
        <time>2021-03-13T15:25:41Z</time>
      </trkpt>
      <trkpt lat="43.01764" lon="0.79117">
        <ele>479</ele>
        <time>2021-03-13T15:25:42Z</time>
      </trkpt>
      <trkpt lat="43.01764" lon="0.79123">
        <ele>479</ele>
        <time>2021-03-13T15:25:43Z</time>
      </trkpt>
      <trkpt lat="43.01763" lon="0.7913">
        <ele>479</ele>
        <time>2021-03-13T15:25:44Z</time>
      </trkpt>
      <trkpt lat="43.01761" lon="0.79136">
        <ele>478</ele>
        <time>2021-03-13T15:25:45Z</time>
      </trkpt>
      <trkpt lat="43.01761" lon="0.79136">
        <ele>478</ele>
        <time>2021-03-13T15:25:46Z</time>
      </trkpt>
      <trkpt lat="43.01758" lon="0.79154">
        <ele>478</ele>
        <time>2021-03-13T15:25:47Z</time>
      </trkpt>
      <trkpt lat="43.01757" lon="0.79158">
        <ele>478</ele>
        <time>2021-03-13T15:25:48Z</time>
      </trkpt>
      <trkpt lat="43.01754" lon="0.79169">
        <ele>478</ele>
        <time>2021-03-13T15:25:49Z</time>
      </trkpt>
      <trkpt lat="43.01753" lon="0.79172">
        <ele>475</ele>
        <time>2021-03-13T15:25:50Z</time>
      </trkpt>
      <trkpt lat="43.0175" lon="0.79184">
        <ele>475</ele>
        <time>2021-03-13T15:25:51Z</time>
      </trkpt>
      <trkpt lat="43.01749" lon="0.79188">
        <ele>475</ele>
        <time>2021-03-13T15:25:52Z</time>
      </trkpt>
      <trkpt lat="43.01746" lon="0.792">
        <ele>475</ele>
        <time>2021-03-13T15:25:53Z</time>
      </trkpt>
      <trkpt lat="43.01744" lon="0.79204">
        <ele>475</ele>
        <time>2021-03-13T15:25:54Z</time>
      </trkpt>
      <trkpt lat="43.0174" lon="0.79217">
        <ele>473</ele>
        <time>2021-03-13T15:25:55Z</time>
      </trkpt>
      <trkpt lat="43.01739" lon="0.79221">
        <ele>473</ele>
        <time>2021-03-13T15:25:56Z</time>
      </trkpt>
      <trkpt lat="43.01735" lon="0.79234">
        <ele>473</ele>
        <time>2021-03-13T15:25:57Z</time>
      </trkpt>
      <trkpt lat="43.01734" lon="0.79238">
        <ele>473</ele>
        <time>2021-03-13T15:25:58Z</time>
      </trkpt>
      <trkpt lat="43.0173" lon="0.79249">
        <ele>473</ele>
        <time>2021-03-13T15:25:59Z</time>
      </trkpt>
      <trkpt lat="43.0173" lon="0.79252">
        <ele>469</ele>
        <time>2021-03-13T15:26:00Z</time>
      </trkpt>
      <trkpt lat="43.01728" lon="0.79262">
        <ele>469</ele>
        <time>2021-03-13T15:26:01Z</time>
      </trkpt>
      <trkpt lat="43.01727" lon="0.79266">
        <ele>469</ele>
        <time>2021-03-13T15:26:02Z</time>
      </trkpt>
      <trkpt lat="43.01726" lon="0.79272">
        <ele>468</ele>
        <time>2021-03-13T15:26:03Z</time>
      </trkpt>
      <trkpt lat="43.01726" lon="0.79272">
        <ele>468</ele>
        <time>2021-03-13T15:26:04Z</time>
      </trkpt>
      <trkpt lat="43.01726" lon="0.79279">
        <ele>468</ele>
        <time>2021-03-13T15:26:05Z</time>
      </trkpt>
      <trkpt lat="43.01726" lon="0.79285">
        <ele>467</ele>
        <time>2021-03-13T15:26:06Z</time>
      </trkpt>
      <trkpt lat="43.01725" lon="0.79291">
        <ele>465</ele>
        <time>2021-03-13T15:26:07Z</time>
      </trkpt>
      <trkpt lat="43.01726" lon="0.79301">
        <ele>464</ele>
        <time>2021-03-13T15:26:08Z</time>
      </trkpt>
      <trkpt lat="43.01726" lon="0.7931">
        <ele>464</ele>
        <time>2021-03-13T15:26:09Z</time>
      </trkpt>
      <trkpt lat="43.01726" lon="0.7932">
        <ele>464</ele>
        <time>2021-03-13T15:26:10Z</time>
      </trkpt>
      <trkpt lat="43.01729" lon="0.79333">
        <ele>464</ele>
        <time>2021-03-13T15:26:11Z</time>
      </trkpt>
      <trkpt lat="43.0173" lon="0.79338">
        <ele>464</ele>
        <time>2021-03-13T15:26:12Z</time>
      </trkpt>
      <trkpt lat="43.01734" lon="0.7935">
        <ele>463</ele>
        <time>2021-03-13T15:26:13Z</time>
      </trkpt>
      <trkpt lat="43.01736" lon="0.79353">
        <ele>462</ele>
        <time>2021-03-13T15:26:14Z</time>
      </trkpt>
      <trkpt lat="43.01742" lon="0.79362">
        <ele>461</ele>
        <time>2021-03-13T15:26:15Z</time>
      </trkpt>
      <trkpt lat="43.01745" lon="0.79364">
        <ele>461</ele>
        <time>2021-03-13T15:26:16Z</time>
      </trkpt>
      <trkpt lat="43.01753" lon="0.79371">
        <ele>460</ele>
        <time>2021-03-13T15:26:17Z</time>
      </trkpt>
      <trkpt lat="43.01755" lon="0.79374">
        <ele>460</ele>
        <time>2021-03-13T15:26:18Z</time>
      </trkpt>
      <trkpt lat="43.01761" lon="0.79378">
        <ele>460</ele>
        <time>2021-03-13T15:26:19Z</time>
      </trkpt>
      <trkpt lat="43.01767" lon="0.79383">
        <ele>460</ele>
        <time>2021-03-13T15:26:20Z</time>
      </trkpt>
      <trkpt lat="43.01772" lon="0.79388">
        <ele>460</ele>
        <time>2021-03-13T15:26:21Z</time>
      </trkpt>
      <trkpt lat="43.01772" lon="0.79388">
        <ele>460</ele>
        <time>2021-03-13T15:26:22Z</time>
      </trkpt>
      <trkpt lat="43.01787" lon="0.79397">
        <ele>460</ele>
        <time>2021-03-13T15:26:23Z</time>
      </trkpt>
      <trkpt lat="43.0179" lon="0.79399">
        <ele>460</ele>
        <time>2021-03-13T15:26:24Z</time>
      </trkpt>
      <trkpt lat="43.01798" lon="0.79404">
        <ele>459</ele>
        <time>2021-03-13T15:26:25Z</time>
      </trkpt>
      <trkpt lat="43.01801" lon="0.79407">
        <ele>459</ele>
        <time>2021-03-13T15:26:26Z</time>
      </trkpt>
      <trkpt lat="43.01809" lon="0.79413">
        <ele>459</ele>
        <time>2021-03-13T15:26:27Z</time>
      </trkpt>
      <trkpt lat="43.01813" lon="0.79415">
        <ele>459</ele>
        <time>2021-03-13T15:26:28Z</time>
      </trkpt>
      <trkpt lat="43.01822" lon="0.79422">
        <ele>459</ele>
        <time>2021-03-13T15:26:29Z</time>
      </trkpt>
      <trkpt lat="43.01825" lon="0.79424">
        <ele>457</ele>
        <time>2021-03-13T15:26:30Z</time>
      </trkpt>
      <trkpt lat="43.01834" lon="0.7943">
        <ele>457</ele>
        <time>2021-03-13T15:26:31Z</time>
      </trkpt>
      <trkpt lat="43.01836" lon="0.79433">
        <ele>457</ele>
        <time>2021-03-13T15:26:32Z</time>
      </trkpt>
      <trkpt lat="43.01844" lon="0.79438">
        <ele>457</ele>
        <time>2021-03-13T15:26:33Z</time>
      </trkpt>
      <trkpt lat="43.01847" lon="0.7944">
        <ele>457</ele>
        <time>2021-03-13T15:26:34Z</time>
      </trkpt>
      <trkpt lat="43.01854" lon="0.79445">
        <ele>454</ele>
        <time>2021-03-13T15:26:35Z</time>
      </trkpt>
      <trkpt lat="43.01856" lon="0.79447">
        <ele>454</ele>
        <time>2021-03-13T15:26:36Z</time>
      </trkpt>
      <trkpt lat="43.01861" lon="0.79451">
        <ele>454</ele>
        <time>2021-03-13T15:26:37Z</time>
      </trkpt>
      <trkpt lat="43.01861" lon="0.79451">
        <ele>454</ele>
        <time>2021-03-13T15:26:38Z</time>
      </trkpt>
      <trkpt lat="43.01868" lon="0.79466">
        <ele>454</ele>
        <time>2021-03-13T15:26:39Z</time>
      </trkpt>
      <trkpt lat="43.0187" lon="0.79469">
        <ele>453</ele>
        <time>2021-03-13T15:26:40Z</time>
      </trkpt>
      <trkpt lat="43.01873" lon="0.7948">
        <ele>453</ele>
        <time>2021-03-13T15:26:41Z</time>
      </trkpt>
      <trkpt lat="43.01875" lon="0.79483">
        <ele>453</ele>
        <time>2021-03-13T15:26:42Z</time>
      </trkpt>
      <trkpt lat="43.01879" lon="0.79494">
        <ele>453</ele>
        <time>2021-03-13T15:26:43Z</time>
      </trkpt>
      <trkpt lat="43.0188" lon="0.79497">
        <ele>453</ele>
        <time>2021-03-13T15:26:44Z</time>
      </trkpt>
      <trkpt lat="43.01884" lon="0.79508">
        <ele>452</ele>
        <time>2021-03-13T15:26:45Z</time>
      </trkpt>
      <trkpt lat="43.01886" lon="0.79512">
        <ele>452</ele>
        <time>2021-03-13T15:26:46Z</time>
      </trkpt>
      <trkpt lat="43.01889" lon="0.79524">
        <ele>452</ele>
        <time>2021-03-13T15:26:47Z</time>
      </trkpt>
      <trkpt lat="43.01889" lon="0.79529">
        <ele>452</ele>
        <time>2021-03-13T15:26:48Z</time>
      </trkpt>
      <trkpt lat="43.0189" lon="0.79538">
        <ele>452</ele>
        <time>2021-03-13T15:26:49Z</time>
      </trkpt>
      <trkpt lat="43.01889" lon="0.79548">
        <ele>451</ele>
        <time>2021-03-13T15:26:50Z</time>
      </trkpt>
      <trkpt lat="43.01887" lon="0.79558">
        <ele>451</ele>
        <time>2021-03-13T15:26:51Z</time>
      </trkpt>
      <trkpt lat="43.01883" lon="0.79568">
        <ele>451</ele>
        <time>2021-03-13T15:26:52Z</time>
      </trkpt>
      <trkpt lat="43.01878" lon="0.79578">
        <ele>451</ele>
        <time>2021-03-13T15:26:53Z</time>
      </trkpt>
      <trkpt lat="43.01873" lon="0.79588">
        <ele>451</ele>
        <time>2021-03-13T15:26:54Z</time>
      </trkpt>
      <trkpt lat="43.01867" lon="0.79598">
        <ele>451</ele>
        <time>2021-03-13T15:26:55Z</time>
      </trkpt>
      <trkpt lat="43.01861" lon="0.79608">
        <ele>451</ele>
        <time>2021-03-13T15:26:56Z</time>
      </trkpt>
      <trkpt lat="43.01855" lon="0.79617">
        <ele>451</ele>
        <time>2021-03-13T15:26:57Z</time>
      </trkpt>
      <trkpt lat="43.01847" lon="0.79625">
        <ele>451</ele>
        <time>2021-03-13T15:26:58Z</time>
      </trkpt>
      <trkpt lat="43.0184" lon="0.79633">
        <ele>451</ele>
        <time>2021-03-13T15:26:59Z</time>
      </trkpt>
      <trkpt lat="43.01832" lon="0.79641">
        <ele>443</ele>
        <time>2021-03-13T15:27:00Z</time>
      </trkpt>
      <trkpt lat="43.01822" lon="0.79648">
        <ele>443</ele>
        <time>2021-03-13T15:27:01Z</time>
      </trkpt>
      <trkpt lat="43.01813" lon="0.79656">
        <ele>442</ele>
        <time>2021-03-13T15:27:02Z</time>
      </trkpt>
      <trkpt lat="43.01803" lon="0.79663">
        <ele>441</ele>
        <time>2021-03-13T15:27:03Z</time>
      </trkpt>
      <trkpt lat="43.01793" lon="0.7967">
        <ele>441</ele>
        <time>2021-03-13T15:27:04Z</time>
      </trkpt>
      <trkpt lat="43.01782" lon="0.79678">
        <ele>439</ele>
        <time>2021-03-13T15:27:05Z</time>
      </trkpt>
      <trkpt lat="43.01772" lon="0.79685">
        <ele>438</ele>
        <time>2021-03-13T15:27:06Z</time>
      </trkpt>
      <trkpt lat="43.01762" lon="0.79693">
        <ele>436</ele>
        <time>2021-03-13T15:27:07Z</time>
      </trkpt>
      <trkpt lat="43.01751" lon="0.79699">
        <ele>435</ele>
        <time>2021-03-13T15:27:08Z</time>
      </trkpt>
      <trkpt lat="43.01742" lon="0.79705">
        <ele>434</ele>
        <time>2021-03-13T15:27:09Z</time>
      </trkpt>
      <trkpt lat="43.01733" lon="0.79709">
        <ele>433</ele>
        <time>2021-03-13T15:27:10Z</time>
      </trkpt>
      <trkpt lat="43.01733" lon="0.79709">
        <ele>433</ele>
        <time>2021-03-13T15:27:11Z</time>
      </trkpt>
      <trkpt lat="43.01719" lon="0.79725">
        <ele>433</ele>
        <time>2021-03-13T15:27:12Z</time>
      </trkpt>
      <trkpt lat="43.01718" lon="0.79729">
        <ele>432</ele>
        <time>2021-03-13T15:27:13Z</time>
      </trkpt>
      <trkpt lat="43.01716" lon="0.79742">
        <ele>432</ele>
        <time>2021-03-13T15:27:14Z</time>
      </trkpt>
      <trkpt lat="43.01715" lon="0.79746">
        <ele>432</ele>
        <time>2021-03-13T15:27:15Z</time>
      </trkpt>
      <trkpt lat="43.01712" lon="0.79756">
        <ele>432</ele>
        <time>2021-03-13T15:27:16Z</time>
      </trkpt>
      <trkpt lat="43.01711" lon="0.79758">
        <ele>432</ele>
        <time>2021-03-13T15:27:17Z</time>
      </trkpt>
      <trkpt lat="43.01708" lon="0.79763">
        <ele>432</ele>
        <time>2021-03-13T15:27:18Z</time>
      </trkpt>
      <trkpt lat="43.01708" lon="0.79763">
        <ele>432</ele>
        <time>2021-03-13T15:27:19Z</time>
      </trkpt>
      <trkpt lat="43.01702" lon="0.79769">
        <ele>431</ele>
        <time>2021-03-13T15:27:20Z</time>
      </trkpt>
      <trkpt lat="43.01702" lon="0.79769">
        <ele>431</ele>
        <time>2021-03-13T15:27:21Z</time>
      </trkpt>
      <trkpt lat="43.01695" lon="0.79769">
        <ele>431</ele>
        <time>2021-03-13T15:27:22Z</time>
      </trkpt>
      <trkpt lat="43.01695" lon="0.79769">
        <ele>431</ele>
        <time>2021-03-13T15:27:23Z</time>
      </trkpt>
      <trkpt lat="43.01687" lon="0.7977">
        <ele>431</ele>
        <time>2021-03-13T15:27:24Z</time>
      </trkpt>
      <trkpt lat="43.01687" lon="0.7977">
        <ele>431</ele>
        <time>2021-03-13T15:27:25Z</time>
      </trkpt>
      <trkpt lat="43.01681" lon="0.79774">
        <ele>431</ele>
        <time>2021-03-13T15:27:26Z</time>
      </trkpt>
      <trkpt lat="43.01681" lon="0.79774">
        <ele>431</ele>
        <time>2021-03-13T15:27:27Z</time>
      </trkpt>
      <trkpt lat="43.01679" lon="0.79776">
        <ele>431</ele>
        <time>2021-03-13T15:27:28Z</time>
      </trkpt>
      <trkpt lat="43.01676" lon="0.79778">
        <ele>431</ele>
        <time>2021-03-13T15:27:29Z</time>
      </trkpt>
      <trkpt lat="43.01677" lon="0.79777">
        <ele>431</ele>
        <time>2021-03-13T15:27:30Z</time>
      </trkpt>
      <trkpt lat="43.01678" lon="0.79777">
        <ele>431</ele>
        <time>2021-03-13T15:27:31Z</time>
      </trkpt>
      <trkpt lat="43.01679" lon="0.79776">
        <ele>431</ele>
        <time>2021-03-13T15:27:32Z</time>
      </trkpt>
      <trkpt lat="43.0168" lon="0.79775">
        <ele>431</ele>
        <time>2021-03-13T15:27:33Z</time>
      </trkpt>
      <trkpt lat="43.01681" lon="0.79774">
        <ele>431</ele>
        <time>2021-03-13T15:27:34Z</time>
      </trkpt>
      <trkpt lat="43.01682" lon="0.79773">
        <ele>431</ele>
        <time>2021-03-13T15:27:35Z</time>
      </trkpt>
      <trkpt lat="43.01686" lon="0.7977">
        <ele>431</ele>
        <time>2021-03-13T15:27:36Z</time>
      </trkpt>
      <trkpt lat="43.0169" lon="0.79767">
        <ele>431</ele>
        <time>2021-03-13T15:27:37Z</time>
      </trkpt>
      <trkpt lat="43.01695" lon="0.79765">
        <ele>431</ele>
        <time>2021-03-13T15:27:38Z</time>
      </trkpt>
      <trkpt lat="43.01701" lon="0.79764">
        <ele>431</ele>
        <time>2021-03-13T15:27:39Z</time>
      </trkpt>
      <trkpt lat="43.01706" lon="0.79763">
        <ele>431</ele>
        <time>2021-03-13T15:27:40Z</time>
      </trkpt>
      <trkpt lat="43.01712" lon="0.79762">
        <ele>431</ele>
        <time>2021-03-13T15:27:41Z</time>
      </trkpt>
      <trkpt lat="43.01717" lon="0.79762">
        <ele>431</ele>
        <time>2021-03-13T15:27:42Z</time>
      </trkpt>
      <trkpt lat="43.01722" lon="0.79763">
        <ele>431</ele>
        <time>2021-03-13T15:27:43Z</time>
      </trkpt>
      <trkpt lat="43.01728" lon="0.79765">
        <ele>431</ele>
        <time>2021-03-13T15:27:44Z</time>
      </trkpt>
      <trkpt lat="43.01733" lon="0.79766">
        <ele>431</ele>
        <time>2021-03-13T15:27:45Z</time>
      </trkpt>
      <trkpt lat="43.01739" lon="0.79769">
        <ele>431</ele>
        <time>2021-03-13T15:27:46Z</time>
      </trkpt>
      <trkpt lat="43.01744" lon="0.7977">
        <ele>431</ele>
        <time>2021-03-13T15:27:47Z</time>
      </trkpt>
      <trkpt lat="43.0175" lon="0.79773">
        <ele>431</ele>
        <time>2021-03-13T15:27:48Z</time>
      </trkpt>
      <trkpt lat="43.01755" lon="0.79778">
        <ele>431</ele>
        <time>2021-03-13T15:27:49Z</time>
      </trkpt>
      <trkpt lat="43.01759" lon="0.79783">
        <ele>432</ele>
        <time>2021-03-13T15:27:50Z</time>
      </trkpt>
      <trkpt lat="43.01763" lon="0.79788">
        <ele>432</ele>
        <time>2021-03-13T15:27:51Z</time>
      </trkpt>
      <trkpt lat="43.01766" lon="0.79793">
        <ele>432</ele>
        <time>2021-03-13T15:27:52Z</time>
      </trkpt>
      <trkpt lat="43.01769" lon="0.79796">
        <ele>432</ele>
        <time>2021-03-13T15:27:53Z</time>
      </trkpt>
      <trkpt lat="43.01772" lon="0.798">
        <ele>432</ele>
        <time>2021-03-13T15:27:54Z</time>
      </trkpt>
      <trkpt lat="43.01778" lon="0.79807">
        <ele>432</ele>
        <time>2021-03-13T15:27:55Z</time>
      </trkpt>
      <trkpt lat="43.01783" lon="0.79811">
        <ele>432</ele>
        <time>2021-03-13T15:27:56Z</time>
      </trkpt>
      <trkpt lat="43.01787" lon="0.79816">
        <ele>432</ele>
        <time>2021-03-13T15:27:57Z</time>
      </trkpt>
      <trkpt lat="43.01791" lon="0.7982">
        <ele>432</ele>
        <time>2021-03-13T15:27:58Z</time>
      </trkpt>
      <trkpt lat="43.01796" lon="0.79825">
        <ele>432</ele>
        <time>2021-03-13T15:27:59Z</time>
      </trkpt>
      <trkpt lat="43.01801" lon="0.79828">
        <ele>429</ele>
        <time>2021-03-13T15:28:00Z</time>
      </trkpt>
      <trkpt lat="43.01805" lon="0.79832">
        <ele>429</ele>
        <time>2021-03-13T15:28:01Z</time>
      </trkpt>
      <trkpt lat="43.0181" lon="0.79835">
        <ele>429</ele>
        <time>2021-03-13T15:28:02Z</time>
      </trkpt>
      <trkpt lat="43.01814" lon="0.79838">
        <ele>429</ele>
        <time>2021-03-13T15:28:03Z</time>
      </trkpt>
      <trkpt lat="43.01816" lon="0.79841">
        <ele>429</ele>
        <time>2021-03-13T15:28:04Z</time>
      </trkpt>
      <trkpt lat="43.01818" lon="0.79845">
        <ele>429</ele>
        <time>2021-03-13T15:28:05Z</time>
      </trkpt>
      <trkpt lat="43.01817" lon="0.79848">
        <ele>429</ele>
        <time>2021-03-13T15:28:06Z</time>
      </trkpt>
      <trkpt lat="43.01817" lon="0.79852">
        <ele>429</ele>
        <time>2021-03-13T15:28:07Z</time>
      </trkpt>
      <trkpt lat="43.01814" lon="0.79854">
        <ele>429</ele>
        <time>2021-03-13T15:28:08Z</time>
      </trkpt>
      <trkpt lat="43.01811" lon="0.79857">
        <ele>429</ele>
        <time>2021-03-13T15:28:09Z</time>
      </trkpt>
      <trkpt lat="43.01807" lon="0.79859">
        <ele>431</ele>
        <time>2021-03-13T15:28:10Z</time>
      </trkpt>
      <trkpt lat="43.01804" lon="0.79862">
        <ele>431</ele>
        <time>2021-03-13T15:28:11Z</time>
      </trkpt>
      <trkpt lat="43.018" lon="0.79865">
        <ele>431</ele>
        <time>2021-03-13T15:28:12Z</time>
      </trkpt>
      <trkpt lat="43.01796" lon="0.79867">
        <ele>431</ele>
        <time>2021-03-13T15:28:13Z</time>
      </trkpt>
      <trkpt lat="43.01792" lon="0.7987">
        <ele>431</ele>
        <time>2021-03-13T15:28:14Z</time>
      </trkpt>
      <trkpt lat="43.01788" lon="0.79873">
        <ele>431</ele>
        <time>2021-03-13T15:28:15Z</time>
      </trkpt>
      <trkpt lat="43.01784" lon="0.79877">
        <ele>431</ele>
        <time>2021-03-13T15:28:16Z</time>
      </trkpt>
      <trkpt lat="43.01781" lon="0.7988">
        <ele>431</ele>
        <time>2021-03-13T15:28:17Z</time>
      </trkpt>
      <trkpt lat="43.01777" lon="0.79883">
        <ele>431</ele>
        <time>2021-03-13T15:28:18Z</time>
      </trkpt>
      <trkpt lat="43.01774" lon="0.79887">
        <ele>431</ele>
        <time>2021-03-13T15:28:19Z</time>
      </trkpt>
      <trkpt lat="43.01771" lon="0.79891">
        <ele>431</ele>
        <time>2021-03-13T15:28:20Z</time>
      </trkpt>
      <trkpt lat="43.01768" lon="0.79895">
        <ele>431</ele>
        <time>2021-03-13T15:28:21Z</time>
      </trkpt>
      <trkpt lat="43.01765" lon="0.79899">
        <ele>431</ele>
        <time>2021-03-13T15:28:22Z</time>
      </trkpt>
      <trkpt lat="43.01762" lon="0.79903">
        <ele>431</ele>
        <time>2021-03-13T15:28:23Z</time>
      </trkpt>
      <trkpt lat="43.01759" lon="0.79908">
        <ele>431</ele>
        <time>2021-03-13T15:28:24Z</time>
      </trkpt>
      <trkpt lat="43.01757" lon="0.79912">
        <ele>431</ele>
        <time>2021-03-13T15:28:25Z</time>
      </trkpt>
      <trkpt lat="43.01754" lon="0.79916">
        <ele>431</ele>
        <time>2021-03-13T15:28:26Z</time>
      </trkpt>
      <trkpt lat="43.01751" lon="0.7992">
        <ele>431</ele>
        <time>2021-03-13T15:28:27Z</time>
      </trkpt>
      <trkpt lat="43.01748" lon="0.79924">
        <ele>431</ele>
        <time>2021-03-13T15:28:28Z</time>
      </trkpt>
      <trkpt lat="43.01746" lon="0.79928">
        <ele>431</ele>
        <time>2021-03-13T15:28:29Z</time>
      </trkpt>
      <trkpt lat="43.01743" lon="0.79931">
        <ele>434</ele>
        <time>2021-03-13T15:28:30Z</time>
      </trkpt>
      <trkpt lat="43.01739" lon="0.79934">
        <ele>434</ele>
        <time>2021-03-13T15:28:31Z</time>
      </trkpt>
      <trkpt lat="43.01736" lon="0.79938">
        <ele>434</ele>
        <time>2021-03-13T15:28:32Z</time>
      </trkpt>
      <trkpt lat="43.01733" lon="0.79941">
        <ele>434</ele>
        <time>2021-03-13T15:28:33Z</time>
      </trkpt>
      <trkpt lat="43.0173" lon="0.79944">
        <ele>434</ele>
        <time>2021-03-13T15:28:34Z</time>
      </trkpt>
      <trkpt lat="43.01727" lon="0.79947">
        <ele>435</ele>
        <time>2021-03-13T15:28:35Z</time>
      </trkpt>
      <trkpt lat="43.01724" lon="0.79951">
        <ele>435</ele>
        <time>2021-03-13T15:28:36Z</time>
      </trkpt>
      <trkpt lat="43.0172" lon="0.79954">
        <ele>435</ele>
        <time>2021-03-13T15:28:37Z</time>
      </trkpt>
      <trkpt lat="43.01718" lon="0.79957">
        <ele>435</ele>
        <time>2021-03-13T15:28:38Z</time>
      </trkpt>
      <trkpt lat="43.01715" lon="0.79961">
        <ele>435</ele>
        <time>2021-03-13T15:28:39Z</time>
      </trkpt>
      <trkpt lat="43.01712" lon="0.79964">
        <ele>436</ele>
        <time>2021-03-13T15:28:40Z</time>
      </trkpt>
      <trkpt lat="43.01709" lon="0.79967">
        <ele>436</ele>
        <time>2021-03-13T15:28:41Z</time>
      </trkpt>
      <trkpt lat="43.01706" lon="0.79971">
        <ele>436</ele>
        <time>2021-03-13T15:28:42Z</time>
      </trkpt>
      <trkpt lat="43.01703" lon="0.79974">
        <ele>436</ele>
        <time>2021-03-13T15:28:43Z</time>
      </trkpt>
      <trkpt lat="43.017" lon="0.79978">
        <ele>436</ele>
        <time>2021-03-13T15:28:44Z</time>
      </trkpt>
      <trkpt lat="43.01698" lon="0.79981">
        <ele>439</ele>
        <time>2021-03-13T15:28:45Z</time>
      </trkpt>
      <trkpt lat="43.01696" lon="0.79985">
        <ele>439</ele>
        <time>2021-03-13T15:28:46Z</time>
      </trkpt>
      <trkpt lat="43.01694" lon="0.79989">
        <ele>439</ele>
        <time>2021-03-13T15:28:47Z</time>
      </trkpt>
      <trkpt lat="43.01693" lon="0.79993">
        <ele>439</ele>
        <time>2021-03-13T15:28:48Z</time>
      </trkpt>
      <trkpt lat="43.01695" lon="0.79996">
        <ele>439</ele>
        <time>2021-03-13T15:28:49Z</time>
      </trkpt>
      <trkpt lat="43.01696" lon="0.8">
        <ele>440</ele>
        <time>2021-03-13T15:28:50Z</time>
      </trkpt>
      <trkpt lat="43.017" lon="0.80003">
        <ele>440</ele>
        <time>2021-03-13T15:28:51Z</time>
      </trkpt>
      <trkpt lat="43.01704" lon="0.80005">
        <ele>440</ele>
        <time>2021-03-13T15:28:52Z</time>
      </trkpt>
      <trkpt lat="43.01709" lon="0.80008">
        <ele>440</ele>
        <time>2021-03-13T15:28:53Z</time>
      </trkpt>
      <trkpt lat="43.01714" lon="0.80011">
        <ele>440</ele>
        <time>2021-03-13T15:28:54Z</time>
      </trkpt>
      <trkpt lat="43.01718" lon="0.80013">
        <ele>439</ele>
        <time>2021-03-13T15:28:55Z</time>
      </trkpt>
      <trkpt lat="43.01721" lon="0.80014">
        <ele>439</ele>
        <time>2021-03-13T15:28:56Z</time>
      </trkpt>
      <trkpt lat="43.01723" lon="0.80015">
        <ele>439</ele>
        <time>2021-03-13T15:28:57Z</time>
      </trkpt>
      <trkpt lat="43.01733" lon="0.80018">
        <ele>439</ele>
        <time>2021-03-13T15:28:58Z</time>
      </trkpt>
      <trkpt lat="43.01738" lon="0.80019">
        <ele>439</ele>
        <time>2021-03-13T15:28:59Z</time>
      </trkpt>
      <trkpt lat="43.01743" lon="0.80021">
        <ele>438</ele>
        <time>2021-03-13T15:29:00Z</time>
      </trkpt>
      <trkpt lat="43.01748" lon="0.80022">
        <ele>438</ele>
        <time>2021-03-13T15:29:01Z</time>
      </trkpt>
      <trkpt lat="43.01753" lon="0.80024">
        <ele>438</ele>
        <time>2021-03-13T15:29:02Z</time>
      </trkpt>
      <trkpt lat="43.01757" lon="0.80025">
        <ele>438</ele>
        <time>2021-03-13T15:29:03Z</time>
      </trkpt>
      <trkpt lat="43.01762" lon="0.80026">
        <ele>438</ele>
        <time>2021-03-13T15:29:04Z</time>
      </trkpt>
      <trkpt lat="43.01767" lon="0.80027">
        <ele>438</ele>
        <time>2021-03-13T15:29:05Z</time>
      </trkpt>
      <trkpt lat="43.01772" lon="0.80028">
        <ele>438</ele>
        <time>2021-03-13T15:29:06Z</time>
      </trkpt>
      <trkpt lat="43.01777" lon="0.80029">
        <ele>438</ele>
        <time>2021-03-13T15:29:07Z</time>
      </trkpt>
      <trkpt lat="43.01781" lon="0.8003">
        <ele>438</ele>
        <time>2021-03-13T15:29:08Z</time>
      </trkpt>
      <trkpt lat="43.01785" lon="0.80031">
        <ele>438</ele>
        <time>2021-03-13T15:29:09Z</time>
      </trkpt>
      <trkpt lat="43.01789" lon="0.80032">
        <ele>438</ele>
        <time>2021-03-13T15:29:10Z</time>
      </trkpt>
      <trkpt lat="43.01793" lon="0.80032">
        <ele>438</ele>
        <time>2021-03-13T15:29:11Z</time>
      </trkpt>
      <trkpt lat="43.01797" lon="0.80033">
        <ele>438</ele>
        <time>2021-03-13T15:29:12Z</time>
      </trkpt>
      <trkpt lat="43.01801" lon="0.80034">
        <ele>438</ele>
        <time>2021-03-13T15:29:13Z</time>
      </trkpt>
      <trkpt lat="43.01805" lon="0.80034">
        <ele>438</ele>
        <time>2021-03-13T15:29:14Z</time>
      </trkpt>
      <trkpt lat="43.01808" lon="0.80035">
        <ele>438</ele>
        <time>2021-03-13T15:29:15Z</time>
      </trkpt>
      <trkpt lat="43.01812" lon="0.80036">
        <ele>438</ele>
        <time>2021-03-13T15:29:16Z</time>
      </trkpt>
      <trkpt lat="43.01816" lon="0.80036">
        <ele>438</ele>
        <time>2021-03-13T15:29:17Z</time>
      </trkpt>
      <trkpt lat="43.01819" lon="0.80037">
        <ele>438</ele>
        <time>2021-03-13T15:29:18Z</time>
      </trkpt>
      <trkpt lat="43.01823" lon="0.80037">
        <ele>438</ele>
        <time>2021-03-13T15:29:19Z</time>
      </trkpt>
      <trkpt lat="43.01824" lon="0.80038">
        <ele>441</ele>
        <time>2021-03-13T15:29:20Z</time>
      </trkpt>
      <trkpt lat="43.01826" lon="0.80038">
        <ele>441</ele>
        <time>2021-03-13T15:29:21Z</time>
      </trkpt>
      <trkpt lat="43.01828" lon="0.80038">
        <ele>441</ele>
        <time>2021-03-13T15:29:22Z</time>
      </trkpt>
      <trkpt lat="43.01836" lon="0.8004">
        <ele>441</ele>
        <time>2021-03-13T15:29:23Z</time>
      </trkpt>
      <trkpt lat="43.01839" lon="0.80041">
        <ele>441</ele>
        <time>2021-03-13T15:29:24Z</time>
      </trkpt>
      <trkpt lat="43.01843" lon="0.80041">
        <ele>443</ele>
        <time>2021-03-13T15:29:25Z</time>
      </trkpt>
      <trkpt lat="43.01846" lon="0.80042">
        <ele>443</ele>
        <time>2021-03-13T15:29:26Z</time>
      </trkpt>
      <trkpt lat="43.01849" lon="0.80042">
        <ele>443</ele>
        <time>2021-03-13T15:29:27Z</time>
      </trkpt>
      <trkpt lat="43.01852" lon="0.80043">
        <ele>443</ele>
        <time>2021-03-13T15:29:28Z</time>
      </trkpt>
      <trkpt lat="43.01856" lon="0.80045">
        <ele>443</ele>
        <time>2021-03-13T15:29:29Z</time>
      </trkpt>
      <trkpt lat="43.01859" lon="0.80046">
        <ele>443</ele>
        <time>2021-03-13T15:29:30Z</time>
      </trkpt>
      <trkpt lat="43.01862" lon="0.80047">
        <ele>443</ele>
        <time>2021-03-13T15:29:31Z</time>
      </trkpt>
      <trkpt lat="43.01865" lon="0.80047">
        <ele>443</ele>
        <time>2021-03-13T15:29:32Z</time>
      </trkpt>
      <trkpt lat="43.01868" lon="0.80048">
        <ele>443</ele>
        <time>2021-03-13T15:29:33Z</time>
      </trkpt>
      <trkpt lat="43.01872" lon="0.80049">
        <ele>443</ele>
        <time>2021-03-13T15:29:34Z</time>
      </trkpt>
      <trkpt lat="43.01875" lon="0.80049">
        <ele>444</ele>
        <time>2021-03-13T15:29:35Z</time>
      </trkpt>
      <trkpt lat="43.01878" lon="0.8005">
        <ele>444</ele>
        <time>2021-03-13T15:29:36Z</time>
      </trkpt>
      <trkpt lat="43.01881" lon="0.8005">
        <ele>444</ele>
        <time>2021-03-13T15:29:37Z</time>
      </trkpt>
      <trkpt lat="43.01885" lon="0.80051">
        <ele>444</ele>
        <time>2021-03-13T15:29:38Z</time>
      </trkpt>
      <trkpt lat="43.01888" lon="0.80051">
        <ele>444</ele>
        <time>2021-03-13T15:29:39Z</time>
      </trkpt>
      <trkpt lat="43.01892" lon="0.80051">
        <ele>445</ele>
        <time>2021-03-13T15:29:40Z</time>
      </trkpt>
      <trkpt lat="43.01895" lon="0.80051">
        <ele>445</ele>
        <time>2021-03-13T15:29:41Z</time>
      </trkpt>
      <trkpt lat="43.01898" lon="0.80051">
        <ele>445</ele>
        <time>2021-03-13T15:29:42Z</time>
      </trkpt>
      <trkpt lat="43.01902" lon="0.80052">
        <ele>445</ele>
        <time>2021-03-13T15:29:43Z</time>
      </trkpt>
      <trkpt lat="43.01905" lon="0.80053">
        <ele>445</ele>
        <time>2021-03-13T15:29:44Z</time>
      </trkpt>
      <trkpt lat="43.01908" lon="0.80053">
        <ele>445</ele>
        <time>2021-03-13T15:29:45Z</time>
      </trkpt>
      <trkpt lat="43.01912" lon="0.80053">
        <ele>445</ele>
        <time>2021-03-13T15:29:46Z</time>
      </trkpt>
      <trkpt lat="43.01915" lon="0.80054">
        <ele>445</ele>
        <time>2021-03-13T15:29:47Z</time>
      </trkpt>
      <trkpt lat="43.01918" lon="0.80054">
        <ele>445</ele>
        <time>2021-03-13T15:29:48Z</time>
      </trkpt>
      <trkpt lat="43.01921" lon="0.80055">
        <ele>445</ele>
        <time>2021-03-13T15:29:49Z</time>
      </trkpt>
      <trkpt lat="43.01924" lon="0.80056">
        <ele>447</ele>
        <time>2021-03-13T15:29:50Z</time>
      </trkpt>
      <trkpt lat="43.01927" lon="0.80057">
        <ele>447</ele>
        <time>2021-03-13T15:29:51Z</time>
      </trkpt>
      <trkpt lat="43.0193" lon="0.80058">
        <ele>447</ele>
        <time>2021-03-13T15:29:52Z</time>
      </trkpt>
      <trkpt lat="43.01932" lon="0.80059">
        <ele>447</ele>
        <time>2021-03-13T15:29:53Z</time>
      </trkpt>
      <trkpt lat="43.01934" lon="0.80059">
        <ele>447</ele>
        <time>2021-03-13T15:29:54Z</time>
      </trkpt>
      <trkpt lat="43.01935" lon="0.8006">
        <ele>447</ele>
        <time>2021-03-13T15:29:55Z</time>
      </trkpt>
      <trkpt lat="43.01937" lon="0.8006">
        <ele>447</ele>
        <time>2021-03-13T15:29:56Z</time>
      </trkpt>
      <trkpt lat="43.01945" lon="0.80063">
        <ele>447</ele>
        <time>2021-03-13T15:29:57Z</time>
      </trkpt>
      <trkpt lat="43.01946" lon="0.80063">
        <ele>447</ele>
        <time>2021-03-13T15:29:58Z</time>
      </trkpt>
      <trkpt lat="43.01948" lon="0.80063">
        <ele>447</ele>
        <time>2021-03-13T15:29:59Z</time>
      </trkpt>
      <trkpt lat="43.01949" lon="0.80064">
        <ele>449</ele>
        <time>2021-03-13T15:30:00Z</time>
      </trkpt>
      <trkpt lat="43.01957" lon="0.80066">
        <ele>449</ele>
        <time>2021-03-13T15:30:01Z</time>
      </trkpt>
      <trkpt lat="43.01958" lon="0.80066">
        <ele>449</ele>
        <time>2021-03-13T15:30:02Z</time>
      </trkpt>
      <trkpt lat="43.0196" lon="0.80066">
        <ele>449</ele>
        <time>2021-03-13T15:30:03Z</time>
      </trkpt>
      <trkpt lat="43.01961" lon="0.80066">
        <ele>449</ele>
        <time>2021-03-13T15:30:04Z</time>
      </trkpt>
      <trkpt lat="43.01967" lon="0.80065">
        <ele>449</ele>
        <time>2021-03-13T15:30:05Z</time>
      </trkpt>
      <trkpt lat="43.01968" lon="0.80064">
        <ele>449</ele>
        <time>2021-03-13T15:30:06Z</time>
      </trkpt>
      <trkpt lat="43.01968" lon="0.80062">
        <ele>449</ele>
        <time>2021-03-13T15:30:07Z</time>
      </trkpt>
      <trkpt lat="43.01969" lon="0.80061">
        <ele>449</ele>
        <time>2021-03-13T15:30:08Z</time>
      </trkpt>
      <trkpt lat="43.0197" lon="0.80059">
        <ele>449</ele>
        <time>2021-03-13T15:30:09Z</time>
      </trkpt>
      <trkpt lat="43.01971" lon="0.80058">
        <ele>449</ele>
        <time>2021-03-13T15:30:10Z</time>
      </trkpt>
      <trkpt lat="43.01971" lon="0.80056">
        <ele>449</ele>
        <time>2021-03-13T15:30:11Z</time>
      </trkpt>
      <trkpt lat="43.01972" lon="0.80055">
        <ele>449</ele>
        <time>2021-03-13T15:30:12Z</time>
      </trkpt>
      <trkpt lat="43.01974" lon="0.80054">
        <ele>449</ele>
        <time>2021-03-13T15:30:13Z</time>
      </trkpt>
      <trkpt lat="43.01975" lon="0.80054">
        <ele>449</ele>
        <time>2021-03-13T15:30:14Z</time>
      </trkpt>
      <trkpt lat="43.01977" lon="0.80053">
        <ele>449</ele>
        <time>2021-03-13T15:30:15Z</time>
      </trkpt>
      <trkpt lat="43.01979" lon="0.80053">
        <ele>449</ele>
        <time>2021-03-13T15:30:16Z</time>
      </trkpt>
      <trkpt lat="43.01988" lon="0.8005">
        <ele>449</ele>
        <time>2021-03-13T15:30:17Z</time>
      </trkpt>
      <trkpt lat="43.0199" lon="0.8005">
        <ele>449</ele>
        <time>2021-03-13T15:30:18Z</time>
      </trkpt>
      <trkpt lat="43.01998" lon="0.80048">
        <ele>449</ele>
        <time>2021-03-13T15:30:19Z</time>
      </trkpt>
      <trkpt lat="43.02001" lon="0.80048">
        <ele>447</ele>
        <time>2021-03-13T15:30:20Z</time>
      </trkpt>
      <trkpt lat="43.0201" lon="0.80046">
        <ele>447</ele>
        <time>2021-03-13T15:30:21Z</time>
      </trkpt>
      <trkpt lat="43.02013" lon="0.80046">
        <ele>447</ele>
        <time>2021-03-13T15:30:22Z</time>
      </trkpt>
      <trkpt lat="43.02022" lon="0.80045">
        <ele>447</ele>
        <time>2021-03-13T15:30:23Z</time>
      </trkpt>
      <trkpt lat="43.02025" lon="0.80045">
        <ele>447</ele>
        <time>2021-03-13T15:30:24Z</time>
      </trkpt>
      <trkpt lat="43.02034" lon="0.80046">
        <ele>445</ele>
        <time>2021-03-13T15:30:25Z</time>
      </trkpt>
      <trkpt lat="43.02037" lon="0.80047">
        <ele>445</ele>
        <time>2021-03-13T15:30:26Z</time>
      </trkpt>
      <trkpt lat="43.02045" lon="0.80049">
        <ele>445</ele>
        <time>2021-03-13T15:30:27Z</time>
      </trkpt>
      <trkpt lat="43.02047" lon="0.80049">
        <ele>445</ele>
        <time>2021-03-13T15:30:28Z</time>
      </trkpt>
      <trkpt lat="43.02049" lon="0.8005">
        <ele>445</ele>
        <time>2021-03-13T15:30:29Z</time>
      </trkpt>
      <trkpt lat="43.02059" lon="0.80051">
        <ele>445</ele>
        <time>2021-03-13T15:30:30Z</time>
      </trkpt>
      <trkpt lat="43.02063" lon="0.80051">
        <ele>445</ele>
        <time>2021-03-13T15:30:31Z</time>
      </trkpt>
      <trkpt lat="43.02066" lon="0.80051">
        <ele>445</ele>
        <time>2021-03-13T15:30:32Z</time>
      </trkpt>
      <trkpt lat="43.02068" lon="0.80051">
        <ele>445</ele>
        <time>2021-03-13T15:30:33Z</time>
      </trkpt>
      <trkpt lat="43.0207" lon="0.80052">
        <ele>445</ele>
        <time>2021-03-13T15:30:34Z</time>
      </trkpt>
      <trkpt lat="43.02072" lon="0.80052">
        <ele>445</ele>
        <time>2021-03-13T15:30:35Z</time>
      </trkpt>
      <trkpt lat="43.02078" lon="0.80053">
        <ele>445</ele>
        <time>2021-03-13T15:30:36Z</time>
      </trkpt>
      <trkpt lat="43.0208" lon="0.80054">
        <ele>445</ele>
        <time>2021-03-13T15:30:37Z</time>
      </trkpt>
      <trkpt lat="43.02081" lon="0.80054">
        <ele>445</ele>
        <time>2021-03-13T15:30:38Z</time>
      </trkpt>
      <trkpt lat="43.02083" lon="0.80054">
        <ele>445</ele>
        <time>2021-03-13T15:30:39Z</time>
      </trkpt>
      <trkpt lat="43.02091" lon="0.80056">
        <ele>448</ele>
        <time>2021-03-13T15:30:40Z</time>
      </trkpt>
      <trkpt lat="43.02092" lon="0.80057">
        <ele>448</ele>
        <time>2021-03-13T15:30:41Z</time>
      </trkpt>
      <trkpt lat="43.02094" lon="0.80057">
        <ele>448</ele>
        <time>2021-03-13T15:30:42Z</time>
      </trkpt>
      <trkpt lat="43.02095" lon="0.80058">
        <ele>448</ele>
        <time>2021-03-13T15:30:43Z</time>
      </trkpt>
      <trkpt lat="43.02102" lon="0.80062">
        <ele>448</ele>
        <time>2021-03-13T15:30:44Z</time>
      </trkpt>
      <trkpt lat="43.02103" lon="0.80062">
        <ele>451</ele>
        <time>2021-03-13T15:30:45Z</time>
      </trkpt>
      <trkpt lat="43.02105" lon="0.80063">
        <ele>451</ele>
        <time>2021-03-13T15:30:46Z</time>
      </trkpt>
      <trkpt lat="43.02106" lon="0.80064">
        <ele>451</ele>
        <time>2021-03-13T15:30:47Z</time>
      </trkpt>
      <trkpt lat="43.02113" lon="0.80069">
        <ele>451</ele>
        <time>2021-03-13T15:30:48Z</time>
      </trkpt>
      <trkpt lat="43.02114" lon="0.8007">
        <ele>451</ele>
        <time>2021-03-13T15:30:49Z</time>
      </trkpt>
      <trkpt lat="43.02115" lon="0.80071">
        <ele>452</ele>
        <time>2021-03-13T15:30:50Z</time>
      </trkpt>
      <trkpt lat="43.02116" lon="0.80072">
        <ele>452</ele>
        <time>2021-03-13T15:30:51Z</time>
      </trkpt>
      <trkpt lat="43.02124" lon="0.80079">
        <ele>452</ele>
        <time>2021-03-13T15:30:52Z</time>
      </trkpt>
      <trkpt lat="43.02126" lon="0.80082">
        <ele>452</ele>
        <time>2021-03-13T15:30:53Z</time>
      </trkpt>
      <trkpt lat="43.02129" lon="0.80085">
        <ele>452</ele>
        <time>2021-03-13T15:30:54Z</time>
      </trkpt>
      <trkpt lat="43.02132" lon="0.80087">
        <ele>452</ele>
        <time>2021-03-13T15:30:55Z</time>
      </trkpt>
      <trkpt lat="43.02136" lon="0.80089">
        <ele>452</ele>
        <time>2021-03-13T15:30:56Z</time>
      </trkpt>
      <trkpt lat="43.02139" lon="0.8009">
        <ele>452</ele>
        <time>2021-03-13T15:30:57Z</time>
      </trkpt>
      <trkpt lat="43.02143" lon="0.80091">
        <ele>452</ele>
        <time>2021-03-13T15:30:58Z</time>
      </trkpt>
      <trkpt lat="43.02147" lon="0.80092">
        <ele>452</ele>
        <time>2021-03-13T15:30:59Z</time>
      </trkpt>
      <trkpt lat="43.02151" lon="0.80092">
        <ele>450</ele>
        <time>2021-03-13T15:31:00Z</time>
      </trkpt>
      <trkpt lat="43.02156" lon="0.80092">
        <ele>450</ele>
        <time>2021-03-13T15:31:01Z</time>
      </trkpt>
      <trkpt lat="43.0216" lon="0.80092">
        <ele>450</ele>
        <time>2021-03-13T15:31:02Z</time>
      </trkpt>
      <trkpt lat="43.02164" lon="0.80092">
        <ele>450</ele>
        <time>2021-03-13T15:31:03Z</time>
      </trkpt>
      <trkpt lat="43.02168" lon="0.80092">
        <ele>450</ele>
        <time>2021-03-13T15:31:04Z</time>
      </trkpt>
      <trkpt lat="43.02172" lon="0.80091">
        <ele>450</ele>
        <time>2021-03-13T15:31:05Z</time>
      </trkpt>
      <trkpt lat="43.02175" lon="0.80091">
        <ele>450</ele>
        <time>2021-03-13T15:31:06Z</time>
      </trkpt>
      <trkpt lat="43.02179" lon="0.80092">
        <ele>450</ele>
        <time>2021-03-13T15:31:07Z</time>
      </trkpt>
      <trkpt lat="43.02183" lon="0.80092">
        <ele>450</ele>
        <time>2021-03-13T15:31:08Z</time>
      </trkpt>
      <trkpt lat="43.02186" lon="0.80092">
        <ele>450</ele>
        <time>2021-03-13T15:31:09Z</time>
      </trkpt>
      <trkpt lat="43.0219" lon="0.80092">
        <ele>453</ele>
        <time>2021-03-13T15:31:10Z</time>
      </trkpt>
      <trkpt lat="43.02194" lon="0.80092">
        <ele>453</ele>
        <time>2021-03-13T15:31:11Z</time>
      </trkpt>
      <trkpt lat="43.02197" lon="0.80092">
        <ele>453</ele>
        <time>2021-03-13T15:31:12Z</time>
      </trkpt>
      <trkpt lat="43.02201" lon="0.80093">
        <ele>453</ele>
        <time>2021-03-13T15:31:13Z</time>
      </trkpt>
      <trkpt lat="43.02204" lon="0.80094">
        <ele>453</ele>
        <time>2021-03-13T15:31:14Z</time>
      </trkpt>
      <trkpt lat="43.02208" lon="0.80095">
        <ele>453</ele>
        <time>2021-03-13T15:31:15Z</time>
      </trkpt>
      <trkpt lat="43.02212" lon="0.80097">
        <ele>453</ele>
        <time>2021-03-13T15:31:16Z</time>
      </trkpt>
      <trkpt lat="43.02215" lon="0.80099">
        <ele>453</ele>
        <time>2021-03-13T15:31:17Z</time>
      </trkpt>
      <trkpt lat="43.02219" lon="0.80101">
        <ele>453</ele>
        <time>2021-03-13T15:31:18Z</time>
      </trkpt>
      <trkpt lat="43.02222" lon="0.80103">
        <ele>453</ele>
        <time>2021-03-13T15:31:19Z</time>
      </trkpt>
      <trkpt lat="43.02226" lon="0.80105">
        <ele>454</ele>
        <time>2021-03-13T15:31:20Z</time>
      </trkpt>
      <trkpt lat="43.0223" lon="0.80107">
        <ele>454</ele>
        <time>2021-03-13T15:31:21Z</time>
      </trkpt>
      <trkpt lat="43.02233" lon="0.8011">
        <ele>454</ele>
        <time>2021-03-13T15:31:22Z</time>
      </trkpt>
      <trkpt lat="43.02237" lon="0.80112">
        <ele>454</ele>
        <time>2021-03-13T15:31:23Z</time>
      </trkpt>
      <trkpt lat="43.02241" lon="0.80115">
        <ele>454</ele>
        <time>2021-03-13T15:31:24Z</time>
      </trkpt>
      <trkpt lat="43.02242" lon="0.80115">
        <ele>454</ele>
        <time>2021-03-13T15:31:25Z</time>
      </trkpt>
      <trkpt lat="43.02244" lon="0.80116">
        <ele>454</ele>
        <time>2021-03-13T15:31:26Z</time>
      </trkpt>
      <trkpt lat="43.02246" lon="0.80117">
        <ele>454</ele>
        <time>2021-03-13T15:31:27Z</time>
      </trkpt>
      <trkpt lat="43.02253" lon="0.8012">
        <ele>454</ele>
        <time>2021-03-13T15:31:28Z</time>
      </trkpt>
      <trkpt lat="43.02255" lon="0.8012">
        <ele>454</ele>
        <time>2021-03-13T15:31:29Z</time>
      </trkpt>
      <trkpt lat="43.02257" lon="0.8012">
        <ele>455</ele>
        <time>2021-03-13T15:31:30Z</time>
      </trkpt>
      <trkpt lat="43.02266" lon="0.80118">
        <ele>455</ele>
        <time>2021-03-13T15:31:31Z</time>
      </trkpt>
      <trkpt lat="43.0227" lon="0.80116">
        <ele>455</ele>
        <time>2021-03-13T15:31:32Z</time>
      </trkpt>
      <trkpt lat="43.02273" lon="0.80114">
        <ele>455</ele>
        <time>2021-03-13T15:31:33Z</time>
      </trkpt>
      <trkpt lat="43.02276" lon="0.80111">
        <ele>455</ele>
        <time>2021-03-13T15:31:34Z</time>
      </trkpt>
      <trkpt lat="43.02279" lon="0.80107">
        <ele>455</ele>
        <time>2021-03-13T15:31:35Z</time>
      </trkpt>
      <trkpt lat="43.02283" lon="0.80104">
        <ele>455</ele>
        <time>2021-03-13T15:31:36Z</time>
      </trkpt>
      <trkpt lat="43.02286" lon="0.80101">
        <ele>455</ele>
        <time>2021-03-13T15:31:37Z</time>
      </trkpt>
      <trkpt lat="43.02289" lon="0.80097">
        <ele>455</ele>
        <time>2021-03-13T15:31:38Z</time>
      </trkpt>
      <trkpt lat="43.02292" lon="0.80094">
        <ele>455</ele>
        <time>2021-03-13T15:31:39Z</time>
      </trkpt>
      <trkpt lat="43.02295" lon="0.80091">
        <ele>456</ele>
        <time>2021-03-13T15:31:40Z</time>
      </trkpt>
      <trkpt lat="43.02298" lon="0.80088">
        <ele>456</ele>
        <time>2021-03-13T15:31:41Z</time>
      </trkpt>
      <trkpt lat="43.02301" lon="0.80085">
        <ele>456</ele>
        <time>2021-03-13T15:31:42Z</time>
      </trkpt>
      <trkpt lat="43.02304" lon="0.80083">
        <ele>456</ele>
        <time>2021-03-13T15:31:43Z</time>
      </trkpt>
      <trkpt lat="43.02308" lon="0.8008">
        <ele>456</ele>
        <time>2021-03-13T15:31:44Z</time>
      </trkpt>
      <trkpt lat="43.02311" lon="0.80078">
        <ele>456</ele>
        <time>2021-03-13T15:31:45Z</time>
      </trkpt>
      <trkpt lat="43.02314" lon="0.80075">
        <ele>456</ele>
        <time>2021-03-13T15:31:46Z</time>
      </trkpt>
      <trkpt lat="43.02315" lon="0.80073">
        <ele>456</ele>
        <time>2021-03-13T15:31:47Z</time>
      </trkpt>
      <trkpt lat="43.02316" lon="0.80072">
        <ele>456</ele>
        <time>2021-03-13T15:31:48Z</time>
      </trkpt>
      <trkpt lat="43.02318" lon="0.8007">
        <ele>456</ele>
        <time>2021-03-13T15:31:49Z</time>
      </trkpt>
      <trkpt lat="43.02322" lon="0.80062">
        <ele>458</ele>
        <time>2021-03-13T15:31:50Z</time>
      </trkpt>
      <trkpt lat="43.02322" lon="0.80059">
        <ele>458</ele>
        <time>2021-03-13T15:31:51Z</time>
      </trkpt>
      <trkpt lat="43.02323" lon="0.80057">
        <ele>458</ele>
        <time>2021-03-13T15:31:52Z</time>
      </trkpt>
      <trkpt lat="43.02326" lon="0.80046">
        <ele>458</ele>
        <time>2021-03-13T15:31:53Z</time>
      </trkpt>
      <trkpt lat="43.02326" lon="0.80041">
        <ele>458</ele>
        <time>2021-03-13T15:31:54Z</time>
      </trkpt>
      <trkpt lat="43.02327" lon="0.80036">
        <ele>458</ele>
        <time>2021-03-13T15:31:55Z</time>
      </trkpt>
      <trkpt lat="43.02329" lon="0.80032">
        <ele>458</ele>
        <time>2021-03-13T15:31:56Z</time>
      </trkpt>
      <trkpt lat="43.0233" lon="0.80028">
        <ele>458</ele>
        <time>2021-03-13T15:31:57Z</time>
      </trkpt>
      <trkpt lat="43.02331" lon="0.80024">
        <ele>458</ele>
        <time>2021-03-13T15:31:58Z</time>
      </trkpt>
      <trkpt lat="43.02333" lon="0.8002">
        <ele>458</ele>
        <time>2021-03-13T15:31:59Z</time>
      </trkpt>
      <trkpt lat="43.02334" lon="0.80015">
        <ele>459</ele>
        <time>2021-03-13T15:32:00Z</time>
      </trkpt>
      <trkpt lat="43.02336" lon="0.80011">
        <ele>459</ele>
        <time>2021-03-13T15:32:01Z</time>
      </trkpt>
      <trkpt lat="43.02337" lon="0.80008">
        <ele>459</ele>
        <time>2021-03-13T15:32:02Z</time>
      </trkpt>
      <trkpt lat="43.02339" lon="0.80004">
        <ele>459</ele>
        <time>2021-03-13T15:32:03Z</time>
      </trkpt>
      <trkpt lat="43.0234" lon="0.79999">
        <ele>459</ele>
        <time>2021-03-13T15:32:04Z</time>
      </trkpt>
      <trkpt lat="43.02342" lon="0.79995">
        <ele>459</ele>
        <time>2021-03-13T15:32:05Z</time>
      </trkpt>
      <trkpt lat="43.02343" lon="0.79991">
        <ele>459</ele>
        <time>2021-03-13T15:32:06Z</time>
      </trkpt>
      <trkpt lat="43.02345" lon="0.79987">
        <ele>459</ele>
        <time>2021-03-13T15:32:07Z</time>
      </trkpt>
      <trkpt lat="43.02346" lon="0.79983">
        <ele>459</ele>
        <time>2021-03-13T15:32:08Z</time>
      </trkpt>
      <trkpt lat="43.02348" lon="0.79979">
        <ele>459</ele>
        <time>2021-03-13T15:32:09Z</time>
      </trkpt>
      <trkpt lat="43.02349" lon="0.79975">
        <ele>461</ele>
        <time>2021-03-13T15:32:10Z</time>
      </trkpt>
      <trkpt lat="43.02351" lon="0.79971">
        <ele>461</ele>
        <time>2021-03-13T15:32:11Z</time>
      </trkpt>
      <trkpt lat="43.02352" lon="0.79967">
        <ele>461</ele>
        <time>2021-03-13T15:32:12Z</time>
      </trkpt>
      <trkpt lat="43.02353" lon="0.79965">
        <ele>461</ele>
        <time>2021-03-13T15:32:13Z</time>
      </trkpt>
      <trkpt lat="43.02354" lon="0.79963">
        <ele>461</ele>
        <time>2021-03-13T15:32:14Z</time>
      </trkpt>
      <trkpt lat="43.02355" lon="0.79961">
        <ele>461</ele>
        <time>2021-03-13T15:32:15Z</time>
      </trkpt>
      <trkpt lat="43.02359" lon="0.79953">
        <ele>461</ele>
        <time>2021-03-13T15:32:16Z</time>
      </trkpt>
      <trkpt lat="43.0236" lon="0.79951">
        <ele>461</ele>
        <time>2021-03-13T15:32:17Z</time>
      </trkpt>
      <trkpt lat="43.02361" lon="0.79949">
        <ele>461</ele>
        <time>2021-03-13T15:32:18Z</time>
      </trkpt>
      <trkpt lat="43.02366" lon="0.79938">
        <ele>461</ele>
        <time>2021-03-13T15:32:19Z</time>
      </trkpt>
      <trkpt lat="43.02368" lon="0.79933">
        <ele>463</ele>
        <time>2021-03-13T15:32:20Z</time>
      </trkpt>
      <trkpt lat="43.0237" lon="0.79928">
        <ele>463</ele>
        <time>2021-03-13T15:32:21Z</time>
      </trkpt>
      <trkpt lat="43.02371" lon="0.79923">
        <ele>463</ele>
        <time>2021-03-13T15:32:22Z</time>
      </trkpt>
      <trkpt lat="43.02373" lon="0.79918">
        <ele>463</ele>
        <time>2021-03-13T15:32:23Z</time>
      </trkpt>
      <trkpt lat="43.02374" lon="0.79913">
        <ele>463</ele>
        <time>2021-03-13T15:32:24Z</time>
      </trkpt>
      <trkpt lat="43.02376" lon="0.79908">
        <ele>463</ele>
        <time>2021-03-13T15:32:25Z</time>
      </trkpt>
      <trkpt lat="43.02377" lon="0.79903">
        <ele>463</ele>
        <time>2021-03-13T15:32:26Z</time>
      </trkpt>
      <trkpt lat="43.02379" lon="0.79899">
        <ele>463</ele>
        <time>2021-03-13T15:32:27Z</time>
      </trkpt>
      <trkpt lat="43.02381" lon="0.79894">
        <ele>463</ele>
        <time>2021-03-13T15:32:28Z</time>
      </trkpt>
      <trkpt lat="43.02382" lon="0.79892">
        <ele>463</ele>
        <time>2021-03-13T15:32:29Z</time>
      </trkpt>
      <trkpt lat="43.02383" lon="0.7989">
        <ele>463</ele>
        <time>2021-03-13T15:32:30Z</time>
      </trkpt>
      <trkpt lat="43.02384" lon="0.79888">
        <ele>463</ele>
        <time>2021-03-13T15:32:31Z</time>
      </trkpt>
      <trkpt lat="43.0239" lon="0.79876">
        <ele>463</ele>
        <time>2021-03-13T15:32:32Z</time>
      </trkpt>
      <trkpt lat="43.02392" lon="0.79871">
        <ele>463</ele>
        <time>2021-03-13T15:32:33Z</time>
      </trkpt>
      <trkpt lat="43.02394" lon="0.79866">
        <ele>463</ele>
        <time>2021-03-13T15:32:34Z</time>
      </trkpt>
      <trkpt lat="43.02397" lon="0.79861">
        <ele>463</ele>
        <time>2021-03-13T15:32:35Z</time>
      </trkpt>
      <trkpt lat="43.02399" lon="0.79856">
        <ele>463</ele>
        <time>2021-03-13T15:32:36Z</time>
      </trkpt>
      <trkpt lat="43.02401" lon="0.79851">
        <ele>463</ele>
        <time>2021-03-13T15:32:37Z</time>
      </trkpt>
      <trkpt lat="43.02406" lon="0.7984">
        <ele>463</ele>
        <time>2021-03-13T15:32:38Z</time>
      </trkpt>
      <trkpt lat="43.02406" lon="0.7984">
        <ele>463</ele>
        <time>2021-03-13T15:32:39Z</time>
      </trkpt>
      <trkpt lat="43.02408" lon="0.79834">
        <ele>461</ele>
        <time>2021-03-13T15:32:40Z</time>
      </trkpt>
      <trkpt lat="43.0241" lon="0.79828">
        <ele>461</ele>
        <time>2021-03-13T15:32:41Z</time>
      </trkpt>
      <trkpt lat="43.02413" lon="0.79823">
        <ele>461</ele>
        <time>2021-03-13T15:32:42Z</time>
      </trkpt>
      <trkpt lat="43.02415" lon="0.79817">
        <ele>461</ele>
        <time>2021-03-13T15:32:43Z</time>
      </trkpt>
      <trkpt lat="43.02418" lon="0.79811">
        <ele>461</ele>
        <time>2021-03-13T15:32:44Z</time>
      </trkpt>
      <trkpt lat="43.0242" lon="0.79805">
        <ele>461</ele>
        <time>2021-03-13T15:32:45Z</time>
      </trkpt>
      <trkpt lat="43.02423" lon="0.79799">
        <ele>461</ele>
        <time>2021-03-13T15:32:46Z</time>
      </trkpt>
      <trkpt lat="43.02425" lon="0.79793">
        <ele>461</ele>
        <time>2021-03-13T15:32:47Z</time>
      </trkpt>
      <trkpt lat="43.02427" lon="0.7979">
        <ele>461</ele>
        <time>2021-03-13T15:32:48Z</time>
      </trkpt>
      <trkpt lat="43.02428" lon="0.79786">
        <ele>461</ele>
        <time>2021-03-13T15:32:49Z</time>
      </trkpt>
      <trkpt lat="43.0243" lon="0.79783">
        <ele>461</ele>
        <time>2021-03-13T15:32:50Z</time>
      </trkpt>
      <trkpt lat="43.02435" lon="0.79772">
        <ele>461</ele>
        <time>2021-03-13T15:32:51Z</time>
      </trkpt>
      <trkpt lat="43.02437" lon="0.79767">
        <ele>461</ele>
        <time>2021-03-13T15:32:52Z</time>
      </trkpt>
      <trkpt lat="43.02438" lon="0.79762">
        <ele>461</ele>
        <time>2021-03-13T15:32:53Z</time>
      </trkpt>
      <trkpt lat="43.02439" lon="0.79757">
        <ele>461</ele>
        <time>2021-03-13T15:32:54Z</time>
      </trkpt>
      <trkpt lat="43.0244" lon="0.79752">
        <ele>461</ele>
        <time>2021-03-13T15:32:55Z</time>
      </trkpt>
      <trkpt lat="43.02441" lon="0.79747">
        <ele>461</ele>
        <time>2021-03-13T15:32:56Z</time>
      </trkpt>
      <trkpt lat="43.02442" lon="0.79742">
        <ele>461</ele>
        <time>2021-03-13T15:32:57Z</time>
      </trkpt>
      <trkpt lat="43.02443" lon="0.79738">
        <ele>461</ele>
        <time>2021-03-13T15:32:58Z</time>
      </trkpt>
      <trkpt lat="43.02446" lon="0.79734">
        <ele>461</ele>
        <time>2021-03-13T15:32:59Z</time>
      </trkpt>
      <trkpt lat="43.02448" lon="0.7973">
        <ele>463</ele>
        <time>2021-03-13T15:33:00Z</time>
      </trkpt>
      <trkpt lat="43.02452" lon="0.79723">
        <ele>463</ele>
        <time>2021-03-13T15:33:01Z</time>
      </trkpt>
      <trkpt lat="43.02452" lon="0.79723">
        <ele>463</ele>
        <time>2021-03-13T15:33:02Z</time>
      </trkpt>
      <trkpt lat="43.02454" lon="0.7972">
        <ele>463</ele>
        <time>2021-03-13T15:33:03Z</time>
      </trkpt>
      <trkpt lat="43.02456" lon="0.79717">
        <ele>463</ele>
        <time>2021-03-13T15:33:04Z</time>
      </trkpt>
      <trkpt lat="43.02458" lon="0.79713">
        <ele>463</ele>
        <time>2021-03-13T15:33:05Z</time>
      </trkpt>
      <trkpt lat="43.0246" lon="0.7971">
        <ele>463</ele>
        <time>2021-03-13T15:33:06Z</time>
      </trkpt>
      <trkpt lat="43.02461" lon="0.79706">
        <ele>463</ele>
        <time>2021-03-13T15:33:07Z</time>
      </trkpt>
      <trkpt lat="43.02462" lon="0.79702">
        <ele>463</ele>
        <time>2021-03-13T15:33:08Z</time>
      </trkpt>
      <trkpt lat="43.02463" lon="0.79698">
        <ele>463</ele>
        <time>2021-03-13T15:33:09Z</time>
      </trkpt>
      <trkpt lat="43.02463" lon="0.79694">
        <ele>465</ele>
        <time>2021-03-13T15:33:10Z</time>
      </trkpt>
      <trkpt lat="43.02462" lon="0.7969">
        <ele>465</ele>
        <time>2021-03-13T15:33:11Z</time>
      </trkpt>
      <trkpt lat="43.02462" lon="0.79687">
        <ele>465</ele>
        <time>2021-03-13T15:33:12Z</time>
      </trkpt>
      <trkpt lat="43.02461" lon="0.79684">
        <ele>465</ele>
        <time>2021-03-13T15:33:13Z</time>
      </trkpt>
      <trkpt lat="43.0246" lon="0.79679">
        <ele>465</ele>
        <time>2021-03-13T15:33:14Z</time>
      </trkpt>
      <trkpt lat="43.02459" lon="0.79675">
        <ele>465</ele>
        <time>2021-03-13T15:33:15Z</time>
      </trkpt>
      <trkpt lat="43.02458" lon="0.7967">
        <ele>465</ele>
        <time>2021-03-13T15:33:16Z</time>
      </trkpt>
      <trkpt lat="43.02458" lon="0.79666">
        <ele>465</ele>
        <time>2021-03-13T15:33:17Z</time>
      </trkpt>
      <trkpt lat="43.02459" lon="0.79661">
        <ele>465</ele>
        <time>2021-03-13T15:33:18Z</time>
      </trkpt>
      <trkpt lat="43.02459" lon="0.79657">
        <ele>465</ele>
        <time>2021-03-13T15:33:19Z</time>
      </trkpt>
      <trkpt lat="43.0246" lon="0.79652">
        <ele>466</ele>
        <time>2021-03-13T15:33:20Z</time>
      </trkpt>
      <trkpt lat="43.02461" lon="0.79648">
        <ele>466</ele>
        <time>2021-03-13T15:33:21Z</time>
      </trkpt>
      <trkpt lat="43.02462" lon="0.79644">
        <ele>466</ele>
        <time>2021-03-13T15:33:22Z</time>
      </trkpt>
      <trkpt lat="43.02465" lon="0.79639">
        <ele>466</ele>
        <time>2021-03-13T15:33:23Z</time>
      </trkpt>
      <trkpt lat="43.02467" lon="0.79635">
        <ele>466</ele>
        <time>2021-03-13T15:33:24Z</time>
      </trkpt>
      <trkpt lat="43.02469" lon="0.79631">
        <ele>466</ele>
        <time>2021-03-13T15:33:25Z</time>
      </trkpt>
      <trkpt lat="43.02471" lon="0.79629">
        <ele>466</ele>
        <time>2021-03-13T15:33:26Z</time>
      </trkpt>
      <trkpt lat="43.02472" lon="0.79628">
        <ele>466</ele>
        <time>2021-03-13T15:33:27Z</time>
      </trkpt>
      <trkpt lat="43.02474" lon="0.79626">
        <ele>466</ele>
        <time>2021-03-13T15:33:28Z</time>
      </trkpt>
      <trkpt lat="43.02479" lon="0.79621">
        <ele>466</ele>
        <time>2021-03-13T15:33:29Z</time>
      </trkpt>
      <trkpt lat="43.0248" lon="0.7962">
        <ele>466</ele>
        <time>2021-03-13T15:33:30Z</time>
      </trkpt>
      <trkpt lat="43.02482" lon="0.79619">
        <ele>466</ele>
        <time>2021-03-13T15:33:31Z</time>
      </trkpt>
      <trkpt lat="43.02483" lon="0.79618">
        <ele>466</ele>
        <time>2021-03-13T15:33:32Z</time>
      </trkpt>
      <trkpt lat="43.02484" lon="0.79618">
        <ele>466</ele>
        <time>2021-03-13T15:33:33Z</time>
      </trkpt>
      <trkpt lat="43.02485" lon="0.79617">
        <ele>466</ele>
        <time>2021-03-13T15:33:34Z</time>
      </trkpt>
      <trkpt lat="43.02485" lon="0.79617">
        <ele>466</ele>
        <time>2021-03-13T15:33:35Z</time>
      </trkpt>
      <trkpt lat="43.02485" lon="0.79617">
        <ele>466</ele>
        <time>2021-03-13T15:33:36Z</time>
      </trkpt>
      <trkpt lat="43.02485" lon="0.79617">
        <ele>466</ele>
        <time>2021-03-13T15:33:37Z</time>
      </trkpt>
      <trkpt lat="43.02485" lon="0.79617">
        <ele>466</ele>
        <time>2021-03-13T15:33:38Z</time>
      </trkpt>
      <trkpt lat="43.02485" lon="0.79617">
        <ele>466</ele>
        <time>2021-03-13T15:33:39Z</time>
      </trkpt>
      <trkpt lat="43.02485" lon="0.79617">
        <ele>464</ele>
        <time>2021-03-13T15:33:40Z</time>
      </trkpt>
      <trkpt lat="43.02485" lon="0.79617">
        <ele>464</ele>
        <time>2021-03-13T15:33:41Z</time>
      </trkpt>
      <trkpt lat="43.02485" lon="0.79617">
        <ele>464</ele>
        <time>2021-03-13T15:33:42Z</time>
      </trkpt>
      <trkpt lat="43.02485" lon="0.79617">
        <ele>464</ele>
        <time>2021-03-13T15:33:43Z</time>
      </trkpt>
      <trkpt lat="43.02485" lon="0.79617">
        <ele>464</ele>
        <time>2021-03-13T15:33:44Z</time>
      </trkpt>
      <trkpt lat="43.02486" lon="0.79617">
        <ele>464</ele>
        <time>2021-03-13T15:33:45Z</time>
      </trkpt>
      <trkpt lat="43.02486" lon="0.79617">
        <ele>464</ele>
        <time>2021-03-13T15:33:46Z</time>
      </trkpt>
      <trkpt lat="43.02486" lon="0.79617">
        <ele>464</ele>
        <time>2021-03-13T15:33:47Z</time>
      </trkpt>
      <trkpt lat="43.02486" lon="0.79617">
        <ele>464</ele>
        <time>2021-03-13T15:33:48Z</time>
      </trkpt>
      <trkpt lat="43.02486" lon="0.79617">
        <ele>464</ele>
        <time>2021-03-13T15:33:49Z</time>
      </trkpt>
      <trkpt lat="43.02486" lon="0.79617">
        <ele>463</ele>
        <time>2021-03-13T15:33:50Z</time>
      </trkpt>
      <trkpt lat="43.02486" lon="0.79617">
        <ele>463</ele>
        <time>2021-03-13T15:33:51Z</time>
      </trkpt>
      <trkpt lat="43.02486" lon="0.79617">
        <ele>463</ele>
        <time>2021-03-13T15:33:52Z</time>
      </trkpt>
      <trkpt lat="43.02486" lon="0.79617">
        <ele>463</ele>
        <time>2021-03-13T15:33:53Z</time>
      </trkpt>
      <trkpt lat="43.02486" lon="0.79617">
        <ele>463</ele>
        <time>2021-03-13T15:33:54Z</time>
      </trkpt>
      <trkpt lat="43.02486" lon="0.79617">
        <ele>463</ele>
        <time>2021-03-13T15:33:55Z</time>
      </trkpt>
      <trkpt lat="43.02486" lon="0.79617">
        <ele>463</ele>
        <time>2021-03-13T15:33:56Z</time>
      </trkpt>
      <trkpt lat="43.02486" lon="0.79617">
        <ele>463</ele>
        <time>2021-03-13T15:33:57Z</time>
      </trkpt>
      <trkpt lat="43.02487" lon="0.79618">
        <ele>463</ele>
        <time>2021-03-13T15:33:58Z</time>
      </trkpt>
      <trkpt lat="43.02487" lon="0.79618">
        <ele>463</ele>
        <time>2021-03-13T15:33:59Z</time>
      </trkpt>
      <trkpt lat="43.02487" lon="0.79618">
        <ele>463</ele>
        <time>2021-03-13T15:34:00Z</time>
      </trkpt>
      <trkpt lat="43.02487" lon="0.79618">
        <ele>463</ele>
        <time>2021-03-13T15:34:01Z</time>
      </trkpt>
      <trkpt lat="43.02487" lon="0.79618">
        <ele>463</ele>
        <time>2021-03-13T15:34:02Z</time>
      </trkpt>
      <trkpt lat="43.02487" lon="0.79618">
        <ele>463</ele>
        <time>2021-03-13T15:34:03Z</time>
      </trkpt>
      <trkpt lat="43.02487" lon="0.79618">
        <ele>463</ele>
        <time>2021-03-13T15:34:04Z</time>
      </trkpt>
      <trkpt lat="43.02487" lon="0.79618">
        <ele>463</ele>
        <time>2021-03-13T15:34:05Z</time>
      </trkpt>
      <trkpt lat="43.02487" lon="0.79618">
        <ele>463</ele>
        <time>2021-03-13T15:34:06Z</time>
      </trkpt>
      <trkpt lat="43.02487" lon="0.79618">
        <ele>463</ele>
        <time>2021-03-13T15:34:07Z</time>
      </trkpt>
      <trkpt lat="43.02487" lon="0.79618">
        <ele>463</ele>
        <time>2021-03-13T15:34:08Z</time>
      </trkpt>
      <trkpt lat="43.02487" lon="0.79618">
        <ele>463</ele>
        <time>2021-03-13T15:34:09Z</time>
      </trkpt>
      <trkpt lat="43.02487" lon="0.79618">
        <ele>463</ele>
        <time>2021-03-13T15:34:10Z</time>
      </trkpt>
      <trkpt lat="43.02488" lon="0.79618">
        <ele>463</ele>
        <time>2021-03-13T15:34:11Z</time>
      </trkpt>
      <trkpt lat="43.02488" lon="0.79618">
        <ele>463</ele>
        <time>2021-03-13T15:34:12Z</time>
      </trkpt>
      <trkpt lat="43.02488" lon="0.79618">
        <ele>463</ele>
        <time>2021-03-13T15:34:13Z</time>
      </trkpt>
      <trkpt lat="43.02488" lon="0.79618">
        <ele>463</ele>
        <time>2021-03-13T15:34:14Z</time>
      </trkpt>
      <trkpt lat="43.02488" lon="0.79618">
        <ele>463</ele>
        <time>2021-03-13T15:34:15Z</time>
      </trkpt>
      <trkpt lat="43.02488" lon="0.79618">
        <ele>463</ele>
        <time>2021-03-13T15:34:16Z</time>
      </trkpt>
      <trkpt lat="43.02488" lon="0.79618">
        <ele>463</ele>
        <time>2021-03-13T15:34:17Z</time>
      </trkpt>
      <trkpt lat="43.02488" lon="0.79618">
        <ele>463</ele>
        <time>2021-03-13T15:34:18Z</time>
      </trkpt>
      <trkpt lat="43.02488" lon="0.79618">
        <ele>463</ele>
        <time>2021-03-13T15:34:19Z</time>
      </trkpt>
      <trkpt lat="43.02488" lon="0.79618">
        <ele>462</ele>
        <time>2021-03-13T15:34:20Z</time>
      </trkpt>
      <trkpt lat="43.02488" lon="0.79618">
        <ele>462</ele>
        <time>2021-03-13T15:34:21Z</time>
      </trkpt>
      <trkpt lat="43.02488" lon="0.79618">
        <ele>462</ele>
        <time>2021-03-13T15:34:22Z</time>
      </trkpt>
      <trkpt lat="43.02488" lon="0.79618">
        <ele>462</ele>
        <time>2021-03-13T15:34:23Z</time>
      </trkpt>
      <trkpt lat="43.02488" lon="0.79618">
        <ele>462</ele>
        <time>2021-03-13T15:34:24Z</time>
      </trkpt>
      <trkpt lat="43.02489" lon="0.79618">
        <ele>462</ele>
        <time>2021-03-13T15:34:25Z</time>
      </trkpt>
      <trkpt lat="43.02489" lon="0.79618">
        <ele>462</ele>
        <time>2021-03-13T15:34:26Z</time>
      </trkpt>
      <trkpt lat="43.02489" lon="0.79618">
        <ele>462</ele>
        <time>2021-03-13T15:34:27Z</time>
      </trkpt>
      <trkpt lat="43.02489" lon="0.79618">
        <ele>462</ele>
        <time>2021-03-13T15:34:28Z</time>
      </trkpt>
      <trkpt lat="43.02489" lon="0.79618">
        <ele>463</ele>
        <time>2021-03-13T15:34:29Z</time>
      </trkpt>
      <trkpt lat="43.02489" lon="0.79618">
        <ele>463</ele>
        <time>2021-03-13T15:34:30Z</time>
      </trkpt>
      <trkpt lat="43.02489" lon="0.79618">
        <ele>463</ele>
        <time>2021-03-13T15:34:31Z</time>
      </trkpt>
      <trkpt lat="43.02489" lon="0.79618">
        <ele>463</ele>
        <time>2021-03-13T15:34:32Z</time>
      </trkpt>
      <trkpt lat="43.02489" lon="0.79618">
        <ele>463</ele>
        <time>2021-03-13T15:34:33Z</time>
      </trkpt>
      <trkpt lat="43.02489" lon="0.79619">
        <ele>463</ele>
        <time>2021-03-13T15:34:34Z</time>
      </trkpt>
      <trkpt lat="43.02489" lon="0.79619">
        <ele>463</ele>
        <time>2021-03-13T15:34:35Z</time>
      </trkpt>
      <trkpt lat="43.02489" lon="0.79619">
        <ele>463</ele>
        <time>2021-03-13T15:34:36Z</time>
      </trkpt>
      <trkpt lat="43.02489" lon="0.79619">
        <ele>463</ele>
        <time>2021-03-13T15:34:37Z</time>
      </trkpt>
      <trkpt lat="43.0249" lon="0.79619">
        <ele>463</ele>
        <time>2021-03-13T15:34:38Z</time>
      </trkpt>
      <trkpt lat="43.0249" lon="0.79619">
        <ele>463</ele>
        <time>2021-03-13T15:34:39Z</time>
      </trkpt>
      <trkpt lat="43.0249" lon="0.79619">
        <ele>463</ele>
        <time>2021-03-13T15:34:40Z</time>
      </trkpt>
      <trkpt lat="43.0249" lon="0.79619">
        <ele>463</ele>
        <time>2021-03-13T15:34:41Z</time>
      </trkpt>
      <trkpt lat="43.0249" lon="0.79619">
        <ele>463</ele>
        <time>2021-03-13T15:34:42Z</time>
      </trkpt>
      <trkpt lat="43.0249" lon="0.79619">
        <ele>463</ele>
        <time>2021-03-13T15:34:43Z</time>
      </trkpt>
      <trkpt lat="43.0249" lon="0.79619">
        <ele>463</ele>
        <time>2021-03-13T15:34:44Z</time>
      </trkpt>
      <trkpt lat="43.0249" lon="0.79619">
        <ele>463</ele>
        <time>2021-03-13T15:34:45Z</time>
      </trkpt>
      <trkpt lat="43.0249" lon="0.79619">
        <ele>463</ele>
        <time>2021-03-13T15:34:46Z</time>
      </trkpt>
      <trkpt lat="43.0249" lon="0.79619">
        <ele>463</ele>
        <time>2021-03-13T15:34:47Z</time>
      </trkpt>
      <trkpt lat="43.0249" lon="0.79619">
        <ele>463</ele>
        <time>2021-03-13T15:34:48Z</time>
      </trkpt>
      <trkpt lat="43.0249" lon="0.79619">
        <ele>463</ele>
        <time>2021-03-13T15:34:49Z</time>
      </trkpt>
      <trkpt lat="43.0249" lon="0.79619">
        <ele>463</ele>
        <time>2021-03-13T15:34:50Z</time>
      </trkpt>
      <trkpt lat="43.0249" lon="0.79619">
        <ele>463</ele>
        <time>2021-03-13T15:34:51Z</time>
      </trkpt>
      <trkpt lat="43.02491" lon="0.79619">
        <ele>463</ele>
        <time>2021-03-13T15:34:52Z</time>
      </trkpt>
      <trkpt lat="43.02491" lon="0.79619">
        <ele>463</ele>
        <time>2021-03-13T15:34:53Z</time>
      </trkpt>
      <trkpt lat="43.02491" lon="0.79619">
        <ele>463</ele>
        <time>2021-03-13T15:34:54Z</time>
      </trkpt>
      <trkpt lat="43.02491" lon="0.79619">
        <ele>463</ele>
        <time>2021-03-13T15:34:55Z</time>
      </trkpt>
      <trkpt lat="43.02491" lon="0.79619">
        <ele>463</ele>
        <time>2021-03-13T15:34:56Z</time>
      </trkpt>
      <trkpt lat="43.02491" lon="0.79619">
        <ele>463</ele>
        <time>2021-03-13T15:34:57Z</time>
      </trkpt>
      <trkpt lat="43.02491" lon="0.79619">
        <ele>463</ele>
        <time>2021-03-13T15:34:58Z</time>
      </trkpt>
      <trkpt lat="43.02491" lon="0.79619">
        <ele>463</ele>
        <time>2021-03-13T15:34:59Z</time>
      </trkpt>
      <trkpt lat="43.02491" lon="0.79619">
        <ele>463</ele>
        <time>2021-03-13T15:35:00Z</time>
      </trkpt>
      <trkpt lat="43.02491" lon="0.79619">
        <ele>463</ele>
        <time>2021-03-13T15:35:01Z</time>
      </trkpt>
      <trkpt lat="43.02491" lon="0.79619">
        <ele>463</ele>
        <time>2021-03-13T15:35:02Z</time>
      </trkpt>
      <trkpt lat="43.02491" lon="0.79619">
        <ele>463</ele>
        <time>2021-03-13T15:35:03Z</time>
      </trkpt>
      <trkpt lat="43.02491" lon="0.79619">
        <ele>463</ele>
        <time>2021-03-13T15:35:04Z</time>
      </trkpt>
      <trkpt lat="43.02492" lon="0.79619">
        <ele>463</ele>
        <time>2021-03-13T15:35:05Z</time>
      </trkpt>
      <trkpt lat="43.02492" lon="0.79619">
        <ele>463</ele>
        <time>2021-03-13T15:35:06Z</time>
      </trkpt>
      <trkpt lat="43.02492" lon="0.79619">
        <ele>463</ele>
        <time>2021-03-13T15:35:07Z</time>
      </trkpt>
      <trkpt lat="43.02492" lon="0.79619">
        <ele>463</ele>
        <time>2021-03-13T15:35:08Z</time>
      </trkpt>
      <trkpt lat="43.02501" lon="0.79622">
        <ele>463</ele>
        <time>2021-03-13T15:35:09Z</time>
      </trkpt>
      <trkpt lat="43.02504" lon="0.79623">
        <ele>462</ele>
        <time>2021-03-13T15:35:10Z</time>
      </trkpt>
      <trkpt lat="43.02506" lon="0.79623">
        <ele>462</ele>
        <time>2021-03-13T15:35:11Z</time>
      </trkpt>
      <trkpt lat="43.02519" lon="0.79624">
        <ele>462</ele>
        <time>2021-03-13T15:35:12Z</time>
      </trkpt>
      <trkpt lat="43.02524" lon="0.79623">
        <ele>462</ele>
        <time>2021-03-13T15:35:13Z</time>
      </trkpt>
      <trkpt lat="43.02526" lon="0.79623">
        <ele>462</ele>
        <time>2021-03-13T15:35:14Z</time>
      </trkpt>
      <trkpt lat="43.02529" lon="0.79623">
        <ele>462</ele>
        <time>2021-03-13T15:35:15Z</time>
      </trkpt>
      <trkpt lat="43.02538" lon="0.79623">
        <ele>462</ele>
        <time>2021-03-13T15:35:16Z</time>
      </trkpt>
      <trkpt lat="43.02541" lon="0.79623">
        <ele>462</ele>
        <time>2021-03-13T15:35:17Z</time>
      </trkpt>
      <trkpt lat="43.02551" lon="0.79623">
        <ele>462</ele>
        <time>2021-03-13T15:35:18Z</time>
      </trkpt>
      <trkpt lat="43.02554" lon="0.79623">
        <ele>462</ele>
        <time>2021-03-13T15:35:19Z</time>
      </trkpt>
      <trkpt lat="43.02563" lon="0.79622">
        <ele>460</ele>
        <time>2021-03-13T15:35:20Z</time>
      </trkpt>
      <trkpt lat="43.02566" lon="0.79621">
        <ele>460</ele>
        <time>2021-03-13T15:35:21Z</time>
      </trkpt>
      <trkpt lat="43.02576" lon="0.79618">
        <ele>460</ele>
        <time>2021-03-13T15:35:22Z</time>
      </trkpt>
      <trkpt lat="43.02579" lon="0.79616">
        <ele>460</ele>
        <time>2021-03-13T15:35:23Z</time>
      </trkpt>
      <trkpt lat="43.02582" lon="0.79616">
        <ele>460</ele>
        <time>2021-03-13T15:35:24Z</time>
      </trkpt>
      <trkpt lat="43.02585" lon="0.79616">
        <ele>460</ele>
        <time>2021-03-13T15:35:25Z</time>
      </trkpt>
      <trkpt lat="43.02588" lon="0.79615">
        <ele>460</ele>
        <time>2021-03-13T15:35:26Z</time>
      </trkpt>
      <trkpt lat="43.0259" lon="0.79616">
        <ele>460</ele>
        <time>2021-03-13T15:35:27Z</time>
      </trkpt>
      <trkpt lat="43.02592" lon="0.79616">
        <ele>460</ele>
        <time>2021-03-13T15:35:28Z</time>
      </trkpt>
      <trkpt lat="43.02595" lon="0.79617">
        <ele>460</ele>
        <time>2021-03-13T15:35:29Z</time>
      </trkpt>
      <trkpt lat="43.02597" lon="0.79617">
        <ele>462</ele>
        <time>2021-03-13T15:35:30Z</time>
      </trkpt>
      <trkpt lat="43.02598" lon="0.79618">
        <ele>462</ele>
        <time>2021-03-13T15:35:31Z</time>
      </trkpt>
      <trkpt lat="43.02599" lon="0.79619">
        <ele>462</ele>
        <time>2021-03-13T15:35:32Z</time>
      </trkpt>
      <trkpt lat="43.02601" lon="0.7962">
        <ele>462</ele>
        <time>2021-03-13T15:35:33Z</time>
      </trkpt>
      <trkpt lat="43.02602" lon="0.79622">
        <ele>462</ele>
        <time>2021-03-13T15:35:34Z</time>
      </trkpt>
      <trkpt lat="43.02602" lon="0.79624">
        <ele>462</ele>
        <time>2021-03-13T15:35:35Z</time>
      </trkpt>
      <trkpt lat="43.02602" lon="0.79627">
        <ele>462</ele>
        <time>2021-03-13T15:35:36Z</time>
      </trkpt>
      <trkpt lat="43.02602" lon="0.79629">
        <ele>462</ele>
        <time>2021-03-13T15:35:37Z</time>
      </trkpt>
      <trkpt lat="43.02602" lon="0.79632">
        <ele>462</ele>
        <time>2021-03-13T15:35:38Z</time>
      </trkpt>
      <trkpt lat="43.02602" lon="0.79634">
        <ele>462</ele>
        <time>2021-03-13T15:35:39Z</time>
      </trkpt>
      <trkpt lat="43.02602" lon="0.79636">
        <ele>464</ele>
        <time>2021-03-13T15:35:40Z</time>
      </trkpt>
      <trkpt lat="43.02602" lon="0.79639">
        <ele>464</ele>
        <time>2021-03-13T15:35:41Z</time>
      </trkpt>
      <trkpt lat="43.02602" lon="0.79641">
        <ele>464</ele>
        <time>2021-03-13T15:35:42Z</time>
      </trkpt>
      <trkpt lat="43.02601" lon="0.79644">
        <ele>464</ele>
        <time>2021-03-13T15:35:43Z</time>
      </trkpt>
      <trkpt lat="43.02601" lon="0.79647">
        <ele>464</ele>
        <time>2021-03-13T15:35:44Z</time>
      </trkpt>
      <trkpt lat="43.026" lon="0.79649">
        <ele>464</ele>
        <time>2021-03-13T15:35:45Z</time>
      </trkpt>
      <trkpt lat="43.026" lon="0.79652">
        <ele>464</ele>
        <time>2021-03-13T15:35:46Z</time>
      </trkpt>
      <trkpt lat="43.02599" lon="0.79655">
        <ele>464</ele>
        <time>2021-03-13T15:35:47Z</time>
      </trkpt>
      <trkpt lat="43.02599" lon="0.79658">
        <ele>464</ele>
        <time>2021-03-13T15:35:48Z</time>
      </trkpt>
      <trkpt lat="43.02599" lon="0.79661">
        <ele>464</ele>
        <time>2021-03-13T15:35:49Z</time>
      </trkpt>
      <trkpt lat="43.02598" lon="0.79664">
        <ele>464</ele>
        <time>2021-03-13T15:35:50Z</time>
      </trkpt>
      <trkpt lat="43.02598" lon="0.79667">
        <ele>464</ele>
        <time>2021-03-13T15:35:51Z</time>
      </trkpt>
      <trkpt lat="43.02597" lon="0.79669">
        <ele>464</ele>
        <time>2021-03-13T15:35:52Z</time>
      </trkpt>
      <trkpt lat="43.02597" lon="0.79672">
        <ele>464</ele>
        <time>2021-03-13T15:35:53Z</time>
      </trkpt>
      <trkpt lat="43.02596" lon="0.79675">
        <ele>464</ele>
        <time>2021-03-13T15:35:54Z</time>
      </trkpt>
      <trkpt lat="43.02596" lon="0.79678">
        <ele>464</ele>
        <time>2021-03-13T15:35:55Z</time>
      </trkpt>
      <trkpt lat="43.02596" lon="0.79681">
        <ele>464</ele>
        <time>2021-03-13T15:35:56Z</time>
      </trkpt>
      <trkpt lat="43.02596" lon="0.79684">
        <ele>464</ele>
        <time>2021-03-13T15:35:57Z</time>
      </trkpt>
      <trkpt lat="43.02596" lon="0.79687">
        <ele>464</ele>
        <time>2021-03-13T15:35:58Z</time>
      </trkpt>
      <trkpt lat="43.02596" lon="0.7969">
        <ele>464</ele>
        <time>2021-03-13T15:35:59Z</time>
      </trkpt>
      <trkpt lat="43.02595" lon="0.79694">
        <ele>466</ele>
        <time>2021-03-13T15:36:00Z</time>
      </trkpt>
      <trkpt lat="43.02595" lon="0.79697">
        <ele>466</ele>
        <time>2021-03-13T15:36:01Z</time>
      </trkpt>
      <trkpt lat="43.02594" lon="0.79701">
        <ele>466</ele>
        <time>2021-03-13T15:36:02Z</time>
      </trkpt>
      <trkpt lat="43.02594" lon="0.79705">
        <ele>466</ele>
        <time>2021-03-13T15:36:03Z</time>
      </trkpt>
      <trkpt lat="43.02593" lon="0.79709">
        <ele>466</ele>
        <time>2021-03-13T15:36:04Z</time>
      </trkpt>
      <trkpt lat="43.02592" lon="0.79711">
        <ele>466</ele>
        <time>2021-03-13T15:36:05Z</time>
      </trkpt>
      <trkpt lat="43.02591" lon="0.79714">
        <ele>466</ele>
        <time>2021-03-13T15:36:06Z</time>
      </trkpt>
      <trkpt lat="43.02591" lon="0.79716">
        <ele>466</ele>
        <time>2021-03-13T15:36:07Z</time>
      </trkpt>
      <trkpt lat="43.02587" lon="0.79728">
        <ele>466</ele>
        <time>2021-03-13T15:36:08Z</time>
      </trkpt>
      <trkpt lat="43.02585" lon="0.79732">
        <ele>466</ele>
        <time>2021-03-13T15:36:09Z</time>
      </trkpt>
      <trkpt lat="43.02583" lon="0.79735">
        <ele>464</ele>
        <time>2021-03-13T15:36:10Z</time>
      </trkpt>
      <trkpt lat="43.02582" lon="0.79738">
        <ele>464</ele>
        <time>2021-03-13T15:36:11Z</time>
      </trkpt>
      <trkpt lat="43.02576" lon="0.79749">
        <ele>464</ele>
        <time>2021-03-13T15:36:12Z</time>
      </trkpt>
      <trkpt lat="43.02573" lon="0.79754">
        <ele>464</ele>
        <time>2021-03-13T15:36:13Z</time>
      </trkpt>
      <trkpt lat="43.02573" lon="0.79757">
        <ele>464</ele>
        <time>2021-03-13T15:36:14Z</time>
      </trkpt>
      <trkpt lat="43.02572" lon="0.7976">
        <ele>464</ele>
        <time>2021-03-13T15:36:15Z</time>
      </trkpt>
      <trkpt lat="43.02572" lon="0.79763">
        <ele>464</ele>
        <time>2021-03-13T15:36:16Z</time>
      </trkpt>
      <trkpt lat="43.02571" lon="0.79776">
        <ele>464</ele>
        <time>2021-03-13T15:36:17Z</time>
      </trkpt>
      <trkpt lat="43.02571" lon="0.79781">
        <ele>464</ele>
        <time>2021-03-13T15:36:18Z</time>
      </trkpt>
      <trkpt lat="43.02572" lon="0.79795">
        <ele>464</ele>
        <time>2021-03-13T15:36:19Z</time>
      </trkpt>
      <trkpt lat="43.02572" lon="0.798">
        <ele>461</ele>
        <time>2021-03-13T15:36:20Z</time>
      </trkpt>
      <trkpt lat="43.02571" lon="0.79812">
        <ele>461</ele>
        <time>2021-03-13T15:36:21Z</time>
      </trkpt>
      <trkpt lat="43.02571" lon="0.79816">
        <ele>461</ele>
        <time>2021-03-13T15:36:22Z</time>
      </trkpt>
      <trkpt lat="43.0257" lon="0.79827">
        <ele>461</ele>
        <time>2021-03-13T15:36:23Z</time>
      </trkpt>
      <trkpt lat="43.0257" lon="0.7983">
        <ele>461</ele>
        <time>2021-03-13T15:36:24Z</time>
      </trkpt>
      <trkpt lat="43.0257" lon="0.79833">
        <ele>459</ele>
        <time>2021-03-13T15:36:25Z</time>
      </trkpt>
      <trkpt lat="43.0257" lon="0.79847">
        <ele>459</ele>
        <time>2021-03-13T15:36:26Z</time>
      </trkpt>
      <trkpt lat="43.0257" lon="0.7985">
        <ele>459</ele>
        <time>2021-03-13T15:36:27Z</time>
      </trkpt>
      <trkpt lat="43.02569" lon="0.79853">
        <ele>459</ele>
        <time>2021-03-13T15:36:28Z</time>
      </trkpt>
      <trkpt lat="43.02569" lon="0.79866">
        <ele>459</ele>
        <time>2021-03-13T15:36:29Z</time>
      </trkpt>
      <trkpt lat="43.0257" lon="0.79868">
        <ele>458</ele>
        <time>2021-03-13T15:36:30Z</time>
      </trkpt>
      <trkpt lat="43.0257" lon="0.79871">
        <ele>458</ele>
        <time>2021-03-13T15:36:31Z</time>
      </trkpt>
      <trkpt lat="43.02571" lon="0.79882">
        <ele>458</ele>
        <time>2021-03-13T15:36:32Z</time>
      </trkpt>
      <trkpt lat="43.02571" lon="0.79885">
        <ele>458</ele>
        <time>2021-03-13T15:36:33Z</time>
      </trkpt>
      <trkpt lat="43.02571" lon="0.79887">
        <ele>458</ele>
        <time>2021-03-13T15:36:34Z</time>
      </trkpt>
      <trkpt lat="43.02571" lon="0.79897">
        <ele>458</ele>
        <time>2021-03-13T15:36:35Z</time>
      </trkpt>
      <trkpt lat="43.02571" lon="0.79899">
        <ele>458</ele>
        <time>2021-03-13T15:36:36Z</time>
      </trkpt>
      <trkpt lat="43.02572" lon="0.79902">
        <ele>458</ele>
        <time>2021-03-13T15:36:37Z</time>
      </trkpt>
      <trkpt lat="43.02573" lon="0.79911">
        <ele>458</ele>
        <time>2021-03-13T15:36:38Z</time>
      </trkpt>
      <trkpt lat="43.02573" lon="0.79914">
        <ele>458</ele>
        <time>2021-03-13T15:36:39Z</time>
      </trkpt>
      <trkpt lat="43.02573" lon="0.79917">
        <ele>458</ele>
        <time>2021-03-13T15:36:40Z</time>
      </trkpt>
      <trkpt lat="43.02573" lon="0.79931">
        <ele>458</ele>
        <time>2021-03-13T15:36:41Z</time>
      </trkpt>
      <trkpt lat="43.02573" lon="0.79937">
        <ele>458</ele>
        <time>2021-03-13T15:36:42Z</time>
      </trkpt>
      <trkpt lat="43.02573" lon="0.79943">
        <ele>458</ele>
        <time>2021-03-13T15:36:43Z</time>
      </trkpt>
      <trkpt lat="43.02573" lon="0.79949">
        <ele>458</ele>
        <time>2021-03-13T15:36:44Z</time>
      </trkpt>
      <trkpt lat="43.02572" lon="0.79955">
        <ele>458</ele>
        <time>2021-03-13T15:36:45Z</time>
      </trkpt>
      <trkpt lat="43.02572" lon="0.79961">
        <ele>458</ele>
        <time>2021-03-13T15:36:46Z</time>
      </trkpt>
      <trkpt lat="43.02572" lon="0.79967">
        <ele>458</ele>
        <time>2021-03-13T15:36:47Z</time>
      </trkpt>
      <trkpt lat="43.02571" lon="0.79973">
        <ele>458</ele>
        <time>2021-03-13T15:36:48Z</time>
      </trkpt>
      <trkpt lat="43.02572" lon="0.79979">
        <ele>458</ele>
        <time>2021-03-13T15:36:49Z</time>
      </trkpt>
      <trkpt lat="43.02572" lon="0.79985">
        <ele>457</ele>
        <time>2021-03-13T15:36:50Z</time>
      </trkpt>
      <trkpt lat="43.02572" lon="0.79988">
        <ele>457</ele>
        <time>2021-03-13T15:36:51Z</time>
      </trkpt>
      <trkpt lat="43.02573" lon="0.7999">
        <ele>457</ele>
        <time>2021-03-13T15:36:52Z</time>
      </trkpt>
      <trkpt lat="43.02573" lon="0.79993">
        <ele>457</ele>
        <time>2021-03-13T15:36:53Z</time>
      </trkpt>
      <trkpt lat="43.02573" lon="0.80006">
        <ele>457</ele>
        <time>2021-03-13T15:36:54Z</time>
      </trkpt>
      <trkpt lat="43.02573" lon="0.80011">
        <ele>457</ele>
        <time>2021-03-13T15:36:55Z</time>
      </trkpt>
      <trkpt lat="43.02573" lon="0.80017">
        <ele>457</ele>
        <time>2021-03-13T15:36:56Z</time>
      </trkpt>
      <trkpt lat="43.02573" lon="0.80023">
        <ele>457</ele>
        <time>2021-03-13T15:36:57Z</time>
      </trkpt>
      <trkpt lat="43.02573" lon="0.80025">
        <ele>457</ele>
        <time>2021-03-13T15:36:58Z</time>
      </trkpt>
      <trkpt lat="43.02572" lon="0.80028">
        <ele>457</ele>
        <time>2021-03-13T15:36:59Z</time>
      </trkpt>
      <trkpt lat="43.02572" lon="0.80031">
        <ele>458</ele>
        <time>2021-03-13T15:37:00Z</time>
      </trkpt>
      <trkpt lat="43.02571" lon="0.80041">
        <ele>458</ele>
        <time>2021-03-13T15:37:01Z</time>
      </trkpt>
      <trkpt lat="43.0257" lon="0.80044">
        <ele>458</ele>
        <time>2021-03-13T15:37:02Z</time>
      </trkpt>
      <trkpt lat="43.0257" lon="0.80047">
        <ele>458</ele>
        <time>2021-03-13T15:37:03Z</time>
      </trkpt>
      <trkpt lat="43.02568" lon="0.80058">
        <ele>458</ele>
        <time>2021-03-13T15:37:04Z</time>
      </trkpt>
      <trkpt lat="43.02567" lon="0.80061">
        <ele>458</ele>
        <time>2021-03-13T15:37:05Z</time>
      </trkpt>
      <trkpt lat="43.02567" lon="0.80063">
        <ele>458</ele>
        <time>2021-03-13T15:37:06Z</time>
      </trkpt>
      <trkpt lat="43.02565" lon="0.80079">
        <ele>458</ele>
        <time>2021-03-13T15:37:07Z</time>
      </trkpt>
      <trkpt lat="43.02564" lon="0.80085">
        <ele>458</ele>
        <time>2021-03-13T15:37:08Z</time>
      </trkpt>
      <trkpt lat="43.02564" lon="0.80088">
        <ele>458</ele>
        <time>2021-03-13T15:37:09Z</time>
      </trkpt>
      <trkpt lat="43.02564" lon="0.8009">
        <ele>458</ele>
        <time>2021-03-13T15:37:10Z</time>
      </trkpt>
      <trkpt lat="43.02564" lon="0.80093">
        <ele>458</ele>
        <time>2021-03-13T15:37:11Z</time>
      </trkpt>
      <trkpt lat="43.02564" lon="0.80103">
        <ele>458</ele>
        <time>2021-03-13T15:37:12Z</time>
      </trkpt>
      <trkpt lat="43.02565" lon="0.80105">
        <ele>458</ele>
        <time>2021-03-13T15:37:13Z</time>
      </trkpt>
      <trkpt lat="43.02565" lon="0.80108">
        <ele>458</ele>
        <time>2021-03-13T15:37:14Z</time>
      </trkpt>
      <trkpt lat="43.02565" lon="0.8011">
        <ele>458</ele>
        <time>2021-03-13T15:37:15Z</time>
      </trkpt>
      <trkpt lat="43.02564" lon="0.80122">
        <ele>458</ele>
        <time>2021-03-13T15:37:16Z</time>
      </trkpt>
      <trkpt lat="43.02564" lon="0.80126">
        <ele>458</ele>
        <time>2021-03-13T15:37:17Z</time>
      </trkpt>
      <trkpt lat="43.02563" lon="0.8013">
        <ele>458</ele>
        <time>2021-03-13T15:37:18Z</time>
      </trkpt>
      <trkpt lat="43.02561" lon="0.80134">
        <ele>458</ele>
        <time>2021-03-13T15:37:19Z</time>
      </trkpt>
      <trkpt lat="43.02559" lon="0.80139">
        <ele>457</ele>
        <time>2021-03-13T15:37:20Z</time>
      </trkpt>
      <trkpt lat="43.02558" lon="0.80141">
        <ele>457</ele>
        <time>2021-03-13T15:37:21Z</time>
      </trkpt>
      <trkpt lat="43.02557" lon="0.80144">
        <ele>457</ele>
        <time>2021-03-13T15:37:22Z</time>
      </trkpt>
      <trkpt lat="43.02556" lon="0.80146">
        <ele>457</ele>
        <time>2021-03-13T15:37:23Z</time>
      </trkpt>
      <trkpt lat="43.02552" lon="0.80156">
        <ele>457</ele>
        <time>2021-03-13T15:37:24Z</time>
      </trkpt>
      <trkpt lat="43.02552" lon="0.80159">
        <ele>457</ele>
        <time>2021-03-13T15:37:25Z</time>
      </trkpt>
      <trkpt lat="43.02551" lon="0.80161">
        <ele>457</ele>
        <time>2021-03-13T15:37:26Z</time>
      </trkpt>
      <trkpt lat="43.02548" lon="0.80172">
        <ele>457</ele>
        <time>2021-03-13T15:37:27Z</time>
      </trkpt>
      <trkpt lat="43.02547" lon="0.80175">
        <ele>457</ele>
        <time>2021-03-13T15:37:28Z</time>
      </trkpt>
      <trkpt lat="43.02546" lon="0.80178">
        <ele>457</ele>
        <time>2021-03-13T15:37:29Z</time>
      </trkpt>
      <trkpt lat="43.02544" lon="0.8019">
        <ele>453</ele>
        <time>2021-03-13T15:37:30Z</time>
      </trkpt>
      <trkpt lat="43.02543" lon="0.80193">
        <ele>453</ele>
        <time>2021-03-13T15:37:31Z</time>
      </trkpt>
      <trkpt lat="43.02541" lon="0.80205">
        <ele>453</ele>
        <time>2021-03-13T15:37:32Z</time>
      </trkpt>
      <trkpt lat="43.0254" lon="0.8021">
        <ele>453</ele>
        <time>2021-03-13T15:37:33Z</time>
      </trkpt>
      <trkpt lat="43.02537" lon="0.80224">
        <ele>453</ele>
        <time>2021-03-13T15:37:34Z</time>
      </trkpt>
      <trkpt lat="43.02536" lon="0.80229">
        <ele>451</ele>
        <time>2021-03-13T15:37:35Z</time>
      </trkpt>
      <trkpt lat="43.02534" lon="0.80243">
        <ele>451</ele>
        <time>2021-03-13T15:37:36Z</time>
      </trkpt>
      <trkpt lat="43.02533" lon="0.80248">
        <ele>451</ele>
        <time>2021-03-13T15:37:37Z</time>
      </trkpt>
      <trkpt lat="43.0253" lon="0.8026">
        <ele>451</ele>
        <time>2021-03-13T15:37:38Z</time>
      </trkpt>
      <trkpt lat="43.02528" lon="0.80263">
        <ele>451</ele>
        <time>2021-03-13T15:37:39Z</time>
      </trkpt>
      <trkpt lat="43.02523" lon="0.80274">
        <ele>451</ele>
        <time>2021-03-13T15:37:40Z</time>
      </trkpt>
      <trkpt lat="43.02521" lon="0.80277">
        <ele>451</ele>
        <time>2021-03-13T15:37:41Z</time>
      </trkpt>
      <trkpt lat="43.02516" lon="0.80285">
        <ele>451</ele>
        <time>2021-03-13T15:37:42Z</time>
      </trkpt>
      <trkpt lat="43.02514" lon="0.80289">
        <ele>451</ele>
        <time>2021-03-13T15:37:43Z</time>
      </trkpt>
      <trkpt lat="43.02508" lon="0.80298">
        <ele>451</ele>
        <time>2021-03-13T15:37:44Z</time>
      </trkpt>
      <trkpt lat="43.02506" lon="0.80301">
        <ele>449</ele>
        <time>2021-03-13T15:37:45Z</time>
      </trkpt>
      <trkpt lat="43.025" lon="0.80311">
        <ele>449</ele>
        <time>2021-03-13T15:37:46Z</time>
      </trkpt>
      <trkpt lat="43.02499" lon="0.80314">
        <ele>449</ele>
        <time>2021-03-13T15:37:47Z</time>
      </trkpt>
      <trkpt lat="43.02495" lon="0.80324">
        <ele>449</ele>
        <time>2021-03-13T15:37:48Z</time>
      </trkpt>
      <trkpt lat="43.02495" lon="0.80326">
        <ele>449</ele>
        <time>2021-03-13T15:37:49Z</time>
      </trkpt>
      <trkpt lat="43.02494" lon="0.80329">
        <ele>448</ele>
        <time>2021-03-13T15:37:50Z</time>
      </trkpt>
      <trkpt lat="43.02491" lon="0.80339">
        <ele>448</ele>
        <time>2021-03-13T15:37:51Z</time>
      </trkpt>
      <trkpt lat="43.0249" lon="0.80341">
        <ele>448</ele>
        <time>2021-03-13T15:37:52Z</time>
      </trkpt>
      <trkpt lat="43.02489" lon="0.80344">
        <ele>448</ele>
        <time>2021-03-13T15:37:53Z</time>
      </trkpt>
      <trkpt lat="43.02487" lon="0.80352">
        <ele>448</ele>
        <time>2021-03-13T15:37:54Z</time>
      </trkpt>
      <trkpt lat="43.02487" lon="0.80354">
        <ele>449</ele>
        <time>2021-03-13T15:37:55Z</time>
      </trkpt>
      <trkpt lat="43.02486" lon="0.80355">
        <ele>449</ele>
        <time>2021-03-13T15:37:56Z</time>
      </trkpt>
      <trkpt lat="43.02486" lon="0.80357">
        <ele>449</ele>
        <time>2021-03-13T15:37:57Z</time>
      </trkpt>
      <trkpt lat="43.02485" lon="0.80367">
        <ele>449</ele>
        <time>2021-03-13T15:37:58Z</time>
      </trkpt>
      <trkpt lat="43.02485" lon="0.8037">
        <ele>449</ele>
        <time>2021-03-13T15:37:59Z</time>
      </trkpt>
      <trkpt lat="43.02486" lon="0.80373">
        <ele>451</ele>
        <time>2021-03-13T15:38:00Z</time>
      </trkpt>
      <trkpt lat="43.02486" lon="0.80375">
        <ele>451</ele>
        <time>2021-03-13T15:38:01Z</time>
      </trkpt>
      <trkpt lat="43.02488" lon="0.80377">
        <ele>451</ele>
        <time>2021-03-13T15:38:02Z</time>
      </trkpt>
      <trkpt lat="43.02489" lon="0.80379">
        <ele>451</ele>
        <time>2021-03-13T15:38:03Z</time>
      </trkpt>
      <trkpt lat="43.02491" lon="0.80381">
        <ele>451</ele>
        <time>2021-03-13T15:38:04Z</time>
      </trkpt>
      <trkpt lat="43.02492" lon="0.80383">
        <ele>452</ele>
        <time>2021-03-13T15:38:05Z</time>
      </trkpt>
      <trkpt lat="43.02494" lon="0.80385">
        <ele>452</ele>
        <time>2021-03-13T15:38:06Z</time>
      </trkpt>
      <trkpt lat="43.02495" lon="0.80385">
        <ele>452</ele>
        <time>2021-03-13T15:38:07Z</time>
      </trkpt>
      <trkpt lat="43.02496" lon="0.80385">
        <ele>452</ele>
        <time>2021-03-13T15:38:08Z</time>
      </trkpt>
      <trkpt lat="43.02497" lon="0.80384">
        <ele>452</ele>
        <time>2021-03-13T15:38:09Z</time>
      </trkpt>
      <trkpt lat="43.02498" lon="0.80384">
        <ele>454</ele>
        <time>2021-03-13T15:38:10Z</time>
      </trkpt>
      <trkpt lat="43.02499" lon="0.80384">
        <ele>454</ele>
        <time>2021-03-13T15:38:11Z</time>
      </trkpt>
      <trkpt lat="43.02506" lon="0.80381">
        <ele>454</ele>
        <time>2021-03-13T15:38:12Z</time>
      </trkpt>
      <trkpt lat="43.02508" lon="0.80379">
        <ele>454</ele>
        <time>2021-03-13T15:38:13Z</time>
      </trkpt>
      <trkpt lat="43.0251" lon="0.80377">
        <ele>454</ele>
        <time>2021-03-13T15:38:14Z</time>
      </trkpt>
      <trkpt lat="43.02511" lon="0.80375">
        <ele>455</ele>
        <time>2021-03-13T15:38:15Z</time>
      </trkpt>
      <trkpt lat="43.02513" lon="0.80373">
        <ele>455</ele>
        <time>2021-03-13T15:38:16Z</time>
      </trkpt>
      <trkpt lat="43.02515" lon="0.80371">
        <ele>455</ele>
        <time>2021-03-13T15:38:17Z</time>
      </trkpt>
      <trkpt lat="43.02517" lon="0.80369">
        <ele>455</ele>
        <time>2021-03-13T15:38:18Z</time>
      </trkpt>
      <trkpt lat="43.02519" lon="0.80367">
        <ele>455</ele>
        <time>2021-03-13T15:38:19Z</time>
      </trkpt>
      <trkpt lat="43.0252" lon="0.80364">
        <ele>456</ele>
        <time>2021-03-13T15:38:20Z</time>
      </trkpt>
      <trkpt lat="43.02522" lon="0.80362">
        <ele>456</ele>
        <time>2021-03-13T15:38:21Z</time>
      </trkpt>
      <trkpt lat="43.02524" lon="0.8036">
        <ele>456</ele>
        <time>2021-03-13T15:38:22Z</time>
      </trkpt>
      <trkpt lat="43.02526" lon="0.80358">
        <ele>456</ele>
        <time>2021-03-13T15:38:23Z</time>
      </trkpt>
      <trkpt lat="43.02528" lon="0.80356">
        <ele>456</ele>
        <time>2021-03-13T15:38:24Z</time>
      </trkpt>
      <trkpt lat="43.0253" lon="0.80354">
        <ele>456</ele>
        <time>2021-03-13T15:38:25Z</time>
      </trkpt>
      <trkpt lat="43.02531" lon="0.80353">
        <ele>456</ele>
        <time>2021-03-13T15:38:26Z</time>
      </trkpt>
      <trkpt lat="43.02533" lon="0.80351">
        <ele>456</ele>
        <time>2021-03-13T15:38:27Z</time>
      </trkpt>
      <trkpt lat="43.02535" lon="0.8035">
        <ele>456</ele>
        <time>2021-03-13T15:38:28Z</time>
      </trkpt>
      <trkpt lat="43.02537" lon="0.80349">
        <ele>456</ele>
        <time>2021-03-13T15:38:29Z</time>
      </trkpt>
      <trkpt lat="43.02538" lon="0.80348">
        <ele>458</ele>
        <time>2021-03-13T15:38:30Z</time>
      </trkpt>
      <trkpt lat="43.0254" lon="0.80347">
        <ele>458</ele>
        <time>2021-03-13T15:38:31Z</time>
      </trkpt>
      <trkpt lat="43.02541" lon="0.80346">
        <ele>458</ele>
        <time>2021-03-13T15:38:32Z</time>
      </trkpt>
      <trkpt lat="43.02543" lon="0.80345">
        <ele>458</ele>
        <time>2021-03-13T15:38:33Z</time>
      </trkpt>
      <trkpt lat="43.02544" lon="0.80343">
        <ele>458</ele>
        <time>2021-03-13T15:38:34Z</time>
      </trkpt>
      <trkpt lat="43.02545" lon="0.80342">
        <ele>460</ele>
        <time>2021-03-13T15:38:35Z</time>
      </trkpt>
      <trkpt lat="43.02547" lon="0.80341">
        <ele>460</ele>
        <time>2021-03-13T15:38:36Z</time>
      </trkpt>
      <trkpt lat="43.02548" lon="0.8034">
        <ele>460</ele>
        <time>2021-03-13T15:38:37Z</time>
      </trkpt>
      <trkpt lat="43.0255" lon="0.80341">
        <ele>460</ele>
        <time>2021-03-13T15:38:38Z</time>
      </trkpt>
      <trkpt lat="43.02551" lon="0.80341">
        <ele>460</ele>
        <time>2021-03-13T15:38:39Z</time>
      </trkpt>
      <trkpt lat="43.02552" lon="0.80342">
        <ele>462</ele>
        <time>2021-03-13T15:38:40Z</time>
      </trkpt>
      <trkpt lat="43.02554" lon="0.80343">
        <ele>462</ele>
        <time>2021-03-13T15:38:41Z</time>
      </trkpt>
      <trkpt lat="43.02555" lon="0.80344">
        <ele>462</ele>
        <time>2021-03-13T15:38:42Z</time>
      </trkpt>
      <trkpt lat="43.02556" lon="0.80346">
        <ele>462</ele>
        <time>2021-03-13T15:38:43Z</time>
      </trkpt>
      <trkpt lat="43.02556" lon="0.80349">
        <ele>462</ele>
        <time>2021-03-13T15:38:44Z</time>
      </trkpt>
      <trkpt lat="43.02556" lon="0.80351">
        <ele>464</ele>
        <time>2021-03-13T15:38:45Z</time>
      </trkpt>
      <trkpt lat="43.02556" lon="0.80353">
        <ele>464</ele>
        <time>2021-03-13T15:38:46Z</time>
      </trkpt>
      <trkpt lat="43.02556" lon="0.80356">
        <ele>464</ele>
        <time>2021-03-13T15:38:47Z</time>
      </trkpt>
      <trkpt lat="43.02556" lon="0.80359">
        <ele>464</ele>
        <time>2021-03-13T15:38:48Z</time>
      </trkpt>
      <trkpt lat="43.02556" lon="0.80362">
        <ele>464</ele>
        <time>2021-03-13T15:38:49Z</time>
      </trkpt>
      <trkpt lat="43.02555" lon="0.80365">
        <ele>464</ele>
        <time>2021-03-13T15:38:50Z</time>
      </trkpt>
      <trkpt lat="43.02555" lon="0.80367">
        <ele>464</ele>
        <time>2021-03-13T15:38:51Z</time>
      </trkpt>
      <trkpt lat="43.02555" lon="0.80369">
        <ele>464</ele>
        <time>2021-03-13T15:38:52Z</time>
      </trkpt>
      <trkpt lat="43.02556" lon="0.80371">
        <ele>464</ele>
        <time>2021-03-13T15:38:53Z</time>
      </trkpt>
      <trkpt lat="43.02557" lon="0.80373">
        <ele>464</ele>
        <time>2021-03-13T15:38:54Z</time>
      </trkpt>
      <trkpt lat="43.02558" lon="0.80375">
        <ele>465</ele>
        <time>2021-03-13T15:38:55Z</time>
      </trkpt>
      <trkpt lat="43.02558" lon="0.80377">
        <ele>465</ele>
        <time>2021-03-13T15:38:56Z</time>
      </trkpt>
      <trkpt lat="43.02559" lon="0.80378">
        <ele>465</ele>
        <time>2021-03-13T15:38:57Z</time>
      </trkpt>
      <trkpt lat="43.02561" lon="0.80378">
        <ele>465</ele>
        <time>2021-03-13T15:38:58Z</time>
      </trkpt>
      <trkpt lat="43.02562" lon="0.80379">
        <ele>465</ele>
        <time>2021-03-13T15:38:59Z</time>
      </trkpt>
      <trkpt lat="43.02563" lon="0.80379">
        <ele>467</ele>
        <time>2021-03-13T15:39:00Z</time>
      </trkpt>
      <trkpt lat="43.02564" lon="0.8038">
        <ele>467</ele>
        <time>2021-03-13T15:39:01Z</time>
      </trkpt>
      <trkpt lat="43.02565" lon="0.80381">
        <ele>467</ele>
        <time>2021-03-13T15:39:02Z</time>
      </trkpt>
      <trkpt lat="43.02566" lon="0.80381">
        <ele>467</ele>
        <time>2021-03-13T15:39:03Z</time>
      </trkpt>
      <trkpt lat="43.02567" lon="0.8038">
        <ele>467</ele>
        <time>2021-03-13T15:39:04Z</time>
      </trkpt>
      <trkpt lat="43.02569" lon="0.80379">
        <ele>469</ele>
        <time>2021-03-13T15:39:05Z</time>
      </trkpt>
      <trkpt lat="43.0257" lon="0.80378">
        <ele>469</ele>
        <time>2021-03-13T15:39:06Z</time>
      </trkpt>
      <trkpt lat="43.02571" lon="0.80377">
        <ele>469</ele>
        <time>2021-03-13T15:39:07Z</time>
      </trkpt>
      <trkpt lat="43.02572" lon="0.80376">
        <ele>469</ele>
        <time>2021-03-13T15:39:08Z</time>
      </trkpt>
      <trkpt lat="43.02574" lon="0.80375">
        <ele>469</ele>
        <time>2021-03-13T15:39:09Z</time>
      </trkpt>
      <trkpt lat="43.02575" lon="0.80373">
        <ele>470</ele>
        <time>2021-03-13T15:39:10Z</time>
      </trkpt>
      <trkpt lat="43.02576" lon="0.80372">
        <ele>470</ele>
        <time>2021-03-13T15:39:11Z</time>
      </trkpt>
      <trkpt lat="43.02577" lon="0.8037">
        <ele>470</ele>
        <time>2021-03-13T15:39:12Z</time>
      </trkpt>
      <trkpt lat="43.02578" lon="0.80368">
        <ele>470</ele>
        <time>2021-03-13T15:39:13Z</time>
      </trkpt>
      <trkpt lat="43.02579" lon="0.80366">
        <ele>470</ele>
        <time>2021-03-13T15:39:14Z</time>
      </trkpt>
      <trkpt lat="43.0258" lon="0.80365">
        <ele>471</ele>
        <time>2021-03-13T15:39:15Z</time>
      </trkpt>
      <trkpt lat="43.0258" lon="0.80363">
        <ele>471</ele>
        <time>2021-03-13T15:39:16Z</time>
      </trkpt>
      <trkpt lat="43.02581" lon="0.8036">
        <ele>471</ele>
        <time>2021-03-13T15:39:17Z</time>
      </trkpt>
      <trkpt lat="43.02581" lon="0.80358">
        <ele>471</ele>
        <time>2021-03-13T15:39:18Z</time>
      </trkpt>
      <trkpt lat="43.02582" lon="0.80356">
        <ele>471</ele>
        <time>2021-03-13T15:39:19Z</time>
      </trkpt>
      <trkpt lat="43.02583" lon="0.80354">
        <ele>471</ele>
        <time>2021-03-13T15:39:20Z</time>
      </trkpt>
      <trkpt lat="43.02583" lon="0.80351">
        <ele>471</ele>
        <time>2021-03-13T15:39:21Z</time>
      </trkpt>
      <trkpt lat="43.02584" lon="0.80349">
        <ele>471</ele>
        <time>2021-03-13T15:39:22Z</time>
      </trkpt>
      <trkpt lat="43.02585" lon="0.80346">
        <ele>471</ele>
        <time>2021-03-13T15:39:23Z</time>
      </trkpt>
      <trkpt lat="43.02586" lon="0.80344">
        <ele>471</ele>
        <time>2021-03-13T15:39:24Z</time>
      </trkpt>
      <trkpt lat="43.02587" lon="0.80342">
        <ele>471</ele>
        <time>2021-03-13T15:39:25Z</time>
      </trkpt>
      <trkpt lat="43.02588" lon="0.8034">
        <ele>471</ele>
        <time>2021-03-13T15:39:26Z</time>
      </trkpt>
      <trkpt lat="43.02589" lon="0.80338">
        <ele>471</ele>
        <time>2021-03-13T15:39:27Z</time>
      </trkpt>
      <trkpt lat="43.0259" lon="0.80336">
        <ele>471</ele>
        <time>2021-03-13T15:39:28Z</time>
      </trkpt>
      <trkpt lat="43.02591" lon="0.80334">
        <ele>471</ele>
        <time>2021-03-13T15:39:29Z</time>
      </trkpt>
      <trkpt lat="43.02592" lon="0.80333">
        <ele>473</ele>
        <time>2021-03-13T15:39:30Z</time>
      </trkpt>
      <trkpt lat="43.02593" lon="0.80332">
        <ele>473</ele>
        <time>2021-03-13T15:39:31Z</time>
      </trkpt>
      <trkpt lat="43.02594" lon="0.8033">
        <ele>473</ele>
        <time>2021-03-13T15:39:32Z</time>
      </trkpt>
      <trkpt lat="43.02595" lon="0.80329">
        <ele>473</ele>
        <time>2021-03-13T15:39:33Z</time>
      </trkpt>
      <trkpt lat="43.02596" lon="0.80328">
        <ele>473</ele>
        <time>2021-03-13T15:39:34Z</time>
      </trkpt>
      <trkpt lat="43.02597" lon="0.80327">
        <ele>473</ele>
        <time>2021-03-13T15:39:35Z</time>
      </trkpt>
      <trkpt lat="43.02598" lon="0.80327">
        <ele>473</ele>
        <time>2021-03-13T15:39:36Z</time>
      </trkpt>
      <trkpt lat="43.02599" lon="0.80327">
        <ele>473</ele>
        <time>2021-03-13T15:39:37Z</time>
      </trkpt>
      <trkpt lat="43.026" lon="0.80327">
        <ele>473</ele>
        <time>2021-03-13T15:39:38Z</time>
      </trkpt>
      <trkpt lat="43.02601" lon="0.80327">
        <ele>473</ele>
        <time>2021-03-13T15:39:39Z</time>
      </trkpt>
      <trkpt lat="43.02601" lon="0.80327">
        <ele>477</ele>
        <time>2021-03-13T15:39:40Z</time>
      </trkpt>
      <trkpt lat="43.02602" lon="0.80327">
        <ele>477</ele>
        <time>2021-03-13T15:39:41Z</time>
      </trkpt>
      <trkpt lat="43.02603" lon="0.80327">
        <ele>477</ele>
        <time>2021-03-13T15:39:42Z</time>
      </trkpt>
      <trkpt lat="43.02604" lon="0.80327">
        <ele>477</ele>
        <time>2021-03-13T15:39:43Z</time>
      </trkpt>
      <trkpt lat="43.02604" lon="0.80327">
        <ele>477</ele>
        <time>2021-03-13T15:39:44Z</time>
      </trkpt>
      <trkpt lat="43.02605" lon="0.80327">
        <ele>478</ele>
        <time>2021-03-13T15:39:45Z</time>
      </trkpt>
      <trkpt lat="43.02606" lon="0.80328">
        <ele>478</ele>
        <time>2021-03-13T15:39:46Z</time>
      </trkpt>
      <trkpt lat="43.02606" lon="0.80329">
        <ele>478</ele>
        <time>2021-03-13T15:39:47Z</time>
      </trkpt>
      <trkpt lat="43.02607" lon="0.80329">
        <ele>478</ele>
        <time>2021-03-13T15:39:48Z</time>
      </trkpt>
      <trkpt lat="43.02608" lon="0.8033">
        <ele>478</ele>
        <time>2021-03-13T15:39:49Z</time>
      </trkpt>
      <trkpt lat="43.02608" lon="0.80331">
        <ele>479</ele>
        <time>2021-03-13T15:39:50Z</time>
      </trkpt>
      <trkpt lat="43.02609" lon="0.80332">
        <ele>479</ele>
        <time>2021-03-13T15:39:51Z</time>
      </trkpt>
      <trkpt lat="43.02609" lon="0.80332">
        <ele>479</ele>
        <time>2021-03-13T15:39:52Z</time>
      </trkpt>
      <trkpt lat="43.0261" lon="0.80333">
        <ele>479</ele>
        <time>2021-03-13T15:39:53Z</time>
      </trkpt>
      <trkpt lat="43.02611" lon="0.80334">
        <ele>479</ele>
        <time>2021-03-13T15:39:54Z</time>
      </trkpt>
      <trkpt lat="43.02612" lon="0.80335">
        <ele>479</ele>
        <time>2021-03-13T15:39:55Z</time>
      </trkpt>
      <trkpt lat="43.02612" lon="0.80336">
        <ele>479</ele>
        <time>2021-03-13T15:39:56Z</time>
      </trkpt>
      <trkpt lat="43.02613" lon="0.80337">
        <ele>479</ele>
        <time>2021-03-13T15:39:57Z</time>
      </trkpt>
      <trkpt lat="43.02614" lon="0.80338">
        <ele>479</ele>
        <time>2021-03-13T15:39:58Z</time>
      </trkpt>
      <trkpt lat="43.02615" lon="0.80339">
        <ele>479</ele>
        <time>2021-03-13T15:39:59Z</time>
      </trkpt>
      <trkpt lat="43.02615" lon="0.8034">
        <ele>482</ele>
        <time>2021-03-13T15:40:00Z</time>
      </trkpt>
      <trkpt lat="43.02616" lon="0.8034">
        <ele>482</ele>
        <time>2021-03-13T15:40:01Z</time>
      </trkpt>
      <trkpt lat="43.02616" lon="0.80341">
        <ele>482</ele>
        <time>2021-03-13T15:40:02Z</time>
      </trkpt>
      <trkpt lat="43.02617" lon="0.80341">
        <ele>482</ele>
        <time>2021-03-13T15:40:03Z</time>
      </trkpt>
      <trkpt lat="43.02617" lon="0.80341">
        <ele>482</ele>
        <time>2021-03-13T15:40:04Z</time>
      </trkpt>
      <trkpt lat="43.02618" lon="0.80342">
        <ele>483</ele>
        <time>2021-03-13T15:40:05Z</time>
      </trkpt>
      <trkpt lat="43.02618" lon="0.80342">
        <ele>483</ele>
        <time>2021-03-13T15:40:06Z</time>
      </trkpt>
      <trkpt lat="43.02619" lon="0.80342">
        <ele>483</ele>
        <time>2021-03-13T15:40:07Z</time>
      </trkpt>
      <trkpt lat="43.02619" lon="0.80343">
        <ele>483</ele>
        <time>2021-03-13T15:40:08Z</time>
      </trkpt>
      <trkpt lat="43.0262" lon="0.80343">
        <ele>483</ele>
        <time>2021-03-13T15:40:09Z</time>
      </trkpt>
      <trkpt lat="43.0262" lon="0.80343">
        <ele>484</ele>
        <time>2021-03-13T15:40:10Z</time>
      </trkpt>
      <trkpt lat="43.0262" lon="0.80343">
        <ele>484</ele>
        <time>2021-03-13T15:40:11Z</time>
      </trkpt>
      <trkpt lat="43.02621" lon="0.80344">
        <ele>484</ele>
        <time>2021-03-13T15:40:12Z</time>
      </trkpt>
      <trkpt lat="43.02621" lon="0.80344">
        <ele>484</ele>
        <time>2021-03-13T15:40:13Z</time>
      </trkpt>
      <trkpt lat="43.02622" lon="0.80344">
        <ele>484</ele>
        <time>2021-03-13T15:40:14Z</time>
      </trkpt>
      <trkpt lat="43.02622" lon="0.80346">
        <ele>485</ele>
        <time>2021-03-13T15:40:15Z</time>
      </trkpt>
      <trkpt lat="43.02623" lon="0.80348">
        <ele>485</ele>
        <time>2021-03-13T15:40:16Z</time>
      </trkpt>
      <trkpt lat="43.02623" lon="0.8035">
        <ele>485</ele>
        <time>2021-03-13T15:40:17Z</time>
      </trkpt>
      <trkpt lat="43.02623" lon="0.80352">
        <ele>485</ele>
        <time>2021-03-13T15:40:18Z</time>
      </trkpt>
      <trkpt lat="43.02624" lon="0.80354">
        <ele>485</ele>
        <time>2021-03-13T15:40:19Z</time>
      </trkpt>
      <trkpt lat="43.02624" lon="0.80356">
        <ele>485</ele>
        <time>2021-03-13T15:40:20Z</time>
      </trkpt>
      <trkpt lat="43.02624" lon="0.80357">
        <ele>485</ele>
        <time>2021-03-13T15:40:21Z</time>
      </trkpt>
      <trkpt lat="43.02624" lon="0.80359">
        <ele>485</ele>
        <time>2021-03-13T15:40:22Z</time>
      </trkpt>
      <trkpt lat="43.02625" lon="0.8036">
        <ele>485</ele>
        <time>2021-03-13T15:40:23Z</time>
      </trkpt>
      <trkpt lat="43.02625" lon="0.80361">
        <ele>485</ele>
        <time>2021-03-13T15:40:24Z</time>
      </trkpt>
      <trkpt lat="43.02625" lon="0.80363">
        <ele>485</ele>
        <time>2021-03-13T15:40:25Z</time>
      </trkpt>
      <trkpt lat="43.02626" lon="0.80364">
        <ele>485</ele>
        <time>2021-03-13T15:40:26Z</time>
      </trkpt>
      <trkpt lat="43.02628" lon="0.80373">
        <ele>485</ele>
        <time>2021-03-13T15:40:27Z</time>
      </trkpt>
      <trkpt lat="43.02628" lon="0.80374">
        <ele>485</ele>
        <time>2021-03-13T15:40:28Z</time>
      </trkpt>
      <trkpt lat="43.02629" lon="0.80376">
        <ele>485</ele>
        <time>2021-03-13T15:40:29Z</time>
      </trkpt>
      <trkpt lat="43.0263" lon="0.80377">
        <ele>484</ele>
        <time>2021-03-13T15:40:30Z</time>
      </trkpt>
      <trkpt lat="43.0263" lon="0.80378">
        <ele>484</ele>
        <time>2021-03-13T15:40:31Z</time>
      </trkpt>
      <trkpt lat="43.02634" lon="0.80385">
        <ele>484</ele>
        <time>2021-03-13T15:40:32Z</time>
      </trkpt>
      <trkpt lat="43.02636" lon="0.80386">
        <ele>484</ele>
        <time>2021-03-13T15:40:33Z</time>
      </trkpt>
      <trkpt lat="43.02637" lon="0.80387">
        <ele>484</ele>
        <time>2021-03-13T15:40:34Z</time>
      </trkpt>
      <trkpt lat="43.02638" lon="0.80388">
        <ele>484</ele>
        <time>2021-03-13T15:40:35Z</time>
      </trkpt>
      <trkpt lat="43.0264" lon="0.80389">
        <ele>484</ele>
        <time>2021-03-13T15:40:36Z</time>
      </trkpt>
      <trkpt lat="43.02641" lon="0.8039">
        <ele>484</ele>
        <time>2021-03-13T15:40:37Z</time>
      </trkpt>
      <trkpt lat="43.02642" lon="0.80391">
        <ele>484</ele>
        <time>2021-03-13T15:40:38Z</time>
      </trkpt>
      <trkpt lat="43.02644" lon="0.80393">
        <ele>484</ele>
        <time>2021-03-13T15:40:39Z</time>
      </trkpt>
      <trkpt lat="43.02645" lon="0.80395">
        <ele>488</ele>
        <time>2021-03-13T15:40:40Z</time>
      </trkpt>
      <trkpt lat="43.02647" lon="0.80396">
        <ele>488</ele>
        <time>2021-03-13T15:40:41Z</time>
      </trkpt>
      <trkpt lat="43.02648" lon="0.80398">
        <ele>488</ele>
        <time>2021-03-13T15:40:42Z</time>
      </trkpt>
      <trkpt lat="43.02649" lon="0.804">
        <ele>488</ele>
        <time>2021-03-13T15:40:43Z</time>
      </trkpt>
      <trkpt lat="43.02651" lon="0.80403">
        <ele>488</ele>
        <time>2021-03-13T15:40:44Z</time>
      </trkpt>
      <trkpt lat="43.02652" lon="0.80405">
        <ele>489</ele>
        <time>2021-03-13T15:40:45Z</time>
      </trkpt>
      <trkpt lat="43.02654" lon="0.80408">
        <ele>489</ele>
        <time>2021-03-13T15:40:46Z</time>
      </trkpt>
      <trkpt lat="43.02655" lon="0.8041">
        <ele>489</ele>
        <time>2021-03-13T15:40:47Z</time>
      </trkpt>
      <trkpt lat="43.02656" lon="0.80413">
        <ele>489</ele>
        <time>2021-03-13T15:40:48Z</time>
      </trkpt>
      <trkpt lat="43.02657" lon="0.80416">
        <ele>489</ele>
        <time>2021-03-13T15:40:49Z</time>
      </trkpt>
      <trkpt lat="43.02658" lon="0.80419">
        <ele>489</ele>
        <time>2021-03-13T15:40:50Z</time>
      </trkpt>
      <trkpt lat="43.0266" lon="0.8042">
        <ele>489</ele>
        <time>2021-03-13T15:40:51Z</time>
      </trkpt>
      <trkpt lat="43.02662" lon="0.8042">
        <ele>489</ele>
        <time>2021-03-13T15:40:52Z</time>
      </trkpt>
      <trkpt lat="43.02663" lon="0.80421">
        <ele>489</ele>
        <time>2021-03-13T15:40:53Z</time>
      </trkpt>
      <trkpt lat="43.02665" lon="0.80422">
        <ele>489</ele>
        <time>2021-03-13T15:40:54Z</time>
      </trkpt>
      <trkpt lat="43.02667" lon="0.80422">
        <ele>489</ele>
        <time>2021-03-13T15:40:55Z</time>
      </trkpt>
      <trkpt lat="43.02668" lon="0.80423">
        <ele>489</ele>
        <time>2021-03-13T15:40:56Z</time>
      </trkpt>
      <trkpt lat="43.0267" lon="0.80424">
        <ele>489</ele>
        <time>2021-03-13T15:40:57Z</time>
      </trkpt>
      <trkpt lat="43.02671" lon="0.80425">
        <ele>489</ele>
        <time>2021-03-13T15:40:58Z</time>
      </trkpt>
      <trkpt lat="43.02673" lon="0.80426">
        <ele>489</ele>
        <time>2021-03-13T15:40:59Z</time>
      </trkpt>
      <trkpt lat="43.02674" lon="0.80427">
        <ele>492</ele>
        <time>2021-03-13T15:41:00Z</time>
      </trkpt>
      <trkpt lat="43.02676" lon="0.80428">
        <ele>492</ele>
        <time>2021-03-13T15:41:01Z</time>
      </trkpt>
      <trkpt lat="43.02677" lon="0.80429">
        <ele>492</ele>
        <time>2021-03-13T15:41:02Z</time>
      </trkpt>
      <trkpt lat="43.02679" lon="0.8043">
        <ele>492</ele>
        <time>2021-03-13T15:41:03Z</time>
      </trkpt>
      <trkpt lat="43.02681" lon="0.80431">
        <ele>492</ele>
        <time>2021-03-13T15:41:04Z</time>
      </trkpt>
      <trkpt lat="43.02683" lon="0.80432">
        <ele>494</ele>
        <time>2021-03-13T15:41:05Z</time>
      </trkpt>
      <trkpt lat="43.02685" lon="0.80433">
        <ele>494</ele>
        <time>2021-03-13T15:41:06Z</time>
      </trkpt>
      <trkpt lat="43.02686" lon="0.80434">
        <ele>494</ele>
        <time>2021-03-13T15:41:07Z</time>
      </trkpt>
      <trkpt lat="43.02687" lon="0.80434">
        <ele>494</ele>
        <time>2021-03-13T15:41:08Z</time>
      </trkpt>
      <trkpt lat="43.02688" lon="0.80435">
        <ele>494</ele>
        <time>2021-03-13T15:41:09Z</time>
      </trkpt>
      <trkpt lat="43.02689" lon="0.80435">
        <ele>494</ele>
        <time>2021-03-13T15:41:10Z</time>
      </trkpt>
      <trkpt lat="43.0269" lon="0.80435">
        <ele>494</ele>
        <time>2021-03-13T15:41:11Z</time>
      </trkpt>
      <trkpt lat="43.02697" lon="0.80438">
        <ele>494</ele>
        <time>2021-03-13T15:41:12Z</time>
      </trkpt>
      <trkpt lat="43.027" lon="0.80438">
        <ele>494</ele>
        <time>2021-03-13T15:41:13Z</time>
      </trkpt>
      <trkpt lat="43.02702" lon="0.80438">
        <ele>494</ele>
        <time>2021-03-13T15:41:14Z</time>
      </trkpt>
      <trkpt lat="43.02705" lon="0.80439">
        <ele>494</ele>
        <time>2021-03-13T15:41:15Z</time>
      </trkpt>
      <trkpt lat="43.02706" lon="0.80439">
        <ele>494</ele>
        <time>2021-03-13T15:41:16Z</time>
      </trkpt>
      <trkpt lat="43.02707" lon="0.8044">
        <ele>494</ele>
        <time>2021-03-13T15:41:17Z</time>
      </trkpt>
      <trkpt lat="43.02709" lon="0.80441">
        <ele>494</ele>
        <time>2021-03-13T15:41:18Z</time>
      </trkpt>
      <trkpt lat="43.0271" lon="0.80442">
        <ele>494</ele>
        <time>2021-03-13T15:41:19Z</time>
      </trkpt>
      <trkpt lat="43.02717" lon="0.80445">
        <ele>495</ele>
        <time>2021-03-13T15:41:20Z</time>
      </trkpt>
      <trkpt lat="43.02718" lon="0.80447">
        <ele>495</ele>
        <time>2021-03-13T15:41:21Z</time>
      </trkpt>
      <trkpt lat="43.02719" lon="0.80448">
        <ele>495</ele>
        <time>2021-03-13T15:41:22Z</time>
      </trkpt>
      <trkpt lat="43.0272" lon="0.80449">
        <ele>495</ele>
        <time>2021-03-13T15:41:23Z</time>
      </trkpt>
      <trkpt lat="43.02727" lon="0.80455">
        <ele>495</ele>
        <time>2021-03-13T15:41:24Z</time>
      </trkpt>
      <trkpt lat="43.02729" lon="0.80457">
        <ele>495</ele>
        <time>2021-03-13T15:41:25Z</time>
      </trkpt>
      <trkpt lat="43.02731" lon="0.80459">
        <ele>495</ele>
        <time>2021-03-13T15:41:26Z</time>
      </trkpt>
      <trkpt lat="43.02733" lon="0.80461">
        <ele>495</ele>
        <time>2021-03-13T15:41:27Z</time>
      </trkpt>
      <trkpt lat="43.02734" lon="0.80463">
        <ele>495</ele>
        <time>2021-03-13T15:41:28Z</time>
      </trkpt>
      <trkpt lat="43.02736" lon="0.80465">
        <ele>495</ele>
        <time>2021-03-13T15:41:29Z</time>
      </trkpt>
      <trkpt lat="43.02738" lon="0.80467">
        <ele>497</ele>
        <time>2021-03-13T15:41:30Z</time>
      </trkpt>
      <trkpt lat="43.0274" lon="0.80469">
        <ele>497</ele>
        <time>2021-03-13T15:41:31Z</time>
      </trkpt>
      <trkpt lat="43.02741" lon="0.80469">
        <ele>497</ele>
        <time>2021-03-13T15:41:32Z</time>
      </trkpt>
      <trkpt lat="43.02741" lon="0.8047">
        <ele>497</ele>
        <time>2021-03-13T15:41:33Z</time>
      </trkpt>
      <trkpt lat="43.02742" lon="0.8047">
        <ele>497</ele>
        <time>2021-03-13T15:41:34Z</time>
      </trkpt>
      <trkpt lat="43.02743" lon="0.80471">
        <ele>497</ele>
        <time>2021-03-13T15:41:35Z</time>
      </trkpt>
      <trkpt lat="43.02744" lon="0.80471">
        <ele>497</ele>
        <time>2021-03-13T15:41:36Z</time>
      </trkpt>
      <trkpt lat="43.02744" lon="0.80472">
        <ele>497</ele>
        <time>2021-03-13T15:41:37Z</time>
      </trkpt>
      <trkpt lat="43.02745" lon="0.80473">
        <ele>497</ele>
        <time>2021-03-13T15:41:38Z</time>
      </trkpt>
      <trkpt lat="43.02752" lon="0.80478">
        <ele>497</ele>
        <time>2021-03-13T15:41:39Z</time>
      </trkpt>
      <trkpt lat="43.02754" lon="0.80479">
        <ele>498</ele>
        <time>2021-03-13T15:41:40Z</time>
      </trkpt>
      <trkpt lat="43.02756" lon="0.80481">
        <ele>498</ele>
        <time>2021-03-13T15:41:41Z</time>
      </trkpt>
      <trkpt lat="43.02758" lon="0.80482">
        <ele>498</ele>
        <time>2021-03-13T15:41:42Z</time>
      </trkpt>
      <trkpt lat="43.02759" lon="0.80485">
        <ele>498</ele>
        <time>2021-03-13T15:41:43Z</time>
      </trkpt>
      <trkpt lat="43.0276" lon="0.80487">
        <ele>498</ele>
        <time>2021-03-13T15:41:44Z</time>
      </trkpt>
      <trkpt lat="43.02761" lon="0.8049">
        <ele>498</ele>
        <time>2021-03-13T15:41:45Z</time>
      </trkpt>
      <trkpt lat="43.02761" lon="0.80493">
        <ele>498</ele>
        <time>2021-03-13T15:41:46Z</time>
      </trkpt>
      <trkpt lat="43.02761" lon="0.80496">
        <ele>498</ele>
        <time>2021-03-13T15:41:47Z</time>
      </trkpt>
      <trkpt lat="43.02761" lon="0.80499">
        <ele>498</ele>
        <time>2021-03-13T15:41:48Z</time>
      </trkpt>
      <trkpt lat="43.02761" lon="0.80502">
        <ele>498</ele>
        <time>2021-03-13T15:41:49Z</time>
      </trkpt>
      <trkpt lat="43.02761" lon="0.80506">
        <ele>498</ele>
        <time>2021-03-13T15:41:50Z</time>
      </trkpt>
      <trkpt lat="43.02761" lon="0.80509">
        <ele>498</ele>
        <time>2021-03-13T15:41:51Z</time>
      </trkpt>
      <trkpt lat="43.02761" lon="0.80512">
        <ele>498</ele>
        <time>2021-03-13T15:41:52Z</time>
      </trkpt>
      <trkpt lat="43.02762" lon="0.80516">
        <ele>498</ele>
        <time>2021-03-13T15:41:53Z</time>
      </trkpt>
      <trkpt lat="43.02763" lon="0.8052">
        <ele>498</ele>
        <time>2021-03-13T15:41:54Z</time>
      </trkpt>
      <trkpt lat="43.02764" lon="0.80524">
        <ele>498</ele>
        <time>2021-03-13T15:41:55Z</time>
      </trkpt>
      <trkpt lat="43.02766" lon="0.80526">
        <ele>498</ele>
        <time>2021-03-13T15:41:56Z</time>
      </trkpt>
      <trkpt lat="43.02767" lon="0.80528">
        <ele>498</ele>
        <time>2021-03-13T15:41:57Z</time>
      </trkpt>
      <trkpt lat="43.02768" lon="0.8053">
        <ele>498</ele>
        <time>2021-03-13T15:41:58Z</time>
      </trkpt>
      <trkpt lat="43.02772" lon="0.80538">
        <ele>498</ele>
        <time>2021-03-13T15:41:59Z</time>
      </trkpt>
      <trkpt lat="43.02773" lon="0.80539">
        <ele>499</ele>
        <time>2021-03-13T15:42:00Z</time>
      </trkpt>
      <trkpt lat="43.02775" lon="0.80541">
        <ele>499</ele>
        <time>2021-03-13T15:42:01Z</time>
      </trkpt>
      <trkpt lat="43.0278" lon="0.80547">
        <ele>499</ele>
        <time>2021-03-13T15:42:02Z</time>
      </trkpt>
      <trkpt lat="43.02781" lon="0.80549">
        <ele>499</ele>
        <time>2021-03-13T15:42:03Z</time>
      </trkpt>
      <trkpt lat="43.02782" lon="0.8055">
        <ele>499</ele>
        <time>2021-03-13T15:42:04Z</time>
      </trkpt>
      <trkpt lat="43.02783" lon="0.80551">
        <ele>499</ele>
        <time>2021-03-13T15:42:05Z</time>
      </trkpt>
      <trkpt lat="43.0279" lon="0.8056">
        <ele>499</ele>
        <time>2021-03-13T15:42:06Z</time>
      </trkpt>
      <trkpt lat="43.02793" lon="0.80565">
        <ele>499</ele>
        <time>2021-03-13T15:42:07Z</time>
      </trkpt>
      <trkpt lat="43.02795" lon="0.80569">
        <ele>499</ele>
        <time>2021-03-13T15:42:08Z</time>
      </trkpt>
      <trkpt lat="43.02797" lon="0.80574">
        <ele>499</ele>
        <time>2021-03-13T15:42:09Z</time>
      </trkpt>
      <trkpt lat="43.02798" lon="0.80577">
        <ele>500</ele>
        <time>2021-03-13T15:42:10Z</time>
      </trkpt>
      <trkpt lat="43.028" lon="0.80581">
        <ele>500</ele>
        <time>2021-03-13T15:42:11Z</time>
      </trkpt>
      <trkpt lat="43.02801" lon="0.80584">
        <ele>500</ele>
        <time>2021-03-13T15:42:12Z</time>
      </trkpt>
      <trkpt lat="43.02803" lon="0.80588">
        <ele>500</ele>
        <time>2021-03-13T15:42:13Z</time>
      </trkpt>
      <trkpt lat="43.02804" lon="0.80592">
        <ele>500</ele>
        <time>2021-03-13T15:42:14Z</time>
      </trkpt>
      <trkpt lat="43.02806" lon="0.80596">
        <ele>500</ele>
        <time>2021-03-13T15:42:15Z</time>
      </trkpt>
      <trkpt lat="43.02808" lon="0.80599">
        <ele>500</ele>
        <time>2021-03-13T15:42:16Z</time>
      </trkpt>
      <trkpt lat="43.0281" lon="0.80603">
        <ele>500</ele>
        <time>2021-03-13T15:42:17Z</time>
      </trkpt>
      <trkpt lat="43.02812" lon="0.80606">
        <ele>500</ele>
        <time>2021-03-13T15:42:18Z</time>
      </trkpt>
      <trkpt lat="43.02814" lon="0.80609">
        <ele>500</ele>
        <time>2021-03-13T15:42:19Z</time>
      </trkpt>
      <trkpt lat="43.02816" lon="0.80613">
        <ele>501</ele>
        <time>2021-03-13T15:42:20Z</time>
      </trkpt>
      <trkpt lat="43.02818" lon="0.80616">
        <ele>501</ele>
        <time>2021-03-13T15:42:21Z</time>
      </trkpt>
      <trkpt lat="43.02821" lon="0.8062">
        <ele>501</ele>
        <time>2021-03-13T15:42:22Z</time>
      </trkpt>
      <trkpt lat="43.02824" lon="0.80623">
        <ele>501</ele>
        <time>2021-03-13T15:42:23Z</time>
      </trkpt>
      <trkpt lat="43.02826" lon="0.80627">
        <ele>501</ele>
        <time>2021-03-13T15:42:24Z</time>
      </trkpt>
      <trkpt lat="43.02828" lon="0.80631">
        <ele>501</ele>
        <time>2021-03-13T15:42:25Z</time>
      </trkpt>
      <trkpt lat="43.02831" lon="0.80635">
        <ele>501</ele>
        <time>2021-03-13T15:42:26Z</time>
      </trkpt>
      <trkpt lat="43.02833" lon="0.80637">
        <ele>501</ele>
        <time>2021-03-13T15:42:27Z</time>
      </trkpt>
      <trkpt lat="43.02835" lon="0.80639">
        <ele>501</ele>
        <time>2021-03-13T15:42:28Z</time>
      </trkpt>
      <trkpt lat="43.02837" lon="0.80642">
        <ele>501</ele>
        <time>2021-03-13T15:42:29Z</time>
      </trkpt>
      <trkpt lat="43.0284" lon="0.80646">
        <ele>503</ele>
        <time>2021-03-13T15:42:30Z</time>
      </trkpt>
      <trkpt lat="43.02843" lon="0.8065">
        <ele>503</ele>
        <time>2021-03-13T15:42:31Z</time>
      </trkpt>
      <trkpt lat="43.02845" lon="0.80654">
        <ele>503</ele>
        <time>2021-03-13T15:42:32Z</time>
      </trkpt>
      <trkpt lat="43.02846" lon="0.80658">
        <ele>503</ele>
        <time>2021-03-13T15:42:33Z</time>
      </trkpt>
      <trkpt lat="43.02848" lon="0.80662">
        <ele>503</ele>
        <time>2021-03-13T15:42:34Z</time>
      </trkpt>
      <trkpt lat="43.02849" lon="0.80664">
        <ele>503</ele>
        <time>2021-03-13T15:42:35Z</time>
      </trkpt>
      <trkpt lat="43.0285" lon="0.80666">
        <ele>503</ele>
        <time>2021-03-13T15:42:36Z</time>
      </trkpt>
      <trkpt lat="43.02851" lon="0.80668">
        <ele>503</ele>
        <time>2021-03-13T15:42:37Z</time>
      </trkpt>
      <trkpt lat="43.02856" lon="0.80677">
        <ele>503</ele>
        <time>2021-03-13T15:42:38Z</time>
      </trkpt>
      <trkpt lat="43.02859" lon="0.8068">
        <ele>503</ele>
        <time>2021-03-13T15:42:39Z</time>
      </trkpt>
      <trkpt lat="43.02861" lon="0.80683">
        <ele>502</ele>
        <time>2021-03-13T15:42:40Z</time>
      </trkpt>
      <trkpt lat="43.02863" lon="0.80685">
        <ele>502</ele>
        <time>2021-03-13T15:42:41Z</time>
      </trkpt>
      <trkpt lat="43.02864" lon="0.80687">
        <ele>502</ele>
        <time>2021-03-13T15:42:42Z</time>
      </trkpt>
      <trkpt lat="43.02865" lon="0.80688">
        <ele>502</ele>
        <time>2021-03-13T15:42:43Z</time>
      </trkpt>
      <trkpt lat="43.0287" lon="0.80696">
        <ele>502</ele>
        <time>2021-03-13T15:42:44Z</time>
      </trkpt>
      <trkpt lat="43.02872" lon="0.80697">
        <ele>502</ele>
        <time>2021-03-13T15:42:45Z</time>
      </trkpt>
      <trkpt lat="43.02873" lon="0.80699">
        <ele>502</ele>
        <time>2021-03-13T15:42:46Z</time>
      </trkpt>
      <trkpt lat="43.02878" lon="0.80707">
        <ele>502</ele>
        <time>2021-03-13T15:42:47Z</time>
      </trkpt>
      <trkpt lat="43.02879" lon="0.8071">
        <ele>502</ele>
        <time>2021-03-13T15:42:48Z</time>
      </trkpt>
      <trkpt lat="43.0288" lon="0.80713">
        <ele>502</ele>
        <time>2021-03-13T15:42:49Z</time>
      </trkpt>
      <trkpt lat="43.02886" lon="0.80726">
        <ele>501</ele>
        <time>2021-03-13T15:42:50Z</time>
      </trkpt>
      <trkpt lat="43.02888" lon="0.80731">
        <ele>501</ele>
        <time>2021-03-13T15:42:51Z</time>
      </trkpt>
      <trkpt lat="43.02889" lon="0.80734">
        <ele>501</ele>
        <time>2021-03-13T15:42:52Z</time>
      </trkpt>
      <trkpt lat="43.0289" lon="0.80737">
        <ele>501</ele>
        <time>2021-03-13T15:42:53Z</time>
      </trkpt>
      <trkpt lat="43.0289" lon="0.8074">
        <ele>501</ele>
        <time>2021-03-13T15:42:54Z</time>
      </trkpt>
      <trkpt lat="43.02893" lon="0.80753">
        <ele>501</ele>
        <time>2021-03-13T15:42:55Z</time>
      </trkpt>
      <trkpt lat="43.02893" lon="0.80757">
        <ele>501</ele>
        <time>2021-03-13T15:42:56Z</time>
      </trkpt>
      <trkpt lat="43.02894" lon="0.80769">
        <ele>501</ele>
        <time>2021-03-13T15:42:57Z</time>
      </trkpt>
      <trkpt lat="43.02893" lon="0.80773">
        <ele>501</ele>
        <time>2021-03-13T15:42:58Z</time>
      </trkpt>
      <trkpt lat="43.02891" lon="0.80785">
        <ele>501</ele>
        <time>2021-03-13T15:42:59Z</time>
      </trkpt>
      <trkpt lat="43.02891" lon="0.80789">
        <ele>495</ele>
        <time>2021-03-13T15:43:00Z</time>
      </trkpt>
      <trkpt lat="43.02887" lon="0.80803">
        <ele>495</ele>
        <time>2021-03-13T15:43:01Z</time>
      </trkpt>
      <trkpt lat="43.02886" lon="0.80808">
        <ele>494</ele>
        <time>2021-03-13T15:43:02Z</time>
      </trkpt>
      <trkpt lat="43.02882" lon="0.80821">
        <ele>493</ele>
        <time>2021-03-13T15:43:03Z</time>
      </trkpt>
      <trkpt lat="43.0288" lon="0.80826">
        <ele>493</ele>
        <time>2021-03-13T15:43:04Z</time>
      </trkpt>
      <trkpt lat="43.02876" lon="0.8084">
        <ele>492</ele>
        <time>2021-03-13T15:43:05Z</time>
      </trkpt>
      <trkpt lat="43.02874" lon="0.80846">
        <ele>491</ele>
        <time>2021-03-13T15:43:06Z</time>
      </trkpt>
      <trkpt lat="43.02874" lon="0.80849">
        <ele>490</ele>
        <time>2021-03-13T15:43:07Z</time>
      </trkpt>
      <trkpt lat="43.02874" lon="0.80852">
        <ele>490</ele>
        <time>2021-03-13T15:43:08Z</time>
      </trkpt>
      <trkpt lat="43.02874" lon="0.80855">
        <ele>490</ele>
        <time>2021-03-13T15:43:09Z</time>
      </trkpt>
      <trkpt lat="43.02877" lon="0.80868">
        <ele>490</ele>
        <time>2021-03-13T15:43:10Z</time>
      </trkpt>
      <trkpt lat="43.02881" lon="0.80872">
        <ele>490</ele>
        <time>2021-03-13T15:43:11Z</time>
      </trkpt>
      <trkpt lat="43.02882" lon="0.80875">
        <ele>490</ele>
        <time>2021-03-13T15:43:12Z</time>
      </trkpt>
      <trkpt lat="43.02883" lon="0.80877">
        <ele>490</ele>
        <time>2021-03-13T15:43:13Z</time>
      </trkpt>
      <trkpt lat="43.02885" lon="0.8088">
        <ele>490</ele>
        <time>2021-03-13T15:43:14Z</time>
      </trkpt>
      <trkpt lat="43.02892" lon="0.80892">
        <ele>490</ele>
        <time>2021-03-13T15:43:15Z</time>
      </trkpt>
      <trkpt lat="43.02894" lon="0.80896">
        <ele>490</ele>
        <time>2021-03-13T15:43:16Z</time>
      </trkpt>
      <trkpt lat="43.02895" lon="0.80898">
        <ele>490</ele>
        <time>2021-03-13T15:43:17Z</time>
      </trkpt>
      <trkpt lat="43.02897" lon="0.809">
        <ele>490</ele>
        <time>2021-03-13T15:43:18Z</time>
      </trkpt>
      <trkpt lat="43.02898" lon="0.80902">
        <ele>490</ele>
        <time>2021-03-13T15:43:19Z</time>
      </trkpt>
      <trkpt lat="43.02904" lon="0.80908">
        <ele>489</ele>
        <time>2021-03-13T15:43:20Z</time>
      </trkpt>
      <trkpt lat="43.02905" lon="0.80909">
        <ele>489</ele>
        <time>2021-03-13T15:43:21Z</time>
      </trkpt>
      <trkpt lat="43.02907" lon="0.8091">
        <ele>489</ele>
        <time>2021-03-13T15:43:22Z</time>
      </trkpt>
      <trkpt lat="43.02908" lon="0.80911">
        <ele>489</ele>
        <time>2021-03-13T15:43:23Z</time>
      </trkpt>
      <trkpt lat="43.02916" lon="0.80915">
        <ele>489</ele>
        <time>2021-03-13T15:43:24Z</time>
      </trkpt>
      <trkpt lat="43.02918" lon="0.80915">
        <ele>489</ele>
        <time>2021-03-13T15:43:25Z</time>
      </trkpt>
      <trkpt lat="43.02921" lon="0.80915">
        <ele>489</ele>
        <time>2021-03-13T15:43:26Z</time>
      </trkpt>
      <trkpt lat="43.02933" lon="0.80913">
        <ele>489</ele>
        <time>2021-03-13T15:43:27Z</time>
      </trkpt>
      <trkpt lat="43.02937" lon="0.80912">
        <ele>489</ele>
        <time>2021-03-13T15:43:28Z</time>
      </trkpt>
      <trkpt lat="43.0294" lon="0.80912">
        <ele>489</ele>
        <time>2021-03-13T15:43:29Z</time>
      </trkpt>
      <trkpt lat="43.02943" lon="0.80912">
        <ele>485</ele>
        <time>2021-03-13T15:43:30Z</time>
      </trkpt>
      <trkpt lat="43.02952" lon="0.80912">
        <ele>485</ele>
        <time>2021-03-13T15:43:31Z</time>
      </trkpt>
      <trkpt lat="43.02955" lon="0.80912">
        <ele>485</ele>
        <time>2021-03-13T15:43:32Z</time>
      </trkpt>
      <trkpt lat="43.02964" lon="0.80914">
        <ele>485</ele>
        <time>2021-03-13T15:43:33Z</time>
      </trkpt>
      <trkpt lat="43.02967" lon="0.80915">
        <ele>485</ele>
        <time>2021-03-13T15:43:34Z</time>
      </trkpt>
      <trkpt lat="43.02977" lon="0.80919">
        <ele>481</ele>
        <time>2021-03-13T15:43:35Z</time>
      </trkpt>
      <trkpt lat="43.0298" lon="0.8092">
        <ele>481</ele>
        <time>2021-03-13T15:43:36Z</time>
      </trkpt>
      <trkpt lat="43.0299" lon="0.80924">
        <ele>481</ele>
        <time>2021-03-13T15:43:37Z</time>
      </trkpt>
      <trkpt lat="43.02992" lon="0.80925">
        <ele>481</ele>
        <time>2021-03-13T15:43:38Z</time>
      </trkpt>
      <trkpt lat="43.02999" lon="0.8093">
        <ele>481</ele>
        <time>2021-03-13T15:43:39Z</time>
      </trkpt>
      <trkpt lat="43.03001" lon="0.80932">
        <ele>478</ele>
        <time>2021-03-13T15:43:40Z</time>
      </trkpt>
      <trkpt lat="43.03007" lon="0.80941">
        <ele>476</ele>
        <time>2021-03-13T15:43:41Z</time>
      </trkpt>
      <trkpt lat="43.03009" lon="0.80945">
        <ele>476</ele>
        <time>2021-03-13T15:43:42Z</time>
      </trkpt>
      <trkpt lat="43.03014" lon="0.80955">
        <ele>476</ele>
        <time>2021-03-13T15:43:43Z</time>
      </trkpt>
      <trkpt lat="43.03015" lon="0.80959">
        <ele>476</ele>
        <time>2021-03-13T15:43:44Z</time>
      </trkpt>
      <trkpt lat="43.03018" lon="0.8097">
        <ele>476</ele>
        <time>2021-03-13T15:43:45Z</time>
      </trkpt>
      <trkpt lat="43.03019" lon="0.80974">
        <ele>476</ele>
        <time>2021-03-13T15:43:46Z</time>
      </trkpt>
      <trkpt lat="43.0302" lon="0.80977">
        <ele>475</ele>
        <time>2021-03-13T15:43:47Z</time>
      </trkpt>
      <trkpt lat="43.03024" lon="0.80991">
        <ele>475</ele>
        <time>2021-03-13T15:43:48Z</time>
      </trkpt>
      <trkpt lat="43.03024" lon="0.80995">
        <ele>475</ele>
        <time>2021-03-13T15:43:49Z</time>
      </trkpt>
      <trkpt lat="43.03027" lon="0.81006">
        <ele>473</ele>
        <time>2021-03-13T15:43:50Z</time>
      </trkpt>
      <trkpt lat="43.03027" lon="0.81009">
        <ele>473</ele>
        <time>2021-03-13T15:43:51Z</time>
      </trkpt>
      <trkpt lat="43.03032" lon="0.81021">
        <ele>473</ele>
        <time>2021-03-13T15:43:52Z</time>
      </trkpt>
      <trkpt lat="43.03035" lon="0.81027">
        <ele>473</ele>
        <time>2021-03-13T15:43:53Z</time>
      </trkpt>
      <trkpt lat="43.03037" lon="0.8103">
        <ele>473</ele>
        <time>2021-03-13T15:43:54Z</time>
      </trkpt>
      <trkpt lat="43.03039" lon="0.81032">
        <ele>471</ele>
        <time>2021-03-13T15:43:55Z</time>
      </trkpt>
      <trkpt lat="43.03048" lon="0.81042">
        <ele>471</ele>
        <time>2021-03-13T15:43:56Z</time>
      </trkpt>
      <trkpt lat="43.03052" lon="0.81047">
        <ele>471</ele>
        <time>2021-03-13T15:43:57Z</time>
      </trkpt>
      <trkpt lat="43.03054" lon="0.81049">
        <ele>471</ele>
        <time>2021-03-13T15:43:58Z</time>
      </trkpt>
      <trkpt lat="43.03057" lon="0.81052">
        <ele>471</ele>
        <time>2021-03-13T15:43:59Z</time>
      </trkpt>
      <trkpt lat="43.03064" lon="0.81061">
        <ele>467</ele>
        <time>2021-03-13T15:44:00Z</time>
      </trkpt>
      <trkpt lat="43.03066" lon="0.81064">
        <ele>467</ele>
        <time>2021-03-13T15:44:01Z</time>
      </trkpt>
      <trkpt lat="43.03075" lon="0.81073">
        <ele>467</ele>
        <time>2021-03-13T15:44:02Z</time>
      </trkpt>
      <trkpt lat="43.03078" lon="0.81076">
        <ele>466</ele>
        <time>2021-03-13T15:44:03Z</time>
      </trkpt>
      <trkpt lat="43.03086" lon="0.81087">
        <ele>465</ele>
        <time>2021-03-13T15:44:04Z</time>
      </trkpt>
      <trkpt lat="43.03089" lon="0.81092">
        <ele>464</ele>
        <time>2021-03-13T15:44:05Z</time>
      </trkpt>
      <trkpt lat="43.03097" lon="0.81106">
        <ele>463</ele>
        <time>2021-03-13T15:44:06Z</time>
      </trkpt>
      <trkpt lat="43.031" lon="0.8111">
        <ele>462</ele>
        <time>2021-03-13T15:44:07Z</time>
      </trkpt>
      <trkpt lat="43.03106" lon="0.81123">
        <ele>461</ele>
        <time>2021-03-13T15:44:08Z</time>
      </trkpt>
      <trkpt lat="43.03108" lon="0.81126">
        <ele>461</ele>
        <time>2021-03-13T15:44:09Z</time>
      </trkpt>
      <trkpt lat="43.03113" lon="0.81137">
        <ele>461</ele>
        <time>2021-03-13T15:44:10Z</time>
      </trkpt>
      <trkpt lat="43.03114" lon="0.8114">
        <ele>460</ele>
        <time>2021-03-13T15:44:11Z</time>
      </trkpt>
      <trkpt lat="43.03119" lon="0.81151">
        <ele>458</ele>
        <time>2021-03-13T15:44:12Z</time>
      </trkpt>
      <trkpt lat="43.0312" lon="0.81154">
        <ele>457</ele>
        <time>2021-03-13T15:44:13Z</time>
      </trkpt>
      <trkpt lat="43.03124" lon="0.81164">
        <ele>456</ele>
        <time>2021-03-13T15:44:14Z</time>
      </trkpt>
      <trkpt lat="43.03125" lon="0.81167">
        <ele>455</ele>
        <time>2021-03-13T15:44:15Z</time>
      </trkpt>
      <trkpt lat="43.0313" lon="0.81176">
        <ele>454</ele>
        <time>2021-03-13T15:44:16Z</time>
      </trkpt>
      <trkpt lat="43.03132" lon="0.81179">
        <ele>454</ele>
        <time>2021-03-13T15:44:17Z</time>
      </trkpt>
      <trkpt lat="43.03138" lon="0.81188">
        <ele>454</ele>
        <time>2021-03-13T15:44:18Z</time>
      </trkpt>
      <trkpt lat="43.0314" lon="0.81191">
        <ele>452</ele>
        <time>2021-03-13T15:44:19Z</time>
      </trkpt>
      <trkpt lat="43.03147" lon="0.81202">
        <ele>451</ele>
        <time>2021-03-13T15:44:20Z</time>
      </trkpt>
      <trkpt lat="43.03149" lon="0.81206">
        <ele>451</ele>
        <time>2021-03-13T15:44:21Z</time>
      </trkpt>
      <trkpt lat="43.03157" lon="0.81218">
        <ele>451</ele>
        <time>2021-03-13T15:44:22Z</time>
      </trkpt>
      <trkpt lat="43.0316" lon="0.81222">
        <ele>450</ele>
        <time>2021-03-13T15:44:23Z</time>
      </trkpt>
      <trkpt lat="43.03168" lon="0.81233">
        <ele>450</ele>
        <time>2021-03-13T15:44:24Z</time>
      </trkpt>
      <trkpt lat="43.03172" lon="0.81237">
        <ele>449</ele>
        <time>2021-03-13T15:44:25Z</time>
      </trkpt>
      <trkpt lat="43.03182" lon="0.81247">
        <ele>449</ele>
        <time>2021-03-13T15:44:26Z</time>
      </trkpt>
      <trkpt lat="43.03185" lon="0.81251">
        <ele>446</ele>
        <time>2021-03-13T15:44:27Z</time>
      </trkpt>
      <trkpt lat="43.03196" lon="0.81263">
        <ele>445</ele>
        <time>2021-03-13T15:44:28Z</time>
      </trkpt>
      <trkpt lat="43.03199" lon="0.81267">
        <ele>444</ele>
        <time>2021-03-13T15:44:29Z</time>
      </trkpt>
      <trkpt lat="43.03209" lon="0.81279">
        <ele>444</ele>
        <time>2021-03-13T15:44:30Z</time>
      </trkpt>
      <trkpt lat="43.03211" lon="0.81283">
        <ele>444</ele>
        <time>2021-03-13T15:44:31Z</time>
      </trkpt>
      <trkpt lat="43.03221" lon="0.81295">
        <ele>444</ele>
        <time>2021-03-13T15:44:32Z</time>
      </trkpt>
      <trkpt lat="43.03225" lon="0.81299">
        <ele>444</ele>
        <time>2021-03-13T15:44:33Z</time>
      </trkpt>
      <trkpt lat="43.03226" lon="0.81298">
        <ele>444</ele>
        <time>2021-03-13T15:44:34Z</time>
      </trkpt>
      <trkpt lat="43.03228" lon="0.81297">
        <ele>444</ele>
        <time>2021-03-13T15:44:35Z</time>
      </trkpt>
      <trkpt lat="43.0323" lon="0.81297">
        <ele>444</ele>
        <time>2021-03-13T15:44:36Z</time>
      </trkpt>
      <trkpt lat="43.03237" lon="0.81292">
        <ele>444</ele>
        <time>2021-03-13T15:44:37Z</time>
      </trkpt>
      <trkpt lat="43.0324" lon="0.81289">
        <ele>444</ele>
        <time>2021-03-13T15:44:38Z</time>
      </trkpt>
      <trkpt lat="43.03243" lon="0.81286">
        <ele>445</ele>
        <time>2021-03-13T15:44:39Z</time>
      </trkpt>
      <trkpt lat="43.03245" lon="0.81284">
        <ele>444</ele>
        <time>2021-03-13T15:44:40Z</time>
      </trkpt>
      <trkpt lat="43.03247" lon="0.81281">
        <ele>444</ele>
        <time>2021-03-13T15:44:41Z</time>
      </trkpt>
      <trkpt lat="43.03252" lon="0.81274">
        <ele>444</ele>
        <time>2021-03-13T15:44:42Z</time>
      </trkpt>
      <trkpt lat="43.03253" lon="0.81271">
        <ele>444</ele>
        <time>2021-03-13T15:44:43Z</time>
      </trkpt>
      <trkpt lat="43.03254" lon="0.81269">
        <ele>444</ele>
        <time>2021-03-13T15:44:44Z</time>
      </trkpt>
      <trkpt lat="43.03258" lon="0.81259">
        <ele>444</ele>
        <time>2021-03-13T15:44:45Z</time>
      </trkpt>
      <trkpt lat="43.03258" lon="0.81256">
        <ele>444</ele>
        <time>2021-03-13T15:44:46Z</time>
      </trkpt>
      <trkpt lat="43.03259" lon="0.81254">
        <ele>444</ele>
        <time>2021-03-13T15:44:47Z</time>
      </trkpt>
      <trkpt lat="43.03262" lon="0.81243">
        <ele>444</ele>
        <time>2021-03-13T15:44:48Z</time>
      </trkpt>
      <trkpt lat="43.03263" lon="0.8124">
        <ele>444</ele>
        <time>2021-03-13T15:44:49Z</time>
      </trkpt>
      <trkpt lat="43.03264" lon="0.81237">
        <ele>445</ele>
        <time>2021-03-13T15:44:50Z</time>
      </trkpt>
      <trkpt lat="43.03265" lon="0.81233">
        <ele>445</ele>
        <time>2021-03-13T15:44:51Z</time>
      </trkpt>
      <trkpt lat="43.03266" lon="0.8123">
        <ele>445</ele>
        <time>2021-03-13T15:44:52Z</time>
      </trkpt>
      <trkpt lat="43.03267" lon="0.81226">
        <ele>445</ele>
        <time>2021-03-13T15:44:53Z</time>
      </trkpt>
      <trkpt lat="43.03269" lon="0.81225">
        <ele>445</ele>
        <time>2021-03-13T15:44:54Z</time>
      </trkpt>
      <trkpt lat="43.03272" lon="0.81223">
        <ele>445</ele>
        <time>2021-03-13T15:44:55Z</time>
      </trkpt>
      <trkpt lat="43.03274" lon="0.81222">
        <ele>445</ele>
        <time>2021-03-13T15:44:56Z</time>
      </trkpt>
      <trkpt lat="43.03276" lon="0.81221">
        <ele>445</ele>
        <time>2021-03-13T15:44:57Z</time>
      </trkpt>
      <trkpt lat="43.03278" lon="0.8122">
        <ele>445</ele>
        <time>2021-03-13T15:44:58Z</time>
      </trkpt>
      <trkpt lat="43.0328" lon="0.81218">
        <ele>445</ele>
        <time>2021-03-13T15:44:59Z</time>
      </trkpt>
      <trkpt lat="43.03282" lon="0.81217">
        <ele>445</ele>
        <time>2021-03-13T15:45:00Z</time>
      </trkpt>
      <trkpt lat="43.03284" lon="0.81216">
        <ele>445</ele>
        <time>2021-03-13T15:45:01Z</time>
      </trkpt>
      <trkpt lat="43.03285" lon="0.81215">
        <ele>445</ele>
        <time>2021-03-13T15:45:02Z</time>
      </trkpt>
      <trkpt lat="43.03286" lon="0.81214">
        <ele>445</ele>
        <time>2021-03-13T15:45:03Z</time>
      </trkpt>
      <trkpt lat="43.03287" lon="0.81213">
        <ele>445</ele>
        <time>2021-03-13T15:45:04Z</time>
      </trkpt>
      <trkpt lat="43.03289" lon="0.81212">
        <ele>445</ele>
        <time>2021-03-13T15:45:05Z</time>
      </trkpt>
      <trkpt lat="43.03295" lon="0.81206">
        <ele>445</ele>
        <time>2021-03-13T15:45:06Z</time>
      </trkpt>
      <trkpt lat="43.03297" lon="0.81204">
        <ele>445</ele>
        <time>2021-03-13T15:45:07Z</time>
      </trkpt>
      <trkpt lat="43.03299" lon="0.81201">
        <ele>445</ele>
        <time>2021-03-13T15:45:08Z</time>
      </trkpt>
      <trkpt lat="43.03301" lon="0.81199">
        <ele>445</ele>
        <time>2021-03-13T15:45:09Z</time>
      </trkpt>
      <trkpt lat="43.03302" lon="0.81198">
        <ele>445</ele>
        <time>2021-03-13T15:45:10Z</time>
      </trkpt>
      <trkpt lat="43.03303" lon="0.81197">
        <ele>445</ele>
        <time>2021-03-13T15:45:11Z</time>
      </trkpt>
      <trkpt lat="43.03305" lon="0.81196">
        <ele>445</ele>
        <time>2021-03-13T15:45:12Z</time>
      </trkpt>
      <trkpt lat="43.03306" lon="0.81195">
        <ele>445</ele>
        <time>2021-03-13T15:45:13Z</time>
      </trkpt>
      <trkpt lat="43.03313" lon="0.8119">
        <ele>445</ele>
        <time>2021-03-13T15:45:14Z</time>
      </trkpt>
      <trkpt lat="43.03315" lon="0.81189">
        <ele>445</ele>
        <time>2021-03-13T15:45:15Z</time>
      </trkpt>
      <trkpt lat="43.03316" lon="0.81188">
        <ele>445</ele>
        <time>2021-03-13T15:45:16Z</time>
      </trkpt>
      <trkpt lat="43.03323" lon="0.81182">
        <ele>445</ele>
        <time>2021-03-13T15:45:17Z</time>
      </trkpt>
      <trkpt lat="43.03325" lon="0.81179">
        <ele>445</ele>
        <time>2021-03-13T15:45:18Z</time>
      </trkpt>
      <trkpt lat="43.03327" lon="0.81176">
        <ele>445</ele>
        <time>2021-03-13T15:45:19Z</time>
      </trkpt>
      <trkpt lat="43.03328" lon="0.81171">
        <ele>447</ele>
        <time>2021-03-13T15:45:20Z</time>
      </trkpt>
      <trkpt lat="43.03328" lon="0.81167">
        <ele>447</ele>
        <time>2021-03-13T15:45:21Z</time>
      </trkpt>
      <trkpt lat="43.03328" lon="0.81163">
        <ele>447</ele>
        <time>2021-03-13T15:45:22Z</time>
      </trkpt>
      <trkpt lat="43.03329" lon="0.81162">
        <ele>447</ele>
        <time>2021-03-13T15:45:23Z</time>
      </trkpt>
      <trkpt lat="43.0333" lon="0.8116">
        <ele>447</ele>
        <time>2021-03-13T15:45:24Z</time>
      </trkpt>
      <trkpt lat="43.03331" lon="0.81159">
        <ele>447</ele>
        <time>2021-03-13T15:45:25Z</time>
      </trkpt>
      <trkpt lat="43.03332" lon="0.81157">
        <ele>447</ele>
        <time>2021-03-13T15:45:26Z</time>
      </trkpt>
      <trkpt lat="43.03337" lon="0.81151">
        <ele>447</ele>
        <time>2021-03-13T15:45:27Z</time>
      </trkpt>
      <trkpt lat="43.03338" lon="0.8115">
        <ele>447</ele>
        <time>2021-03-13T15:45:28Z</time>
      </trkpt>
      <trkpt lat="43.0334" lon="0.8115">
        <ele>447</ele>
        <time>2021-03-13T15:45:29Z</time>
      </trkpt>
      <trkpt lat="43.03341" lon="0.81149">
        <ele>449</ele>
        <time>2021-03-13T15:45:30Z</time>
      </trkpt>
      <trkpt lat="43.03347" lon="0.81147">
        <ele>449</ele>
        <time>2021-03-13T15:45:31Z</time>
      </trkpt>
      <trkpt lat="43.03348" lon="0.81146">
        <ele>449</ele>
        <time>2021-03-13T15:45:32Z</time>
      </trkpt>
      <trkpt lat="43.03349" lon="0.81146">
        <ele>449</ele>
        <time>2021-03-13T15:45:33Z</time>
      </trkpt>
      <trkpt lat="43.0335" lon="0.81145">
        <ele>449</ele>
        <time>2021-03-13T15:45:34Z</time>
      </trkpt>
      <trkpt lat="43.03351" lon="0.81145">
        <ele>449</ele>
        <time>2021-03-13T15:45:35Z</time>
      </trkpt>
      <trkpt lat="43.03357" lon="0.81142">
        <ele>449</ele>
        <time>2021-03-13T15:45:36Z</time>
      </trkpt>
      <trkpt lat="43.03358" lon="0.81141">
        <ele>449</ele>
        <time>2021-03-13T15:45:37Z</time>
      </trkpt>
      <trkpt lat="43.03359" lon="0.8114">
        <ele>449</ele>
        <time>2021-03-13T15:45:38Z</time>
      </trkpt>
      <trkpt lat="43.0336" lon="0.81139">
        <ele>449</ele>
        <time>2021-03-13T15:45:39Z</time>
      </trkpt>
      <trkpt lat="43.03361" lon="0.81138">
        <ele>451</ele>
        <time>2021-03-13T15:45:40Z</time>
      </trkpt>
      <trkpt lat="43.03367" lon="0.81131">
        <ele>451</ele>
        <time>2021-03-13T15:45:41Z</time>
      </trkpt>
      <trkpt lat="43.03369" lon="0.81129">
        <ele>451</ele>
        <time>2021-03-13T15:45:42Z</time>
      </trkpt>
      <trkpt lat="43.03371" lon="0.81127">
        <ele>451</ele>
        <time>2021-03-13T15:45:43Z</time>
      </trkpt>
      <trkpt lat="43.03373" lon="0.81125">
        <ele>451</ele>
        <time>2021-03-13T15:45:44Z</time>
      </trkpt>
      <trkpt lat="43.03375" lon="0.81124">
        <ele>451</ele>
        <time>2021-03-13T15:45:45Z</time>
      </trkpt>
      <trkpt lat="43.03376" lon="0.81123">
        <ele>451</ele>
        <time>2021-03-13T15:45:46Z</time>
      </trkpt>
      <trkpt lat="43.03378" lon="0.81123">
        <ele>451</ele>
        <time>2021-03-13T15:45:47Z</time>
      </trkpt>
      <trkpt lat="43.03379" lon="0.81122">
        <ele>451</ele>
        <time>2021-03-13T15:45:48Z</time>
      </trkpt>
      <trkpt lat="43.03381" lon="0.81121">
        <ele>451</ele>
        <time>2021-03-13T15:45:49Z</time>
      </trkpt>
      <trkpt lat="43.03382" lon="0.8112">
        <ele>452</ele>
        <time>2021-03-13T15:45:50Z</time>
      </trkpt>
      <trkpt lat="43.03384" lon="0.81119">
        <ele>452</ele>
        <time>2021-03-13T15:45:51Z</time>
      </trkpt>
      <trkpt lat="43.03385" lon="0.81118">
        <ele>452</ele>
        <time>2021-03-13T15:45:52Z</time>
      </trkpt>
      <trkpt lat="43.03387" lon="0.81116">
        <ele>452</ele>
        <time>2021-03-13T15:45:53Z</time>
      </trkpt>
      <trkpt lat="43.03388" lon="0.81115">
        <ele>452</ele>
        <time>2021-03-13T15:45:54Z</time>
      </trkpt>
      <trkpt lat="43.03389" lon="0.81114">
        <ele>452</ele>
        <time>2021-03-13T15:45:55Z</time>
      </trkpt>
      <trkpt lat="43.03391" lon="0.81113">
        <ele>452</ele>
        <time>2021-03-13T15:45:56Z</time>
      </trkpt>
      <trkpt lat="43.0339" lon="0.81111">
        <ele>452</ele>
        <time>2021-03-13T15:45:57Z</time>
      </trkpt>
      <trkpt lat="43.03389" lon="0.8111">
        <ele>452</ele>
        <time>2021-03-13T15:45:58Z</time>
      </trkpt>
      <trkpt lat="43.03388" lon="0.81109">
        <ele>452</ele>
        <time>2021-03-13T15:45:59Z</time>
      </trkpt>
      <trkpt lat="43.03388" lon="0.81108">
        <ele>457</ele>
        <time>2021-03-13T15:46:00Z</time>
      </trkpt>
      <trkpt lat="43.03387" lon="0.81106">
        <ele>457</ele>
        <time>2021-03-13T15:46:01Z</time>
      </trkpt>
      <trkpt lat="43.03386" lon="0.81105">
        <ele>457</ele>
        <time>2021-03-13T15:46:02Z</time>
      </trkpt>
      <trkpt lat="43.03385" lon="0.81104">
        <ele>457</ele>
        <time>2021-03-13T15:46:03Z</time>
      </trkpt>
      <trkpt lat="43.03384" lon="0.81102">
        <ele>457</ele>
        <time>2021-03-13T15:46:04Z</time>
      </trkpt>
      <trkpt lat="43.03383" lon="0.81101">
        <ele>458</ele>
        <time>2021-03-13T15:46:05Z</time>
      </trkpt>
      <trkpt lat="43.03382" lon="0.811">
        <ele>458</ele>
        <time>2021-03-13T15:46:06Z</time>
      </trkpt>
      <trkpt lat="43.03381" lon="0.81099">
        <ele>458</ele>
        <time>2021-03-13T15:46:07Z</time>
      </trkpt>
      <trkpt lat="43.0338" lon="0.81098">
        <ele>458</ele>
        <time>2021-03-13T15:46:08Z</time>
      </trkpt>
      <trkpt lat="43.03379" lon="0.81097">
        <ele>458</ele>
        <time>2021-03-13T15:46:09Z</time>
      </trkpt>
      <trkpt lat="43.03377" lon="0.81096">
        <ele>460</ele>
        <time>2021-03-13T15:46:10Z</time>
      </trkpt>
      <trkpt lat="43.03376" lon="0.81094">
        <ele>460</ele>
        <time>2021-03-13T15:46:11Z</time>
      </trkpt>
      <trkpt lat="43.03375" lon="0.81092">
        <ele>460</ele>
        <time>2021-03-13T15:46:12Z</time>
      </trkpt>
      <trkpt lat="43.03375" lon="0.8109">
        <ele>460</ele>
        <time>2021-03-13T15:46:13Z</time>
      </trkpt>
      <trkpt lat="43.03374" lon="0.81087">
        <ele>460</ele>
        <time>2021-03-13T15:46:14Z</time>
      </trkpt>
      <trkpt lat="43.03373" lon="0.81085">
        <ele>460</ele>
        <time>2021-03-13T15:46:15Z</time>
      </trkpt>
      <trkpt lat="43.03372" lon="0.81083">
        <ele>460</ele>
        <time>2021-03-13T15:46:16Z</time>
      </trkpt>
      <trkpt lat="43.03372" lon="0.81081">
        <ele>460</ele>
        <time>2021-03-13T15:46:17Z</time>
      </trkpt>
      <trkpt lat="43.03371" lon="0.81079">
        <ele>460</ele>
        <time>2021-03-13T15:46:18Z</time>
      </trkpt>
      <trkpt lat="43.03371" lon="0.81077">
        <ele>460</ele>
        <time>2021-03-13T15:46:19Z</time>
      </trkpt>
      <trkpt lat="43.03371" lon="0.81075">
        <ele>461</ele>
        <time>2021-03-13T15:46:20Z</time>
      </trkpt>
      <trkpt lat="43.0337" lon="0.81073">
        <ele>461</ele>
        <time>2021-03-13T15:46:21Z</time>
      </trkpt>
      <trkpt lat="43.0337" lon="0.81071">
        <ele>461</ele>
        <time>2021-03-13T15:46:22Z</time>
      </trkpt>
      <trkpt lat="43.03369" lon="0.81069">
        <ele>461</ele>
        <time>2021-03-13T15:46:23Z</time>
      </trkpt>
      <trkpt lat="43.03369" lon="0.81068">
        <ele>461</ele>
        <time>2021-03-13T15:46:24Z</time>
      </trkpt>
      <trkpt lat="43.03369" lon="0.81066">
        <ele>461</ele>
        <time>2021-03-13T15:46:25Z</time>
      </trkpt>
      <trkpt lat="43.03369" lon="0.81065">
        <ele>461</ele>
        <time>2021-03-13T15:46:26Z</time>
      </trkpt>
      <trkpt lat="43.03369" lon="0.81064">
        <ele>461</ele>
        <time>2021-03-13T15:46:27Z</time>
      </trkpt>
      <trkpt lat="43.03369" lon="0.81062">
        <ele>461</ele>
        <time>2021-03-13T15:46:28Z</time>
      </trkpt>
      <trkpt lat="43.03369" lon="0.81053">
        <ele>461</ele>
        <time>2021-03-13T15:46:29Z</time>
      </trkpt>
      <trkpt lat="43.03369" lon="0.8105">
        <ele>463</ele>
        <time>2021-03-13T15:46:30Z</time>
      </trkpt>
      <trkpt lat="43.0337" lon="0.81048">
        <ele>463</ele>
        <time>2021-03-13T15:46:31Z</time>
      </trkpt>
      <trkpt lat="43.03371" lon="0.81046">
        <ele>463</ele>
        <time>2021-03-13T15:46:32Z</time>
      </trkpt>
      <trkpt lat="43.03371" lon="0.81043">
        <ele>463</ele>
        <time>2021-03-13T15:46:33Z</time>
      </trkpt>
      <trkpt lat="43.03372" lon="0.81041">
        <ele>463</ele>
        <time>2021-03-13T15:46:34Z</time>
      </trkpt>
      <trkpt lat="43.03373" lon="0.81039">
        <ele>463</ele>
        <time>2021-03-13T15:46:35Z</time>
      </trkpt>
      <trkpt lat="43.03373" lon="0.81037">
        <ele>463</ele>
        <time>2021-03-13T15:46:36Z</time>
      </trkpt>
      <trkpt lat="43.03374" lon="0.81035">
        <ele>463</ele>
        <time>2021-03-13T15:46:37Z</time>
      </trkpt>
      <trkpt lat="43.03374" lon="0.81033">
        <ele>463</ele>
        <time>2021-03-13T15:46:38Z</time>
      </trkpt>
      <trkpt lat="43.03375" lon="0.81031">
        <ele>463</ele>
        <time>2021-03-13T15:46:39Z</time>
      </trkpt>
      <trkpt lat="43.03376" lon="0.81029">
        <ele>464</ele>
        <time>2021-03-13T15:46:40Z</time>
      </trkpt>
      <trkpt lat="43.03377" lon="0.81027">
        <ele>464</ele>
        <time>2021-03-13T15:46:41Z</time>
      </trkpt>
      <trkpt lat="43.03378" lon="0.81025">
        <ele>464</ele>
        <time>2021-03-13T15:46:42Z</time>
      </trkpt>
      <trkpt lat="43.03379" lon="0.81023">
        <ele>464</ele>
        <time>2021-03-13T15:46:43Z</time>
      </trkpt>
      <trkpt lat="43.0338" lon="0.81021">
        <ele>464</ele>
        <time>2021-03-13T15:46:44Z</time>
      </trkpt>
      <trkpt lat="43.0338" lon="0.81021">
        <ele>464</ele>
        <time>2021-03-13T15:46:45Z</time>
      </trkpt>
      <trkpt lat="43.03381" lon="0.8102">
        <ele>464</ele>
        <time>2021-03-13T15:46:46Z</time>
      </trkpt>
      <trkpt lat="43.03381" lon="0.81019">
        <ele>464</ele>
        <time>2021-03-13T15:46:47Z</time>
      </trkpt>
      <trkpt lat="43.03381" lon="0.81018">
        <ele>464</ele>
        <time>2021-03-13T15:46:48Z</time>
      </trkpt>
      <trkpt lat="43.03382" lon="0.81017">
        <ele>464</ele>
        <time>2021-03-13T15:46:49Z</time>
      </trkpt>
      <trkpt lat="43.03382" lon="0.81016">
        <ele>467</ele>
        <time>2021-03-13T15:46:50Z</time>
      </trkpt>
      <trkpt lat="43.03382" lon="0.81015">
        <ele>467</ele>
        <time>2021-03-13T15:46:51Z</time>
      </trkpt>
      <trkpt lat="43.03385" lon="0.81007">
        <ele>467</ele>
        <time>2021-03-13T15:46:52Z</time>
      </trkpt>
      <trkpt lat="43.03386" lon="0.81005">
        <ele>467</ele>
        <time>2021-03-13T15:46:53Z</time>
      </trkpt>
      <trkpt lat="43.03387" lon="0.81003">
        <ele>467</ele>
        <time>2021-03-13T15:46:54Z</time>
      </trkpt>
      <trkpt lat="43.03388" lon="0.81001">
        <ele>469</ele>
        <time>2021-03-13T15:46:55Z</time>
      </trkpt>
      <trkpt lat="43.03389" lon="0.80999">
        <ele>469</ele>
        <time>2021-03-13T15:46:56Z</time>
      </trkpt>
      <trkpt lat="43.0339" lon="0.80998">
        <ele>469</ele>
        <time>2021-03-13T15:46:57Z</time>
      </trkpt>
      <trkpt lat="43.03391" lon="0.80996">
        <ele>469</ele>
        <time>2021-03-13T15:46:58Z</time>
      </trkpt>
      <trkpt lat="43.03392" lon="0.80995">
        <ele>469</ele>
        <time>2021-03-13T15:46:59Z</time>
      </trkpt>
      <trkpt lat="43.03392" lon="0.80994">
        <ele>471</ele>
        <time>2021-03-13T15:47:00Z</time>
      </trkpt>
      <trkpt lat="43.03393" lon="0.80992">
        <ele>471</ele>
        <time>2021-03-13T15:47:01Z</time>
      </trkpt>
      <trkpt lat="43.03394" lon="0.80991">
        <ele>471</ele>
        <time>2021-03-13T15:47:02Z</time>
      </trkpt>
      <trkpt lat="43.03395" lon="0.80989">
        <ele>471</ele>
        <time>2021-03-13T15:47:03Z</time>
      </trkpt>
      <trkpt lat="43.03395" lon="0.80988">
        <ele>471</ele>
        <time>2021-03-13T15:47:04Z</time>
      </trkpt>
      <trkpt lat="43.03396" lon="0.80986">
        <ele>473</ele>
        <time>2021-03-13T15:47:05Z</time>
      </trkpt>
      <trkpt lat="43.03397" lon="0.80985">
        <ele>473</ele>
        <time>2021-03-13T15:47:06Z</time>
      </trkpt>
      <trkpt lat="43.03397" lon="0.80983">
        <ele>473</ele>
        <time>2021-03-13T15:47:07Z</time>
      </trkpt>
      <trkpt lat="43.03398" lon="0.80981">
        <ele>473</ele>
        <time>2021-03-13T15:47:08Z</time>
      </trkpt>
      <trkpt lat="43.03399" lon="0.8098">
        <ele>473</ele>
        <time>2021-03-13T15:47:09Z</time>
      </trkpt>
      <trkpt lat="43.034" lon="0.80979">
        <ele>473</ele>
        <time>2021-03-13T15:47:10Z</time>
      </trkpt>
      <trkpt lat="43.03401" lon="0.80977">
        <ele>473</ele>
        <time>2021-03-13T15:47:11Z</time>
      </trkpt>
      <trkpt lat="43.03402" lon="0.80976">
        <ele>473</ele>
        <time>2021-03-13T15:47:12Z</time>
      </trkpt>
      <trkpt lat="43.03403" lon="0.80974">
        <ele>473</ele>
        <time>2021-03-13T15:47:13Z</time>
      </trkpt>
      <trkpt lat="43.03403" lon="0.80973">
        <ele>473</ele>
        <time>2021-03-13T15:47:14Z</time>
      </trkpt>
      <trkpt lat="43.03404" lon="0.80971">
        <ele>473</ele>
        <time>2021-03-13T15:47:15Z</time>
      </trkpt>
      <trkpt lat="43.03405" lon="0.80969">
        <ele>473</ele>
        <time>2021-03-13T15:47:16Z</time>
      </trkpt>
      <trkpt lat="43.03406" lon="0.80968">
        <ele>473</ele>
        <time>2021-03-13T15:47:17Z</time>
      </trkpt>
      <trkpt lat="43.03407" lon="0.80966">
        <ele>473</ele>
        <time>2021-03-13T15:47:18Z</time>
      </trkpt>
      <trkpt lat="43.03408" lon="0.80964">
        <ele>473</ele>
        <time>2021-03-13T15:47:19Z</time>
      </trkpt>
      <trkpt lat="43.03409" lon="0.80962">
        <ele>475</ele>
        <time>2021-03-13T15:47:20Z</time>
      </trkpt>
      <trkpt lat="43.0341" lon="0.8096">
        <ele>475</ele>
        <time>2021-03-13T15:47:21Z</time>
      </trkpt>
      <trkpt lat="43.0341" lon="0.80958">
        <ele>475</ele>
        <time>2021-03-13T15:47:22Z</time>
      </trkpt>
      <trkpt lat="43.03411" lon="0.80956">
        <ele>475</ele>
        <time>2021-03-13T15:47:23Z</time>
      </trkpt>
      <trkpt lat="43.03412" lon="0.80954">
        <ele>475</ele>
        <time>2021-03-13T15:47:24Z</time>
      </trkpt>
      <trkpt lat="43.03413" lon="0.80953">
        <ele>475</ele>
        <time>2021-03-13T15:47:25Z</time>
      </trkpt>
      <trkpt lat="43.03414" lon="0.80952">
        <ele>475</ele>
        <time>2021-03-13T15:47:26Z</time>
      </trkpt>
      <trkpt lat="43.03414" lon="0.8095">
        <ele>475</ele>
        <time>2021-03-13T15:47:27Z</time>
      </trkpt>
      <trkpt lat="43.03415" lon="0.80949">
        <ele>475</ele>
        <time>2021-03-13T15:47:28Z</time>
      </trkpt>
      <trkpt lat="43.03416" lon="0.80947">
        <ele>475</ele>
        <time>2021-03-13T15:47:29Z</time>
      </trkpt>
      <trkpt lat="43.03418" lon="0.80946">
        <ele>477</ele>
        <time>2021-03-13T15:47:30Z</time>
      </trkpt>
      <trkpt lat="43.03419" lon="0.80944">
        <ele>477</ele>
        <time>2021-03-13T15:47:31Z</time>
      </trkpt>
      <trkpt lat="43.0342" lon="0.80943">
        <ele>477</ele>
        <time>2021-03-13T15:47:32Z</time>
      </trkpt>
      <trkpt lat="43.03422" lon="0.80941">
        <ele>477</ele>
        <time>2021-03-13T15:47:33Z</time>
      </trkpt>
      <trkpt lat="43.03423" lon="0.8094">
        <ele>477</ele>
        <time>2021-03-13T15:47:34Z</time>
      </trkpt>
      <trkpt lat="43.03425" lon="0.80939">
        <ele>479</ele>
        <time>2021-03-13T15:47:35Z</time>
      </trkpt>
      <trkpt lat="43.03426" lon="0.80938">
        <ele>479</ele>
        <time>2021-03-13T15:47:36Z</time>
      </trkpt>
      <trkpt lat="43.03427" lon="0.80939">
        <ele>479</ele>
        <time>2021-03-13T15:47:37Z</time>
      </trkpt>
      <trkpt lat="43.03428" lon="0.8094">
        <ele>479</ele>
        <time>2021-03-13T15:47:38Z</time>
      </trkpt>
      <trkpt lat="43.03429" lon="0.8094">
        <ele>479</ele>
        <time>2021-03-13T15:47:39Z</time>
      </trkpt>
      <trkpt lat="43.0343" lon="0.80941">
        <ele>481</ele>
        <time>2021-03-13T15:47:40Z</time>
      </trkpt>
      <trkpt lat="43.03431" lon="0.80943">
        <ele>481</ele>
        <time>2021-03-13T15:47:41Z</time>
      </trkpt>
      <trkpt lat="43.03431" lon="0.80945">
        <ele>481</ele>
        <time>2021-03-13T15:47:42Z</time>
      </trkpt>
      <trkpt lat="43.03431" lon="0.80947">
        <ele>481</ele>
        <time>2021-03-13T15:47:43Z</time>
      </trkpt>
      <trkpt lat="43.03432" lon="0.8095">
        <ele>481</ele>
        <time>2021-03-13T15:47:44Z</time>
      </trkpt>
      <trkpt lat="43.03432" lon="0.80952">
        <ele>481</ele>
        <time>2021-03-13T15:47:45Z</time>
      </trkpt>
      <trkpt lat="43.03433" lon="0.80955">
        <ele>481</ele>
        <time>2021-03-13T15:47:46Z</time>
      </trkpt>
      <trkpt lat="43.03434" lon="0.80957">
        <ele>481</ele>
        <time>2021-03-13T15:47:47Z</time>
      </trkpt>
      <trkpt lat="43.03435" lon="0.8096">
        <ele>481</ele>
        <time>2021-03-13T15:47:48Z</time>
      </trkpt>
      <trkpt lat="43.03436" lon="0.80962">
        <ele>481</ele>
        <time>2021-03-13T15:47:49Z</time>
      </trkpt>
      <trkpt lat="43.03437" lon="0.80965">
        <ele>483</ele>
        <time>2021-03-13T15:47:50Z</time>
      </trkpt>
      <trkpt lat="43.03437" lon="0.80966">
        <ele>483</ele>
        <time>2021-03-13T15:47:51Z</time>
      </trkpt>
      <trkpt lat="43.03438" lon="0.80968">
        <ele>483</ele>
        <time>2021-03-13T15:47:52Z</time>
      </trkpt>
      <trkpt lat="43.03439" lon="0.80969">
        <ele>483</ele>
        <time>2021-03-13T15:47:53Z</time>
      </trkpt>
      <trkpt lat="43.0344" lon="0.80971">
        <ele>483</ele>
        <time>2021-03-13T15:47:54Z</time>
      </trkpt>
      <trkpt lat="43.03441" lon="0.80973">
        <ele>485</ele>
        <time>2021-03-13T15:47:55Z</time>
      </trkpt>
      <trkpt lat="43.03442" lon="0.80975">
        <ele>485</ele>
        <time>2021-03-13T15:47:56Z</time>
      </trkpt>
      <trkpt lat="43.03442" lon="0.80977">
        <ele>485</ele>
        <time>2021-03-13T15:47:57Z</time>
      </trkpt>
      <trkpt lat="43.03444" lon="0.80979">
        <ele>485</ele>
        <time>2021-03-13T15:47:58Z</time>
      </trkpt>
      <trkpt lat="43.03446" lon="0.80981">
        <ele>485</ele>
        <time>2021-03-13T15:47:59Z</time>
      </trkpt>
      <trkpt lat="43.03447" lon="0.80983">
        <ele>486</ele>
        <time>2021-03-13T15:48:00Z</time>
      </trkpt>
      <trkpt lat="43.03448" lon="0.80984">
        <ele>486</ele>
        <time>2021-03-13T15:48:01Z</time>
      </trkpt>
      <trkpt lat="43.03449" lon="0.80986">
        <ele>486</ele>
        <time>2021-03-13T15:48:02Z</time>
      </trkpt>
      <trkpt lat="43.0345" lon="0.80988">
        <ele>486</ele>
        <time>2021-03-13T15:48:03Z</time>
      </trkpt>
      <trkpt lat="43.03452" lon="0.8099">
        <ele>486</ele>
        <time>2021-03-13T15:48:04Z</time>
      </trkpt>
      <trkpt lat="43.03453" lon="0.80991">
        <ele>488</ele>
        <time>2021-03-13T15:48:05Z</time>
      </trkpt>
      <trkpt lat="43.03454" lon="0.80993">
        <ele>488</ele>
        <time>2021-03-13T15:48:06Z</time>
      </trkpt>
      <trkpt lat="43.03455" lon="0.80994">
        <ele>488</ele>
        <time>2021-03-13T15:48:07Z</time>
      </trkpt>
      <trkpt lat="43.03456" lon="0.80996">
        <ele>488</ele>
        <time>2021-03-13T15:48:08Z</time>
      </trkpt>
      <trkpt lat="43.03457" lon="0.80997">
        <ele>488</ele>
        <time>2021-03-13T15:48:09Z</time>
      </trkpt>
      <trkpt lat="43.03459" lon="0.80999">
        <ele>489</ele>
        <time>2021-03-13T15:48:10Z</time>
      </trkpt>
      <trkpt lat="43.0346" lon="0.81">
        <ele>489</ele>
        <time>2021-03-13T15:48:11Z</time>
      </trkpt>
      <trkpt lat="43.03461" lon="0.81002">
        <ele>489</ele>
        <time>2021-03-13T15:48:12Z</time>
      </trkpt>
      <trkpt lat="43.03462" lon="0.81003">
        <ele>489</ele>
        <time>2021-03-13T15:48:13Z</time>
      </trkpt>
      <trkpt lat="43.03463" lon="0.81005">
        <ele>489</ele>
        <time>2021-03-13T15:48:14Z</time>
      </trkpt>
      <trkpt lat="43.03464" lon="0.81006">
        <ele>490</ele>
        <time>2021-03-13T15:48:15Z</time>
      </trkpt>
      <trkpt lat="43.03465" lon="0.81007">
        <ele>490</ele>
        <time>2021-03-13T15:48:16Z</time>
      </trkpt>
      <trkpt lat="43.03466" lon="0.81009">
        <ele>490</ele>
        <time>2021-03-13T15:48:17Z</time>
      </trkpt>
      <trkpt lat="43.03467" lon="0.8101">
        <ele>490</ele>
        <time>2021-03-13T15:48:18Z</time>
      </trkpt>
      <trkpt lat="43.03468" lon="0.81011">
        <ele>490</ele>
        <time>2021-03-13T15:48:19Z</time>
      </trkpt>
      <trkpt lat="43.03469" lon="0.81013">
        <ele>491</ele>
        <time>2021-03-13T15:48:20Z</time>
      </trkpt>
      <trkpt lat="43.0347" lon="0.81014">
        <ele>491</ele>
        <time>2021-03-13T15:48:21Z</time>
      </trkpt>
      <trkpt lat="43.03471" lon="0.81016">
        <ele>491</ele>
        <time>2021-03-13T15:48:22Z</time>
      </trkpt>
      <trkpt lat="43.03472" lon="0.81017">
        <ele>491</ele>
        <time>2021-03-13T15:48:23Z</time>
      </trkpt>
      <trkpt lat="43.03473" lon="0.81019">
        <ele>491</ele>
        <time>2021-03-13T15:48:24Z</time>
      </trkpt>
      <trkpt lat="43.03474" lon="0.81021">
        <ele>491</ele>
        <time>2021-03-13T15:48:25Z</time>
      </trkpt>
      <trkpt lat="43.03475" lon="0.81023">
        <ele>491</ele>
        <time>2021-03-13T15:48:26Z</time>
      </trkpt>
      <trkpt lat="43.03476" lon="0.81025">
        <ele>491</ele>
        <time>2021-03-13T15:48:27Z</time>
      </trkpt>
      <trkpt lat="43.03477" lon="0.81026">
        <ele>491</ele>
        <time>2021-03-13T15:48:28Z</time>
      </trkpt>
      <trkpt lat="43.03478" lon="0.81028">
        <ele>491</ele>
        <time>2021-03-13T15:48:29Z</time>
      </trkpt>
      <trkpt lat="43.0348" lon="0.8103">
        <ele>493</ele>
        <time>2021-03-13T15:48:30Z</time>
      </trkpt>
      <trkpt lat="43.03481" lon="0.81031">
        <ele>493</ele>
        <time>2021-03-13T15:48:31Z</time>
      </trkpt>
      <trkpt lat="43.03482" lon="0.81032">
        <ele>493</ele>
        <time>2021-03-13T15:48:32Z</time>
      </trkpt>
      <trkpt lat="43.03483" lon="0.81034">
        <ele>493</ele>
        <time>2021-03-13T15:48:33Z</time>
      </trkpt>
      <trkpt lat="43.03484" lon="0.81036">
        <ele>493</ele>
        <time>2021-03-13T15:48:34Z</time>
      </trkpt>
      <trkpt lat="43.03485" lon="0.81037">
        <ele>493</ele>
        <time>2021-03-13T15:48:35Z</time>
      </trkpt>
      <trkpt lat="43.03486" lon="0.81039">
        <ele>493</ele>
        <time>2021-03-13T15:48:36Z</time>
      </trkpt>
      <trkpt lat="43.03487" lon="0.81041">
        <ele>493</ele>
        <time>2021-03-13T15:48:37Z</time>
      </trkpt>
      <trkpt lat="43.03488" lon="0.81044">
        <ele>493</ele>
        <time>2021-03-13T15:48:38Z</time>
      </trkpt>
      <trkpt lat="43.0349" lon="0.81046">
        <ele>493</ele>
        <time>2021-03-13T15:48:39Z</time>
      </trkpt>
      <trkpt lat="43.03491" lon="0.81049">
        <ele>495</ele>
        <time>2021-03-13T15:48:40Z</time>
      </trkpt>
      <trkpt lat="43.03492" lon="0.81052">
        <ele>495</ele>
        <time>2021-03-13T15:48:41Z</time>
      </trkpt>
      <trkpt lat="43.03493" lon="0.81055">
        <ele>495</ele>
        <time>2021-03-13T15:48:42Z</time>
      </trkpt>
      <trkpt lat="43.03494" lon="0.81057">
        <ele>495</ele>
        <time>2021-03-13T15:48:43Z</time>
      </trkpt>
      <trkpt lat="43.03495" lon="0.8106">
        <ele>495</ele>
        <time>2021-03-13T15:48:44Z</time>
      </trkpt>
      <trkpt lat="43.03496" lon="0.81062">
        <ele>497</ele>
        <time>2021-03-13T15:48:45Z</time>
      </trkpt>
      <trkpt lat="43.03498" lon="0.81064">
        <ele>497</ele>
        <time>2021-03-13T15:48:46Z</time>
      </trkpt>
      <trkpt lat="43.03499" lon="0.81066">
        <ele>497</ele>
        <time>2021-03-13T15:48:47Z</time>
      </trkpt>
      <trkpt lat="43.035" lon="0.81068">
        <ele>497</ele>
        <time>2021-03-13T15:48:48Z</time>
      </trkpt>
      <trkpt lat="43.03501" lon="0.8107">
        <ele>497</ele>
        <time>2021-03-13T15:48:49Z</time>
      </trkpt>
      <trkpt lat="43.03503" lon="0.81072">
        <ele>497</ele>
        <time>2021-03-13T15:48:50Z</time>
      </trkpt>
      <trkpt lat="43.03504" lon="0.81074">
        <ele>497</ele>
        <time>2021-03-13T15:48:51Z</time>
      </trkpt>
      <trkpt lat="43.03505" lon="0.81076">
        <ele>497</ele>
        <time>2021-03-13T15:48:52Z</time>
      </trkpt>
      <trkpt lat="43.03506" lon="0.81078">
        <ele>497</ele>
        <time>2021-03-13T15:48:53Z</time>
      </trkpt>
      <trkpt lat="43.03507" lon="0.81081">
        <ele>497</ele>
        <time>2021-03-13T15:48:54Z</time>
      </trkpt>
      <trkpt lat="43.03508" lon="0.81083">
        <ele>497</ele>
        <time>2021-03-13T15:48:55Z</time>
      </trkpt>
      <trkpt lat="43.0351" lon="0.81085">
        <ele>497</ele>
        <time>2021-03-13T15:48:56Z</time>
      </trkpt>
      <trkpt lat="43.03511" lon="0.81088">
        <ele>497</ele>
        <time>2021-03-13T15:48:57Z</time>
      </trkpt>
      <trkpt lat="43.03513" lon="0.8109">
        <ele>497</ele>
        <time>2021-03-13T15:48:58Z</time>
      </trkpt>
      <trkpt lat="43.03514" lon="0.81092">
        <ele>497</ele>
        <time>2021-03-13T15:48:59Z</time>
      </trkpt>
      <trkpt lat="43.03516" lon="0.81094">
        <ele>499</ele>
        <time>2021-03-13T15:49:00Z</time>
      </trkpt>
      <trkpt lat="43.03517" lon="0.81096">
        <ele>499</ele>
        <time>2021-03-13T15:49:01Z</time>
      </trkpt>
      <trkpt lat="43.03519" lon="0.81097">
        <ele>499</ele>
        <time>2021-03-13T15:49:02Z</time>
      </trkpt>
      <trkpt lat="43.0352" lon="0.81099">
        <ele>499</ele>
        <time>2021-03-13T15:49:03Z</time>
      </trkpt>
      <trkpt lat="43.03521" lon="0.81101">
        <ele>499</ele>
        <time>2021-03-13T15:49:04Z</time>
      </trkpt>
      <trkpt lat="43.03522" lon="0.81102">
        <ele>499</ele>
        <time>2021-03-13T15:49:05Z</time>
      </trkpt>
      <trkpt lat="43.03524" lon="0.81104">
        <ele>499</ele>
        <time>2021-03-13T15:49:06Z</time>
      </trkpt>
      <trkpt lat="43.03525" lon="0.81105">
        <ele>499</ele>
        <time>2021-03-13T15:49:07Z</time>
      </trkpt>
      <trkpt lat="43.03526" lon="0.81107">
        <ele>499</ele>
        <time>2021-03-13T15:49:08Z</time>
      </trkpt>
      <trkpt lat="43.03527" lon="0.81109">
        <ele>499</ele>
        <time>2021-03-13T15:49:09Z</time>
      </trkpt>
      <trkpt lat="43.03529" lon="0.81111">
        <ele>500</ele>
        <time>2021-03-13T15:49:10Z</time>
      </trkpt>
      <trkpt lat="43.0353" lon="0.81114">
        <ele>500</ele>
        <time>2021-03-13T15:49:11Z</time>
      </trkpt>
      <trkpt lat="43.03531" lon="0.81116">
        <ele>500</ele>
        <time>2021-03-13T15:49:12Z</time>
      </trkpt>
      <trkpt lat="43.03532" lon="0.81118">
        <ele>500</ele>
        <time>2021-03-13T15:49:13Z</time>
      </trkpt>
      <trkpt lat="43.03534" lon="0.81119">
        <ele>500</ele>
        <time>2021-03-13T15:49:14Z</time>
      </trkpt>
      <trkpt lat="43.03535" lon="0.81121">
        <ele>500</ele>
        <time>2021-03-13T15:49:15Z</time>
      </trkpt>
      <trkpt lat="43.03536" lon="0.81123">
        <ele>500</ele>
        <time>2021-03-13T15:49:16Z</time>
      </trkpt>
      <trkpt lat="43.03537" lon="0.81124">
        <ele>500</ele>
        <time>2021-03-13T15:49:17Z</time>
      </trkpt>
      <trkpt lat="43.03538" lon="0.81126">
        <ele>500</ele>
        <time>2021-03-13T15:49:18Z</time>
      </trkpt>
      <trkpt lat="43.0354" lon="0.81128">
        <ele>500</ele>
        <time>2021-03-13T15:49:19Z</time>
      </trkpt>
      <trkpt lat="43.03541" lon="0.81129">
        <ele>502</ele>
        <time>2021-03-13T15:49:20Z</time>
      </trkpt>
      <trkpt lat="43.03542" lon="0.8113">
        <ele>502</ele>
        <time>2021-03-13T15:49:21Z</time>
      </trkpt>
      <trkpt lat="43.03542" lon="0.81131">
        <ele>502</ele>
        <time>2021-03-13T15:49:22Z</time>
      </trkpt>
      <trkpt lat="43.03543" lon="0.81132">
        <ele>502</ele>
        <time>2021-03-13T15:49:23Z</time>
      </trkpt>
      <trkpt lat="43.03544" lon="0.81132">
        <ele>502</ele>
        <time>2021-03-13T15:49:24Z</time>
      </trkpt>
      <trkpt lat="43.03545" lon="0.81133">
        <ele>502</ele>
        <time>2021-03-13T15:49:25Z</time>
      </trkpt>
      <trkpt lat="43.03545" lon="0.81134">
        <ele>502</ele>
        <time>2021-03-13T15:49:26Z</time>
      </trkpt>
      <trkpt lat="43.03551" lon="0.8114">
        <ele>502</ele>
        <time>2021-03-13T15:49:27Z</time>
      </trkpt>
      <trkpt lat="43.03553" lon="0.81142">
        <ele>502</ele>
        <time>2021-03-13T15:49:28Z</time>
      </trkpt>
      <trkpt lat="43.03554" lon="0.81143">
        <ele>502</ele>
        <time>2021-03-13T15:49:29Z</time>
      </trkpt>
      <trkpt lat="43.03555" lon="0.81145">
        <ele>504</ele>
        <time>2021-03-13T15:49:30Z</time>
      </trkpt>
      <trkpt lat="43.03557" lon="0.81147">
        <ele>504</ele>
        <time>2021-03-13T15:49:31Z</time>
      </trkpt>
      <trkpt lat="43.03558" lon="0.81149">
        <ele>504</ele>
        <time>2021-03-13T15:49:32Z</time>
      </trkpt>
      <trkpt lat="43.0356" lon="0.81151">
        <ele>504</ele>
        <time>2021-03-13T15:49:33Z</time>
      </trkpt>
      <trkpt lat="43.03561" lon="0.81153">
        <ele>504</ele>
        <time>2021-03-13T15:49:34Z</time>
      </trkpt>
      <trkpt lat="43.03563" lon="0.81155">
        <ele>504</ele>
        <time>2021-03-13T15:49:35Z</time>
      </trkpt>
      <trkpt lat="43.03565" lon="0.81156">
        <ele>504</ele>
        <time>2021-03-13T15:49:36Z</time>
      </trkpt>
      <trkpt lat="43.03565" lon="0.81157">
        <ele>504</ele>
        <time>2021-03-13T15:49:37Z</time>
      </trkpt>
      <trkpt lat="43.03566" lon="0.81158">
        <ele>504</ele>
        <time>2021-03-13T15:49:38Z</time>
      </trkpt>
      <trkpt lat="43.03567" lon="0.81159">
        <ele>504</ele>
        <time>2021-03-13T15:49:39Z</time>
      </trkpt>
      <trkpt lat="43.03568" lon="0.8116">
        <ele>506</ele>
        <time>2021-03-13T15:49:40Z</time>
      </trkpt>
      <trkpt lat="43.03568" lon="0.8116">
        <ele>506</ele>
        <time>2021-03-13T15:49:41Z</time>
      </trkpt>
      <trkpt lat="43.03569" lon="0.81161">
        <ele>506</ele>
        <time>2021-03-13T15:49:42Z</time>
      </trkpt>
      <trkpt lat="43.03575" lon="0.81167">
        <ele>506</ele>
        <time>2021-03-13T15:49:43Z</time>
      </trkpt>
      <trkpt lat="43.03577" lon="0.81168">
        <ele>506</ele>
        <time>2021-03-13T15:49:44Z</time>
      </trkpt>
      <trkpt lat="43.03579" lon="0.81169">
        <ele>507</ele>
        <time>2021-03-13T15:49:45Z</time>
      </trkpt>
      <trkpt lat="43.03581" lon="0.8117">
        <ele>507</ele>
        <time>2021-03-13T15:49:46Z</time>
      </trkpt>
      <trkpt lat="43.03583" lon="0.81171">
        <ele>507</ele>
        <time>2021-03-13T15:49:47Z</time>
      </trkpt>
      <trkpt lat="43.03584" lon="0.81172">
        <ele>507</ele>
        <time>2021-03-13T15:49:48Z</time>
      </trkpt>
      <trkpt lat="43.03586" lon="0.81173">
        <ele>507</ele>
        <time>2021-03-13T15:49:49Z</time>
      </trkpt>
      <trkpt lat="43.03588" lon="0.81174">
        <ele>509</ele>
        <time>2021-03-13T15:49:50Z</time>
      </trkpt>
      <trkpt lat="43.0359" lon="0.81175">
        <ele>509</ele>
        <time>2021-03-13T15:49:51Z</time>
      </trkpt>
      <trkpt lat="43.03591" lon="0.81176">
        <ele>509</ele>
        <time>2021-03-13T15:49:52Z</time>
      </trkpt>
      <trkpt lat="43.03592" lon="0.81176">
        <ele>509</ele>
        <time>2021-03-13T15:49:53Z</time>
      </trkpt>
      <trkpt lat="43.03593" lon="0.81177">
        <ele>509</ele>
        <time>2021-03-13T15:49:54Z</time>
      </trkpt>
      <trkpt lat="43.03594" lon="0.81177">
        <ele>510</ele>
        <time>2021-03-13T15:49:55Z</time>
      </trkpt>
      <trkpt lat="43.03595" lon="0.81178">
        <ele>510</ele>
        <time>2021-03-13T15:49:56Z</time>
      </trkpt>
      <trkpt lat="43.03595" lon="0.81178">
        <ele>510</ele>
        <time>2021-03-13T15:49:57Z</time>
      </trkpt>
      <trkpt lat="43.03596" lon="0.81178">
        <ele>510</ele>
        <time>2021-03-13T15:49:58Z</time>
      </trkpt>
      <trkpt lat="43.03602" lon="0.81182">
        <ele>510</ele>
        <time>2021-03-13T15:49:59Z</time>
      </trkpt>
      <trkpt lat="43.03603" lon="0.81182">
        <ele>511</ele>
        <time>2021-03-13T15:50:00Z</time>
      </trkpt>
      <trkpt lat="43.03604" lon="0.81183">
        <ele>511</ele>
        <time>2021-03-13T15:50:01Z</time>
      </trkpt>
      <trkpt lat="43.03605" lon="0.81183">
        <ele>511</ele>
        <time>2021-03-13T15:50:02Z</time>
      </trkpt>
      <trkpt lat="43.03606" lon="0.81184">
        <ele>511</ele>
        <time>2021-03-13T15:50:03Z</time>
      </trkpt>
      <trkpt lat="43.03614" lon="0.81188">
        <ele>511</ele>
        <time>2021-03-13T15:50:04Z</time>
      </trkpt>
      <trkpt lat="43.03616" lon="0.81188">
        <ele>511</ele>
        <time>2021-03-13T15:50:05Z</time>
      </trkpt>
      <trkpt lat="43.03619" lon="0.81189">
        <ele>511</ele>
        <time>2021-03-13T15:50:06Z</time>
      </trkpt>
      <trkpt lat="43.03621" lon="0.8119">
        <ele>511</ele>
        <time>2021-03-13T15:50:07Z</time>
      </trkpt>
      <trkpt lat="43.03622" lon="0.8119">
        <ele>511</ele>
        <time>2021-03-13T15:50:08Z</time>
      </trkpt>
      <trkpt lat="43.03623" lon="0.8119">
        <ele>511</ele>
        <time>2021-03-13T15:50:09Z</time>
      </trkpt>
      <trkpt lat="43.03625" lon="0.81191">
        <ele>512</ele>
        <time>2021-03-13T15:50:10Z</time>
      </trkpt>
      <trkpt lat="43.03626" lon="0.81191">
        <ele>512</ele>
        <time>2021-03-13T15:50:11Z</time>
      </trkpt>
      <trkpt lat="43.03627" lon="0.81191">
        <ele>512</ele>
        <time>2021-03-13T15:50:12Z</time>
      </trkpt>
      <trkpt lat="43.03634" lon="0.81191">
        <ele>512</ele>
        <time>2021-03-13T15:50:13Z</time>
      </trkpt>
      <trkpt lat="43.03635" lon="0.81191">
        <ele>512</ele>
        <time>2021-03-13T15:50:14Z</time>
      </trkpt>
      <trkpt lat="43.03636" lon="0.81191">
        <ele>512</ele>
        <time>2021-03-13T15:50:15Z</time>
      </trkpt>
      <trkpt lat="43.03637" lon="0.8119">
        <ele>512</ele>
        <time>2021-03-13T15:50:16Z</time>
      </trkpt>
      <trkpt lat="43.03638" lon="0.8119">
        <ele>512</ele>
        <time>2021-03-13T15:50:17Z</time>
      </trkpt>
      <trkpt lat="43.03644" lon="0.81187">
        <ele>512</ele>
        <time>2021-03-13T15:50:18Z</time>
      </trkpt>
      <trkpt lat="43.03644" lon="0.81186">
        <ele>512</ele>
        <time>2021-03-13T15:50:19Z</time>
      </trkpt>
      <trkpt lat="43.03644" lon="0.81185">
        <ele>513</ele>
        <time>2021-03-13T15:50:20Z</time>
      </trkpt>
      <trkpt lat="43.03644" lon="0.81184">
        <ele>513</ele>
        <time>2021-03-13T15:50:21Z</time>
      </trkpt>
      <trkpt lat="43.03643" lon="0.81183">
        <ele>513</ele>
        <time>2021-03-13T15:50:22Z</time>
      </trkpt>
      <trkpt lat="43.03643" lon="0.81182">
        <ele>513</ele>
        <time>2021-03-13T15:50:23Z</time>
      </trkpt>
      <trkpt lat="43.03643" lon="0.8118">
        <ele>513</ele>
        <time>2021-03-13T15:50:24Z</time>
      </trkpt>
      <trkpt lat="43.03643" lon="0.81179">
        <ele>513</ele>
        <time>2021-03-13T15:50:25Z</time>
      </trkpt>
      <trkpt lat="43.03643" lon="0.81178">
        <ele>513</ele>
        <time>2021-03-13T15:50:26Z</time>
      </trkpt>
      <trkpt lat="43.03643" lon="0.81177">
        <ele>513</ele>
        <time>2021-03-13T15:50:27Z</time>
      </trkpt>
      <trkpt lat="43.03643" lon="0.81176">
        <ele>513</ele>
        <time>2021-03-13T15:50:28Z</time>
      </trkpt>
      <trkpt lat="43.03643" lon="0.81175">
        <ele>513</ele>
        <time>2021-03-13T15:50:29Z</time>
      </trkpt>
      <trkpt lat="43.03643" lon="0.81175">
        <ele>516</ele>
        <time>2021-03-13T15:50:30Z</time>
      </trkpt>
      <trkpt lat="43.03642" lon="0.81174">
        <ele>516</ele>
        <time>2021-03-13T15:50:31Z</time>
      </trkpt>
      <trkpt lat="43.03642" lon="0.81174">
        <ele>516</ele>
        <time>2021-03-13T15:50:32Z</time>
      </trkpt>
      <trkpt lat="43.03641" lon="0.81174">
        <ele>516</ele>
        <time>2021-03-13T15:50:33Z</time>
      </trkpt>
      <trkpt lat="43.03641" lon="0.81173">
        <ele>516</ele>
        <time>2021-03-13T15:50:34Z</time>
      </trkpt>
      <trkpt lat="43.0364" lon="0.81173">
        <ele>517</ele>
        <time>2021-03-13T15:50:35Z</time>
      </trkpt>
      <trkpt lat="43.0364" lon="0.81173">
        <ele>517</ele>
        <time>2021-03-13T15:50:36Z</time>
      </trkpt>
      <trkpt lat="43.03639" lon="0.81172">
        <ele>517</ele>
        <time>2021-03-13T15:50:37Z</time>
      </trkpt>
      <trkpt lat="43.03638" lon="0.81172">
        <ele>517</ele>
        <time>2021-03-13T15:50:38Z</time>
      </trkpt>
      <trkpt lat="43.03638" lon="0.81172">
        <ele>517</ele>
        <time>2021-03-13T15:50:39Z</time>
      </trkpt>
      <trkpt lat="43.03637" lon="0.81171">
        <ele>517</ele>
        <time>2021-03-13T15:50:40Z</time>
      </trkpt>
      <trkpt lat="43.03637" lon="0.81171">
        <ele>517</ele>
        <time>2021-03-13T15:50:41Z</time>
      </trkpt>
      <trkpt lat="43.03636" lon="0.8117">
        <ele>517</ele>
        <time>2021-03-13T15:50:42Z</time>
      </trkpt>
      <trkpt lat="43.03636" lon="0.8117">
        <ele>517</ele>
        <time>2021-03-13T15:50:43Z</time>
      </trkpt>
      <trkpt lat="43.03635" lon="0.8117">
        <ele>517</ele>
        <time>2021-03-13T15:50:44Z</time>
      </trkpt>
      <trkpt lat="43.03635" lon="0.81169">
        <ele>517</ele>
        <time>2021-03-13T15:50:45Z</time>
      </trkpt>
      <trkpt lat="43.03634" lon="0.81169">
        <ele>517</ele>
        <time>2021-03-13T15:50:46Z</time>
      </trkpt>
      <trkpt lat="43.03634" lon="0.81168">
        <ele>517</ele>
        <time>2021-03-13T15:50:47Z</time>
      </trkpt>
      <trkpt lat="43.03633" lon="0.81167">
        <ele>517</ele>
        <time>2021-03-13T15:50:48Z</time>
      </trkpt>
      <trkpt lat="43.03632" lon="0.81166">
        <ele>517</ele>
        <time>2021-03-13T15:50:49Z</time>
      </trkpt>
      <trkpt lat="43.03632" lon="0.81165">
        <ele>519</ele>
        <time>2021-03-13T15:50:50Z</time>
      </trkpt>
      <trkpt lat="43.03631" lon="0.81164">
        <ele>519</ele>
        <time>2021-03-13T15:50:51Z</time>
      </trkpt>
      <trkpt lat="43.0363" lon="0.81163">
        <ele>519</ele>
        <time>2021-03-13T15:50:52Z</time>
      </trkpt>
      <trkpt lat="43.0363" lon="0.81162">
        <ele>519</ele>
        <time>2021-03-13T15:50:53Z</time>
      </trkpt>
      <trkpt lat="43.03629" lon="0.81161">
        <ele>519</ele>
        <time>2021-03-13T15:50:54Z</time>
      </trkpt>
      <trkpt lat="43.03628" lon="0.81161">
        <ele>519</ele>
        <time>2021-03-13T15:50:55Z</time>
      </trkpt>
      <trkpt lat="43.03628" lon="0.8116">
        <ele>519</ele>
        <time>2021-03-13T15:50:56Z</time>
      </trkpt>
      <trkpt lat="43.03627" lon="0.81159">
        <ele>519</ele>
        <time>2021-03-13T15:50:57Z</time>
      </trkpt>
      <trkpt lat="43.03627" lon="0.81159">
        <ele>519</ele>
        <time>2021-03-13T15:50:58Z</time>
      </trkpt>
      <trkpt lat="43.03626" lon="0.81158">
        <ele>519</ele>
        <time>2021-03-13T15:50:59Z</time>
      </trkpt>
      <trkpt lat="43.03626" lon="0.81158">
        <ele>521</ele>
        <time>2021-03-13T15:51:00Z</time>
      </trkpt>
      <trkpt lat="43.03625" lon="0.81157">
        <ele>521</ele>
        <time>2021-03-13T15:51:01Z</time>
      </trkpt>
      <trkpt lat="43.03625" lon="0.81157">
        <ele>521</ele>
        <time>2021-03-13T15:51:02Z</time>
      </trkpt>
      <trkpt lat="43.03624" lon="0.81156">
        <ele>521</ele>
        <time>2021-03-13T15:51:03Z</time>
      </trkpt>
      <trkpt lat="43.03623" lon="0.81155">
        <ele>521</ele>
        <time>2021-03-13T15:51:04Z</time>
      </trkpt>
      <trkpt lat="43.03623" lon="0.81155">
        <ele>521</ele>
        <time>2021-03-13T15:51:05Z</time>
      </trkpt>
      <trkpt lat="43.03622" lon="0.81154">
        <ele>521</ele>
        <time>2021-03-13T15:51:06Z</time>
      </trkpt>
      <trkpt lat="43.03621" lon="0.81152">
        <ele>521</ele>
        <time>2021-03-13T15:51:07Z</time>
      </trkpt>
      <trkpt lat="43.0362" lon="0.8115">
        <ele>521</ele>
        <time>2021-03-13T15:51:08Z</time>
      </trkpt>
      <trkpt lat="43.03618" lon="0.81148">
        <ele>521</ele>
        <time>2021-03-13T15:51:09Z</time>
      </trkpt>
      <trkpt lat="43.03617" lon="0.81146">
        <ele>522</ele>
        <time>2021-03-13T15:51:10Z</time>
      </trkpt>
      <trkpt lat="43.03615" lon="0.81145">
        <ele>522</ele>
        <time>2021-03-13T15:51:11Z</time>
      </trkpt>
      <trkpt lat="43.03614" lon="0.81144">
        <ele>522</ele>
        <time>2021-03-13T15:51:12Z</time>
      </trkpt>
      <trkpt lat="43.03612" lon="0.81142">
        <ele>522</ele>
        <time>2021-03-13T15:51:13Z</time>
      </trkpt>
      <trkpt lat="43.0361" lon="0.81141">
        <ele>522</ele>
        <time>2021-03-13T15:51:14Z</time>
      </trkpt>
      <trkpt lat="43.03609" lon="0.8114">
        <ele>522</ele>
        <time>2021-03-13T15:51:15Z</time>
      </trkpt>
      <trkpt lat="43.03607" lon="0.81137">
        <ele>522</ele>
        <time>2021-03-13T15:51:16Z</time>
      </trkpt>
      <trkpt lat="43.03606" lon="0.81135">
        <ele>522</ele>
        <time>2021-03-13T15:51:17Z</time>
      </trkpt>
      <trkpt lat="43.03605" lon="0.81133">
        <ele>522</ele>
        <time>2021-03-13T15:51:18Z</time>
      </trkpt>
      <trkpt lat="43.03604" lon="0.81131">
        <ele>522</ele>
        <time>2021-03-13T15:51:19Z</time>
      </trkpt>
      <trkpt lat="43.03602" lon="0.81128">
        <ele>524</ele>
        <time>2021-03-13T15:51:20Z</time>
      </trkpt>
      <trkpt lat="43.03601" lon="0.81126">
        <ele>524</ele>
        <time>2021-03-13T15:51:21Z</time>
      </trkpt>
      <trkpt lat="43.036" lon="0.81124">
        <ele>524</ele>
        <time>2021-03-13T15:51:22Z</time>
      </trkpt>
      <trkpt lat="43.03599" lon="0.81121">
        <ele>524</ele>
        <time>2021-03-13T15:51:23Z</time>
      </trkpt>
      <trkpt lat="43.03598" lon="0.81119">
        <ele>524</ele>
        <time>2021-03-13T15:51:24Z</time>
      </trkpt>
      <trkpt lat="43.03598" lon="0.81118">
        <ele>524</ele>
        <time>2021-03-13T15:51:25Z</time>
      </trkpt>
      <trkpt lat="43.03597" lon="0.81116">
        <ele>524</ele>
        <time>2021-03-13T15:51:26Z</time>
      </trkpt>
      <trkpt lat="43.03597" lon="0.81114">
        <ele>524</ele>
        <time>2021-03-13T15:51:27Z</time>
      </trkpt>
      <trkpt lat="43.03596" lon="0.81112">
        <ele>524</ele>
        <time>2021-03-13T15:51:28Z</time>
      </trkpt>
      <trkpt lat="43.03596" lon="0.8111">
        <ele>524</ele>
        <time>2021-03-13T15:51:29Z</time>
      </trkpt>
      <trkpt lat="43.03595" lon="0.81109">
        <ele>526</ele>
        <time>2021-03-13T15:51:30Z</time>
      </trkpt>
      <trkpt lat="43.03594" lon="0.81107">
        <ele>526</ele>
        <time>2021-03-13T15:51:31Z</time>
      </trkpt>
      <trkpt lat="43.03594" lon="0.81106">
        <ele>526</ele>
        <time>2021-03-13T15:51:32Z</time>
      </trkpt>
      <trkpt lat="43.03593" lon="0.81104">
        <ele>526</ele>
        <time>2021-03-13T15:51:33Z</time>
      </trkpt>
      <trkpt lat="43.03592" lon="0.81103">
        <ele>526</ele>
        <time>2021-03-13T15:51:34Z</time>
      </trkpt>
      <trkpt lat="43.03591" lon="0.81101">
        <ele>526</ele>
        <time>2021-03-13T15:51:35Z</time>
      </trkpt>
      <trkpt lat="43.0359" lon="0.811">
        <ele>526</ele>
        <time>2021-03-13T15:51:36Z</time>
      </trkpt>
      <trkpt lat="43.0359" lon="0.81097">
        <ele>526</ele>
        <time>2021-03-13T15:51:37Z</time>
      </trkpt>
      <trkpt lat="43.03589" lon="0.81095">
        <ele>526</ele>
        <time>2021-03-13T15:51:38Z</time>
      </trkpt>
      <trkpt lat="43.03589" lon="0.81093">
        <ele>526</ele>
        <time>2021-03-13T15:51:39Z</time>
      </trkpt>
      <trkpt lat="43.03588" lon="0.8109">
        <ele>530</ele>
        <time>2021-03-13T15:51:40Z</time>
      </trkpt>
      <trkpt lat="43.03588" lon="0.81088">
        <ele>530</ele>
        <time>2021-03-13T15:51:41Z</time>
      </trkpt>
      <trkpt lat="43.03588" lon="0.81086">
        <ele>530</ele>
        <time>2021-03-13T15:51:42Z</time>
      </trkpt>
      <trkpt lat="43.03587" lon="0.81085">
        <ele>530</ele>
        <time>2021-03-13T15:51:43Z</time>
      </trkpt>
      <trkpt lat="43.03587" lon="0.81084">
        <ele>530</ele>
        <time>2021-03-13T15:51:44Z</time>
      </trkpt>
      <trkpt lat="43.03587" lon="0.81082">
        <ele>531</ele>
        <time>2021-03-13T15:51:45Z</time>
      </trkpt>
      <trkpt lat="43.03587" lon="0.81081">
        <ele>531</ele>
        <time>2021-03-13T15:51:46Z</time>
      </trkpt>
      <trkpt lat="43.03585" lon="0.81071">
        <ele>531</ele>
        <time>2021-03-13T15:51:47Z</time>
      </trkpt>
      <trkpt lat="43.03584" lon="0.81068">
        <ele>531</ele>
        <time>2021-03-13T15:51:48Z</time>
      </trkpt>
      <trkpt lat="43.03583" lon="0.81066">
        <ele>531</ele>
        <time>2021-03-13T15:51:49Z</time>
      </trkpt>
      <trkpt lat="43.03582" lon="0.81064">
        <ele>533</ele>
        <time>2021-03-13T15:51:50Z</time>
      </trkpt>
      <trkpt lat="43.03581" lon="0.81062">
        <ele>533</ele>
        <time>2021-03-13T15:51:51Z</time>
      </trkpt>
      <trkpt lat="43.0358" lon="0.8106">
        <ele>533</ele>
        <time>2021-03-13T15:51:52Z</time>
      </trkpt>
      <trkpt lat="43.0358" lon="0.81058">
        <ele>533</ele>
        <time>2021-03-13T15:51:53Z</time>
      </trkpt>
      <trkpt lat="43.0358" lon="0.81056">
        <ele>533</ele>
        <time>2021-03-13T15:51:54Z</time>
      </trkpt>
      <trkpt lat="43.03579" lon="0.81054">
        <ele>535</ele>
        <time>2021-03-13T15:51:55Z</time>
      </trkpt>
      <trkpt lat="43.03579" lon="0.81051">
        <ele>535</ele>
        <time>2021-03-13T15:51:56Z</time>
      </trkpt>
      <trkpt lat="43.03579" lon="0.81049">
        <ele>535</ele>
        <time>2021-03-13T15:51:57Z</time>
      </trkpt>
      <trkpt lat="43.03579" lon="0.81046">
        <ele>535</ele>
        <time>2021-03-13T15:51:58Z</time>
      </trkpt>
      <trkpt lat="43.03578" lon="0.81044">
        <ele>535</ele>
        <time>2021-03-13T15:51:59Z</time>
      </trkpt>
      <trkpt lat="43.03578" lon="0.81041">
        <ele>536</ele>
        <time>2021-03-13T15:52:00Z</time>
      </trkpt>
      <trkpt lat="43.03578" lon="0.81039">
        <ele>536</ele>
        <time>2021-03-13T15:52:01Z</time>
      </trkpt>
      <trkpt lat="43.03577" lon="0.81036">
        <ele>536</ele>
        <time>2021-03-13T15:52:02Z</time>
      </trkpt>
      <trkpt lat="43.03576" lon="0.81034">
        <ele>536</ele>
        <time>2021-03-13T15:52:03Z</time>
      </trkpt>
      <trkpt lat="43.03576" lon="0.81031">
        <ele>536</ele>
        <time>2021-03-13T15:52:04Z</time>
      </trkpt>
      <trkpt lat="43.03576" lon="0.81029">
        <ele>538</ele>
        <time>2021-03-13T15:52:05Z</time>
      </trkpt>
      <trkpt lat="43.03575" lon="0.81027">
        <ele>538</ele>
        <time>2021-03-13T15:52:06Z</time>
      </trkpt>
      <trkpt lat="43.03575" lon="0.81025">
        <ele>538</ele>
        <time>2021-03-13T15:52:07Z</time>
      </trkpt>
      <trkpt lat="43.03574" lon="0.81024">
        <ele>538</ele>
        <time>2021-03-13T15:52:08Z</time>
      </trkpt>
      <trkpt lat="43.03574" lon="0.81022">
        <ele>538</ele>
        <time>2021-03-13T15:52:09Z</time>
      </trkpt>
      <trkpt lat="43.03574" lon="0.8102">
        <ele>539</ele>
        <time>2021-03-13T15:52:10Z</time>
      </trkpt>
      <trkpt lat="43.03573" lon="0.81018">
        <ele>539</ele>
        <time>2021-03-13T15:52:11Z</time>
      </trkpt>
      <trkpt lat="43.03573" lon="0.81017">
        <ele>539</ele>
        <time>2021-03-13T15:52:12Z</time>
      </trkpt>
      <trkpt lat="43.03573" lon="0.81015">
        <ele>539</ele>
        <time>2021-03-13T15:52:13Z</time>
      </trkpt>
      <trkpt lat="43.03572" lon="0.81013">
        <ele>539</ele>
        <time>2021-03-13T15:52:14Z</time>
      </trkpt>
      <trkpt lat="43.03572" lon="0.8101">
        <ele>541</ele>
        <time>2021-03-13T15:52:15Z</time>
      </trkpt>
      <trkpt lat="43.03572" lon="0.81008">
        <ele>541</ele>
        <time>2021-03-13T15:52:16Z</time>
      </trkpt>
      <trkpt lat="43.03572" lon="0.81006">
        <ele>541</ele>
        <time>2021-03-13T15:52:17Z</time>
      </trkpt>
      <trkpt lat="43.03571" lon="0.81003">
        <ele>541</ele>
        <time>2021-03-13T15:52:18Z</time>
      </trkpt>
      <trkpt lat="43.03571" lon="0.81001">
        <ele>541</ele>
        <time>2021-03-13T15:52:19Z</time>
      </trkpt>
      <trkpt lat="43.03571" lon="0.80999">
        <ele>542</ele>
        <time>2021-03-13T15:52:20Z</time>
      </trkpt>
      <trkpt lat="43.03571" lon="0.80996">
        <ele>542</ele>
        <time>2021-03-13T15:52:21Z</time>
      </trkpt>
      <trkpt lat="43.0357" lon="0.80994">
        <ele>542</ele>
        <time>2021-03-13T15:52:22Z</time>
      </trkpt>
      <trkpt lat="43.0357" lon="0.80992">
        <ele>542</ele>
        <time>2021-03-13T15:52:23Z</time>
      </trkpt>
      <trkpt lat="43.0357" lon="0.80989">
        <ele>542</ele>
        <time>2021-03-13T15:52:24Z</time>
      </trkpt>
      <trkpt lat="43.0357" lon="0.80987">
        <ele>544</ele>
        <time>2021-03-13T15:52:25Z</time>
      </trkpt>
      <trkpt lat="43.0357" lon="0.80985">
        <ele>544</ele>
        <time>2021-03-13T15:52:26Z</time>
      </trkpt>
      <trkpt lat="43.0357" lon="0.80982">
        <ele>544</ele>
        <time>2021-03-13T15:52:27Z</time>
      </trkpt>
      <trkpt lat="43.03571" lon="0.8098">
        <ele>544</ele>
        <time>2021-03-13T15:52:28Z</time>
      </trkpt>
      <trkpt lat="43.03571" lon="0.80977">
        <ele>544</ele>
        <time>2021-03-13T15:52:29Z</time>
      </trkpt>
      <trkpt lat="43.03571" lon="0.80975">
        <ele>545</ele>
        <time>2021-03-13T15:52:30Z</time>
      </trkpt>
      <trkpt lat="43.0357" lon="0.80973">
        <ele>545</ele>
        <time>2021-03-13T15:52:31Z</time>
      </trkpt>
      <trkpt lat="43.0357" lon="0.8097">
        <ele>545</ele>
        <time>2021-03-13T15:52:32Z</time>
      </trkpt>
      <trkpt lat="43.0357" lon="0.80968">
        <ele>545</ele>
        <time>2021-03-13T15:52:33Z</time>
      </trkpt>
      <trkpt lat="43.03569" lon="0.80966">
        <ele>545</ele>
        <time>2021-03-13T15:52:34Z</time>
      </trkpt>
      <trkpt lat="43.03569" lon="0.80963">
        <ele>546</ele>
        <time>2021-03-13T15:52:35Z</time>
      </trkpt>
      <trkpt lat="43.03569" lon="0.80961">
        <ele>546</ele>
        <time>2021-03-13T15:52:36Z</time>
      </trkpt>
      <trkpt lat="43.03569" lon="0.80959">
        <ele>546</ele>
        <time>2021-03-13T15:52:37Z</time>
      </trkpt>
      <trkpt lat="43.03569" lon="0.80956">
        <ele>546</ele>
        <time>2021-03-13T15:52:38Z</time>
      </trkpt>
      <trkpt lat="43.03568" lon="0.80954">
        <ele>546</ele>
        <time>2021-03-13T15:52:39Z</time>
      </trkpt>
      <trkpt lat="43.03568" lon="0.80952">
        <ele>546</ele>
        <time>2021-03-13T15:52:40Z</time>
      </trkpt>
      <trkpt lat="43.03568" lon="0.8095">
        <ele>546</ele>
        <time>2021-03-13T15:52:41Z</time>
      </trkpt>
      <trkpt lat="43.03568" lon="0.80948">
        <ele>546</ele>
        <time>2021-03-13T15:52:42Z</time>
      </trkpt>
      <trkpt lat="43.03569" lon="0.80947">
        <ele>546</ele>
        <time>2021-03-13T15:52:43Z</time>
      </trkpt>
      <trkpt lat="43.03569" lon="0.80945">
        <ele>546</ele>
        <time>2021-03-13T15:52:44Z</time>
      </trkpt>
      <trkpt lat="43.03569" lon="0.80943">
        <ele>546</ele>
        <time>2021-03-13T15:52:45Z</time>
      </trkpt>
      <trkpt lat="43.03569" lon="0.80941">
        <ele>546</ele>
        <time>2021-03-13T15:52:46Z</time>
      </trkpt>
      <trkpt lat="43.03569" lon="0.80938">
        <ele>546</ele>
        <time>2021-03-13T15:52:47Z</time>
      </trkpt>
      <trkpt lat="43.03569" lon="0.80936">
        <ele>546</ele>
        <time>2021-03-13T15:52:48Z</time>
      </trkpt>
      <trkpt lat="43.03569" lon="0.80933">
        <ele>546</ele>
        <time>2021-03-13T15:52:49Z</time>
      </trkpt>
      <trkpt lat="43.03569" lon="0.80931">
        <ele>548</ele>
        <time>2021-03-13T15:52:50Z</time>
      </trkpt>
      <trkpt lat="43.03568" lon="0.80928">
        <ele>548</ele>
        <time>2021-03-13T15:52:51Z</time>
      </trkpt>
      <trkpt lat="43.03568" lon="0.80926">
        <ele>548</ele>
        <time>2021-03-13T15:52:52Z</time>
      </trkpt>
      <trkpt lat="43.03568" lon="0.80924">
        <ele>548</ele>
        <time>2021-03-13T15:52:53Z</time>
      </trkpt>
      <trkpt lat="43.03569" lon="0.80921">
        <ele>548</ele>
        <time>2021-03-13T15:52:54Z</time>
      </trkpt>
      <trkpt lat="43.03569" lon="0.80919">
        <ele>548</ele>
        <time>2021-03-13T15:52:55Z</time>
      </trkpt>
      <trkpt lat="43.03569" lon="0.80916">
        <ele>548</ele>
        <time>2021-03-13T15:52:56Z</time>
      </trkpt>
      <trkpt lat="43.0357" lon="0.80913">
        <ele>548</ele>
        <time>2021-03-13T15:52:57Z</time>
      </trkpt>
      <trkpt lat="43.0357" lon="0.80911">
        <ele>548</ele>
        <time>2021-03-13T15:52:58Z</time>
      </trkpt>
      <trkpt lat="43.0357" lon="0.80908">
        <ele>548</ele>
        <time>2021-03-13T15:52:59Z</time>
      </trkpt>
      <trkpt lat="43.0357" lon="0.80906">
        <ele>551</ele>
        <time>2021-03-13T15:53:00Z</time>
      </trkpt>
      <trkpt lat="43.03571" lon="0.80903">
        <ele>551</ele>
        <time>2021-03-13T15:53:01Z</time>
      </trkpt>
      <trkpt lat="43.03571" lon="0.80901">
        <ele>551</ele>
        <time>2021-03-13T15:53:02Z</time>
      </trkpt>
      <trkpt lat="43.03571" lon="0.80898">
        <ele>551</ele>
        <time>2021-03-13T15:53:03Z</time>
      </trkpt>
      <trkpt lat="43.03571" lon="0.80896">
        <ele>551</ele>
        <time>2021-03-13T15:53:04Z</time>
      </trkpt>
      <trkpt lat="43.03571" lon="0.80893">
        <ele>553</ele>
        <time>2021-03-13T15:53:05Z</time>
      </trkpt>
      <trkpt lat="43.03572" lon="0.80891">
        <ele>553</ele>
        <time>2021-03-13T15:53:06Z</time>
      </trkpt>
      <trkpt lat="43.03572" lon="0.80889">
        <ele>553</ele>
        <time>2021-03-13T15:53:07Z</time>
      </trkpt>
      <trkpt lat="43.03573" lon="0.80887">
        <ele>553</ele>
        <time>2021-03-13T15:53:08Z</time>
      </trkpt>
      <trkpt lat="43.03574" lon="0.80885">
        <ele>553</ele>
        <time>2021-03-13T15:53:09Z</time>
      </trkpt>
      <trkpt lat="43.03574" lon="0.80883">
        <ele>555</ele>
        <time>2021-03-13T15:53:10Z</time>
      </trkpt>
      <trkpt lat="43.03574" lon="0.80881">
        <ele>555</ele>
        <time>2021-03-13T15:53:11Z</time>
      </trkpt>
      <trkpt lat="43.03575" lon="0.80879">
        <ele>555</ele>
        <time>2021-03-13T15:53:12Z</time>
      </trkpt>
      <trkpt lat="43.03575" lon="0.80876">
        <ele>555</ele>
        <time>2021-03-13T15:53:13Z</time>
      </trkpt>
      <trkpt lat="43.03575" lon="0.80874">
        <ele>555</ele>
        <time>2021-03-13T15:53:14Z</time>
      </trkpt>
      <trkpt lat="43.03575" lon="0.80871">
        <ele>556</ele>
        <time>2021-03-13T15:53:15Z</time>
      </trkpt>
      <trkpt lat="43.03575" lon="0.80869">
        <ele>556</ele>
        <time>2021-03-13T15:53:16Z</time>
      </trkpt>
      <trkpt lat="43.03576" lon="0.80866">
        <ele>556</ele>
        <time>2021-03-13T15:53:17Z</time>
      </trkpt>
      <trkpt lat="43.03576" lon="0.80863">
        <ele>556</ele>
        <time>2021-03-13T15:53:18Z</time>
      </trkpt>
      <trkpt lat="43.03576" lon="0.80861">
        <ele>556</ele>
        <time>2021-03-13T15:53:19Z</time>
      </trkpt>
      <trkpt lat="43.03576" lon="0.80858">
        <ele>558</ele>
        <time>2021-03-13T15:53:20Z</time>
      </trkpt>
      <trkpt lat="43.03576" lon="0.80856">
        <ele>558</ele>
        <time>2021-03-13T15:53:21Z</time>
      </trkpt>
      <trkpt lat="43.03576" lon="0.80854">
        <ele>558</ele>
        <time>2021-03-13T15:53:22Z</time>
      </trkpt>
      <trkpt lat="43.03576" lon="0.80852">
        <ele>558</ele>
        <time>2021-03-13T15:53:23Z</time>
      </trkpt>
      <trkpt lat="43.03577" lon="0.8085">
        <ele>558</ele>
        <time>2021-03-13T15:53:24Z</time>
      </trkpt>
      <trkpt lat="43.03577" lon="0.80848">
        <ele>559</ele>
        <time>2021-03-13T15:53:25Z</time>
      </trkpt>
      <trkpt lat="43.03577" lon="0.80846">
        <ele>559</ele>
        <time>2021-03-13T15:53:26Z</time>
      </trkpt>
      <trkpt lat="43.03577" lon="0.80844">
        <ele>559</ele>
        <time>2021-03-13T15:53:27Z</time>
      </trkpt>
      <trkpt lat="43.03578" lon="0.80842">
        <ele>559</ele>
        <time>2021-03-13T15:53:28Z</time>
      </trkpt>
      <trkpt lat="43.03578" lon="0.8084">
        <ele>559</ele>
        <time>2021-03-13T15:53:29Z</time>
      </trkpt>
      <trkpt lat="43.03578" lon="0.80838">
        <ele>560</ele>
        <time>2021-03-13T15:53:30Z</time>
      </trkpt>
      <trkpt lat="43.03579" lon="0.80836">
        <ele>560</ele>
        <time>2021-03-13T15:53:31Z</time>
      </trkpt>
      <trkpt lat="43.03579" lon="0.80833">
        <ele>560</ele>
        <time>2021-03-13T15:53:32Z</time>
      </trkpt>
      <trkpt lat="43.03579" lon="0.8083">
        <ele>560</ele>
        <time>2021-03-13T15:53:33Z</time>
      </trkpt>
      <trkpt lat="43.03579" lon="0.80826">
        <ele>560</ele>
        <time>2021-03-13T15:53:34Z</time>
      </trkpt>
      <trkpt lat="43.03579" lon="0.80824">
        <ele>562</ele>
        <time>2021-03-13T15:53:35Z</time>
      </trkpt>
      <trkpt lat="43.0358" lon="0.80821">
        <ele>562</ele>
        <time>2021-03-13T15:53:36Z</time>
      </trkpt>
      <trkpt lat="43.0358" lon="0.80818">
        <ele>562</ele>
        <time>2021-03-13T15:53:37Z</time>
      </trkpt>
      <trkpt lat="43.03581" lon="0.80815">
        <ele>562</ele>
        <time>2021-03-13T15:53:38Z</time>
      </trkpt>
      <trkpt lat="43.03581" lon="0.80813">
        <ele>562</ele>
        <time>2021-03-13T15:53:39Z</time>
      </trkpt>
      <trkpt lat="43.03582" lon="0.8081">
        <ele>562</ele>
        <time>2021-03-13T15:53:40Z</time>
      </trkpt>
      <trkpt lat="43.03582" lon="0.80807">
        <ele>562</ele>
        <time>2021-03-13T15:53:41Z</time>
      </trkpt>
      <trkpt lat="43.03583" lon="0.80804">
        <ele>562</ele>
        <time>2021-03-13T15:53:42Z</time>
      </trkpt>
      <trkpt lat="43.03583" lon="0.80802">
        <ele>562</ele>
        <time>2021-03-13T15:53:43Z</time>
      </trkpt>
      <trkpt lat="43.03584" lon="0.80799">
        <ele>562</ele>
        <time>2021-03-13T15:53:44Z</time>
      </trkpt>
      <trkpt lat="43.03584" lon="0.80796">
        <ele>562</ele>
        <time>2021-03-13T15:53:45Z</time>
      </trkpt>
      <trkpt lat="43.03585" lon="0.80794">
        <ele>562</ele>
        <time>2021-03-13T15:53:46Z</time>
      </trkpt>
      <trkpt lat="43.03585" lon="0.80791">
        <ele>562</ele>
        <time>2021-03-13T15:53:47Z</time>
      </trkpt>
      <trkpt lat="43.03586" lon="0.80788">
        <ele>562</ele>
        <time>2021-03-13T15:53:48Z</time>
      </trkpt>
      <trkpt lat="43.03586" lon="0.80785">
        <ele>562</ele>
        <time>2021-03-13T15:53:49Z</time>
      </trkpt>
      <trkpt lat="43.03586" lon="0.80783">
        <ele>564</ele>
        <time>2021-03-13T15:53:50Z</time>
      </trkpt>
      <trkpt lat="43.03586" lon="0.8078">
        <ele>564</ele>
        <time>2021-03-13T15:53:51Z</time>
      </trkpt>
      <trkpt lat="43.03587" lon="0.80778">
        <ele>564</ele>
        <time>2021-03-13T15:53:52Z</time>
      </trkpt>
      <trkpt lat="43.03587" lon="0.80775">
        <ele>564</ele>
        <time>2021-03-13T15:53:53Z</time>
      </trkpt>
      <trkpt lat="43.03588" lon="0.80773">
        <ele>564</ele>
        <time>2021-03-13T15:53:54Z</time>
      </trkpt>
      <trkpt lat="43.03588" lon="0.8077">
        <ele>564</ele>
        <time>2021-03-13T15:53:55Z</time>
      </trkpt>
      <trkpt lat="43.03589" lon="0.80768">
        <ele>564</ele>
        <time>2021-03-13T15:53:56Z</time>
      </trkpt>
      <trkpt lat="43.0359" lon="0.80766">
        <ele>564</ele>
        <time>2021-03-13T15:53:57Z</time>
      </trkpt>
      <trkpt lat="43.03592" lon="0.80764">
        <ele>564</ele>
        <time>2021-03-13T15:53:58Z</time>
      </trkpt>
      <trkpt lat="43.03593" lon="0.80762">
        <ele>564</ele>
        <time>2021-03-13T15:53:59Z</time>
      </trkpt>
      <trkpt lat="43.03594" lon="0.8076">
        <ele>566</ele>
        <time>2021-03-13T15:54:00Z</time>
      </trkpt>
      <trkpt lat="43.03595" lon="0.80758">
        <ele>566</ele>
        <time>2021-03-13T15:54:01Z</time>
      </trkpt>
      <trkpt lat="43.03597" lon="0.80756">
        <ele>566</ele>
        <time>2021-03-13T15:54:02Z</time>
      </trkpt>
      <trkpt lat="43.03599" lon="0.80754">
        <ele>566</ele>
        <time>2021-03-13T15:54:03Z</time>
      </trkpt>
      <trkpt lat="43.036" lon="0.80753">
        <ele>566</ele>
        <time>2021-03-13T15:54:04Z</time>
      </trkpt>
      <trkpt lat="43.03602" lon="0.80751">
        <ele>566</ele>
        <time>2021-03-13T15:54:05Z</time>
      </trkpt>
      <trkpt lat="43.03603" lon="0.8075">
        <ele>566</ele>
        <time>2021-03-13T15:54:06Z</time>
      </trkpt>
      <trkpt lat="43.03605" lon="0.80749">
        <ele>566</ele>
        <time>2021-03-13T15:54:07Z</time>
      </trkpt>
      <trkpt lat="43.03607" lon="0.80748">
        <ele>566</ele>
        <time>2021-03-13T15:54:08Z</time>
      </trkpt>
      <trkpt lat="43.03608" lon="0.80746">
        <ele>566</ele>
        <time>2021-03-13T15:54:09Z</time>
      </trkpt>
      <trkpt lat="43.0361" lon="0.80745">
        <ele>567</ele>
        <time>2021-03-13T15:54:10Z</time>
      </trkpt>
      <trkpt lat="43.03611" lon="0.80744">
        <ele>567</ele>
        <time>2021-03-13T15:54:11Z</time>
      </trkpt>
      <trkpt lat="43.03613" lon="0.80743">
        <ele>567</ele>
        <time>2021-03-13T15:54:12Z</time>
      </trkpt>
      <trkpt lat="43.03614" lon="0.80741">
        <ele>567</ele>
        <time>2021-03-13T15:54:13Z</time>
      </trkpt>
      <trkpt lat="43.03616" lon="0.8074">
        <ele>567</ele>
        <time>2021-03-13T15:54:14Z</time>
      </trkpt>
      <trkpt lat="43.03618" lon="0.80738">
        <ele>567</ele>
        <time>2021-03-13T15:54:15Z</time>
      </trkpt>
      <trkpt lat="43.0362" lon="0.80737">
        <ele>567</ele>
        <time>2021-03-13T15:54:16Z</time>
      </trkpt>
      <trkpt lat="43.0362" lon="0.80734">
        <ele>567</ele>
        <time>2021-03-13T15:54:17Z</time>
      </trkpt>
      <trkpt lat="43.03621" lon="0.80732">
        <ele>567</ele>
        <time>2021-03-13T15:54:18Z</time>
      </trkpt>
      <trkpt lat="43.03621" lon="0.80729">
        <ele>567</ele>
        <time>2021-03-13T15:54:19Z</time>
      </trkpt>
      <trkpt lat="43.03622" lon="0.80726">
        <ele>570</ele>
        <time>2021-03-13T15:54:20Z</time>
      </trkpt>
      <trkpt lat="43.03622" lon="0.80724">
        <ele>570</ele>
        <time>2021-03-13T15:54:21Z</time>
      </trkpt>
      <trkpt lat="43.03622" lon="0.80721">
        <ele>570</ele>
        <time>2021-03-13T15:54:22Z</time>
      </trkpt>
      <trkpt lat="43.03623" lon="0.80718">
        <ele>570</ele>
        <time>2021-03-13T15:54:23Z</time>
      </trkpt>
      <trkpt lat="43.03624" lon="0.80714">
        <ele>570</ele>
        <time>2021-03-13T15:54:24Z</time>
      </trkpt>
      <trkpt lat="43.03625" lon="0.80711">
        <ele>570</ele>
        <time>2021-03-13T15:54:25Z</time>
      </trkpt>
      <trkpt lat="43.03626" lon="0.80708">
        <ele>570</ele>
        <time>2021-03-13T15:54:26Z</time>
      </trkpt>
      <trkpt lat="43.03627" lon="0.80705">
        <ele>570</ele>
        <time>2021-03-13T15:54:27Z</time>
      </trkpt>
      <trkpt lat="43.03627" lon="0.80702">
        <ele>570</ele>
        <time>2021-03-13T15:54:28Z</time>
      </trkpt>
      <trkpt lat="43.03628" lon="0.80698">
        <ele>570</ele>
        <time>2021-03-13T15:54:29Z</time>
      </trkpt>
      <trkpt lat="43.03629" lon="0.80694">
        <ele>571</ele>
        <time>2021-03-13T15:54:30Z</time>
      </trkpt>
      <trkpt lat="43.0363" lon="0.8069">
        <ele>571</ele>
        <time>2021-03-13T15:54:31Z</time>
      </trkpt>
      <trkpt lat="43.03631" lon="0.80686">
        <ele>571</ele>
        <time>2021-03-13T15:54:32Z</time>
      </trkpt>
      <trkpt lat="43.03632" lon="0.80683">
        <ele>571</ele>
        <time>2021-03-13T15:54:33Z</time>
      </trkpt>
      <trkpt lat="43.03633" lon="0.80679">
        <ele>571</ele>
        <time>2021-03-13T15:54:34Z</time>
      </trkpt>
      <trkpt lat="43.03633" lon="0.80675">
        <ele>571</ele>
        <time>2021-03-13T15:54:35Z</time>
      </trkpt>
      <trkpt lat="43.03634" lon="0.8067">
        <ele>571</ele>
        <time>2021-03-13T15:54:36Z</time>
      </trkpt>
      <trkpt lat="43.03634" lon="0.80666">
        <ele>571</ele>
        <time>2021-03-13T15:54:37Z</time>
      </trkpt>
      <trkpt lat="43.03635" lon="0.80663">
        <ele>571</ele>
        <time>2021-03-13T15:54:38Z</time>
      </trkpt>
      <trkpt lat="43.03635" lon="0.80661">
        <ele>571</ele>
        <time>2021-03-13T15:54:39Z</time>
      </trkpt>
      <trkpt lat="43.03635" lon="0.80658">
        <ele>571</ele>
        <time>2021-03-13T15:54:40Z</time>
      </trkpt>
      <trkpt lat="43.03636" lon="0.80655">
        <ele>571</ele>
        <time>2021-03-13T15:54:41Z</time>
      </trkpt>
      <trkpt lat="43.03637" lon="0.8065">
        <ele>571</ele>
        <time>2021-03-13T15:54:42Z</time>
      </trkpt>
      <trkpt lat="43.03638" lon="0.80646">
        <ele>571</ele>
        <time>2021-03-13T15:54:43Z</time>
      </trkpt>
      <trkpt lat="43.03639" lon="0.80641">
        <ele>571</ele>
        <time>2021-03-13T15:54:44Z</time>
      </trkpt>
      <trkpt lat="43.0364" lon="0.80639">
        <ele>571</ele>
        <time>2021-03-13T15:54:45Z</time>
      </trkpt>
      <trkpt lat="43.0364" lon="0.80636">
        <ele>571</ele>
        <time>2021-03-13T15:54:46Z</time>
      </trkpt>
      <trkpt lat="43.03641" lon="0.80634">
        <ele>571</ele>
        <time>2021-03-13T15:54:47Z</time>
      </trkpt>
      <trkpt lat="43.03645" lon="0.8062">
        <ele>571</ele>
        <time>2021-03-13T15:54:48Z</time>
      </trkpt>
      <trkpt lat="43.03646" lon="0.80613">
        <ele>571</ele>
        <time>2021-03-13T15:54:49Z</time>
      </trkpt>
      <trkpt lat="43.03647" lon="0.8061">
        <ele>570</ele>
        <time>2021-03-13T15:54:50Z</time>
      </trkpt>
      <trkpt lat="43.03647" lon="0.80607">
        <ele>571</ele>
        <time>2021-03-13T15:54:51Z</time>
      </trkpt>
      <trkpt lat="43.03647" lon="0.80604">
        <ele>571</ele>
        <time>2021-03-13T15:54:52Z</time>
      </trkpt>
      <trkpt lat="43.03649" lon="0.80591">
        <ele>571</ele>
        <time>2021-03-13T15:54:53Z</time>
      </trkpt>
      <trkpt lat="43.0365" lon="0.80588">
        <ele>571</ele>
        <time>2021-03-13T15:54:54Z</time>
      </trkpt>
      <trkpt lat="43.0365" lon="0.80585">
        <ele>571</ele>
        <time>2021-03-13T15:54:55Z</time>
      </trkpt>
      <trkpt lat="43.03654" lon="0.80569">
        <ele>571</ele>
        <time>2021-03-13T15:54:56Z</time>
      </trkpt>
      <trkpt lat="43.03656" lon="0.80563">
        <ele>571</ele>
        <time>2021-03-13T15:54:57Z</time>
      </trkpt>
      <trkpt lat="43.03656" lon="0.8056">
        <ele>571</ele>
        <time>2021-03-13T15:54:58Z</time>
      </trkpt>
      <trkpt lat="43.03657" lon="0.80557">
        <ele>571</ele>
        <time>2021-03-13T15:54:59Z</time>
      </trkpt>
      <trkpt lat="43.03658" lon="0.80555">
        <ele>566</ele>
        <time>2021-03-13T15:55:00Z</time>
      </trkpt>
      <trkpt lat="43.03662" lon="0.80544">
        <ele>566</ele>
        <time>2021-03-13T15:55:01Z</time>
      </trkpt>
      <trkpt lat="43.03663" lon="0.80541">
        <ele>566</ele>
        <time>2021-03-13T15:55:02Z</time>
      </trkpt>
      <trkpt lat="43.03664" lon="0.80538">
        <ele>566</ele>
        <time>2021-03-13T15:55:03Z</time>
      </trkpt>
      <trkpt lat="43.03667" lon="0.80527">
        <ele>566</ele>
        <time>2021-03-13T15:55:04Z</time>
      </trkpt>
      <trkpt lat="43.03668" lon="0.80525">
        <ele>566</ele>
        <time>2021-03-13T15:55:05Z</time>
      </trkpt>
      <trkpt lat="43.03669" lon="0.80522">
        <ele>566</ele>
        <time>2021-03-13T15:55:06Z</time>
      </trkpt>
      <trkpt lat="43.03672" lon="0.8051">
        <ele>566</ele>
        <time>2021-03-13T15:55:07Z</time>
      </trkpt>
      <trkpt lat="43.03673" lon="0.80507">
        <ele>566</ele>
        <time>2021-03-13T15:55:08Z</time>
      </trkpt>
      <trkpt lat="43.03673" lon="0.80504">
        <ele>566</ele>
        <time>2021-03-13T15:55:09Z</time>
      </trkpt>
      <trkpt lat="43.03676" lon="0.80491">
        <ele>567</ele>
        <time>2021-03-13T15:55:10Z</time>
      </trkpt>
      <trkpt lat="43.03677" lon="0.80487">
        <ele>567</ele>
        <time>2021-03-13T15:55:11Z</time>
      </trkpt>
      <trkpt lat="43.03678" lon="0.80483">
        <ele>567</ele>
        <time>2021-03-13T15:55:12Z</time>
      </trkpt>
      <trkpt lat="43.03678" lon="0.80481">
        <ele>567</ele>
        <time>2021-03-13T15:55:13Z</time>
      </trkpt>
      <trkpt lat="43.03679" lon="0.80479">
        <ele>567</ele>
        <time>2021-03-13T15:55:14Z</time>
      </trkpt>
      <trkpt lat="43.0368" lon="0.80476">
        <ele>567</ele>
        <time>2021-03-13T15:55:15Z</time>
      </trkpt>
      <trkpt lat="43.03683" lon="0.80466">
        <ele>567</ele>
        <time>2021-03-13T15:55:16Z</time>
      </trkpt>
      <trkpt lat="43.03684" lon="0.80463">
        <ele>567</ele>
        <time>2021-03-13T15:55:17Z</time>
      </trkpt>
      <trkpt lat="43.03686" lon="0.80459">
        <ele>567</ele>
        <time>2021-03-13T15:55:18Z</time>
      </trkpt>
      <trkpt lat="43.03687" lon="0.80456">
        <ele>567</ele>
        <time>2021-03-13T15:55:19Z</time>
      </trkpt>
      <trkpt lat="43.03688" lon="0.80453">
        <ele>569</ele>
        <time>2021-03-13T15:55:20Z</time>
      </trkpt>
      <trkpt lat="43.03689" lon="0.8045">
        <ele>569</ele>
        <time>2021-03-13T15:55:21Z</time>
      </trkpt>
      <trkpt lat="43.03689" lon="0.80447">
        <ele>569</ele>
        <time>2021-03-13T15:55:22Z</time>
      </trkpt>
      <trkpt lat="43.0369" lon="0.80445">
        <ele>569</ele>
        <time>2021-03-13T15:55:23Z</time>
      </trkpt>
      <trkpt lat="43.03691" lon="0.80444">
        <ele>569</ele>
        <time>2021-03-13T15:55:24Z</time>
      </trkpt>
      <trkpt lat="43.03692" lon="0.80442">
        <ele>569</ele>
        <time>2021-03-13T15:55:25Z</time>
      </trkpt>
      <trkpt lat="43.03693" lon="0.8044">
        <ele>569</ele>
        <time>2021-03-13T15:55:26Z</time>
      </trkpt>
      <trkpt lat="43.03697" lon="0.80433">
        <ele>569</ele>
        <time>2021-03-13T15:55:27Z</time>
      </trkpt>
      <trkpt lat="43.03698" lon="0.80432">
        <ele>569</ele>
        <time>2021-03-13T15:55:28Z</time>
      </trkpt>
      <trkpt lat="43.03699" lon="0.80431">
        <ele>569</ele>
        <time>2021-03-13T15:55:29Z</time>
      </trkpt>
      <trkpt lat="43.037" lon="0.80429">
        <ele>569</ele>
        <time>2021-03-13T15:55:30Z</time>
      </trkpt>
      <trkpt lat="43.03704" lon="0.80421">
        <ele>569</ele>
        <time>2021-03-13T15:55:31Z</time>
      </trkpt>
      <trkpt lat="43.03705" lon="0.80418">
        <ele>569</ele>
        <time>2021-03-13T15:55:32Z</time>
      </trkpt>
      <trkpt lat="43.03707" lon="0.80415">
        <ele>569</ele>
        <time>2021-03-13T15:55:33Z</time>
      </trkpt>
      <trkpt lat="43.03708" lon="0.80412">
        <ele>569</ele>
        <time>2021-03-13T15:55:34Z</time>
      </trkpt>
      <trkpt lat="43.03708" lon="0.80411">
        <ele>569</ele>
        <time>2021-03-13T15:55:35Z</time>
      </trkpt>
      <trkpt lat="43.03708" lon="0.80409">
        <ele>569</ele>
        <time>2021-03-13T15:55:36Z</time>
      </trkpt>
      <trkpt lat="43.03709" lon="0.80407">
        <ele>569</ele>
        <time>2021-03-13T15:55:37Z</time>
      </trkpt>
      <trkpt lat="43.03709" lon="0.80405">
        <ele>569</ele>
        <time>2021-03-13T15:55:38Z</time>
      </trkpt>
      <trkpt lat="43.03712" lon="0.80395">
        <ele>569</ele>
        <time>2021-03-13T15:55:39Z</time>
      </trkpt>
      <trkpt lat="43.03713" lon="0.80393">
        <ele>571</ele>
        <time>2021-03-13T15:55:40Z</time>
      </trkpt>
      <trkpt lat="43.03715" lon="0.8039">
        <ele>571</ele>
        <time>2021-03-13T15:55:41Z</time>
      </trkpt>
      <trkpt lat="43.03716" lon="0.80387">
        <ele>571</ele>
        <time>2021-03-13T15:55:42Z</time>
      </trkpt>
      <trkpt lat="43.03717" lon="0.80384">
        <ele>571</ele>
        <time>2021-03-13T15:55:43Z</time>
      </trkpt>
      <trkpt lat="43.03718" lon="0.80381">
        <ele>571</ele>
        <time>2021-03-13T15:55:44Z</time>
      </trkpt>
      <trkpt lat="43.03719" lon="0.80378">
        <ele>571</ele>
        <time>2021-03-13T15:55:45Z</time>
      </trkpt>
      <trkpt lat="43.0372" lon="0.80375">
        <ele>571</ele>
        <time>2021-03-13T15:55:46Z</time>
      </trkpt>
      <trkpt lat="43.03721" lon="0.80374">
        <ele>571</ele>
        <time>2021-03-13T15:55:47Z</time>
      </trkpt>
      <trkpt lat="43.03722" lon="0.80372">
        <ele>571</ele>
        <time>2021-03-13T15:55:48Z</time>
      </trkpt>
      <trkpt lat="43.03723" lon="0.80371">
        <ele>571</ele>
        <time>2021-03-13T15:55:49Z</time>
      </trkpt>
      <trkpt lat="43.03724" lon="0.80369">
        <ele>573</ele>
        <time>2021-03-13T15:55:50Z</time>
      </trkpt>
      <trkpt lat="43.03729" lon="0.80361">
        <ele>573</ele>
        <time>2021-03-13T15:55:51Z</time>
      </trkpt>
      <trkpt lat="43.03731" lon="0.80359">
        <ele>573</ele>
        <time>2021-03-13T15:55:52Z</time>
      </trkpt>
      <trkpt lat="43.03732" lon="0.80358">
        <ele>573</ele>
        <time>2021-03-13T15:55:53Z</time>
      </trkpt>
      <trkpt lat="43.03736" lon="0.80351">
        <ele>573</ele>
        <time>2021-03-13T15:55:54Z</time>
      </trkpt>
      <trkpt lat="43.03737" lon="0.8035">
        <ele>573</ele>
        <time>2021-03-13T15:55:55Z</time>
      </trkpt>
      <trkpt lat="43.03738" lon="0.80348">
        <ele>573</ele>
        <time>2021-03-13T15:55:56Z</time>
      </trkpt>
      <trkpt lat="43.03739" lon="0.80347">
        <ele>573</ele>
        <time>2021-03-13T15:55:57Z</time>
      </trkpt>
      <trkpt lat="43.03746" lon="0.80338">
        <ele>573</ele>
        <time>2021-03-13T15:55:58Z</time>
      </trkpt>
      <trkpt lat="43.03748" lon="0.80336">
        <ele>573</ele>
        <time>2021-03-13T15:55:59Z</time>
      </trkpt>
      <trkpt lat="43.0375" lon="0.80334">
        <ele>575</ele>
        <time>2021-03-13T15:56:00Z</time>
      </trkpt>
      <trkpt lat="43.03753" lon="0.80332">
        <ele>575</ele>
        <time>2021-03-13T15:56:01Z</time>
      </trkpt>
      <trkpt lat="43.03755" lon="0.8033">
        <ele>575</ele>
        <time>2021-03-13T15:56:02Z</time>
      </trkpt>
      <trkpt lat="43.03758" lon="0.80328">
        <ele>575</ele>
        <time>2021-03-13T15:56:03Z</time>
      </trkpt>
      <trkpt lat="43.0376" lon="0.80327">
        <ele>575</ele>
        <time>2021-03-13T15:56:04Z</time>
      </trkpt>
      <trkpt lat="43.03762" lon="0.80326">
        <ele>575</ele>
        <time>2021-03-13T15:56:05Z</time>
      </trkpt>
      <trkpt lat="43.03764" lon="0.80325">
        <ele>575</ele>
        <time>2021-03-13T15:56:06Z</time>
      </trkpt>
      <trkpt lat="43.03766" lon="0.80325">
        <ele>575</ele>
        <time>2021-03-13T15:56:07Z</time>
      </trkpt>
      <trkpt lat="43.03768" lon="0.80325">
        <ele>575</ele>
        <time>2021-03-13T15:56:08Z</time>
      </trkpt>
      <trkpt lat="43.0377" lon="0.80324">
        <ele>575</ele>
        <time>2021-03-13T15:56:09Z</time>
      </trkpt>
      <trkpt lat="43.03771" lon="0.80324">
        <ele>577</ele>
        <time>2021-03-13T15:56:10Z</time>
      </trkpt>
      <trkpt lat="43.03773" lon="0.80324">
        <ele>577</ele>
        <time>2021-03-13T15:56:11Z</time>
      </trkpt>
      <trkpt lat="43.03774" lon="0.80324">
        <ele>577</ele>
        <time>2021-03-13T15:56:12Z</time>
      </trkpt>
      <trkpt lat="43.03775" lon="0.80324">
        <ele>577</ele>
        <time>2021-03-13T15:56:13Z</time>
      </trkpt>
      <trkpt lat="43.03777" lon="0.80324">
        <ele>577</ele>
        <time>2021-03-13T15:56:14Z</time>
      </trkpt>
      <trkpt lat="43.03778" lon="0.80324">
        <ele>577</ele>
        <time>2021-03-13T15:56:15Z</time>
      </trkpt>
      <trkpt lat="43.0378" lon="0.80323">
        <ele>577</ele>
        <time>2021-03-13T15:56:16Z</time>
      </trkpt>
      <trkpt lat="43.03781" lon="0.80323">
        <ele>577</ele>
        <time>2021-03-13T15:56:17Z</time>
      </trkpt>
      <trkpt lat="43.03782" lon="0.80322">
        <ele>577</ele>
        <time>2021-03-13T15:56:18Z</time>
      </trkpt>
      <trkpt lat="43.03784" lon="0.80322">
        <ele>577</ele>
        <time>2021-03-13T15:56:19Z</time>
      </trkpt>
      <trkpt lat="43.03785" lon="0.8032">
        <ele>582</ele>
        <time>2021-03-13T15:56:20Z</time>
      </trkpt>
      <trkpt lat="43.03787" lon="0.80319">
        <ele>582</ele>
        <time>2021-03-13T15:56:21Z</time>
      </trkpt>
      <trkpt lat="43.03788" lon="0.80318">
        <ele>582</ele>
        <time>2021-03-13T15:56:22Z</time>
      </trkpt>
      <trkpt lat="43.03789" lon="0.80316">
        <ele>582</ele>
        <time>2021-03-13T15:56:23Z</time>
      </trkpt>
      <trkpt lat="43.0379" lon="0.80315">
        <ele>582</ele>
        <time>2021-03-13T15:56:24Z</time>
      </trkpt>
      <trkpt lat="43.03791" lon="0.80314">
        <ele>584</ele>
        <time>2021-03-13T15:56:25Z</time>
      </trkpt>
      <trkpt lat="43.03792" lon="0.80313">
        <ele>584</ele>
        <time>2021-03-13T15:56:26Z</time>
      </trkpt>
      <trkpt lat="43.03793" lon="0.80312">
        <ele>584</ele>
        <time>2021-03-13T15:56:27Z</time>
      </trkpt>
      <trkpt lat="43.03794" lon="0.80311">
        <ele>584</ele>
        <time>2021-03-13T15:56:28Z</time>
      </trkpt>
      <trkpt lat="43.03795" lon="0.80309">
        <ele>584</ele>
        <time>2021-03-13T15:56:29Z</time>
      </trkpt>
      <trkpt lat="43.03796" lon="0.80307">
        <ele>586</ele>
        <time>2021-03-13T15:56:30Z</time>
      </trkpt>
      <trkpt lat="43.03797" lon="0.80305">
        <ele>586</ele>
        <time>2021-03-13T15:56:31Z</time>
      </trkpt>
      <trkpt lat="43.03798" lon="0.80303">
        <ele>586</ele>
        <time>2021-03-13T15:56:32Z</time>
      </trkpt>
      <trkpt lat="43.03799" lon="0.80301">
        <ele>586</ele>
        <time>2021-03-13T15:56:33Z</time>
      </trkpt>
      <trkpt lat="43.038" lon="0.803">
        <ele>586</ele>
        <time>2021-03-13T15:56:34Z</time>
      </trkpt>
      <trkpt lat="43.03801" lon="0.80298">
        <ele>589</ele>
        <time>2021-03-13T15:56:35Z</time>
      </trkpt>
      <trkpt lat="43.03801" lon="0.80296">
        <ele>589</ele>
        <time>2021-03-13T15:56:36Z</time>
      </trkpt>
      <trkpt lat="43.03802" lon="0.80294">
        <ele>589</ele>
        <time>2021-03-13T15:56:37Z</time>
      </trkpt>
      <trkpt lat="43.03803" lon="0.80292">
        <ele>589</ele>
        <time>2021-03-13T15:56:38Z</time>
      </trkpt>
      <trkpt lat="43.03805" lon="0.8029">
        <ele>589</ele>
        <time>2021-03-13T15:56:39Z</time>
      </trkpt>
      <trkpt lat="43.03806" lon="0.80288">
        <ele>592</ele>
        <time>2021-03-13T15:56:40Z</time>
      </trkpt>
      <trkpt lat="43.03807" lon="0.80287">
        <ele>592</ele>
        <time>2021-03-13T15:56:41Z</time>
      </trkpt>
      <trkpt lat="43.03808" lon="0.80285">
        <ele>592</ele>
        <time>2021-03-13T15:56:42Z</time>
      </trkpt>
      <trkpt lat="43.0381" lon="0.80283">
        <ele>592</ele>
        <time>2021-03-13T15:56:43Z</time>
      </trkpt>
      <trkpt lat="43.03811" lon="0.80281">
        <ele>593</ele>
        <time>2021-03-13T15:56:44Z</time>
      </trkpt>
      <trkpt lat="43.03812" lon="0.80279">
        <ele>593</ele>
        <time>2021-03-13T15:56:45Z</time>
      </trkpt>
      <trkpt lat="43.03813" lon="0.80277">
        <ele>594</ele>
        <time>2021-03-13T15:56:46Z</time>
      </trkpt>
      <trkpt lat="43.03814" lon="0.80275">
        <ele>594</ele>
        <time>2021-03-13T15:56:47Z</time>
      </trkpt>
      <trkpt lat="43.03815" lon="0.80273">
        <ele>594</ele>
        <time>2021-03-13T15:56:48Z</time>
      </trkpt>
      <trkpt lat="43.03817" lon="0.80271">
        <ele>594</ele>
        <time>2021-03-13T15:56:49Z</time>
      </trkpt>
      <trkpt lat="43.03818" lon="0.80269">
        <ele>595</ele>
        <time>2021-03-13T15:56:50Z</time>
      </trkpt>
      <trkpt lat="43.03819" lon="0.80267">
        <ele>595</ele>
        <time>2021-03-13T15:56:51Z</time>
      </trkpt>
      <trkpt lat="43.0382" lon="0.80264">
        <ele>595</ele>
        <time>2021-03-13T15:56:52Z</time>
      </trkpt>
      <trkpt lat="43.03821" lon="0.80261">
        <ele>595</ele>
        <time>2021-03-13T15:56:53Z</time>
      </trkpt>
      <trkpt lat="43.03822" lon="0.80257">
        <ele>595</ele>
        <time>2021-03-13T15:56:54Z</time>
      </trkpt>
      <trkpt lat="43.03823" lon="0.80255">
        <ele>595</ele>
        <time>2021-03-13T15:56:55Z</time>
      </trkpt>
      <trkpt lat="43.03824" lon="0.80253">
        <ele>595</ele>
        <time>2021-03-13T15:56:56Z</time>
      </trkpt>
      <trkpt lat="43.03825" lon="0.80251">
        <ele>595</ele>
        <time>2021-03-13T15:56:57Z</time>
      </trkpt>
      <trkpt lat="43.03826" lon="0.80248">
        <ele>595</ele>
        <time>2021-03-13T15:56:58Z</time>
      </trkpt>
      <trkpt lat="43.03827" lon="0.80246">
        <ele>595</ele>
        <time>2021-03-13T15:56:59Z</time>
      </trkpt>
      <trkpt lat="43.03828" lon="0.80245">
        <ele>596</ele>
        <time>2021-03-13T15:57:00Z</time>
      </trkpt>
      <trkpt lat="43.0383" lon="0.80243">
        <ele>596</ele>
        <time>2021-03-13T15:57:01Z</time>
      </trkpt>
      <trkpt lat="43.03831" lon="0.80241">
        <ele>596</ele>
        <time>2021-03-13T15:57:02Z</time>
      </trkpt>
      <trkpt lat="43.03832" lon="0.80239">
        <ele>596</ele>
        <time>2021-03-13T15:57:03Z</time>
      </trkpt>
      <trkpt lat="43.03833" lon="0.80238">
        <ele>596</ele>
        <time>2021-03-13T15:57:04Z</time>
      </trkpt>
      <trkpt lat="43.03833" lon="0.80236">
        <ele>596</ele>
        <time>2021-03-13T15:57:05Z</time>
      </trkpt>
      <trkpt lat="43.03834" lon="0.80235">
        <ele>596</ele>
        <time>2021-03-13T15:57:06Z</time>
      </trkpt>
      <trkpt lat="43.03835" lon="0.80233">
        <ele>596</ele>
        <time>2021-03-13T15:57:07Z</time>
      </trkpt>
      <trkpt lat="43.03839" lon="0.80223">
        <ele>596</ele>
        <time>2021-03-13T15:57:08Z</time>
      </trkpt>
      <trkpt lat="43.0384" lon="0.80219">
        <ele>596</ele>
        <time>2021-03-13T15:57:09Z</time>
      </trkpt>
      <trkpt lat="43.03841" lon="0.8021">
        <ele>594</ele>
        <time>2021-03-13T15:57:10Z</time>
      </trkpt>
      <trkpt lat="43.03842" lon="0.80208">
        <ele>594</ele>
        <time>2021-03-13T15:57:11Z</time>
      </trkpt>
      <trkpt lat="43.03842" lon="0.80205">
        <ele>594</ele>
        <time>2021-03-13T15:57:12Z</time>
      </trkpt>
      <trkpt lat="43.03845" lon="0.80195">
        <ele>594</ele>
        <time>2021-03-13T15:57:13Z</time>
      </trkpt>
      <trkpt lat="43.03846" lon="0.80192">
        <ele>594</ele>
        <time>2021-03-13T15:57:14Z</time>
      </trkpt>
      <trkpt lat="43.03847" lon="0.80189">
        <ele>594</ele>
        <time>2021-03-13T15:57:15Z</time>
      </trkpt>
      <trkpt lat="43.0385" lon="0.80177">
        <ele>594</ele>
        <time>2021-03-13T15:57:16Z</time>
      </trkpt>
      <trkpt lat="43.03851" lon="0.80174">
        <ele>594</ele>
        <time>2021-03-13T15:57:17Z</time>
      </trkpt>
      <trkpt lat="43.03852" lon="0.80171">
        <ele>594</ele>
        <time>2021-03-13T15:57:18Z</time>
      </trkpt>
      <trkpt lat="43.03856" lon="0.8016">
        <ele>594</ele>
        <time>2021-03-13T15:57:19Z</time>
      </trkpt>
      <trkpt lat="43.03857" lon="0.80158">
        <ele>586</ele>
        <time>2021-03-13T15:57:20Z</time>
      </trkpt>
      <trkpt lat="43.03859" lon="0.80156">
        <ele>583</ele>
        <time>2021-03-13T15:57:21Z</time>
      </trkpt>
      <trkpt lat="43.03864" lon="0.80148">
        <ele>581</ele>
        <time>2021-03-13T15:57:22Z</time>
      </trkpt>
      <trkpt lat="43.03866" lon="0.80147">
        <ele>580</ele>
        <time>2021-03-13T15:57:23Z</time>
      </trkpt>
      <trkpt lat="43.03867" lon="0.80145">
        <ele>578</ele>
        <time>2021-03-13T15:57:24Z</time>
      </trkpt>
      <trkpt lat="43.03872" lon="0.80136">
        <ele>576</ele>
        <time>2021-03-13T15:57:25Z</time>
      </trkpt>
      <trkpt lat="43.03874" lon="0.80132">
        <ele>575</ele>
        <time>2021-03-13T15:57:26Z</time>
      </trkpt>
      <trkpt lat="43.03875" lon="0.80128">
        <ele>575</ele>
        <time>2021-03-13T15:57:27Z</time>
      </trkpt>
      <trkpt lat="43.03877" lon="0.80125">
        <ele>574</ele>
        <time>2021-03-13T15:57:28Z</time>
      </trkpt>
      <trkpt lat="43.03879" lon="0.80122">
        <ele>573</ele>
        <time>2021-03-13T15:57:29Z</time>
      </trkpt>
      <trkpt lat="43.03881" lon="0.80119">
        <ele>573</ele>
        <time>2021-03-13T15:57:30Z</time>
      </trkpt>
      <trkpt lat="43.03884" lon="0.80118">
        <ele>571</ele>
        <time>2021-03-13T15:57:31Z</time>
      </trkpt>
      <trkpt lat="43.03887" lon="0.80117">
        <ele>570</ele>
        <time>2021-03-13T15:57:32Z</time>
      </trkpt>
      <trkpt lat="43.0389" lon="0.80116">
        <ele>570</ele>
        <time>2021-03-13T15:57:33Z</time>
      </trkpt>
      <trkpt lat="43.03894" lon="0.80114">
        <ele>568</ele>
        <time>2021-03-13T15:57:34Z</time>
      </trkpt>
      <trkpt lat="43.03898" lon="0.80112">
        <ele>567</ele>
        <time>2021-03-13T15:57:35Z</time>
      </trkpt>
      <trkpt lat="43.03901" lon="0.80109">
        <ele>566</ele>
        <time>2021-03-13T15:57:36Z</time>
      </trkpt>
      <trkpt lat="43.03903" lon="0.80106">
        <ele>566</ele>
        <time>2021-03-13T15:57:37Z</time>
      </trkpt>
      <trkpt lat="43.0391" lon="0.80098">
        <ele>566</ele>
        <time>2021-03-13T15:57:38Z</time>
      </trkpt>
      <trkpt lat="43.03912" lon="0.80095">
        <ele>565</ele>
        <time>2021-03-13T15:57:39Z</time>
      </trkpt>
      <trkpt lat="43.03918" lon="0.80087">
        <ele>565</ele>
        <time>2021-03-13T15:57:40Z</time>
      </trkpt>
      <trkpt lat="43.0392" lon="0.80084">
        <ele>564</ele>
        <time>2021-03-13T15:57:41Z</time>
      </trkpt>
      <trkpt lat="43.03927" lon="0.80076">
        <ele>563</ele>
        <time>2021-03-13T15:57:42Z</time>
      </trkpt>
      <trkpt lat="43.03929" lon="0.80074">
        <ele>562</ele>
        <time>2021-03-13T15:57:43Z</time>
      </trkpt>
      <trkpt lat="43.03936" lon="0.80068">
        <ele>561</ele>
        <time>2021-03-13T15:57:44Z</time>
      </trkpt>
      <trkpt lat="43.03939" lon="0.80067">
        <ele>561</ele>
        <time>2021-03-13T15:57:45Z</time>
      </trkpt>
      <trkpt lat="43.03948" lon="0.80062">
        <ele>559</ele>
        <time>2021-03-13T15:57:46Z</time>
      </trkpt>
      <trkpt lat="43.0395" lon="0.8006">
        <ele>559</ele>
        <time>2021-03-13T15:57:47Z</time>
      </trkpt>
      <trkpt lat="43.03958" lon="0.80052">
        <ele>559</ele>
        <time>2021-03-13T15:57:48Z</time>
      </trkpt>
      <trkpt lat="43.0396" lon="0.80049">
        <ele>559</ele>
        <time>2021-03-13T15:57:49Z</time>
      </trkpt>
      <trkpt lat="43.03966" lon="0.80041">
        <ele>558</ele>
        <time>2021-03-13T15:57:50Z</time>
      </trkpt>
      <trkpt lat="43.03967" lon="0.80039">
        <ele>558</ele>
        <time>2021-03-13T15:57:51Z</time>
      </trkpt>
      <trkpt lat="43.03974" lon="0.8003">
        <ele>558</ele>
        <time>2021-03-13T15:57:52Z</time>
      </trkpt>
      <trkpt lat="43.03976" lon="0.80027">
        <ele>557</ele>
        <time>2021-03-13T15:57:53Z</time>
      </trkpt>
      <trkpt lat="43.03983" lon="0.80019">
        <ele>557</ele>
        <time>2021-03-13T15:57:54Z</time>
      </trkpt>
      <trkpt lat="43.03986" lon="0.80016">
        <ele>557</ele>
        <time>2021-03-13T15:57:55Z</time>
      </trkpt>
      <trkpt lat="43.03993" lon="0.80008">
        <ele>557</ele>
        <time>2021-03-13T15:57:56Z</time>
      </trkpt>
      <trkpt lat="43.03995" lon="0.80006">
        <ele>556</ele>
        <time>2021-03-13T15:57:57Z</time>
      </trkpt>
      <trkpt lat="43.04002" lon="0.79998">
        <ele>554</ele>
        <time>2021-03-13T15:57:58Z</time>
      </trkpt>
      <trkpt lat="43.04004" lon="0.79996">
        <ele>553</ele>
        <time>2021-03-13T15:57:59Z</time>
      </trkpt>
      <trkpt lat="43.04012" lon="0.79989">
        <ele>551</ele>
        <time>2021-03-13T15:58:00Z</time>
      </trkpt>
      <trkpt lat="43.04015" lon="0.79986">
        <ele>552</ele>
        <time>2021-03-13T15:58:01Z</time>
      </trkpt>
      <trkpt lat="43.04025" lon="0.79976">
        <ele>552</ele>
        <time>2021-03-13T15:58:02Z</time>
      </trkpt>
      <trkpt lat="43.04028" lon="0.79973">
        <ele>551</ele>
        <time>2021-03-13T15:58:03Z</time>
      </trkpt>
      <trkpt lat="43.04039" lon="0.79961">
        <ele>549</ele>
        <time>2021-03-13T15:58:04Z</time>
      </trkpt>
      <trkpt lat="43.04042" lon="0.79956">
        <ele>548</ele>
        <time>2021-03-13T15:58:05Z</time>
      </trkpt>
      <trkpt lat="43.04053" lon="0.79943">
        <ele>548</ele>
        <time>2021-03-13T15:58:06Z</time>
      </trkpt>
      <trkpt lat="43.04056" lon="0.79939">
        <ele>547</ele>
        <time>2021-03-13T15:58:07Z</time>
      </trkpt>
      <trkpt lat="43.04065" lon="0.79926">
        <ele>547</ele>
        <time>2021-03-13T15:58:08Z</time>
      </trkpt>
      <trkpt lat="43.04068" lon="0.79922">
        <ele>546</ele>
        <time>2021-03-13T15:58:09Z</time>
      </trkpt>
      <trkpt lat="43.04077" lon="0.79909">
        <ele>545</ele>
        <time>2021-03-13T15:58:10Z</time>
      </trkpt>
      <trkpt lat="43.04081" lon="0.79905">
        <ele>545</ele>
        <time>2021-03-13T15:58:11Z</time>
      </trkpt>
      <trkpt lat="43.04091" lon="0.79893">
        <ele>544</ele>
        <time>2021-03-13T15:58:12Z</time>
      </trkpt>
      <trkpt lat="43.04094" lon="0.79889">
        <ele>543</ele>
        <time>2021-03-13T15:58:13Z</time>
      </trkpt>
      <trkpt lat="43.04109" lon="0.79876">
        <ele>543</ele>
        <time>2021-03-13T15:58:14Z</time>
      </trkpt>
      <trkpt lat="43.04116" lon="0.7987">
        <ele>544</ele>
        <time>2021-03-13T15:58:15Z</time>
      </trkpt>
      <trkpt lat="43.04123" lon="0.79863">
        <ele>543</ele>
        <time>2021-03-13T15:58:16Z</time>
      </trkpt>
      <trkpt lat="43.04131" lon="0.79858">
        <ele>542</ele>
        <time>2021-03-13T15:58:17Z</time>
      </trkpt>
      <trkpt lat="43.04135" lon="0.79856">
        <ele>542</ele>
        <time>2021-03-13T15:58:18Z</time>
      </trkpt>
      <trkpt lat="43.04138" lon="0.79855">
        <ele>541</ele>
        <time>2021-03-13T15:58:19Z</time>
      </trkpt>
      <trkpt lat="43.0415" lon="0.7985">
        <ele>541</ele>
        <time>2021-03-13T15:58:20Z</time>
      </trkpt>
      <trkpt lat="43.04154" lon="0.79849">
        <ele>541</ele>
        <time>2021-03-13T15:58:21Z</time>
      </trkpt>
      <trkpt lat="43.04164" lon="0.79846">
        <ele>541</ele>
        <time>2021-03-13T15:58:22Z</time>
      </trkpt>
      <trkpt lat="43.04167" lon="0.79844">
        <ele>541</ele>
        <time>2021-03-13T15:58:23Z</time>
      </trkpt>
      <trkpt lat="43.04175" lon="0.79842">
        <ele>541</ele>
        <time>2021-03-13T15:58:24Z</time>
      </trkpt>
      <trkpt lat="43.04178" lon="0.79841">
        <ele>540</ele>
        <time>2021-03-13T15:58:25Z</time>
      </trkpt>
      <trkpt lat="43.04186" lon="0.79839">
        <ele>540</ele>
        <time>2021-03-13T15:58:26Z</time>
      </trkpt>
      <trkpt lat="43.04188" lon="0.79838">
        <ele>540</ele>
        <time>2021-03-13T15:58:27Z</time>
      </trkpt>
      <trkpt lat="43.04197" lon="0.79836">
        <ele>540</ele>
        <time>2021-03-13T15:58:28Z</time>
      </trkpt>
      <trkpt lat="43.04199" lon="0.79835">
        <ele>540</ele>
        <time>2021-03-13T15:58:29Z</time>
      </trkpt>
      <trkpt lat="43.0421" lon="0.79832">
        <ele>538</ele>
        <time>2021-03-13T15:58:30Z</time>
      </trkpt>
      <trkpt lat="43.04214" lon="0.7983">
        <ele>538</ele>
        <time>2021-03-13T15:58:31Z</time>
      </trkpt>
      <trkpt lat="43.04218" lon="0.79827">
        <ele>538</ele>
        <time>2021-03-13T15:58:32Z</time>
      </trkpt>
      <trkpt lat="43.04222" lon="0.79824">
        <ele>538</ele>
        <time>2021-03-13T15:58:33Z</time>
      </trkpt>
      <trkpt lat="43.04226" lon="0.7982">
        <ele>538</ele>
        <time>2021-03-13T15:58:34Z</time>
      </trkpt>
      <trkpt lat="43.04231" lon="0.79817">
        <ele>535</ele>
        <time>2021-03-13T15:58:35Z</time>
      </trkpt>
      <trkpt lat="43.04238" lon="0.79807">
        <ele>535</ele>
        <time>2021-03-13T15:58:36Z</time>
      </trkpt>
      <trkpt lat="43.04238" lon="0.79807">
        <ele>535</ele>
        <time>2021-03-13T15:58:37Z</time>
      </trkpt>
      <trkpt lat="43.04242" lon="0.79803">
        <ele>535</ele>
        <time>2021-03-13T15:58:38Z</time>
      </trkpt>
      <trkpt lat="43.04245" lon="0.79798">
        <ele>535</ele>
        <time>2021-03-13T15:58:39Z</time>
      </trkpt>
      <trkpt lat="43.04247" lon="0.79796">
        <ele>531</ele>
        <time>2021-03-13T15:58:40Z</time>
      </trkpt>
      <trkpt lat="43.04249" lon="0.79794">
        <ele>528</ele>
        <time>2021-03-13T15:58:41Z</time>
      </trkpt>
      <trkpt lat="43.04251" lon="0.79792">
        <ele>526</ele>
        <time>2021-03-13T15:58:42Z</time>
      </trkpt>
      <trkpt lat="43.04261" lon="0.79782">
        <ele>525</ele>
        <time>2021-03-13T15:58:43Z</time>
      </trkpt>
      <trkpt lat="43.04265" lon="0.79778">
        <ele>524</ele>
        <time>2021-03-13T15:58:44Z</time>
      </trkpt>
      <trkpt lat="43.04268" lon="0.79775">
        <ele>523</ele>
        <time>2021-03-13T15:58:45Z</time>
      </trkpt>
      <trkpt lat="43.04271" lon="0.79772">
        <ele>523</ele>
        <time>2021-03-13T15:58:46Z</time>
      </trkpt>
      <trkpt lat="43.04278" lon="0.79763">
        <ele>522</ele>
        <time>2021-03-13T15:58:47Z</time>
      </trkpt>
      <trkpt lat="43.04281" lon="0.79759">
        <ele>521</ele>
        <time>2021-03-13T15:58:48Z</time>
      </trkpt>
      <trkpt lat="43.04288" lon="0.79745">
        <ele>521</ele>
        <time>2021-03-13T15:58:49Z</time>
      </trkpt>
      <trkpt lat="43.04291" lon="0.79738">
        <ele>521</ele>
        <time>2021-03-13T15:58:50Z</time>
      </trkpt>
      <trkpt lat="43.04296" lon="0.79724">
        <ele>520</ele>
        <time>2021-03-13T15:58:51Z</time>
      </trkpt>
      <trkpt lat="43.04301" lon="0.79714">
        <ele>520</ele>
        <time>2021-03-13T15:58:52Z</time>
      </trkpt>
      <trkpt lat="43.04305" lon="0.79704">
        <ele>519</ele>
        <time>2021-03-13T15:58:53Z</time>
      </trkpt>
      <trkpt lat="43.04306" lon="0.79698">
        <ele>518</ele>
        <time>2021-03-13T15:58:54Z</time>
      </trkpt>
      <trkpt lat="43.04308" lon="0.79693">
        <ele>517</ele>
        <time>2021-03-13T15:58:55Z</time>
      </trkpt>
      <trkpt lat="43.04312" lon="0.79677">
        <ele>515</ele>
        <time>2021-03-13T15:58:56Z</time>
      </trkpt>
      <trkpt lat="43.04313" lon="0.79672">
        <ele>514</ele>
        <time>2021-03-13T15:58:57Z</time>
      </trkpt>
      <trkpt lat="43.04318" lon="0.7966">
        <ele>514</ele>
        <time>2021-03-13T15:58:58Z</time>
      </trkpt>
      <trkpt lat="43.04319" lon="0.79657">
        <ele>513</ele>
        <time>2021-03-13T15:58:59Z</time>
      </trkpt>
      <trkpt lat="43.04328" lon="0.79651">
        <ele>511</ele>
        <time>2021-03-13T15:59:00Z</time>
      </trkpt>
      <trkpt lat="43.04333" lon="0.79653">
        <ele>511</ele>
        <time>2021-03-13T15:59:01Z</time>
      </trkpt>
      <trkpt lat="43.04337" lon="0.79656">
        <ele>510</ele>
        <time>2021-03-13T15:59:02Z</time>
      </trkpt>
      <trkpt lat="43.04341" lon="0.79659">
        <ele>509</ele>
        <time>2021-03-13T15:59:03Z</time>
      </trkpt>
      <trkpt lat="43.04343" lon="0.7966">
        <ele>508</ele>
        <time>2021-03-13T15:59:04Z</time>
      </trkpt>
      <trkpt lat="43.04345" lon="0.7966">
        <ele>507</ele>
        <time>2021-03-13T15:59:05Z</time>
      </trkpt>
      <trkpt lat="43.04347" lon="0.7966">
        <ele>507</ele>
        <time>2021-03-13T15:59:06Z</time>
      </trkpt>
      <trkpt lat="43.04355" lon="0.7966">
        <ele>506</ele>
        <time>2021-03-13T15:59:07Z</time>
      </trkpt>
      <trkpt lat="43.04358" lon="0.79658">
        <ele>505</ele>
        <time>2021-03-13T15:59:08Z</time>
      </trkpt>
      <trkpt lat="43.04365" lon="0.79653">
        <ele>504</ele>
        <time>2021-03-13T15:59:09Z</time>
      </trkpt>
      <trkpt lat="43.04367" lon="0.79651">
        <ele>503</ele>
        <time>2021-03-13T15:59:10Z</time>
      </trkpt>
      <trkpt lat="43.04373" lon="0.79644">
        <ele>503</ele>
        <time>2021-03-13T15:59:11Z</time>
      </trkpt>
      <trkpt lat="43.04376" lon="0.79643">
        <ele>502</ele>
        <time>2021-03-13T15:59:12Z</time>
      </trkpt>
      <trkpt lat="43.04386" lon="0.79639">
        <ele>502</ele>
        <time>2021-03-13T15:59:13Z</time>
      </trkpt>
      <trkpt lat="43.04391" lon="0.79638">
        <ele>502</ele>
        <time>2021-03-13T15:59:14Z</time>
      </trkpt>
      <trkpt lat="43.04394" lon="0.79638">
        <ele>502</ele>
        <time>2021-03-13T15:59:15Z</time>
      </trkpt>
      <trkpt lat="43.04398" lon="0.79638">
        <ele>502</ele>
        <time>2021-03-13T15:59:16Z</time>
      </trkpt>
      <trkpt lat="43.04401" lon="0.79637">
        <ele>502</ele>
        <time>2021-03-13T15:59:17Z</time>
      </trkpt>
      <trkpt lat="43.04404" lon="0.79636">
        <ele>503</ele>
        <time>2021-03-13T15:59:18Z</time>
      </trkpt>
      <trkpt lat="43.04407" lon="0.79638">
        <ele>503</ele>
        <time>2021-03-13T15:59:19Z</time>
      </trkpt>
      <trkpt lat="43.04409" lon="0.79639">
        <ele>503</ele>
        <time>2021-03-13T15:59:20Z</time>
      </trkpt>
      <trkpt lat="43.04412" lon="0.79641">
        <ele>503</ele>
        <time>2021-03-13T15:59:21Z</time>
      </trkpt>
      <trkpt lat="43.04415" lon="0.79642">
        <ele>503</ele>
        <time>2021-03-13T15:59:22Z</time>
      </trkpt>
      <trkpt lat="43.04418" lon="0.79643">
        <ele>503</ele>
        <time>2021-03-13T15:59:23Z</time>
      </trkpt>
      <trkpt lat="43.04421" lon="0.79645">
        <ele>503</ele>
        <time>2021-03-13T15:59:24Z</time>
      </trkpt>
      <trkpt lat="43.04423" lon="0.79647">
        <ele>503</ele>
        <time>2021-03-13T15:59:25Z</time>
      </trkpt>
      <trkpt lat="43.04426" lon="0.79648">
        <ele>503</ele>
        <time>2021-03-13T15:59:26Z</time>
      </trkpt>
      <trkpt lat="43.04429" lon="0.79649">
        <ele>503</ele>
        <time>2021-03-13T15:59:27Z</time>
      </trkpt>
      <trkpt lat="43.04431" lon="0.7965">
        <ele>503</ele>
        <time>2021-03-13T15:59:28Z</time>
      </trkpt>
      <trkpt lat="43.04434" lon="0.79652">
        <ele>503</ele>
        <time>2021-03-13T15:59:29Z</time>
      </trkpt>
      <trkpt lat="43.04436" lon="0.79653">
        <ele>505</ele>
        <time>2021-03-13T15:59:30Z</time>
      </trkpt>
      <trkpt lat="43.04439" lon="0.79654">
        <ele>505</ele>
        <time>2021-03-13T15:59:31Z</time>
      </trkpt>
      <trkpt lat="43.04441" lon="0.79655">
        <ele>505</ele>
        <time>2021-03-13T15:59:32Z</time>
      </trkpt>
      <trkpt lat="43.04443" lon="0.79656">
        <ele>505</ele>
        <time>2021-03-13T15:59:33Z</time>
      </trkpt>
      <trkpt lat="43.04446" lon="0.79657">
        <ele>505</ele>
        <time>2021-03-13T15:59:34Z</time>
      </trkpt>
      <trkpt lat="43.04448" lon="0.79659">
        <ele>505</ele>
        <time>2021-03-13T15:59:35Z</time>
      </trkpt>
      <trkpt lat="43.04451" lon="0.79661">
        <ele>505</ele>
        <time>2021-03-13T15:59:36Z</time>
      </trkpt>
      <trkpt lat="43.04453" lon="0.79663">
        <ele>505</ele>
        <time>2021-03-13T15:59:37Z</time>
      </trkpt>
      <trkpt lat="43.04456" lon="0.79664">
        <ele>505</ele>
        <time>2021-03-13T15:59:38Z</time>
      </trkpt>
      <trkpt lat="43.04458" lon="0.79666">
        <ele>505</ele>
        <time>2021-03-13T15:59:39Z</time>
      </trkpt>
      <trkpt lat="43.0446" lon="0.79668">
        <ele>508</ele>
        <time>2021-03-13T15:59:40Z</time>
      </trkpt>
      <trkpt lat="43.04462" lon="0.7967">
        <ele>508</ele>
        <time>2021-03-13T15:59:41Z</time>
      </trkpt>
      <trkpt lat="43.04465" lon="0.79672">
        <ele>508</ele>
        <time>2021-03-13T15:59:42Z</time>
      </trkpt>
      <trkpt lat="43.04467" lon="0.79673">
        <ele>508</ele>
        <time>2021-03-13T15:59:43Z</time>
      </trkpt>
      <trkpt lat="43.0447" lon="0.79675">
        <ele>508</ele>
        <time>2021-03-13T15:59:44Z</time>
      </trkpt>
      <trkpt lat="43.04472" lon="0.79677">
        <ele>510</ele>
        <time>2021-03-13T15:59:45Z</time>
      </trkpt>
      <trkpt lat="43.04475" lon="0.79679">
        <ele>510</ele>
        <time>2021-03-13T15:59:46Z</time>
      </trkpt>
      <trkpt lat="43.04478" lon="0.7968">
        <ele>510</ele>
        <time>2021-03-13T15:59:47Z</time>
      </trkpt>
      <trkpt lat="43.0448" lon="0.79681">
        <ele>510</ele>
        <time>2021-03-13T15:59:48Z</time>
      </trkpt>
      <trkpt lat="43.04483" lon="0.79682">
        <ele>510</ele>
        <time>2021-03-13T15:59:49Z</time>
      </trkpt>
      <trkpt lat="43.04486" lon="0.79683">
        <ele>512</ele>
        <time>2021-03-13T15:59:50Z</time>
      </trkpt>
      <trkpt lat="43.04489" lon="0.79684">
        <ele>512</ele>
        <time>2021-03-13T15:59:51Z</time>
      </trkpt>
      <trkpt lat="43.04492" lon="0.79684">
        <ele>512</ele>
        <time>2021-03-13T15:59:52Z</time>
      </trkpt>
      <trkpt lat="43.04494" lon="0.79684">
        <ele>512</ele>
        <time>2021-03-13T15:59:53Z</time>
      </trkpt>
      <trkpt lat="43.04497" lon="0.79684">
        <ele>512</ele>
        <time>2021-03-13T15:59:54Z</time>
      </trkpt>
      <trkpt lat="43.045" lon="0.79684">
        <ele>512</ele>
        <time>2021-03-13T15:59:55Z</time>
      </trkpt>
      <trkpt lat="43.04503" lon="0.79683">
        <ele>512</ele>
        <time>2021-03-13T15:59:56Z</time>
      </trkpt>
      <trkpt lat="43.04507" lon="0.79681">
        <ele>512</ele>
        <time>2021-03-13T15:59:57Z</time>
      </trkpt>
      <trkpt lat="43.0451" lon="0.7968">
        <ele>512</ele>
        <time>2021-03-13T15:59:58Z</time>
      </trkpt>
      <trkpt lat="43.04516" lon="0.79675">
        <ele>512</ele>
        <time>2021-03-13T15:59:59Z</time>
      </trkpt>
      <trkpt lat="43.04516" lon="0.79675">
        <ele>512</ele>
        <time>2021-03-13T16:00:00Z</time>
      </trkpt>
      <trkpt lat="43.04518" lon="0.79673">
        <ele>512</ele>
        <time>2021-03-13T16:00:01Z</time>
      </trkpt>
      <trkpt lat="43.04521" lon="0.7967">
        <ele>512</ele>
        <time>2021-03-13T16:00:02Z</time>
      </trkpt>
      <trkpt lat="43.04524" lon="0.79667">
        <ele>512</ele>
        <time>2021-03-13T16:00:03Z</time>
      </trkpt>
      <trkpt lat="43.04526" lon="0.79664">
        <ele>512</ele>
        <time>2021-03-13T16:00:04Z</time>
      </trkpt>
      <trkpt lat="43.0453" lon="0.79661">
        <ele>512</ele>
        <time>2021-03-13T16:00:05Z</time>
      </trkpt>
      <trkpt lat="43.04533" lon="0.79658">
        <ele>512</ele>
        <time>2021-03-13T16:00:06Z</time>
      </trkpt>
      <trkpt lat="43.04536" lon="0.79655">
        <ele>512</ele>
        <time>2021-03-13T16:00:07Z</time>
      </trkpt>
      <trkpt lat="43.04539" lon="0.79652">
        <ele>512</ele>
        <time>2021-03-13T16:00:08Z</time>
      </trkpt>
      <trkpt lat="43.04542" lon="0.79648">
        <ele>512</ele>
        <time>2021-03-13T16:00:09Z</time>
      </trkpt>
      <trkpt lat="43.04544" lon="0.79645">
        <ele>512</ele>
        <time>2021-03-13T16:00:10Z</time>
      </trkpt>
      <trkpt lat="43.04547" lon="0.79641">
        <ele>512</ele>
        <time>2021-03-13T16:00:11Z</time>
      </trkpt>
      <trkpt lat="43.04549" lon="0.79637">
        <ele>512</ele>
        <time>2021-03-13T16:00:12Z</time>
      </trkpt>
      <trkpt lat="43.0455" lon="0.79633">
        <ele>512</ele>
        <time>2021-03-13T16:00:13Z</time>
      </trkpt>
      <trkpt lat="43.04552" lon="0.79629">
        <ele>512</ele>
        <time>2021-03-13T16:00:14Z</time>
      </trkpt>
      <trkpt lat="43.04554" lon="0.79625">
        <ele>512</ele>
        <time>2021-03-13T16:00:15Z</time>
      </trkpt>
      <trkpt lat="43.04555" lon="0.79621">
        <ele>512</ele>
        <time>2021-03-13T16:00:16Z</time>
      </trkpt>
      <trkpt lat="43.04556" lon="0.79616">
        <ele>512</ele>
        <time>2021-03-13T16:00:17Z</time>
      </trkpt>
      <trkpt lat="43.04558" lon="0.79611">
        <ele>512</ele>
        <time>2021-03-13T16:00:18Z</time>
      </trkpt>
      <trkpt lat="43.04559" lon="0.79605">
        <ele>512</ele>
        <time>2021-03-13T16:00:19Z</time>
      </trkpt>
      <trkpt lat="43.04561" lon="0.796">
        <ele>512</ele>
        <time>2021-03-13T16:00:20Z</time>
      </trkpt>
      <trkpt lat="43.04563" lon="0.79595">
        <ele>512</ele>
        <time>2021-03-13T16:00:21Z</time>
      </trkpt>
      <trkpt lat="43.04564" lon="0.7959">
        <ele>512</ele>
        <time>2021-03-13T16:00:22Z</time>
      </trkpt>
      <trkpt lat="43.04567" lon="0.79586">
        <ele>512</ele>
        <time>2021-03-13T16:00:23Z</time>
      </trkpt>
      <trkpt lat="43.04569" lon="0.79582">
        <ele>512</ele>
        <time>2021-03-13T16:00:24Z</time>
      </trkpt>
      <trkpt lat="43.0457" lon="0.79577">
        <ele>512</ele>
        <time>2021-03-13T16:00:25Z</time>
      </trkpt>
      <trkpt lat="43.04572" lon="0.79571">
        <ele>512</ele>
        <time>2021-03-13T16:00:26Z</time>
      </trkpt>
      <trkpt lat="43.04573" lon="0.79566">
        <ele>512</ele>
        <time>2021-03-13T16:00:27Z</time>
      </trkpt>
      <trkpt lat="43.04575" lon="0.7956">
        <ele>512</ele>
        <time>2021-03-13T16:00:28Z</time>
      </trkpt>
      <trkpt lat="43.04575" lon="0.79556">
        <ele>512</ele>
        <time>2021-03-13T16:00:29Z</time>
      </trkpt>
      <trkpt lat="43.04576" lon="0.79551">
        <ele>511</ele>
        <time>2021-03-13T16:00:30Z</time>
      </trkpt>
      <trkpt lat="43.04577" lon="0.79549">
        <ele>511</ele>
        <time>2021-03-13T16:00:31Z</time>
      </trkpt>
      <trkpt lat="43.04578" lon="0.79546">
        <ele>511</ele>
        <time>2021-03-13T16:00:32Z</time>
      </trkpt>
      <trkpt lat="43.04579" lon="0.79543">
        <ele>511</ele>
        <time>2021-03-13T16:00:33Z</time>
      </trkpt>
      <trkpt lat="43.0458" lon="0.79541">
        <ele>511</ele>
        <time>2021-03-13T16:00:34Z</time>
      </trkpt>
      <trkpt lat="43.04582" lon="0.79538">
        <ele>511</ele>
        <time>2021-03-13T16:00:35Z</time>
      </trkpt>
      <trkpt lat="43.04583" lon="0.79535">
        <ele>511</ele>
        <time>2021-03-13T16:00:36Z</time>
      </trkpt>
      <trkpt lat="43.04587" lon="0.79534">
        <ele>511</ele>
        <time>2021-03-13T16:00:37Z</time>
      </trkpt>
      <trkpt lat="43.0459" lon="0.79532">
        <ele>511</ele>
        <time>2021-03-13T16:00:38Z</time>
      </trkpt>
      <trkpt lat="43.04593" lon="0.79531">
        <ele>511</ele>
        <time>2021-03-13T16:00:39Z</time>
      </trkpt>
      <trkpt lat="43.04596" lon="0.7953">
        <ele>511</ele>
        <time>2021-03-13T16:00:40Z</time>
      </trkpt>
      <trkpt lat="43.04599" lon="0.7953">
        <ele>511</ele>
        <time>2021-03-13T16:00:41Z</time>
      </trkpt>
      <trkpt lat="43.04602" lon="0.79531">
        <ele>511</ele>
        <time>2021-03-13T16:00:42Z</time>
      </trkpt>
      <trkpt lat="43.04605" lon="0.79531">
        <ele>511</ele>
        <time>2021-03-13T16:00:43Z</time>
      </trkpt>
      <trkpt lat="43.04607" lon="0.79533">
        <ele>511</ele>
        <time>2021-03-13T16:00:44Z</time>
      </trkpt>
      <trkpt lat="43.0461" lon="0.79536">
        <ele>511</ele>
        <time>2021-03-13T16:00:45Z</time>
      </trkpt>
      <trkpt lat="43.04613" lon="0.79539">
        <ele>511</ele>
        <time>2021-03-13T16:00:46Z</time>
      </trkpt>
      <trkpt lat="43.04616" lon="0.79543">
        <ele>511</ele>
        <time>2021-03-13T16:00:47Z</time>
      </trkpt>
      <trkpt lat="43.04617" lon="0.79545">
        <ele>511</ele>
        <time>2021-03-13T16:00:48Z</time>
      </trkpt>
      <trkpt lat="43.04618" lon="0.79547">
        <ele>511</ele>
        <time>2021-03-13T16:00:49Z</time>
      </trkpt>
      <trkpt lat="43.04619" lon="0.79549">
        <ele>511</ele>
        <time>2021-03-13T16:00:50Z</time>
      </trkpt>
      <trkpt lat="43.04624" lon="0.79557">
        <ele>511</ele>
        <time>2021-03-13T16:00:51Z</time>
      </trkpt>
      <trkpt lat="43.04626" lon="0.79559">
        <ele>511</ele>
        <time>2021-03-13T16:00:52Z</time>
      </trkpt>
      <trkpt lat="43.04628" lon="0.79561">
        <ele>511</ele>
        <time>2021-03-13T16:00:53Z</time>
      </trkpt>
      <trkpt lat="43.04634" lon="0.79568">
        <ele>511</ele>
        <time>2021-03-13T16:00:54Z</time>
      </trkpt>
      <trkpt lat="43.04636" lon="0.7957">
        <ele>511</ele>
        <time>2021-03-13T16:00:55Z</time>
      </trkpt>
      <trkpt lat="43.04637" lon="0.79571">
        <ele>511</ele>
        <time>2021-03-13T16:00:56Z</time>
      </trkpt>
      <trkpt lat="43.04643" lon="0.79577">
        <ele>511</ele>
        <time>2021-03-13T16:00:57Z</time>
      </trkpt>
      <trkpt lat="43.04644" lon="0.79578">
        <ele>511</ele>
        <time>2021-03-13T16:00:58Z</time>
      </trkpt>
      <trkpt lat="43.04645" lon="0.79579">
        <ele>511</ele>
        <time>2021-03-13T16:00:59Z</time>
      </trkpt>
      <trkpt lat="43.04646" lon="0.79581">
        <ele>510</ele>
        <time>2021-03-13T16:01:00Z</time>
      </trkpt>
      <trkpt lat="43.04651" lon="0.79588">
        <ele>510</ele>
        <time>2021-03-13T16:01:01Z</time>
      </trkpt>
      <trkpt lat="43.04652" lon="0.79589">
        <ele>510</ele>
        <time>2021-03-13T16:01:02Z</time>
      </trkpt>
      <trkpt lat="43.04653" lon="0.79591">
        <ele>510</ele>
        <time>2021-03-13T16:01:03Z</time>
      </trkpt>
      <trkpt lat="43.04654" lon="0.79592">
        <ele>510</ele>
        <time>2021-03-13T16:01:04Z</time>
      </trkpt>
      <trkpt lat="43.04658" lon="0.79601">
        <ele>510</ele>
        <time>2021-03-13T16:01:05Z</time>
      </trkpt>
      <trkpt lat="43.04659" lon="0.79604">
        <ele>510</ele>
        <time>2021-03-13T16:01:06Z</time>
      </trkpt>
      <trkpt lat="43.0466" lon="0.79607">
        <ele>510</ele>
        <time>2021-03-13T16:01:07Z</time>
      </trkpt>
      <trkpt lat="43.04662" lon="0.7961">
        <ele>510</ele>
        <time>2021-03-13T16:01:08Z</time>
      </trkpt>
      <trkpt lat="43.04663" lon="0.79614">
        <ele>510</ele>
        <time>2021-03-13T16:01:09Z</time>
      </trkpt>
      <trkpt lat="43.04665" lon="0.79617">
        <ele>511</ele>
        <time>2021-03-13T16:01:10Z</time>
      </trkpt>
      <trkpt lat="43.04667" lon="0.79621">
        <ele>511</ele>
        <time>2021-03-13T16:01:11Z</time>
      </trkpt>
      <trkpt lat="43.04668" lon="0.79623">
        <ele>511</ele>
        <time>2021-03-13T16:01:12Z</time>
      </trkpt>
      <trkpt lat="43.0467" lon="0.79626">
        <ele>511</ele>
        <time>2021-03-13T16:01:13Z</time>
      </trkpt>
      <trkpt lat="43.04671" lon="0.79628">
        <ele>511</ele>
        <time>2021-03-13T16:01:14Z</time>
      </trkpt>
      <trkpt lat="43.04672" lon="0.79631">
        <ele>511</ele>
        <time>2021-03-13T16:01:15Z</time>
      </trkpt>
      <trkpt lat="43.04675" lon="0.79636">
        <ele>511</ele>
        <time>2021-03-13T16:01:16Z</time>
      </trkpt>
      <trkpt lat="43.04678" lon="0.79641">
        <ele>511</ele>
        <time>2021-03-13T16:01:17Z</time>
      </trkpt>
      <trkpt lat="43.0468" lon="0.79644">
        <ele>511</ele>
        <time>2021-03-13T16:01:18Z</time>
      </trkpt>
      <trkpt lat="43.04681" lon="0.79647">
        <ele>511</ele>
        <time>2021-03-13T16:01:19Z</time>
      </trkpt>
      <trkpt lat="43.04683" lon="0.79649">
        <ele>512</ele>
        <time>2021-03-13T16:01:20Z</time>
      </trkpt>
      <trkpt lat="43.04684" lon="0.79652">
        <ele>512</ele>
        <time>2021-03-13T16:01:21Z</time>
      </trkpt>
      <trkpt lat="43.04686" lon="0.79654">
        <ele>512</ele>
        <time>2021-03-13T16:01:22Z</time>
      </trkpt>
      <trkpt lat="43.04687" lon="0.79656">
        <ele>512</ele>
        <time>2021-03-13T16:01:23Z</time>
      </trkpt>
      <trkpt lat="43.04688" lon="0.79658">
        <ele>512</ele>
        <time>2021-03-13T16:01:24Z</time>
      </trkpt>
      <trkpt lat="43.04694" lon="0.79666">
        <ele>512</ele>
        <time>2021-03-13T16:01:25Z</time>
      </trkpt>
      <trkpt lat="43.04695" lon="0.79668">
        <ele>512</ele>
        <time>2021-03-13T16:01:26Z</time>
      </trkpt>
      <trkpt lat="43.04696" lon="0.7967">
        <ele>512</ele>
        <time>2021-03-13T16:01:27Z</time>
      </trkpt>
      <trkpt lat="43.04704" lon="0.79682">
        <ele>512</ele>
        <time>2021-03-13T16:01:28Z</time>
      </trkpt>
      <trkpt lat="43.04707" lon="0.79688">
        <ele>512</ele>
        <time>2021-03-13T16:01:29Z</time>
      </trkpt>
      <trkpt lat="43.04711" lon="0.79693">
        <ele>512</ele>
        <time>2021-03-13T16:01:30Z</time>
      </trkpt>
      <trkpt lat="43.04714" lon="0.79698">
        <ele>512</ele>
        <time>2021-03-13T16:01:31Z</time>
      </trkpt>
      <trkpt lat="43.04717" lon="0.79703">
        <ele>512</ele>
        <time>2021-03-13T16:01:32Z</time>
      </trkpt>
      <trkpt lat="43.04721" lon="0.79707">
        <ele>512</ele>
        <time>2021-03-13T16:01:33Z</time>
      </trkpt>
      <trkpt lat="43.04724" lon="0.79711">
        <ele>512</ele>
        <time>2021-03-13T16:01:34Z</time>
      </trkpt>
      <trkpt lat="43.04727" lon="0.79714">
        <ele>512</ele>
        <time>2021-03-13T16:01:35Z</time>
      </trkpt>
      <trkpt lat="43.0473" lon="0.79717">
        <ele>512</ele>
        <time>2021-03-13T16:01:36Z</time>
      </trkpt>
      <trkpt lat="43.04732" lon="0.7972">
        <ele>512</ele>
        <time>2021-03-13T16:01:37Z</time>
      </trkpt>
      <trkpt lat="43.04735" lon="0.79723">
        <ele>512</ele>
        <time>2021-03-13T16:01:38Z</time>
      </trkpt>
      <trkpt lat="43.04736" lon="0.79725">
        <ele>512</ele>
        <time>2021-03-13T16:01:39Z</time>
      </trkpt>
      <trkpt lat="43.04738" lon="0.79726">
        <ele>512</ele>
        <time>2021-03-13T16:01:40Z</time>
      </trkpt>
      <trkpt lat="43.04739" lon="0.79728">
        <ele>512</ele>
        <time>2021-03-13T16:01:41Z</time>
      </trkpt>
      <trkpt lat="43.04746" lon="0.79736">
        <ele>512</ele>
        <time>2021-03-13T16:01:42Z</time>
      </trkpt>
      <trkpt lat="43.04748" lon="0.79739">
        <ele>512</ele>
        <time>2021-03-13T16:01:43Z</time>
      </trkpt>
      <trkpt lat="43.04751" lon="0.79741">
        <ele>512</ele>
        <time>2021-03-13T16:01:44Z</time>
      </trkpt>
      <trkpt lat="43.04753" lon="0.79744">
        <ele>512</ele>
        <time>2021-03-13T16:01:45Z</time>
      </trkpt>
      <trkpt lat="43.04755" lon="0.79747">
        <ele>512</ele>
        <time>2021-03-13T16:01:46Z</time>
      </trkpt>
      <trkpt lat="43.04756" lon="0.7975">
        <ele>512</ele>
        <time>2021-03-13T16:01:47Z</time>
      </trkpt>
      <trkpt lat="43.04758" lon="0.79753">
        <ele>512</ele>
        <time>2021-03-13T16:01:48Z</time>
      </trkpt>
      <trkpt lat="43.04759" lon="0.79757">
        <ele>512</ele>
        <time>2021-03-13T16:01:49Z</time>
      </trkpt>
      <trkpt lat="43.04759" lon="0.79762">
        <ele>512</ele>
        <time>2021-03-13T16:01:50Z</time>
      </trkpt>
      <trkpt lat="43.0476" lon="0.79766">
        <ele>512</ele>
        <time>2021-03-13T16:01:51Z</time>
      </trkpt>
      <trkpt lat="43.04761" lon="0.79769">
        <ele>512</ele>
        <time>2021-03-13T16:01:52Z</time>
      </trkpt>
      <trkpt lat="43.04761" lon="0.79773">
        <ele>512</ele>
        <time>2021-03-13T16:01:53Z</time>
      </trkpt>
      <trkpt lat="43.04762" lon="0.79776">
        <ele>512</ele>
        <time>2021-03-13T16:01:54Z</time>
      </trkpt>
      <trkpt lat="43.04762" lon="0.79779">
        <ele>512</ele>
        <time>2021-03-13T16:01:55Z</time>
      </trkpt>
      <trkpt lat="43.04762" lon="0.79783">
        <ele>512</ele>
        <time>2021-03-13T16:01:56Z</time>
      </trkpt>
      <trkpt lat="43.04762" lon="0.79786">
        <ele>512</ele>
        <time>2021-03-13T16:01:57Z</time>
      </trkpt>
      <trkpt lat="43.04762" lon="0.7979">
        <ele>512</ele>
        <time>2021-03-13T16:01:58Z</time>
      </trkpt>
      <trkpt lat="43.04763" lon="0.79793">
        <ele>512</ele>
        <time>2021-03-13T16:01:59Z</time>
      </trkpt>
      <trkpt lat="43.04765" lon="0.79796">
        <ele>514</ele>
        <time>2021-03-13T16:02:00Z</time>
      </trkpt>
      <trkpt lat="43.04766" lon="0.79799">
        <ele>514</ele>
        <time>2021-03-13T16:02:01Z</time>
      </trkpt>
      <trkpt lat="43.04768" lon="0.798">
        <ele>514</ele>
        <time>2021-03-13T16:02:02Z</time>
      </trkpt>
      <trkpt lat="43.0477" lon="0.79802">
        <ele>514</ele>
        <time>2021-03-13T16:02:03Z</time>
      </trkpt>
      <trkpt lat="43.04773" lon="0.79804">
        <ele>514</ele>
        <time>2021-03-13T16:02:04Z</time>
      </trkpt>
      <trkpt lat="43.04775" lon="0.79806">
        <ele>514</ele>
        <time>2021-03-13T16:02:05Z</time>
      </trkpt>
      <trkpt lat="43.04776" lon="0.79808">
        <ele>514</ele>
        <time>2021-03-13T16:02:06Z</time>
      </trkpt>
      <trkpt lat="43.04778" lon="0.7981">
        <ele>514</ele>
        <time>2021-03-13T16:02:07Z</time>
      </trkpt>
      <trkpt lat="43.0478" lon="0.79812">
        <ele>514</ele>
        <time>2021-03-13T16:02:08Z</time>
      </trkpt>
      <trkpt lat="43.04782" lon="0.79813">
        <ele>514</ele>
        <time>2021-03-13T16:02:09Z</time>
      </trkpt>
      <trkpt lat="43.04784" lon="0.79815">
        <ele>515</ele>
        <time>2021-03-13T16:02:10Z</time>
      </trkpt>
      <trkpt lat="43.04786" lon="0.79817">
        <ele>515</ele>
        <time>2021-03-13T16:02:11Z</time>
      </trkpt>
      <trkpt lat="43.04789" lon="0.79818">
        <ele>515</ele>
        <time>2021-03-13T16:02:12Z</time>
      </trkpt>
      <trkpt lat="43.04791" lon="0.7982">
        <ele>515</ele>
        <time>2021-03-13T16:02:13Z</time>
      </trkpt>
      <trkpt lat="43.04793" lon="0.79822">
        <ele>516</ele>
        <time>2021-03-13T16:02:14Z</time>
      </trkpt>
      <trkpt lat="43.04796" lon="0.79824">
        <ele>516</ele>
        <time>2021-03-13T16:02:15Z</time>
      </trkpt>
      <trkpt lat="43.04799" lon="0.79826">
        <ele>516</ele>
        <time>2021-03-13T16:02:16Z</time>
      </trkpt>
      <trkpt lat="43.04802" lon="0.79828">
        <ele>516</ele>
        <time>2021-03-13T16:02:17Z</time>
      </trkpt>
      <trkpt lat="43.04805" lon="0.7983">
        <ele>516</ele>
        <time>2021-03-13T16:02:18Z</time>
      </trkpt>
      <trkpt lat="43.04807" lon="0.79832">
        <ele>516</ele>
        <time>2021-03-13T16:02:19Z</time>
      </trkpt>
      <trkpt lat="43.04809" lon="0.79834">
        <ele>518</ele>
        <time>2021-03-13T16:02:20Z</time>
      </trkpt>
      <trkpt lat="43.04811" lon="0.79836">
        <ele>518</ele>
        <time>2021-03-13T16:02:21Z</time>
      </trkpt>
      <trkpt lat="43.04813" lon="0.79838">
        <ele>518</ele>
        <time>2021-03-13T16:02:22Z</time>
      </trkpt>
      <trkpt lat="43.04815" lon="0.7984">
        <ele>518</ele>
        <time>2021-03-13T16:02:23Z</time>
      </trkpt>
      <trkpt lat="43.04817" lon="0.79842">
        <ele>518</ele>
        <time>2021-03-13T16:02:24Z</time>
      </trkpt>
      <trkpt lat="43.04818" lon="0.79843">
        <ele>519</ele>
        <time>2021-03-13T16:02:25Z</time>
      </trkpt>
      <trkpt lat="43.04819" lon="0.79844">
        <ele>519</ele>
        <time>2021-03-13T16:02:26Z</time>
      </trkpt>
      <trkpt lat="43.04821" lon="0.79845">
        <ele>519</ele>
        <time>2021-03-13T16:02:27Z</time>
      </trkpt>
      <trkpt lat="43.04822" lon="0.79847">
        <ele>519</ele>
        <time>2021-03-13T16:02:28Z</time>
      </trkpt>
      <trkpt lat="43.04824" lon="0.79849">
        <ele>519</ele>
        <time>2021-03-13T16:02:29Z</time>
      </trkpt>
      <trkpt lat="43.04826" lon="0.79851">
        <ele>519</ele>
        <time>2021-03-13T16:02:30Z</time>
      </trkpt>
      <trkpt lat="43.04828" lon="0.79853">
        <ele>519</ele>
        <time>2021-03-13T16:02:31Z</time>
      </trkpt>
      <trkpt lat="43.04831" lon="0.79855">
        <ele>519</ele>
        <time>2021-03-13T16:02:32Z</time>
      </trkpt>
      <trkpt lat="43.04833" lon="0.79856">
        <ele>519</ele>
        <time>2021-03-13T16:02:33Z</time>
      </trkpt>
      <trkpt lat="43.04835" lon="0.79858">
        <ele>519</ele>
        <time>2021-03-13T16:02:34Z</time>
      </trkpt>
      <trkpt lat="43.04837" lon="0.7986">
        <ele>519</ele>
        <time>2021-03-13T16:02:35Z</time>
      </trkpt>
      <trkpt lat="43.04839" lon="0.79862">
        <ele>519</ele>
        <time>2021-03-13T16:02:36Z</time>
      </trkpt>
      <trkpt lat="43.04841" lon="0.79864">
        <ele>519</ele>
        <time>2021-03-13T16:02:37Z</time>
      </trkpt>
      <trkpt lat="43.04842" lon="0.79865">
        <ele>519</ele>
        <time>2021-03-13T16:02:38Z</time>
      </trkpt>
      <trkpt lat="43.04844" lon="0.79867">
        <ele>519</ele>
        <time>2021-03-13T16:02:39Z</time>
      </trkpt>
      <trkpt lat="43.04846" lon="0.79868">
        <ele>522</ele>
        <time>2021-03-13T16:02:40Z</time>
      </trkpt>
      <trkpt lat="43.04848" lon="0.7987">
        <ele>522</ele>
        <time>2021-03-13T16:02:41Z</time>
      </trkpt>
      <trkpt lat="43.0485" lon="0.79871">
        <ele>522</ele>
        <time>2021-03-13T16:02:42Z</time>
      </trkpt>
      <trkpt lat="43.04853" lon="0.79873">
        <ele>522</ele>
        <time>2021-03-13T16:02:43Z</time>
      </trkpt>
      <trkpt lat="43.04855" lon="0.79875">
        <ele>522</ele>
        <time>2021-03-13T16:02:44Z</time>
      </trkpt>
      <trkpt lat="43.04857" lon="0.79877">
        <ele>524</ele>
        <time>2021-03-13T16:02:45Z</time>
      </trkpt>
      <trkpt lat="43.04859" lon="0.79879">
        <ele>524</ele>
        <time>2021-03-13T16:02:46Z</time>
      </trkpt>
      <trkpt lat="43.04861" lon="0.7988">
        <ele>524</ele>
        <time>2021-03-13T16:02:47Z</time>
      </trkpt>
      <trkpt lat="43.04862" lon="0.79882">
        <ele>524</ele>
        <time>2021-03-13T16:02:48Z</time>
      </trkpt>
      <trkpt lat="43.04864" lon="0.79884">
        <ele>524</ele>
        <time>2021-03-13T16:02:49Z</time>
      </trkpt>
      <trkpt lat="43.04866" lon="0.79886">
        <ele>526</ele>
        <time>2021-03-13T16:02:50Z</time>
      </trkpt>
      <trkpt lat="43.04868" lon="0.79887">
        <ele>526</ele>
        <time>2021-03-13T16:02:51Z</time>
      </trkpt>
      <trkpt lat="43.0487" lon="0.79889">
        <ele>526</ele>
        <time>2021-03-13T16:02:52Z</time>
      </trkpt>
      <trkpt lat="43.04872" lon="0.79891">
        <ele>526</ele>
        <time>2021-03-13T16:02:53Z</time>
      </trkpt>
      <trkpt lat="43.04874" lon="0.79893">
        <ele>526</ele>
        <time>2021-03-13T16:02:54Z</time>
      </trkpt>
      <trkpt lat="43.04875" lon="0.79894">
        <ele>527</ele>
        <time>2021-03-13T16:02:55Z</time>
      </trkpt>
      <trkpt lat="43.04877" lon="0.79896">
        <ele>527</ele>
        <time>2021-03-13T16:02:56Z</time>
      </trkpt>
      <trkpt lat="43.04879" lon="0.79898">
        <ele>527</ele>
        <time>2021-03-13T16:02:57Z</time>
      </trkpt>
      <trkpt lat="43.04881" lon="0.799">
        <ele>527</ele>
        <time>2021-03-13T16:02:58Z</time>
      </trkpt>
      <trkpt lat="43.04883" lon="0.79902">
        <ele>527</ele>
        <time>2021-03-13T16:02:59Z</time>
      </trkpt>
      <trkpt lat="43.04886" lon="0.79904">
        <ele>527</ele>
        <time>2021-03-13T16:03:00Z</time>
      </trkpt>
      <trkpt lat="43.04889" lon="0.79906">
        <ele>527</ele>
        <time>2021-03-13T16:03:01Z</time>
      </trkpt>
      <trkpt lat="43.04891" lon="0.79908">
        <ele>527</ele>
        <time>2021-03-13T16:03:02Z</time>
      </trkpt>
      <trkpt lat="43.04893" lon="0.7991">
        <ele>527</ele>
        <time>2021-03-13T16:03:03Z</time>
      </trkpt>
      <trkpt lat="43.04895" lon="0.79912">
        <ele>527</ele>
        <time>2021-03-13T16:03:04Z</time>
      </trkpt>
      <trkpt lat="43.04897" lon="0.79913">
        <ele>527</ele>
        <time>2021-03-13T16:03:05Z</time>
      </trkpt>
      <trkpt lat="43.04899" lon="0.79915">
        <ele>527</ele>
        <time>2021-03-13T16:03:06Z</time>
      </trkpt>
      <trkpt lat="43.04901" lon="0.79917">
        <ele>527</ele>
        <time>2021-03-13T16:03:07Z</time>
      </trkpt>
      <trkpt lat="43.04903" lon="0.79919">
        <ele>527</ele>
        <time>2021-03-13T16:03:08Z</time>
      </trkpt>
      <trkpt lat="43.04906" lon="0.7992">
        <ele>527</ele>
        <time>2021-03-13T16:03:09Z</time>
      </trkpt>
      <trkpt lat="43.04908" lon="0.79922">
        <ele>529</ele>
        <time>2021-03-13T16:03:10Z</time>
      </trkpt>
      <trkpt lat="43.0491" lon="0.79924">
        <ele>529</ele>
        <time>2021-03-13T16:03:11Z</time>
      </trkpt>
      <trkpt lat="43.04912" lon="0.79926">
        <ele>529</ele>
        <time>2021-03-13T16:03:12Z</time>
      </trkpt>
      <trkpt lat="43.04914" lon="0.79927">
        <ele>529</ele>
        <time>2021-03-13T16:03:13Z</time>
      </trkpt>
      <trkpt lat="43.04916" lon="0.79929">
        <ele>529</ele>
        <time>2021-03-13T16:03:14Z</time>
      </trkpt>
      <trkpt lat="43.04918" lon="0.79931">
        <ele>529</ele>
        <time>2021-03-13T16:03:15Z</time>
      </trkpt>
      <trkpt lat="43.0492" lon="0.79933">
        <ele>529</ele>
        <time>2021-03-13T16:03:16Z</time>
      </trkpt>
      <trkpt lat="43.04921" lon="0.79935">
        <ele>529</ele>
        <time>2021-03-13T16:03:17Z</time>
      </trkpt>
      <trkpt lat="43.04923" lon="0.79937">
        <ele>529</ele>
        <time>2021-03-13T16:03:18Z</time>
      </trkpt>
      <trkpt lat="43.04924" lon="0.79939">
        <ele>529</ele>
        <time>2021-03-13T16:03:19Z</time>
      </trkpt>
      <trkpt lat="43.04926" lon="0.79942">
        <ele>530</ele>
        <time>2021-03-13T16:03:20Z</time>
      </trkpt>
      <trkpt lat="43.04928" lon="0.79944">
        <ele>530</ele>
        <time>2021-03-13T16:03:21Z</time>
      </trkpt>
      <trkpt lat="43.04929" lon="0.79946">
        <ele>530</ele>
        <time>2021-03-13T16:03:22Z</time>
      </trkpt>
      <trkpt lat="43.04931" lon="0.79948">
        <ele>530</ele>
        <time>2021-03-13T16:03:23Z</time>
      </trkpt>
      <trkpt lat="43.04932" lon="0.7995">
        <ele>530</ele>
        <time>2021-03-13T16:03:24Z</time>
      </trkpt>
      <trkpt lat="43.04934" lon="0.79952">
        <ele>530</ele>
        <time>2021-03-13T16:03:25Z</time>
      </trkpt>
      <trkpt lat="43.04936" lon="0.79954">
        <ele>530</ele>
        <time>2021-03-13T16:03:26Z</time>
      </trkpt>
      <trkpt lat="43.04937" lon="0.79956">
        <ele>530</ele>
        <time>2021-03-13T16:03:27Z</time>
      </trkpt>
      <trkpt lat="43.04938" lon="0.79959">
        <ele>530</ele>
        <time>2021-03-13T16:03:28Z</time>
      </trkpt>
      <trkpt lat="43.0494" lon="0.79961">
        <ele>530</ele>
        <time>2021-03-13T16:03:29Z</time>
      </trkpt>
      <trkpt lat="43.04942" lon="0.79963">
        <ele>531</ele>
        <time>2021-03-13T16:03:30Z</time>
      </trkpt>
      <trkpt lat="43.04943" lon="0.79967">
        <ele>531</ele>
        <time>2021-03-13T16:03:31Z</time>
      </trkpt>
      <trkpt lat="43.04945" lon="0.7997">
        <ele>531</ele>
        <time>2021-03-13T16:03:32Z</time>
      </trkpt>
      <trkpt lat="43.04946" lon="0.79973">
        <ele>531</ele>
        <time>2021-03-13T16:03:33Z</time>
      </trkpt>
      <trkpt lat="43.04947" lon="0.79975">
        <ele>531</ele>
        <time>2021-03-13T16:03:34Z</time>
      </trkpt>
      <trkpt lat="43.04949" lon="0.79978">
        <ele>531</ele>
        <time>2021-03-13T16:03:35Z</time>
      </trkpt>
      <trkpt lat="43.0495" lon="0.7998">
        <ele>531</ele>
        <time>2021-03-13T16:03:36Z</time>
      </trkpt>
      <trkpt lat="43.04951" lon="0.79983">
        <ele>531</ele>
        <time>2021-03-13T16:03:37Z</time>
      </trkpt>
      <trkpt lat="43.04952" lon="0.79986">
        <ele>531</ele>
        <time>2021-03-13T16:03:38Z</time>
      </trkpt>
      <trkpt lat="43.04953" lon="0.79989">
        <ele>531</ele>
        <time>2021-03-13T16:03:39Z</time>
      </trkpt>
      <trkpt lat="43.04954" lon="0.79992">
        <ele>533</ele>
        <time>2021-03-13T16:03:40Z</time>
      </trkpt>
      <trkpt lat="43.04955" lon="0.79995">
        <ele>533</ele>
        <time>2021-03-13T16:03:41Z</time>
      </trkpt>
      <trkpt lat="43.04956" lon="0.79999">
        <ele>533</ele>
        <time>2021-03-13T16:03:42Z</time>
      </trkpt>
      <trkpt lat="43.04957" lon="0.80003">
        <ele>533</ele>
        <time>2021-03-13T16:03:43Z</time>
      </trkpt>
      <trkpt lat="43.04958" lon="0.80006">
        <ele>533</ele>
        <time>2021-03-13T16:03:44Z</time>
      </trkpt>
      <trkpt lat="43.04959" lon="0.8001">
        <ele>533</ele>
        <time>2021-03-13T16:03:45Z</time>
      </trkpt>
      <trkpt lat="43.04959" lon="0.80013">
        <ele>533</ele>
        <time>2021-03-13T16:03:46Z</time>
      </trkpt>
      <trkpt lat="43.0496" lon="0.80016">
        <ele>533</ele>
        <time>2021-03-13T16:03:47Z</time>
      </trkpt>
      <trkpt lat="43.04962" lon="0.8002">
        <ele>533</ele>
        <time>2021-03-13T16:03:48Z</time>
      </trkpt>
      <trkpt lat="43.04963" lon="0.80023">
        <ele>533</ele>
        <time>2021-03-13T16:03:49Z</time>
      </trkpt>
      <trkpt lat="43.04965" lon="0.80027">
        <ele>536</ele>
        <time>2021-03-13T16:03:50Z</time>
      </trkpt>
      <trkpt lat="43.04965" lon="0.8003">
        <ele>536</ele>
        <time>2021-03-13T16:03:51Z</time>
      </trkpt>
      <trkpt lat="43.04966" lon="0.80033">
        <ele>536</ele>
        <time>2021-03-13T16:03:52Z</time>
      </trkpt>
      <trkpt lat="43.04967" lon="0.80036">
        <ele>536</ele>
        <time>2021-03-13T16:03:53Z</time>
      </trkpt>
      <trkpt lat="43.04967" lon="0.8004">
        <ele>536</ele>
        <time>2021-03-13T16:03:54Z</time>
      </trkpt>
      <trkpt lat="43.04968" lon="0.80044">
        <ele>537</ele>
        <time>2021-03-13T16:03:55Z</time>
      </trkpt>
      <trkpt lat="43.04968" lon="0.80048">
        <ele>537</ele>
        <time>2021-03-13T16:03:56Z</time>
      </trkpt>
      <trkpt lat="43.04969" lon="0.80051">
        <ele>537</ele>
        <time>2021-03-13T16:03:57Z</time>
      </trkpt>
      <trkpt lat="43.04969" lon="0.80055">
        <ele>537</ele>
        <time>2021-03-13T16:03:58Z</time>
      </trkpt>
      <trkpt lat="43.04969" lon="0.80058">
        <ele>537</ele>
        <time>2021-03-13T16:03:59Z</time>
      </trkpt>
      <trkpt lat="43.04969" lon="0.80062">
        <ele>538</ele>
        <time>2021-03-13T16:04:00Z</time>
      </trkpt>
      <trkpt lat="43.04969" lon="0.80065">
        <ele>538</ele>
        <time>2021-03-13T16:04:01Z</time>
      </trkpt>
      <trkpt lat="43.0497" lon="0.80069">
        <ele>538</ele>
        <time>2021-03-13T16:04:02Z</time>
      </trkpt>
      <trkpt lat="43.0497" lon="0.80073">
        <ele>538</ele>
        <time>2021-03-13T16:04:03Z</time>
      </trkpt>
      <trkpt lat="43.0497" lon="0.80076">
        <ele>538</ele>
        <time>2021-03-13T16:04:04Z</time>
      </trkpt>
      <trkpt lat="43.04969" lon="0.8008">
        <ele>539</ele>
        <time>2021-03-13T16:04:05Z</time>
      </trkpt>
      <trkpt lat="43.0497" lon="0.80083">
        <ele>539</ele>
        <time>2021-03-13T16:04:06Z</time>
      </trkpt>
      <trkpt lat="43.0497" lon="0.80087">
        <ele>539</ele>
        <time>2021-03-13T16:04:07Z</time>
      </trkpt>
      <trkpt lat="43.0497" lon="0.8009">
        <ele>539</ele>
        <time>2021-03-13T16:04:08Z</time>
      </trkpt>
      <trkpt lat="43.0497" lon="0.80093">
        <ele>539</ele>
        <time>2021-03-13T16:04:09Z</time>
      </trkpt>
      <trkpt lat="43.0497" lon="0.80096">
        <ele>541</ele>
        <time>2021-03-13T16:04:10Z</time>
      </trkpt>
      <trkpt lat="43.0497" lon="0.80099">
        <ele>541</ele>
        <time>2021-03-13T16:04:11Z</time>
      </trkpt>
      <trkpt lat="43.0497" lon="0.80104">
        <ele>541</ele>
        <time>2021-03-13T16:04:12Z</time>
      </trkpt>
      <trkpt lat="43.0497" lon="0.80108">
        <ele>541</ele>
        <time>2021-03-13T16:04:13Z</time>
      </trkpt>
      <trkpt lat="43.0497" lon="0.80111">
        <ele>541</ele>
        <time>2021-03-13T16:04:14Z</time>
      </trkpt>
      <trkpt lat="43.0497" lon="0.80114">
        <ele>542</ele>
        <time>2021-03-13T16:04:15Z</time>
      </trkpt>
      <trkpt lat="43.0497" lon="0.80117">
        <ele>542</ele>
        <time>2021-03-13T16:04:16Z</time>
      </trkpt>
      <trkpt lat="43.0497" lon="0.8012">
        <ele>542</ele>
        <time>2021-03-13T16:04:17Z</time>
      </trkpt>
      <trkpt lat="43.04969" lon="0.80124">
        <ele>542</ele>
        <time>2021-03-13T16:04:18Z</time>
      </trkpt>
      <trkpt lat="43.04969" lon="0.80127">
        <ele>542</ele>
        <time>2021-03-13T16:04:19Z</time>
      </trkpt>
      <trkpt lat="43.04969" lon="0.80131">
        <ele>542</ele>
        <time>2021-03-13T16:04:20Z</time>
      </trkpt>
      <trkpt lat="43.04969" lon="0.80135">
        <ele>542</ele>
        <time>2021-03-13T16:04:21Z</time>
      </trkpt>
      <trkpt lat="43.04969" lon="0.80139">
        <ele>542</ele>
        <time>2021-03-13T16:04:22Z</time>
      </trkpt>
      <trkpt lat="43.04968" lon="0.80142">
        <ele>542</ele>
        <time>2021-03-13T16:04:23Z</time>
      </trkpt>
      <trkpt lat="43.04968" lon="0.80146">
        <ele>542</ele>
        <time>2021-03-13T16:04:24Z</time>
      </trkpt>
      <trkpt lat="43.04967" lon="0.80149">
        <ele>542</ele>
        <time>2021-03-13T16:04:25Z</time>
      </trkpt>
      <trkpt lat="43.04967" lon="0.80152">
        <ele>542</ele>
        <time>2021-03-13T16:04:26Z</time>
      </trkpt>
      <trkpt lat="43.04966" lon="0.80155">
        <ele>542</ele>
        <time>2021-03-13T16:04:27Z</time>
      </trkpt>
      <trkpt lat="43.04966" lon="0.80159">
        <ele>542</ele>
        <time>2021-03-13T16:04:28Z</time>
      </trkpt>
      <trkpt lat="43.04965" lon="0.80162">
        <ele>542</ele>
        <time>2021-03-13T16:04:29Z</time>
      </trkpt>
      <trkpt lat="43.04965" lon="0.80166">
        <ele>543</ele>
        <time>2021-03-13T16:04:30Z</time>
      </trkpt>
      <trkpt lat="43.04964" lon="0.80169">
        <ele>543</ele>
        <time>2021-03-13T16:04:31Z</time>
      </trkpt>
      <trkpt lat="43.04963" lon="0.80173">
        <ele>543</ele>
        <time>2021-03-13T16:04:32Z</time>
      </trkpt>
      <trkpt lat="43.04962" lon="0.80177">
        <ele>543</ele>
        <time>2021-03-13T16:04:33Z</time>
      </trkpt>
      <trkpt lat="43.04962" lon="0.8018">
        <ele>543</ele>
        <time>2021-03-13T16:04:34Z</time>
      </trkpt>
      <trkpt lat="43.04961" lon="0.80184">
        <ele>543</ele>
        <time>2021-03-13T16:04:35Z</time>
      </trkpt>
      <trkpt lat="43.04961" lon="0.80187">
        <ele>543</ele>
        <time>2021-03-13T16:04:36Z</time>
      </trkpt>
      <trkpt lat="43.0496" lon="0.80191">
        <ele>543</ele>
        <time>2021-03-13T16:04:37Z</time>
      </trkpt>
      <trkpt lat="43.0496" lon="0.80194">
        <ele>543</ele>
        <time>2021-03-13T16:04:38Z</time>
      </trkpt>
      <trkpt lat="43.04959" lon="0.80198">
        <ele>543</ele>
        <time>2021-03-13T16:04:39Z</time>
      </trkpt>
      <trkpt lat="43.04959" lon="0.80203">
        <ele>545</ele>
        <time>2021-03-13T16:04:40Z</time>
      </trkpt>
      <trkpt lat="43.04958" lon="0.80206">
        <ele>545</ele>
        <time>2021-03-13T16:04:41Z</time>
      </trkpt>
      <trkpt lat="43.04957" lon="0.8021">
        <ele>545</ele>
        <time>2021-03-13T16:04:42Z</time>
      </trkpt>
      <trkpt lat="43.04956" lon="0.80213">
        <ele>545</ele>
        <time>2021-03-13T16:04:43Z</time>
      </trkpt>
      <trkpt lat="43.04955" lon="0.80217">
        <ele>545</ele>
        <time>2021-03-13T16:04:44Z</time>
      </trkpt>
      <trkpt lat="43.04954" lon="0.80221">
        <ele>545</ele>
        <time>2021-03-13T16:04:45Z</time>
      </trkpt>
      <trkpt lat="43.04954" lon="0.80225">
        <ele>545</ele>
        <time>2021-03-13T16:04:46Z</time>
      </trkpt>
      <trkpt lat="43.04953" lon="0.80228">
        <ele>545</ele>
        <time>2021-03-13T16:04:47Z</time>
      </trkpt>
      <trkpt lat="43.04953" lon="0.80231">
        <ele>545</ele>
        <time>2021-03-13T16:04:48Z</time>
      </trkpt>
      <trkpt lat="43.04952" lon="0.80235">
        <ele>545</ele>
        <time>2021-03-13T16:04:49Z</time>
      </trkpt>
      <trkpt lat="43.04952" lon="0.80238">
        <ele>546</ele>
        <time>2021-03-13T16:04:50Z</time>
      </trkpt>
      <trkpt lat="43.04951" lon="0.8024">
        <ele>546</ele>
        <time>2021-03-13T16:04:51Z</time>
      </trkpt>
      <trkpt lat="43.04951" lon="0.80243">
        <ele>546</ele>
        <time>2021-03-13T16:04:52Z</time>
      </trkpt>
      <trkpt lat="43.04951" lon="0.80245">
        <ele>546</ele>
        <time>2021-03-13T16:04:53Z</time>
      </trkpt>
      <trkpt lat="43.0495" lon="0.80247">
        <ele>546</ele>
        <time>2021-03-13T16:04:54Z</time>
      </trkpt>
      <trkpt lat="43.0495" lon="0.80249">
        <ele>546</ele>
        <time>2021-03-13T16:04:55Z</time>
      </trkpt>
      <trkpt lat="43.0495" lon="0.80251">
        <ele>546</ele>
        <time>2021-03-13T16:04:56Z</time>
      </trkpt>
      <trkpt lat="43.04949" lon="0.80264">
        <ele>546</ele>
        <time>2021-03-13T16:04:57Z</time>
      </trkpt>
      <trkpt lat="43.04948" lon="0.80268">
        <ele>546</ele>
        <time>2021-03-13T16:04:58Z</time>
      </trkpt>
      <trkpt lat="43.04947" lon="0.80272">
        <ele>546</ele>
        <time>2021-03-13T16:04:59Z</time>
      </trkpt>
      <trkpt lat="43.04947" lon="0.80275">
        <ele>545</ele>
        <time>2021-03-13T16:05:00Z</time>
      </trkpt>
      <trkpt lat="43.04946" lon="0.80277">
        <ele>545</ele>
        <time>2021-03-13T16:05:01Z</time>
      </trkpt>
      <trkpt lat="43.04945" lon="0.8028">
        <ele>545</ele>
        <time>2021-03-13T16:05:02Z</time>
      </trkpt>
      <trkpt lat="43.04942" lon="0.80289">
        <ele>545</ele>
        <time>2021-03-13T16:05:03Z</time>
      </trkpt>
      <trkpt lat="43.04941" lon="0.80291">
        <ele>545</ele>
        <time>2021-03-13T16:05:04Z</time>
      </trkpt>
      <trkpt lat="43.04939" lon="0.80293">
        <ele>545</ele>
        <time>2021-03-13T16:05:05Z</time>
      </trkpt>
      <trkpt lat="43.04934" lon="0.80302">
        <ele>545</ele>
        <time>2021-03-13T16:05:06Z</time>
      </trkpt>
      <trkpt lat="43.04934" lon="0.80304">
        <ele>545</ele>
        <time>2021-03-13T16:05:07Z</time>
      </trkpt>
      <trkpt lat="43.04934" lon="0.80307">
        <ele>545</ele>
        <time>2021-03-13T16:05:08Z</time>
      </trkpt>
      <trkpt lat="43.04934" lon="0.80317">
        <ele>545</ele>
        <time>2021-03-13T16:05:09Z</time>
      </trkpt>
      <trkpt lat="43.04935" lon="0.8032">
        <ele>543</ele>
        <time>2021-03-13T16:05:10Z</time>
      </trkpt>
      <trkpt lat="43.04935" lon="0.80323">
        <ele>543</ele>
        <time>2021-03-13T16:05:11Z</time>
      </trkpt>
      <trkpt lat="43.04936" lon="0.80336">
        <ele>543</ele>
        <time>2021-03-13T16:05:12Z</time>
      </trkpt>
      <trkpt lat="43.04936" lon="0.8034">
        <ele>543</ele>
        <time>2021-03-13T16:05:13Z</time>
      </trkpt>
      <trkpt lat="43.04936" lon="0.80345">
        <ele>543</ele>
        <time>2021-03-13T16:05:14Z</time>
      </trkpt>
      <trkpt lat="43.04935" lon="0.80349">
        <ele>543</ele>
        <time>2021-03-13T16:05:15Z</time>
      </trkpt>
      <trkpt lat="43.04935" lon="0.80353">
        <ele>543</ele>
        <time>2021-03-13T16:05:16Z</time>
      </trkpt>
      <trkpt lat="43.04934" lon="0.80357">
        <ele>543</ele>
        <time>2021-03-13T16:05:17Z</time>
      </trkpt>
      <trkpt lat="43.04934" lon="0.8036">
        <ele>543</ele>
        <time>2021-03-13T16:05:18Z</time>
      </trkpt>
      <trkpt lat="43.04933" lon="0.80362">
        <ele>543</ele>
        <time>2021-03-13T16:05:19Z</time>
      </trkpt>
      <trkpt lat="43.04933" lon="0.80364">
        <ele>541</ele>
        <time>2021-03-13T16:05:20Z</time>
      </trkpt>
      <trkpt lat="43.04931" lon="0.80376">
        <ele>541</ele>
        <time>2021-03-13T16:05:21Z</time>
      </trkpt>
      <trkpt lat="43.0493" lon="0.80382">
        <ele>541</ele>
        <time>2021-03-13T16:05:22Z</time>
      </trkpt>
      <trkpt lat="43.04928" lon="0.80387">
        <ele>541</ele>
        <time>2021-03-13T16:05:23Z</time>
      </trkpt>
      <trkpt lat="43.04927" lon="0.80392">
        <ele>541</ele>
        <time>2021-03-13T16:05:24Z</time>
      </trkpt>
      <trkpt lat="43.04926" lon="0.80398">
        <ele>538</ele>
        <time>2021-03-13T16:05:25Z</time>
      </trkpt>
      <trkpt lat="43.04924" lon="0.80405">
        <ele>538</ele>
        <time>2021-03-13T16:05:26Z</time>
      </trkpt>
      <trkpt lat="43.04923" lon="0.80408">
        <ele>538</ele>
        <time>2021-03-13T16:05:27Z</time>
      </trkpt>
      <trkpt lat="43.04922" lon="0.80411">
        <ele>538</ele>
        <time>2021-03-13T16:05:28Z</time>
      </trkpt>
      <trkpt lat="43.0492" lon="0.8042">
        <ele>538</ele>
        <time>2021-03-13T16:05:29Z</time>
      </trkpt>
      <trkpt lat="43.04919" lon="0.80422">
        <ele>537</ele>
        <time>2021-03-13T16:05:30Z</time>
      </trkpt>
      <trkpt lat="43.04918" lon="0.80425">
        <ele>537</ele>
        <time>2021-03-13T16:05:31Z</time>
      </trkpt>
      <trkpt lat="43.04916" lon="0.80434">
        <ele>537</ele>
        <time>2021-03-13T16:05:32Z</time>
      </trkpt>
      <trkpt lat="43.04915" lon="0.80436">
        <ele>537</ele>
        <time>2021-03-13T16:05:33Z</time>
      </trkpt>
      <trkpt lat="43.04914" lon="0.80437">
        <ele>537</ele>
        <time>2021-03-13T16:05:34Z</time>
      </trkpt>
      <trkpt lat="43.04913" lon="0.80439">
        <ele>536</ele>
        <time>2021-03-13T16:05:35Z</time>
      </trkpt>
      <trkpt lat="43.04908" lon="0.80451">
        <ele>537</ele>
        <time>2021-03-13T16:05:36Z</time>
      </trkpt>
      <trkpt lat="43.04906" lon="0.80456">
        <ele>537</ele>
        <time>2021-03-13T16:05:37Z</time>
      </trkpt>
      <trkpt lat="43.04904" lon="0.80461">
        <ele>537</ele>
        <time>2021-03-13T16:05:38Z</time>
      </trkpt>
      <trkpt lat="43.04902" lon="0.80466">
        <ele>537</ele>
        <time>2021-03-13T16:05:39Z</time>
      </trkpt>
      <trkpt lat="43.049" lon="0.8047">
        <ele>537</ele>
        <time>2021-03-13T16:05:40Z</time>
      </trkpt>
      <trkpt lat="43.04898" lon="0.80474">
        <ele>537</ele>
        <time>2021-03-13T16:05:41Z</time>
      </trkpt>
      <trkpt lat="43.04897" lon="0.80478">
        <ele>537</ele>
        <time>2021-03-13T16:05:42Z</time>
      </trkpt>
      <trkpt lat="43.04895" lon="0.80481">
        <ele>537</ele>
        <time>2021-03-13T16:05:43Z</time>
      </trkpt>
      <trkpt lat="43.04894" lon="0.80484">
        <ele>537</ele>
        <time>2021-03-13T16:05:44Z</time>
      </trkpt>
      <trkpt lat="43.04892" lon="0.80488">
        <ele>537</ele>
        <time>2021-03-13T16:05:45Z</time>
      </trkpt>
      <trkpt lat="43.04891" lon="0.80491">
        <ele>537</ele>
        <time>2021-03-13T16:05:46Z</time>
      </trkpt>
      <trkpt lat="43.04889" lon="0.80495">
        <ele>537</ele>
        <time>2021-03-13T16:05:47Z</time>
      </trkpt>
      <trkpt lat="43.04888" lon="0.80499">
        <ele>537</ele>
        <time>2021-03-13T16:05:48Z</time>
      </trkpt>
      <trkpt lat="43.04887" lon="0.80501">
        <ele>537</ele>
        <time>2021-03-13T16:05:49Z</time>
      </trkpt>
      <trkpt lat="43.04886" lon="0.80503">
        <ele>534</ele>
        <time>2021-03-13T16:05:50Z</time>
      </trkpt>
      <trkpt lat="43.04885" lon="0.80506">
        <ele>534</ele>
        <time>2021-03-13T16:05:51Z</time>
      </trkpt>
      <trkpt lat="43.0488" lon="0.80515">
        <ele>534</ele>
        <time>2021-03-13T16:05:52Z</time>
      </trkpt>
      <trkpt lat="43.04879" lon="0.80517">
        <ele>534</ele>
        <time>2021-03-13T16:05:53Z</time>
      </trkpt>
      <trkpt lat="43.04877" lon="0.8052">
        <ele>534</ele>
        <time>2021-03-13T16:05:54Z</time>
      </trkpt>
      <trkpt lat="43.0487" lon="0.8053">
        <ele>533</ele>
        <time>2021-03-13T16:05:55Z</time>
      </trkpt>
      <trkpt lat="43.04867" lon="0.80533">
        <ele>533</ele>
        <time>2021-03-13T16:05:56Z</time>
      </trkpt>
      <trkpt lat="43.04865" lon="0.80536">
        <ele>533</ele>
        <time>2021-03-13T16:05:57Z</time>
      </trkpt>
      <trkpt lat="43.04863" lon="0.80538">
        <ele>533</ele>
        <time>2021-03-13T16:05:58Z</time>
      </trkpt>
      <trkpt lat="43.04861" lon="0.8054">
        <ele>533</ele>
        <time>2021-03-13T16:05:59Z</time>
      </trkpt>
      <trkpt lat="43.04859" lon="0.80542">
        <ele>530</ele>
        <time>2021-03-13T16:06:00Z</time>
      </trkpt>
      <trkpt lat="43.04852" lon="0.8055">
        <ele>530</ele>
        <time>2021-03-13T16:06:01Z</time>
      </trkpt>
      <trkpt lat="43.0485" lon="0.80553">
        <ele>530</ele>
        <time>2021-03-13T16:06:02Z</time>
      </trkpt>
      <trkpt lat="43.04845" lon="0.80562">
        <ele>530</ele>
        <time>2021-03-13T16:06:03Z</time>
      </trkpt>
      <trkpt lat="43.04843" lon="0.80564">
        <ele>530</ele>
        <time>2021-03-13T16:06:04Z</time>
      </trkpt>
      <trkpt lat="43.04836" lon="0.80572">
        <ele>528</ele>
        <time>2021-03-13T16:06:05Z</time>
      </trkpt>
      <trkpt lat="43.04833" lon="0.80574">
        <ele>528</ele>
        <time>2021-03-13T16:06:06Z</time>
      </trkpt>
      <trkpt lat="43.04823" lon="0.8058">
        <ele>528</ele>
        <time>2021-03-13T16:06:07Z</time>
      </trkpt>
      <trkpt lat="43.04818" lon="0.80582">
        <ele>528</ele>
        <time>2021-03-13T16:06:08Z</time>
      </trkpt>
      <trkpt lat="43.04816" lon="0.80583">
        <ele>528</ele>
        <time>2021-03-13T16:06:09Z</time>
      </trkpt>
      <trkpt lat="43.04814" lon="0.80584">
        <ele>525</ele>
        <time>2021-03-13T16:06:10Z</time>
      </trkpt>
      <trkpt lat="43.04812" lon="0.80584">
        <ele>525</ele>
        <time>2021-03-13T16:06:11Z</time>
      </trkpt>
      <trkpt lat="43.04804" lon="0.80586">
        <ele>525</ele>
        <time>2021-03-13T16:06:12Z</time>
      </trkpt>
      <trkpt lat="43.04802" lon="0.80587">
        <ele>525</ele>
        <time>2021-03-13T16:06:13Z</time>
      </trkpt>
      <trkpt lat="43.04792" lon="0.80588">
        <ele>525</ele>
        <time>2021-03-13T16:06:14Z</time>
      </trkpt>
      <trkpt lat="43.04786" lon="0.80589">
        <ele>523</ele>
        <time>2021-03-13T16:06:15Z</time>
      </trkpt>
      <trkpt lat="43.04784" lon="0.80589">
        <ele>523</ele>
        <time>2021-03-13T16:06:16Z</time>
      </trkpt>
      <trkpt lat="43.04782" lon="0.80589">
        <ele>523</ele>
        <time>2021-03-13T16:06:17Z</time>
      </trkpt>
      <trkpt lat="43.04779" lon="0.80588">
        <ele>523</ele>
        <time>2021-03-13T16:06:18Z</time>
      </trkpt>
      <trkpt lat="43.0477" lon="0.80588">
        <ele>523</ele>
        <time>2021-03-13T16:06:19Z</time>
      </trkpt>
      <trkpt lat="43.04767" lon="0.80588">
        <ele>517</ele>
        <time>2021-03-13T16:06:20Z</time>
      </trkpt>
      <trkpt lat="43.04765" lon="0.80588">
        <ele>516</ele>
        <time>2021-03-13T16:06:21Z</time>
      </trkpt>
      <trkpt lat="43.04755" lon="0.80587">
        <ele>516</ele>
        <time>2021-03-13T16:06:22Z</time>
      </trkpt>
      <trkpt lat="43.04752" lon="0.80587">
        <ele>516</ele>
        <time>2021-03-13T16:06:23Z</time>
      </trkpt>
      <trkpt lat="43.04744" lon="0.80585">
        <ele>514</ele>
        <time>2021-03-13T16:06:24Z</time>
      </trkpt>
      <trkpt lat="43.04741" lon="0.80584">
        <ele>513</ele>
        <time>2021-03-13T16:06:25Z</time>
      </trkpt>
      <trkpt lat="43.04732" lon="0.80581">
        <ele>513</ele>
        <time>2021-03-13T16:06:26Z</time>
      </trkpt>
      <trkpt lat="43.04729" lon="0.80579">
        <ele>512</ele>
        <time>2021-03-13T16:06:27Z</time>
      </trkpt>
      <trkpt lat="43.04717" lon="0.80575">
        <ele>511</ele>
        <time>2021-03-13T16:06:28Z</time>
      </trkpt>
      <trkpt lat="43.04711" lon="0.80574">
        <ele>510</ele>
        <time>2021-03-13T16:06:29Z</time>
      </trkpt>
      <trkpt lat="43.04699" lon="0.8057">
        <ele>509</ele>
        <time>2021-03-13T16:06:30Z</time>
      </trkpt>
      <trkpt lat="43.04695" lon="0.8057">
        <ele>509</ele>
        <time>2021-03-13T16:06:31Z</time>
      </trkpt>
      <trkpt lat="43.0469" lon="0.80569">
        <ele>508</ele>
        <time>2021-03-13T16:06:32Z</time>
      </trkpt>
      <trkpt lat="43.04679" lon="0.80567">
        <ele>507</ele>
        <time>2021-03-13T16:06:33Z</time>
      </trkpt>
      <trkpt lat="43.04676" lon="0.80565">
        <ele>507</ele>
        <time>2021-03-13T16:06:34Z</time>
      </trkpt>
      <trkpt lat="43.04668" lon="0.80561">
        <ele>508</ele>
        <time>2021-03-13T16:06:35Z</time>
      </trkpt>
      <trkpt lat="43.04665" lon="0.80558">
        <ele>508</ele>
        <time>2021-03-13T16:06:36Z</time>
      </trkpt>
      <trkpt lat="43.04658" lon="0.80551">
        <ele>507</ele>
        <time>2021-03-13T16:06:37Z</time>
      </trkpt>
      <trkpt lat="43.04656" lon="0.80548">
        <ele>507</ele>
        <time>2021-03-13T16:06:38Z</time>
      </trkpt>
      <trkpt lat="43.04649" lon="0.80539">
        <ele>507</ele>
        <time>2021-03-13T16:06:39Z</time>
      </trkpt>
      <trkpt lat="43.04647" lon="0.80536">
        <ele>506</ele>
        <time>2021-03-13T16:06:40Z</time>
      </trkpt>
      <trkpt lat="43.0464" lon="0.80526">
        <ele>506</ele>
        <time>2021-03-13T16:06:41Z</time>
      </trkpt>
      <trkpt lat="43.04637" lon="0.80522">
        <ele>506</ele>
        <time>2021-03-13T16:06:42Z</time>
      </trkpt>
      <trkpt lat="43.0463" lon="0.80511">
        <ele>506</ele>
        <time>2021-03-13T16:06:43Z</time>
      </trkpt>
      <trkpt lat="43.04628" lon="0.80508">
        <ele>506</ele>
        <time>2021-03-13T16:06:44Z</time>
      </trkpt>
      <trkpt lat="43.04622" lon="0.80496">
        <ele>504</ele>
        <time>2021-03-13T16:06:45Z</time>
      </trkpt>
      <trkpt lat="43.0462" lon="0.80491">
        <ele>504</ele>
        <time>2021-03-13T16:06:46Z</time>
      </trkpt>
      <trkpt lat="43.04614" lon="0.80478">
        <ele>504</ele>
        <time>2021-03-13T16:06:47Z</time>
      </trkpt>
      <trkpt lat="43.04612" lon="0.80473">
        <ele>504</ele>
        <time>2021-03-13T16:06:48Z</time>
      </trkpt>
      <trkpt lat="43.04606" lon="0.80461">
        <ele>504</ele>
        <time>2021-03-13T16:06:49Z</time>
      </trkpt>
      <trkpt lat="43.04604" lon="0.80457">
        <ele>501</ele>
        <time>2021-03-13T16:06:50Z</time>
      </trkpt>
      <trkpt lat="43.04599" lon="0.80445">
        <ele>498</ele>
        <time>2021-03-13T16:06:51Z</time>
      </trkpt>
      <trkpt lat="43.04598" lon="0.80441">
        <ele>498</ele>
        <time>2021-03-13T16:06:52Z</time>
      </trkpt>
      <trkpt lat="43.04594" lon="0.8043">
        <ele>498</ele>
        <time>2021-03-13T16:06:53Z</time>
      </trkpt>
      <trkpt lat="43.04593" lon="0.80426">
        <ele>497</ele>
        <time>2021-03-13T16:06:54Z</time>
      </trkpt>
      <trkpt lat="43.04589" lon="0.80415">
        <ele>498</ele>
        <time>2021-03-13T16:06:55Z</time>
      </trkpt>
      <trkpt lat="43.04588" lon="0.80411">
        <ele>498</ele>
        <time>2021-03-13T16:06:56Z</time>
      </trkpt>
      <trkpt lat="43.04584" lon="0.804">
        <ele>498</ele>
        <time>2021-03-13T16:06:57Z</time>
      </trkpt>
      <trkpt lat="43.04583" lon="0.80398">
        <ele>497</ele>
        <time>2021-03-13T16:06:58Z</time>
      </trkpt>
      <trkpt lat="43.04581" lon="0.80395">
        <ele>495</ele>
        <time>2021-03-13T16:06:59Z</time>
      </trkpt>
      <trkpt lat="43.04579" lon="0.80393">
        <ele>493</ele>
        <time>2021-03-13T16:07:00Z</time>
      </trkpt>
      <trkpt lat="43.04579" lon="0.80395">
        <ele>493</ele>
        <time>2021-03-13T16:07:01Z</time>
      </trkpt>
      <trkpt lat="43.04579" lon="0.80397">
        <ele>493</ele>
        <time>2021-03-13T16:07:02Z</time>
      </trkpt>
      <trkpt lat="43.04579" lon="0.804">
        <ele>493</ele>
        <time>2021-03-13T16:07:03Z</time>
      </trkpt>
      <trkpt lat="43.04579" lon="0.80402">
        <ele>492</ele>
        <time>2021-03-13T16:07:04Z</time>
      </trkpt>
      <trkpt lat="43.04579" lon="0.80415">
        <ele>492</ele>
        <time>2021-03-13T16:07:05Z</time>
      </trkpt>
      <trkpt lat="43.04579" lon="0.80419">
        <ele>492</ele>
        <time>2021-03-13T16:07:06Z</time>
      </trkpt>
      <trkpt lat="43.04579" lon="0.8043">
        <ele>492</ele>
        <time>2021-03-13T16:07:07Z</time>
      </trkpt>
      <trkpt lat="43.04579" lon="0.80434">
        <ele>491</ele>
        <time>2021-03-13T16:07:08Z</time>
      </trkpt>
      <trkpt lat="43.04579" lon="0.80445">
        <ele>490</ele>
        <time>2021-03-13T16:07:09Z</time>
      </trkpt>
      <trkpt lat="43.04579" lon="0.80449">
        <ele>490</ele>
        <time>2021-03-13T16:07:10Z</time>
      </trkpt>
      <trkpt lat="43.04579" lon="0.8046">
        <ele>490</ele>
        <time>2021-03-13T16:07:11Z</time>
      </trkpt>
      <trkpt lat="43.04579" lon="0.80465">
        <ele>490</ele>
        <time>2021-03-13T16:07:12Z</time>
      </trkpt>
      <trkpt lat="43.04578" lon="0.80477">
        <ele>490</ele>
        <time>2021-03-13T16:07:13Z</time>
      </trkpt>
      <trkpt lat="43.04578" lon="0.80481">
        <ele>490</ele>
        <time>2021-03-13T16:07:14Z</time>
      </trkpt>
      <trkpt lat="43.04577" lon="0.80494">
        <ele>486</ele>
        <time>2021-03-13T16:07:15Z</time>
      </trkpt>
      <trkpt lat="43.04577" lon="0.80499">
        <ele>486</ele>
        <time>2021-03-13T16:07:16Z</time>
      </trkpt>
      <trkpt lat="43.04578" lon="0.80513">
        <ele>486</ele>
        <time>2021-03-13T16:07:17Z</time>
      </trkpt>
      <trkpt lat="43.04578" lon="0.80518">
        <ele>486</ele>
        <time>2021-03-13T16:07:18Z</time>
      </trkpt>
      <trkpt lat="43.04578" lon="0.80533">
        <ele>486</ele>
        <time>2021-03-13T16:07:19Z</time>
      </trkpt>
      <trkpt lat="43.04578" lon="0.80539">
        <ele>483</ele>
        <time>2021-03-13T16:07:20Z</time>
      </trkpt>
      <trkpt lat="43.04579" lon="0.80553">
        <ele>481</ele>
        <time>2021-03-13T16:07:21Z</time>
      </trkpt>
      <trkpt lat="43.04579" lon="0.80558">
        <ele>479</ele>
        <time>2021-03-13T16:07:22Z</time>
      </trkpt>
      <trkpt lat="43.04581" lon="0.80572">
        <ele>479</ele>
        <time>2021-03-13T16:07:23Z</time>
      </trkpt>
      <trkpt lat="43.04581" lon="0.80576">
        <ele>479</ele>
        <time>2021-03-13T16:07:24Z</time>
      </trkpt>
      <trkpt lat="43.04582" lon="0.80586">
        <ele>479</ele>
        <time>2021-03-13T16:07:25Z</time>
      </trkpt>
      <trkpt lat="43.04583" lon="0.80588">
        <ele>478</ele>
        <time>2021-03-13T16:07:26Z</time>
      </trkpt>
      <trkpt lat="43.04584" lon="0.80591">
        <ele>477</ele>
        <time>2021-03-13T16:07:27Z</time>
      </trkpt>
      <trkpt lat="43.04587" lon="0.80597">
        <ele>478</ele>
        <time>2021-03-13T16:07:28Z</time>
      </trkpt>
      <trkpt lat="43.04587" lon="0.80598">
        <ele>478</ele>
        <time>2021-03-13T16:07:29Z</time>
      </trkpt>
      <trkpt lat="43.04587" lon="0.80598">
        <ele>478</ele>
        <time>2021-03-13T16:07:30Z</time>
      </trkpt>
      <trkpt lat="43.04587" lon="0.80598">
        <ele>478</ele>
        <time>2021-03-13T16:07:31Z</time>
      </trkpt>
      <trkpt lat="43.04587" lon="0.80598">
        <ele>478</ele>
        <time>2021-03-13T16:07:32Z</time>
      </trkpt>
      <trkpt lat="43.04588" lon="0.80598">
        <ele>478</ele>
        <time>2021-03-13T16:07:33Z</time>
      </trkpt>
      <trkpt lat="43.04588" lon="0.80598">
        <ele>478</ele>
        <time>2021-03-13T16:07:34Z</time>
      </trkpt>
      <trkpt lat="43.04588" lon="0.80598">
        <ele>478</ele>
        <time>2021-03-13T16:07:35Z</time>
      </trkpt>
      <trkpt lat="43.04588" lon="0.80598">
        <ele>478</ele>
        <time>2021-03-13T16:07:36Z</time>
      </trkpt>
      <trkpt lat="43.04588" lon="0.80599">
        <ele>478</ele>
        <time>2021-03-13T16:07:37Z</time>
      </trkpt>
      <trkpt lat="43.04588" lon="0.80599">
        <ele>478</ele>
        <time>2021-03-13T16:07:38Z</time>
      </trkpt>
      <trkpt lat="43.04589" lon="0.80599">
        <ele>478</ele>
        <time>2021-03-13T16:07:39Z</time>
      </trkpt>
      <trkpt lat="43.04589" lon="0.80599">
        <ele>478</ele>
        <time>2021-03-13T16:07:40Z</time>
      </trkpt>
      <trkpt lat="43.04589" lon="0.80599">
        <ele>478</ele>
        <time>2021-03-13T16:07:41Z</time>
      </trkpt>
      <trkpt lat="43.04589" lon="0.80599">
        <ele>478</ele>
        <time>2021-03-13T16:07:42Z</time>
      </trkpt>
      <trkpt lat="43.04589" lon="0.80599">
        <ele>478</ele>
        <time>2021-03-13T16:07:43Z</time>
      </trkpt>
      <trkpt lat="43.04589" lon="0.806">
        <ele>478</ele>
        <time>2021-03-13T16:07:44Z</time>
      </trkpt>
      <trkpt lat="43.0459" lon="0.806">
        <ele>478</ele>
        <time>2021-03-13T16:07:45Z</time>
      </trkpt>
      <trkpt lat="43.0459" lon="0.806">
        <ele>478</ele>
        <time>2021-03-13T16:07:46Z</time>
      </trkpt>
      <trkpt lat="43.0459" lon="0.806">
        <ele>478</ele>
        <time>2021-03-13T16:07:47Z</time>
      </trkpt>
      <trkpt lat="43.0459" lon="0.806">
        <ele>478</ele>
        <time>2021-03-13T16:07:48Z</time>
      </trkpt>
      <trkpt lat="43.0459" lon="0.806">
        <ele>478</ele>
        <time>2021-03-13T16:07:49Z</time>
      </trkpt>
      <trkpt lat="43.0459" lon="0.806">
        <ele>478</ele>
        <time>2021-03-13T16:07:50Z</time>
      </trkpt>
      <trkpt lat="43.04591" lon="0.80601">
        <ele>478</ele>
        <time>2021-03-13T16:07:51Z</time>
      </trkpt>
      <trkpt lat="43.04591" lon="0.80601">
        <ele>478</ele>
        <time>2021-03-13T16:07:52Z</time>
      </trkpt>
      <trkpt lat="43.04591" lon="0.80601">
        <ele>478</ele>
        <time>2021-03-13T16:07:53Z</time>
      </trkpt>
      <trkpt lat="43.04591" lon="0.80601">
        <ele>478</ele>
        <time>2021-03-13T16:07:54Z</time>
      </trkpt>
      <trkpt lat="43.04591" lon="0.80601">
        <ele>478</ele>
        <time>2021-03-13T16:07:55Z</time>
      </trkpt>
      <trkpt lat="43.04591" lon="0.80601">
        <ele>478</ele>
        <time>2021-03-13T16:07:56Z</time>
      </trkpt>
      <trkpt lat="43.04597" lon="0.80606">
        <ele>478</ele>
        <time>2021-03-13T16:07:57Z</time>
      </trkpt>
      <trkpt lat="43.04599" lon="0.80607">
        <ele>478</ele>
        <time>2021-03-13T16:07:58Z</time>
      </trkpt>
      <trkpt lat="43.046" lon="0.80608">
        <ele>478</ele>
        <time>2021-03-13T16:07:59Z</time>
      </trkpt>
      <trkpt lat="43.04601" lon="0.80609">
        <ele>479</ele>
        <time>2021-03-13T16:08:00Z</time>
      </trkpt>
      <trkpt lat="43.04607" lon="0.80614">
        <ele>479</ele>
        <time>2021-03-13T16:08:01Z</time>
      </trkpt>
      <trkpt lat="43.04608" lon="0.80615">
        <ele>479</ele>
        <time>2021-03-13T16:08:02Z</time>
      </trkpt>
      <trkpt lat="43.04609" lon="0.80616">
        <ele>479</ele>
        <time>2021-03-13T16:08:03Z</time>
      </trkpt>
      <trkpt lat="43.04611" lon="0.80617">
        <ele>479</ele>
        <time>2021-03-13T16:08:04Z</time>
      </trkpt>
      <trkpt lat="43.04619" lon="0.80624">
        <ele>479</ele>
        <time>2021-03-13T16:08:05Z</time>
      </trkpt>
      <trkpt lat="43.04622" lon="0.80626">
        <ele>479</ele>
        <time>2021-03-13T16:08:06Z</time>
      </trkpt>
      <trkpt lat="43.04625" lon="0.80628">
        <ele>479</ele>
        <time>2021-03-13T16:08:07Z</time>
      </trkpt>
      <trkpt lat="43.04626" lon="0.80629">
        <ele>479</ele>
        <time>2021-03-13T16:08:08Z</time>
      </trkpt>
      <trkpt lat="43.04628" lon="0.80629">
        <ele>479</ele>
        <time>2021-03-13T16:08:09Z</time>
      </trkpt>
      <trkpt lat="43.04629" lon="0.8063">
        <ele>481</ele>
        <time>2021-03-13T16:08:10Z</time>
      </trkpt>
      <trkpt lat="43.0463" lon="0.80631">
        <ele>481</ele>
        <time>2021-03-13T16:08:11Z</time>
      </trkpt>
      <trkpt lat="43.04638" lon="0.80634">
        <ele>481</ele>
        <time>2021-03-13T16:08:12Z</time>
      </trkpt>
      <trkpt lat="43.04641" lon="0.80635">
        <ele>481</ele>
        <time>2021-03-13T16:08:13Z</time>
      </trkpt>
      <trkpt lat="43.04643" lon="0.80636">
        <ele>481</ele>
        <time>2021-03-13T16:08:14Z</time>
      </trkpt>
      <trkpt lat="43.04646" lon="0.80636">
        <ele>481</ele>
        <time>2021-03-13T16:08:15Z</time>
      </trkpt>
      <trkpt lat="43.04647" lon="0.80636">
        <ele>481</ele>
        <time>2021-03-13T16:08:16Z</time>
      </trkpt>
      <trkpt lat="43.04649" lon="0.80636">
        <ele>481</ele>
        <time>2021-03-13T16:08:17Z</time>
      </trkpt>
      <trkpt lat="43.0465" lon="0.80636">
        <ele>481</ele>
        <time>2021-03-13T16:08:18Z</time>
      </trkpt>
      <trkpt lat="43.04652" lon="0.80636">
        <ele>481</ele>
        <time>2021-03-13T16:08:19Z</time>
      </trkpt>
      <trkpt lat="43.0466" lon="0.80634">
        <ele>481</ele>
        <time>2021-03-13T16:08:20Z</time>
      </trkpt>
      <trkpt lat="43.04662" lon="0.80633">
        <ele>481</ele>
        <time>2021-03-13T16:08:21Z</time>
      </trkpt>
      <trkpt lat="43.04663" lon="0.80632">
        <ele>481</ele>
        <time>2021-03-13T16:08:22Z</time>
      </trkpt>
      <trkpt lat="43.04671" lon="0.80629">
        <ele>481</ele>
        <time>2021-03-13T16:08:23Z</time>
      </trkpt>
      <trkpt lat="43.04673" lon="0.80628">
        <ele>481</ele>
        <time>2021-03-13T16:08:24Z</time>
      </trkpt>
      <trkpt lat="43.04675" lon="0.80628">
        <ele>481</ele>
        <time>2021-03-13T16:08:25Z</time>
      </trkpt>
      <trkpt lat="43.04683" lon="0.80627">
        <ele>481</ele>
        <time>2021-03-13T16:08:26Z</time>
      </trkpt>
      <trkpt lat="43.04684" lon="0.80628">
        <ele>481</ele>
        <time>2021-03-13T16:08:27Z</time>
      </trkpt>
      <trkpt lat="43.04686" lon="0.80629">
        <ele>481</ele>
        <time>2021-03-13T16:08:28Z</time>
      </trkpt>
      <trkpt lat="43.04693" lon="0.80632">
        <ele>481</ele>
        <time>2021-03-13T16:08:29Z</time>
      </trkpt>
      <trkpt lat="43.04694" lon="0.80633">
        <ele>482</ele>
        <time>2021-03-13T16:08:30Z</time>
      </trkpt>
      <trkpt lat="43.04696" lon="0.80633">
        <ele>482</ele>
        <time>2021-03-13T16:08:31Z</time>
      </trkpt>
      <trkpt lat="43.04697" lon="0.80634">
        <ele>482</ele>
        <time>2021-03-13T16:08:32Z</time>
      </trkpt>
      <trkpt lat="43.04704" lon="0.80638">
        <ele>482</ele>
        <time>2021-03-13T16:08:33Z</time>
      </trkpt>
      <trkpt lat="43.04705" lon="0.80639">
        <ele>482</ele>
        <time>2021-03-13T16:08:34Z</time>
      </trkpt>
      <trkpt lat="43.04706" lon="0.80639">
        <ele>482</ele>
        <time>2021-03-13T16:08:35Z</time>
      </trkpt>
      <trkpt lat="43.04708" lon="0.8064">
        <ele>482</ele>
        <time>2021-03-13T16:08:36Z</time>
      </trkpt>
      <trkpt lat="43.04715" lon="0.80643">
        <ele>482</ele>
        <time>2021-03-13T16:08:37Z</time>
      </trkpt>
      <trkpt lat="43.04716" lon="0.80643">
        <ele>482</ele>
        <time>2021-03-13T16:08:38Z</time>
      </trkpt>
      <trkpt lat="43.04718" lon="0.80644">
        <ele>482</ele>
        <time>2021-03-13T16:08:39Z</time>
      </trkpt>
      <trkpt lat="43.04725" lon="0.80647">
        <ele>484</ele>
        <time>2021-03-13T16:08:40Z</time>
      </trkpt>
      <trkpt lat="43.04727" lon="0.80648">
        <ele>484</ele>
        <time>2021-03-13T16:08:41Z</time>
      </trkpt>
      <trkpt lat="43.04728" lon="0.80648">
        <ele>484</ele>
        <time>2021-03-13T16:08:42Z</time>
      </trkpt>
      <trkpt lat="43.0473" lon="0.80649">
        <ele>484</ele>
        <time>2021-03-13T16:08:43Z</time>
      </trkpt>
      <trkpt lat="43.04738" lon="0.80652">
        <ele>484</ele>
        <time>2021-03-13T16:08:44Z</time>
      </trkpt>
      <trkpt lat="43.04739" lon="0.80652">
        <ele>484</ele>
        <time>2021-03-13T16:08:45Z</time>
      </trkpt>
      <trkpt lat="43.04741" lon="0.80653">
        <ele>484</ele>
        <time>2021-03-13T16:08:46Z</time>
      </trkpt>
      <trkpt lat="43.04742" lon="0.80653">
        <ele>484</ele>
        <time>2021-03-13T16:08:47Z</time>
      </trkpt>
      <trkpt lat="43.04749" lon="0.80656">
        <ele>484</ele>
        <time>2021-03-13T16:08:48Z</time>
      </trkpt>
      <trkpt lat="43.04751" lon="0.80657">
        <ele>484</ele>
        <time>2021-03-13T16:08:49Z</time>
      </trkpt>
      <trkpt lat="43.04753" lon="0.80658">
        <ele>484</ele>
        <time>2021-03-13T16:08:50Z</time>
      </trkpt>
      <trkpt lat="43.04755" lon="0.80658">
        <ele>484</ele>
        <time>2021-03-13T16:08:51Z</time>
      </trkpt>
      <trkpt lat="43.04763" lon="0.80661">
        <ele>484</ele>
        <time>2021-03-13T16:08:52Z</time>
      </trkpt>
      <trkpt lat="43.04766" lon="0.80662">
        <ele>484</ele>
        <time>2021-03-13T16:08:53Z</time>
      </trkpt>
      <trkpt lat="43.04768" lon="0.80662">
        <ele>484</ele>
        <time>2021-03-13T16:08:54Z</time>
      </trkpt>
      <trkpt lat="43.04777" lon="0.80663">
        <ele>484</ele>
        <time>2021-03-13T16:08:55Z</time>
      </trkpt>
      <trkpt lat="43.04781" lon="0.80663">
        <ele>484</ele>
        <time>2021-03-13T16:08:56Z</time>
      </trkpt>
      <trkpt lat="43.04784" lon="0.80663">
        <ele>484</ele>
        <time>2021-03-13T16:08:57Z</time>
      </trkpt>
      <trkpt lat="43.04787" lon="0.80662">
        <ele>484</ele>
        <time>2021-03-13T16:08:58Z</time>
      </trkpt>
      <trkpt lat="43.04791" lon="0.80662">
        <ele>484</ele>
        <time>2021-03-13T16:08:59Z</time>
      </trkpt>
      <trkpt lat="43.04794" lon="0.80662">
        <ele>481</ele>
        <time>2021-03-13T16:09:00Z</time>
      </trkpt>
      <trkpt lat="43.04796" lon="0.80662">
        <ele>481</ele>
        <time>2021-03-13T16:09:01Z</time>
      </trkpt>
      <trkpt lat="43.04798" lon="0.80662">
        <ele>481</ele>
        <time>2021-03-13T16:09:02Z</time>
      </trkpt>
      <trkpt lat="43.048" lon="0.80662">
        <ele>481</ele>
        <time>2021-03-13T16:09:03Z</time>
      </trkpt>
      <trkpt lat="43.04808" lon="0.80661">
        <ele>481</ele>
        <time>2021-03-13T16:09:04Z</time>
      </trkpt>
      <trkpt lat="43.0481" lon="0.80661">
        <ele>481</ele>
        <time>2021-03-13T16:09:05Z</time>
      </trkpt>
      <trkpt lat="43.04812" lon="0.80661">
        <ele>481</ele>
        <time>2021-03-13T16:09:06Z</time>
      </trkpt>
      <trkpt lat="43.04822" lon="0.80661">
        <ele>481</ele>
        <time>2021-03-13T16:09:07Z</time>
      </trkpt>
      <trkpt lat="43.04824" lon="0.8066">
        <ele>481</ele>
        <time>2021-03-13T16:09:08Z</time>
      </trkpt>
      <trkpt lat="43.04826" lon="0.8066">
        <ele>481</ele>
        <time>2021-03-13T16:09:09Z</time>
      </trkpt>
      <trkpt lat="43.04836" lon="0.80659">
        <ele>480</ele>
        <time>2021-03-13T16:09:10Z</time>
      </trkpt>
      <trkpt lat="43.04838" lon="0.8066">
        <ele>480</ele>
        <time>2021-03-13T16:09:11Z</time>
      </trkpt>
      <trkpt lat="43.04847" lon="0.8066">
        <ele>480</ele>
        <time>2021-03-13T16:09:12Z</time>
      </trkpt>
      <trkpt lat="43.0485" lon="0.80659">
        <ele>480</ele>
        <time>2021-03-13T16:09:13Z</time>
      </trkpt>
      <trkpt lat="43.04859" lon="0.80657">
        <ele>480</ele>
        <time>2021-03-13T16:09:14Z</time>
      </trkpt>
      <trkpt lat="43.04862" lon="0.80657">
        <ele>480</ele>
        <time>2021-03-13T16:09:15Z</time>
      </trkpt>
      <trkpt lat="43.0487" lon="0.80655">
        <ele>480</ele>
        <time>2021-03-13T16:09:16Z</time>
      </trkpt>
      <trkpt lat="43.04872" lon="0.80654">
        <ele>480</ele>
        <time>2021-03-13T16:09:17Z</time>
      </trkpt>
      <trkpt lat="43.04874" lon="0.80654">
        <ele>480</ele>
        <time>2021-03-13T16:09:18Z</time>
      </trkpt>
      <trkpt lat="43.04882" lon="0.80652">
        <ele>480</ele>
        <time>2021-03-13T16:09:19Z</time>
      </trkpt>
      <trkpt lat="43.04884" lon="0.80652">
        <ele>480</ele>
        <time>2021-03-13T16:09:20Z</time>
      </trkpt>
      <trkpt lat="43.04886" lon="0.80652">
        <ele>480</ele>
        <time>2021-03-13T16:09:21Z</time>
      </trkpt>
      <trkpt lat="43.04892" lon="0.80651">
        <ele>480</ele>
        <time>2021-03-13T16:09:22Z</time>
      </trkpt>
      <trkpt lat="43.04894" lon="0.8065">
        <ele>480</ele>
        <time>2021-03-13T16:09:23Z</time>
      </trkpt>
      <trkpt lat="43.04896" lon="0.8065">
        <ele>480</ele>
        <time>2021-03-13T16:09:24Z</time>
      </trkpt>
      <trkpt lat="43.04898" lon="0.80649">
        <ele>480</ele>
        <time>2021-03-13T16:09:25Z</time>
      </trkpt>
      <trkpt lat="43.04909" lon="0.80646">
        <ele>480</ele>
        <time>2021-03-13T16:09:26Z</time>
      </trkpt>
      <trkpt lat="43.04914" lon="0.80643">
        <ele>480</ele>
        <time>2021-03-13T16:09:27Z</time>
      </trkpt>
      <trkpt lat="43.04916" lon="0.80642">
        <ele>480</ele>
        <time>2021-03-13T16:09:28Z</time>
      </trkpt>
      <trkpt lat="43.04919" lon="0.80641">
        <ele>480</ele>
        <time>2021-03-13T16:09:29Z</time>
      </trkpt>
      <trkpt lat="43.04926" lon="0.80637">
        <ele>476</ele>
        <time>2021-03-13T16:09:30Z</time>
      </trkpt>
      <trkpt lat="43.04927" lon="0.80636">
        <ele>476</ele>
        <time>2021-03-13T16:09:31Z</time>
      </trkpt>
      <trkpt lat="43.04929" lon="0.80635">
        <ele>476</ele>
        <time>2021-03-13T16:09:32Z</time>
      </trkpt>
      <trkpt lat="43.04936" lon="0.80631">
        <ele>476</ele>
        <time>2021-03-13T16:09:33Z</time>
      </trkpt>
      <trkpt lat="43.04939" lon="0.8063">
        <ele>476</ele>
        <time>2021-03-13T16:09:34Z</time>
      </trkpt>
      <trkpt lat="43.04941" lon="0.80629">
        <ele>473</ele>
        <time>2021-03-13T16:09:35Z</time>
      </trkpt>
      <trkpt lat="43.04952" lon="0.80625">
        <ele>473</ele>
        <time>2021-03-13T16:09:36Z</time>
      </trkpt>
      <trkpt lat="43.04957" lon="0.80624">
        <ele>473</ele>
        <time>2021-03-13T16:09:37Z</time>
      </trkpt>
      <trkpt lat="43.04959" lon="0.80624">
        <ele>473</ele>
        <time>2021-03-13T16:09:38Z</time>
      </trkpt>
      <trkpt lat="43.04962" lon="0.80624">
        <ele>473</ele>
        <time>2021-03-13T16:09:39Z</time>
      </trkpt>
      <trkpt lat="43.04964" lon="0.80624">
        <ele>470</ele>
        <time>2021-03-13T16:09:40Z</time>
      </trkpt>
      <trkpt lat="43.0497" lon="0.80625">
        <ele>469</ele>
        <time>2021-03-13T16:09:41Z</time>
      </trkpt>
      <trkpt lat="43.0497" lon="0.80626">
        <ele>467</ele>
        <time>2021-03-13T16:09:42Z</time>
      </trkpt>
      <trkpt lat="43.0497" lon="0.80628">
        <ele>467</ele>
        <time>2021-03-13T16:09:43Z</time>
      </trkpt>
      <trkpt lat="43.0497" lon="0.80629">
        <ele>467</ele>
        <time>2021-03-13T16:09:44Z</time>
      </trkpt>
      <trkpt lat="43.0497" lon="0.80631">
        <ele>466</ele>
        <time>2021-03-13T16:09:45Z</time>
      </trkpt>
      <trkpt lat="43.04968" lon="0.8064">
        <ele>466</ele>
        <time>2021-03-13T16:09:46Z</time>
      </trkpt>
      <trkpt lat="43.04967" lon="0.80642">
        <ele>465</ele>
        <time>2021-03-13T16:09:47Z</time>
      </trkpt>
      <trkpt lat="43.04967" lon="0.80645">
        <ele>465</ele>
        <time>2021-03-13T16:09:48Z</time>
      </trkpt>
      <trkpt lat="43.04963" lon="0.80654">
        <ele>465</ele>
        <time>2021-03-13T16:09:49Z</time>
      </trkpt>
      <trkpt lat="43.04961" lon="0.80657">
        <ele>463</ele>
        <time>2021-03-13T16:09:50Z</time>
      </trkpt>
      <trkpt lat="43.0496" lon="0.80659">
        <ele>463</ele>
        <time>2021-03-13T16:09:51Z</time>
      </trkpt>
      <trkpt lat="43.04958" lon="0.80662">
        <ele>462</ele>
        <time>2021-03-13T16:09:52Z</time>
      </trkpt>
      <trkpt lat="43.04957" lon="0.80665">
        <ele>461</ele>
        <time>2021-03-13T16:09:53Z</time>
      </trkpt>
      <trkpt lat="43.04957" lon="0.80667">
        <ele>461</ele>
        <time>2021-03-13T16:09:54Z</time>
      </trkpt>
      <trkpt lat="43.04956" lon="0.80669">
        <ele>460</ele>
        <time>2021-03-13T16:09:55Z</time>
      </trkpt>
      <trkpt lat="43.04952" lon="0.80677">
        <ele>459</ele>
        <time>2021-03-13T16:09:56Z</time>
      </trkpt>
      <trkpt lat="43.04952" lon="0.80679">
        <ele>458</ele>
        <time>2021-03-13T16:09:57Z</time>
      </trkpt>
      <trkpt lat="43.04951" lon="0.8068">
        <ele>456</ele>
        <time>2021-03-13T16:09:58Z</time>
      </trkpt>
      <trkpt lat="43.0495" lon="0.80682">
        <ele>455</ele>
        <time>2021-03-13T16:09:59Z</time>
      </trkpt>
      <trkpt lat="43.04947" lon="0.8069">
        <ele>455</ele>
        <time>2021-03-13T16:10:00Z</time>
      </trkpt>
      <trkpt lat="43.04945" lon="0.80692">
        <ele>454</ele>
        <time>2021-03-13T16:10:01Z</time>
      </trkpt>
      <trkpt lat="43.04944" lon="0.80693">
        <ele>453</ele>
        <time>2021-03-13T16:10:02Z</time>
      </trkpt>
      <trkpt lat="43.04943" lon="0.80695">
        <ele>452</ele>
        <time>2021-03-13T16:10:03Z</time>
      </trkpt>
      <trkpt lat="43.04936" lon="0.80703">
        <ele>452</ele>
        <time>2021-03-13T16:10:04Z</time>
      </trkpt>
      <trkpt lat="43.04934" lon="0.80705">
        <ele>451</ele>
        <time>2021-03-13T16:10:05Z</time>
      </trkpt>
      <trkpt lat="43.04932" lon="0.80707">
        <ele>451</ele>
        <time>2021-03-13T16:10:06Z</time>
      </trkpt>
      <trkpt lat="43.04932" lon="0.80708">
        <ele>450</ele>
        <time>2021-03-13T16:10:07Z</time>
      </trkpt>
      <trkpt lat="43.04931" lon="0.80708">
        <ele>450</ele>
        <time>2021-03-13T16:10:08Z</time>
      </trkpt>
      <trkpt lat="43.04931" lon="0.80708">
        <ele>450</ele>
        <time>2021-03-13T16:10:09Z</time>
      </trkpt>
      <trkpt lat="43.04931" lon="0.80709">
        <ele>450</ele>
        <time>2021-03-13T16:10:10Z</time>
      </trkpt>
      <trkpt lat="43.0493" lon="0.80709">
        <ele>450</ele>
        <time>2021-03-13T16:10:11Z</time>
      </trkpt>
      <trkpt lat="43.0493" lon="0.8071">
        <ele>450</ele>
        <time>2021-03-13T16:10:12Z</time>
      </trkpt>
      <trkpt lat="43.0493" lon="0.8071">
        <ele>450</ele>
        <time>2021-03-13T16:10:13Z</time>
      </trkpt>
      <trkpt lat="43.04929" lon="0.8071">
        <ele>450</ele>
        <time>2021-03-13T16:10:14Z</time>
      </trkpt>
      <trkpt lat="43.04929" lon="0.80711">
        <ele>450</ele>
        <time>2021-03-13T16:10:15Z</time>
      </trkpt>
      <trkpt lat="43.04929" lon="0.80711">
        <ele>450</ele>
        <time>2021-03-13T16:10:16Z</time>
      </trkpt>
      <trkpt lat="43.04928" lon="0.80712">
        <ele>450</ele>
        <time>2021-03-13T16:10:17Z</time>
      </trkpt>
      <trkpt lat="43.04929" lon="0.80711">
        <ele>450</ele>
        <time>2021-03-13T16:10:18Z</time>
      </trkpt>
      <trkpt lat="43.04929" lon="0.80711">
        <ele>450</ele>
        <time>2021-03-13T16:10:19Z</time>
      </trkpt>
      <trkpt lat="43.04929" lon="0.80711">
        <ele>450</ele>
        <time>2021-03-13T16:10:20Z</time>
      </trkpt>
      <trkpt lat="43.04929" lon="0.80711">
        <ele>450</ele>
        <time>2021-03-13T16:10:21Z</time>
      </trkpt>
      <trkpt lat="43.0493" lon="0.80711">
        <ele>450</ele>
        <time>2021-03-13T16:10:22Z</time>
      </trkpt>
      <trkpt lat="43.0493" lon="0.80711">
        <ele>450</ele>
        <time>2021-03-13T16:10:23Z</time>
      </trkpt>
      <trkpt lat="43.0493" lon="0.80711">
        <ele>450</ele>
        <time>2021-03-13T16:10:24Z</time>
      </trkpt>
      <trkpt lat="43.0493" lon="0.80711">
        <ele>450</ele>
        <time>2021-03-13T16:10:25Z</time>
      </trkpt>
      <trkpt lat="43.04931" lon="0.80711">
        <ele>450</ele>
        <time>2021-03-13T16:10:26Z</time>
      </trkpt>
      <trkpt lat="43.04931" lon="0.80711">
        <ele>450</ele>
        <time>2021-03-13T16:10:27Z</time>
      </trkpt>
      <trkpt lat="43.04931" lon="0.80711">
        <ele>450</ele>
        <time>2021-03-13T16:10:28Z</time>
      </trkpt>
      <trkpt lat="43.04931" lon="0.80711">
        <ele>450</ele>
        <time>2021-03-13T16:10:29Z</time>
      </trkpt>
      <trkpt lat="43.04931" lon="0.80711">
        <ele>450</ele>
        <time>2021-03-13T16:10:30Z</time>
      </trkpt>
      <trkpt lat="43.04932" lon="0.80711">
        <ele>450</ele>
        <time>2021-03-13T16:10:31Z</time>
      </trkpt>
      <trkpt lat="43.04932" lon="0.80711">
        <ele>450</ele>
        <time>2021-03-13T16:10:32Z</time>
      </trkpt>
      <trkpt lat="43.04932" lon="0.80711">
        <ele>450</ele>
        <time>2021-03-13T16:10:33Z</time>
      </trkpt>
      <trkpt lat="43.04932" lon="0.80711">
        <ele>450</ele>
        <time>2021-03-13T16:10:34Z</time>
      </trkpt>
      <trkpt lat="43.04933" lon="0.8071">
        <ele>450</ele>
        <time>2021-03-13T16:10:35Z</time>
      </trkpt>
      <trkpt lat="43.04933" lon="0.8071">
        <ele>450</ele>
        <time>2021-03-13T16:10:36Z</time>
      </trkpt>
      <trkpt lat="43.04933" lon="0.8071">
        <ele>450</ele>
        <time>2021-03-13T16:10:37Z</time>
      </trkpt>
      <trkpt lat="43.04933" lon="0.8071">
        <ele>450</ele>
        <time>2021-03-13T16:10:38Z</time>
      </trkpt>
      <trkpt lat="43.04934" lon="0.8071">
        <ele>450</ele>
        <time>2021-03-13T16:10:39Z</time>
      </trkpt>
      <trkpt lat="43.04934" lon="0.8071">
        <ele>450</ele>
        <time>2021-03-13T16:10:40Z</time>
      </trkpt>
      <trkpt lat="43.04934" lon="0.8071">
        <ele>450</ele>
        <time>2021-03-13T16:10:41Z</time>
      </trkpt>
      <trkpt lat="43.04934" lon="0.8071">
        <ele>450</ele>
        <time>2021-03-13T16:10:42Z</time>
      </trkpt>
      <trkpt lat="43.04934" lon="0.8071">
        <ele>450</ele>
        <time>2021-03-13T16:10:43Z</time>
      </trkpt>
      <trkpt lat="43.04936" lon="0.80709">
        <ele>450</ele>
        <time>2021-03-13T16:10:44Z</time>
      </trkpt>
      <trkpt lat="43.04938" lon="0.80709">
        <ele>450</ele>
        <time>2021-03-13T16:10:45Z</time>
      </trkpt>
      <trkpt lat="43.0494" lon="0.80709">
        <ele>450</ele>
        <time>2021-03-13T16:10:46Z</time>
      </trkpt>
      <trkpt lat="43.04942" lon="0.80709">
        <ele>450</ele>
        <time>2021-03-13T16:10:47Z</time>
      </trkpt>
      <trkpt lat="43.04944" lon="0.8071">
        <ele>450</ele>
        <time>2021-03-13T16:10:48Z</time>
      </trkpt>
      <trkpt lat="43.04945" lon="0.80711">
        <ele>450</ele>
        <time>2021-03-13T16:10:49Z</time>
      </trkpt>
      <trkpt lat="43.04947" lon="0.80712">
        <ele>452</ele>
        <time>2021-03-13T16:10:50Z</time>
      </trkpt>
      <trkpt lat="43.04948" lon="0.80713">
        <ele>452</ele>
        <time>2021-03-13T16:10:51Z</time>
      </trkpt>
      <trkpt lat="43.0495" lon="0.80713">
        <ele>452</ele>
        <time>2021-03-13T16:10:52Z</time>
      </trkpt>
      <trkpt lat="43.04951" lon="0.80714">
        <ele>452</ele>
        <time>2021-03-13T16:10:53Z</time>
      </trkpt>
      <trkpt lat="43.04953" lon="0.80715">
        <ele>452</ele>
        <time>2021-03-13T16:10:54Z</time>
      </trkpt>
      <trkpt lat="43.04954" lon="0.80715">
        <ele>452</ele>
        <time>2021-03-13T16:10:55Z</time>
      </trkpt>
      <trkpt lat="43.04956" lon="0.80714">
        <ele>452</ele>
        <time>2021-03-13T16:10:56Z</time>
      </trkpt>
      <trkpt lat="43.04958" lon="0.80714">
        <ele>452</ele>
        <time>2021-03-13T16:10:57Z</time>
      </trkpt>
      <trkpt lat="43.04959" lon="0.80713">
        <ele>452</ele>
        <time>2021-03-13T16:10:58Z</time>
      </trkpt>
      <trkpt lat="43.04961" lon="0.80712">
        <ele>452</ele>
        <time>2021-03-13T16:10:59Z</time>
      </trkpt>
      <trkpt lat="43.04963" lon="0.80711">
        <ele>456</ele>
        <time>2021-03-13T16:11:00Z</time>
      </trkpt>
      <trkpt lat="43.04965" lon="0.80711">
        <ele>456</ele>
        <time>2021-03-13T16:11:01Z</time>
      </trkpt>
      <trkpt lat="43.04967" lon="0.8071">
        <ele>456</ele>
        <time>2021-03-13T16:11:02Z</time>
      </trkpt>
      <trkpt lat="43.04969" lon="0.8071">
        <ele>456</ele>
        <time>2021-03-13T16:11:03Z</time>
      </trkpt>
      <trkpt lat="43.0497" lon="0.80711">
        <ele>456</ele>
        <time>2021-03-13T16:11:04Z</time>
      </trkpt>
      <trkpt lat="43.04972" lon="0.80711">
        <ele>457</ele>
        <time>2021-03-13T16:11:05Z</time>
      </trkpt>
      <trkpt lat="43.04973" lon="0.80712">
        <ele>457</ele>
        <time>2021-03-13T16:11:06Z</time>
      </trkpt>
      <trkpt lat="43.04974" lon="0.80713">
        <ele>457</ele>
        <time>2021-03-13T16:11:07Z</time>
      </trkpt>
      <trkpt lat="43.04976" lon="0.80715">
        <ele>457</ele>
        <time>2021-03-13T16:11:08Z</time>
      </trkpt>
      <trkpt lat="43.04977" lon="0.80716">
        <ele>457</ele>
        <time>2021-03-13T16:11:09Z</time>
      </trkpt>
      <trkpt lat="43.04979" lon="0.80718">
        <ele>457</ele>
        <time>2021-03-13T16:11:10Z</time>
      </trkpt>
      <trkpt lat="43.04981" lon="0.8072">
        <ele>457</ele>
        <time>2021-03-13T16:11:11Z</time>
      </trkpt>
      <trkpt lat="43.04982" lon="0.80722">
        <ele>457</ele>
        <time>2021-03-13T16:11:12Z</time>
      </trkpt>
      <trkpt lat="43.04984" lon="0.80724">
        <ele>457</ele>
        <time>2021-03-13T16:11:13Z</time>
      </trkpt>
      <trkpt lat="43.04983" lon="0.80723">
        <ele>457</ele>
        <time>2021-03-13T16:11:14Z</time>
      </trkpt>
      <trkpt lat="43.04983" lon="0.80722">
        <ele>457</ele>
        <time>2021-03-13T16:11:15Z</time>
      </trkpt>
      <trkpt lat="43.04982" lon="0.80722">
        <ele>457</ele>
        <time>2021-03-13T16:11:16Z</time>
      </trkpt>
      <trkpt lat="43.04982" lon="0.80721">
        <ele>457</ele>
        <time>2021-03-13T16:11:17Z</time>
      </trkpt>
      <trkpt lat="43.04982" lon="0.80721">
        <ele>457</ele>
        <time>2021-03-13T16:11:18Z</time>
      </trkpt>
      <trkpt lat="43.04981" lon="0.8072">
        <ele>457</ele>
        <time>2021-03-13T16:11:19Z</time>
      </trkpt>
      <trkpt lat="43.04981" lon="0.8072">
        <ele>458</ele>
        <time>2021-03-13T16:11:20Z</time>
      </trkpt>
      <trkpt lat="43.0498" lon="0.80719">
        <ele>458</ele>
        <time>2021-03-13T16:11:21Z</time>
      </trkpt>
      <trkpt lat="43.0498" lon="0.80718">
        <ele>458</ele>
        <time>2021-03-13T16:11:22Z</time>
      </trkpt>
      <trkpt lat="43.04979" lon="0.80718">
        <ele>458</ele>
        <time>2021-03-13T16:11:23Z</time>
      </trkpt>
      <trkpt lat="43.04979" lon="0.80717">
        <ele>458</ele>
        <time>2021-03-13T16:11:24Z</time>
      </trkpt>
      <trkpt lat="43.04978" lon="0.80717">
        <ele>458</ele>
        <time>2021-03-13T16:11:25Z</time>
      </trkpt>
      <trkpt lat="43.04978" lon="0.80716">
        <ele>458</ele>
        <time>2021-03-13T16:11:26Z</time>
      </trkpt>
      <trkpt lat="43.04976" lon="0.80715">
        <ele>458</ele>
        <time>2021-03-13T16:11:27Z</time>
      </trkpt>
      <trkpt lat="43.04973" lon="0.80713">
        <ele>458</ele>
        <time>2021-03-13T16:11:28Z</time>
      </trkpt>
      <trkpt lat="43.04973" lon="0.8071">
        <ele>458</ele>
        <time>2021-03-13T16:11:29Z</time>
      </trkpt>
      <trkpt lat="43.04973" lon="0.80706">
        <ele>458</ele>
        <time>2021-03-13T16:11:30Z</time>
      </trkpt>
      <trkpt lat="43.04973" lon="0.80703">
        <ele>458</ele>
        <time>2021-03-13T16:11:31Z</time>
      </trkpt>
      <trkpt lat="43.04976" lon="0.80701">
        <ele>458</ele>
        <time>2021-03-13T16:11:32Z</time>
      </trkpt>
      <trkpt lat="43.04978" lon="0.807">
        <ele>458</ele>
        <time>2021-03-13T16:11:33Z</time>
      </trkpt>
      <trkpt lat="43.04982" lon="0.80698">
        <ele>458</ele>
        <time>2021-03-13T16:11:34Z</time>
      </trkpt>
      <trkpt lat="43.04985" lon="0.80696">
        <ele>458</ele>
        <time>2021-03-13T16:11:35Z</time>
      </trkpt>
      <trkpt lat="43.04989" lon="0.80694">
        <ele>458</ele>
        <time>2021-03-13T16:11:36Z</time>
      </trkpt>
      <trkpt lat="43.04992" lon="0.80692">
        <ele>458</ele>
        <time>2021-03-13T16:11:37Z</time>
      </trkpt>
      <trkpt lat="43.04996" lon="0.80691">
        <ele>458</ele>
        <time>2021-03-13T16:11:38Z</time>
      </trkpt>
      <trkpt lat="43.05" lon="0.8069">
        <ele>458</ele>
        <time>2021-03-13T16:11:39Z</time>
      </trkpt>
      <trkpt lat="43.05003" lon="0.8069">
        <ele>455</ele>
        <time>2021-03-13T16:11:40Z</time>
      </trkpt>
      <trkpt lat="43.05006" lon="0.80689">
        <ele>455</ele>
        <time>2021-03-13T16:11:41Z</time>
      </trkpt>
      <trkpt lat="43.05009" lon="0.8069">
        <ele>455</ele>
        <time>2021-03-13T16:11:42Z</time>
      </trkpt>
      <trkpt lat="43.05012" lon="0.80691">
        <ele>455</ele>
        <time>2021-03-13T16:11:43Z</time>
      </trkpt>
      <trkpt lat="43.05015" lon="0.80692">
        <ele>455</ele>
        <time>2021-03-13T16:11:44Z</time>
      </trkpt>
      <trkpt lat="43.05017" lon="0.80693">
        <ele>453</ele>
        <time>2021-03-13T16:11:45Z</time>
      </trkpt>
      <trkpt lat="43.0502" lon="0.80695">
        <ele>453</ele>
        <time>2021-03-13T16:11:46Z</time>
      </trkpt>
      <trkpt lat="43.05022" lon="0.80696">
        <ele>453</ele>
        <time>2021-03-13T16:11:47Z</time>
      </trkpt>
      <trkpt lat="43.05024" lon="0.80697">
        <ele>453</ele>
        <time>2021-03-13T16:11:48Z</time>
      </trkpt>
      <trkpt lat="43.05026" lon="0.80698">
        <ele>453</ele>
        <time>2021-03-13T16:11:49Z</time>
      </trkpt>
      <trkpt lat="43.05028" lon="0.807">
        <ele>451</ele>
        <time>2021-03-13T16:11:50Z</time>
      </trkpt>
      <trkpt lat="43.05031" lon="0.80701">
        <ele>451</ele>
        <time>2021-03-13T16:11:51Z</time>
      </trkpt>
      <trkpt lat="43.05033" lon="0.80703">
        <ele>451</ele>
        <time>2021-03-13T16:11:52Z</time>
      </trkpt>
      <trkpt lat="43.05036" lon="0.80705">
        <ele>451</ele>
        <time>2021-03-13T16:11:53Z</time>
      </trkpt>
      <trkpt lat="43.05039" lon="0.80707">
        <ele>451</ele>
        <time>2021-03-13T16:11:54Z</time>
      </trkpt>
      <trkpt lat="43.05041" lon="0.80708">
        <ele>449</ele>
        <time>2021-03-13T16:11:55Z</time>
      </trkpt>
      <trkpt lat="43.05042" lon="0.8071">
        <ele>449</ele>
        <time>2021-03-13T16:11:56Z</time>
      </trkpt>
      <trkpt lat="43.05044" lon="0.80711">
        <ele>449</ele>
        <time>2021-03-13T16:11:57Z</time>
      </trkpt>
      <trkpt lat="43.05052" lon="0.80717">
        <ele>449</ele>
        <time>2021-03-13T16:11:58Z</time>
      </trkpt>
      <trkpt lat="43.05055" lon="0.80721">
        <ele>449</ele>
        <time>2021-03-13T16:11:59Z</time>
      </trkpt>
      <trkpt lat="43.05058" lon="0.80724">
        <ele>446</ele>
        <time>2021-03-13T16:12:00Z</time>
      </trkpt>
      <trkpt lat="43.05062" lon="0.80728">
        <ele>446</ele>
        <time>2021-03-13T16:12:01Z</time>
      </trkpt>
      <trkpt lat="43.05065" lon="0.80732">
        <ele>446</ele>
        <time>2021-03-13T16:12:02Z</time>
      </trkpt>
      <trkpt lat="43.05069" lon="0.80736">
        <ele>444</ele>
        <time>2021-03-13T16:12:03Z</time>
      </trkpt>
      <trkpt lat="43.05071" lon="0.80738">
        <ele>443</ele>
        <time>2021-03-13T16:12:04Z</time>
      </trkpt>
      <trkpt lat="43.05074" lon="0.80741">
        <ele>442</ele>
        <time>2021-03-13T16:12:05Z</time>
      </trkpt>
      <trkpt lat="43.0508" lon="0.80748">
        <ele>440</ele>
        <time>2021-03-13T16:12:06Z</time>
      </trkpt>
      <trkpt lat="43.05083" lon="0.80751">
        <ele>439</ele>
        <time>2021-03-13T16:12:07Z</time>
      </trkpt>
      <trkpt lat="43.05091" lon="0.80759">
        <ele>440</ele>
        <time>2021-03-13T16:12:08Z</time>
      </trkpt>
      <trkpt lat="43.05095" lon="0.80762">
        <ele>440</ele>
        <time>2021-03-13T16:12:09Z</time>
      </trkpt>
      <trkpt lat="43.05105" lon="0.80771">
        <ele>440</ele>
        <time>2021-03-13T16:12:10Z</time>
      </trkpt>
      <trkpt lat="43.05107" lon="0.80774">
        <ele>439</ele>
        <time>2021-03-13T16:12:11Z</time>
      </trkpt>
      <trkpt lat="43.05116" lon="0.80785">
        <ele>439</ele>
        <time>2021-03-13T16:12:12Z</time>
      </trkpt>
      <trkpt lat="43.0512" lon="0.80788">
        <ele>439</ele>
        <time>2021-03-13T16:12:13Z</time>
      </trkpt>
      <trkpt lat="43.05129" lon="0.80798">
        <ele>439</ele>
        <time>2021-03-13T16:12:14Z</time>
      </trkpt>
      <trkpt lat="43.05132" lon="0.80802">
        <ele>440</ele>
        <time>2021-03-13T16:12:15Z</time>
      </trkpt>
      <trkpt lat="43.05141" lon="0.80811">
        <ele>440</ele>
        <time>2021-03-13T16:12:16Z</time>
      </trkpt>
      <trkpt lat="43.05144" lon="0.80814">
        <ele>440</ele>
        <time>2021-03-13T16:12:17Z</time>
      </trkpt>
      <trkpt lat="43.05151" lon="0.8082">
        <ele>439</ele>
        <time>2021-03-13T16:12:18Z</time>
      </trkpt>
      <trkpt lat="43.05154" lon="0.80821">
        <ele>439</ele>
        <time>2021-03-13T16:12:19Z</time>
      </trkpt>
      <trkpt lat="43.05162" lon="0.80823">
        <ele>438</ele>
        <time>2021-03-13T16:12:20Z</time>
      </trkpt>
      <trkpt lat="43.05165" lon="0.80823">
        <ele>438</ele>
        <time>2021-03-13T16:12:21Z</time>
      </trkpt>
      <trkpt lat="43.05169" lon="0.80824">
        <ele>438</ele>
        <time>2021-03-13T16:12:22Z</time>
      </trkpt>
      <trkpt lat="43.05172" lon="0.80823">
        <ele>438</ele>
        <time>2021-03-13T16:12:23Z</time>
      </trkpt>
      <trkpt lat="43.05175" lon="0.80823">
        <ele>438</ele>
        <time>2021-03-13T16:12:24Z</time>
      </trkpt>
      <trkpt lat="43.05177" lon="0.80822">
        <ele>438</ele>
        <time>2021-03-13T16:12:25Z</time>
      </trkpt>
      <trkpt lat="43.05179" lon="0.80821">
        <ele>438</ele>
        <time>2021-03-13T16:12:26Z</time>
      </trkpt>
      <trkpt lat="43.05182" lon="0.8082">
        <ele>438</ele>
        <time>2021-03-13T16:12:27Z</time>
      </trkpt>
      <trkpt lat="43.05184" lon="0.8082">
        <ele>438</ele>
        <time>2021-03-13T16:12:28Z</time>
      </trkpt>
      <trkpt lat="43.05186" lon="0.80819">
        <ele>438</ele>
        <time>2021-03-13T16:12:29Z</time>
      </trkpt>
      <trkpt lat="43.05188" lon="0.80818">
        <ele>440</ele>
        <time>2021-03-13T16:12:30Z</time>
      </trkpt>
      <trkpt lat="43.0519" lon="0.80817">
        <ele>440</ele>
        <time>2021-03-13T16:12:31Z</time>
      </trkpt>
      <trkpt lat="43.05192" lon="0.80816">
        <ele>440</ele>
        <time>2021-03-13T16:12:32Z</time>
      </trkpt>
      <trkpt lat="43.05193" lon="0.80815">
        <ele>440</ele>
        <time>2021-03-13T16:12:33Z</time>
      </trkpt>
      <trkpt lat="43.05195" lon="0.80813">
        <ele>440</ele>
        <time>2021-03-13T16:12:34Z</time>
      </trkpt>
      <trkpt lat="43.05197" lon="0.80812">
        <ele>440</ele>
        <time>2021-03-13T16:12:35Z</time>
      </trkpt>
      <trkpt lat="43.05198" lon="0.80813">
        <ele>440</ele>
        <time>2021-03-13T16:12:36Z</time>
      </trkpt>
      <trkpt lat="43.05199" lon="0.80815">
        <ele>440</ele>
        <time>2021-03-13T16:12:37Z</time>
      </trkpt>
      <trkpt lat="43.05199" lon="0.80816">
        <ele>440</ele>
        <time>2021-03-13T16:12:38Z</time>
      </trkpt>
      <trkpt lat="43.052" lon="0.80817">
        <ele>440</ele>
        <time>2021-03-13T16:12:39Z</time>
      </trkpt>
      <trkpt lat="43.05201" lon="0.80818">
        <ele>443</ele>
        <time>2021-03-13T16:12:40Z</time>
      </trkpt>
      <trkpt lat="43.05201" lon="0.80819">
        <ele>443</ele>
        <time>2021-03-13T16:12:41Z</time>
      </trkpt>
      <trkpt lat="43.05201" lon="0.80822">
        <ele>443</ele>
        <time>2021-03-13T16:12:42Z</time>
      </trkpt>
      <trkpt lat="43.05201" lon="0.80824">
        <ele>443</ele>
        <time>2021-03-13T16:12:43Z</time>
      </trkpt>
      <trkpt lat="43.05201" lon="0.80827">
        <ele>443</ele>
        <time>2021-03-13T16:12:44Z</time>
      </trkpt>
      <trkpt lat="43.05201" lon="0.8083">
        <ele>443</ele>
        <time>2021-03-13T16:12:45Z</time>
      </trkpt>
      <trkpt lat="43.05201" lon="0.80834">
        <ele>443</ele>
        <time>2021-03-13T16:12:46Z</time>
      </trkpt>
      <trkpt lat="43.05201" lon="0.80837">
        <ele>443</ele>
        <time>2021-03-13T16:12:47Z</time>
      </trkpt>
      <trkpt lat="43.05201" lon="0.80841">
        <ele>443</ele>
        <time>2021-03-13T16:12:48Z</time>
      </trkpt>
      <trkpt lat="43.05201" lon="0.80845">
        <ele>443</ele>
        <time>2021-03-13T16:12:49Z</time>
      </trkpt>
      <trkpt lat="43.05202" lon="0.80849">
        <ele>443</ele>
        <time>2021-03-13T16:12:50Z</time>
      </trkpt>
      <trkpt lat="43.05203" lon="0.80854">
        <ele>443</ele>
        <time>2021-03-13T16:12:51Z</time>
      </trkpt>
      <trkpt lat="43.05203" lon="0.80858">
        <ele>443</ele>
        <time>2021-03-13T16:12:52Z</time>
      </trkpt>
      <trkpt lat="43.05204" lon="0.80862">
        <ele>443</ele>
        <time>2021-03-13T16:12:53Z</time>
      </trkpt>
      <trkpt lat="43.05204" lon="0.80866">
        <ele>443</ele>
        <time>2021-03-13T16:12:54Z</time>
      </trkpt>
      <trkpt lat="43.05206" lon="0.8087">
        <ele>443</ele>
        <time>2021-03-13T16:12:55Z</time>
      </trkpt>
      <trkpt lat="43.05208" lon="0.80875">
        <ele>443</ele>
        <time>2021-03-13T16:12:56Z</time>
      </trkpt>
      <trkpt lat="43.0521" lon="0.8088">
        <ele>443</ele>
        <time>2021-03-13T16:12:57Z</time>
      </trkpt>
      <trkpt lat="43.05212" lon="0.80886">
        <ele>443</ele>
        <time>2021-03-13T16:12:58Z</time>
      </trkpt>
      <trkpt lat="43.05214" lon="0.80889">
        <ele>443</ele>
        <time>2021-03-13T16:12:59Z</time>
      </trkpt>
      <trkpt lat="43.05215" lon="0.80892">
        <ele>442</ele>
        <time>2021-03-13T16:13:00Z</time>
      </trkpt>
      <trkpt lat="43.05218" lon="0.80903">
        <ele>442</ele>
        <time>2021-03-13T16:13:01Z</time>
      </trkpt>
      <trkpt lat="43.0522" lon="0.80907">
        <ele>442</ele>
        <time>2021-03-13T16:13:02Z</time>
      </trkpt>
      <trkpt lat="43.05222" lon="0.80919">
        <ele>442</ele>
        <time>2021-03-13T16:13:03Z</time>
      </trkpt>
      <trkpt lat="43.05223" lon="0.80923">
        <ele>442</ele>
        <time>2021-03-13T16:13:04Z</time>
      </trkpt>
      <trkpt lat="43.05225" lon="0.80937">
        <ele>442</ele>
        <time>2021-03-13T16:13:05Z</time>
      </trkpt>
      <trkpt lat="43.05227" lon="0.80943">
        <ele>442</ele>
        <time>2021-03-13T16:13:06Z</time>
      </trkpt>
      <trkpt lat="43.05228" lon="0.80949">
        <ele>442</ele>
        <time>2021-03-13T16:13:07Z</time>
      </trkpt>
      <trkpt lat="43.05229" lon="0.80955">
        <ele>442</ele>
        <time>2021-03-13T16:13:08Z</time>
      </trkpt>
      <trkpt lat="43.0523" lon="0.80958">
        <ele>442</ele>
        <time>2021-03-13T16:13:09Z</time>
      </trkpt>
      <trkpt lat="43.05231" lon="0.80961">
        <ele>441</ele>
        <time>2021-03-13T16:13:10Z</time>
      </trkpt>
      <trkpt lat="43.05232" lon="0.80963">
        <ele>441</ele>
        <time>2021-03-13T16:13:11Z</time>
      </trkpt>
      <trkpt lat="43.05237" lon="0.80977">
        <ele>441</ele>
        <time>2021-03-13T16:13:12Z</time>
      </trkpt>
      <trkpt lat="43.05238" lon="0.80983">
        <ele>441</ele>
        <time>2021-03-13T16:13:13Z</time>
      </trkpt>
      <trkpt lat="43.05238" lon="0.80986">
        <ele>441</ele>
        <time>2021-03-13T16:13:14Z</time>
      </trkpt>
      <trkpt lat="43.05238" lon="0.80988">
        <ele>441</ele>
        <time>2021-03-13T16:13:15Z</time>
      </trkpt>
      <trkpt lat="43.05239" lon="0.80991">
        <ele>441</ele>
        <time>2021-03-13T16:13:16Z</time>
      </trkpt>
      <trkpt lat="43.0524" lon="0.81003">
        <ele>441</ele>
        <time>2021-03-13T16:13:17Z</time>
      </trkpt>
      <trkpt lat="43.05242" lon="0.81008">
        <ele>441</ele>
        <time>2021-03-13T16:13:18Z</time>
      </trkpt>
      <trkpt lat="43.05243" lon="0.81012">
        <ele>441</ele>
        <time>2021-03-13T16:13:19Z</time>
      </trkpt>
      <trkpt lat="43.05244" lon="0.81016">
        <ele>440</ele>
        <time>2021-03-13T16:13:20Z</time>
      </trkpt>
      <trkpt lat="43.05245" lon="0.8102">
        <ele>440</ele>
        <time>2021-03-13T16:13:21Z</time>
      </trkpt>
      <trkpt lat="43.05246" lon="0.81024">
        <ele>440</ele>
        <time>2021-03-13T16:13:22Z</time>
      </trkpt>
      <trkpt lat="43.05246" lon="0.81026">
        <ele>440</ele>
        <time>2021-03-13T16:13:23Z</time>
      </trkpt>
      <trkpt lat="43.05246" lon="0.81029">
        <ele>440</ele>
        <time>2021-03-13T16:13:24Z</time>
      </trkpt>
      <trkpt lat="43.05246" lon="0.81031">
        <ele>440</ele>
        <time>2021-03-13T16:13:25Z</time>
      </trkpt>
      <trkpt lat="43.05247" lon="0.81041">
        <ele>440</ele>
        <time>2021-03-13T16:13:26Z</time>
      </trkpt>
      <trkpt lat="43.05248" lon="0.81043">
        <ele>440</ele>
        <time>2021-03-13T16:13:27Z</time>
      </trkpt>
      <trkpt lat="43.05248" lon="0.81046">
        <ele>440</ele>
        <time>2021-03-13T16:13:28Z</time>
      </trkpt>
      <trkpt lat="43.05249" lon="0.81055">
        <ele>440</ele>
        <time>2021-03-13T16:13:29Z</time>
      </trkpt>
      <trkpt lat="43.05249" lon="0.81058">
        <ele>442</ele>
        <time>2021-03-13T16:13:30Z</time>
      </trkpt>
      <trkpt lat="43.05249" lon="0.8106">
        <ele>442</ele>
        <time>2021-03-13T16:13:31Z</time>
      </trkpt>
      <trkpt lat="43.0525" lon="0.81071">
        <ele>442</ele>
        <time>2021-03-13T16:13:32Z</time>
      </trkpt>
      <trkpt lat="43.0525" lon="0.81073">
        <ele>442</ele>
        <time>2021-03-13T16:13:33Z</time>
      </trkpt>
      <trkpt lat="43.0525" lon="0.81076">
        <ele>442</ele>
        <time>2021-03-13T16:13:34Z</time>
      </trkpt>
      <trkpt lat="43.0525" lon="0.81087">
        <ele>442</ele>
        <time>2021-03-13T16:13:35Z</time>
      </trkpt>
      <trkpt lat="43.0525" lon="0.8109">
        <ele>442</ele>
        <time>2021-03-13T16:13:36Z</time>
      </trkpt>
      <trkpt lat="43.0525" lon="0.81093">
        <ele>442</ele>
        <time>2021-03-13T16:13:37Z</time>
      </trkpt>
      <trkpt lat="43.0525" lon="0.81108">
        <ele>442</ele>
        <time>2021-03-13T16:13:38Z</time>
      </trkpt>
      <trkpt lat="43.0525" lon="0.81114">
        <ele>442</ele>
        <time>2021-03-13T16:13:39Z</time>
      </trkpt>
      <trkpt lat="43.0525" lon="0.81117">
        <ele>442</ele>
        <time>2021-03-13T16:13:40Z</time>
      </trkpt>
      <trkpt lat="43.0525" lon="0.8112">
        <ele>442</ele>
        <time>2021-03-13T16:13:41Z</time>
      </trkpt>
      <trkpt lat="43.05249" lon="0.81123">
        <ele>442</ele>
        <time>2021-03-13T16:13:42Z</time>
      </trkpt>
      <trkpt lat="43.05247" lon="0.81138">
        <ele>442</ele>
        <time>2021-03-13T16:13:43Z</time>
      </trkpt>
      <trkpt lat="43.05246" lon="0.81145">
        <ele>442</ele>
        <time>2021-03-13T16:13:44Z</time>
      </trkpt>
      <trkpt lat="43.05245" lon="0.81148">
        <ele>442</ele>
        <time>2021-03-13T16:13:45Z</time>
      </trkpt>
      <trkpt lat="43.05245" lon="0.81151">
        <ele>442</ele>
        <time>2021-03-13T16:13:46Z</time>
      </trkpt>
      <trkpt lat="43.05245" lon="0.81154">
        <ele>442</ele>
        <time>2021-03-13T16:13:47Z</time>
      </trkpt>
      <trkpt lat="43.05243" lon="0.81166">
        <ele>442</ele>
        <time>2021-03-13T16:13:48Z</time>
      </trkpt>
      <trkpt lat="43.05242" lon="0.81169">
        <ele>442</ele>
        <time>2021-03-13T16:13:49Z</time>
      </trkpt>
      <trkpt lat="43.05242" lon="0.81172">
        <ele>439</ele>
        <time>2021-03-13T16:13:50Z</time>
      </trkpt>
      <trkpt lat="43.05239" lon="0.81182">
        <ele>439</ele>
        <time>2021-03-13T16:13:51Z</time>
      </trkpt>
      <trkpt lat="43.05239" lon="0.81184">
        <ele>439</ele>
        <time>2021-03-13T16:13:52Z</time>
      </trkpt>
      <trkpt lat="43.05238" lon="0.81186">
        <ele>439</ele>
        <time>2021-03-13T16:13:53Z</time>
      </trkpt>
      <trkpt lat="43.05235" lon="0.81198">
        <ele>439</ele>
        <time>2021-03-13T16:13:54Z</time>
      </trkpt>
      <trkpt lat="43.05234" lon="0.81202">
        <ele>439</ele>
        <time>2021-03-13T16:13:55Z</time>
      </trkpt>
      <trkpt lat="43.05233" lon="0.81206">
        <ele>439</ele>
        <time>2021-03-13T16:13:56Z</time>
      </trkpt>
      <trkpt lat="43.05232" lon="0.8121">
        <ele>439</ele>
        <time>2021-03-13T16:13:57Z</time>
      </trkpt>
      <trkpt lat="43.05231" lon="0.81213">
        <ele>439</ele>
        <time>2021-03-13T16:13:58Z</time>
      </trkpt>
      <trkpt lat="43.05231" lon="0.81217">
        <ele>439</ele>
        <time>2021-03-13T16:13:59Z</time>
      </trkpt>
      <trkpt lat="43.0523" lon="0.81221">
        <ele>442</ele>
        <time>2021-03-13T16:14:00Z</time>
      </trkpt>
      <trkpt lat="43.05228" lon="0.81224">
        <ele>442</ele>
        <time>2021-03-13T16:14:01Z</time>
      </trkpt>
      <trkpt lat="43.05227" lon="0.81228">
        <ele>442</ele>
        <time>2021-03-13T16:14:02Z</time>
      </trkpt>
      <trkpt lat="43.05226" lon="0.81231">
        <ele>442</ele>
        <time>2021-03-13T16:14:03Z</time>
      </trkpt>
      <trkpt lat="43.05225" lon="0.81234">
        <ele>442</ele>
        <time>2021-03-13T16:14:04Z</time>
      </trkpt>
      <trkpt lat="43.05223" lon="0.81238">
        <ele>442</ele>
        <time>2021-03-13T16:14:05Z</time>
      </trkpt>
      <trkpt lat="43.05222" lon="0.81241">
        <ele>442</ele>
        <time>2021-03-13T16:14:06Z</time>
      </trkpt>
      <trkpt lat="43.05221" lon="0.81244">
        <ele>442</ele>
        <time>2021-03-13T16:14:07Z</time>
      </trkpt>
      <trkpt lat="43.05221" lon="0.81248">
        <ele>442</ele>
        <time>2021-03-13T16:14:08Z</time>
      </trkpt>
      <trkpt lat="43.0522" lon="0.81251">
        <ele>442</ele>
        <time>2021-03-13T16:14:09Z</time>
      </trkpt>
      <trkpt lat="43.0522" lon="0.81254">
        <ele>442</ele>
        <time>2021-03-13T16:14:10Z</time>
      </trkpt>
      <trkpt lat="43.05219" lon="0.81258">
        <ele>442</ele>
        <time>2021-03-13T16:14:11Z</time>
      </trkpt>
      <trkpt lat="43.05219" lon="0.81261">
        <ele>442</ele>
        <time>2021-03-13T16:14:12Z</time>
      </trkpt>
      <trkpt lat="43.05219" lon="0.81263">
        <ele>442</ele>
        <time>2021-03-13T16:14:13Z</time>
      </trkpt>
      <trkpt lat="43.05218" lon="0.81264">
        <ele>442</ele>
        <time>2021-03-13T16:14:14Z</time>
      </trkpt>
      <trkpt lat="43.05218" lon="0.81266">
        <ele>442</ele>
        <time>2021-03-13T16:14:15Z</time>
      </trkpt>
      <trkpt lat="43.05218" lon="0.81268">
        <ele>442</ele>
        <time>2021-03-13T16:14:16Z</time>
      </trkpt>
      <trkpt lat="43.05217" lon="0.81269">
        <ele>442</ele>
        <time>2021-03-13T16:14:17Z</time>
      </trkpt>
      <trkpt lat="43.05216" lon="0.81279">
        <ele>442</ele>
        <time>2021-03-13T16:14:18Z</time>
      </trkpt>
      <trkpt lat="43.05215" lon="0.81281">
        <ele>442</ele>
        <time>2021-03-13T16:14:19Z</time>
      </trkpt>
      <trkpt lat="43.05215" lon="0.81282">
        <ele>443</ele>
        <time>2021-03-13T16:14:20Z</time>
      </trkpt>
      <trkpt lat="43.05215" lon="0.81284">
        <ele>443</ele>
        <time>2021-03-13T16:14:21Z</time>
      </trkpt>
      <trkpt lat="43.05213" lon="0.81293">
        <ele>443</ele>
        <time>2021-03-13T16:14:22Z</time>
      </trkpt>
      <trkpt lat="43.05213" lon="0.81295">
        <ele>443</ele>
        <time>2021-03-13T16:14:23Z</time>
      </trkpt>
      <trkpt lat="43.05212" lon="0.81297">
        <ele>443</ele>
        <time>2021-03-13T16:14:24Z</time>
      </trkpt>
      <trkpt lat="43.05212" lon="0.81299">
        <ele>443</ele>
        <time>2021-03-13T16:14:25Z</time>
      </trkpt>
      <trkpt lat="43.05209" lon="0.81308">
        <ele>443</ele>
        <time>2021-03-13T16:14:26Z</time>
      </trkpt>
      <trkpt lat="43.05208" lon="0.8131">
        <ele>443</ele>
        <time>2021-03-13T16:14:27Z</time>
      </trkpt>
      <trkpt lat="43.05207" lon="0.81312">
        <ele>443</ele>
        <time>2021-03-13T16:14:28Z</time>
      </trkpt>
      <trkpt lat="43.05207" lon="0.81314">
        <ele>443</ele>
        <time>2021-03-13T16:14:29Z</time>
      </trkpt>
      <trkpt lat="43.05203" lon="0.81322">
        <ele>445</ele>
        <time>2021-03-13T16:14:30Z</time>
      </trkpt>
      <trkpt lat="43.05203" lon="0.81323">
        <ele>445</ele>
        <time>2021-03-13T16:14:31Z</time>
      </trkpt>
      <trkpt lat="43.05202" lon="0.81325">
        <ele>445</ele>
        <time>2021-03-13T16:14:32Z</time>
      </trkpt>
      <trkpt lat="43.05201" lon="0.81326">
        <ele>445</ele>
        <time>2021-03-13T16:14:33Z</time>
      </trkpt>
      <trkpt lat="43.05201" lon="0.81327">
        <ele>445</ele>
        <time>2021-03-13T16:14:34Z</time>
      </trkpt>
      <trkpt lat="43.05197" lon="0.81336">
        <ele>445</ele>
        <time>2021-03-13T16:14:35Z</time>
      </trkpt>
      <trkpt lat="43.05196" lon="0.81339">
        <ele>445</ele>
        <time>2021-03-13T16:14:36Z</time>
      </trkpt>
      <trkpt lat="43.05195" lon="0.81341">
        <ele>445</ele>
        <time>2021-03-13T16:14:37Z</time>
      </trkpt>
      <trkpt lat="43.05195" lon="0.81343">
        <ele>445</ele>
        <time>2021-03-13T16:14:38Z</time>
      </trkpt>
      <trkpt lat="43.05194" lon="0.81345">
        <ele>445</ele>
        <time>2021-03-13T16:14:39Z</time>
      </trkpt>
      <trkpt lat="43.05192" lon="0.81347">
        <ele>447</ele>
        <time>2021-03-13T16:14:40Z</time>
      </trkpt>
      <trkpt lat="43.05191" lon="0.81349">
        <ele>447</ele>
        <time>2021-03-13T16:14:41Z</time>
      </trkpt>
      <trkpt lat="43.0519" lon="0.81351">
        <ele>447</ele>
        <time>2021-03-13T16:14:42Z</time>
      </trkpt>
      <trkpt lat="43.05188" lon="0.81353">
        <ele>447</ele>
        <time>2021-03-13T16:14:43Z</time>
      </trkpt>
      <trkpt lat="43.05187" lon="0.81355">
        <ele>447</ele>
        <time>2021-03-13T16:14:44Z</time>
      </trkpt>
      <trkpt lat="43.05186" lon="0.81357">
        <ele>447</ele>
        <time>2021-03-13T16:14:45Z</time>
      </trkpt>
      <trkpt lat="43.05185" lon="0.8136">
        <ele>447</ele>
        <time>2021-03-13T16:14:46Z</time>
      </trkpt>
      <trkpt lat="43.05184" lon="0.81362">
        <ele>447</ele>
        <time>2021-03-13T16:14:47Z</time>
      </trkpt>
      <trkpt lat="43.05183" lon="0.81364">
        <ele>447</ele>
        <time>2021-03-13T16:14:48Z</time>
      </trkpt>
      <trkpt lat="43.05182" lon="0.81366">
        <ele>447</ele>
        <time>2021-03-13T16:14:49Z</time>
      </trkpt>
      <trkpt lat="43.05181" lon="0.81368">
        <ele>449</ele>
        <time>2021-03-13T16:14:50Z</time>
      </trkpt>
      <trkpt lat="43.0518" lon="0.8137">
        <ele>449</ele>
        <time>2021-03-13T16:14:51Z</time>
      </trkpt>
      <trkpt lat="43.05179" lon="0.81372">
        <ele>449</ele>
        <time>2021-03-13T16:14:52Z</time>
      </trkpt>
      <trkpt lat="43.05177" lon="0.81375">
        <ele>449</ele>
        <time>2021-03-13T16:14:53Z</time>
      </trkpt>
      <trkpt lat="43.05177" lon="0.81377">
        <ele>449</ele>
        <time>2021-03-13T16:14:54Z</time>
      </trkpt>
      <trkpt lat="43.05176" lon="0.8138">
        <ele>451</ele>
        <time>2021-03-13T16:14:55Z</time>
      </trkpt>
      <trkpt lat="43.05175" lon="0.81382">
        <ele>451</ele>
        <time>2021-03-13T16:14:56Z</time>
      </trkpt>
      <trkpt lat="43.05174" lon="0.81385">
        <ele>451</ele>
        <time>2021-03-13T16:14:57Z</time>
      </trkpt>
      <trkpt lat="43.05174" lon="0.81387">
        <ele>451</ele>
        <time>2021-03-13T16:14:58Z</time>
      </trkpt>
      <trkpt lat="43.05174" lon="0.81389">
        <ele>451</ele>
        <time>2021-03-13T16:14:59Z</time>
      </trkpt>
      <trkpt lat="43.05174" lon="0.81391">
        <ele>452</ele>
        <time>2021-03-13T16:15:00Z</time>
      </trkpt>
      <trkpt lat="43.05174" lon="0.81392">
        <ele>452</ele>
        <time>2021-03-13T16:15:01Z</time>
      </trkpt>
      <trkpt lat="43.05174" lon="0.81394">
        <ele>452</ele>
        <time>2021-03-13T16:15:02Z</time>
      </trkpt>
      <trkpt lat="43.05175" lon="0.81395">
        <ele>452</ele>
        <time>2021-03-13T16:15:03Z</time>
      </trkpt>
      <trkpt lat="43.05176" lon="0.81396">
        <ele>452</ele>
        <time>2021-03-13T16:15:04Z</time>
      </trkpt>
      <trkpt lat="43.05177" lon="0.81396">
        <ele>453</ele>
        <time>2021-03-13T16:15:05Z</time>
      </trkpt>
      <trkpt lat="43.05178" lon="0.81397">
        <ele>453</ele>
        <time>2021-03-13T16:15:06Z</time>
      </trkpt>
      <trkpt lat="43.0518" lon="0.81398">
        <ele>453</ele>
        <time>2021-03-13T16:15:07Z</time>
      </trkpt>
      <trkpt lat="43.05182" lon="0.81399">
        <ele>453</ele>
        <time>2021-03-13T16:15:08Z</time>
      </trkpt>
      <trkpt lat="43.05184" lon="0.814">
        <ele>453</ele>
        <time>2021-03-13T16:15:09Z</time>
      </trkpt>
      <trkpt lat="43.05186" lon="0.81401">
        <ele>453</ele>
        <time>2021-03-13T16:15:10Z</time>
      </trkpt>
      <trkpt lat="43.05188" lon="0.81402">
        <ele>453</ele>
        <time>2021-03-13T16:15:11Z</time>
      </trkpt>
      <trkpt lat="43.0519" lon="0.81404">
        <ele>453</ele>
        <time>2021-03-13T16:15:12Z</time>
      </trkpt>
      <trkpt lat="43.05191" lon="0.81405">
        <ele>453</ele>
        <time>2021-03-13T16:15:13Z</time>
      </trkpt>
      <trkpt lat="43.052" lon="0.81411">
        <ele>453</ele>
        <time>2021-03-13T16:15:14Z</time>
      </trkpt>
      <trkpt lat="43.05202" lon="0.81413">
        <ele>453</ele>
        <time>2021-03-13T16:15:15Z</time>
      </trkpt>
      <trkpt lat="43.0521" lon="0.81418">
        <ele>453</ele>
        <time>2021-03-13T16:15:16Z</time>
      </trkpt>
      <trkpt lat="43.05213" lon="0.81421">
        <ele>453</ele>
        <time>2021-03-13T16:15:17Z</time>
      </trkpt>
      <trkpt lat="43.0522" lon="0.81428">
        <ele>453</ele>
        <time>2021-03-13T16:15:18Z</time>
      </trkpt>
      <trkpt lat="43.05223" lon="0.81431">
        <ele>453</ele>
        <time>2021-03-13T16:15:19Z</time>
      </trkpt>
      <trkpt lat="43.0523" lon="0.81438">
        <ele>447</ele>
        <time>2021-03-13T16:15:20Z</time>
      </trkpt>
      <trkpt lat="43.05233" lon="0.81441">
        <ele>444</ele>
        <time>2021-03-13T16:15:21Z</time>
      </trkpt>
      <trkpt lat="43.05241" lon="0.81448">
        <ele>443</ele>
        <time>2021-03-13T16:15:22Z</time>
      </trkpt>
      <trkpt lat="43.05243" lon="0.8145">
        <ele>442</ele>
        <time>2021-03-13T16:15:23Z</time>
      </trkpt>
      <trkpt lat="43.0525" lon="0.81457">
        <ele>441</ele>
        <time>2021-03-13T16:15:24Z</time>
      </trkpt>
      <trkpt lat="43.05253" lon="0.8146">
        <ele>438</ele>
        <time>2021-03-13T16:15:25Z</time>
      </trkpt>
      <trkpt lat="43.05261" lon="0.81468">
        <ele>437</ele>
        <time>2021-03-13T16:15:26Z</time>
      </trkpt>
      <trkpt lat="43.05263" lon="0.81471">
        <ele>437</ele>
        <time>2021-03-13T16:15:27Z</time>
      </trkpt>
      <trkpt lat="43.05268" lon="0.8148">
        <ele>437</ele>
        <time>2021-03-13T16:15:28Z</time>
      </trkpt>
      <trkpt lat="43.0527" lon="0.81483">
        <ele>436</ele>
        <time>2021-03-13T16:15:29Z</time>
      </trkpt>
      <trkpt lat="43.05275" lon="0.81492">
        <ele>436</ele>
        <time>2021-03-13T16:15:30Z</time>
      </trkpt>
      <trkpt lat="43.05277" lon="0.81496">
        <ele>435</ele>
        <time>2021-03-13T16:15:31Z</time>
      </trkpt>
      <trkpt lat="43.05283" lon="0.81506">
        <ele>435</ele>
        <time>2021-03-13T16:15:32Z</time>
      </trkpt>
      <trkpt lat="43.05285" lon="0.81508">
        <ele>433</ele>
        <time>2021-03-13T16:15:33Z</time>
      </trkpt>
      <trkpt lat="43.05291" lon="0.81516">
        <ele>432</ele>
        <time>2021-03-13T16:15:34Z</time>
      </trkpt>
      <trkpt lat="43.05293" lon="0.81519">
        <ele>431</ele>
        <time>2021-03-13T16:15:35Z</time>
      </trkpt>
      <trkpt lat="43.05299" lon="0.81527">
        <ele>431</ele>
        <time>2021-03-13T16:15:36Z</time>
      </trkpt>
      <trkpt lat="43.05301" lon="0.81531">
        <ele>430</ele>
        <time>2021-03-13T16:15:37Z</time>
      </trkpt>
      <trkpt lat="43.05305" lon="0.81542">
        <ele>428</ele>
        <time>2021-03-13T16:15:38Z</time>
      </trkpt>
      <trkpt lat="43.05306" lon="0.81546">
        <ele>427</ele>
        <time>2021-03-13T16:15:39Z</time>
      </trkpt>
      <trkpt lat="43.05305" lon="0.81559">
        <ele>426</ele>
        <time>2021-03-13T16:15:40Z</time>
      </trkpt>
      <trkpt lat="43.05304" lon="0.81564">
        <ele>427</ele>
        <time>2021-03-13T16:15:41Z</time>
      </trkpt>
      <trkpt lat="43.05299" lon="0.81578">
        <ele>427</ele>
        <time>2021-03-13T16:15:42Z</time>
      </trkpt>
      <trkpt lat="43.05297" lon="0.81584">
        <ele>427</ele>
        <time>2021-03-13T16:15:43Z</time>
      </trkpt>
      <trkpt lat="43.05295" lon="0.81588">
        <ele>426</ele>
        <time>2021-03-13T16:15:44Z</time>
      </trkpt>
      <trkpt lat="43.05294" lon="0.81592">
        <ele>425</ele>
        <time>2021-03-13T16:15:45Z</time>
      </trkpt>
      <trkpt lat="43.05292" lon="0.81596">
        <ele>427</ele>
        <time>2021-03-13T16:15:46Z</time>
      </trkpt>
      <trkpt lat="43.05291" lon="0.81598">
        <ele>427</ele>
        <time>2021-03-13T16:15:47Z</time>
      </trkpt>
      <trkpt lat="43.0529" lon="0.816">
        <ele>427</ele>
        <time>2021-03-13T16:15:48Z</time>
      </trkpt>
      <trkpt lat="43.0529" lon="0.81602">
        <ele>427</ele>
        <time>2021-03-13T16:15:49Z</time>
      </trkpt>
      <trkpt lat="43.05289" lon="0.81604">
        <ele>427</ele>
        <time>2021-03-13T16:15:50Z</time>
      </trkpt>
      <trkpt lat="43.05286" lon="0.81614">
        <ele>427</ele>
        <time>2021-03-13T16:15:51Z</time>
      </trkpt>
      <trkpt lat="43.05285" lon="0.81618">
        <ele>427</ele>
        <time>2021-03-13T16:15:52Z</time>
      </trkpt>
      <trkpt lat="43.05284" lon="0.81621">
        <ele>427</ele>
        <time>2021-03-13T16:15:53Z</time>
      </trkpt>
      <trkpt lat="43.05284" lon="0.81624">
        <ele>427</ele>
        <time>2021-03-13T16:15:54Z</time>
      </trkpt>
      <trkpt lat="43.05283" lon="0.81627">
        <ele>427</ele>
        <time>2021-03-13T16:15:55Z</time>
      </trkpt>
      <trkpt lat="43.05283" lon="0.81629">
        <ele>427</ele>
        <time>2021-03-13T16:15:56Z</time>
      </trkpt>
      <trkpt lat="43.05283" lon="0.81632">
        <ele>427</ele>
        <time>2021-03-13T16:15:57Z</time>
      </trkpt>
      <trkpt lat="43.05282" lon="0.81634">
        <ele>427</ele>
        <time>2021-03-13T16:15:58Z</time>
      </trkpt>
      <trkpt lat="43.05279" lon="0.81651">
        <ele>427</ele>
        <time>2021-03-13T16:15:59Z</time>
      </trkpt>
      <trkpt lat="43.05278" lon="0.81657">
        <ele>426</ele>
        <time>2021-03-13T16:16:00Z</time>
      </trkpt>
      <trkpt lat="43.05277" lon="0.8166">
        <ele>426</ele>
        <time>2021-03-13T16:16:01Z</time>
      </trkpt>
      <trkpt lat="43.05276" lon="0.81663">
        <ele>426</ele>
        <time>2021-03-13T16:16:02Z</time>
      </trkpt>
      <trkpt lat="43.05274" lon="0.81666">
        <ele>426</ele>
        <time>2021-03-13T16:16:03Z</time>
      </trkpt>
      <trkpt lat="43.0527" lon="0.81677">
        <ele>426</ele>
        <time>2021-03-13T16:16:04Z</time>
      </trkpt>
      <trkpt lat="43.0527" lon="0.81679">
        <ele>426</ele>
        <time>2021-03-13T16:16:05Z</time>
      </trkpt>
      <trkpt lat="43.05269" lon="0.81682">
        <ele>426</ele>
        <time>2021-03-13T16:16:06Z</time>
      </trkpt>
      <trkpt lat="43.05267" lon="0.81694">
        <ele>426</ele>
        <time>2021-03-13T16:16:07Z</time>
      </trkpt>
      <trkpt lat="43.05267" lon="0.81696">
        <ele>426</ele>
        <time>2021-03-13T16:16:08Z</time>
      </trkpt>
      <trkpt lat="43.05266" lon="0.81699">
        <ele>426</ele>
        <time>2021-03-13T16:16:09Z</time>
      </trkpt>
      <trkpt lat="43.05265" lon="0.8171">
        <ele>426</ele>
        <time>2021-03-13T16:16:10Z</time>
      </trkpt>
      <trkpt lat="43.05265" lon="0.81713">
        <ele>426</ele>
        <time>2021-03-13T16:16:11Z</time>
      </trkpt>
      <trkpt lat="43.05264" lon="0.81715">
        <ele>426</ele>
        <time>2021-03-13T16:16:12Z</time>
      </trkpt>
      <trkpt lat="43.05262" lon="0.81727">
        <ele>426</ele>
        <time>2021-03-13T16:16:13Z</time>
      </trkpt>
      <trkpt lat="43.05262" lon="0.81732">
        <ele>426</ele>
        <time>2021-03-13T16:16:14Z</time>
      </trkpt>
      <trkpt lat="43.05261" lon="0.81736">
        <ele>426</ele>
        <time>2021-03-13T16:16:15Z</time>
      </trkpt>
      <trkpt lat="43.0526" lon="0.81739">
        <ele>426</ele>
        <time>2021-03-13T16:16:16Z</time>
      </trkpt>
      <trkpt lat="43.0526" lon="0.81741">
        <ele>426</ele>
        <time>2021-03-13T16:16:17Z</time>
      </trkpt>
      <trkpt lat="43.05259" lon="0.81744">
        <ele>426</ele>
        <time>2021-03-13T16:16:18Z</time>
      </trkpt>
      <trkpt lat="43.05257" lon="0.81754">
        <ele>426</ele>
        <time>2021-03-13T16:16:19Z</time>
      </trkpt>
      <trkpt lat="43.05256" lon="0.81757">
        <ele>425</ele>
        <time>2021-03-13T16:16:20Z</time>
      </trkpt>
      <trkpt lat="43.05255" lon="0.8176">
        <ele>425</ele>
        <time>2021-03-13T16:16:21Z</time>
      </trkpt>
      <trkpt lat="43.05251" lon="0.81775">
        <ele>425</ele>
        <time>2021-03-13T16:16:22Z</time>
      </trkpt>
      <trkpt lat="43.05249" lon="0.81781">
        <ele>425</ele>
        <time>2021-03-13T16:16:23Z</time>
      </trkpt>
      <trkpt lat="43.05248" lon="0.81787">
        <ele>425</ele>
        <time>2021-03-13T16:16:24Z</time>
      </trkpt>
      <trkpt lat="43.05247" lon="0.81789">
        <ele>425</ele>
        <time>2021-03-13T16:16:25Z</time>
      </trkpt>
      <trkpt lat="43.05246" lon="0.81791">
        <ele>425</ele>
        <time>2021-03-13T16:16:26Z</time>
      </trkpt>
      <trkpt lat="43.05245" lon="0.81794">
        <ele>425</ele>
        <time>2021-03-13T16:16:27Z</time>
      </trkpt>
      <trkpt lat="43.05242" lon="0.81804">
        <ele>425</ele>
        <time>2021-03-13T16:16:28Z</time>
      </trkpt>
      <trkpt lat="43.05242" lon="0.81806">
        <ele>425</ele>
        <time>2021-03-13T16:16:29Z</time>
      </trkpt>
      <trkpt lat="43.05241" lon="0.81809">
        <ele>425</ele>
        <time>2021-03-13T16:16:30Z</time>
      </trkpt>
      <trkpt lat="43.05238" lon="0.8182">
        <ele>425</ele>
        <time>2021-03-13T16:16:31Z</time>
      </trkpt>
      <trkpt lat="43.05237" lon="0.81823">
        <ele>425</ele>
        <time>2021-03-13T16:16:32Z</time>
      </trkpt>
      <trkpt lat="43.05237" lon="0.81825">
        <ele>425</ele>
        <time>2021-03-13T16:16:33Z</time>
      </trkpt>
      <trkpt lat="43.05234" lon="0.81839">
        <ele>425</ele>
        <time>2021-03-13T16:16:34Z</time>
      </trkpt>
      <trkpt lat="43.05233" lon="0.81843">
        <ele>425</ele>
        <time>2021-03-13T16:16:35Z</time>
      </trkpt>
      <trkpt lat="43.05232" lon="0.81848">
        <ele>425</ele>
        <time>2021-03-13T16:16:36Z</time>
      </trkpt>
      <trkpt lat="43.05231" lon="0.8185">
        <ele>425</ele>
        <time>2021-03-13T16:16:37Z</time>
      </trkpt>
      <trkpt lat="43.05231" lon="0.81852">
        <ele>425</ele>
        <time>2021-03-13T16:16:38Z</time>
      </trkpt>
      <trkpt lat="43.0523" lon="0.81855">
        <ele>425</ele>
        <time>2021-03-13T16:16:39Z</time>
      </trkpt>
      <trkpt lat="43.05228" lon="0.81864">
        <ele>424</ele>
        <time>2021-03-13T16:16:40Z</time>
      </trkpt>
      <trkpt lat="43.05227" lon="0.81867">
        <ele>424</ele>
        <time>2021-03-13T16:16:41Z</time>
      </trkpt>
      <trkpt lat="43.05227" lon="0.8187">
        <ele>424</ele>
        <time>2021-03-13T16:16:42Z</time>
      </trkpt>
      <trkpt lat="43.05223" lon="0.81882">
        <ele>424</ele>
        <time>2021-03-13T16:16:43Z</time>
      </trkpt>
      <trkpt lat="43.05222" lon="0.81885">
        <ele>424</ele>
        <time>2021-03-13T16:16:44Z</time>
      </trkpt>
      <trkpt lat="43.05222" lon="0.81887">
        <ele>424</ele>
        <time>2021-03-13T16:16:45Z</time>
      </trkpt>
      <trkpt lat="43.05219" lon="0.81898">
        <ele>424</ele>
        <time>2021-03-13T16:16:46Z</time>
      </trkpt>
      <trkpt lat="43.05218" lon="0.81901">
        <ele>424</ele>
        <time>2021-03-13T16:16:47Z</time>
      </trkpt>
      <trkpt lat="43.05218" lon="0.81904">
        <ele>424</ele>
        <time>2021-03-13T16:16:48Z</time>
      </trkpt>
      <trkpt lat="43.05215" lon="0.81914">
        <ele>424</ele>
        <time>2021-03-13T16:16:49Z</time>
      </trkpt>
      <trkpt lat="43.05215" lon="0.81916">
        <ele>423</ele>
        <time>2021-03-13T16:16:50Z</time>
      </trkpt>
      <trkpt lat="43.05214" lon="0.81918">
        <ele>423</ele>
        <time>2021-03-13T16:16:51Z</time>
      </trkpt>
      <trkpt lat="43.05212" lon="0.81928">
        <ele>423</ele>
        <time>2021-03-13T16:16:52Z</time>
      </trkpt>
      <trkpt lat="43.05211" lon="0.81931">
        <ele>423</ele>
        <time>2021-03-13T16:16:53Z</time>
      </trkpt>
      <trkpt lat="43.05211" lon="0.81933">
        <ele>423</ele>
        <time>2021-03-13T16:16:54Z</time>
      </trkpt>
      <trkpt lat="43.05208" lon="0.81944">
        <ele>423</ele>
        <time>2021-03-13T16:16:55Z</time>
      </trkpt>
      <trkpt lat="43.05208" lon="0.81947">
        <ele>423</ele>
        <time>2021-03-13T16:16:56Z</time>
      </trkpt>
      <trkpt lat="43.05207" lon="0.81949">
        <ele>423</ele>
        <time>2021-03-13T16:16:57Z</time>
      </trkpt>
      <trkpt lat="43.05205" lon="0.8196">
        <ele>423</ele>
        <time>2021-03-13T16:16:58Z</time>
      </trkpt>
      <trkpt lat="43.05205" lon="0.81963">
        <ele>423</ele>
        <time>2021-03-13T16:16:59Z</time>
      </trkpt>
      <trkpt lat="43.05204" lon="0.81966">
        <ele>421</ele>
        <time>2021-03-13T16:17:00Z</time>
      </trkpt>
      <trkpt lat="43.05202" lon="0.81976">
        <ele>421</ele>
        <time>2021-03-13T16:17:01Z</time>
      </trkpt>
      <trkpt lat="43.05202" lon="0.81979">
        <ele>421</ele>
        <time>2021-03-13T16:17:02Z</time>
      </trkpt>
      <trkpt lat="43.05201" lon="0.81982">
        <ele>421</ele>
        <time>2021-03-13T16:17:03Z</time>
      </trkpt>
      <trkpt lat="43.05199" lon="0.81994">
        <ele>421</ele>
        <time>2021-03-13T16:17:04Z</time>
      </trkpt>
      <trkpt lat="43.05199" lon="0.81998">
        <ele>419</ele>
        <time>2021-03-13T16:17:05Z</time>
      </trkpt>
      <trkpt lat="43.05198" lon="0.82001">
        <ele>419</ele>
        <time>2021-03-13T16:17:06Z</time>
      </trkpt>
      <trkpt lat="43.05196" lon="0.82014">
        <ele>419</ele>
        <time>2021-03-13T16:17:07Z</time>
      </trkpt>
      <trkpt lat="43.05194" lon="0.82017">
        <ele>419</ele>
        <time>2021-03-13T16:17:08Z</time>
      </trkpt>
      <trkpt lat="43.0519" lon="0.82025">
        <ele>419</ele>
        <time>2021-03-13T16:17:09Z</time>
      </trkpt>
      <trkpt lat="43.05189" lon="0.82027">
        <ele>418</ele>
        <time>2021-03-13T16:17:10Z</time>
      </trkpt>
      <trkpt lat="43.05187" lon="0.82029">
        <ele>418</ele>
        <time>2021-03-13T16:17:11Z</time>
      </trkpt>
      <trkpt lat="43.05182" lon="0.82036">
        <ele>418</ele>
        <time>2021-03-13T16:17:12Z</time>
      </trkpt>
      <trkpt lat="43.05181" lon="0.82037">
        <ele>418</ele>
        <time>2021-03-13T16:17:13Z</time>
      </trkpt>
      <trkpt lat="43.0518" lon="0.82039">
        <ele>418</ele>
        <time>2021-03-13T16:17:14Z</time>
      </trkpt>
      <trkpt lat="43.05179" lon="0.8204">
        <ele>420</ele>
        <time>2021-03-13T16:17:15Z</time>
      </trkpt>
      <trkpt lat="43.05173" lon="0.82047">
        <ele>420</ele>
        <time>2021-03-13T16:17:16Z</time>
      </trkpt>
      <trkpt lat="43.05172" lon="0.82048">
        <ele>420</ele>
        <time>2021-03-13T16:17:17Z</time>
      </trkpt>
      <trkpt lat="43.05171" lon="0.82049">
        <ele>420</ele>
        <time>2021-03-13T16:17:18Z</time>
      </trkpt>
      <trkpt lat="43.0517" lon="0.8205">
        <ele>420</ele>
        <time>2021-03-13T16:17:19Z</time>
      </trkpt>
      <trkpt lat="43.05164" lon="0.82056">
        <ele>422</ele>
        <time>2021-03-13T16:17:20Z</time>
      </trkpt>
      <trkpt lat="43.05163" lon="0.82058">
        <ele>422</ele>
        <time>2021-03-13T16:17:21Z</time>
      </trkpt>
      <trkpt lat="43.05161" lon="0.8206">
        <ele>422</ele>
        <time>2021-03-13T16:17:22Z</time>
      </trkpt>
      <trkpt lat="43.0516" lon="0.82062">
        <ele>422</ele>
        <time>2021-03-13T16:17:23Z</time>
      </trkpt>
      <trkpt lat="43.05159" lon="0.82064">
        <ele>422</ele>
        <time>2021-03-13T16:17:24Z</time>
      </trkpt>
      <trkpt lat="43.05158" lon="0.82066">
        <ele>424</ele>
        <time>2021-03-13T16:17:25Z</time>
      </trkpt>
      <trkpt lat="43.05157" lon="0.82068">
        <ele>424</ele>
        <time>2021-03-13T16:17:26Z</time>
      </trkpt>
      <trkpt lat="43.05156" lon="0.8207">
        <ele>424</ele>
        <time>2021-03-13T16:17:27Z</time>
      </trkpt>
      <trkpt lat="43.05155" lon="0.82072">
        <ele>424</ele>
        <time>2021-03-13T16:17:28Z</time>
      </trkpt>
      <trkpt lat="43.05153" lon="0.82073">
        <ele>424</ele>
        <time>2021-03-13T16:17:29Z</time>
      </trkpt>
      <trkpt lat="43.05152" lon="0.82075">
        <ele>424</ele>
        <time>2021-03-13T16:17:30Z</time>
      </trkpt>
      <trkpt lat="43.05151" lon="0.82077">
        <ele>424</ele>
        <time>2021-03-13T16:17:31Z</time>
      </trkpt>
      <trkpt lat="43.05149" lon="0.82078">
        <ele>424</ele>
        <time>2021-03-13T16:17:32Z</time>
      </trkpt>
      <trkpt lat="43.05147" lon="0.8208">
        <ele>424</ele>
        <time>2021-03-13T16:17:33Z</time>
      </trkpt>
      <trkpt lat="43.05145" lon="0.82081">
        <ele>424</ele>
        <time>2021-03-13T16:17:34Z</time>
      </trkpt>
      <trkpt lat="43.05144" lon="0.82083">
        <ele>424</ele>
        <time>2021-03-13T16:17:35Z</time>
      </trkpt>
      <trkpt lat="43.05141" lon="0.82084">
        <ele>424</ele>
        <time>2021-03-13T16:17:36Z</time>
      </trkpt>
      <trkpt lat="43.05139" lon="0.82085">
        <ele>424</ele>
        <time>2021-03-13T16:17:37Z</time>
      </trkpt>
      <trkpt lat="43.05136" lon="0.82086">
        <ele>424</ele>
        <time>2021-03-13T16:17:38Z</time>
      </trkpt>
      <trkpt lat="43.05133" lon="0.82086">
        <ele>424</ele>
        <time>2021-03-13T16:17:39Z</time>
      </trkpt>
      <trkpt lat="43.0513" lon="0.82087">
        <ele>423</ele>
        <time>2021-03-13T16:17:40Z</time>
      </trkpt>
      <trkpt lat="43.05127" lon="0.82087">
        <ele>423</ele>
        <time>2021-03-13T16:17:41Z</time>
      </trkpt>
      <trkpt lat="43.05123" lon="0.82089">
        <ele>423</ele>
        <time>2021-03-13T16:17:42Z</time>
      </trkpt>
      <trkpt lat="43.05119" lon="0.8209">
        <ele>423</ele>
        <time>2021-03-13T16:17:43Z</time>
      </trkpt>
      <trkpt lat="43.05114" lon="0.82092">
        <ele>423</ele>
        <time>2021-03-13T16:17:44Z</time>
      </trkpt>
      <trkpt lat="43.0511" lon="0.82095">
        <ele>423</ele>
        <time>2021-03-13T16:17:45Z</time>
      </trkpt>
      <trkpt lat="43.05106" lon="0.82096">
        <ele>423</ele>
        <time>2021-03-13T16:17:46Z</time>
      </trkpt>
      <trkpt lat="43.05102" lon="0.82098">
        <ele>423</ele>
        <time>2021-03-13T16:17:47Z</time>
      </trkpt>
      <trkpt lat="43.05094" lon="0.82102">
        <ele>423</ele>
        <time>2021-03-13T16:17:48Z</time>
      </trkpt>
      <trkpt lat="43.05088" lon="0.82104">
        <ele>423</ele>
        <time>2021-03-13T16:17:49Z</time>
      </trkpt>
      <trkpt lat="43.05083" lon="0.82106">
        <ele>420</ele>
        <time>2021-03-13T16:17:50Z</time>
      </trkpt>
      <trkpt lat="43.05076" lon="0.82109">
        <ele>420</ele>
        <time>2021-03-13T16:17:51Z</time>
      </trkpt>
      <trkpt lat="43.0507" lon="0.82112">
        <ele>420</ele>
        <time>2021-03-13T16:17:52Z</time>
      </trkpt>
      <trkpt lat="43.05064" lon="0.82115">
        <ele>420</ele>
        <time>2021-03-13T16:17:53Z</time>
      </trkpt>
      <trkpt lat="43.05058" lon="0.82119">
        <ele>420</ele>
        <time>2021-03-13T16:17:54Z</time>
      </trkpt>
      <trkpt lat="43.05053" lon="0.82122">
        <ele>414</ele>
        <time>2021-03-13T16:17:55Z</time>
      </trkpt>
      <trkpt lat="43.05048" lon="0.82124">
        <ele>414</ele>
        <time>2021-03-13T16:17:56Z</time>
      </trkpt>
      <trkpt lat="43.05045" lon="0.82127">
        <ele>414</ele>
        <time>2021-03-13T16:17:57Z</time>
      </trkpt>
      <trkpt lat="43.05042" lon="0.82129">
        <ele>414</ele>
        <time>2021-03-13T16:17:58Z</time>
      </trkpt>
      <trkpt lat="43.05041" lon="0.82133">
        <ele>414</ele>
        <time>2021-03-13T16:17:59Z</time>
      </trkpt>
      <trkpt lat="43.05041" lon="0.82137">
        <ele>409</ele>
        <time>2021-03-13T16:18:00Z</time>
      </trkpt>
      <trkpt lat="43.05042" lon="0.82142">
        <ele>409</ele>
        <time>2021-03-13T16:18:01Z</time>
      </trkpt>
      <trkpt lat="43.05043" lon="0.82146">
        <ele>409</ele>
        <time>2021-03-13T16:18:02Z</time>
      </trkpt>
      <trkpt lat="43.05044" lon="0.82151">
        <ele>409</ele>
        <time>2021-03-13T16:18:03Z</time>
      </trkpt>
      <trkpt lat="43.05046" lon="0.82155">
        <ele>409</ele>
        <time>2021-03-13T16:18:04Z</time>
      </trkpt>
      <trkpt lat="43.05047" lon="0.8216">
        <ele>409</ele>
        <time>2021-03-13T16:18:05Z</time>
      </trkpt>
      <trkpt lat="43.05049" lon="0.82164">
        <ele>409</ele>
        <time>2021-03-13T16:18:06Z</time>
      </trkpt>
      <trkpt lat="43.0505" lon="0.82166">
        <ele>409</ele>
        <time>2021-03-13T16:18:07Z</time>
      </trkpt>
      <trkpt lat="43.05051" lon="0.82168">
        <ele>409</ele>
        <time>2021-03-13T16:18:08Z</time>
      </trkpt>
      <trkpt lat="43.05052" lon="0.8217">
        <ele>410</ele>
        <time>2021-03-13T16:18:09Z</time>
      </trkpt>
      <trkpt lat="43.05055" lon="0.82179">
        <ele>410</ele>
        <time>2021-03-13T16:18:10Z</time>
      </trkpt>
      <trkpt lat="43.05056" lon="0.82181">
        <ele>410</ele>
        <time>2021-03-13T16:18:11Z</time>
      </trkpt>
      <trkpt lat="43.05057" lon="0.82183">
        <ele>410</ele>
        <time>2021-03-13T16:18:12Z</time>
      </trkpt>
      <trkpt lat="43.05061" lon="0.82193">
        <ele>410</ele>
        <time>2021-03-13T16:18:13Z</time>
      </trkpt>
      <trkpt lat="43.05063" lon="0.82197">
        <ele>410</ele>
        <time>2021-03-13T16:18:14Z</time>
      </trkpt>
      <trkpt lat="43.05065" lon="0.82201">
        <ele>410</ele>
        <time>2021-03-13T16:18:15Z</time>
      </trkpt>
      <trkpt lat="43.05067" lon="0.82205">
        <ele>410</ele>
        <time>2021-03-13T16:18:16Z</time>
      </trkpt>
      <trkpt lat="43.05069" lon="0.82209">
        <ele>410</ele>
        <time>2021-03-13T16:18:17Z</time>
      </trkpt>
      <trkpt lat="43.05072" lon="0.82214">
        <ele>410</ele>
        <time>2021-03-13T16:18:18Z</time>
      </trkpt>
      <trkpt lat="43.05075" lon="0.82218">
        <ele>410</ele>
        <time>2021-03-13T16:18:19Z</time>
      </trkpt>
      <trkpt lat="43.05076" lon="0.82221">
        <ele>410</ele>
        <time>2021-03-13T16:18:20Z</time>
      </trkpt>
      <trkpt lat="43.05078" lon="0.82224">
        <ele>410</ele>
        <time>2021-03-13T16:18:21Z</time>
      </trkpt>
      <trkpt lat="43.05083" lon="0.82235">
        <ele>410</ele>
        <time>2021-03-13T16:18:22Z</time>
      </trkpt>
      <trkpt lat="43.05086" lon="0.8224">
        <ele>410</ele>
        <time>2021-03-13T16:18:23Z</time>
      </trkpt>
      <trkpt lat="43.05091" lon="0.82249">
        <ele>410</ele>
        <time>2021-03-13T16:18:24Z</time>
      </trkpt>
      <trkpt lat="43.05095" lon="0.82257">
        <ele>410</ele>
        <time>2021-03-13T16:18:25Z</time>
      </trkpt>
      <trkpt lat="43.05099" lon="0.82264">
        <ele>410</ele>
        <time>2021-03-13T16:18:26Z</time>
      </trkpt>
      <trkpt lat="43.05103" lon="0.82271">
        <ele>410</ele>
        <time>2021-03-13T16:18:27Z</time>
      </trkpt>
      <trkpt lat="43.05108" lon="0.82278">
        <ele>410</ele>
        <time>2021-03-13T16:18:28Z</time>
      </trkpt>
      <trkpt lat="43.05113" lon="0.82286">
        <ele>410</ele>
        <time>2021-03-13T16:18:29Z</time>
      </trkpt>
      <trkpt lat="43.05118" lon="0.82294">
        <ele>407</ele>
        <time>2021-03-13T16:18:30Z</time>
      </trkpt>
      <trkpt lat="43.05124" lon="0.82304">
        <ele>407</ele>
        <time>2021-03-13T16:18:31Z</time>
      </trkpt>
      <trkpt lat="43.0513" lon="0.82313">
        <ele>407</ele>
        <time>2021-03-13T16:18:32Z</time>
      </trkpt>
      <trkpt lat="43.05136" lon="0.82322">
        <ele>407</ele>
        <time>2021-03-13T16:18:33Z</time>
      </trkpt>
      <trkpt lat="43.05142" lon="0.82332">
        <ele>407</ele>
        <time>2021-03-13T16:18:34Z</time>
      </trkpt>
      <trkpt lat="43.05147" lon="0.82339">
        <ele>401</ele>
        <time>2021-03-13T16:18:35Z</time>
      </trkpt>
      <trkpt lat="43.05151" lon="0.82346">
        <ele>401</ele>
        <time>2021-03-13T16:18:36Z</time>
      </trkpt>
      <trkpt lat="43.0516" lon="0.8236">
        <ele>401</ele>
        <time>2021-03-13T16:18:37Z</time>
      </trkpt>
      <trkpt lat="43.05165" lon="0.82368">
        <ele>401</ele>
        <time>2021-03-13T16:18:38Z</time>
      </trkpt>
      <trkpt lat="43.05167" lon="0.82372">
        <ele>401</ele>
        <time>2021-03-13T16:18:39Z</time>
      </trkpt>
      <trkpt lat="43.05168" lon="0.82376">
        <ele>396</ele>
        <time>2021-03-13T16:18:40Z</time>
      </trkpt>
      <trkpt lat="43.05172" lon="0.82391">
        <ele>392</ele>
        <time>2021-03-13T16:18:41Z</time>
      </trkpt>
      <trkpt lat="43.05173" lon="0.82398">
        <ele>391</ele>
        <time>2021-03-13T16:18:42Z</time>
      </trkpt>
      <trkpt lat="43.05173" lon="0.82404">
        <ele>391</ele>
        <time>2021-03-13T16:18:43Z</time>
      </trkpt>
      <trkpt lat="43.05174" lon="0.82409">
        <ele>391</ele>
        <time>2021-03-13T16:18:44Z</time>
      </trkpt>
      <trkpt lat="43.05176" lon="0.82421">
        <ele>391</ele>
        <time>2021-03-13T16:18:45Z</time>
      </trkpt>
      <trkpt lat="43.05176" lon="0.82429">
        <ele>391</ele>
        <time>2021-03-13T16:18:46Z</time>
      </trkpt>
      <trkpt lat="43.05176" lon="0.82437">
        <ele>391</ele>
        <time>2021-03-13T16:18:47Z</time>
      </trkpt>
      <trkpt lat="43.05177" lon="0.82453">
        <ele>391</ele>
        <time>2021-03-13T16:18:48Z</time>
      </trkpt>
      <trkpt lat="43.05177" lon="0.82453">
        <ele>391</ele>
        <time>2021-03-13T16:18:49Z</time>
      </trkpt>
      <trkpt lat="43.05177" lon="0.82456">
        <ele>391</ele>
        <time>2021-03-13T16:18:50Z</time>
      </trkpt>
      <trkpt lat="43.05177" lon="0.8246">
        <ele>391</ele>
        <time>2021-03-13T16:18:51Z</time>
      </trkpt>
      <trkpt lat="43.05177" lon="0.8247">
        <ele>391</ele>
        <time>2021-03-13T16:18:52Z</time>
      </trkpt>
      <trkpt lat="43.05177" lon="0.82473">
        <ele>391</ele>
        <time>2021-03-13T16:18:53Z</time>
      </trkpt>
      <trkpt lat="43.05177" lon="0.82476">
        <ele>391</ele>
        <time>2021-03-13T16:18:54Z</time>
      </trkpt>
      <trkpt lat="43.05176" lon="0.82488">
        <ele>391</ele>
        <time>2021-03-13T16:18:55Z</time>
      </trkpt>
      <trkpt lat="43.05176" lon="0.82491">
        <ele>391</ele>
        <time>2021-03-13T16:18:56Z</time>
      </trkpt>
      <trkpt lat="43.05176" lon="0.82494">
        <ele>391</ele>
        <time>2021-03-13T16:18:57Z</time>
      </trkpt>
      <trkpt lat="43.05176" lon="0.82509">
        <ele>391</ele>
        <time>2021-03-13T16:18:58Z</time>
      </trkpt>
      <trkpt lat="43.05176" lon="0.82515">
        <ele>391</ele>
        <time>2021-03-13T16:18:59Z</time>
      </trkpt>
      <trkpt lat="43.05175" lon="0.82521">
        <ele>391</ele>
        <time>2021-03-13T16:19:00Z</time>
      </trkpt>
      <trkpt lat="43.05175" lon="0.82528">
        <ele>391</ele>
        <time>2021-03-13T16:19:01Z</time>
      </trkpt>
      <trkpt lat="43.05175" lon="0.82534">
        <ele>391</ele>
        <time>2021-03-13T16:19:02Z</time>
      </trkpt>
      <trkpt lat="43.05175" lon="0.82539">
        <ele>391</ele>
        <time>2021-03-13T16:19:03Z</time>
      </trkpt>
      <trkpt lat="43.05175" lon="0.82545">
        <ele>391</ele>
        <time>2021-03-13T16:19:04Z</time>
      </trkpt>
      <trkpt lat="43.05175" lon="0.82548">
        <ele>391</ele>
        <time>2021-03-13T16:19:05Z</time>
      </trkpt>
      <trkpt lat="43.05175" lon="0.8255">
        <ele>391</ele>
        <time>2021-03-13T16:19:06Z</time>
      </trkpt>
      <trkpt lat="43.05175" lon="0.82553">
        <ele>391</ele>
        <time>2021-03-13T16:19:07Z</time>
      </trkpt>
      <trkpt lat="43.05175" lon="0.82563">
        <ele>391</ele>
        <time>2021-03-13T16:19:08Z</time>
      </trkpt>
      <trkpt lat="43.05175" lon="0.82566">
        <ele>391</ele>
        <time>2021-03-13T16:19:09Z</time>
      </trkpt>
      <trkpt lat="43.05175" lon="0.82568">
        <ele>392</ele>
        <time>2021-03-13T16:19:10Z</time>
      </trkpt>
      <trkpt lat="43.05176" lon="0.82578">
        <ele>392</ele>
        <time>2021-03-13T16:19:11Z</time>
      </trkpt>
      <trkpt lat="43.05176" lon="0.82581">
        <ele>392</ele>
        <time>2021-03-13T16:19:12Z</time>
      </trkpt>
      <trkpt lat="43.05176" lon="0.82583">
        <ele>392</ele>
        <time>2021-03-13T16:19:13Z</time>
      </trkpt>
      <trkpt lat="43.05176" lon="0.82596">
        <ele>392</ele>
        <time>2021-03-13T16:19:14Z</time>
      </trkpt>
      <trkpt lat="43.05176" lon="0.82601">
        <ele>392</ele>
        <time>2021-03-13T16:19:15Z</time>
      </trkpt>
      <trkpt lat="43.05176" lon="0.82606">
        <ele>392</ele>
        <time>2021-03-13T16:19:16Z</time>
      </trkpt>
      <trkpt lat="43.05176" lon="0.8261">
        <ele>392</ele>
        <time>2021-03-13T16:19:17Z</time>
      </trkpt>
      <trkpt lat="43.05175" lon="0.82615">
        <ele>392</ele>
        <time>2021-03-13T16:19:18Z</time>
      </trkpt>
      <trkpt lat="43.05175" lon="0.8262">
        <ele>392</ele>
        <time>2021-03-13T16:19:19Z</time>
      </trkpt>
      <trkpt lat="43.05172" lon="0.82623">
        <ele>395</ele>
        <time>2021-03-13T16:19:20Z</time>
      </trkpt>
      <trkpt lat="43.0517" lon="0.82626">
        <ele>395</ele>
        <time>2021-03-13T16:19:21Z</time>
      </trkpt>
      <trkpt lat="43.05166" lon="0.82627">
        <ele>395</ele>
        <time>2021-03-13T16:19:22Z</time>
      </trkpt>
      <trkpt lat="43.05162" lon="0.82628">
        <ele>395</ele>
        <time>2021-03-13T16:19:23Z</time>
      </trkpt>
      <trkpt lat="43.05159" lon="0.82629">
        <ele>395</ele>
        <time>2021-03-13T16:19:24Z</time>
      </trkpt>
      <trkpt lat="43.05155" lon="0.8263">
        <ele>396</ele>
        <time>2021-03-13T16:19:25Z</time>
      </trkpt>
      <trkpt lat="43.05151" lon="0.82631">
        <ele>396</ele>
        <time>2021-03-13T16:19:26Z</time>
      </trkpt>
      <trkpt lat="43.05148" lon="0.82632">
        <ele>396</ele>
        <time>2021-03-13T16:19:27Z</time>
      </trkpt>
      <trkpt lat="43.05144" lon="0.82633">
        <ele>396</ele>
        <time>2021-03-13T16:19:28Z</time>
      </trkpt>
      <trkpt lat="43.0514" lon="0.82635">
        <ele>395</ele>
        <time>2021-03-13T16:19:29Z</time>
      </trkpt>
      <trkpt lat="43.05136" lon="0.82636">
        <ele>397</ele>
        <time>2021-03-13T16:19:30Z</time>
      </trkpt>
      <trkpt lat="43.05133" lon="0.82637">
        <ele>397</ele>
        <time>2021-03-13T16:19:31Z</time>
      </trkpt>
      <trkpt lat="43.05129" lon="0.82639">
        <ele>397</ele>
        <time>2021-03-13T16:19:32Z</time>
      </trkpt>
      <trkpt lat="43.05125" lon="0.8264">
        <ele>397</ele>
        <time>2021-03-13T16:19:33Z</time>
      </trkpt>
      <trkpt lat="43.05121" lon="0.82642">
        <ele>397</ele>
        <time>2021-03-13T16:19:34Z</time>
      </trkpt>
      <trkpt lat="43.05117" lon="0.82643">
        <ele>397</ele>
        <time>2021-03-13T16:19:35Z</time>
      </trkpt>
      <trkpt lat="43.05113" lon="0.82645">
        <ele>397</ele>
        <time>2021-03-13T16:19:36Z</time>
      </trkpt>
      <trkpt lat="43.05109" lon="0.82647">
        <ele>397</ele>
        <time>2021-03-13T16:19:37Z</time>
      </trkpt>
      <trkpt lat="43.05105" lon="0.82649">
        <ele>397</ele>
        <time>2021-03-13T16:19:38Z</time>
      </trkpt>
      <trkpt lat="43.05101" lon="0.82652">
        <ele>397</ele>
        <time>2021-03-13T16:19:39Z</time>
      </trkpt>
      <trkpt lat="43.05097" lon="0.82654">
        <ele>398</ele>
        <time>2021-03-13T16:19:40Z</time>
      </trkpt>
      <trkpt lat="43.05094" lon="0.82657">
        <ele>398</ele>
        <time>2021-03-13T16:19:41Z</time>
      </trkpt>
      <trkpt lat="43.0509" lon="0.82661">
        <ele>398</ele>
        <time>2021-03-13T16:19:42Z</time>
      </trkpt>
      <trkpt lat="43.05087" lon="0.82664">
        <ele>398</ele>
        <time>2021-03-13T16:19:43Z</time>
      </trkpt>
      <trkpt lat="43.05084" lon="0.82668">
        <ele>398</ele>
        <time>2021-03-13T16:19:44Z</time>
      </trkpt>
      <trkpt lat="43.0508" lon="0.82672">
        <ele>398</ele>
        <time>2021-03-13T16:19:45Z</time>
      </trkpt>
      <trkpt lat="43.05078" lon="0.82676">
        <ele>398</ele>
        <time>2021-03-13T16:19:46Z</time>
      </trkpt>
      <trkpt lat="43.05075" lon="0.8268">
        <ele>398</ele>
        <time>2021-03-13T16:19:47Z</time>
      </trkpt>
      <trkpt lat="43.05072" lon="0.82685">
        <ele>398</ele>
        <time>2021-03-13T16:19:48Z</time>
      </trkpt>
      <trkpt lat="43.05069" lon="0.82689">
        <ele>398</ele>
        <time>2021-03-13T16:19:49Z</time>
      </trkpt>
      <trkpt lat="43.05067" lon="0.82694">
        <ele>398</ele>
        <time>2021-03-13T16:19:50Z</time>
      </trkpt>
      <trkpt lat="43.05065" lon="0.82699">
        <ele>398</ele>
        <time>2021-03-13T16:19:51Z</time>
      </trkpt>
      <trkpt lat="43.05063" lon="0.82704">
        <ele>398</ele>
        <time>2021-03-13T16:19:52Z</time>
      </trkpt>
      <trkpt lat="43.05061" lon="0.82709">
        <ele>398</ele>
        <time>2021-03-13T16:19:53Z</time>
      </trkpt>
      <trkpt lat="43.05059" lon="0.82715">
        <ele>398</ele>
        <time>2021-03-13T16:19:54Z</time>
      </trkpt>
      <trkpt lat="43.05057" lon="0.8272">
        <ele>398</ele>
        <time>2021-03-13T16:19:55Z</time>
      </trkpt>
      <trkpt lat="43.05056" lon="0.82725">
        <ele>398</ele>
        <time>2021-03-13T16:19:56Z</time>
      </trkpt>
      <trkpt lat="43.05054" lon="0.8273">
        <ele>398</ele>
        <time>2021-03-13T16:19:57Z</time>
      </trkpt>
      <trkpt lat="43.05053" lon="0.82735">
        <ele>398</ele>
        <time>2021-03-13T16:19:58Z</time>
      </trkpt>
      <trkpt lat="43.05052" lon="0.8274">
        <ele>398</ele>
        <time>2021-03-13T16:19:59Z</time>
      </trkpt>
      <trkpt lat="43.0505" lon="0.82745">
        <ele>398</ele>
        <time>2021-03-13T16:20:00Z</time>
      </trkpt>
      <trkpt lat="43.05049" lon="0.8275">
        <ele>398</ele>
        <time>2021-03-13T16:20:01Z</time>
      </trkpt>
      <trkpt lat="43.05048" lon="0.82755">
        <ele>398</ele>
        <time>2021-03-13T16:20:02Z</time>
      </trkpt>
      <trkpt lat="43.05046" lon="0.82759">
        <ele>398</ele>
        <time>2021-03-13T16:20:03Z</time>
      </trkpt>
      <trkpt lat="43.05046" lon="0.82762">
        <ele>398</ele>
        <time>2021-03-13T16:20:04Z</time>
      </trkpt>
      <trkpt lat="43.05045" lon="0.82764">
        <ele>398</ele>
        <time>2021-03-13T16:20:05Z</time>
      </trkpt>
      <trkpt lat="43.05044" lon="0.82766">
        <ele>398</ele>
        <time>2021-03-13T16:20:06Z</time>
      </trkpt>
      <trkpt lat="43.05042" lon="0.82776">
        <ele>398</ele>
        <time>2021-03-13T16:20:07Z</time>
      </trkpt>
      <trkpt lat="43.05041" lon="0.82778">
        <ele>398</ele>
        <time>2021-03-13T16:20:08Z</time>
      </trkpt>
      <trkpt lat="43.05041" lon="0.8278">
        <ele>398</ele>
        <time>2021-03-13T16:20:09Z</time>
      </trkpt>
      <trkpt lat="43.05038" lon="0.82791">
        <ele>401</ele>
        <time>2021-03-13T16:20:10Z</time>
      </trkpt>
      <trkpt lat="43.05036" lon="0.82796">
        <ele>401</ele>
        <time>2021-03-13T16:20:11Z</time>
      </trkpt>
      <trkpt lat="43.05035" lon="0.82798">
        <ele>401</ele>
        <time>2021-03-13T16:20:12Z</time>
      </trkpt>
      <trkpt lat="43.05035" lon="0.828">
        <ele>401</ele>
        <time>2021-03-13T16:20:13Z</time>
      </trkpt>
      <trkpt lat="43.05034" lon="0.82802">
        <ele>401</ele>
        <time>2021-03-13T16:20:14Z</time>
      </trkpt>
      <trkpt lat="43.0503" lon="0.8281">
        <ele>403</ele>
        <time>2021-03-13T16:20:15Z</time>
      </trkpt>
      <trkpt lat="43.05029" lon="0.82812">
        <ele>403</ele>
        <time>2021-03-13T16:20:16Z</time>
      </trkpt>
      <trkpt lat="43.05029" lon="0.82815">
        <ele>403</ele>
        <time>2021-03-13T16:20:17Z</time>
      </trkpt>
      <trkpt lat="43.05024" lon="0.82824">
        <ele>403</ele>
        <time>2021-03-13T16:20:18Z</time>
      </trkpt>
      <trkpt lat="43.05022" lon="0.82828">
        <ele>403</ele>
        <time>2021-03-13T16:20:19Z</time>
      </trkpt>
      <trkpt lat="43.0502" lon="0.8283">
        <ele>404</ele>
        <time>2021-03-13T16:20:20Z</time>
      </trkpt>
      <trkpt lat="43.05019" lon="0.82832">
        <ele>404</ele>
        <time>2021-03-13T16:20:21Z</time>
      </trkpt>
      <trkpt lat="43.05018" lon="0.82833">
        <ele>404</ele>
        <time>2021-03-13T16:20:22Z</time>
      </trkpt>
      <trkpt lat="43.05012" lon="0.82842">
        <ele>404</ele>
        <time>2021-03-13T16:20:23Z</time>
      </trkpt>
      <trkpt lat="43.0501" lon="0.82846">
        <ele>404</ele>
        <time>2021-03-13T16:20:24Z</time>
      </trkpt>
      <trkpt lat="43.05008" lon="0.82849">
        <ele>404</ele>
        <time>2021-03-13T16:20:25Z</time>
      </trkpt>
      <trkpt lat="43.05006" lon="0.82853">
        <ele>404</ele>
        <time>2021-03-13T16:20:26Z</time>
      </trkpt>
      <trkpt lat="43.05004" lon="0.82857">
        <ele>404</ele>
        <time>2021-03-13T16:20:27Z</time>
      </trkpt>
      <trkpt lat="43.05002" lon="0.8286">
        <ele>404</ele>
        <time>2021-03-13T16:20:28Z</time>
      </trkpt>
      <trkpt lat="43.05" lon="0.82864">
        <ele>404</ele>
        <time>2021-03-13T16:20:29Z</time>
      </trkpt>
      <trkpt lat="43.04998" lon="0.82868">
        <ele>405</ele>
        <time>2021-03-13T16:20:30Z</time>
      </trkpt>
      <trkpt lat="43.04997" lon="0.8287">
        <ele>405</ele>
        <time>2021-03-13T16:20:31Z</time>
      </trkpt>
      <trkpt lat="43.04996" lon="0.82872">
        <ele>405</ele>
        <time>2021-03-13T16:20:32Z</time>
      </trkpt>
      <trkpt lat="43.04995" lon="0.82875">
        <ele>405</ele>
        <time>2021-03-13T16:20:33Z</time>
      </trkpt>
      <trkpt lat="43.04992" lon="0.82883">
        <ele>405</ele>
        <time>2021-03-13T16:20:34Z</time>
      </trkpt>
      <trkpt lat="43.04991" lon="0.82886">
        <ele>405</ele>
        <time>2021-03-13T16:20:35Z</time>
      </trkpt>
      <trkpt lat="43.0499" lon="0.82888">
        <ele>405</ele>
        <time>2021-03-13T16:20:36Z</time>
      </trkpt>
      <trkpt lat="43.04987" lon="0.82899">
        <ele>405</ele>
        <time>2021-03-13T16:20:37Z</time>
      </trkpt>
      <trkpt lat="43.04986" lon="0.82904">
        <ele>405</ele>
        <time>2021-03-13T16:20:38Z</time>
      </trkpt>
      <trkpt lat="43.04985" lon="0.82908">
        <ele>405</ele>
        <time>2021-03-13T16:20:39Z</time>
      </trkpt>
      <trkpt lat="43.04985" lon="0.8291">
        <ele>405</ele>
        <time>2021-03-13T16:20:40Z</time>
      </trkpt>
      <trkpt lat="43.04984" lon="0.82912">
        <ele>405</ele>
        <time>2021-03-13T16:20:41Z</time>
      </trkpt>
      <trkpt lat="43.04984" lon="0.82914">
        <ele>405</ele>
        <time>2021-03-13T16:20:42Z</time>
      </trkpt>
      <trkpt lat="43.04984" lon="0.82916">
        <ele>405</ele>
        <time>2021-03-13T16:20:43Z</time>
      </trkpt>
      <trkpt lat="43.04984" lon="0.82929">
        <ele>405</ele>
        <time>2021-03-13T16:20:44Z</time>
      </trkpt>
      <trkpt lat="43.04984" lon="0.82933">
        <ele>405</ele>
        <time>2021-03-13T16:20:45Z</time>
      </trkpt>
      <trkpt lat="43.04984" lon="0.82937">
        <ele>405</ele>
        <time>2021-03-13T16:20:46Z</time>
      </trkpt>
      <trkpt lat="43.04984" lon="0.82939">
        <ele>405</ele>
        <time>2021-03-13T16:20:47Z</time>
      </trkpt>
      <trkpt lat="43.04985" lon="0.82941">
        <ele>405</ele>
        <time>2021-03-13T16:20:48Z</time>
      </trkpt>
      <trkpt lat="43.04985" lon="0.82943">
        <ele>405</ele>
        <time>2021-03-13T16:20:49Z</time>
      </trkpt>
      <trkpt lat="43.04985" lon="0.82944">
        <ele>407</ele>
        <time>2021-03-13T16:20:50Z</time>
      </trkpt>
      <trkpt lat="43.04986" lon="0.82955">
        <ele>407</ele>
        <time>2021-03-13T16:20:51Z</time>
      </trkpt>
      <trkpt lat="43.04985" lon="0.82959">
        <ele>407</ele>
        <time>2021-03-13T16:20:52Z</time>
      </trkpt>
      <trkpt lat="43.04985" lon="0.82963">
        <ele>407</ele>
        <time>2021-03-13T16:20:53Z</time>
      </trkpt>
      <trkpt lat="43.04984" lon="0.82966">
        <ele>407</ele>
        <time>2021-03-13T16:20:54Z</time>
      </trkpt>
      <trkpt lat="43.04984" lon="0.82969">
        <ele>407</ele>
        <time>2021-03-13T16:20:55Z</time>
      </trkpt>
      <trkpt lat="43.04983" lon="0.82972">
        <ele>407</ele>
        <time>2021-03-13T16:20:56Z</time>
      </trkpt>
      <trkpt lat="43.04982" lon="0.82975">
        <ele>406</ele>
        <time>2021-03-13T16:20:57Z</time>
      </trkpt>
      <trkpt lat="43.04981" lon="0.82978">
        <ele>406</ele>
        <time>2021-03-13T16:20:58Z</time>
      </trkpt>
      <trkpt lat="43.0498" lon="0.82981">
        <ele>406</ele>
        <time>2021-03-13T16:20:59Z</time>
      </trkpt>
      <trkpt lat="43.04979" lon="0.82983">
        <ele>410</ele>
        <time>2021-03-13T16:21:00Z</time>
      </trkpt>
      <trkpt lat="43.04978" lon="0.82986">
        <ele>410</ele>
        <time>2021-03-13T16:21:01Z</time>
      </trkpt>
      <trkpt lat="43.04977" lon="0.82988">
        <ele>410</ele>
        <time>2021-03-13T16:21:02Z</time>
      </trkpt>
      <trkpt lat="43.04975" lon="0.82991">
        <ele>410</ele>
        <time>2021-03-13T16:21:03Z</time>
      </trkpt>
      <trkpt lat="43.04974" lon="0.82993">
        <ele>410</ele>
        <time>2021-03-13T16:21:04Z</time>
      </trkpt>
      <trkpt lat="43.04972" lon="0.82995">
        <ele>411</ele>
        <time>2021-03-13T16:21:05Z</time>
      </trkpt>
      <trkpt lat="43.04971" lon="0.82997">
        <ele>411</ele>
        <time>2021-03-13T16:21:06Z</time>
      </trkpt>
      <trkpt lat="43.04969" lon="0.83">
        <ele>411</ele>
        <time>2021-03-13T16:21:07Z</time>
      </trkpt>
      <trkpt lat="43.04967" lon="0.83002">
        <ele>411</ele>
        <time>2021-03-13T16:21:08Z</time>
      </trkpt>
      <trkpt lat="43.04965" lon="0.83005">
        <ele>411</ele>
        <time>2021-03-13T16:21:09Z</time>
      </trkpt>
      <trkpt lat="43.04964" lon="0.83007">
        <ele>412</ele>
        <time>2021-03-13T16:21:10Z</time>
      </trkpt>
      <trkpt lat="43.04962" lon="0.83009">
        <ele>412</ele>
        <time>2021-03-13T16:21:11Z</time>
      </trkpt>
      <trkpt lat="43.04961" lon="0.83011">
        <ele>412</ele>
        <time>2021-03-13T16:21:12Z</time>
      </trkpt>
      <trkpt lat="43.04959" lon="0.83012">
        <ele>412</ele>
        <time>2021-03-13T16:21:13Z</time>
      </trkpt>
      <trkpt lat="43.04958" lon="0.83014">
        <ele>412</ele>
        <time>2021-03-13T16:21:14Z</time>
      </trkpt>
      <trkpt lat="43.04956" lon="0.83016">
        <ele>414</ele>
        <time>2021-03-13T16:21:15Z</time>
      </trkpt>
      <trkpt lat="43.04955" lon="0.83018">
        <ele>414</ele>
        <time>2021-03-13T16:21:16Z</time>
      </trkpt>
      <trkpt lat="43.04953" lon="0.8302">
        <ele>414</ele>
        <time>2021-03-13T16:21:17Z</time>
      </trkpt>
      <trkpt lat="43.04952" lon="0.83022">
        <ele>414</ele>
        <time>2021-03-13T16:21:18Z</time>
      </trkpt>
      <trkpt lat="43.04951" lon="0.83023">
        <ele>414</ele>
        <time>2021-03-13T16:21:19Z</time>
      </trkpt>
      <trkpt lat="43.0495" lon="0.83025">
        <ele>415</ele>
        <time>2021-03-13T16:21:20Z</time>
      </trkpt>
      <trkpt lat="43.04948" lon="0.83027">
        <ele>415</ele>
        <time>2021-03-13T16:21:21Z</time>
      </trkpt>
      <trkpt lat="43.04947" lon="0.83029">
        <ele>415</ele>
        <time>2021-03-13T16:21:22Z</time>
      </trkpt>
      <trkpt lat="43.04946" lon="0.83032">
        <ele>415</ele>
        <time>2021-03-13T16:21:23Z</time>
      </trkpt>
      <trkpt lat="43.04944" lon="0.83034">
        <ele>415</ele>
        <time>2021-03-13T16:21:24Z</time>
      </trkpt>
      <trkpt lat="43.04943" lon="0.83037">
        <ele>416</ele>
        <time>2021-03-13T16:21:25Z</time>
      </trkpt>
      <trkpt lat="43.04942" lon="0.83039">
        <ele>416</ele>
        <time>2021-03-13T16:21:26Z</time>
      </trkpt>
      <trkpt lat="43.0494" lon="0.83042">
        <ele>416</ele>
        <time>2021-03-13T16:21:27Z</time>
      </trkpt>
      <trkpt lat="43.04939" lon="0.83044">
        <ele>416</ele>
        <time>2021-03-13T16:21:28Z</time>
      </trkpt>
      <trkpt lat="43.04937" lon="0.83047">
        <ele>416</ele>
        <time>2021-03-13T16:21:29Z</time>
      </trkpt>
      <trkpt lat="43.04936" lon="0.83049">
        <ele>417</ele>
        <time>2021-03-13T16:21:30Z</time>
      </trkpt>
      <trkpt lat="43.04935" lon="0.83051">
        <ele>417</ele>
        <time>2021-03-13T16:21:31Z</time>
      </trkpt>
      <trkpt lat="43.04933" lon="0.83054">
        <ele>417</ele>
        <time>2021-03-13T16:21:32Z</time>
      </trkpt>
      <trkpt lat="43.04932" lon="0.83056">
        <ele>417</ele>
        <time>2021-03-13T16:21:33Z</time>
      </trkpt>
      <trkpt lat="43.04931" lon="0.83059">
        <ele>417</ele>
        <time>2021-03-13T16:21:34Z</time>
      </trkpt>
      <trkpt lat="43.0493" lon="0.83061">
        <ele>418</ele>
        <time>2021-03-13T16:21:35Z</time>
      </trkpt>
      <trkpt lat="43.04929" lon="0.83062">
        <ele>418</ele>
        <time>2021-03-13T16:21:36Z</time>
      </trkpt>
      <trkpt lat="43.04928" lon="0.83064">
        <ele>418</ele>
        <time>2021-03-13T16:21:37Z</time>
      </trkpt>
      <trkpt lat="43.04927" lon="0.83066">
        <ele>418</ele>
        <time>2021-03-13T16:21:38Z</time>
      </trkpt>
      <trkpt lat="43.04926" lon="0.83068">
        <ele>418</ele>
        <time>2021-03-13T16:21:39Z</time>
      </trkpt>
      <trkpt lat="43.04925" lon="0.83071">
        <ele>419</ele>
        <time>2021-03-13T16:21:40Z</time>
      </trkpt>
      <trkpt lat="43.04924" lon="0.83073">
        <ele>419</ele>
        <time>2021-03-13T16:21:41Z</time>
      </trkpt>
      <trkpt lat="43.04923" lon="0.83076">
        <ele>419</ele>
        <time>2021-03-13T16:21:42Z</time>
      </trkpt>
      <trkpt lat="43.04921" lon="0.83079">
        <ele>419</ele>
        <time>2021-03-13T16:21:43Z</time>
      </trkpt>
      <trkpt lat="43.0492" lon="0.83081">
        <ele>419</ele>
        <time>2021-03-13T16:21:44Z</time>
      </trkpt>
      <trkpt lat="43.04919" lon="0.83084">
        <ele>419</ele>
        <time>2021-03-13T16:21:45Z</time>
      </trkpt>
      <trkpt lat="43.04918" lon="0.83086">
        <ele>419</ele>
        <time>2021-03-13T16:21:46Z</time>
      </trkpt>
      <trkpt lat="43.04917" lon="0.83089">
        <ele>419</ele>
        <time>2021-03-13T16:21:47Z</time>
      </trkpt>
      <trkpt lat="43.04916" lon="0.83091">
        <ele>419</ele>
        <time>2021-03-13T16:21:48Z</time>
      </trkpt>
      <trkpt lat="43.04915" lon="0.83093">
        <ele>419</ele>
        <time>2021-03-13T16:21:49Z</time>
      </trkpt>
      <trkpt lat="43.04914" lon="0.83095">
        <ele>422</ele>
        <time>2021-03-13T16:21:50Z</time>
      </trkpt>
      <trkpt lat="43.04913" lon="0.83098">
        <ele>422</ele>
        <time>2021-03-13T16:21:51Z</time>
      </trkpt>
      <trkpt lat="43.04912" lon="0.83101">
        <ele>422</ele>
        <time>2021-03-13T16:21:52Z</time>
      </trkpt>
      <trkpt lat="43.04912" lon="0.83104">
        <ele>422</ele>
        <time>2021-03-13T16:21:53Z</time>
      </trkpt>
      <trkpt lat="43.04911" lon="0.83106">
        <ele>422</ele>
        <time>2021-03-13T16:21:54Z</time>
      </trkpt>
      <trkpt lat="43.0491" lon="0.83109">
        <ele>423</ele>
        <time>2021-03-13T16:21:55Z</time>
      </trkpt>
      <trkpt lat="43.04909" lon="0.83111">
        <ele>423</ele>
        <time>2021-03-13T16:21:56Z</time>
      </trkpt>
      <trkpt lat="43.04908" lon="0.83114">
        <ele>423</ele>
        <time>2021-03-13T16:21:57Z</time>
      </trkpt>
      <trkpt lat="43.04907" lon="0.83116">
        <ele>423</ele>
        <time>2021-03-13T16:21:58Z</time>
      </trkpt>
      <trkpt lat="43.04906" lon="0.83118">
        <ele>423</ele>
        <time>2021-03-13T16:21:59Z</time>
      </trkpt>
      <trkpt lat="43.04905" lon="0.83121">
        <ele>425</ele>
        <time>2021-03-13T16:22:00Z</time>
      </trkpt>
      <trkpt lat="43.04904" lon="0.83123">
        <ele>425</ele>
        <time>2021-03-13T16:22:01Z</time>
      </trkpt>
      <trkpt lat="43.04903" lon="0.83125">
        <ele>425</ele>
        <time>2021-03-13T16:22:02Z</time>
      </trkpt>
      <trkpt lat="43.04901" lon="0.83127">
        <ele>425</ele>
        <time>2021-03-13T16:22:03Z</time>
      </trkpt>
      <trkpt lat="43.049" lon="0.83129">
        <ele>425</ele>
        <time>2021-03-13T16:22:04Z</time>
      </trkpt>
      <trkpt lat="43.04899" lon="0.83131">
        <ele>427</ele>
        <time>2021-03-13T16:22:05Z</time>
      </trkpt>
      <trkpt lat="43.04898" lon="0.83133">
        <ele>427</ele>
        <time>2021-03-13T16:22:06Z</time>
      </trkpt>
      <trkpt lat="43.04898" lon="0.83136">
        <ele>427</ele>
        <time>2021-03-13T16:22:07Z</time>
      </trkpt>
      <trkpt lat="43.04897" lon="0.83138">
        <ele>427</ele>
        <time>2021-03-13T16:22:08Z</time>
      </trkpt>
      <trkpt lat="43.04896" lon="0.83141">
        <ele>427</ele>
        <time>2021-03-13T16:22:09Z</time>
      </trkpt>
      <trkpt lat="43.04896" lon="0.83143">
        <ele>427</ele>
        <time>2021-03-13T16:22:10Z</time>
      </trkpt>
      <trkpt lat="43.04895" lon="0.83146">
        <ele>427</ele>
        <time>2021-03-13T16:22:11Z</time>
      </trkpt>
      <trkpt lat="43.04895" lon="0.83148">
        <ele>427</ele>
        <time>2021-03-13T16:22:12Z</time>
      </trkpt>
      <trkpt lat="43.04894" lon="0.8315">
        <ele>427</ele>
        <time>2021-03-13T16:22:13Z</time>
      </trkpt>
      <trkpt lat="43.04893" lon="0.83153">
        <ele>427</ele>
        <time>2021-03-13T16:22:14Z</time>
      </trkpt>
      <trkpt lat="43.04892" lon="0.83155">
        <ele>427</ele>
        <time>2021-03-13T16:22:15Z</time>
      </trkpt>
      <trkpt lat="43.0489" lon="0.83158">
        <ele>427</ele>
        <time>2021-03-13T16:22:16Z</time>
      </trkpt>
      <trkpt lat="43.0489" lon="0.8316">
        <ele>427</ele>
        <time>2021-03-13T16:22:17Z</time>
      </trkpt>
      <trkpt lat="43.04889" lon="0.83162">
        <ele>427</ele>
        <time>2021-03-13T16:22:18Z</time>
      </trkpt>
      <trkpt lat="43.04888" lon="0.83165">
        <ele>427</ele>
        <time>2021-03-13T16:22:19Z</time>
      </trkpt>
      <trkpt lat="43.04888" lon="0.83167">
        <ele>428</ele>
        <time>2021-03-13T16:22:20Z</time>
      </trkpt>
      <trkpt lat="43.04887" lon="0.83169">
        <ele>428</ele>
        <time>2021-03-13T16:22:21Z</time>
      </trkpt>
      <trkpt lat="43.04886" lon="0.8317">
        <ele>428</ele>
        <time>2021-03-13T16:22:22Z</time>
      </trkpt>
      <trkpt lat="43.04885" lon="0.83172">
        <ele>428</ele>
        <time>2021-03-13T16:22:23Z</time>
      </trkpt>
      <trkpt lat="43.04884" lon="0.83173">
        <ele>428</ele>
        <time>2021-03-13T16:22:24Z</time>
      </trkpt>
      <trkpt lat="43.04883" lon="0.83175">
        <ele>428</ele>
        <time>2021-03-13T16:22:25Z</time>
      </trkpt>
      <trkpt lat="43.04883" lon="0.83176">
        <ele>428</ele>
        <time>2021-03-13T16:22:26Z</time>
      </trkpt>
      <trkpt lat="43.04882" lon="0.83178">
        <ele>428</ele>
        <time>2021-03-13T16:22:27Z</time>
      </trkpt>
      <trkpt lat="43.04881" lon="0.8318">
        <ele>428</ele>
        <time>2021-03-13T16:22:28Z</time>
      </trkpt>
      <trkpt lat="43.0488" lon="0.83182">
        <ele>428</ele>
        <time>2021-03-13T16:22:29Z</time>
      </trkpt>
      <trkpt lat="43.04879" lon="0.83184">
        <ele>430</ele>
        <time>2021-03-13T16:22:30Z</time>
      </trkpt>
      <trkpt lat="43.04878" lon="0.83186">
        <ele>430</ele>
        <time>2021-03-13T16:22:31Z</time>
      </trkpt>
      <trkpt lat="43.04877" lon="0.83187">
        <ele>430</ele>
        <time>2021-03-13T16:22:32Z</time>
      </trkpt>
      <trkpt lat="43.04876" lon="0.83189">
        <ele>430</ele>
        <time>2021-03-13T16:22:33Z</time>
      </trkpt>
      <trkpt lat="43.04876" lon="0.83192">
        <ele>430</ele>
        <time>2021-03-13T16:22:34Z</time>
      </trkpt>
      <trkpt lat="43.04875" lon="0.83194">
        <ele>430</ele>
        <time>2021-03-13T16:22:35Z</time>
      </trkpt>
      <trkpt lat="43.04874" lon="0.83196">
        <ele>430</ele>
        <time>2021-03-13T16:22:36Z</time>
      </trkpt>
      <trkpt lat="43.04873" lon="0.83198">
        <ele>430</ele>
        <time>2021-03-13T16:22:37Z</time>
      </trkpt>
      <trkpt lat="43.04872" lon="0.83201">
        <ele>430</ele>
        <time>2021-03-13T16:22:38Z</time>
      </trkpt>
      <trkpt lat="43.04871" lon="0.83204">
        <ele>430</ele>
        <time>2021-03-13T16:22:39Z</time>
      </trkpt>
      <trkpt lat="43.0487" lon="0.83206">
        <ele>433</ele>
        <time>2021-03-13T16:22:40Z</time>
      </trkpt>
      <trkpt lat="43.04869" lon="0.83209">
        <ele>433</ele>
        <time>2021-03-13T16:22:41Z</time>
      </trkpt>
      <trkpt lat="43.04868" lon="0.83211">
        <ele>433</ele>
        <time>2021-03-13T16:22:42Z</time>
      </trkpt>
      <trkpt lat="43.04868" lon="0.83214">
        <ele>433</ele>
        <time>2021-03-13T16:22:43Z</time>
      </trkpt>
      <trkpt lat="43.04867" lon="0.83216">
        <ele>433</ele>
        <time>2021-03-13T16:22:44Z</time>
      </trkpt>
      <trkpt lat="43.04866" lon="0.83218">
        <ele>435</ele>
        <time>2021-03-13T16:22:45Z</time>
      </trkpt>
      <trkpt lat="43.04866" lon="0.8322">
        <ele>435</ele>
        <time>2021-03-13T16:22:46Z</time>
      </trkpt>
      <trkpt lat="43.04865" lon="0.83223">
        <ele>435</ele>
        <time>2021-03-13T16:22:47Z</time>
      </trkpt>
      <trkpt lat="43.04864" lon="0.83225">
        <ele>435</ele>
        <time>2021-03-13T16:22:48Z</time>
      </trkpt>
      <trkpt lat="43.04863" lon="0.83227">
        <ele>435</ele>
        <time>2021-03-13T16:22:49Z</time>
      </trkpt>
      <trkpt lat="43.04863" lon="0.8323">
        <ele>435</ele>
        <time>2021-03-13T16:22:50Z</time>
      </trkpt>
      <trkpt lat="43.04862" lon="0.83232">
        <ele>435</ele>
        <time>2021-03-13T16:22:51Z</time>
      </trkpt>
      <trkpt lat="43.04861" lon="0.83234">
        <ele>435</ele>
        <time>2021-03-13T16:22:52Z</time>
      </trkpt>
      <trkpt lat="43.0486" lon="0.83237">
        <ele>435</ele>
        <time>2021-03-13T16:22:53Z</time>
      </trkpt>
      <trkpt lat="43.04859" lon="0.83239">
        <ele>435</ele>
        <time>2021-03-13T16:22:54Z</time>
      </trkpt>
      <trkpt lat="43.04858" lon="0.83242">
        <ele>437</ele>
        <time>2021-03-13T16:22:55Z</time>
      </trkpt>
      <trkpt lat="43.04857" lon="0.83245">
        <ele>437</ele>
        <time>2021-03-13T16:22:56Z</time>
      </trkpt>
      <trkpt lat="43.04856" lon="0.83247">
        <ele>437</ele>
        <time>2021-03-13T16:22:57Z</time>
      </trkpt>
      <trkpt lat="43.04855" lon="0.8325">
        <ele>437</ele>
        <time>2021-03-13T16:22:58Z</time>
      </trkpt>
      <trkpt lat="43.04854" lon="0.83253">
        <ele>437</ele>
        <time>2021-03-13T16:22:59Z</time>
      </trkpt>
      <trkpt lat="43.04854" lon="0.83255">
        <ele>438</ele>
        <time>2021-03-13T16:23:00Z</time>
      </trkpt>
      <trkpt lat="43.04853" lon="0.83258">
        <ele>438</ele>
        <time>2021-03-13T16:23:01Z</time>
      </trkpt>
      <trkpt lat="43.04853" lon="0.8326">
        <ele>438</ele>
        <time>2021-03-13T16:23:02Z</time>
      </trkpt>
      <trkpt lat="43.04852" lon="0.83263">
        <ele>438</ele>
        <time>2021-03-13T16:23:03Z</time>
      </trkpt>
      <trkpt lat="43.04852" lon="0.83265">
        <ele>438</ele>
        <time>2021-03-13T16:23:04Z</time>
      </trkpt>
      <trkpt lat="43.04852" lon="0.83267">
        <ele>440</ele>
        <time>2021-03-13T16:23:05Z</time>
      </trkpt>
      <trkpt lat="43.04851" lon="0.8327">
        <ele>440</ele>
        <time>2021-03-13T16:23:06Z</time>
      </trkpt>
      <trkpt lat="43.04851" lon="0.83272">
        <ele>440</ele>
        <time>2021-03-13T16:23:07Z</time>
      </trkpt>
      <trkpt lat="43.04851" lon="0.83274">
        <ele>440</ele>
        <time>2021-03-13T16:23:08Z</time>
      </trkpt>
      <trkpt lat="43.0485" lon="0.83277">
        <ele>440</ele>
        <time>2021-03-13T16:23:09Z</time>
      </trkpt>
      <trkpt lat="43.0485" lon="0.83279">
        <ele>441</ele>
        <time>2021-03-13T16:23:10Z</time>
      </trkpt>
      <trkpt lat="43.04849" lon="0.83281">
        <ele>441</ele>
        <time>2021-03-13T16:23:11Z</time>
      </trkpt>
      <trkpt lat="43.04849" lon="0.83284">
        <ele>441</ele>
        <time>2021-03-13T16:23:12Z</time>
      </trkpt>
      <trkpt lat="43.04848" lon="0.83286">
        <ele>441</ele>
        <time>2021-03-13T16:23:13Z</time>
      </trkpt>
      <trkpt lat="43.04848" lon="0.83289">
        <ele>441</ele>
        <time>2021-03-13T16:23:14Z</time>
      </trkpt>
      <trkpt lat="43.04847" lon="0.83292">
        <ele>442</ele>
        <time>2021-03-13T16:23:15Z</time>
      </trkpt>
      <trkpt lat="43.04846" lon="0.83295">
        <ele>442</ele>
        <time>2021-03-13T16:23:16Z</time>
      </trkpt>
      <trkpt lat="43.04846" lon="0.83297">
        <ele>442</ele>
        <time>2021-03-13T16:23:17Z</time>
      </trkpt>
      <trkpt lat="43.04845" lon="0.833">
        <ele>442</ele>
        <time>2021-03-13T16:23:18Z</time>
      </trkpt>
      <trkpt lat="43.04845" lon="0.83304">
        <ele>442</ele>
        <time>2021-03-13T16:23:19Z</time>
      </trkpt>
      <trkpt lat="43.04844" lon="0.83307">
        <ele>444</ele>
        <time>2021-03-13T16:23:20Z</time>
      </trkpt>
      <trkpt lat="43.04844" lon="0.8331">
        <ele>444</ele>
        <time>2021-03-13T16:23:21Z</time>
      </trkpt>
      <trkpt lat="43.04843" lon="0.83313">
        <ele>444</ele>
        <time>2021-03-13T16:23:22Z</time>
      </trkpt>
      <trkpt lat="43.04842" lon="0.83315">
        <ele>444</ele>
        <time>2021-03-13T16:23:23Z</time>
      </trkpt>
      <trkpt lat="43.04842" lon="0.83318">
        <ele>444</ele>
        <time>2021-03-13T16:23:24Z</time>
      </trkpt>
      <trkpt lat="43.04841" lon="0.83321">
        <ele>446</ele>
        <time>2021-03-13T16:23:25Z</time>
      </trkpt>
      <trkpt lat="43.04841" lon="0.83323">
        <ele>446</ele>
        <time>2021-03-13T16:23:26Z</time>
      </trkpt>
      <trkpt lat="43.0484" lon="0.83326">
        <ele>446</ele>
        <time>2021-03-13T16:23:27Z</time>
      </trkpt>
      <trkpt lat="43.0484" lon="0.83328">
        <ele>446</ele>
        <time>2021-03-13T16:23:28Z</time>
      </trkpt>
      <trkpt lat="43.0484" lon="0.8333">
        <ele>446</ele>
        <time>2021-03-13T16:23:29Z</time>
      </trkpt>
      <trkpt lat="43.0484" lon="0.83333">
        <ele>447</ele>
        <time>2021-03-13T16:23:30Z</time>
      </trkpt>
      <trkpt lat="43.04839" lon="0.83336">
        <ele>447</ele>
        <time>2021-03-13T16:23:31Z</time>
      </trkpt>
      <trkpt lat="43.04838" lon="0.83338">
        <ele>447</ele>
        <time>2021-03-13T16:23:32Z</time>
      </trkpt>
      <trkpt lat="43.04837" lon="0.83341">
        <ele>447</ele>
        <time>2021-03-13T16:23:33Z</time>
      </trkpt>
      <trkpt lat="43.04836" lon="0.83343">
        <ele>447</ele>
        <time>2021-03-13T16:23:34Z</time>
      </trkpt>
      <trkpt lat="43.04835" lon="0.83346">
        <ele>448</ele>
        <time>2021-03-13T16:23:35Z</time>
      </trkpt>
      <trkpt lat="43.04835" lon="0.83349">
        <ele>448</ele>
        <time>2021-03-13T16:23:36Z</time>
      </trkpt>
      <trkpt lat="43.04835" lon="0.83352">
        <ele>448</ele>
        <time>2021-03-13T16:23:37Z</time>
      </trkpt>
      <trkpt lat="43.04834" lon="0.83355">
        <ele>448</ele>
        <time>2021-03-13T16:23:38Z</time>
      </trkpt>
      <trkpt lat="43.04834" lon="0.83358">
        <ele>448</ele>
        <time>2021-03-13T16:23:39Z</time>
      </trkpt>
      <trkpt lat="43.04833" lon="0.8336">
        <ele>449</ele>
        <time>2021-03-13T16:23:40Z</time>
      </trkpt>
      <trkpt lat="43.04832" lon="0.83363">
        <ele>449</ele>
        <time>2021-03-13T16:23:41Z</time>
      </trkpt>
      <trkpt lat="43.04832" lon="0.83366">
        <ele>449</ele>
        <time>2021-03-13T16:23:42Z</time>
      </trkpt>
      <trkpt lat="43.04832" lon="0.83368">
        <ele>449</ele>
        <time>2021-03-13T16:23:43Z</time>
      </trkpt>
      <trkpt lat="43.04831" lon="0.83371">
        <ele>449</ele>
        <time>2021-03-13T16:23:44Z</time>
      </trkpt>
      <trkpt lat="43.04831" lon="0.83374">
        <ele>449</ele>
        <time>2021-03-13T16:23:45Z</time>
      </trkpt>
      <trkpt lat="43.0483" lon="0.83377">
        <ele>449</ele>
        <time>2021-03-13T16:23:46Z</time>
      </trkpt>
      <trkpt lat="43.0483" lon="0.83381">
        <ele>449</ele>
        <time>2021-03-13T16:23:47Z</time>
      </trkpt>
      <trkpt lat="43.0483" lon="0.83384">
        <ele>449</ele>
        <time>2021-03-13T16:23:48Z</time>
      </trkpt>
      <trkpt lat="43.0483" lon="0.83388">
        <ele>449</ele>
        <time>2021-03-13T16:23:49Z</time>
      </trkpt>
      <trkpt lat="43.0483" lon="0.83391">
        <ele>451</ele>
        <time>2021-03-13T16:23:50Z</time>
      </trkpt>
      <trkpt lat="43.0483" lon="0.83394">
        <ele>451</ele>
        <time>2021-03-13T16:23:51Z</time>
      </trkpt>
      <trkpt lat="43.0483" lon="0.83398">
        <ele>451</ele>
        <time>2021-03-13T16:23:52Z</time>
      </trkpt>
      <trkpt lat="43.0483" lon="0.83401">
        <ele>451</ele>
        <time>2021-03-13T16:23:53Z</time>
      </trkpt>
      <trkpt lat="43.04829" lon="0.83405">
        <ele>451</ele>
        <time>2021-03-13T16:23:54Z</time>
      </trkpt>
      <trkpt lat="43.04829" lon="0.83409">
        <ele>451</ele>
        <time>2021-03-13T16:23:55Z</time>
      </trkpt>
      <trkpt lat="43.04828" lon="0.83412">
        <ele>451</ele>
        <time>2021-03-13T16:23:56Z</time>
      </trkpt>
      <trkpt lat="43.04828" lon="0.83416">
        <ele>451</ele>
        <time>2021-03-13T16:23:57Z</time>
      </trkpt>
      <trkpt lat="43.04827" lon="0.83419">
        <ele>451</ele>
        <time>2021-03-13T16:23:58Z</time>
      </trkpt>
      <trkpt lat="43.04826" lon="0.83423">
        <ele>451</ele>
        <time>2021-03-13T16:23:59Z</time>
      </trkpt>
      <trkpt lat="43.04826" lon="0.83426">
        <ele>453</ele>
        <time>2021-03-13T16:24:00Z</time>
      </trkpt>
      <trkpt lat="43.04825" lon="0.83429">
        <ele>453</ele>
        <time>2021-03-13T16:24:01Z</time>
      </trkpt>
      <trkpt lat="43.04824" lon="0.83432">
        <ele>453</ele>
        <time>2021-03-13T16:24:02Z</time>
      </trkpt>
      <trkpt lat="43.04823" lon="0.83436">
        <ele>453</ele>
        <time>2021-03-13T16:24:03Z</time>
      </trkpt>
      <trkpt lat="43.04822" lon="0.83439">
        <ele>453</ele>
        <time>2021-03-13T16:24:04Z</time>
      </trkpt>
      <trkpt lat="43.04821" lon="0.83443">
        <ele>453</ele>
        <time>2021-03-13T16:24:05Z</time>
      </trkpt>
      <trkpt lat="43.0482" lon="0.83446">
        <ele>453</ele>
        <time>2021-03-13T16:24:06Z</time>
      </trkpt>
      <trkpt lat="43.04818" lon="0.8345">
        <ele>453</ele>
        <time>2021-03-13T16:24:07Z</time>
      </trkpt>
      <trkpt lat="43.04817" lon="0.83453">
        <ele>453</ele>
        <time>2021-03-13T16:24:08Z</time>
      </trkpt>
      <trkpt lat="43.04815" lon="0.83456">
        <ele>453</ele>
        <time>2021-03-13T16:24:09Z</time>
      </trkpt>
      <trkpt lat="43.04814" lon="0.83459">
        <ele>453</ele>
        <time>2021-03-13T16:24:10Z</time>
      </trkpt>
      <trkpt lat="43.04812" lon="0.83461">
        <ele>453</ele>
        <time>2021-03-13T16:24:11Z</time>
      </trkpt>
      <trkpt lat="43.04811" lon="0.83464">
        <ele>453</ele>
        <time>2021-03-13T16:24:12Z</time>
      </trkpt>
      <trkpt lat="43.04809" lon="0.83467">
        <ele>453</ele>
        <time>2021-03-13T16:24:13Z</time>
      </trkpt>
      <trkpt lat="43.04808" lon="0.83469">
        <ele>453</ele>
        <time>2021-03-13T16:24:14Z</time>
      </trkpt>
      <trkpt lat="43.04806" lon="0.83472">
        <ele>453</ele>
        <time>2021-03-13T16:24:15Z</time>
      </trkpt>
      <trkpt lat="43.04805" lon="0.83474">
        <ele>453</ele>
        <time>2021-03-13T16:24:16Z</time>
      </trkpt>
      <trkpt lat="43.04803" lon="0.83476">
        <ele>453</ele>
        <time>2021-03-13T16:24:17Z</time>
      </trkpt>
      <trkpt lat="43.04802" lon="0.83479">
        <ele>453</ele>
        <time>2021-03-13T16:24:18Z</time>
      </trkpt>
      <trkpt lat="43.04801" lon="0.83481">
        <ele>453</ele>
        <time>2021-03-13T16:24:19Z</time>
      </trkpt>
      <trkpt lat="43.04799" lon="0.83483">
        <ele>456</ele>
        <time>2021-03-13T16:24:20Z</time>
      </trkpt>
      <trkpt lat="43.04798" lon="0.83485">
        <ele>456</ele>
        <time>2021-03-13T16:24:21Z</time>
      </trkpt>
      <trkpt lat="43.04797" lon="0.83487">
        <ele>456</ele>
        <time>2021-03-13T16:24:22Z</time>
      </trkpt>
      <trkpt lat="43.04795" lon="0.83488">
        <ele>456</ele>
        <time>2021-03-13T16:24:23Z</time>
      </trkpt>
      <trkpt lat="43.04794" lon="0.8349">
        <ele>456</ele>
        <time>2021-03-13T16:24:24Z</time>
      </trkpt>
      <trkpt lat="43.04792" lon="0.83492">
        <ele>457</ele>
        <time>2021-03-13T16:24:25Z</time>
      </trkpt>
      <trkpt lat="43.04791" lon="0.83493">
        <ele>457</ele>
        <time>2021-03-13T16:24:26Z</time>
      </trkpt>
      <trkpt lat="43.04789" lon="0.83495">
        <ele>457</ele>
        <time>2021-03-13T16:24:27Z</time>
      </trkpt>
      <trkpt lat="43.04788" lon="0.83498">
        <ele>457</ele>
        <time>2021-03-13T16:24:28Z</time>
      </trkpt>
      <trkpt lat="43.04787" lon="0.835">
        <ele>457</ele>
        <time>2021-03-13T16:24:29Z</time>
      </trkpt>
      <trkpt lat="43.04785" lon="0.83503">
        <ele>458</ele>
        <time>2021-03-13T16:24:30Z</time>
      </trkpt>
      <trkpt lat="43.04784" lon="0.83505">
        <ele>458</ele>
        <time>2021-03-13T16:24:31Z</time>
      </trkpt>
      <trkpt lat="43.04783" lon="0.83508">
        <ele>458</ele>
        <time>2021-03-13T16:24:32Z</time>
      </trkpt>
      <trkpt lat="43.04781" lon="0.8351">
        <ele>458</ele>
        <time>2021-03-13T16:24:33Z</time>
      </trkpt>
      <trkpt lat="43.0478" lon="0.83513">
        <ele>458</ele>
        <time>2021-03-13T16:24:34Z</time>
      </trkpt>
      <trkpt lat="43.04778" lon="0.83516">
        <ele>458</ele>
        <time>2021-03-13T16:24:35Z</time>
      </trkpt>
      <trkpt lat="43.04777" lon="0.83518">
        <ele>458</ele>
        <time>2021-03-13T16:24:36Z</time>
      </trkpt>
      <trkpt lat="43.04775" lon="0.83521">
        <ele>458</ele>
        <time>2021-03-13T16:24:37Z</time>
      </trkpt>
      <trkpt lat="43.04774" lon="0.83523">
        <ele>458</ele>
        <time>2021-03-13T16:24:38Z</time>
      </trkpt>
      <trkpt lat="43.04772" lon="0.83526">
        <ele>458</ele>
        <time>2021-03-13T16:24:39Z</time>
      </trkpt>
      <trkpt lat="43.04771" lon="0.83528">
        <ele>459</ele>
        <time>2021-03-13T16:24:40Z</time>
      </trkpt>
      <trkpt lat="43.0477" lon="0.8353">
        <ele>459</ele>
        <time>2021-03-13T16:24:41Z</time>
      </trkpt>
      <trkpt lat="43.04769" lon="0.83532">
        <ele>459</ele>
        <time>2021-03-13T16:24:42Z</time>
      </trkpt>
      <trkpt lat="43.04767" lon="0.83535">
        <ele>459</ele>
        <time>2021-03-13T16:24:43Z</time>
      </trkpt>
      <trkpt lat="43.04766" lon="0.83537">
        <ele>459</ele>
        <time>2021-03-13T16:24:44Z</time>
      </trkpt>
      <trkpt lat="43.04765" lon="0.83539">
        <ele>459</ele>
        <time>2021-03-13T16:24:45Z</time>
      </trkpt>
      <trkpt lat="43.04763" lon="0.83542">
        <ele>459</ele>
        <time>2021-03-13T16:24:46Z</time>
      </trkpt>
      <trkpt lat="43.04762" lon="0.83544">
        <ele>459</ele>
        <time>2021-03-13T16:24:47Z</time>
      </trkpt>
      <trkpt lat="43.0476" lon="0.83546">
        <ele>459</ele>
        <time>2021-03-13T16:24:48Z</time>
      </trkpt>
      <trkpt lat="43.04759" lon="0.83549">
        <ele>459</ele>
        <time>2021-03-13T16:24:49Z</time>
      </trkpt>
      <trkpt lat="43.04757" lon="0.83551">
        <ele>461</ele>
        <time>2021-03-13T16:24:50Z</time>
      </trkpt>
      <trkpt lat="43.04756" lon="0.83554">
        <ele>461</ele>
        <time>2021-03-13T16:24:51Z</time>
      </trkpt>
      <trkpt lat="43.04755" lon="0.83556">
        <ele>461</ele>
        <time>2021-03-13T16:24:52Z</time>
      </trkpt>
      <trkpt lat="43.04753" lon="0.83559">
        <ele>461</ele>
        <time>2021-03-13T16:24:53Z</time>
      </trkpt>
      <trkpt lat="43.04752" lon="0.83561">
        <ele>461</ele>
        <time>2021-03-13T16:24:54Z</time>
      </trkpt>
      <trkpt lat="43.0475" lon="0.83564">
        <ele>461</ele>
        <time>2021-03-13T16:24:55Z</time>
      </trkpt>
      <trkpt lat="43.04749" lon="0.83566">
        <ele>461</ele>
        <time>2021-03-13T16:24:56Z</time>
      </trkpt>
      <trkpt lat="43.04748" lon="0.83569">
        <ele>461</ele>
        <time>2021-03-13T16:24:57Z</time>
      </trkpt>
      <trkpt lat="43.04746" lon="0.83571">
        <ele>461</ele>
        <time>2021-03-13T16:24:58Z</time>
      </trkpt>
      <trkpt lat="43.04745" lon="0.83574">
        <ele>461</ele>
        <time>2021-03-13T16:24:59Z</time>
      </trkpt>
      <trkpt lat="43.04743" lon="0.83576">
        <ele>464</ele>
        <time>2021-03-13T16:25:00Z</time>
      </trkpt>
      <trkpt lat="43.04742" lon="0.83579">
        <ele>464</ele>
        <time>2021-03-13T16:25:01Z</time>
      </trkpt>
      <trkpt lat="43.0474" lon="0.83581">
        <ele>464</ele>
        <time>2021-03-13T16:25:02Z</time>
      </trkpt>
      <trkpt lat="43.04739" lon="0.83584">
        <ele>464</ele>
        <time>2021-03-13T16:25:03Z</time>
      </trkpt>
      <trkpt lat="43.04737" lon="0.83586">
        <ele>464</ele>
        <time>2021-03-13T16:25:04Z</time>
      </trkpt>
      <trkpt lat="43.04736" lon="0.83589">
        <ele>465</ele>
        <time>2021-03-13T16:25:05Z</time>
      </trkpt>
      <trkpt lat="43.04734" lon="0.83591">
        <ele>465</ele>
        <time>2021-03-13T16:25:06Z</time>
      </trkpt>
      <trkpt lat="43.04732" lon="0.83593">
        <ele>465</ele>
        <time>2021-03-13T16:25:07Z</time>
      </trkpt>
      <trkpt lat="43.04731" lon="0.83595">
        <ele>465</ele>
        <time>2021-03-13T16:25:08Z</time>
      </trkpt>
      <trkpt lat="43.04729" lon="0.83598">
        <ele>465</ele>
        <time>2021-03-13T16:25:09Z</time>
      </trkpt>
      <trkpt lat="43.04727" lon="0.836">
        <ele>465</ele>
        <time>2021-03-13T16:25:10Z</time>
      </trkpt>
      <trkpt lat="43.04726" lon="0.83601">
        <ele>465</ele>
        <time>2021-03-13T16:25:11Z</time>
      </trkpt>
      <trkpt lat="43.04725" lon="0.83602">
        <ele>465</ele>
        <time>2021-03-13T16:25:12Z</time>
      </trkpt>
      <trkpt lat="43.04724" lon="0.83603">
        <ele>465</ele>
        <time>2021-03-13T16:25:13Z</time>
      </trkpt>
      <trkpt lat="43.04723" lon="0.83605">
        <ele>465</ele>
        <time>2021-03-13T16:25:14Z</time>
      </trkpt>
      <trkpt lat="43.04718" lon="0.83611">
        <ele>465</ele>
        <time>2021-03-13T16:25:15Z</time>
      </trkpt>
      <trkpt lat="43.04717" lon="0.83613">
        <ele>465</ele>
        <time>2021-03-13T16:25:16Z</time>
      </trkpt>
      <trkpt lat="43.04716" lon="0.83614">
        <ele>465</ele>
        <time>2021-03-13T16:25:17Z</time>
      </trkpt>
      <trkpt lat="43.04715" lon="0.83616">
        <ele>465</ele>
        <time>2021-03-13T16:25:18Z</time>
      </trkpt>
      <trkpt lat="43.04711" lon="0.83623">
        <ele>465</ele>
        <time>2021-03-13T16:25:19Z</time>
      </trkpt>
      <trkpt lat="43.04711" lon="0.83624">
        <ele>465</ele>
        <time>2021-03-13T16:25:20Z</time>
      </trkpt>
      <trkpt lat="43.0471" lon="0.83626">
        <ele>465</ele>
        <time>2021-03-13T16:25:21Z</time>
      </trkpt>
      <trkpt lat="43.0471" lon="0.83627">
        <ele>465</ele>
        <time>2021-03-13T16:25:22Z</time>
      </trkpt>
      <trkpt lat="43.04709" lon="0.83629">
        <ele>465</ele>
        <time>2021-03-13T16:25:23Z</time>
      </trkpt>
      <trkpt lat="43.04705" lon="0.83638">
        <ele>465</ele>
        <time>2021-03-13T16:25:24Z</time>
      </trkpt>
      <trkpt lat="43.04705" lon="0.8364">
        <ele>465</ele>
        <time>2021-03-13T16:25:25Z</time>
      </trkpt>
      <trkpt lat="43.04704" lon="0.83641">
        <ele>465</ele>
        <time>2021-03-13T16:25:26Z</time>
      </trkpt>
      <trkpt lat="43.04703" lon="0.83643">
        <ele>465</ele>
        <time>2021-03-13T16:25:27Z</time>
      </trkpt>
      <trkpt lat="43.04698" lon="0.83653">
        <ele>465</ele>
        <time>2021-03-13T16:25:28Z</time>
      </trkpt>
      <trkpt lat="43.04697" lon="0.83656">
        <ele>465</ele>
        <time>2021-03-13T16:25:29Z</time>
      </trkpt>
      <trkpt lat="43.04695" lon="0.8366">
        <ele>467</ele>
        <time>2021-03-13T16:25:30Z</time>
      </trkpt>
      <trkpt lat="43.04693" lon="0.83663">
        <ele>467</ele>
        <time>2021-03-13T16:25:31Z</time>
      </trkpt>
      <trkpt lat="43.04692" lon="0.83667">
        <ele>467</ele>
        <time>2021-03-13T16:25:32Z</time>
      </trkpt>
      <trkpt lat="43.0469" lon="0.8367">
        <ele>467</ele>
        <time>2021-03-13T16:25:33Z</time>
      </trkpt>
      <trkpt lat="43.04689" lon="0.83672">
        <ele>467</ele>
        <time>2021-03-13T16:25:34Z</time>
      </trkpt>
      <trkpt lat="43.04689" lon="0.83673">
        <ele>467</ele>
        <time>2021-03-13T16:25:35Z</time>
      </trkpt>
      <trkpt lat="43.04688" lon="0.83675">
        <ele>467</ele>
        <time>2021-03-13T16:25:36Z</time>
      </trkpt>
      <trkpt lat="43.04687" lon="0.83676">
        <ele>467</ele>
        <time>2021-03-13T16:25:37Z</time>
      </trkpt>
      <trkpt lat="43.04682" lon="0.83686">
        <ele>467</ele>
        <time>2021-03-13T16:25:38Z</time>
      </trkpt>
      <trkpt lat="43.04681" lon="0.83689">
        <ele>467</ele>
        <time>2021-03-13T16:25:39Z</time>
      </trkpt>
      <trkpt lat="43.04679" lon="0.83693">
        <ele>467</ele>
        <time>2021-03-13T16:25:40Z</time>
      </trkpt>
      <trkpt lat="43.04679" lon="0.83694">
        <ele>467</ele>
        <time>2021-03-13T16:25:41Z</time>
      </trkpt>
      <trkpt lat="43.04678" lon="0.83696">
        <ele>467</ele>
        <time>2021-03-13T16:25:42Z</time>
      </trkpt>
      <trkpt lat="43.04677" lon="0.83697">
        <ele>467</ele>
        <time>2021-03-13T16:25:43Z</time>
      </trkpt>
      <trkpt lat="43.04676" lon="0.83699">
        <ele>467</ele>
        <time>2021-03-13T16:25:44Z</time>
      </trkpt>
      <trkpt lat="43.04672" lon="0.83709">
        <ele>467</ele>
        <time>2021-03-13T16:25:45Z</time>
      </trkpt>
      <trkpt lat="43.04671" lon="0.83712">
        <ele>467</ele>
        <time>2021-03-13T16:25:46Z</time>
      </trkpt>
      <trkpt lat="43.0467" lon="0.83716">
        <ele>467</ele>
        <time>2021-03-13T16:25:47Z</time>
      </trkpt>
      <trkpt lat="43.04669" lon="0.83719">
        <ele>467</ele>
        <time>2021-03-13T16:25:48Z</time>
      </trkpt>
      <trkpt lat="43.04668" lon="0.83724">
        <ele>467</ele>
        <time>2021-03-13T16:25:49Z</time>
      </trkpt>
      <trkpt lat="43.04667" lon="0.83728">
        <ele>466</ele>
        <time>2021-03-13T16:25:50Z</time>
      </trkpt>
      <trkpt lat="43.04665" lon="0.83739">
        <ele>466</ele>
        <time>2021-03-13T16:25:51Z</time>
      </trkpt>
      <trkpt lat="43.04664" lon="0.83742">
        <ele>466</ele>
        <time>2021-03-13T16:25:52Z</time>
      </trkpt>
      <trkpt lat="43.04664" lon="0.83745">
        <ele>466</ele>
        <time>2021-03-13T16:25:53Z</time>
      </trkpt>
      <trkpt lat="43.04661" lon="0.83758">
        <ele>466</ele>
        <time>2021-03-13T16:25:54Z</time>
      </trkpt>
      <trkpt lat="43.04661" lon="0.83762">
        <ele>466</ele>
        <time>2021-03-13T16:25:55Z</time>
      </trkpt>
      <trkpt lat="43.04659" lon="0.83776">
        <ele>466</ele>
        <time>2021-03-13T16:25:56Z</time>
      </trkpt>
      <trkpt lat="43.04658" lon="0.83782">
        <ele>466</ele>
        <time>2021-03-13T16:25:57Z</time>
      </trkpt>
      <trkpt lat="43.04658" lon="0.83786">
        <ele>466</ele>
        <time>2021-03-13T16:25:58Z</time>
      </trkpt>
      <trkpt lat="43.04658" lon="0.83789">
        <ele>466</ele>
        <time>2021-03-13T16:25:59Z</time>
      </trkpt>
      <trkpt lat="43.04657" lon="0.83792">
        <ele>462</ele>
        <time>2021-03-13T16:26:00Z</time>
      </trkpt>
      <trkpt lat="43.04656" lon="0.83809">
        <ele>462</ele>
        <time>2021-03-13T16:26:01Z</time>
      </trkpt>
      <trkpt lat="43.04655" lon="0.83816">
        <ele>462</ele>
        <time>2021-03-13T16:26:02Z</time>
      </trkpt>
      <trkpt lat="43.04655" lon="0.83819">
        <ele>462</ele>
        <time>2021-03-13T16:26:03Z</time>
      </trkpt>
      <trkpt lat="43.04655" lon="0.83822">
        <ele>462</ele>
        <time>2021-03-13T16:26:04Z</time>
      </trkpt>
      <trkpt lat="43.04654" lon="0.83826">
        <ele>462</ele>
        <time>2021-03-13T16:26:05Z</time>
      </trkpt>
      <trkpt lat="43.04652" lon="0.83839">
        <ele>462</ele>
        <time>2021-03-13T16:26:06Z</time>
      </trkpt>
      <trkpt lat="43.04652" lon="0.83843">
        <ele>462</ele>
        <time>2021-03-13T16:26:07Z</time>
      </trkpt>
      <trkpt lat="43.04651" lon="0.83847">
        <ele>462</ele>
        <time>2021-03-13T16:26:08Z</time>
      </trkpt>
      <trkpt lat="43.04649" lon="0.83858">
        <ele>462</ele>
        <time>2021-03-13T16:26:09Z</time>
      </trkpt>
      <trkpt lat="43.04648" lon="0.83863">
        <ele>462</ele>
        <time>2021-03-13T16:26:10Z</time>
      </trkpt>
      <trkpt lat="43.04647" lon="0.83869">
        <ele>462</ele>
        <time>2021-03-13T16:26:11Z</time>
      </trkpt>
      <trkpt lat="43.04647" lon="0.83872">
        <ele>462</ele>
        <time>2021-03-13T16:26:12Z</time>
      </trkpt>
      <trkpt lat="43.04647" lon="0.83874">
        <ele>462</ele>
        <time>2021-03-13T16:26:13Z</time>
      </trkpt>
      <trkpt lat="43.04647" lon="0.83877">
        <ele>462</ele>
        <time>2021-03-13T16:26:14Z</time>
      </trkpt>
      <trkpt lat="43.04646" lon="0.83889">
        <ele>462</ele>
        <time>2021-03-13T16:26:15Z</time>
      </trkpt>
      <trkpt lat="43.04645" lon="0.83893">
        <ele>462</ele>
        <time>2021-03-13T16:26:16Z</time>
      </trkpt>
      <trkpt lat="43.04645" lon="0.83898">
        <ele>462</ele>
        <time>2021-03-13T16:26:17Z</time>
      </trkpt>
      <trkpt lat="43.04645" lon="0.83903">
        <ele>462</ele>
        <time>2021-03-13T16:26:18Z</time>
      </trkpt>
      <trkpt lat="43.04645" lon="0.83908">
        <ele>462</ele>
        <time>2021-03-13T16:26:19Z</time>
      </trkpt>
      <trkpt lat="43.04644" lon="0.8391">
        <ele>462</ele>
        <time>2021-03-13T16:26:20Z</time>
      </trkpt>
      <trkpt lat="43.04643" lon="0.83912">
        <ele>462</ele>
        <time>2021-03-13T16:26:21Z</time>
      </trkpt>
      <trkpt lat="43.04643" lon="0.83914">
        <ele>462</ele>
        <time>2021-03-13T16:26:22Z</time>
      </trkpt>
      <trkpt lat="43.04639" lon="0.83925">
        <ele>462</ele>
        <time>2021-03-13T16:26:23Z</time>
      </trkpt>
      <trkpt lat="43.04637" lon="0.83929">
        <ele>462</ele>
        <time>2021-03-13T16:26:24Z</time>
      </trkpt>
      <trkpt lat="43.04635" lon="0.83933">
        <ele>462</ele>
        <time>2021-03-13T16:26:25Z</time>
      </trkpt>
      <trkpt lat="43.04633" lon="0.83937">
        <ele>462</ele>
        <time>2021-03-13T16:26:26Z</time>
      </trkpt>
      <trkpt lat="43.04632" lon="0.83942">
        <ele>462</ele>
        <time>2021-03-13T16:26:27Z</time>
      </trkpt>
      <trkpt lat="43.0463" lon="0.83946">
        <ele>462</ele>
        <time>2021-03-13T16:26:28Z</time>
      </trkpt>
      <trkpt lat="43.04629" lon="0.83949">
        <ele>462</ele>
        <time>2021-03-13T16:26:29Z</time>
      </trkpt>
      <trkpt lat="43.04628" lon="0.83953">
        <ele>463</ele>
        <time>2021-03-13T16:26:30Z</time>
      </trkpt>
      <trkpt lat="43.04628" lon="0.83953">
        <ele>463</ele>
        <time>2021-03-13T16:26:31Z</time>
      </trkpt>
      <trkpt lat="43.04628" lon="0.83958">
        <ele>463</ele>
        <time>2021-03-13T16:26:32Z</time>
      </trkpt>
      <trkpt lat="43.04628" lon="0.83958">
        <ele>463</ele>
        <time>2021-03-13T16:26:33Z</time>
      </trkpt>
      <trkpt lat="43.04629" lon="0.83958">
        <ele>463</ele>
        <time>2021-03-13T16:26:34Z</time>
      </trkpt>
      <trkpt lat="43.04629" lon="0.83958">
        <ele>463</ele>
        <time>2021-03-13T16:26:35Z</time>
      </trkpt>
      <trkpt lat="43.04629" lon="0.83959">
        <ele>463</ele>
        <time>2021-03-13T16:26:36Z</time>
      </trkpt>
      <trkpt lat="43.04629" lon="0.83959">
        <ele>463</ele>
        <time>2021-03-13T16:26:37Z</time>
      </trkpt>
      <trkpt lat="43.04629" lon="0.83959">
        <ele>463</ele>
        <time>2021-03-13T16:26:38Z</time>
      </trkpt>
      <trkpt lat="43.04629" lon="0.83959">
        <ele>463</ele>
        <time>2021-03-13T16:26:39Z</time>
      </trkpt>
      <trkpt lat="43.04629" lon="0.83959">
        <ele>463</ele>
        <time>2021-03-13T16:26:40Z</time>
      </trkpt>
      <trkpt lat="43.04629" lon="0.83959">
        <ele>463</ele>
        <time>2021-03-13T16:26:41Z</time>
      </trkpt>
      <trkpt lat="43.04629" lon="0.83959">
        <ele>463</ele>
        <time>2021-03-13T16:26:42Z</time>
      </trkpt>
      <trkpt lat="43.04629" lon="0.83959">
        <ele>463</ele>
        <time>2021-03-13T16:26:43Z</time>
      </trkpt>
      <trkpt lat="43.04629" lon="0.83959">
        <ele>463</ele>
        <time>2021-03-13T16:26:44Z</time>
      </trkpt>
      <trkpt lat="43.04629" lon="0.83959">
        <ele>463</ele>
        <time>2021-03-13T16:26:45Z</time>
      </trkpt>
      <trkpt lat="43.04629" lon="0.83959">
        <ele>463</ele>
        <time>2021-03-13T16:26:46Z</time>
      </trkpt>
      <trkpt lat="43.04629" lon="0.83959">
        <ele>463</ele>
        <time>2021-03-13T16:26:47Z</time>
      </trkpt>
      <trkpt lat="43.04629" lon="0.83959">
        <ele>463</ele>
        <time>2021-03-13T16:26:48Z</time>
      </trkpt>
      <trkpt lat="43.04629" lon="0.83959">
        <ele>463</ele>
        <time>2021-03-13T16:26:49Z</time>
      </trkpt>
      <trkpt lat="43.04629" lon="0.83959">
        <ele>462</ele>
        <time>2021-03-13T16:26:50Z</time>
      </trkpt>
      <trkpt lat="43.04629" lon="0.83959">
        <ele>462</ele>
        <time>2021-03-13T16:26:51Z</time>
      </trkpt>
      <trkpt lat="43.04629" lon="0.83959">
        <ele>462</ele>
        <time>2021-03-13T16:26:52Z</time>
      </trkpt>
      <trkpt lat="43.04629" lon="0.83959">
        <ele>462</ele>
        <time>2021-03-13T16:26:53Z</time>
      </trkpt>
      <trkpt lat="43.04629" lon="0.83959">
        <ele>462</ele>
        <time>2021-03-13T16:26:54Z</time>
      </trkpt>
      <trkpt lat="43.04629" lon="0.83959">
        <ele>462</ele>
        <time>2021-03-13T16:26:55Z</time>
      </trkpt>
      <trkpt lat="43.04629" lon="0.83959">
        <ele>462</ele>
        <time>2021-03-13T16:26:56Z</time>
      </trkpt>
      <trkpt lat="43.04629" lon="0.83959">
        <ele>462</ele>
        <time>2021-03-13T16:26:57Z</time>
      </trkpt>
      <trkpt lat="43.04629" lon="0.83959">
        <ele>462</ele>
        <time>2021-03-13T16:26:58Z</time>
      </trkpt>
      <trkpt lat="43.04629" lon="0.83959">
        <ele>462</ele>
        <time>2021-03-13T16:26:59Z</time>
      </trkpt>
      <trkpt lat="43.0463" lon="0.83959">
        <ele>463</ele>
        <time>2021-03-13T16:27:00Z</time>
      </trkpt>
      <trkpt lat="43.0463" lon="0.83959">
        <ele>463</ele>
        <time>2021-03-13T16:27:01Z</time>
      </trkpt>
      <trkpt lat="43.0463" lon="0.83959">
        <ele>463</ele>
        <time>2021-03-13T16:27:02Z</time>
      </trkpt>
      <trkpt lat="43.0463" lon="0.83959">
        <ele>463</ele>
        <time>2021-03-13T16:27:03Z</time>
      </trkpt>
      <trkpt lat="43.0463" lon="0.83959">
        <ele>463</ele>
        <time>2021-03-13T16:27:04Z</time>
      </trkpt>
      <trkpt lat="43.0463" lon="0.83959">
        <ele>463</ele>
        <time>2021-03-13T16:27:05Z</time>
      </trkpt>
      <trkpt lat="43.0463" lon="0.83959">
        <ele>463</ele>
        <time>2021-03-13T16:27:06Z</time>
      </trkpt>
      <trkpt lat="43.0463" lon="0.83959">
        <ele>463</ele>
        <time>2021-03-13T16:27:07Z</time>
      </trkpt>
      <trkpt lat="43.0463" lon="0.83959">
        <ele>463</ele>
        <time>2021-03-13T16:27:08Z</time>
      </trkpt>
      <trkpt lat="43.0463" lon="0.83959">
        <ele>463</ele>
        <time>2021-03-13T16:27:09Z</time>
      </trkpt>
      <trkpt lat="43.0463" lon="0.83959">
        <ele>463</ele>
        <time>2021-03-13T16:27:10Z</time>
      </trkpt>
      <trkpt lat="43.0463" lon="0.83959">
        <ele>463</ele>
        <time>2021-03-13T16:27:11Z</time>
      </trkpt>
      <trkpt lat="43.0463" lon="0.83959">
        <ele>463</ele>
        <time>2021-03-13T16:27:12Z</time>
      </trkpt>
      <trkpt lat="43.0463" lon="0.83959">
        <ele>463</ele>
        <time>2021-03-13T16:27:13Z</time>
      </trkpt>
      <trkpt lat="43.0463" lon="0.83959">
        <ele>463</ele>
        <time>2021-03-13T16:27:14Z</time>
      </trkpt>
      <trkpt lat="43.0463" lon="0.83959">
        <ele>463</ele>
        <time>2021-03-13T16:27:15Z</time>
      </trkpt>
      <trkpt lat="43.0463" lon="0.83959">
        <ele>463</ele>
        <time>2021-03-13T16:27:16Z</time>
      </trkpt>
      <trkpt lat="43.0463" lon="0.83959">
        <ele>463</ele>
        <time>2021-03-13T16:27:17Z</time>
      </trkpt>
      <trkpt lat="43.0463" lon="0.83959">
        <ele>463</ele>
        <time>2021-03-13T16:27:18Z</time>
      </trkpt>
      <trkpt lat="43.0463" lon="0.83959">
        <ele>463</ele>
        <time>2021-03-13T16:27:19Z</time>
      </trkpt>
      <trkpt lat="43.0463" lon="0.83959">
        <ele>462</ele>
        <time>2021-03-13T16:27:20Z</time>
      </trkpt>
      <trkpt lat="43.0463" lon="0.83959">
        <ele>462</ele>
        <time>2021-03-13T16:27:21Z</time>
      </trkpt>
      <trkpt lat="43.0463" lon="0.83959">
        <ele>462</ele>
        <time>2021-03-13T16:27:22Z</time>
      </trkpt>
      <trkpt lat="43.0463" lon="0.83959">
        <ele>462</ele>
        <time>2021-03-13T16:27:23Z</time>
      </trkpt>
      <trkpt lat="43.0463" lon="0.83959">
        <ele>462</ele>
        <time>2021-03-13T16:27:24Z</time>
      </trkpt>
      <trkpt lat="43.0463" lon="0.83959">
        <ele>462</ele>
        <time>2021-03-13T16:27:25Z</time>
      </trkpt>
      <trkpt lat="43.0463" lon="0.83959">
        <ele>462</ele>
        <time>2021-03-13T16:27:26Z</time>
      </trkpt>
      <trkpt lat="43.04631" lon="0.83959">
        <ele>462</ele>
        <time>2021-03-13T16:27:27Z</time>
      </trkpt>
      <trkpt lat="43.04631" lon="0.83959">
        <ele>462</ele>
        <time>2021-03-13T16:27:28Z</time>
      </trkpt>
      <trkpt lat="43.04631" lon="0.83959">
        <ele>462</ele>
        <time>2021-03-13T16:27:29Z</time>
      </trkpt>
      <trkpt lat="43.04631" lon="0.83959">
        <ele>463</ele>
        <time>2021-03-13T16:27:30Z</time>
      </trkpt>
      <trkpt lat="43.04631" lon="0.83959">
        <ele>463</ele>
        <time>2021-03-13T16:27:31Z</time>
      </trkpt>
      <trkpt lat="43.04631" lon="0.83959">
        <ele>463</ele>
        <time>2021-03-13T16:27:32Z</time>
      </trkpt>
      <trkpt lat="43.04631" lon="0.83959">
        <ele>463</ele>
        <time>2021-03-13T16:27:33Z</time>
      </trkpt>
      <trkpt lat="43.04631" lon="0.83959">
        <ele>463</ele>
        <time>2021-03-13T16:27:34Z</time>
      </trkpt>
      <trkpt lat="43.04631" lon="0.83959">
        <ele>463</ele>
        <time>2021-03-13T16:27:35Z</time>
      </trkpt>
      <trkpt lat="43.04631" lon="0.83959">
        <ele>463</ele>
        <time>2021-03-13T16:27:36Z</time>
      </trkpt>
      <trkpt lat="43.04631" lon="0.83959">
        <ele>463</ele>
        <time>2021-03-13T16:27:37Z</time>
      </trkpt>
      <trkpt lat="43.04631" lon="0.83959">
        <ele>463</ele>
        <time>2021-03-13T16:27:38Z</time>
      </trkpt>
      <trkpt lat="43.04631" lon="0.83959">
        <ele>463</ele>
        <time>2021-03-13T16:27:39Z</time>
      </trkpt>
      <trkpt lat="43.04631" lon="0.83959">
        <ele>463</ele>
        <time>2021-03-13T16:27:40Z</time>
      </trkpt>
      <trkpt lat="43.04631" lon="0.83959">
        <ele>463</ele>
        <time>2021-03-13T16:27:41Z</time>
      </trkpt>
      <trkpt lat="43.04631" lon="0.83959">
        <ele>463</ele>
        <time>2021-03-13T16:27:42Z</time>
      </trkpt>
      <trkpt lat="43.04631" lon="0.83959">
        <ele>463</ele>
        <time>2021-03-13T16:27:43Z</time>
      </trkpt>
      <trkpt lat="43.04631" lon="0.83959">
        <ele>463</ele>
        <time>2021-03-13T16:27:44Z</time>
      </trkpt>
      <trkpt lat="43.04631" lon="0.83959">
        <ele>463</ele>
        <time>2021-03-13T16:27:45Z</time>
      </trkpt>
      <trkpt lat="43.04631" lon="0.83959">
        <ele>463</ele>
        <time>2021-03-13T16:27:46Z</time>
      </trkpt>
      <trkpt lat="43.04631" lon="0.83959">
        <ele>463</ele>
        <time>2021-03-13T16:27:47Z</time>
      </trkpt>
      <trkpt lat="43.04631" lon="0.83959">
        <ele>463</ele>
        <time>2021-03-13T16:27:48Z</time>
      </trkpt>
      <trkpt lat="43.04631" lon="0.83959">
        <ele>463</ele>
        <time>2021-03-13T16:27:49Z</time>
      </trkpt>
      <trkpt lat="43.04631" lon="0.83959">
        <ele>463</ele>
        <time>2021-03-13T16:27:50Z</time>
      </trkpt>
      <trkpt lat="43.04631" lon="0.83959">
        <ele>463</ele>
        <time>2021-03-13T16:27:51Z</time>
      </trkpt>
      <trkpt lat="43.04631" lon="0.83959">
        <ele>463</ele>
        <time>2021-03-13T16:27:52Z</time>
      </trkpt>
      <trkpt lat="43.04632" lon="0.83959">
        <ele>463</ele>
        <time>2021-03-13T16:27:53Z</time>
      </trkpt>
      <trkpt lat="43.04632" lon="0.83959">
        <ele>463</ele>
        <time>2021-03-13T16:27:54Z</time>
      </trkpt>
      <trkpt lat="43.04632" lon="0.83959">
        <ele>463</ele>
        <time>2021-03-13T16:27:55Z</time>
      </trkpt>
      <trkpt lat="43.04632" lon="0.8396">
        <ele>463</ele>
        <time>2021-03-13T16:27:56Z</time>
      </trkpt>
      <trkpt lat="43.04632" lon="0.8396">
        <ele>463</ele>
        <time>2021-03-13T16:27:57Z</time>
      </trkpt>
      <trkpt lat="43.04632" lon="0.8396">
        <ele>463</ele>
        <time>2021-03-13T16:27:58Z</time>
      </trkpt>
      <trkpt lat="43.04632" lon="0.8396">
        <ele>463</ele>
        <time>2021-03-13T16:27:59Z</time>
      </trkpt>
      <trkpt lat="43.04632" lon="0.8396">
        <ele>463</ele>
        <time>2021-03-13T16:28:00Z</time>
      </trkpt>
      <trkpt lat="43.04632" lon="0.8396">
        <ele>463</ele>
        <time>2021-03-13T16:28:01Z</time>
      </trkpt>
      <trkpt lat="43.04632" lon="0.8396">
        <ele>463</ele>
        <time>2021-03-13T16:28:02Z</time>
      </trkpt>
      <trkpt lat="43.04632" lon="0.8396">
        <ele>463</ele>
        <time>2021-03-13T16:28:03Z</time>
      </trkpt>
      <trkpt lat="43.04632" lon="0.8396">
        <ele>463</ele>
        <time>2021-03-13T16:28:04Z</time>
      </trkpt>
      <trkpt lat="43.04632" lon="0.8396">
        <ele>463</ele>
        <time>2021-03-13T16:28:05Z</time>
      </trkpt>
      <trkpt lat="43.04632" lon="0.8396">
        <ele>463</ele>
        <time>2021-03-13T16:28:06Z</time>
      </trkpt>
      <trkpt lat="43.04632" lon="0.8396">
        <ele>463</ele>
        <time>2021-03-13T16:28:07Z</time>
      </trkpt>
      <trkpt lat="43.04632" lon="0.8396">
        <ele>463</ele>
        <time>2021-03-13T16:28:08Z</time>
      </trkpt>
      <trkpt lat="43.04632" lon="0.8396">
        <ele>463</ele>
        <time>2021-03-13T16:28:09Z</time>
      </trkpt>
      <trkpt lat="43.04632" lon="0.8396">
        <ele>463</ele>
        <time>2021-03-13T16:28:10Z</time>
      </trkpt>
      <trkpt lat="43.04632" lon="0.8396">
        <ele>463</ele>
        <time>2021-03-13T16:28:11Z</time>
      </trkpt>
      <trkpt lat="43.04632" lon="0.8396">
        <ele>463</ele>
        <time>2021-03-13T16:28:12Z</time>
      </trkpt>
      <trkpt lat="43.04632" lon="0.8396">
        <ele>463</ele>
        <time>2021-03-13T16:28:13Z</time>
      </trkpt>
      <trkpt lat="43.04632" lon="0.8396">
        <ele>463</ele>
        <time>2021-03-13T16:28:14Z</time>
      </trkpt>
      <trkpt lat="43.04632" lon="0.8396">
        <ele>463</ele>
        <time>2021-03-13T16:28:15Z</time>
      </trkpt>
      <trkpt lat="43.04632" lon="0.8396">
        <ele>463</ele>
        <time>2021-03-13T16:28:16Z</time>
      </trkpt>
      <trkpt lat="43.04632" lon="0.8396">
        <ele>463</ele>
        <time>2021-03-13T16:28:17Z</time>
      </trkpt>
      <trkpt lat="43.04632" lon="0.8396">
        <ele>463</ele>
        <time>2021-03-13T16:28:18Z</time>
      </trkpt>
      <trkpt lat="43.04633" lon="0.8396">
        <ele>463</ele>
        <time>2021-03-13T16:28:19Z</time>
      </trkpt>
      <trkpt lat="43.04633" lon="0.8396">
        <ele>463</ele>
        <time>2021-03-13T16:28:20Z</time>
      </trkpt>
      <trkpt lat="43.04633" lon="0.8396">
        <ele>463</ele>
        <time>2021-03-13T16:28:21Z</time>
      </trkpt>
      <trkpt lat="43.04633" lon="0.8396">
        <ele>463</ele>
        <time>2021-03-13T16:28:22Z</time>
      </trkpt>
      <trkpt lat="43.04633" lon="0.8396">
        <ele>463</ele>
        <time>2021-03-13T16:28:23Z</time>
      </trkpt>
      <trkpt lat="43.04633" lon="0.8396">
        <ele>463</ele>
        <time>2021-03-13T16:28:24Z</time>
      </trkpt>
      <trkpt lat="43.04633" lon="0.8396">
        <ele>463</ele>
        <time>2021-03-13T16:28:25Z</time>
      </trkpt>
      <trkpt lat="43.04633" lon="0.8396">
        <ele>463</ele>
        <time>2021-03-13T16:28:26Z</time>
      </trkpt>
      <trkpt lat="43.04633" lon="0.8396">
        <ele>463</ele>
        <time>2021-03-13T16:28:27Z</time>
      </trkpt>
      <trkpt lat="43.04633" lon="0.8396">
        <ele>463</ele>
        <time>2021-03-13T16:28:28Z</time>
      </trkpt>
      <trkpt lat="43.04633" lon="0.8396">
        <ele>463</ele>
        <time>2021-03-13T16:28:29Z</time>
      </trkpt>
      <trkpt lat="43.04633" lon="0.8396">
        <ele>462</ele>
        <time>2021-03-13T16:28:30Z</time>
      </trkpt>
      <trkpt lat="43.04633" lon="0.8396">
        <ele>462</ele>
        <time>2021-03-13T16:28:31Z</time>
      </trkpt>
      <trkpt lat="43.04633" lon="0.8396">
        <ele>462</ele>
        <time>2021-03-13T16:28:32Z</time>
      </trkpt>
      <trkpt lat="43.04633" lon="0.8396">
        <ele>462</ele>
        <time>2021-03-13T16:28:33Z</time>
      </trkpt>
      <trkpt lat="43.04633" lon="0.8396">
        <ele>462</ele>
        <time>2021-03-13T16:28:34Z</time>
      </trkpt>
      <trkpt lat="43.04633" lon="0.8396">
        <ele>462</ele>
        <time>2021-03-13T16:28:35Z</time>
      </trkpt>
      <trkpt lat="43.04633" lon="0.8396">
        <ele>462</ele>
        <time>2021-03-13T16:28:36Z</time>
      </trkpt>
      <trkpt lat="43.04633" lon="0.8396">
        <ele>462</ele>
        <time>2021-03-13T16:28:37Z</time>
      </trkpt>
      <trkpt lat="43.04633" lon="0.8396">
        <ele>462</ele>
        <time>2021-03-13T16:28:38Z</time>
      </trkpt>
      <trkpt lat="43.04633" lon="0.8396">
        <ele>462</ele>
        <time>2021-03-13T16:28:39Z</time>
      </trkpt>
      <trkpt lat="43.04633" lon="0.8396">
        <ele>463</ele>
        <time>2021-03-13T16:28:40Z</time>
      </trkpt>
      <trkpt lat="43.04633" lon="0.8396">
        <ele>463</ele>
        <time>2021-03-13T16:28:41Z</time>
      </trkpt>
      <trkpt lat="43.04633" lon="0.8396">
        <ele>463</ele>
        <time>2021-03-13T16:28:42Z</time>
      </trkpt>
      <trkpt lat="43.04633" lon="0.8396">
        <ele>463</ele>
        <time>2021-03-13T16:28:43Z</time>
      </trkpt>
      <trkpt lat="43.04633" lon="0.8396">
        <ele>463</ele>
        <time>2021-03-13T16:28:44Z</time>
      </trkpt>
      <trkpt lat="43.04633" lon="0.8396">
        <ele>463</ele>
        <time>2021-03-13T16:28:45Z</time>
      </trkpt>
      <trkpt lat="43.04634" lon="0.8396">
        <ele>463</ele>
        <time>2021-03-13T16:28:46Z</time>
      </trkpt>
      <trkpt lat="43.04634" lon="0.8396">
        <ele>463</ele>
        <time>2021-03-13T16:28:47Z</time>
      </trkpt>
      <trkpt lat="43.04634" lon="0.8396">
        <ele>463</ele>
        <time>2021-03-13T16:28:48Z</time>
      </trkpt>
      <trkpt lat="43.04634" lon="0.8396">
        <ele>463</ele>
        <time>2021-03-13T16:28:49Z</time>
      </trkpt>
      <trkpt lat="43.04634" lon="0.8396">
        <ele>463</ele>
        <time>2021-03-13T16:28:50Z</time>
      </trkpt>
      <trkpt lat="43.04634" lon="0.8396">
        <ele>463</ele>
        <time>2021-03-13T16:28:51Z</time>
      </trkpt>
      <trkpt lat="43.04634" lon="0.8396">
        <ele>463</ele>
        <time>2021-03-13T16:28:52Z</time>
      </trkpt>
      <trkpt lat="43.04634" lon="0.8396">
        <ele>463</ele>
        <time>2021-03-13T16:28:53Z</time>
      </trkpt>
      <trkpt lat="43.04634" lon="0.8396">
        <ele>463</ele>
        <time>2021-03-13T16:28:54Z</time>
      </trkpt>
      <trkpt lat="43.04634" lon="0.8396">
        <ele>463</ele>
        <time>2021-03-13T16:28:55Z</time>
      </trkpt>
      <trkpt lat="43.04634" lon="0.8396">
        <ele>463</ele>
        <time>2021-03-13T16:28:56Z</time>
      </trkpt>
      <trkpt lat="43.04634" lon="0.8396">
        <ele>463</ele>
        <time>2021-03-13T16:28:57Z</time>
      </trkpt>
      <trkpt lat="43.04634" lon="0.8396">
        <ele>463</ele>
        <time>2021-03-13T16:28:58Z</time>
      </trkpt>
      <trkpt lat="43.04634" lon="0.8396">
        <ele>463</ele>
        <time>2021-03-13T16:28:59Z</time>
      </trkpt>
      <trkpt lat="43.04634" lon="0.8396">
        <ele>462</ele>
        <time>2021-03-13T16:29:00Z</time>
      </trkpt>
      <trkpt lat="43.04634" lon="0.8396">
        <ele>462</ele>
        <time>2021-03-13T16:29:01Z</time>
      </trkpt>
      <trkpt lat="43.04634" lon="0.8396">
        <ele>462</ele>
        <time>2021-03-13T16:29:02Z</time>
      </trkpt>
      <trkpt lat="43.04634" lon="0.8396">
        <ele>462</ele>
        <time>2021-03-13T16:29:03Z</time>
      </trkpt>
      <trkpt lat="43.04634" lon="0.8396">
        <ele>462</ele>
        <time>2021-03-13T16:29:04Z</time>
      </trkpt>
      <trkpt lat="43.04634" lon="0.8396">
        <ele>462</ele>
        <time>2021-03-13T16:29:05Z</time>
      </trkpt>
      <trkpt lat="43.04634" lon="0.8396">
        <ele>462</ele>
        <time>2021-03-13T16:29:06Z</time>
      </trkpt>
      <trkpt lat="43.04634" lon="0.8396">
        <ele>462</ele>
        <time>2021-03-13T16:29:07Z</time>
      </trkpt>
      <trkpt lat="43.04634" lon="0.8396">
        <ele>462</ele>
        <time>2021-03-13T16:29:08Z</time>
      </trkpt>
      <trkpt lat="43.04634" lon="0.8396">
        <ele>462</ele>
        <time>2021-03-13T16:29:09Z</time>
      </trkpt>
      <trkpt lat="43.04634" lon="0.8396">
        <ele>463</ele>
        <time>2021-03-13T16:29:10Z</time>
      </trkpt>
      <trkpt lat="43.04634" lon="0.8396">
        <ele>463</ele>
        <time>2021-03-13T16:29:11Z</time>
      </trkpt>
      <trkpt lat="43.04635" lon="0.8396">
        <ele>463</ele>
        <time>2021-03-13T16:29:12Z</time>
      </trkpt>
      <trkpt lat="43.04635" lon="0.8396">
        <ele>463</ele>
        <time>2021-03-13T16:29:13Z</time>
      </trkpt>
      <trkpt lat="43.04635" lon="0.8396">
        <ele>463</ele>
        <time>2021-03-13T16:29:14Z</time>
      </trkpt>
      <trkpt lat="43.04635" lon="0.83961">
        <ele>463</ele>
        <time>2021-03-13T16:29:15Z</time>
      </trkpt>
      <trkpt lat="43.04635" lon="0.83961">
        <ele>463</ele>
        <time>2021-03-13T16:29:16Z</time>
      </trkpt>
      <trkpt lat="43.04635" lon="0.83961">
        <ele>463</ele>
        <time>2021-03-13T16:29:17Z</time>
      </trkpt>
      <trkpt lat="43.04635" lon="0.83961">
        <ele>463</ele>
        <time>2021-03-13T16:29:18Z</time>
      </trkpt>
      <trkpt lat="43.04635" lon="0.83961">
        <ele>463</ele>
        <time>2021-03-13T16:29:19Z</time>
      </trkpt>
      <trkpt lat="43.04635" lon="0.83961">
        <ele>463</ele>
        <time>2021-03-13T16:29:20Z</time>
      </trkpt>
      <trkpt lat="43.04635" lon="0.83961">
        <ele>463</ele>
        <time>2021-03-13T16:29:21Z</time>
      </trkpt>
      <trkpt lat="43.04635" lon="0.83961">
        <ele>463</ele>
        <time>2021-03-13T16:29:22Z</time>
      </trkpt>
      <trkpt lat="43.04635" lon="0.83961">
        <ele>463</ele>
        <time>2021-03-13T16:29:23Z</time>
      </trkpt>
      <trkpt lat="43.04635" lon="0.83961">
        <ele>463</ele>
        <time>2021-03-13T16:29:24Z</time>
      </trkpt>
      <trkpt lat="43.04635" lon="0.83961">
        <ele>463</ele>
        <time>2021-03-13T16:29:25Z</time>
      </trkpt>
      <trkpt lat="43.04635" lon="0.83961">
        <ele>463</ele>
        <time>2021-03-13T16:29:26Z</time>
      </trkpt>
      <trkpt lat="43.04635" lon="0.83961">
        <ele>463</ele>
        <time>2021-03-13T16:29:27Z</time>
      </trkpt>
      <trkpt lat="43.04635" lon="0.83961">
        <ele>463</ele>
        <time>2021-03-13T16:29:28Z</time>
      </trkpt>
      <trkpt lat="43.04635" lon="0.83961">
        <ele>463</ele>
        <time>2021-03-13T16:29:29Z</time>
      </trkpt>
      <trkpt lat="43.04635" lon="0.83961">
        <ele>462</ele>
        <time>2021-03-13T16:29:30Z</time>
      </trkpt>
      <trkpt lat="43.04635" lon="0.83961">
        <ele>462</ele>
        <time>2021-03-13T16:29:31Z</time>
      </trkpt>
      <trkpt lat="43.04635" lon="0.83961">
        <ele>462</ele>
        <time>2021-03-13T16:29:32Z</time>
      </trkpt>
      <trkpt lat="43.04635" lon="0.83961">
        <ele>462</ele>
        <time>2021-03-13T16:29:33Z</time>
      </trkpt>
      <trkpt lat="43.04635" lon="0.83961">
        <ele>462</ele>
        <time>2021-03-13T16:29:34Z</time>
      </trkpt>
      <trkpt lat="43.04635" lon="0.83961">
        <ele>462</ele>
        <time>2021-03-13T16:29:35Z</time>
      </trkpt>
      <trkpt lat="43.04635" lon="0.83961">
        <ele>462</ele>
        <time>2021-03-13T16:29:36Z</time>
      </trkpt>
      <trkpt lat="43.04635" lon="0.83961">
        <ele>462</ele>
        <time>2021-03-13T16:29:37Z</time>
      </trkpt>
      <trkpt lat="43.04635" lon="0.83961">
        <ele>462</ele>
        <time>2021-03-13T16:29:38Z</time>
      </trkpt>
      <trkpt lat="43.04636" lon="0.83961">
        <ele>462</ele>
        <time>2021-03-13T16:29:39Z</time>
      </trkpt>
      <trkpt lat="43.04636" lon="0.83961">
        <ele>462</ele>
        <time>2021-03-13T16:29:40Z</time>
      </trkpt>
      <trkpt lat="43.04636" lon="0.83961">
        <ele>462</ele>
        <time>2021-03-13T16:29:41Z</time>
      </trkpt>
      <trkpt lat="43.04636" lon="0.83961">
        <ele>462</ele>
        <time>2021-03-13T16:29:42Z</time>
      </trkpt>
      <trkpt lat="43.04636" lon="0.83961">
        <ele>462</ele>
        <time>2021-03-13T16:29:43Z</time>
      </trkpt>
      <trkpt lat="43.04636" lon="0.83961">
        <ele>462</ele>
        <time>2021-03-13T16:29:44Z</time>
      </trkpt>
      <trkpt lat="43.04636" lon="0.83961">
        <ele>462</ele>
        <time>2021-03-13T16:29:45Z</time>
      </trkpt>
      <trkpt lat="43.04636" lon="0.83961">
        <ele>462</ele>
        <time>2021-03-13T16:29:46Z</time>
      </trkpt>
      <trkpt lat="43.04636" lon="0.83961">
        <ele>462</ele>
        <time>2021-03-13T16:29:47Z</time>
      </trkpt>
      <trkpt lat="43.04636" lon="0.83961">
        <ele>462</ele>
        <time>2021-03-13T16:29:48Z</time>
      </trkpt>
      <trkpt lat="43.04636" lon="0.83961">
        <ele>462</ele>
        <time>2021-03-13T16:29:49Z</time>
      </trkpt>
      <trkpt lat="43.04636" lon="0.83961">
        <ele>461</ele>
        <time>2021-03-13T16:29:50Z</time>
      </trkpt>
      <trkpt lat="43.04639" lon="0.83962">
        <ele>461</ele>
        <time>2021-03-13T16:29:51Z</time>
      </trkpt>
      <trkpt lat="43.04642" lon="0.83963">
        <ele>461</ele>
        <time>2021-03-13T16:29:52Z</time>
      </trkpt>
      <trkpt lat="43.04646" lon="0.83964">
        <ele>461</ele>
        <time>2021-03-13T16:29:53Z</time>
      </trkpt>
      <trkpt lat="43.04649" lon="0.83965">
        <ele>461</ele>
        <time>2021-03-13T16:29:54Z</time>
      </trkpt>
      <trkpt lat="43.04651" lon="0.83968">
        <ele>461</ele>
        <time>2021-03-13T16:29:55Z</time>
      </trkpt>
      <trkpt lat="43.04654" lon="0.83971">
        <ele>461</ele>
        <time>2021-03-13T16:29:56Z</time>
      </trkpt>
      <trkpt lat="43.04656" lon="0.83974">
        <ele>461</ele>
        <time>2021-03-13T16:29:57Z</time>
      </trkpt>
      <trkpt lat="43.04657" lon="0.83976">
        <ele>461</ele>
        <time>2021-03-13T16:29:58Z</time>
      </trkpt>
      <trkpt lat="43.04657" lon="0.83978">
        <ele>461</ele>
        <time>2021-03-13T16:29:59Z</time>
      </trkpt>
      <trkpt lat="43.04657" lon="0.8398">
        <ele>459</ele>
        <time>2021-03-13T16:30:00Z</time>
      </trkpt>
      <trkpt lat="43.04658" lon="0.83982">
        <ele>459</ele>
        <time>2021-03-13T16:30:01Z</time>
      </trkpt>
      <trkpt lat="43.04659" lon="0.8399">
        <ele>459</ele>
        <time>2021-03-13T16:30:02Z</time>
      </trkpt>
      <trkpt lat="43.0466" lon="0.83991">
        <ele>459</ele>
        <time>2021-03-13T16:30:03Z</time>
      </trkpt>
      <trkpt lat="43.0466" lon="0.83992">
        <ele>459</ele>
        <time>2021-03-13T16:30:04Z</time>
      </trkpt>
      <trkpt lat="43.0466" lon="0.83992">
        <ele>459</ele>
        <time>2021-03-13T16:30:05Z</time>
      </trkpt>
      <trkpt lat="43.0466" lon="0.83993">
        <ele>459</ele>
        <time>2021-03-13T16:30:06Z</time>
      </trkpt>
      <trkpt lat="43.0466" lon="0.83994">
        <ele>459</ele>
        <time>2021-03-13T16:30:07Z</time>
      </trkpt>
      <trkpt lat="43.0466" lon="0.83995">
        <ele>459</ele>
        <time>2021-03-13T16:30:08Z</time>
      </trkpt>
      <trkpt lat="43.04661" lon="0.83995">
        <ele>459</ele>
        <time>2021-03-13T16:30:09Z</time>
      </trkpt>
      <trkpt lat="43.04661" lon="0.83996">
        <ele>459</ele>
        <time>2021-03-13T16:30:10Z</time>
      </trkpt>
      <trkpt lat="43.04663" lon="0.84006">
        <ele>459</ele>
        <time>2021-03-13T16:30:11Z</time>
      </trkpt>
      <trkpt lat="43.04663" lon="0.8401">
        <ele>459</ele>
        <time>2021-03-13T16:30:12Z</time>
      </trkpt>
      <trkpt lat="43.04663" lon="0.84013">
        <ele>459</ele>
        <time>2021-03-13T16:30:13Z</time>
      </trkpt>
      <trkpt lat="43.04664" lon="0.84017">
        <ele>459</ele>
        <time>2021-03-13T16:30:14Z</time>
      </trkpt>
      <trkpt lat="43.04664" lon="0.84019">
        <ele>459</ele>
        <time>2021-03-13T16:30:15Z</time>
      </trkpt>
      <trkpt lat="43.04664" lon="0.84022">
        <ele>459</ele>
        <time>2021-03-13T16:30:16Z</time>
      </trkpt>
      <trkpt lat="43.04665" lon="0.84025">
        <ele>459</ele>
        <time>2021-03-13T16:30:17Z</time>
      </trkpt>
      <trkpt lat="43.04668" lon="0.8404">
        <ele>459</ele>
        <time>2021-03-13T16:30:18Z</time>
      </trkpt>
      <trkpt lat="43.0467" lon="0.84046">
        <ele>459</ele>
        <time>2021-03-13T16:30:19Z</time>
      </trkpt>
      <trkpt lat="43.0467" lon="0.84049">
        <ele>459</ele>
        <time>2021-03-13T16:30:20Z</time>
      </trkpt>
      <trkpt lat="43.04671" lon="0.84052">
        <ele>459</ele>
        <time>2021-03-13T16:30:21Z</time>
      </trkpt>
      <trkpt lat="43.04671" lon="0.84055">
        <ele>459</ele>
        <time>2021-03-13T16:30:22Z</time>
      </trkpt>
      <trkpt lat="43.04674" lon="0.84069">
        <ele>459</ele>
        <time>2021-03-13T16:30:23Z</time>
      </trkpt>
      <trkpt lat="43.04675" lon="0.84075">
        <ele>459</ele>
        <time>2021-03-13T16:30:24Z</time>
      </trkpt>
      <trkpt lat="43.04676" lon="0.84078">
        <ele>459</ele>
        <time>2021-03-13T16:30:25Z</time>
      </trkpt>
      <trkpt lat="43.04677" lon="0.84081">
        <ele>459</ele>
        <time>2021-03-13T16:30:26Z</time>
      </trkpt>
      <trkpt lat="43.04678" lon="0.84083">
        <ele>459</ele>
        <time>2021-03-13T16:30:27Z</time>
      </trkpt>
      <trkpt lat="43.04681" lon="0.84095">
        <ele>459</ele>
        <time>2021-03-13T16:30:28Z</time>
      </trkpt>
      <trkpt lat="43.04681" lon="0.84098">
        <ele>459</ele>
        <time>2021-03-13T16:30:29Z</time>
      </trkpt>
      <trkpt lat="43.04682" lon="0.84101">
        <ele>459</ele>
        <time>2021-03-13T16:30:30Z</time>
      </trkpt>
      <trkpt lat="43.04685" lon="0.84112">
        <ele>459</ele>
        <time>2021-03-13T16:30:31Z</time>
      </trkpt>
      <trkpt lat="43.04686" lon="0.84114">
        <ele>459</ele>
        <time>2021-03-13T16:30:32Z</time>
      </trkpt>
      <trkpt lat="43.04687" lon="0.84117">
        <ele>459</ele>
        <time>2021-03-13T16:30:33Z</time>
      </trkpt>
      <trkpt lat="43.0469" lon="0.84126">
        <ele>459</ele>
        <time>2021-03-13T16:30:34Z</time>
      </trkpt>
      <trkpt lat="43.0469" lon="0.84129">
        <ele>459</ele>
        <time>2021-03-13T16:30:35Z</time>
      </trkpt>
      <trkpt lat="43.04691" lon="0.84131">
        <ele>459</ele>
        <time>2021-03-13T16:30:36Z</time>
      </trkpt>
      <trkpt lat="43.04694" lon="0.84141">
        <ele>459</ele>
        <time>2021-03-13T16:30:37Z</time>
      </trkpt>
      <trkpt lat="43.04694" lon="0.84143">
        <ele>459</ele>
        <time>2021-03-13T16:30:38Z</time>
      </trkpt>
      <trkpt lat="43.04695" lon="0.84146">
        <ele>459</ele>
        <time>2021-03-13T16:30:39Z</time>
      </trkpt>
      <trkpt lat="43.04698" lon="0.84157">
        <ele>460</ele>
        <time>2021-03-13T16:30:40Z</time>
      </trkpt>
      <trkpt lat="43.04699" lon="0.84161">
        <ele>460</ele>
        <time>2021-03-13T16:30:41Z</time>
      </trkpt>
      <trkpt lat="43.047" lon="0.84166">
        <ele>460</ele>
        <time>2021-03-13T16:30:42Z</time>
      </trkpt>
      <trkpt lat="43.04701" lon="0.84168">
        <ele>460</ele>
        <time>2021-03-13T16:30:43Z</time>
      </trkpt>
      <trkpt lat="43.04702" lon="0.8417">
        <ele>460</ele>
        <time>2021-03-13T16:30:44Z</time>
      </trkpt>
      <trkpt lat="43.04703" lon="0.84173">
        <ele>460</ele>
        <time>2021-03-13T16:30:45Z</time>
      </trkpt>
      <trkpt lat="43.04707" lon="0.84182">
        <ele>460</ele>
        <time>2021-03-13T16:30:46Z</time>
      </trkpt>
      <trkpt lat="43.04708" lon="0.84184">
        <ele>460</ele>
        <time>2021-03-13T16:30:47Z</time>
      </trkpt>
      <trkpt lat="43.0471" lon="0.84186">
        <ele>460</ele>
        <time>2021-03-13T16:30:48Z</time>
      </trkpt>
      <trkpt lat="43.04714" lon="0.84195">
        <ele>460</ele>
        <time>2021-03-13T16:30:49Z</time>
      </trkpt>
      <trkpt lat="43.04715" lon="0.84198">
        <ele>460</ele>
        <time>2021-03-13T16:30:50Z</time>
      </trkpt>
      <trkpt lat="43.04716" lon="0.842">
        <ele>460</ele>
        <time>2021-03-13T16:30:51Z</time>
      </trkpt>
      <trkpt lat="43.04722" lon="0.84211">
        <ele>460</ele>
        <time>2021-03-13T16:30:52Z</time>
      </trkpt>
      <trkpt lat="43.04724" lon="0.84215">
        <ele>460</ele>
        <time>2021-03-13T16:30:53Z</time>
      </trkpt>
      <trkpt lat="43.04725" lon="0.84217">
        <ele>460</ele>
        <time>2021-03-13T16:30:54Z</time>
      </trkpt>
      <trkpt lat="43.04726" lon="0.84219">
        <ele>460</ele>
        <time>2021-03-13T16:30:55Z</time>
      </trkpt>
      <trkpt lat="43.04728" lon="0.84221">
        <ele>460</ele>
        <time>2021-03-13T16:30:56Z</time>
      </trkpt>
      <trkpt lat="43.04732" lon="0.8423">
        <ele>460</ele>
        <time>2021-03-13T16:30:57Z</time>
      </trkpt>
      <trkpt lat="43.04733" lon="0.84232">
        <ele>460</ele>
        <time>2021-03-13T16:30:58Z</time>
      </trkpt>
      <trkpt lat="43.04734" lon="0.84234">
        <ele>460</ele>
        <time>2021-03-13T16:30:59Z</time>
      </trkpt>
      <trkpt lat="43.04739" lon="0.84243">
        <ele>460</ele>
        <time>2021-03-13T16:31:00Z</time>
      </trkpt>
      <trkpt lat="43.0474" lon="0.84245">
        <ele>460</ele>
        <time>2021-03-13T16:31:01Z</time>
      </trkpt>
      <trkpt lat="43.04741" lon="0.84247">
        <ele>460</ele>
        <time>2021-03-13T16:31:02Z</time>
      </trkpt>
      <trkpt lat="43.04746" lon="0.84255">
        <ele>460</ele>
        <time>2021-03-13T16:31:03Z</time>
      </trkpt>
      <trkpt lat="43.04747" lon="0.84257">
        <ele>460</ele>
        <time>2021-03-13T16:31:04Z</time>
      </trkpt>
      <trkpt lat="43.04748" lon="0.8426">
        <ele>460</ele>
        <time>2021-03-13T16:31:05Z</time>
      </trkpt>
      <trkpt lat="43.04753" lon="0.84268">
        <ele>460</ele>
        <time>2021-03-13T16:31:06Z</time>
      </trkpt>
      <trkpt lat="43.04754" lon="0.8427">
        <ele>460</ele>
        <time>2021-03-13T16:31:07Z</time>
      </trkpt>
      <trkpt lat="43.04755" lon="0.84272">
        <ele>460</ele>
        <time>2021-03-13T16:31:08Z</time>
      </trkpt>
      <trkpt lat="43.0476" lon="0.8428">
        <ele>460</ele>
        <time>2021-03-13T16:31:09Z</time>
      </trkpt>
      <trkpt lat="43.04761" lon="0.84283">
        <ele>460</ele>
        <time>2021-03-13T16:31:10Z</time>
      </trkpt>
      <trkpt lat="43.04762" lon="0.84285">
        <ele>460</ele>
        <time>2021-03-13T16:31:11Z</time>
      </trkpt>
      <trkpt lat="43.04767" lon="0.84295">
        <ele>460</ele>
        <time>2021-03-13T16:31:12Z</time>
      </trkpt>
      <trkpt lat="43.04769" lon="0.84298">
        <ele>460</ele>
        <time>2021-03-13T16:31:13Z</time>
      </trkpt>
      <trkpt lat="43.04771" lon="0.84302">
        <ele>460</ele>
        <time>2021-03-13T16:31:14Z</time>
      </trkpt>
      <trkpt lat="43.04772" lon="0.84306">
        <ele>460</ele>
        <time>2021-03-13T16:31:15Z</time>
      </trkpt>
      <trkpt lat="43.04774" lon="0.8431">
        <ele>460</ele>
        <time>2021-03-13T16:31:16Z</time>
      </trkpt>
      <trkpt lat="43.04775" lon="0.84314">
        <ele>460</ele>
        <time>2021-03-13T16:31:17Z</time>
      </trkpt>
      <trkpt lat="43.04776" lon="0.84316">
        <ele>460</ele>
        <time>2021-03-13T16:31:18Z</time>
      </trkpt>
      <trkpt lat="43.04777" lon="0.84318">
        <ele>460</ele>
        <time>2021-03-13T16:31:19Z</time>
      </trkpt>
      <trkpt lat="43.04778" lon="0.8432">
        <ele>462</ele>
        <time>2021-03-13T16:31:20Z</time>
      </trkpt>
      <trkpt lat="43.04783" lon="0.8433">
        <ele>462</ele>
        <time>2021-03-13T16:31:21Z</time>
      </trkpt>
      <trkpt lat="43.04784" lon="0.84333">
        <ele>462</ele>
        <time>2021-03-13T16:31:22Z</time>
      </trkpt>
      <trkpt lat="43.04785" lon="0.84335">
        <ele>462</ele>
        <time>2021-03-13T16:31:23Z</time>
      </trkpt>
      <trkpt lat="43.04786" lon="0.84337">
        <ele>462</ele>
        <time>2021-03-13T16:31:24Z</time>
      </trkpt>
      <trkpt lat="43.04787" lon="0.84339">
        <ele>462</ele>
        <time>2021-03-13T16:31:25Z</time>
      </trkpt>
      <trkpt lat="43.04788" lon="0.84341">
        <ele>462</ele>
        <time>2021-03-13T16:31:26Z</time>
      </trkpt>
      <trkpt lat="43.04793" lon="0.84353">
        <ele>462</ele>
        <time>2021-03-13T16:31:27Z</time>
      </trkpt>
      <trkpt lat="43.04794" lon="0.84357">
        <ele>462</ele>
        <time>2021-03-13T16:31:28Z</time>
      </trkpt>
      <trkpt lat="43.04796" lon="0.84361">
        <ele>462</ele>
        <time>2021-03-13T16:31:29Z</time>
      </trkpt>
      <trkpt lat="43.04797" lon="0.84365">
        <ele>464</ele>
        <time>2021-03-13T16:31:30Z</time>
      </trkpt>
      <trkpt lat="43.04799" lon="0.84369">
        <ele>464</ele>
        <time>2021-03-13T16:31:31Z</time>
      </trkpt>
      <trkpt lat="43.048" lon="0.84373">
        <ele>464</ele>
        <time>2021-03-13T16:31:32Z</time>
      </trkpt>
      <trkpt lat="43.04801" lon="0.84377">
        <ele>464</ele>
        <time>2021-03-13T16:31:33Z</time>
      </trkpt>
      <trkpt lat="43.04803" lon="0.84382">
        <ele>464</ele>
        <time>2021-03-13T16:31:34Z</time>
      </trkpt>
      <trkpt lat="43.04804" lon="0.84386">
        <ele>464</ele>
        <time>2021-03-13T16:31:35Z</time>
      </trkpt>
      <trkpt lat="43.04806" lon="0.8439">
        <ele>464</ele>
        <time>2021-03-13T16:31:36Z</time>
      </trkpt>
      <trkpt lat="43.04807" lon="0.84394">
        <ele>464</ele>
        <time>2021-03-13T16:31:37Z</time>
      </trkpt>
      <trkpt lat="43.04808" lon="0.84398">
        <ele>464</ele>
        <time>2021-03-13T16:31:38Z</time>
      </trkpt>
      <trkpt lat="43.0481" lon="0.84401">
        <ele>464</ele>
        <time>2021-03-13T16:31:39Z</time>
      </trkpt>
      <trkpt lat="43.04811" lon="0.84405">
        <ele>464</ele>
        <time>2021-03-13T16:31:40Z</time>
      </trkpt>
      <trkpt lat="43.04813" lon="0.84408">
        <ele>464</ele>
        <time>2021-03-13T16:31:41Z</time>
      </trkpt>
      <trkpt lat="43.04814" lon="0.84412">
        <ele>464</ele>
        <time>2021-03-13T16:31:42Z</time>
      </trkpt>
      <trkpt lat="43.04816" lon="0.84415">
        <ele>464</ele>
        <time>2021-03-13T16:31:43Z</time>
      </trkpt>
      <trkpt lat="43.04817" lon="0.84419">
        <ele>464</ele>
        <time>2021-03-13T16:31:44Z</time>
      </trkpt>
      <trkpt lat="43.04818" lon="0.84423">
        <ele>464</ele>
        <time>2021-03-13T16:31:45Z</time>
      </trkpt>
      <trkpt lat="43.0482" lon="0.84427">
        <ele>464</ele>
        <time>2021-03-13T16:31:46Z</time>
      </trkpt>
      <trkpt lat="43.04821" lon="0.84432">
        <ele>464</ele>
        <time>2021-03-13T16:31:47Z</time>
      </trkpt>
      <trkpt lat="43.04822" lon="0.84436">
        <ele>464</ele>
        <time>2021-03-13T16:31:48Z</time>
      </trkpt>
      <trkpt lat="43.04824" lon="0.8444">
        <ele>464</ele>
        <time>2021-03-13T16:31:49Z</time>
      </trkpt>
      <trkpt lat="43.04825" lon="0.84444">
        <ele>465</ele>
        <time>2021-03-13T16:31:50Z</time>
      </trkpt>
      <trkpt lat="43.04827" lon="0.84447">
        <ele>465</ele>
        <time>2021-03-13T16:31:51Z</time>
      </trkpt>
      <trkpt lat="43.04828" lon="0.84451">
        <ele>465</ele>
        <time>2021-03-13T16:31:52Z</time>
      </trkpt>
      <trkpt lat="43.0483" lon="0.84455">
        <ele>465</ele>
        <time>2021-03-13T16:31:53Z</time>
      </trkpt>
      <trkpt lat="43.04831" lon="0.84458">
        <ele>465</ele>
        <time>2021-03-13T16:31:54Z</time>
      </trkpt>
      <trkpt lat="43.04832" lon="0.84462">
        <ele>465</ele>
        <time>2021-03-13T16:31:55Z</time>
      </trkpt>
      <trkpt lat="43.04833" lon="0.84464">
        <ele>465</ele>
        <time>2021-03-13T16:31:56Z</time>
      </trkpt>
      <trkpt lat="43.04833" lon="0.84466">
        <ele>465</ele>
        <time>2021-03-13T16:31:57Z</time>
      </trkpt>
      <trkpt lat="43.04834" lon="0.84468">
        <ele>465</ele>
        <time>2021-03-13T16:31:58Z</time>
      </trkpt>
      <trkpt lat="43.04835" lon="0.8447">
        <ele>465</ele>
        <time>2021-03-13T16:31:59Z</time>
      </trkpt>
      <trkpt lat="43.04835" lon="0.84472">
        <ele>465</ele>
        <time>2021-03-13T16:32:00Z</time>
      </trkpt>
      <trkpt lat="43.04836" lon="0.84473">
        <ele>465</ele>
        <time>2021-03-13T16:32:01Z</time>
      </trkpt>
      <trkpt lat="43.04836" lon="0.84474">
        <ele>465</ele>
        <time>2021-03-13T16:32:02Z</time>
      </trkpt>
      <trkpt lat="43.04837" lon="0.84476">
        <ele>465</ele>
        <time>2021-03-13T16:32:03Z</time>
      </trkpt>
      <trkpt lat="43.04838" lon="0.84477">
        <ele>465</ele>
        <time>2021-03-13T16:32:04Z</time>
      </trkpt>
      <trkpt lat="43.04838" lon="0.84478">
        <ele>465</ele>
        <time>2021-03-13T16:32:05Z</time>
      </trkpt>
      <trkpt lat="43.04839" lon="0.84479">
        <ele>465</ele>
        <time>2021-03-13T16:32:06Z</time>
      </trkpt>
      <trkpt lat="43.04843" lon="0.84488">
        <ele>465</ele>
        <time>2021-03-13T16:32:07Z</time>
      </trkpt>
      <trkpt lat="43.04843" lon="0.8449">
        <ele>465</ele>
        <time>2021-03-13T16:32:08Z</time>
      </trkpt>
      <trkpt lat="43.04844" lon="0.84492">
        <ele>465</ele>
        <time>2021-03-13T16:32:09Z</time>
      </trkpt>
      <trkpt lat="43.04845" lon="0.84493">
        <ele>467</ele>
        <time>2021-03-13T16:32:10Z</time>
      </trkpt>
      <trkpt lat="43.04848" lon="0.84502">
        <ele>467</ele>
        <time>2021-03-13T16:32:11Z</time>
      </trkpt>
      <trkpt lat="43.04848" lon="0.84504">
        <ele>467</ele>
        <time>2021-03-13T16:32:12Z</time>
      </trkpt>
      <trkpt lat="43.04849" lon="0.84506">
        <ele>467</ele>
        <time>2021-03-13T16:32:13Z</time>
      </trkpt>
      <trkpt lat="43.04849" lon="0.84508">
        <ele>467</ele>
        <time>2021-03-13T16:32:14Z</time>
      </trkpt>
      <trkpt lat="43.04853" lon="0.8452">
        <ele>467</ele>
        <time>2021-03-13T16:32:15Z</time>
      </trkpt>
      <trkpt lat="43.04854" lon="0.84524">
        <ele>467</ele>
        <time>2021-03-13T16:32:16Z</time>
      </trkpt>
      <trkpt lat="43.04855" lon="0.84528">
        <ele>467</ele>
        <time>2021-03-13T16:32:17Z</time>
      </trkpt>
      <trkpt lat="43.04856" lon="0.84532">
        <ele>467</ele>
        <time>2021-03-13T16:32:18Z</time>
      </trkpt>
      <trkpt lat="43.04856" lon="0.84536">
        <ele>467</ele>
        <time>2021-03-13T16:32:19Z</time>
      </trkpt>
      <trkpt lat="43.04857" lon="0.84541">
        <ele>466</ele>
        <time>2021-03-13T16:32:20Z</time>
      </trkpt>
      <trkpt lat="43.04858" lon="0.84545">
        <ele>466</ele>
        <time>2021-03-13T16:32:21Z</time>
      </trkpt>
      <trkpt lat="43.04859" lon="0.84549">
        <ele>466</ele>
        <time>2021-03-13T16:32:22Z</time>
      </trkpt>
      <trkpt lat="43.0486" lon="0.84553">
        <ele>466</ele>
        <time>2021-03-13T16:32:23Z</time>
      </trkpt>
      <trkpt lat="43.04861" lon="0.84557">
        <ele>466</ele>
        <time>2021-03-13T16:32:24Z</time>
      </trkpt>
      <trkpt lat="43.04862" lon="0.84561">
        <ele>466</ele>
        <time>2021-03-13T16:32:25Z</time>
      </trkpt>
      <trkpt lat="43.04863" lon="0.84564">
        <ele>466</ele>
        <time>2021-03-13T16:32:26Z</time>
      </trkpt>
      <trkpt lat="43.04863" lon="0.84568">
        <ele>466</ele>
        <time>2021-03-13T16:32:27Z</time>
      </trkpt>
      <trkpt lat="43.04864" lon="0.84573">
        <ele>466</ele>
        <time>2021-03-13T16:32:28Z</time>
      </trkpt>
      <trkpt lat="43.04865" lon="0.84577">
        <ele>466</ele>
        <time>2021-03-13T16:32:29Z</time>
      </trkpt>
      <trkpt lat="43.04866" lon="0.8458">
        <ele>466</ele>
        <time>2021-03-13T16:32:30Z</time>
      </trkpt>
      <trkpt lat="43.04867" lon="0.84584">
        <ele>466</ele>
        <time>2021-03-13T16:32:31Z</time>
      </trkpt>
      <trkpt lat="43.04868" lon="0.84588">
        <ele>466</ele>
        <time>2021-03-13T16:32:32Z</time>
      </trkpt>
      <trkpt lat="43.04869" lon="0.84592">
        <ele>466</ele>
        <time>2021-03-13T16:32:33Z</time>
      </trkpt>
      <trkpt lat="43.0487" lon="0.84596">
        <ele>466</ele>
        <time>2021-03-13T16:32:34Z</time>
      </trkpt>
      <trkpt lat="43.04871" lon="0.84601">
        <ele>466</ele>
        <time>2021-03-13T16:32:35Z</time>
      </trkpt>
      <trkpt lat="43.04871" lon="0.84605">
        <ele>466</ele>
        <time>2021-03-13T16:32:36Z</time>
      </trkpt>
      <trkpt lat="43.04872" lon="0.84609">
        <ele>466</ele>
        <time>2021-03-13T16:32:37Z</time>
      </trkpt>
      <trkpt lat="43.04872" lon="0.84613">
        <ele>466</ele>
        <time>2021-03-13T16:32:38Z</time>
      </trkpt>
      <trkpt lat="43.04873" lon="0.84617">
        <ele>466</ele>
        <time>2021-03-13T16:32:39Z</time>
      </trkpt>
      <trkpt lat="43.04873" lon="0.84621">
        <ele>468</ele>
        <time>2021-03-13T16:32:40Z</time>
      </trkpt>
      <trkpt lat="43.04873" lon="0.84626">
        <ele>468</ele>
        <time>2021-03-13T16:32:41Z</time>
      </trkpt>
      <trkpt lat="43.04874" lon="0.84628">
        <ele>468</ele>
        <time>2021-03-13T16:32:42Z</time>
      </trkpt>
      <trkpt lat="43.04874" lon="0.8463">
        <ele>468</ele>
        <time>2021-03-13T16:32:43Z</time>
      </trkpt>
      <trkpt lat="43.04874" lon="0.84632">
        <ele>468</ele>
        <time>2021-03-13T16:32:44Z</time>
      </trkpt>
      <trkpt lat="43.04874" lon="0.84634">
        <ele>468</ele>
        <time>2021-03-13T16:32:45Z</time>
      </trkpt>
      <trkpt lat="43.04874" lon="0.84646">
        <ele>468</ele>
        <time>2021-03-13T16:32:46Z</time>
      </trkpt>
      <trkpt lat="43.04874" lon="0.8465">
        <ele>468</ele>
        <time>2021-03-13T16:32:47Z</time>
      </trkpt>
      <trkpt lat="43.04874" lon="0.84655">
        <ele>468</ele>
        <time>2021-03-13T16:32:48Z</time>
      </trkpt>
      <trkpt lat="43.04874" lon="0.84659">
        <ele>468</ele>
        <time>2021-03-13T16:32:49Z</time>
      </trkpt>
      <trkpt lat="43.04874" lon="0.84664">
        <ele>468</ele>
        <time>2021-03-13T16:32:50Z</time>
      </trkpt>
      <trkpt lat="43.04874" lon="0.84668">
        <ele>468</ele>
        <time>2021-03-13T16:32:51Z</time>
      </trkpt>
      <trkpt lat="43.04874" lon="0.84672">
        <ele>468</ele>
        <time>2021-03-13T16:32:52Z</time>
      </trkpt>
      <trkpt lat="43.04874" lon="0.84677">
        <ele>468</ele>
        <time>2021-03-13T16:32:53Z</time>
      </trkpt>
      <trkpt lat="43.04874" lon="0.84681">
        <ele>468</ele>
        <time>2021-03-13T16:32:54Z</time>
      </trkpt>
      <trkpt lat="43.04873" lon="0.84685">
        <ele>468</ele>
        <time>2021-03-13T16:32:55Z</time>
      </trkpt>
      <trkpt lat="43.04873" lon="0.8469">
        <ele>468</ele>
        <time>2021-03-13T16:32:56Z</time>
      </trkpt>
      <trkpt lat="43.04873" lon="0.84694">
        <ele>468</ele>
        <time>2021-03-13T16:32:57Z</time>
      </trkpt>
      <trkpt lat="43.04872" lon="0.84698">
        <ele>468</ele>
        <time>2021-03-13T16:32:58Z</time>
      </trkpt>
      <trkpt lat="43.04872" lon="0.84703">
        <ele>468</ele>
        <time>2021-03-13T16:32:59Z</time>
      </trkpt>
      <trkpt lat="43.04872" lon="0.84707">
        <ele>469</ele>
        <time>2021-03-13T16:33:00Z</time>
      </trkpt>
      <trkpt lat="43.04872" lon="0.84709">
        <ele>469</ele>
        <time>2021-03-13T16:33:01Z</time>
      </trkpt>
      <trkpt lat="43.04872" lon="0.84711">
        <ele>469</ele>
        <time>2021-03-13T16:33:02Z</time>
      </trkpt>
      <trkpt lat="43.04871" lon="0.84713">
        <ele>469</ele>
        <time>2021-03-13T16:33:03Z</time>
      </trkpt>
      <trkpt lat="43.04871" lon="0.84715">
        <ele>469</ele>
        <time>2021-03-13T16:33:04Z</time>
      </trkpt>
      <trkpt lat="43.0487" lon="0.84725">
        <ele>469</ele>
        <time>2021-03-13T16:33:05Z</time>
      </trkpt>
      <trkpt lat="43.0487" lon="0.84727">
        <ele>469</ele>
        <time>2021-03-13T16:33:06Z</time>
      </trkpt>
      <trkpt lat="43.0487" lon="0.84729">
        <ele>469</ele>
        <time>2021-03-13T16:33:07Z</time>
      </trkpt>
      <trkpt lat="43.0487" lon="0.84731">
        <ele>469</ele>
        <time>2021-03-13T16:33:08Z</time>
      </trkpt>
      <trkpt lat="43.0487" lon="0.84741">
        <ele>469</ele>
        <time>2021-03-13T16:33:09Z</time>
      </trkpt>
      <trkpt lat="43.0487" lon="0.84742">
        <ele>470</ele>
        <time>2021-03-13T16:33:10Z</time>
      </trkpt>
      <trkpt lat="43.04869" lon="0.84744">
        <ele>470</ele>
        <time>2021-03-13T16:33:11Z</time>
      </trkpt>
      <trkpt lat="43.04869" lon="0.84746">
        <ele>470</ele>
        <time>2021-03-13T16:33:12Z</time>
      </trkpt>
      <trkpt lat="43.04869" lon="0.84755">
        <ele>470</ele>
        <time>2021-03-13T16:33:13Z</time>
      </trkpt>
      <trkpt lat="43.04869" lon="0.84756">
        <ele>470</ele>
        <time>2021-03-13T16:33:14Z</time>
      </trkpt>
      <trkpt lat="43.04869" lon="0.84758">
        <ele>470</ele>
        <time>2021-03-13T16:33:15Z</time>
      </trkpt>
      <trkpt lat="43.04869" lon="0.84759">
        <ele>470</ele>
        <time>2021-03-13T16:33:16Z</time>
      </trkpt>
      <trkpt lat="43.04869" lon="0.84761">
        <ele>470</ele>
        <time>2021-03-13T16:33:17Z</time>
      </trkpt>
      <trkpt lat="43.04868" lon="0.84769">
        <ele>470</ele>
        <time>2021-03-13T16:33:18Z</time>
      </trkpt>
      <trkpt lat="43.04868" lon="0.8477">
        <ele>470</ele>
        <time>2021-03-13T16:33:19Z</time>
      </trkpt>
      <trkpt lat="43.04868" lon="0.8477">
        <ele>470</ele>
        <time>2021-03-13T16:33:20Z</time>
      </trkpt>
      <trkpt lat="43.04867" lon="0.84771">
        <ele>470</ele>
        <time>2021-03-13T16:33:21Z</time>
      </trkpt>
      <trkpt lat="43.04867" lon="0.84772">
        <ele>470</ele>
        <time>2021-03-13T16:33:22Z</time>
      </trkpt>
      <trkpt lat="43.04867" lon="0.84772">
        <ele>470</ele>
        <time>2021-03-13T16:33:23Z</time>
      </trkpt>
      <trkpt lat="43.04867" lon="0.84773">
        <ele>470</ele>
        <time>2021-03-13T16:33:24Z</time>
      </trkpt>
      <trkpt lat="43.04867" lon="0.84774">
        <ele>470</ele>
        <time>2021-03-13T16:33:25Z</time>
      </trkpt>
      <trkpt lat="43.04866" lon="0.84775">
        <ele>470</ele>
        <time>2021-03-13T16:33:26Z</time>
      </trkpt>
      <trkpt lat="43.04865" lon="0.84784">
        <ele>470</ele>
        <time>2021-03-13T16:33:27Z</time>
      </trkpt>
      <trkpt lat="43.04865" lon="0.84788">
        <ele>470</ele>
        <time>2021-03-13T16:33:28Z</time>
      </trkpt>
      <trkpt lat="43.04865" lon="0.84791">
        <ele>470</ele>
        <time>2021-03-13T16:33:29Z</time>
      </trkpt>
      <trkpt lat="43.04865" lon="0.84794">
        <ele>470</ele>
        <time>2021-03-13T16:33:30Z</time>
      </trkpt>
      <trkpt lat="43.04864" lon="0.84797">
        <ele>470</ele>
        <time>2021-03-13T16:33:31Z</time>
      </trkpt>
      <trkpt lat="43.04864" lon="0.848">
        <ele>470</ele>
        <time>2021-03-13T16:33:32Z</time>
      </trkpt>
      <trkpt lat="43.04864" lon="0.84804">
        <ele>470</ele>
        <time>2021-03-13T16:33:33Z</time>
      </trkpt>
      <trkpt lat="43.04864" lon="0.84807">
        <ele>470</ele>
        <time>2021-03-13T16:33:34Z</time>
      </trkpt>
      <trkpt lat="43.04864" lon="0.8481">
        <ele>470</ele>
        <time>2021-03-13T16:33:35Z</time>
      </trkpt>
      <trkpt lat="43.04863" lon="0.84814">
        <ele>470</ele>
        <time>2021-03-13T16:33:36Z</time>
      </trkpt>
      <trkpt lat="43.04863" lon="0.84817">
        <ele>470</ele>
        <time>2021-03-13T16:33:37Z</time>
      </trkpt>
      <trkpt lat="43.04863" lon="0.8482">
        <ele>470</ele>
        <time>2021-03-13T16:33:38Z</time>
      </trkpt>
      <trkpt lat="43.04862" lon="0.84822">
        <ele>470</ele>
        <time>2021-03-13T16:33:39Z</time>
      </trkpt>
      <trkpt lat="43.04862" lon="0.84823">
        <ele>470</ele>
        <time>2021-03-13T16:33:40Z</time>
      </trkpt>
      <trkpt lat="43.04862" lon="0.84825">
        <ele>470</ele>
        <time>2021-03-13T16:33:41Z</time>
      </trkpt>
      <trkpt lat="43.04862" lon="0.84826">
        <ele>470</ele>
        <time>2021-03-13T16:33:42Z</time>
      </trkpt>
      <trkpt lat="43.04862" lon="0.84828">
        <ele>470</ele>
        <time>2021-03-13T16:33:43Z</time>
      </trkpt>
      <trkpt lat="43.04861" lon="0.84837">
        <ele>470</ele>
        <time>2021-03-13T16:33:44Z</time>
      </trkpt>
      <trkpt lat="43.04861" lon="0.84838">
        <ele>470</ele>
        <time>2021-03-13T16:33:45Z</time>
      </trkpt>
      <trkpt lat="43.0486" lon="0.8484">
        <ele>470</ele>
        <time>2021-03-13T16:33:46Z</time>
      </trkpt>
      <trkpt lat="43.0486" lon="0.84841">
        <ele>470</ele>
        <time>2021-03-13T16:33:47Z</time>
      </trkpt>
      <trkpt lat="43.0486" lon="0.84843">
        <ele>470</ele>
        <time>2021-03-13T16:33:48Z</time>
      </trkpt>
      <trkpt lat="43.04859" lon="0.84852">
        <ele>470</ele>
        <time>2021-03-13T16:33:49Z</time>
      </trkpt>
      <trkpt lat="43.04859" lon="0.84853">
        <ele>471</ele>
        <time>2021-03-13T16:33:50Z</time>
      </trkpt>
      <trkpt lat="43.04859" lon="0.84855">
        <ele>471</ele>
        <time>2021-03-13T16:33:51Z</time>
      </trkpt>
      <trkpt lat="43.04859" lon="0.84857">
        <ele>471</ele>
        <time>2021-03-13T16:33:52Z</time>
      </trkpt>
      <trkpt lat="43.0486" lon="0.84866">
        <ele>471</ele>
        <time>2021-03-13T16:33:53Z</time>
      </trkpt>
      <trkpt lat="43.04861" lon="0.84868">
        <ele>471</ele>
        <time>2021-03-13T16:33:54Z</time>
      </trkpt>
      <trkpt lat="43.04862" lon="0.8487">
        <ele>471</ele>
        <time>2021-03-13T16:33:55Z</time>
      </trkpt>
      <trkpt lat="43.04862" lon="0.84872">
        <ele>471</ele>
        <time>2021-03-13T16:33:56Z</time>
      </trkpt>
      <trkpt lat="43.04866" lon="0.84883">
        <ele>471</ele>
        <time>2021-03-13T16:33:57Z</time>
      </trkpt>
      <trkpt lat="43.04868" lon="0.84887">
        <ele>471</ele>
        <time>2021-03-13T16:33:58Z</time>
      </trkpt>
      <trkpt lat="43.04869" lon="0.84891">
        <ele>471</ele>
        <time>2021-03-13T16:33:59Z</time>
      </trkpt>
      <trkpt lat="43.04871" lon="0.84895">
        <ele>472</ele>
        <time>2021-03-13T16:34:00Z</time>
      </trkpt>
      <trkpt lat="43.04873" lon="0.84898">
        <ele>472</ele>
        <time>2021-03-13T16:34:01Z</time>
      </trkpt>
      <trkpt lat="43.04875" lon="0.84902">
        <ele>472</ele>
        <time>2021-03-13T16:34:02Z</time>
      </trkpt>
      <trkpt lat="43.04877" lon="0.84906">
        <ele>472</ele>
        <time>2021-03-13T16:34:03Z</time>
      </trkpt>
      <trkpt lat="43.04879" lon="0.8491">
        <ele>472</ele>
        <time>2021-03-13T16:34:04Z</time>
      </trkpt>
      <trkpt lat="43.0488" lon="0.84912">
        <ele>472</ele>
        <time>2021-03-13T16:34:05Z</time>
      </trkpt>
      <trkpt lat="43.04881" lon="0.84914">
        <ele>472</ele>
        <time>2021-03-13T16:34:06Z</time>
      </trkpt>
      <trkpt lat="43.04882" lon="0.84916">
        <ele>472</ele>
        <time>2021-03-13T16:34:07Z</time>
      </trkpt>
      <trkpt lat="43.04886" lon="0.84925">
        <ele>472</ele>
        <time>2021-03-13T16:34:08Z</time>
      </trkpt>
      <trkpt lat="43.04887" lon="0.84927">
        <ele>472</ele>
        <time>2021-03-13T16:34:09Z</time>
      </trkpt>
      <trkpt lat="43.04888" lon="0.84929">
        <ele>472</ele>
        <time>2021-03-13T16:34:10Z</time>
      </trkpt>
      <trkpt lat="43.04892" lon="0.84937">
        <ele>472</ele>
        <time>2021-03-13T16:34:11Z</time>
      </trkpt>
      <trkpt lat="43.04893" lon="0.8494">
        <ele>472</ele>
        <time>2021-03-13T16:34:12Z</time>
      </trkpt>
      <trkpt lat="43.04894" lon="0.84942">
        <ele>472</ele>
        <time>2021-03-13T16:34:13Z</time>
      </trkpt>
      <trkpt lat="43.04899" lon="0.84953">
        <ele>472</ele>
        <time>2021-03-13T16:34:14Z</time>
      </trkpt>
      <trkpt lat="43.04901" lon="0.84958">
        <ele>472</ele>
        <time>2021-03-13T16:34:15Z</time>
      </trkpt>
      <trkpt lat="43.04903" lon="0.84963">
        <ele>472</ele>
        <time>2021-03-13T16:34:16Z</time>
      </trkpt>
      <trkpt lat="43.04905" lon="0.84968">
        <ele>472</ele>
        <time>2021-03-13T16:34:17Z</time>
      </trkpt>
      <trkpt lat="43.04907" lon="0.84973">
        <ele>472</ele>
        <time>2021-03-13T16:34:18Z</time>
      </trkpt>
      <trkpt lat="43.04909" lon="0.84979">
        <ele>472</ele>
        <time>2021-03-13T16:34:19Z</time>
      </trkpt>
      <trkpt lat="43.04911" lon="0.84984">
        <ele>470</ele>
        <time>2021-03-13T16:34:20Z</time>
      </trkpt>
      <trkpt lat="43.04912" lon="0.8499">
        <ele>470</ele>
        <time>2021-03-13T16:34:21Z</time>
      </trkpt>
      <trkpt lat="43.04914" lon="0.84996">
        <ele>470</ele>
        <time>2021-03-13T16:34:22Z</time>
      </trkpt>
      <trkpt lat="43.04916" lon="0.85002">
        <ele>470</ele>
        <time>2021-03-13T16:34:23Z</time>
      </trkpt>
      <trkpt lat="43.04917" lon="0.85005">
        <ele>470</ele>
        <time>2021-03-13T16:34:24Z</time>
      </trkpt>
      <trkpt lat="43.04918" lon="0.85009">
        <ele>470</ele>
        <time>2021-03-13T16:34:25Z</time>
      </trkpt>
      <trkpt lat="43.04922" lon="0.85021">
        <ele>470</ele>
        <time>2021-03-13T16:34:26Z</time>
      </trkpt>
      <trkpt lat="43.04923" lon="0.85026">
        <ele>470</ele>
        <time>2021-03-13T16:34:27Z</time>
      </trkpt>
      <trkpt lat="43.04924" lon="0.85031">
        <ele>470</ele>
        <time>2021-03-13T16:34:28Z</time>
      </trkpt>
      <trkpt lat="43.04925" lon="0.85036">
        <ele>470</ele>
        <time>2021-03-13T16:34:29Z</time>
      </trkpt>
      <trkpt lat="43.04925" lon="0.85036">
        <ele>469</ele>
        <time>2021-03-13T16:34:30Z</time>
      </trkpt>
      <trkpt lat="43.04925" lon="0.85037">
        <ele>469</ele>
        <time>2021-03-13T16:34:31Z</time>
      </trkpt>
      <trkpt lat="43.04925" lon="0.85037">
        <ele>469</ele>
        <time>2021-03-13T16:34:32Z</time>
      </trkpt>
      <trkpt lat="43.04925" lon="0.85038">
        <ele>469</ele>
        <time>2021-03-13T16:34:33Z</time>
      </trkpt>
      <trkpt lat="43.04925" lon="0.85039">
        <ele>469</ele>
        <time>2021-03-13T16:34:34Z</time>
      </trkpt>
      <trkpt lat="43.04925" lon="0.85039">
        <ele>469</ele>
        <time>2021-03-13T16:34:35Z</time>
      </trkpt>
      <trkpt lat="43.04925" lon="0.8504">
        <ele>469</ele>
        <time>2021-03-13T16:34:36Z</time>
      </trkpt>
      <trkpt lat="43.04925" lon="0.8504">
        <ele>469</ele>
        <time>2021-03-13T16:34:37Z</time>
      </trkpt>
      <trkpt lat="43.04925" lon="0.85041">
        <ele>469</ele>
        <time>2021-03-13T16:34:38Z</time>
      </trkpt>
      <trkpt lat="43.04925" lon="0.85041">
        <ele>469</ele>
        <time>2021-03-13T16:34:39Z</time>
      </trkpt>
      <trkpt lat="43.04925" lon="0.85042">
        <ele>469</ele>
        <time>2021-03-13T16:34:40Z</time>
      </trkpt>
      <trkpt lat="43.04925" lon="0.85042">
        <ele>469</ele>
        <time>2021-03-13T16:34:41Z</time>
      </trkpt>
      <trkpt lat="43.04925" lon="0.85042">
        <ele>469</ele>
        <time>2021-03-13T16:34:42Z</time>
      </trkpt>
      <trkpt lat="43.04924" lon="0.85043">
        <ele>469</ele>
        <time>2021-03-13T16:34:43Z</time>
      </trkpt>
      <trkpt lat="43.04924" lon="0.85043">
        <ele>469</ele>
        <time>2021-03-13T16:34:44Z</time>
      </trkpt>
      <trkpt lat="43.04924" lon="0.85043">
        <ele>469</ele>
        <time>2021-03-13T16:34:45Z</time>
      </trkpt>
      <trkpt lat="43.04923" lon="0.85043">
        <ele>469</ele>
        <time>2021-03-13T16:34:46Z</time>
      </trkpt>
      <trkpt lat="43.04923" lon="0.85043">
        <ele>469</ele>
        <time>2021-03-13T16:34:47Z</time>
      </trkpt>
      <trkpt lat="43.04922" lon="0.85043">
        <ele>469</ele>
        <time>2021-03-13T16:34:48Z</time>
      </trkpt>
      <trkpt lat="43.04922" lon="0.85043">
        <ele>469</ele>
        <time>2021-03-13T16:34:49Z</time>
      </trkpt>
      <trkpt lat="43.04921" lon="0.85043">
        <ele>469</ele>
        <time>2021-03-13T16:34:50Z</time>
      </trkpt>
      <trkpt lat="43.04921" lon="0.85043">
        <ele>469</ele>
        <time>2021-03-13T16:34:51Z</time>
      </trkpt>
      <trkpt lat="43.0492" lon="0.85043">
        <ele>469</ele>
        <time>2021-03-13T16:34:52Z</time>
      </trkpt>
      <trkpt lat="43.0492" lon="0.85043">
        <ele>469</ele>
        <time>2021-03-13T16:34:53Z</time>
      </trkpt>
      <trkpt lat="43.0492" lon="0.85043">
        <ele>469</ele>
        <time>2021-03-13T16:34:54Z</time>
      </trkpt>
      <trkpt lat="43.04919" lon="0.85043">
        <ele>469</ele>
        <time>2021-03-13T16:34:55Z</time>
      </trkpt>
      <trkpt lat="43.04919" lon="0.85044">
        <ele>469</ele>
        <time>2021-03-13T16:34:56Z</time>
      </trkpt>
      <trkpt lat="43.04918" lon="0.85044">
        <ele>469</ele>
        <time>2021-03-13T16:34:57Z</time>
      </trkpt>
      <trkpt lat="43.04916" lon="0.85045">
        <ele>469</ele>
        <time>2021-03-13T16:34:58Z</time>
      </trkpt>
      <trkpt lat="43.04914" lon="0.85047">
        <ele>469</ele>
        <time>2021-03-13T16:34:59Z</time>
      </trkpt>
      <trkpt lat="43.04912" lon="0.85049">
        <ele>468</ele>
        <time>2021-03-13T16:35:00Z</time>
      </trkpt>
      <trkpt lat="43.0491" lon="0.85051">
        <ele>468</ele>
        <time>2021-03-13T16:35:01Z</time>
      </trkpt>
      <trkpt lat="43.04907" lon="0.85053">
        <ele>468</ele>
        <time>2021-03-13T16:35:02Z</time>
      </trkpt>
      <trkpt lat="43.04904" lon="0.85054">
        <ele>468</ele>
        <time>2021-03-13T16:35:03Z</time>
      </trkpt>
      <trkpt lat="43.049" lon="0.85057">
        <ele>468</ele>
        <time>2021-03-13T16:35:04Z</time>
      </trkpt>
      <trkpt lat="43.04897" lon="0.85059">
        <ele>468</ele>
        <time>2021-03-13T16:35:05Z</time>
      </trkpt>
      <trkpt lat="43.04893" lon="0.85062">
        <ele>468</ele>
        <time>2021-03-13T16:35:06Z</time>
      </trkpt>
      <trkpt lat="43.04889" lon="0.85065">
        <ele>468</ele>
        <time>2021-03-13T16:35:07Z</time>
      </trkpt>
      <trkpt lat="43.04886" lon="0.85067">
        <ele>468</ele>
        <time>2021-03-13T16:35:08Z</time>
      </trkpt>
      <trkpt lat="43.04884" lon="0.85069">
        <ele>468</ele>
        <time>2021-03-13T16:35:09Z</time>
      </trkpt>
      <trkpt lat="43.04877" lon="0.85074">
        <ele>467</ele>
        <time>2021-03-13T16:35:10Z</time>
      </trkpt>
      <trkpt lat="43.04875" lon="0.85076">
        <ele>467</ele>
        <time>2021-03-13T16:35:11Z</time>
      </trkpt>
      <trkpt lat="43.04867" lon="0.85081">
        <ele>467</ele>
        <time>2021-03-13T16:35:12Z</time>
      </trkpt>
      <trkpt lat="43.04865" lon="0.85083">
        <ele>467</ele>
        <time>2021-03-13T16:35:13Z</time>
      </trkpt>
      <trkpt lat="43.04858" lon="0.85088">
        <ele>467</ele>
        <time>2021-03-13T16:35:14Z</time>
      </trkpt>
      <trkpt lat="43.04855" lon="0.8509">
        <ele>467</ele>
        <time>2021-03-13T16:35:15Z</time>
      </trkpt>
      <trkpt lat="43.04848" lon="0.85095">
        <ele>467</ele>
        <time>2021-03-13T16:35:16Z</time>
      </trkpt>
      <trkpt lat="43.04845" lon="0.85097">
        <ele>467</ele>
        <time>2021-03-13T16:35:17Z</time>
      </trkpt>
      <trkpt lat="43.04837" lon="0.85102">
        <ele>467</ele>
        <time>2021-03-13T16:35:18Z</time>
      </trkpt>
      <trkpt lat="43.04834" lon="0.85104">
        <ele>467</ele>
        <time>2021-03-13T16:35:19Z</time>
      </trkpt>
      <trkpt lat="43.04826" lon="0.85109">
        <ele>460</ele>
        <time>2021-03-13T16:35:20Z</time>
      </trkpt>
      <trkpt lat="43.04824" lon="0.8511">
        <ele>456</ele>
        <time>2021-03-13T16:35:21Z</time>
      </trkpt>
      <trkpt lat="43.04816" lon="0.85112">
        <ele>456</ele>
        <time>2021-03-13T16:35:22Z</time>
      </trkpt>
      <trkpt lat="43.04813" lon="0.85112">
        <ele>455</ele>
        <time>2021-03-13T16:35:23Z</time>
      </trkpt>
      <trkpt lat="43.04803" lon="0.85112">
        <ele>454</ele>
        <time>2021-03-13T16:35:24Z</time>
      </trkpt>
      <trkpt lat="43.04798" lon="0.85112">
        <ele>453</ele>
        <time>2021-03-13T16:35:25Z</time>
      </trkpt>
      <trkpt lat="43.04796" lon="0.85114">
        <ele>452</ele>
        <time>2021-03-13T16:35:26Z</time>
      </trkpt>
      <trkpt lat="43.04793" lon="0.85116">
        <ele>451</ele>
        <time>2021-03-13T16:35:27Z</time>
      </trkpt>
      <trkpt lat="43.04786" lon="0.85122">
        <ele>450</ele>
        <time>2021-03-13T16:35:28Z</time>
      </trkpt>
      <trkpt lat="43.04784" lon="0.85124">
        <ele>449</ele>
        <time>2021-03-13T16:35:29Z</time>
      </trkpt>
      <trkpt lat="43.04777" lon="0.85129">
        <ele>448</ele>
        <time>2021-03-13T16:35:30Z</time>
      </trkpt>
      <trkpt lat="43.04775" lon="0.85131">
        <ele>448</ele>
        <time>2021-03-13T16:35:31Z</time>
      </trkpt>
      <trkpt lat="43.04773" lon="0.85132">
        <ele>447</ele>
        <time>2021-03-13T16:35:32Z</time>
      </trkpt>
      <trkpt lat="43.04764" lon="0.85141">
        <ele>446</ele>
        <time>2021-03-13T16:35:33Z</time>
      </trkpt>
      <trkpt lat="43.0476" lon="0.85146">
        <ele>445</ele>
        <time>2021-03-13T16:35:34Z</time>
      </trkpt>
      <trkpt lat="43.04759" lon="0.8515">
        <ele>445</ele>
        <time>2021-03-13T16:35:35Z</time>
      </trkpt>
      <trkpt lat="43.04758" lon="0.85153">
        <ele>445</ele>
        <time>2021-03-13T16:35:36Z</time>
      </trkpt>
      <trkpt lat="43.04757" lon="0.85164">
        <ele>445</ele>
        <time>2021-03-13T16:35:37Z</time>
      </trkpt>
      <trkpt lat="43.04757" lon="0.85168">
        <ele>445</ele>
        <time>2021-03-13T16:35:38Z</time>
      </trkpt>
      <trkpt lat="43.04758" lon="0.85178">
        <ele>445</ele>
        <time>2021-03-13T16:35:39Z</time>
      </trkpt>
      <trkpt lat="43.04759" lon="0.85181">
        <ele>445</ele>
        <time>2021-03-13T16:35:40Z</time>
      </trkpt>
      <trkpt lat="43.04759" lon="0.85184">
        <ele>445</ele>
        <time>2021-03-13T16:35:41Z</time>
      </trkpt>
      <trkpt lat="43.0476" lon="0.85201">
        <ele>445</ele>
        <time>2021-03-13T16:35:42Z</time>
      </trkpt>
      <trkpt lat="43.0476" lon="0.85208">
        <ele>445</ele>
        <time>2021-03-13T16:35:43Z</time>
      </trkpt>
      <trkpt lat="43.04759" lon="0.85215">
        <ele>445</ele>
        <time>2021-03-13T16:35:44Z</time>
      </trkpt>
      <trkpt lat="43.04757" lon="0.85222">
        <ele>444</ele>
        <time>2021-03-13T16:35:45Z</time>
      </trkpt>
      <trkpt lat="43.04755" lon="0.85226">
        <ele>444</ele>
        <time>2021-03-13T16:35:46Z</time>
      </trkpt>
      <trkpt lat="43.04754" lon="0.8523">
        <ele>444</ele>
        <time>2021-03-13T16:35:47Z</time>
      </trkpt>
      <trkpt lat="43.04748" lon="0.85241">
        <ele>444</ele>
        <time>2021-03-13T16:35:48Z</time>
      </trkpt>
      <trkpt lat="43.04745" lon="0.85245">
        <ele>444</ele>
        <time>2021-03-13T16:35:49Z</time>
      </trkpt>
      <trkpt lat="43.04736" lon="0.85254">
        <ele>442</ele>
        <time>2021-03-13T16:35:50Z</time>
      </trkpt>
      <trkpt lat="43.04733" lon="0.85257">
        <ele>442</ele>
        <time>2021-03-13T16:35:51Z</time>
      </trkpt>
      <trkpt lat="43.04722" lon="0.85268">
        <ele>442</ele>
        <time>2021-03-13T16:35:52Z</time>
      </trkpt>
      <trkpt lat="43.04716" lon="0.85273">
        <ele>442</ele>
        <time>2021-03-13T16:35:53Z</time>
      </trkpt>
      <trkpt lat="43.04706" lon="0.85283">
        <ele>442</ele>
        <time>2021-03-13T16:35:54Z</time>
      </trkpt>
      <trkpt lat="43.04698" lon="0.85289">
        <ele>440</ele>
        <time>2021-03-13T16:35:55Z</time>
      </trkpt>
      <trkpt lat="43.04691" lon="0.85296">
        <ele>440</ele>
        <time>2021-03-13T16:35:56Z</time>
      </trkpt>
      <trkpt lat="43.04683" lon="0.85303">
        <ele>440</ele>
        <time>2021-03-13T16:35:57Z</time>
      </trkpt>
      <trkpt lat="43.04676" lon="0.85311">
        <ele>440</ele>
        <time>2021-03-13T16:35:58Z</time>
      </trkpt>
      <trkpt lat="43.0467" lon="0.85319">
        <ele>440</ele>
        <time>2021-03-13T16:35:59Z</time>
      </trkpt>
      <trkpt lat="43.04666" lon="0.85329">
        <ele>436</ele>
        <time>2021-03-13T16:36:00Z</time>
      </trkpt>
      <trkpt lat="43.04661" lon="0.85339">
        <ele>436</ele>
        <time>2021-03-13T16:36:01Z</time>
      </trkpt>
      <trkpt lat="43.04658" lon="0.8535">
        <ele>435</ele>
        <time>2021-03-13T16:36:02Z</time>
      </trkpt>
      <trkpt lat="43.04654" lon="0.8536">
        <ele>435</ele>
        <time>2021-03-13T16:36:03Z</time>
      </trkpt>
      <trkpt lat="43.04651" lon="0.85369">
        <ele>434</ele>
        <time>2021-03-13T16:36:04Z</time>
      </trkpt>
      <trkpt lat="43.04649" lon="0.85373">
        <ele>433</ele>
        <time>2021-03-13T16:36:05Z</time>
      </trkpt>
      <trkpt lat="43.04646" lon="0.85376">
        <ele>433</ele>
        <time>2021-03-13T16:36:06Z</time>
      </trkpt>
      <trkpt lat="43.04638" lon="0.85383">
        <ele>433</ele>
        <time>2021-03-13T16:36:07Z</time>
      </trkpt>
      <trkpt lat="43.04635" lon="0.85384">
        <ele>432</ele>
        <time>2021-03-13T16:36:08Z</time>
      </trkpt>
      <trkpt lat="43.04624" lon="0.85385">
        <ele>432</ele>
        <time>2021-03-13T16:36:09Z</time>
      </trkpt>
      <trkpt lat="43.04621" lon="0.85385">
        <ele>431</ele>
        <time>2021-03-13T16:36:10Z</time>
      </trkpt>
      <trkpt lat="43.04611" lon="0.85386">
        <ele>431</ele>
        <time>2021-03-13T16:36:11Z</time>
      </trkpt>
      <trkpt lat="43.04608" lon="0.85387">
        <ele>431</ele>
        <time>2021-03-13T16:36:12Z</time>
      </trkpt>
      <trkpt lat="43.04597" lon="0.8539">
        <ele>431</ele>
        <time>2021-03-13T16:36:13Z</time>
      </trkpt>
      <trkpt lat="43.04592" lon="0.85391">
        <ele>431</ele>
        <time>2021-03-13T16:36:14Z</time>
      </trkpt>
      <trkpt lat="43.04583" lon="0.85394">
        <ele>431</ele>
        <time>2021-03-13T16:36:15Z</time>
      </trkpt>
      <trkpt lat="43.04578" lon="0.85396">
        <ele>431</ele>
        <time>2021-03-13T16:36:16Z</time>
      </trkpt>
      <trkpt lat="43.04573" lon="0.85399">
        <ele>431</ele>
        <time>2021-03-13T16:36:17Z</time>
      </trkpt>
      <trkpt lat="43.04568" lon="0.854">
        <ele>431</ele>
        <time>2021-03-13T16:36:18Z</time>
      </trkpt>
      <trkpt lat="43.04564" lon="0.85402">
        <ele>431</ele>
        <time>2021-03-13T16:36:19Z</time>
      </trkpt>
      <trkpt lat="43.0456" lon="0.85403">
        <ele>434</ele>
        <time>2021-03-13T16:36:20Z</time>
      </trkpt>
      <trkpt lat="43.04556" lon="0.85405">
        <ele>434</ele>
        <time>2021-03-13T16:36:21Z</time>
      </trkpt>
      <trkpt lat="43.04552" lon="0.85406">
        <ele>434</ele>
        <time>2021-03-13T16:36:22Z</time>
      </trkpt>
      <trkpt lat="43.04548" lon="0.85407">
        <ele>434</ele>
        <time>2021-03-13T16:36:23Z</time>
      </trkpt>
      <trkpt lat="43.04544" lon="0.85409">
        <ele>434</ele>
        <time>2021-03-13T16:36:24Z</time>
      </trkpt>
      <trkpt lat="43.04541" lon="0.8541">
        <ele>435</ele>
        <time>2021-03-13T16:36:25Z</time>
      </trkpt>
      <trkpt lat="43.04537" lon="0.8541">
        <ele>435</ele>
        <time>2021-03-13T16:36:26Z</time>
      </trkpt>
      <trkpt lat="43.04534" lon="0.85411">
        <ele>435</ele>
        <time>2021-03-13T16:36:27Z</time>
      </trkpt>
      <trkpt lat="43.0453" lon="0.85411">
        <ele>435</ele>
        <time>2021-03-13T16:36:28Z</time>
      </trkpt>
      <trkpt lat="43.04527" lon="0.85411">
        <ele>435</ele>
        <time>2021-03-13T16:36:29Z</time>
      </trkpt>
      <trkpt lat="43.04523" lon="0.8541">
        <ele>436</ele>
        <time>2021-03-13T16:36:30Z</time>
      </trkpt>
      <trkpt lat="43.0452" lon="0.8541">
        <ele>436</ele>
        <time>2021-03-13T16:36:31Z</time>
      </trkpt>
      <trkpt lat="43.04516" lon="0.8541">
        <ele>436</ele>
        <time>2021-03-13T16:36:32Z</time>
      </trkpt>
      <trkpt lat="43.04515" lon="0.85409">
        <ele>436</ele>
        <time>2021-03-13T16:36:33Z</time>
      </trkpt>
      <trkpt lat="43.04513" lon="0.85409">
        <ele>436</ele>
        <time>2021-03-13T16:36:34Z</time>
      </trkpt>
      <trkpt lat="43.04512" lon="0.85408">
        <ele>438</ele>
        <time>2021-03-13T16:36:35Z</time>
      </trkpt>
      <trkpt lat="43.0451" lon="0.85408">
        <ele>438</ele>
        <time>2021-03-13T16:36:36Z</time>
      </trkpt>
      <trkpt lat="43.04501" lon="0.85405">
        <ele>438</ele>
        <time>2021-03-13T16:36:37Z</time>
      </trkpt>
      <trkpt lat="43.04498" lon="0.85405">
        <ele>438</ele>
        <time>2021-03-13T16:36:38Z</time>
      </trkpt>
      <trkpt lat="43.04494" lon="0.85404">
        <ele>438</ele>
        <time>2021-03-13T16:36:39Z</time>
      </trkpt>
      <trkpt lat="43.04492" lon="0.85403">
        <ele>440</ele>
        <time>2021-03-13T16:36:40Z</time>
      </trkpt>
      <trkpt lat="43.04489" lon="0.85402">
        <ele>440</ele>
        <time>2021-03-13T16:36:41Z</time>
      </trkpt>
      <trkpt lat="43.04486" lon="0.85402">
        <ele>440</ele>
        <time>2021-03-13T16:36:42Z</time>
      </trkpt>
      <trkpt lat="43.04483" lon="0.85401">
        <ele>440</ele>
        <time>2021-03-13T16:36:43Z</time>
      </trkpt>
      <trkpt lat="43.0448" lon="0.854">
        <ele>440</ele>
        <time>2021-03-13T16:36:44Z</time>
      </trkpt>
      <trkpt lat="43.04477" lon="0.85399">
        <ele>442</ele>
        <time>2021-03-13T16:36:45Z</time>
      </trkpt>
      <trkpt lat="43.04476" lon="0.85398">
        <ele>442</ele>
        <time>2021-03-13T16:36:46Z</time>
      </trkpt>
      <trkpt lat="43.04475" lon="0.85398">
        <ele>442</ele>
        <time>2021-03-13T16:36:47Z</time>
      </trkpt>
      <trkpt lat="43.04473" lon="0.85398">
        <ele>442</ele>
        <time>2021-03-13T16:36:48Z</time>
      </trkpt>
      <trkpt lat="43.04472" lon="0.85397">
        <ele>442</ele>
        <time>2021-03-13T16:36:49Z</time>
      </trkpt>
      <trkpt lat="43.04465" lon="0.85394">
        <ele>444</ele>
        <time>2021-03-13T16:36:50Z</time>
      </trkpt>
      <trkpt lat="43.04462" lon="0.85393">
        <ele>444</ele>
        <time>2021-03-13T16:36:51Z</time>
      </trkpt>
      <trkpt lat="43.04459" lon="0.85392">
        <ele>444</ele>
        <time>2021-03-13T16:36:52Z</time>
      </trkpt>
      <trkpt lat="43.04457" lon="0.85391">
        <ele>444</ele>
        <time>2021-03-13T16:36:53Z</time>
      </trkpt>
      <trkpt lat="43.04454" lon="0.8539">
        <ele>444</ele>
        <time>2021-03-13T16:36:54Z</time>
      </trkpt>
      <trkpt lat="43.04452" lon="0.85389">
        <ele>446</ele>
        <time>2021-03-13T16:36:55Z</time>
      </trkpt>
      <trkpt lat="43.04449" lon="0.85388">
        <ele>446</ele>
        <time>2021-03-13T16:36:56Z</time>
      </trkpt>
      <trkpt lat="43.04447" lon="0.85386">
        <ele>446</ele>
        <time>2021-03-13T16:36:57Z</time>
      </trkpt>
      <trkpt lat="43.04444" lon="0.85385">
        <ele>446</ele>
        <time>2021-03-13T16:36:58Z</time>
      </trkpt>
      <trkpt lat="43.04441" lon="0.85384">
        <ele>446</ele>
        <time>2021-03-13T16:36:59Z</time>
      </trkpt>
      <trkpt lat="43.04439" lon="0.85383">
        <ele>448</ele>
        <time>2021-03-13T16:37:00Z</time>
      </trkpt>
      <trkpt lat="43.04436" lon="0.85382">
        <ele>448</ele>
        <time>2021-03-13T16:37:01Z</time>
      </trkpt>
      <trkpt lat="43.04433" lon="0.85381">
        <ele>448</ele>
        <time>2021-03-13T16:37:02Z</time>
      </trkpt>
      <trkpt lat="43.04431" lon="0.85381">
        <ele>448</ele>
        <time>2021-03-13T16:37:03Z</time>
      </trkpt>
      <trkpt lat="43.04428" lon="0.85381">
        <ele>448</ele>
        <time>2021-03-13T16:37:04Z</time>
      </trkpt>
      <trkpt lat="43.04425" lon="0.8538">
        <ele>448</ele>
        <time>2021-03-13T16:37:05Z</time>
      </trkpt>
      <trkpt lat="43.04423" lon="0.85379">
        <ele>448</ele>
        <time>2021-03-13T16:37:06Z</time>
      </trkpt>
      <trkpt lat="43.0442" lon="0.85378">
        <ele>448</ele>
        <time>2021-03-13T16:37:07Z</time>
      </trkpt>
      <trkpt lat="43.04417" lon="0.85377">
        <ele>448</ele>
        <time>2021-03-13T16:37:08Z</time>
      </trkpt>
      <trkpt lat="43.04415" lon="0.85376">
        <ele>448</ele>
        <time>2021-03-13T16:37:09Z</time>
      </trkpt>
      <trkpt lat="43.04412" lon="0.85374">
        <ele>450</ele>
        <time>2021-03-13T16:37:10Z</time>
      </trkpt>
      <trkpt lat="43.04409" lon="0.85374">
        <ele>450</ele>
        <time>2021-03-13T16:37:11Z</time>
      </trkpt>
      <trkpt lat="43.04406" lon="0.85373">
        <ele>450</ele>
        <time>2021-03-13T16:37:12Z</time>
      </trkpt>
      <trkpt lat="43.04403" lon="0.85372">
        <ele>450</ele>
        <time>2021-03-13T16:37:13Z</time>
      </trkpt>
      <trkpt lat="43.04401" lon="0.85371">
        <ele>450</ele>
        <time>2021-03-13T16:37:14Z</time>
      </trkpt>
      <trkpt lat="43.04398" lon="0.85371">
        <ele>452</ele>
        <time>2021-03-13T16:37:15Z</time>
      </trkpt>
      <trkpt lat="43.04395" lon="0.8537">
        <ele>452</ele>
        <time>2021-03-13T16:37:16Z</time>
      </trkpt>
      <trkpt lat="43.04392" lon="0.8537">
        <ele>452</ele>
        <time>2021-03-13T16:37:17Z</time>
      </trkpt>
      <trkpt lat="43.0439" lon="0.85369">
        <ele>452</ele>
        <time>2021-03-13T16:37:18Z</time>
      </trkpt>
      <trkpt lat="43.04387" lon="0.85369">
        <ele>452</ele>
        <time>2021-03-13T16:37:19Z</time>
      </trkpt>
      <trkpt lat="43.04385" lon="0.85369">
        <ele>454</ele>
        <time>2021-03-13T16:37:20Z</time>
      </trkpt>
      <trkpt lat="43.04383" lon="0.85369">
        <ele>454</ele>
        <time>2021-03-13T16:37:21Z</time>
      </trkpt>
      <trkpt lat="43.04381" lon="0.8537">
        <ele>454</ele>
        <time>2021-03-13T16:37:22Z</time>
      </trkpt>
      <trkpt lat="43.04379" lon="0.85371">
        <ele>454</ele>
        <time>2021-03-13T16:37:23Z</time>
      </trkpt>
      <trkpt lat="43.04379" lon="0.85373">
        <ele>454</ele>
        <time>2021-03-13T16:37:24Z</time>
      </trkpt>
      <trkpt lat="43.04378" lon="0.85375">
        <ele>455</ele>
        <time>2021-03-13T16:37:25Z</time>
      </trkpt>
      <trkpt lat="43.04377" lon="0.85377">
        <ele>455</ele>
        <time>2021-03-13T16:37:26Z</time>
      </trkpt>
      <trkpt lat="43.04377" lon="0.85379">
        <ele>455</ele>
        <time>2021-03-13T16:37:27Z</time>
      </trkpt>
      <trkpt lat="43.04377" lon="0.85382">
        <ele>455</ele>
        <time>2021-03-13T16:37:28Z</time>
      </trkpt>
      <trkpt lat="43.04377" lon="0.85386">
        <ele>455</ele>
        <time>2021-03-13T16:37:29Z</time>
      </trkpt>
      <trkpt lat="43.04379" lon="0.8539">
        <ele>455</ele>
        <time>2021-03-13T16:37:30Z</time>
      </trkpt>
      <trkpt lat="43.0438" lon="0.85394">
        <ele>455</ele>
        <time>2021-03-13T16:37:31Z</time>
      </trkpt>
      <trkpt lat="43.04382" lon="0.85398">
        <ele>455</ele>
        <time>2021-03-13T16:37:32Z</time>
      </trkpt>
      <trkpt lat="43.04384" lon="0.85402">
        <ele>455</ele>
        <time>2021-03-13T16:37:33Z</time>
      </trkpt>
      <trkpt lat="43.04385" lon="0.85407">
        <ele>455</ele>
        <time>2021-03-13T16:37:34Z</time>
      </trkpt>
      <trkpt lat="43.04387" lon="0.85411">
        <ele>455</ele>
        <time>2021-03-13T16:37:35Z</time>
      </trkpt>
      <trkpt lat="43.04389" lon="0.85416">
        <ele>455</ele>
        <time>2021-03-13T16:37:36Z</time>
      </trkpt>
      <trkpt lat="43.0439" lon="0.85421">
        <ele>455</ele>
        <time>2021-03-13T16:37:37Z</time>
      </trkpt>
      <trkpt lat="43.04393" lon="0.85427">
        <ele>455</ele>
        <time>2021-03-13T16:37:38Z</time>
      </trkpt>
      <trkpt lat="43.04395" lon="0.85432">
        <ele>455</ele>
        <time>2021-03-13T16:37:39Z</time>
      </trkpt>
      <trkpt lat="43.04397" lon="0.85438">
        <ele>454</ele>
        <time>2021-03-13T16:37:40Z</time>
      </trkpt>
      <trkpt lat="43.04399" lon="0.85445">
        <ele>454</ele>
        <time>2021-03-13T16:37:41Z</time>
      </trkpt>
      <trkpt lat="43.04401" lon="0.85453">
        <ele>454</ele>
        <time>2021-03-13T16:37:42Z</time>
      </trkpt>
      <trkpt lat="43.04403" lon="0.8546">
        <ele>454</ele>
        <time>2021-03-13T16:37:43Z</time>
      </trkpt>
      <trkpt lat="43.04406" lon="0.85468">
        <ele>454</ele>
        <time>2021-03-13T16:37:44Z</time>
      </trkpt>
      <trkpt lat="43.04408" lon="0.85476">
        <ele>454</ele>
        <time>2021-03-13T16:37:45Z</time>
      </trkpt>
      <trkpt lat="43.04411" lon="0.85485">
        <ele>454</ele>
        <time>2021-03-13T16:37:46Z</time>
      </trkpt>
      <trkpt lat="43.04412" lon="0.85489">
        <ele>454</ele>
        <time>2021-03-13T16:37:47Z</time>
      </trkpt>
      <trkpt lat="43.04413" lon="0.85493">
        <ele>454</ele>
        <time>2021-03-13T16:37:48Z</time>
      </trkpt>
      <trkpt lat="43.04416" lon="0.85505">
        <ele>454</ele>
        <time>2021-03-13T16:37:49Z</time>
      </trkpt>
      <trkpt lat="43.04417" lon="0.8551">
        <ele>452</ele>
        <time>2021-03-13T16:37:50Z</time>
      </trkpt>
      <trkpt lat="43.04421" lon="0.85525">
        <ele>452</ele>
        <time>2021-03-13T16:37:51Z</time>
      </trkpt>
      <trkpt lat="43.04422" lon="0.85531">
        <ele>452</ele>
        <time>2021-03-13T16:37:52Z</time>
      </trkpt>
      <trkpt lat="43.04425" lon="0.85544">
        <ele>452</ele>
        <time>2021-03-13T16:37:53Z</time>
      </trkpt>
      <trkpt lat="43.04427" lon="0.85552">
        <ele>452</ele>
        <time>2021-03-13T16:37:54Z</time>
      </trkpt>
      <trkpt lat="43.04429" lon="0.85559">
        <ele>452</ele>
        <time>2021-03-13T16:37:55Z</time>
      </trkpt>
      <trkpt lat="43.0443" lon="0.85564">
        <ele>452</ele>
        <time>2021-03-13T16:37:56Z</time>
      </trkpt>
      <trkpt lat="43.0443" lon="0.8557">
        <ele>452</ele>
        <time>2021-03-13T16:37:57Z</time>
      </trkpt>
      <trkpt lat="43.04429" lon="0.85571">
        <ele>452</ele>
        <time>2021-03-13T16:37:58Z</time>
      </trkpt>
      <trkpt lat="43.04427" lon="0.85572">
        <ele>452</ele>
        <time>2021-03-13T16:37:59Z</time>
      </trkpt>
      <trkpt lat="43.04426" lon="0.85574">
        <ele>448</ele>
        <time>2021-03-13T16:38:00Z</time>
      </trkpt>
      <trkpt lat="43.04417" lon="0.85578">
        <ele>448</ele>
        <time>2021-03-13T16:38:01Z</time>
      </trkpt>
      <trkpt lat="43.04412" lon="0.85578">
        <ele>448</ele>
        <time>2021-03-13T16:38:02Z</time>
      </trkpt>
      <trkpt lat="43.0441" lon="0.85579">
        <ele>448</ele>
        <time>2021-03-13T16:38:03Z</time>
      </trkpt>
      <trkpt lat="43.04408" lon="0.8558">
        <ele>448</ele>
        <time>2021-03-13T16:38:04Z</time>
      </trkpt>
      <trkpt lat="43.04407" lon="0.8558">
        <ele>448</ele>
        <time>2021-03-13T16:38:05Z</time>
      </trkpt>
      <trkpt lat="43.04399" lon="0.85583">
        <ele>448</ele>
        <time>2021-03-13T16:38:06Z</time>
      </trkpt>
      <trkpt lat="43.04397" lon="0.85584">
        <ele>448</ele>
        <time>2021-03-13T16:38:07Z</time>
      </trkpt>
      <trkpt lat="43.04396" lon="0.85585">
        <ele>448</ele>
        <time>2021-03-13T16:38:08Z</time>
      </trkpt>
      <trkpt lat="43.04388" lon="0.8559">
        <ele>448</ele>
        <time>2021-03-13T16:38:09Z</time>
      </trkpt>
      <trkpt lat="43.04385" lon="0.85591">
        <ele>448</ele>
        <time>2021-03-13T16:38:10Z</time>
      </trkpt>
      <trkpt lat="43.04383" lon="0.85592">
        <ele>448</ele>
        <time>2021-03-13T16:38:11Z</time>
      </trkpt>
      <trkpt lat="43.04381" lon="0.85593">
        <ele>448</ele>
        <time>2021-03-13T16:38:12Z</time>
      </trkpt>
      <trkpt lat="43.0438" lon="0.85594">
        <ele>448</ele>
        <time>2021-03-13T16:38:13Z</time>
      </trkpt>
      <trkpt lat="43.04371" lon="0.85598">
        <ele>448</ele>
        <time>2021-03-13T16:38:14Z</time>
      </trkpt>
      <trkpt lat="43.04368" lon="0.856">
        <ele>448</ele>
        <time>2021-03-13T16:38:15Z</time>
      </trkpt>
      <trkpt lat="43.04366" lon="0.85601">
        <ele>448</ele>
        <time>2021-03-13T16:38:16Z</time>
      </trkpt>
      <trkpt lat="43.04364" lon="0.85602">
        <ele>448</ele>
        <time>2021-03-13T16:38:17Z</time>
      </trkpt>
      <trkpt lat="43.04363" lon="0.85603">
        <ele>448</ele>
        <time>2021-03-13T16:38:18Z</time>
      </trkpt>
      <trkpt lat="43.04354" lon="0.85609">
        <ele>448</ele>
        <time>2021-03-13T16:38:19Z</time>
      </trkpt>
      <trkpt lat="43.0435" lon="0.85611">
        <ele>448</ele>
        <time>2021-03-13T16:38:20Z</time>
      </trkpt>
      <trkpt lat="43.04348" lon="0.85612">
        <ele>448</ele>
        <time>2021-03-13T16:38:21Z</time>
      </trkpt>
      <trkpt lat="43.04346" lon="0.85613">
        <ele>448</ele>
        <time>2021-03-13T16:38:22Z</time>
      </trkpt>
      <trkpt lat="43.04344" lon="0.85614">
        <ele>448</ele>
        <time>2021-03-13T16:38:23Z</time>
      </trkpt>
      <trkpt lat="43.04334" lon="0.8562">
        <ele>448</ele>
        <time>2021-03-13T16:38:24Z</time>
      </trkpt>
      <trkpt lat="43.0433" lon="0.85623">
        <ele>448</ele>
        <time>2021-03-13T16:38:25Z</time>
      </trkpt>
      <trkpt lat="43.04325" lon="0.85627">
        <ele>448</ele>
        <time>2021-03-13T16:38:26Z</time>
      </trkpt>
      <trkpt lat="43.04321" lon="0.85631">
        <ele>448</ele>
        <time>2021-03-13T16:38:27Z</time>
      </trkpt>
      <trkpt lat="43.04319" lon="0.85633">
        <ele>448</ele>
        <time>2021-03-13T16:38:28Z</time>
      </trkpt>
      <trkpt lat="43.04316" lon="0.85636">
        <ele>448</ele>
        <time>2021-03-13T16:38:29Z</time>
      </trkpt>
      <trkpt lat="43.04309" lon="0.85644">
        <ele>447</ele>
        <time>2021-03-13T16:38:30Z</time>
      </trkpt>
      <trkpt lat="43.04307" lon="0.85647">
        <ele>447</ele>
        <time>2021-03-13T16:38:31Z</time>
      </trkpt>
      <trkpt lat="43.043" lon="0.85656">
        <ele>447</ele>
        <time>2021-03-13T16:38:32Z</time>
      </trkpt>
      <trkpt lat="43.04297" lon="0.85659">
        <ele>447</ele>
        <time>2021-03-13T16:38:33Z</time>
      </trkpt>
      <trkpt lat="43.04288" lon="0.85671">
        <ele>447</ele>
        <time>2021-03-13T16:38:34Z</time>
      </trkpt>
      <trkpt lat="43.04284" lon="0.85677">
        <ele>447</ele>
        <time>2021-03-13T16:38:35Z</time>
      </trkpt>
      <trkpt lat="43.04276" lon="0.85687">
        <ele>447</ele>
        <time>2021-03-13T16:38:36Z</time>
      </trkpt>
      <trkpt lat="43.0427" lon="0.85694">
        <ele>447</ele>
        <time>2021-03-13T16:38:37Z</time>
      </trkpt>
      <trkpt lat="43.04264" lon="0.85702">
        <ele>447</ele>
        <time>2021-03-13T16:38:38Z</time>
      </trkpt>
      <trkpt lat="43.04257" lon="0.85709">
        <ele>447</ele>
        <time>2021-03-13T16:38:39Z</time>
      </trkpt>
      <trkpt lat="43.04251" lon="0.85716">
        <ele>444</ele>
        <time>2021-03-13T16:38:40Z</time>
      </trkpt>
      <trkpt lat="43.04244" lon="0.85724">
        <ele>444</ele>
        <time>2021-03-13T16:38:41Z</time>
      </trkpt>
      <trkpt lat="43.04238" lon="0.85732">
        <ele>444</ele>
        <time>2021-03-13T16:38:42Z</time>
      </trkpt>
      <trkpt lat="43.04232" lon="0.8574">
        <ele>444</ele>
        <time>2021-03-13T16:38:43Z</time>
      </trkpt>
      <trkpt lat="43.04226" lon="0.85747">
        <ele>444</ele>
        <time>2021-03-13T16:38:44Z</time>
      </trkpt>
      <trkpt lat="43.04221" lon="0.85754">
        <ele>441</ele>
        <time>2021-03-13T16:38:45Z</time>
      </trkpt>
      <trkpt lat="43.04216" lon="0.85761">
        <ele>441</ele>
        <time>2021-03-13T16:38:46Z</time>
      </trkpt>
      <trkpt lat="43.04211" lon="0.85766">
        <ele>441</ele>
        <time>2021-03-13T16:38:47Z</time>
      </trkpt>
      <trkpt lat="43.04206" lon="0.8577">
        <ele>441</ele>
        <time>2021-03-13T16:38:48Z</time>
      </trkpt>
      <trkpt lat="43.04201" lon="0.85772">
        <ele>441</ele>
        <time>2021-03-13T16:38:49Z</time>
      </trkpt>
      <trkpt lat="43.04196" lon="0.8577">
        <ele>438</ele>
        <time>2021-03-13T16:38:50Z</time>
      </trkpt>
      <trkpt lat="43.04191" lon="0.85767">
        <ele>437</ele>
        <time>2021-03-13T16:38:51Z</time>
      </trkpt>
      <trkpt lat="43.04187" lon="0.85763">
        <ele>438</ele>
        <time>2021-03-13T16:38:52Z</time>
      </trkpt>
      <trkpt lat="43.04184" lon="0.85759">
        <ele>437</ele>
        <time>2021-03-13T16:38:53Z</time>
      </trkpt>
      <trkpt lat="43.04182" lon="0.85755">
        <ele>437</ele>
        <time>2021-03-13T16:38:54Z</time>
      </trkpt>
      <trkpt lat="43.04176" lon="0.85748">
        <ele>437</ele>
        <time>2021-03-13T16:38:55Z</time>
      </trkpt>
      <trkpt lat="43.04172" lon="0.85743">
        <ele>436</ele>
        <time>2021-03-13T16:38:56Z</time>
      </trkpt>
      <trkpt lat="43.04168" lon="0.85739">
        <ele>436</ele>
        <time>2021-03-13T16:38:57Z</time>
      </trkpt>
      <trkpt lat="43.04164" lon="0.85735">
        <ele>436</ele>
        <time>2021-03-13T16:38:58Z</time>
      </trkpt>
      <trkpt lat="43.0416" lon="0.8573">
        <ele>436</ele>
        <time>2021-03-13T16:38:59Z</time>
      </trkpt>
      <trkpt lat="43.04157" lon="0.85726">
        <ele>436</ele>
        <time>2021-03-13T16:39:00Z</time>
      </trkpt>
      <trkpt lat="43.04153" lon="0.85723">
        <ele>436</ele>
        <time>2021-03-13T16:39:01Z</time>
      </trkpt>
      <trkpt lat="43.04151" lon="0.85721">
        <ele>436</ele>
        <time>2021-03-13T16:39:02Z</time>
      </trkpt>
      <trkpt lat="43.04149" lon="0.85719">
        <ele>436</ele>
        <time>2021-03-13T16:39:03Z</time>
      </trkpt>
      <trkpt lat="43.04147" lon="0.85717">
        <ele>436</ele>
        <time>2021-03-13T16:39:04Z</time>
      </trkpt>
      <trkpt lat="43.04146" lon="0.85718">
        <ele>436</ele>
        <time>2021-03-13T16:39:05Z</time>
      </trkpt>
      <trkpt lat="43.04145" lon="0.85718">
        <ele>436</ele>
        <time>2021-03-13T16:39:06Z</time>
      </trkpt>
      <trkpt lat="43.04143" lon="0.85718">
        <ele>436</ele>
        <time>2021-03-13T16:39:07Z</time>
      </trkpt>
      <trkpt lat="43.04142" lon="0.85719">
        <ele>436</ele>
        <time>2021-03-13T16:39:08Z</time>
      </trkpt>
      <trkpt lat="43.04141" lon="0.85719">
        <ele>436</ele>
        <time>2021-03-13T16:39:09Z</time>
      </trkpt>
      <trkpt lat="43.04139" lon="0.85722">
        <ele>435</ele>
        <time>2021-03-13T16:39:10Z</time>
      </trkpt>
      <trkpt lat="43.04136" lon="0.85725">
        <ele>435</ele>
        <time>2021-03-13T16:39:11Z</time>
      </trkpt>
      <trkpt lat="43.04134" lon="0.85728">
        <ele>435</ele>
        <time>2021-03-13T16:39:12Z</time>
      </trkpt>
      <trkpt lat="43.04131" lon="0.85732">
        <ele>435</ele>
        <time>2021-03-13T16:39:13Z</time>
      </trkpt>
      <trkpt lat="43.04127" lon="0.85735">
        <ele>435</ele>
        <time>2021-03-13T16:39:14Z</time>
      </trkpt>
      <trkpt lat="43.04124" lon="0.85739">
        <ele>435</ele>
        <time>2021-03-13T16:39:15Z</time>
      </trkpt>
      <trkpt lat="43.04119" lon="0.85743">
        <ele>435</ele>
        <time>2021-03-13T16:39:16Z</time>
      </trkpt>
      <trkpt lat="43.04115" lon="0.85747">
        <ele>435</ele>
        <time>2021-03-13T16:39:17Z</time>
      </trkpt>
      <trkpt lat="43.04111" lon="0.85752">
        <ele>435</ele>
        <time>2021-03-13T16:39:18Z</time>
      </trkpt>
      <trkpt lat="43.04106" lon="0.85757">
        <ele>435</ele>
        <time>2021-03-13T16:39:19Z</time>
      </trkpt>
      <trkpt lat="43.04101" lon="0.85763">
        <ele>433</ele>
        <time>2021-03-13T16:39:20Z</time>
      </trkpt>
      <trkpt lat="43.04096" lon="0.85768">
        <ele>433</ele>
        <time>2021-03-13T16:39:21Z</time>
      </trkpt>
      <trkpt lat="43.0409" lon="0.85773">
        <ele>433</ele>
        <time>2021-03-13T16:39:22Z</time>
      </trkpt>
      <trkpt lat="43.04087" lon="0.85776">
        <ele>433</ele>
        <time>2021-03-13T16:39:23Z</time>
      </trkpt>
      <trkpt lat="43.04084" lon="0.85779">
        <ele>433</ele>
        <time>2021-03-13T16:39:24Z</time>
      </trkpt>
      <trkpt lat="43.04076" lon="0.85788">
        <ele>433</ele>
        <time>2021-03-13T16:39:25Z</time>
      </trkpt>
      <trkpt lat="43.04073" lon="0.8579">
        <ele>433</ele>
        <time>2021-03-13T16:39:26Z</time>
      </trkpt>
      <trkpt lat="43.04065" lon="0.85799">
        <ele>433</ele>
        <time>2021-03-13T16:39:27Z</time>
      </trkpt>
      <trkpt lat="43.04063" lon="0.85802">
        <ele>433</ele>
        <time>2021-03-13T16:39:28Z</time>
      </trkpt>
      <trkpt lat="43.04055" lon="0.85812">
        <ele>433</ele>
        <time>2021-03-13T16:39:29Z</time>
      </trkpt>
      <trkpt lat="43.04053" lon="0.85816">
        <ele>431</ele>
        <time>2021-03-13T16:39:30Z</time>
      </trkpt>
      <trkpt lat="43.04048" lon="0.85825">
        <ele>431</ele>
        <time>2021-03-13T16:39:31Z</time>
      </trkpt>
      <trkpt lat="43.04048" lon="0.85832">
        <ele>431</ele>
        <time>2021-03-13T16:39:32Z</time>
      </trkpt>
      <trkpt lat="43.04049" lon="0.85839">
        <ele>431</ele>
        <time>2021-03-13T16:39:33Z</time>
      </trkpt>
      <trkpt lat="43.04049" lon="0.85842">
        <ele>431</ele>
        <time>2021-03-13T16:39:34Z</time>
      </trkpt>
      <trkpt lat="43.0405" lon="0.85846">
        <ele>431</ele>
        <time>2021-03-13T16:39:35Z</time>
      </trkpt>
      <trkpt lat="43.04051" lon="0.85849">
        <ele>431</ele>
        <time>2021-03-13T16:39:36Z</time>
      </trkpt>
      <trkpt lat="43.04053" lon="0.85862">
        <ele>431</ele>
        <time>2021-03-13T16:39:37Z</time>
      </trkpt>
      <trkpt lat="43.04054" lon="0.85865">
        <ele>431</ele>
        <time>2021-03-13T16:39:38Z</time>
      </trkpt>
      <trkpt lat="43.04055" lon="0.85868">
        <ele>431</ele>
        <time>2021-03-13T16:39:39Z</time>
      </trkpt>
      <trkpt lat="43.04058" lon="0.8588">
        <ele>430</ele>
        <time>2021-03-13T16:39:40Z</time>
      </trkpt>
      <trkpt lat="43.04058" lon="0.85883">
        <ele>430</ele>
        <time>2021-03-13T16:39:41Z</time>
      </trkpt>
      <trkpt lat="43.04059" lon="0.85886">
        <ele>430</ele>
        <time>2021-03-13T16:39:42Z</time>
      </trkpt>
      <trkpt lat="43.0406" lon="0.85896">
        <ele>430</ele>
        <time>2021-03-13T16:39:43Z</time>
      </trkpt>
      <trkpt lat="43.0406" lon="0.85899">
        <ele>430</ele>
        <time>2021-03-13T16:39:44Z</time>
      </trkpt>
      <trkpt lat="43.0406" lon="0.85901">
        <ele>430</ele>
        <time>2021-03-13T16:39:45Z</time>
      </trkpt>
      <trkpt lat="43.0406" lon="0.85913">
        <ele>430</ele>
        <time>2021-03-13T16:39:46Z</time>
      </trkpt>
      <trkpt lat="43.0406" lon="0.85918">
        <ele>430</ele>
        <time>2021-03-13T16:39:47Z</time>
      </trkpt>
      <trkpt lat="43.0406" lon="0.85923">
        <ele>430</ele>
        <time>2021-03-13T16:39:48Z</time>
      </trkpt>
      <trkpt lat="43.04059" lon="0.85925">
        <ele>430</ele>
        <time>2021-03-13T16:39:49Z</time>
      </trkpt>
      <trkpt lat="43.04058" lon="0.85927">
        <ele>432</ele>
        <time>2021-03-13T16:39:50Z</time>
      </trkpt>
      <trkpt lat="43.04058" lon="0.8593">
        <ele>432</ele>
        <time>2021-03-13T16:39:51Z</time>
      </trkpt>
      <trkpt lat="43.04056" lon="0.85939">
        <ele>432</ele>
        <time>2021-03-13T16:39:52Z</time>
      </trkpt>
      <trkpt lat="43.04055" lon="0.85941">
        <ele>432</ele>
        <time>2021-03-13T16:39:53Z</time>
      </trkpt>
      <trkpt lat="43.04055" lon="0.85943">
        <ele>432</ele>
        <time>2021-03-13T16:39:54Z</time>
      </trkpt>
      <trkpt lat="43.04055" lon="0.85944">
        <ele>432</ele>
        <time>2021-03-13T16:39:55Z</time>
      </trkpt>
      <trkpt lat="43.04053" lon="0.85954">
        <ele>432</ele>
        <time>2021-03-13T16:39:56Z</time>
      </trkpt>
      <trkpt lat="43.04052" lon="0.85955">
        <ele>432</ele>
        <time>2021-03-13T16:39:57Z</time>
      </trkpt>
      <trkpt lat="43.04052" lon="0.85957">
        <ele>432</ele>
        <time>2021-03-13T16:39:58Z</time>
      </trkpt>
      <trkpt lat="43.04051" lon="0.85959">
        <ele>432</ele>
        <time>2021-03-13T16:39:59Z</time>
      </trkpt>
      <trkpt lat="43.04048" lon="0.85968">
        <ele>438</ele>
        <time>2021-03-13T16:40:00Z</time>
      </trkpt>
      <trkpt lat="43.04046" lon="0.85971">
        <ele>438</ele>
        <time>2021-03-13T16:40:01Z</time>
      </trkpt>
      <trkpt lat="43.04045" lon="0.85974">
        <ele>439</ele>
        <time>2021-03-13T16:40:02Z</time>
      </trkpt>
      <trkpt lat="43.04044" lon="0.85977">
        <ele>439</ele>
        <time>2021-03-13T16:40:03Z</time>
      </trkpt>
      <trkpt lat="43.04043" lon="0.8598">
        <ele>439</ele>
        <time>2021-03-13T16:40:04Z</time>
      </trkpt>
      <trkpt lat="43.04042" lon="0.85983">
        <ele>439</ele>
        <time>2021-03-13T16:40:05Z</time>
      </trkpt>
      <trkpt lat="43.04042" lon="0.85986">
        <ele>439</ele>
        <time>2021-03-13T16:40:06Z</time>
      </trkpt>
      <trkpt lat="43.04041" lon="0.85989">
        <ele>439</ele>
        <time>2021-03-13T16:40:07Z</time>
      </trkpt>
      <trkpt lat="43.0404" lon="0.85991">
        <ele>439</ele>
        <time>2021-03-13T16:40:08Z</time>
      </trkpt>
      <trkpt lat="43.0404" lon="0.85993">
        <ele>439</ele>
        <time>2021-03-13T16:40:09Z</time>
      </trkpt>
      <trkpt lat="43.04039" lon="0.85995">
        <ele>441</ele>
        <time>2021-03-13T16:40:10Z</time>
      </trkpt>
      <trkpt lat="43.04039" lon="0.85998">
        <ele>441</ele>
        <time>2021-03-13T16:40:11Z</time>
      </trkpt>
      <trkpt lat="43.04036" lon="0.86009">
        <ele>441</ele>
        <time>2021-03-13T16:40:12Z</time>
      </trkpt>
      <trkpt lat="43.04035" lon="0.86013">
        <ele>441</ele>
        <time>2021-03-13T16:40:13Z</time>
      </trkpt>
      <trkpt lat="43.04033" lon="0.86016">
        <ele>441</ele>
        <time>2021-03-13T16:40:14Z</time>
      </trkpt>
      <trkpt lat="43.04032" lon="0.8602">
        <ele>441</ele>
        <time>2021-03-13T16:40:15Z</time>
      </trkpt>
      <trkpt lat="43.0403" lon="0.86024">
        <ele>441</ele>
        <time>2021-03-13T16:40:16Z</time>
      </trkpt>
      <trkpt lat="43.04028" lon="0.86028">
        <ele>441</ele>
        <time>2021-03-13T16:40:17Z</time>
      </trkpt>
      <trkpt lat="43.04027" lon="0.8603">
        <ele>441</ele>
        <time>2021-03-13T16:40:18Z</time>
      </trkpt>
      <trkpt lat="43.04026" lon="0.86031">
        <ele>441</ele>
        <time>2021-03-13T16:40:19Z</time>
      </trkpt>
      <trkpt lat="43.04025" lon="0.86033">
        <ele>441</ele>
        <time>2021-03-13T16:40:20Z</time>
      </trkpt>
      <trkpt lat="43.04019" lon="0.86042">
        <ele>441</ele>
        <time>2021-03-13T16:40:21Z</time>
      </trkpt>
      <trkpt lat="43.04017" lon="0.86045">
        <ele>441</ele>
        <time>2021-03-13T16:40:22Z</time>
      </trkpt>
      <trkpt lat="43.04015" lon="0.86048">
        <ele>441</ele>
        <time>2021-03-13T16:40:23Z</time>
      </trkpt>
      <trkpt lat="43.04014" lon="0.8605">
        <ele>441</ele>
        <time>2021-03-13T16:40:24Z</time>
      </trkpt>
      <trkpt lat="43.04013" lon="0.86052">
        <ele>441</ele>
        <time>2021-03-13T16:40:25Z</time>
      </trkpt>
      <trkpt lat="43.04012" lon="0.86054">
        <ele>441</ele>
        <time>2021-03-13T16:40:26Z</time>
      </trkpt>
      <trkpt lat="43.04008" lon="0.86063">
        <ele>441</ele>
        <time>2021-03-13T16:40:27Z</time>
      </trkpt>
      <trkpt lat="43.04006" lon="0.86065">
        <ele>441</ele>
        <time>2021-03-13T16:40:28Z</time>
      </trkpt>
      <trkpt lat="43.04005" lon="0.86067">
        <ele>441</ele>
        <time>2021-03-13T16:40:29Z</time>
      </trkpt>
      <trkpt lat="43.04001" lon="0.86076">
        <ele>441</ele>
        <time>2021-03-13T16:40:30Z</time>
      </trkpt>
      <trkpt lat="43.03999" lon="0.86078">
        <ele>441</ele>
        <time>2021-03-13T16:40:31Z</time>
      </trkpt>
      <trkpt lat="43.03998" lon="0.86081">
        <ele>441</ele>
        <time>2021-03-13T16:40:32Z</time>
      </trkpt>
      <trkpt lat="43.03993" lon="0.8609">
        <ele>441</ele>
        <time>2021-03-13T16:40:33Z</time>
      </trkpt>
      <trkpt lat="43.03992" lon="0.86092">
        <ele>441</ele>
        <time>2021-03-13T16:40:34Z</time>
      </trkpt>
      <trkpt lat="43.0399" lon="0.86094">
        <ele>441</ele>
        <time>2021-03-13T16:40:35Z</time>
      </trkpt>
      <trkpt lat="43.03986" lon="0.86103">
        <ele>441</ele>
        <time>2021-03-13T16:40:36Z</time>
      </trkpt>
      <trkpt lat="43.03984" lon="0.86105">
        <ele>441</ele>
        <time>2021-03-13T16:40:37Z</time>
      </trkpt>
      <trkpt lat="43.03983" lon="0.86108">
        <ele>441</ele>
        <time>2021-03-13T16:40:38Z</time>
      </trkpt>
      <trkpt lat="43.03979" lon="0.86117">
        <ele>441</ele>
        <time>2021-03-13T16:40:39Z</time>
      </trkpt>
      <trkpt lat="43.03978" lon="0.86119">
        <ele>442</ele>
        <time>2021-03-13T16:40:40Z</time>
      </trkpt>
      <trkpt lat="43.03977" lon="0.86122">
        <ele>442</ele>
        <time>2021-03-13T16:40:41Z</time>
      </trkpt>
      <trkpt lat="43.03972" lon="0.86131">
        <ele>442</ele>
        <time>2021-03-13T16:40:42Z</time>
      </trkpt>
      <trkpt lat="43.03971" lon="0.86134">
        <ele>442</ele>
        <time>2021-03-13T16:40:43Z</time>
      </trkpt>
      <trkpt lat="43.0397" lon="0.86136">
        <ele>442</ele>
        <time>2021-03-13T16:40:44Z</time>
      </trkpt>
      <trkpt lat="43.03963" lon="0.86149">
        <ele>442</ele>
        <time>2021-03-13T16:40:45Z</time>
      </trkpt>
      <trkpt lat="43.0396" lon="0.86154">
        <ele>442</ele>
        <time>2021-03-13T16:40:46Z</time>
      </trkpt>
      <trkpt lat="43.03957" lon="0.86158">
        <ele>442</ele>
        <time>2021-03-13T16:40:47Z</time>
      </trkpt>
      <trkpt lat="43.03954" lon="0.86163">
        <ele>442</ele>
        <time>2021-03-13T16:40:48Z</time>
      </trkpt>
      <trkpt lat="43.03951" lon="0.86167">
        <ele>442</ele>
        <time>2021-03-13T16:40:49Z</time>
      </trkpt>
      <trkpt lat="43.03948" lon="0.86172">
        <ele>443</ele>
        <time>2021-03-13T16:40:50Z</time>
      </trkpt>
      <trkpt lat="43.03946" lon="0.86177">
        <ele>443</ele>
        <time>2021-03-13T16:40:51Z</time>
      </trkpt>
      <trkpt lat="43.03943" lon="0.86181">
        <ele>443</ele>
        <time>2021-03-13T16:40:52Z</time>
      </trkpt>
      <trkpt lat="43.03941" lon="0.86185">
        <ele>443</ele>
        <time>2021-03-13T16:40:53Z</time>
      </trkpt>
      <trkpt lat="43.03938" lon="0.8619">
        <ele>443</ele>
        <time>2021-03-13T16:40:54Z</time>
      </trkpt>
      <trkpt lat="43.03936" lon="0.86194">
        <ele>443</ele>
        <time>2021-03-13T16:40:55Z</time>
      </trkpt>
      <trkpt lat="43.03933" lon="0.86198">
        <ele>443</ele>
        <time>2021-03-13T16:40:56Z</time>
      </trkpt>
      <trkpt lat="43.0393" lon="0.86201">
        <ele>443</ele>
        <time>2021-03-13T16:40:57Z</time>
      </trkpt>
      <trkpt lat="43.03928" lon="0.86204">
        <ele>443</ele>
        <time>2021-03-13T16:40:58Z</time>
      </trkpt>
      <trkpt lat="43.03925" lon="0.86207">
        <ele>443</ele>
        <time>2021-03-13T16:40:59Z</time>
      </trkpt>
      <trkpt lat="43.03923" lon="0.8621">
        <ele>444</ele>
        <time>2021-03-13T16:41:00Z</time>
      </trkpt>
      <trkpt lat="43.0392" lon="0.86213">
        <ele>444</ele>
        <time>2021-03-13T16:41:01Z</time>
      </trkpt>
      <trkpt lat="43.03917" lon="0.86215">
        <ele>444</ele>
        <time>2021-03-13T16:41:02Z</time>
      </trkpt>
      <trkpt lat="43.03914" lon="0.86218">
        <ele>444</ele>
        <time>2021-03-13T16:41:03Z</time>
      </trkpt>
      <trkpt lat="43.03913" lon="0.86219">
        <ele>444</ele>
        <time>2021-03-13T16:41:04Z</time>
      </trkpt>
      <trkpt lat="43.03911" lon="0.86221">
        <ele>444</ele>
        <time>2021-03-13T16:41:05Z</time>
      </trkpt>
      <trkpt lat="43.0391" lon="0.86222">
        <ele>444</ele>
        <time>2021-03-13T16:41:06Z</time>
      </trkpt>
      <trkpt lat="43.03901" lon="0.86229">
        <ele>444</ele>
        <time>2021-03-13T16:41:07Z</time>
      </trkpt>
      <trkpt lat="43.03898" lon="0.86231">
        <ele>444</ele>
        <time>2021-03-13T16:41:08Z</time>
      </trkpt>
      <trkpt lat="43.03894" lon="0.86234">
        <ele>444</ele>
        <time>2021-03-13T16:41:09Z</time>
      </trkpt>
      <trkpt lat="43.03891" lon="0.86237">
        <ele>445</ele>
        <time>2021-03-13T16:41:10Z</time>
      </trkpt>
      <trkpt lat="43.03887" lon="0.8624">
        <ele>445</ele>
        <time>2021-03-13T16:41:11Z</time>
      </trkpt>
      <trkpt lat="43.03884" lon="0.86242">
        <ele>445</ele>
        <time>2021-03-13T16:41:12Z</time>
      </trkpt>
      <trkpt lat="43.03882" lon="0.86244">
        <ele>445</ele>
        <time>2021-03-13T16:41:13Z</time>
      </trkpt>
      <trkpt lat="43.03881" lon="0.86246">
        <ele>445</ele>
        <time>2021-03-13T16:41:14Z</time>
      </trkpt>
      <trkpt lat="43.03879" lon="0.86248">
        <ele>445</ele>
        <time>2021-03-13T16:41:15Z</time>
      </trkpt>
      <trkpt lat="43.03873" lon="0.86255">
        <ele>445</ele>
        <time>2021-03-13T16:41:16Z</time>
      </trkpt>
      <trkpt lat="43.03872" lon="0.86258">
        <ele>445</ele>
        <time>2021-03-13T16:41:17Z</time>
      </trkpt>
      <trkpt lat="43.03871" lon="0.8626">
        <ele>445</ele>
        <time>2021-03-13T16:41:18Z</time>
      </trkpt>
      <trkpt lat="43.03866" lon="0.8627">
        <ele>445</ele>
        <time>2021-03-13T16:41:19Z</time>
      </trkpt>
      <trkpt lat="43.03866" lon="0.86273">
        <ele>444</ele>
        <time>2021-03-13T16:41:20Z</time>
      </trkpt>
      <trkpt lat="43.03865" lon="0.86275">
        <ele>444</ele>
        <time>2021-03-13T16:41:21Z</time>
      </trkpt>
      <trkpt lat="43.03864" lon="0.86278">
        <ele>444</ele>
        <time>2021-03-13T16:41:22Z</time>
      </trkpt>
      <trkpt lat="43.0386" lon="0.86294">
        <ele>444</ele>
        <time>2021-03-13T16:41:23Z</time>
      </trkpt>
      <trkpt lat="43.03859" lon="0.86299">
        <ele>444</ele>
        <time>2021-03-13T16:41:24Z</time>
      </trkpt>
      <trkpt lat="43.03857" lon="0.86305">
        <ele>444</ele>
        <time>2021-03-13T16:41:25Z</time>
      </trkpt>
      <trkpt lat="43.03855" lon="0.86311">
        <ele>444</ele>
        <time>2021-03-13T16:41:26Z</time>
      </trkpt>
      <trkpt lat="43.03852" lon="0.86316">
        <ele>444</ele>
        <time>2021-03-13T16:41:27Z</time>
      </trkpt>
      <trkpt lat="43.0385" lon="0.86321">
        <ele>444</ele>
        <time>2021-03-13T16:41:28Z</time>
      </trkpt>
      <trkpt lat="43.03847" lon="0.86325">
        <ele>444</ele>
        <time>2021-03-13T16:41:29Z</time>
      </trkpt>
      <trkpt lat="43.03844" lon="0.8633">
        <ele>444</ele>
        <time>2021-03-13T16:41:30Z</time>
      </trkpt>
      <trkpt lat="43.03841" lon="0.86334">
        <ele>444</ele>
        <time>2021-03-13T16:41:31Z</time>
      </trkpt>
      <trkpt lat="43.03838" lon="0.86339">
        <ele>444</ele>
        <time>2021-03-13T16:41:32Z</time>
      </trkpt>
      <trkpt lat="43.03834" lon="0.86342">
        <ele>444</ele>
        <time>2021-03-13T16:41:33Z</time>
      </trkpt>
      <trkpt lat="43.03831" lon="0.86346">
        <ele>444</ele>
        <time>2021-03-13T16:41:34Z</time>
      </trkpt>
      <trkpt lat="43.03827" lon="0.86349">
        <ele>444</ele>
        <time>2021-03-13T16:41:35Z</time>
      </trkpt>
      <trkpt lat="43.03824" lon="0.86352">
        <ele>444</ele>
        <time>2021-03-13T16:41:36Z</time>
      </trkpt>
      <trkpt lat="43.03822" lon="0.86353">
        <ele>444</ele>
        <time>2021-03-13T16:41:37Z</time>
      </trkpt>
      <trkpt lat="43.0382" lon="0.86355">
        <ele>444</ele>
        <time>2021-03-13T16:41:38Z</time>
      </trkpt>
      <trkpt lat="43.03818" lon="0.86356">
        <ele>444</ele>
        <time>2021-03-13T16:41:39Z</time>
      </trkpt>
      <trkpt lat="43.03811" lon="0.86361">
        <ele>444</ele>
        <time>2021-03-13T16:41:40Z</time>
      </trkpt>
      <trkpt lat="43.03809" lon="0.86363">
        <ele>444</ele>
        <time>2021-03-13T16:41:41Z</time>
      </trkpt>
      <trkpt lat="43.03807" lon="0.86364">
        <ele>444</ele>
        <time>2021-03-13T16:41:42Z</time>
      </trkpt>
      <trkpt lat="43.03799" lon="0.86369">
        <ele>444</ele>
        <time>2021-03-13T16:41:43Z</time>
      </trkpt>
      <trkpt lat="43.03797" lon="0.8637">
        <ele>444</ele>
        <time>2021-03-13T16:41:44Z</time>
      </trkpt>
      <trkpt lat="43.03795" lon="0.86372">
        <ele>444</ele>
        <time>2021-03-13T16:41:45Z</time>
      </trkpt>
      <trkpt lat="43.03787" lon="0.86376">
        <ele>444</ele>
        <time>2021-03-13T16:41:46Z</time>
      </trkpt>
      <trkpt lat="43.03785" lon="0.86377">
        <ele>444</ele>
        <time>2021-03-13T16:41:47Z</time>
      </trkpt>
      <trkpt lat="43.03783" lon="0.86378">
        <ele>444</ele>
        <time>2021-03-13T16:41:48Z</time>
      </trkpt>
      <trkpt lat="43.03775" lon="0.86381">
        <ele>444</ele>
        <time>2021-03-13T16:41:49Z</time>
      </trkpt>
      <trkpt lat="43.03773" lon="0.86382">
        <ele>445</ele>
        <time>2021-03-13T16:41:50Z</time>
      </trkpt>
      <trkpt lat="43.0377" lon="0.86382">
        <ele>445</ele>
        <time>2021-03-13T16:41:51Z</time>
      </trkpt>
      <trkpt lat="43.03761" lon="0.86384">
        <ele>445</ele>
        <time>2021-03-13T16:41:52Z</time>
      </trkpt>
      <trkpt lat="43.03759" lon="0.86385">
        <ele>445</ele>
        <time>2021-03-13T16:41:53Z</time>
      </trkpt>
      <trkpt lat="43.03757" lon="0.86385">
        <ele>445</ele>
        <time>2021-03-13T16:41:54Z</time>
      </trkpt>
      <trkpt lat="43.03749" lon="0.86387">
        <ele>445</ele>
        <time>2021-03-13T16:41:55Z</time>
      </trkpt>
      <trkpt lat="43.03746" lon="0.86388">
        <ele>445</ele>
        <time>2021-03-13T16:41:56Z</time>
      </trkpt>
      <trkpt lat="43.03737" lon="0.86393">
        <ele>445</ele>
        <time>2021-03-13T16:41:57Z</time>
      </trkpt>
      <trkpt lat="43.03732" lon="0.86396">
        <ele>445</ele>
        <time>2021-03-13T16:41:58Z</time>
      </trkpt>
      <trkpt lat="43.0373" lon="0.86397">
        <ele>445</ele>
        <time>2021-03-13T16:41:59Z</time>
      </trkpt>
      <trkpt lat="43.03727" lon="0.86399">
        <ele>447</ele>
        <time>2021-03-13T16:42:00Z</time>
      </trkpt>
      <trkpt lat="43.03721" lon="0.86403">
        <ele>447</ele>
        <time>2021-03-13T16:42:01Z</time>
      </trkpt>
      <trkpt lat="43.03719" lon="0.86405">
        <ele>447</ele>
        <time>2021-03-13T16:42:02Z</time>
      </trkpt>
      <trkpt lat="43.03718" lon="0.86406">
        <ele>447</ele>
        <time>2021-03-13T16:42:03Z</time>
      </trkpt>
      <trkpt lat="43.03711" lon="0.86412">
        <ele>447</ele>
        <time>2021-03-13T16:42:04Z</time>
      </trkpt>
      <trkpt lat="43.0371" lon="0.86413">
        <ele>447</ele>
        <time>2021-03-13T16:42:05Z</time>
      </trkpt>
      <trkpt lat="43.03708" lon="0.86415">
        <ele>447</ele>
        <time>2021-03-13T16:42:06Z</time>
      </trkpt>
      <trkpt lat="43.03702" lon="0.8642">
        <ele>447</ele>
        <time>2021-03-13T16:42:07Z</time>
      </trkpt>
      <trkpt lat="43.037" lon="0.86421">
        <ele>447</ele>
        <time>2021-03-13T16:42:08Z</time>
      </trkpt>
      <trkpt lat="43.03699" lon="0.86423">
        <ele>447</ele>
        <time>2021-03-13T16:42:09Z</time>
      </trkpt>
      <trkpt lat="43.03692" lon="0.86426">
        <ele>448</ele>
        <time>2021-03-13T16:42:10Z</time>
      </trkpt>
      <trkpt lat="43.0369" lon="0.86427">
        <ele>448</ele>
        <time>2021-03-13T16:42:11Z</time>
      </trkpt>
      <trkpt lat="43.03689" lon="0.86427">
        <ele>448</ele>
        <time>2021-03-13T16:42:12Z</time>
      </trkpt>
      <trkpt lat="43.03687" lon="0.86428">
        <ele>448</ele>
        <time>2021-03-13T16:42:13Z</time>
      </trkpt>
      <trkpt lat="43.03679" lon="0.8643">
        <ele>448</ele>
        <time>2021-03-13T16:42:14Z</time>
      </trkpt>
      <trkpt lat="43.03677" lon="0.86431">
        <ele>448</ele>
        <time>2021-03-13T16:42:15Z</time>
      </trkpt>
      <trkpt lat="43.03675" lon="0.86431">
        <ele>448</ele>
        <time>2021-03-13T16:42:16Z</time>
      </trkpt>
      <trkpt lat="43.03667" lon="0.86433">
        <ele>448</ele>
        <time>2021-03-13T16:42:17Z</time>
      </trkpt>
      <trkpt lat="43.03665" lon="0.86434">
        <ele>448</ele>
        <time>2021-03-13T16:42:18Z</time>
      </trkpt>
      <trkpt lat="43.03663" lon="0.86435">
        <ele>448</ele>
        <time>2021-03-13T16:42:19Z</time>
      </trkpt>
      <trkpt lat="43.03656" lon="0.86438">
        <ele>448</ele>
        <time>2021-03-13T16:42:20Z</time>
      </trkpt>
      <trkpt lat="43.03654" lon="0.86439">
        <ele>448</ele>
        <time>2021-03-13T16:42:21Z</time>
      </trkpt>
      <trkpt lat="43.03652" lon="0.8644">
        <ele>448</ele>
        <time>2021-03-13T16:42:22Z</time>
      </trkpt>
      <trkpt lat="43.03643" lon="0.86445">
        <ele>448</ele>
        <time>2021-03-13T16:42:23Z</time>
      </trkpt>
      <trkpt lat="43.0364" lon="0.86447">
        <ele>448</ele>
        <time>2021-03-13T16:42:24Z</time>
      </trkpt>
      <trkpt lat="43.03629" lon="0.86452">
        <ele>448</ele>
        <time>2021-03-13T16:42:25Z</time>
      </trkpt>
      <trkpt lat="43.03624" lon="0.86454">
        <ele>448</ele>
        <time>2021-03-13T16:42:26Z</time>
      </trkpt>
      <trkpt lat="43.03622" lon="0.86454">
        <ele>448</ele>
        <time>2021-03-13T16:42:27Z</time>
      </trkpt>
      <trkpt lat="43.0362" lon="0.86455">
        <ele>448</ele>
        <time>2021-03-13T16:42:28Z</time>
      </trkpt>
      <trkpt lat="43.03618" lon="0.86456">
        <ele>448</ele>
        <time>2021-03-13T16:42:29Z</time>
      </trkpt>
      <trkpt lat="43.03609" lon="0.86459">
        <ele>448</ele>
        <time>2021-03-13T16:42:30Z</time>
      </trkpt>
      <trkpt lat="43.03607" lon="0.8646">
        <ele>448</ele>
        <time>2021-03-13T16:42:31Z</time>
      </trkpt>
      <trkpt lat="43.03605" lon="0.86461">
        <ele>448</ele>
        <time>2021-03-13T16:42:32Z</time>
      </trkpt>
      <trkpt lat="43.03598" lon="0.86465">
        <ele>448</ele>
        <time>2021-03-13T16:42:33Z</time>
      </trkpt>
      <trkpt lat="43.03596" lon="0.86465">
        <ele>448</ele>
        <time>2021-03-13T16:42:34Z</time>
      </trkpt>
      <trkpt lat="43.03594" lon="0.86466">
        <ele>448</ele>
        <time>2021-03-13T16:42:35Z</time>
      </trkpt>
      <trkpt lat="43.03588" lon="0.86468">
        <ele>448</ele>
        <time>2021-03-13T16:42:36Z</time>
      </trkpt>
      <trkpt lat="43.03586" lon="0.86469">
        <ele>448</ele>
        <time>2021-03-13T16:42:37Z</time>
      </trkpt>
      <trkpt lat="43.03585" lon="0.86469">
        <ele>448</ele>
        <time>2021-03-13T16:42:38Z</time>
      </trkpt>
      <trkpt lat="43.03584" lon="0.86469">
        <ele>448</ele>
        <time>2021-03-13T16:42:39Z</time>
      </trkpt>
      <trkpt lat="43.03575" lon="0.86472">
        <ele>449</ele>
        <time>2021-03-13T16:42:40Z</time>
      </trkpt>
      <trkpt lat="43.03571" lon="0.86474">
        <ele>449</ele>
        <time>2021-03-13T16:42:41Z</time>
      </trkpt>
      <trkpt lat="43.03568" lon="0.86475">
        <ele>449</ele>
        <time>2021-03-13T16:42:42Z</time>
      </trkpt>
      <trkpt lat="43.03566" lon="0.86476">
        <ele>449</ele>
        <time>2021-03-13T16:42:43Z</time>
      </trkpt>
      <trkpt lat="43.03564" lon="0.86477">
        <ele>449</ele>
        <time>2021-03-13T16:42:44Z</time>
      </trkpt>
      <trkpt lat="43.03561" lon="0.86477">
        <ele>449</ele>
        <time>2021-03-13T16:42:45Z</time>
      </trkpt>
      <trkpt lat="43.03553" lon="0.86479">
        <ele>449</ele>
        <time>2021-03-13T16:42:46Z</time>
      </trkpt>
      <trkpt lat="43.03551" lon="0.8648">
        <ele>449</ele>
        <time>2021-03-13T16:42:47Z</time>
      </trkpt>
      <trkpt lat="43.03549" lon="0.8648">
        <ele>449</ele>
        <time>2021-03-13T16:42:48Z</time>
      </trkpt>
      <trkpt lat="43.03542" lon="0.86482">
        <ele>449</ele>
        <time>2021-03-13T16:42:49Z</time>
      </trkpt>
      <trkpt lat="43.0354" lon="0.86483">
        <ele>450</ele>
        <time>2021-03-13T16:42:50Z</time>
      </trkpt>
      <trkpt lat="43.03538" lon="0.86484">
        <ele>450</ele>
        <time>2021-03-13T16:42:51Z</time>
      </trkpt>
      <trkpt lat="43.0353" lon="0.86486">
        <ele>450</ele>
        <time>2021-03-13T16:42:52Z</time>
      </trkpt>
      <trkpt lat="43.03527" lon="0.86487">
        <ele>450</ele>
        <time>2021-03-13T16:42:53Z</time>
      </trkpt>
      <trkpt lat="43.03518" lon="0.86489">
        <ele>450</ele>
        <time>2021-03-13T16:42:54Z</time>
      </trkpt>
      <trkpt lat="43.03516" lon="0.8649">
        <ele>450</ele>
        <time>2021-03-13T16:42:55Z</time>
      </trkpt>
      <trkpt lat="43.03514" lon="0.86491">
        <ele>450</ele>
        <time>2021-03-13T16:42:56Z</time>
      </trkpt>
      <trkpt lat="43.03506" lon="0.86495">
        <ele>450</ele>
        <time>2021-03-13T16:42:57Z</time>
      </trkpt>
      <trkpt lat="43.03505" lon="0.86496">
        <ele>450</ele>
        <time>2021-03-13T16:42:58Z</time>
      </trkpt>
      <trkpt lat="43.03503" lon="0.86497">
        <ele>450</ele>
        <time>2021-03-13T16:42:59Z</time>
      </trkpt>
      <trkpt lat="43.03497" lon="0.86503">
        <ele>453</ele>
        <time>2021-03-13T16:43:00Z</time>
      </trkpt>
      <trkpt lat="43.03496" lon="0.86504">
        <ele>453</ele>
        <time>2021-03-13T16:43:01Z</time>
      </trkpt>
      <trkpt lat="43.03495" lon="0.86506">
        <ele>453</ele>
        <time>2021-03-13T16:43:02Z</time>
      </trkpt>
      <trkpt lat="43.03494" lon="0.86507">
        <ele>453</ele>
        <time>2021-03-13T16:43:03Z</time>
      </trkpt>
      <trkpt lat="43.03488" lon="0.86515">
        <ele>453</ele>
        <time>2021-03-13T16:43:04Z</time>
      </trkpt>
      <trkpt lat="43.03487" lon="0.86517">
        <ele>454</ele>
        <time>2021-03-13T16:43:05Z</time>
      </trkpt>
      <trkpt lat="43.03486" lon="0.86519">
        <ele>454</ele>
        <time>2021-03-13T16:43:06Z</time>
      </trkpt>
      <trkpt lat="43.03482" lon="0.86527">
        <ele>454</ele>
        <time>2021-03-13T16:43:07Z</time>
      </trkpt>
      <trkpt lat="43.03482" lon="0.86529">
        <ele>454</ele>
        <time>2021-03-13T16:43:08Z</time>
      </trkpt>
      <trkpt lat="43.03481" lon="0.86531">
        <ele>454</ele>
        <time>2021-03-13T16:43:09Z</time>
      </trkpt>
      <trkpt lat="43.0348" lon="0.86533">
        <ele>455</ele>
        <time>2021-03-13T16:43:10Z</time>
      </trkpt>
      <trkpt lat="43.03477" lon="0.86541">
        <ele>455</ele>
        <time>2021-03-13T16:43:11Z</time>
      </trkpt>
      <trkpt lat="43.03476" lon="0.86543">
        <ele>455</ele>
        <time>2021-03-13T16:43:12Z</time>
      </trkpt>
      <trkpt lat="43.03476" lon="0.86545">
        <ele>455</ele>
        <time>2021-03-13T16:43:13Z</time>
      </trkpt>
      <trkpt lat="43.03475" lon="0.86546">
        <ele>455</ele>
        <time>2021-03-13T16:43:14Z</time>
      </trkpt>
      <trkpt lat="43.03471" lon="0.86554">
        <ele>456</ele>
        <time>2021-03-13T16:43:15Z</time>
      </trkpt>
      <trkpt lat="43.03471" lon="0.86556">
        <ele>456</ele>
        <time>2021-03-13T16:43:16Z</time>
      </trkpt>
      <trkpt lat="43.0347" lon="0.86558">
        <ele>456</ele>
        <time>2021-03-13T16:43:17Z</time>
      </trkpt>
      <trkpt lat="43.03469" lon="0.86559">
        <ele>456</ele>
        <time>2021-03-13T16:43:18Z</time>
      </trkpt>
      <trkpt lat="43.03466" lon="0.86567">
        <ele>456</ele>
        <time>2021-03-13T16:43:19Z</time>
      </trkpt>
      <trkpt lat="43.03465" lon="0.86569">
        <ele>458</ele>
        <time>2021-03-13T16:43:20Z</time>
      </trkpt>
      <trkpt lat="43.03465" lon="0.86571">
        <ele>458</ele>
        <time>2021-03-13T16:43:21Z</time>
      </trkpt>
      <trkpt lat="43.03464" lon="0.86572">
        <ele>458</ele>
        <time>2021-03-13T16:43:22Z</time>
      </trkpt>
      <trkpt lat="43.03462" lon="0.8658">
        <ele>458</ele>
        <time>2021-03-13T16:43:23Z</time>
      </trkpt>
      <trkpt lat="43.03461" lon="0.86581">
        <ele>458</ele>
        <time>2021-03-13T16:43:24Z</time>
      </trkpt>
      <trkpt lat="43.03461" lon="0.86583">
        <ele>460</ele>
        <time>2021-03-13T16:43:25Z</time>
      </trkpt>
      <trkpt lat="43.0346" lon="0.86584">
        <ele>460</ele>
        <time>2021-03-13T16:43:26Z</time>
      </trkpt>
      <trkpt lat="43.0346" lon="0.86586">
        <ele>460</ele>
        <time>2021-03-13T16:43:27Z</time>
      </trkpt>
      <trkpt lat="43.03457" lon="0.86595">
        <ele>460</ele>
        <time>2021-03-13T16:43:28Z</time>
      </trkpt>
      <trkpt lat="43.03457" lon="0.86597">
        <ele>460</ele>
        <time>2021-03-13T16:43:29Z</time>
      </trkpt>
      <trkpt lat="43.03456" lon="0.86599">
        <ele>460</ele>
        <time>2021-03-13T16:43:30Z</time>
      </trkpt>
      <trkpt lat="43.03456" lon="0.86601">
        <ele>460</ele>
        <time>2021-03-13T16:43:31Z</time>
      </trkpt>
      <trkpt lat="43.03454" lon="0.8661">
        <ele>460</ele>
        <time>2021-03-13T16:43:32Z</time>
      </trkpt>
      <trkpt lat="43.03453" lon="0.86612">
        <ele>460</ele>
        <time>2021-03-13T16:43:33Z</time>
      </trkpt>
      <trkpt lat="43.03453" lon="0.86614">
        <ele>460</ele>
        <time>2021-03-13T16:43:34Z</time>
      </trkpt>
      <trkpt lat="43.03452" lon="0.86616">
        <ele>460</ele>
        <time>2021-03-13T16:43:35Z</time>
      </trkpt>
      <trkpt lat="43.0345" lon="0.86626">
        <ele>460</ele>
        <time>2021-03-13T16:43:36Z</time>
      </trkpt>
      <trkpt lat="43.03449" lon="0.86628">
        <ele>460</ele>
        <time>2021-03-13T16:43:37Z</time>
      </trkpt>
      <trkpt lat="43.03449" lon="0.8663">
        <ele>460</ele>
        <time>2021-03-13T16:43:38Z</time>
      </trkpt>
      <trkpt lat="43.03448" lon="0.86632">
        <ele>460</ele>
        <time>2021-03-13T16:43:39Z</time>
      </trkpt>
      <trkpt lat="43.03445" lon="0.86644">
        <ele>460</ele>
        <time>2021-03-13T16:43:40Z</time>
      </trkpt>
      <trkpt lat="43.03443" lon="0.86649">
        <ele>460</ele>
        <time>2021-03-13T16:43:41Z</time>
      </trkpt>
      <trkpt lat="43.03442" lon="0.86653">
        <ele>460</ele>
        <time>2021-03-13T16:43:42Z</time>
      </trkpt>
      <trkpt lat="43.03441" lon="0.86655">
        <ele>460</ele>
        <time>2021-03-13T16:43:43Z</time>
      </trkpt>
      <trkpt lat="43.03441" lon="0.86657">
        <ele>460</ele>
        <time>2021-03-13T16:43:44Z</time>
      </trkpt>
      <trkpt lat="43.0344" lon="0.8666">
        <ele>460</ele>
        <time>2021-03-13T16:43:45Z</time>
      </trkpt>
      <trkpt lat="43.03439" lon="0.8667">
        <ele>460</ele>
        <time>2021-03-13T16:43:46Z</time>
      </trkpt>
      <trkpt lat="43.0344" lon="0.86673">
        <ele>460</ele>
        <time>2021-03-13T16:43:47Z</time>
      </trkpt>
      <trkpt lat="43.0344" lon="0.86676">
        <ele>460</ele>
        <time>2021-03-13T16:43:48Z</time>
      </trkpt>
      <trkpt lat="43.0344" lon="0.8668">
        <ele>460</ele>
        <time>2021-03-13T16:43:49Z</time>
      </trkpt>
      <trkpt lat="43.03441" lon="0.86681">
        <ele>462</ele>
        <time>2021-03-13T16:43:50Z</time>
      </trkpt>
      <trkpt lat="43.03441" lon="0.86683">
        <ele>462</ele>
        <time>2021-03-13T16:43:51Z</time>
      </trkpt>
      <trkpt lat="43.03442" lon="0.86684">
        <ele>462</ele>
        <time>2021-03-13T16:43:52Z</time>
      </trkpt>
      <trkpt lat="43.03442" lon="0.86686">
        <ele>462</ele>
        <time>2021-03-13T16:43:53Z</time>
      </trkpt>
      <trkpt lat="43.03442" lon="0.86687">
        <ele>462</ele>
        <time>2021-03-13T16:43:54Z</time>
      </trkpt>
      <trkpt lat="43.03445" lon="0.86697">
        <ele>462</ele>
        <time>2021-03-13T16:43:55Z</time>
      </trkpt>
      <trkpt lat="43.03446" lon="0.86699">
        <ele>462</ele>
        <time>2021-03-13T16:43:56Z</time>
      </trkpt>
      <trkpt lat="43.03447" lon="0.867">
        <ele>462</ele>
        <time>2021-03-13T16:43:57Z</time>
      </trkpt>
      <trkpt lat="43.03447" lon="0.86702">
        <ele>462</ele>
        <time>2021-03-13T16:43:58Z</time>
      </trkpt>
      <trkpt lat="43.03451" lon="0.86711">
        <ele>462</ele>
        <time>2021-03-13T16:43:59Z</time>
      </trkpt>
      <trkpt lat="43.03452" lon="0.86713">
        <ele>465</ele>
        <time>2021-03-13T16:44:00Z</time>
      </trkpt>
      <trkpt lat="43.03453" lon="0.86715">
        <ele>465</ele>
        <time>2021-03-13T16:44:01Z</time>
      </trkpt>
      <trkpt lat="43.03454" lon="0.86716">
        <ele>465</ele>
        <time>2021-03-13T16:44:02Z</time>
      </trkpt>
      <trkpt lat="43.03458" lon="0.86725">
        <ele>465</ele>
        <time>2021-03-13T16:44:03Z</time>
      </trkpt>
      <trkpt lat="43.03459" lon="0.86726">
        <ele>465</ele>
        <time>2021-03-13T16:44:04Z</time>
      </trkpt>
      <trkpt lat="43.03459" lon="0.86728">
        <ele>466</ele>
        <time>2021-03-13T16:44:05Z</time>
      </trkpt>
      <trkpt lat="43.0346" lon="0.86729">
        <ele>466</ele>
        <time>2021-03-13T16:44:06Z</time>
      </trkpt>
      <trkpt lat="43.03463" lon="0.86737">
        <ele>466</ele>
        <time>2021-03-13T16:44:07Z</time>
      </trkpt>
      <trkpt lat="43.03464" lon="0.86738">
        <ele>466</ele>
        <time>2021-03-13T16:44:08Z</time>
      </trkpt>
      <trkpt lat="43.03464" lon="0.8674">
        <ele>466</ele>
        <time>2021-03-13T16:44:09Z</time>
      </trkpt>
      <trkpt lat="43.03465" lon="0.86741">
        <ele>466</ele>
        <time>2021-03-13T16:44:10Z</time>
      </trkpt>
      <trkpt lat="43.03465" lon="0.86743">
        <ele>466</ele>
        <time>2021-03-13T16:44:11Z</time>
      </trkpt>
      <trkpt lat="43.03468" lon="0.86752">
        <ele>466</ele>
        <time>2021-03-13T16:44:12Z</time>
      </trkpt>
      <trkpt lat="43.03469" lon="0.86754">
        <ele>466</ele>
        <time>2021-03-13T16:44:13Z</time>
      </trkpt>
      <trkpt lat="43.03469" lon="0.86755">
        <ele>466</ele>
        <time>2021-03-13T16:44:14Z</time>
      </trkpt>
      <trkpt lat="43.0347" lon="0.86757">
        <ele>466</ele>
        <time>2021-03-13T16:44:15Z</time>
      </trkpt>
      <trkpt lat="43.03472" lon="0.86765">
        <ele>466</ele>
        <time>2021-03-13T16:44:16Z</time>
      </trkpt>
      <trkpt lat="43.03473" lon="0.86767">
        <ele>466</ele>
        <time>2021-03-13T16:44:17Z</time>
      </trkpt>
      <trkpt lat="43.03474" lon="0.86768">
        <ele>466</ele>
        <time>2021-03-13T16:44:18Z</time>
      </trkpt>
      <trkpt lat="43.03475" lon="0.8677">
        <ele>466</ele>
        <time>2021-03-13T16:44:19Z</time>
      </trkpt>
      <trkpt lat="43.03479" lon="0.86778">
        <ele>467</ele>
        <time>2021-03-13T16:44:20Z</time>
      </trkpt>
      <trkpt lat="43.0348" lon="0.86779">
        <ele>467</ele>
        <time>2021-03-13T16:44:21Z</time>
      </trkpt>
      <trkpt lat="43.0348" lon="0.86781">
        <ele>467</ele>
        <time>2021-03-13T16:44:22Z</time>
      </trkpt>
      <trkpt lat="43.03481" lon="0.86782">
        <ele>467</ele>
        <time>2021-03-13T16:44:23Z</time>
      </trkpt>
      <trkpt lat="43.03485" lon="0.8679">
        <ele>467</ele>
        <time>2021-03-13T16:44:24Z</time>
      </trkpt>
      <trkpt lat="43.03486" lon="0.86792">
        <ele>467</ele>
        <time>2021-03-13T16:44:25Z</time>
      </trkpt>
      <trkpt lat="43.03486" lon="0.86794">
        <ele>467</ele>
        <time>2021-03-13T16:44:26Z</time>
      </trkpt>
      <trkpt lat="43.03487" lon="0.86795">
        <ele>467</ele>
        <time>2021-03-13T16:44:27Z</time>
      </trkpt>
      <trkpt lat="43.0349" lon="0.86805">
        <ele>467</ele>
        <time>2021-03-13T16:44:28Z</time>
      </trkpt>
      <trkpt lat="43.03491" lon="0.86809">
        <ele>467</ele>
        <time>2021-03-13T16:44:29Z</time>
      </trkpt>
      <trkpt lat="43.03491" lon="0.86812">
        <ele>469</ele>
        <time>2021-03-13T16:44:30Z</time>
      </trkpt>
      <trkpt lat="43.03492" lon="0.86816">
        <ele>469</ele>
        <time>2021-03-13T16:44:31Z</time>
      </trkpt>
      <trkpt lat="43.03492" lon="0.86819">
        <ele>469</ele>
        <time>2021-03-13T16:44:32Z</time>
      </trkpt>
      <trkpt lat="43.03493" lon="0.86822">
        <ele>469</ele>
        <time>2021-03-13T16:44:33Z</time>
      </trkpt>
      <trkpt lat="43.03494" lon="0.86825">
        <ele>469</ele>
        <time>2021-03-13T16:44:34Z</time>
      </trkpt>
      <trkpt lat="43.03494" lon="0.86829">
        <ele>469</ele>
        <time>2021-03-13T16:44:35Z</time>
      </trkpt>
      <trkpt lat="43.03495" lon="0.86832">
        <ele>469</ele>
        <time>2021-03-13T16:44:36Z</time>
      </trkpt>
      <trkpt lat="43.03496" lon="0.86835">
        <ele>469</ele>
        <time>2021-03-13T16:44:37Z</time>
      </trkpt>
      <trkpt lat="43.03496" lon="0.86838">
        <ele>469</ele>
        <time>2021-03-13T16:44:38Z</time>
      </trkpt>
      <trkpt lat="43.03497" lon="0.86842">
        <ele>469</ele>
        <time>2021-03-13T16:44:39Z</time>
      </trkpt>
      <trkpt lat="43.03497" lon="0.86843">
        <ele>472</ele>
        <time>2021-03-13T16:44:40Z</time>
      </trkpt>
      <trkpt lat="43.03498" lon="0.86845">
        <ele>472</ele>
        <time>2021-03-13T16:44:41Z</time>
      </trkpt>
      <trkpt lat="43.03498" lon="0.86847">
        <ele>472</ele>
        <time>2021-03-13T16:44:42Z</time>
      </trkpt>
      <trkpt lat="43.03498" lon="0.86848">
        <ele>472</ele>
        <time>2021-03-13T16:44:43Z</time>
      </trkpt>
      <trkpt lat="43.03498" lon="0.8685">
        <ele>472</ele>
        <time>2021-03-13T16:44:44Z</time>
      </trkpt>
      <trkpt lat="43.03499" lon="0.86861">
        <ele>473</ele>
        <time>2021-03-13T16:44:45Z</time>
      </trkpt>
      <trkpt lat="43.035" lon="0.86865">
        <ele>473</ele>
        <time>2021-03-13T16:44:46Z</time>
      </trkpt>
      <trkpt lat="43.035" lon="0.86868">
        <ele>473</ele>
        <time>2021-03-13T16:44:47Z</time>
      </trkpt>
      <trkpt lat="43.03501" lon="0.86871">
        <ele>473</ele>
        <time>2021-03-13T16:44:48Z</time>
      </trkpt>
      <trkpt lat="43.03501" lon="0.86873">
        <ele>473</ele>
        <time>2021-03-13T16:44:49Z</time>
      </trkpt>
      <trkpt lat="43.03501" lon="0.86874">
        <ele>474</ele>
        <time>2021-03-13T16:44:50Z</time>
      </trkpt>
      <trkpt lat="43.03501" lon="0.86876">
        <ele>474</ele>
        <time>2021-03-13T16:44:51Z</time>
      </trkpt>
      <trkpt lat="43.03501" lon="0.86877">
        <ele>474</ele>
        <time>2021-03-13T16:44:52Z</time>
      </trkpt>
      <trkpt lat="43.03501" lon="0.86879">
        <ele>474</ele>
        <time>2021-03-13T16:44:53Z</time>
      </trkpt>
      <trkpt lat="43.03501" lon="0.86889">
        <ele>474</ele>
        <time>2021-03-13T16:44:54Z</time>
      </trkpt>
      <trkpt lat="43.03501" lon="0.86891">
        <ele>475</ele>
        <time>2021-03-13T16:44:55Z</time>
      </trkpt>
      <trkpt lat="43.03501" lon="0.86893">
        <ele>475</ele>
        <time>2021-03-13T16:44:56Z</time>
      </trkpt>
      <trkpt lat="43.03501" lon="0.86895">
        <ele>475</ele>
        <time>2021-03-13T16:44:57Z</time>
      </trkpt>
      <trkpt lat="43.03501" lon="0.86898">
        <ele>475</ele>
        <time>2021-03-13T16:44:58Z</time>
      </trkpt>
      <trkpt lat="43.03501" lon="0.869">
        <ele>475</ele>
        <time>2021-03-13T16:44:59Z</time>
      </trkpt>
      <trkpt lat="43.03501" lon="0.86902">
        <ele>478</ele>
        <time>2021-03-13T16:45:00Z</time>
      </trkpt>
      <trkpt lat="43.03501" lon="0.86905">
        <ele>478</ele>
        <time>2021-03-13T16:45:01Z</time>
      </trkpt>
      <trkpt lat="43.03501" lon="0.86908">
        <ele>478</ele>
        <time>2021-03-13T16:45:02Z</time>
      </trkpt>
      <trkpt lat="43.03501" lon="0.8691">
        <ele>478</ele>
        <time>2021-03-13T16:45:03Z</time>
      </trkpt>
      <trkpt lat="43.03501" lon="0.86913">
        <ele>478</ele>
        <time>2021-03-13T16:45:04Z</time>
      </trkpt>
      <trkpt lat="43.03501" lon="0.86916">
        <ele>479</ele>
        <time>2021-03-13T16:45:05Z</time>
      </trkpt>
      <trkpt lat="43.03501" lon="0.86918">
        <ele>479</ele>
        <time>2021-03-13T16:45:06Z</time>
      </trkpt>
      <trkpt lat="43.035" lon="0.86921">
        <ele>479</ele>
        <time>2021-03-13T16:45:07Z</time>
      </trkpt>
      <trkpt lat="43.035" lon="0.86923">
        <ele>479</ele>
        <time>2021-03-13T16:45:08Z</time>
      </trkpt>
      <trkpt lat="43.035" lon="0.86925">
        <ele>479</ele>
        <time>2021-03-13T16:45:09Z</time>
      </trkpt>
      <trkpt lat="43.035" lon="0.86927">
        <ele>479</ele>
        <time>2021-03-13T16:45:10Z</time>
      </trkpt>
      <trkpt lat="43.03499" lon="0.8693">
        <ele>479</ele>
        <time>2021-03-13T16:45:11Z</time>
      </trkpt>
      <trkpt lat="43.03499" lon="0.86931">
        <ele>479</ele>
        <time>2021-03-13T16:45:12Z</time>
      </trkpt>
      <trkpt lat="43.03499" lon="0.86932">
        <ele>479</ele>
        <time>2021-03-13T16:45:13Z</time>
      </trkpt>
      <trkpt lat="43.03499" lon="0.86933">
        <ele>479</ele>
        <time>2021-03-13T16:45:14Z</time>
      </trkpt>
      <trkpt lat="43.03499" lon="0.86934">
        <ele>479</ele>
        <time>2021-03-13T16:45:15Z</time>
      </trkpt>
      <trkpt lat="43.03499" lon="0.86935">
        <ele>479</ele>
        <time>2021-03-13T16:45:16Z</time>
      </trkpt>
      <trkpt lat="43.03499" lon="0.86936">
        <ele>479</ele>
        <time>2021-03-13T16:45:17Z</time>
      </trkpt>
      <trkpt lat="43.03499" lon="0.86937">
        <ele>479</ele>
        <time>2021-03-13T16:45:18Z</time>
      </trkpt>
      <trkpt lat="43.03499" lon="0.86945">
        <ele>479</ele>
        <time>2021-03-13T16:45:19Z</time>
      </trkpt>
      <trkpt lat="43.03499" lon="0.86947">
        <ele>482</ele>
        <time>2021-03-13T16:45:20Z</time>
      </trkpt>
      <trkpt lat="43.03499" lon="0.86948">
        <ele>482</ele>
        <time>2021-03-13T16:45:21Z</time>
      </trkpt>
      <trkpt lat="43.03499" lon="0.86949">
        <ele>482</ele>
        <time>2021-03-13T16:45:22Z</time>
      </trkpt>
      <trkpt lat="43.03499" lon="0.8695">
        <ele>482</ele>
        <time>2021-03-13T16:45:23Z</time>
      </trkpt>
      <trkpt lat="43.03499" lon="0.86952">
        <ele>482</ele>
        <time>2021-03-13T16:45:24Z</time>
      </trkpt>
      <trkpt lat="43.03499" lon="0.8696">
        <ele>484</ele>
        <time>2021-03-13T16:45:25Z</time>
      </trkpt>
      <trkpt lat="43.03498" lon="0.86961">
        <ele>484</ele>
        <time>2021-03-13T16:45:26Z</time>
      </trkpt>
      <trkpt lat="43.03498" lon="0.86963">
        <ele>484</ele>
        <time>2021-03-13T16:45:27Z</time>
      </trkpt>
      <trkpt lat="43.03498" lon="0.86964">
        <ele>484</ele>
        <time>2021-03-13T16:45:28Z</time>
      </trkpt>
      <trkpt lat="43.03498" lon="0.86965">
        <ele>484</ele>
        <time>2021-03-13T16:45:29Z</time>
      </trkpt>
      <trkpt lat="43.03498" lon="0.86966">
        <ele>485</ele>
        <time>2021-03-13T16:45:30Z</time>
      </trkpt>
      <trkpt lat="43.03496" lon="0.86975">
        <ele>485</ele>
        <time>2021-03-13T16:45:31Z</time>
      </trkpt>
      <trkpt lat="43.03495" lon="0.86977">
        <ele>485</ele>
        <time>2021-03-13T16:45:32Z</time>
      </trkpt>
      <trkpt lat="43.03495" lon="0.86979">
        <ele>485</ele>
        <time>2021-03-13T16:45:33Z</time>
      </trkpt>
      <trkpt lat="43.03494" lon="0.8698">
        <ele>485</ele>
        <time>2021-03-13T16:45:34Z</time>
      </trkpt>
      <trkpt lat="43.03494" lon="0.86981">
        <ele>485</ele>
        <time>2021-03-13T16:45:35Z</time>
      </trkpt>
      <trkpt lat="43.03494" lon="0.86982">
        <ele>485</ele>
        <time>2021-03-13T16:45:36Z</time>
      </trkpt>
      <trkpt lat="43.03493" lon="0.86983">
        <ele>485</ele>
        <time>2021-03-13T16:45:37Z</time>
      </trkpt>
      <trkpt lat="43.03493" lon="0.86984">
        <ele>485</ele>
        <time>2021-03-13T16:45:38Z</time>
      </trkpt>
      <trkpt lat="43.03492" lon="0.86985">
        <ele>485</ele>
        <time>2021-03-13T16:45:39Z</time>
      </trkpt>
      <trkpt lat="43.0349" lon="0.86993">
        <ele>487</ele>
        <time>2021-03-13T16:45:40Z</time>
      </trkpt>
      <trkpt lat="43.03489" lon="0.86994">
        <ele>487</ele>
        <time>2021-03-13T16:45:41Z</time>
      </trkpt>
      <trkpt lat="43.03489" lon="0.86995">
        <ele>487</ele>
        <time>2021-03-13T16:45:42Z</time>
      </trkpt>
      <trkpt lat="43.03488" lon="0.86996">
        <ele>487</ele>
        <time>2021-03-13T16:45:43Z</time>
      </trkpt>
      <trkpt lat="43.03488" lon="0.86997">
        <ele>487</ele>
        <time>2021-03-13T16:45:44Z</time>
      </trkpt>
      <trkpt lat="43.03487" lon="0.86998">
        <ele>488</ele>
        <time>2021-03-13T16:45:45Z</time>
      </trkpt>
      <trkpt lat="43.03484" lon="0.87006">
        <ele>488</ele>
        <time>2021-03-13T16:45:46Z</time>
      </trkpt>
      <trkpt lat="43.03483" lon="0.87008">
        <ele>488</ele>
        <time>2021-03-13T16:45:47Z</time>
      </trkpt>
      <trkpt lat="43.03483" lon="0.87009">
        <ele>488</ele>
        <time>2021-03-13T16:45:48Z</time>
      </trkpt>
      <trkpt lat="43.03482" lon="0.8701">
        <ele>488</ele>
        <time>2021-03-13T16:45:49Z</time>
      </trkpt>
      <trkpt lat="43.03482" lon="0.87012">
        <ele>490</ele>
        <time>2021-03-13T16:45:50Z</time>
      </trkpt>
      <trkpt lat="43.0348" lon="0.87014">
        <ele>490</ele>
        <time>2021-03-13T16:45:51Z</time>
      </trkpt>
      <trkpt lat="43.03479" lon="0.87016">
        <ele>490</ele>
        <time>2021-03-13T16:45:52Z</time>
      </trkpt>
      <trkpt lat="43.03478" lon="0.87018">
        <ele>490</ele>
        <time>2021-03-13T16:45:53Z</time>
      </trkpt>
      <trkpt lat="43.03476" lon="0.87021">
        <ele>490</ele>
        <time>2021-03-13T16:45:54Z</time>
      </trkpt>
      <trkpt lat="43.03475" lon="0.87023">
        <ele>491</ele>
        <time>2021-03-13T16:45:55Z</time>
      </trkpt>
      <trkpt lat="43.03474" lon="0.87025">
        <ele>491</ele>
        <time>2021-03-13T16:45:56Z</time>
      </trkpt>
      <trkpt lat="43.03474" lon="0.87027">
        <ele>491</ele>
        <time>2021-03-13T16:45:57Z</time>
      </trkpt>
      <trkpt lat="43.03473" lon="0.87029">
        <ele>491</ele>
        <time>2021-03-13T16:45:58Z</time>
      </trkpt>
      <trkpt lat="43.03472" lon="0.87031">
        <ele>491</ele>
        <time>2021-03-13T16:45:59Z</time>
      </trkpt>
      <trkpt lat="43.03472" lon="0.87033">
        <ele>491</ele>
        <time>2021-03-13T16:46:00Z</time>
      </trkpt>
      <trkpt lat="43.03471" lon="0.87035">
        <ele>491</ele>
        <time>2021-03-13T16:46:01Z</time>
      </trkpt>
      <trkpt lat="43.0347" lon="0.87036">
        <ele>491</ele>
        <time>2021-03-13T16:46:02Z</time>
      </trkpt>
      <trkpt lat="43.0347" lon="0.87037">
        <ele>491</ele>
        <time>2021-03-13T16:46:03Z</time>
      </trkpt>
      <trkpt lat="43.03469" lon="0.87038">
        <ele>491</ele>
        <time>2021-03-13T16:46:04Z</time>
      </trkpt>
      <trkpt lat="43.03469" lon="0.87039">
        <ele>491</ele>
        <time>2021-03-13T16:46:05Z</time>
      </trkpt>
      <trkpt lat="43.03469" lon="0.8704">
        <ele>491</ele>
        <time>2021-03-13T16:46:06Z</time>
      </trkpt>
      <trkpt lat="43.03468" lon="0.87041">
        <ele>491</ele>
        <time>2021-03-13T16:46:07Z</time>
      </trkpt>
      <trkpt lat="43.03468" lon="0.87041">
        <ele>491</ele>
        <time>2021-03-13T16:46:08Z</time>
      </trkpt>
      <trkpt lat="43.03464" lon="0.87049">
        <ele>491</ele>
        <time>2021-03-13T16:46:09Z</time>
      </trkpt>
      <trkpt lat="43.03464" lon="0.8705">
        <ele>493</ele>
        <time>2021-03-13T16:46:10Z</time>
      </trkpt>
      <trkpt lat="43.03463" lon="0.87051">
        <ele>493</ele>
        <time>2021-03-13T16:46:11Z</time>
      </trkpt>
      <trkpt lat="43.03463" lon="0.87052">
        <ele>493</ele>
        <time>2021-03-13T16:46:12Z</time>
      </trkpt>
      <trkpt lat="43.03463" lon="0.87053">
        <ele>493</ele>
        <time>2021-03-13T16:46:13Z</time>
      </trkpt>
      <trkpt lat="43.03462" lon="0.87054">
        <ele>493</ele>
        <time>2021-03-13T16:46:14Z</time>
      </trkpt>
      <trkpt lat="43.03462" lon="0.87055">
        <ele>493</ele>
        <time>2021-03-13T16:46:15Z</time>
      </trkpt>
      <trkpt lat="43.0346" lon="0.87063">
        <ele>493</ele>
        <time>2021-03-13T16:46:16Z</time>
      </trkpt>
      <trkpt lat="43.03459" lon="0.87065">
        <ele>493</ele>
        <time>2021-03-13T16:46:17Z</time>
      </trkpt>
      <trkpt lat="43.03458" lon="0.87067">
        <ele>493</ele>
        <time>2021-03-13T16:46:18Z</time>
      </trkpt>
      <trkpt lat="43.03458" lon="0.87069">
        <ele>493</ele>
        <time>2021-03-13T16:46:19Z</time>
      </trkpt>
      <trkpt lat="43.03457" lon="0.8707">
        <ele>495</ele>
        <time>2021-03-13T16:46:20Z</time>
      </trkpt>
      <trkpt lat="43.03456" lon="0.87072">
        <ele>495</ele>
        <time>2021-03-13T16:46:21Z</time>
      </trkpt>
      <trkpt lat="43.03456" lon="0.87074">
        <ele>495</ele>
        <time>2021-03-13T16:46:22Z</time>
      </trkpt>
      <trkpt lat="43.03455" lon="0.87075">
        <ele>495</ele>
        <time>2021-03-13T16:46:23Z</time>
      </trkpt>
      <trkpt lat="43.03455" lon="0.87076">
        <ele>495</ele>
        <time>2021-03-13T16:46:24Z</time>
      </trkpt>
      <trkpt lat="43.03455" lon="0.87076">
        <ele>495</ele>
        <time>2021-03-13T16:46:25Z</time>
      </trkpt>
      <trkpt lat="43.03454" lon="0.87077">
        <ele>495</ele>
        <time>2021-03-13T16:46:26Z</time>
      </trkpt>
      <trkpt lat="43.03454" lon="0.87078">
        <ele>495</ele>
        <time>2021-03-13T16:46:27Z</time>
      </trkpt>
      <trkpt lat="43.03453" lon="0.87079">
        <ele>495</ele>
        <time>2021-03-13T16:46:28Z</time>
      </trkpt>
      <trkpt lat="43.03453" lon="0.8708">
        <ele>495</ele>
        <time>2021-03-13T16:46:29Z</time>
      </trkpt>
      <trkpt lat="43.0345" lon="0.87087">
        <ele>497</ele>
        <time>2021-03-13T16:46:30Z</time>
      </trkpt>
      <trkpt lat="43.03449" lon="0.87087">
        <ele>497</ele>
        <time>2021-03-13T16:46:31Z</time>
      </trkpt>
      <trkpt lat="43.03449" lon="0.87088">
        <ele>497</ele>
        <time>2021-03-13T16:46:32Z</time>
      </trkpt>
      <trkpt lat="43.03448" lon="0.87089">
        <ele>497</ele>
        <time>2021-03-13T16:46:33Z</time>
      </trkpt>
      <trkpt lat="43.03448" lon="0.8709">
        <ele>497</ele>
        <time>2021-03-13T16:46:34Z</time>
      </trkpt>
      <trkpt lat="43.03447" lon="0.87091">
        <ele>498</ele>
        <time>2021-03-13T16:46:35Z</time>
      </trkpt>
      <trkpt lat="43.03447" lon="0.87091">
        <ele>498</ele>
        <time>2021-03-13T16:46:36Z</time>
      </trkpt>
      <trkpt lat="43.03446" lon="0.87092">
        <ele>498</ele>
        <time>2021-03-13T16:46:37Z</time>
      </trkpt>
      <trkpt lat="43.03446" lon="0.87093">
        <ele>498</ele>
        <time>2021-03-13T16:46:38Z</time>
      </trkpt>
      <trkpt lat="43.03445" lon="0.87094">
        <ele>498</ele>
        <time>2021-03-13T16:46:39Z</time>
      </trkpt>
      <trkpt lat="43.03445" lon="0.87095">
        <ele>498</ele>
        <time>2021-03-13T16:46:40Z</time>
      </trkpt>
      <trkpt lat="43.03444" lon="0.87095">
        <ele>498</ele>
        <time>2021-03-13T16:46:41Z</time>
      </trkpt>
      <trkpt lat="43.03444" lon="0.87096">
        <ele>498</ele>
        <time>2021-03-13T16:46:42Z</time>
      </trkpt>
      <trkpt lat="43.03444" lon="0.87097">
        <ele>498</ele>
        <time>2021-03-13T16:46:43Z</time>
      </trkpt>
      <trkpt lat="43.03443" lon="0.87097">
        <ele>498</ele>
        <time>2021-03-13T16:46:44Z</time>
      </trkpt>
      <trkpt lat="43.03443" lon="0.87098">
        <ele>498</ele>
        <time>2021-03-13T16:46:45Z</time>
      </trkpt>
      <trkpt lat="43.03442" lon="0.87098">
        <ele>498</ele>
        <time>2021-03-13T16:46:46Z</time>
      </trkpt>
      <trkpt lat="43.03442" lon="0.87099">
        <ele>498</ele>
        <time>2021-03-13T16:46:47Z</time>
      </trkpt>
      <trkpt lat="43.03442" lon="0.87099">
        <ele>498</ele>
        <time>2021-03-13T16:46:48Z</time>
      </trkpt>
      <trkpt lat="43.03441" lon="0.87099">
        <ele>498</ele>
        <time>2021-03-13T16:46:49Z</time>
      </trkpt>
      <trkpt lat="43.03441" lon="0.871">
        <ele>499</ele>
        <time>2021-03-13T16:46:50Z</time>
      </trkpt>
      <trkpt lat="43.0344" lon="0.871">
        <ele>499</ele>
        <time>2021-03-13T16:46:51Z</time>
      </trkpt>
      <trkpt lat="43.0344" lon="0.87101">
        <ele>499</ele>
        <time>2021-03-13T16:46:52Z</time>
      </trkpt>
      <trkpt lat="43.0344" lon="0.87101">
        <ele>499</ele>
        <time>2021-03-13T16:46:53Z</time>
      </trkpt>
      <trkpt lat="43.03439" lon="0.87102">
        <ele>499</ele>
        <time>2021-03-13T16:46:54Z</time>
      </trkpt>
      <trkpt lat="43.03439" lon="0.87102">
        <ele>499</ele>
        <time>2021-03-13T16:46:55Z</time>
      </trkpt>
      <trkpt lat="43.03439" lon="0.87103">
        <ele>499</ele>
        <time>2021-03-13T16:46:56Z</time>
      </trkpt>
      <trkpt lat="43.03438" lon="0.87104">
        <ele>499</ele>
        <time>2021-03-13T16:46:57Z</time>
      </trkpt>
      <trkpt lat="43.03437" lon="0.87106">
        <ele>499</ele>
        <time>2021-03-13T16:46:58Z</time>
      </trkpt>
      <trkpt lat="43.03437" lon="0.87107">
        <ele>499</ele>
        <time>2021-03-13T16:46:59Z</time>
      </trkpt>
      <trkpt lat="43.03436" lon="0.87109">
        <ele>500</ele>
        <time>2021-03-13T16:47:00Z</time>
      </trkpt>
      <trkpt lat="43.03436" lon="0.8711">
        <ele>500</ele>
        <time>2021-03-13T16:47:01Z</time>
      </trkpt>
      <trkpt lat="43.03434" lon="0.87111">
        <ele>500</ele>
        <time>2021-03-13T16:47:02Z</time>
      </trkpt>
      <trkpt lat="43.03433" lon="0.87112">
        <ele>500</ele>
        <time>2021-03-13T16:47:03Z</time>
      </trkpt>
      <trkpt lat="43.03432" lon="0.87113">
        <ele>500</ele>
        <time>2021-03-13T16:47:04Z</time>
      </trkpt>
      <trkpt lat="43.03431" lon="0.87115">
        <ele>500</ele>
        <time>2021-03-13T16:47:05Z</time>
      </trkpt>
      <trkpt lat="43.0343" lon="0.87116">
        <ele>500</ele>
        <time>2021-03-13T16:47:06Z</time>
      </trkpt>
      <trkpt lat="43.03429" lon="0.87117">
        <ele>500</ele>
        <time>2021-03-13T16:47:07Z</time>
      </trkpt>
      <trkpt lat="43.03427" lon="0.87118">
        <ele>500</ele>
        <time>2021-03-13T16:47:08Z</time>
      </trkpt>
      <trkpt lat="43.03427" lon="0.87119">
        <ele>500</ele>
        <time>2021-03-13T16:47:09Z</time>
      </trkpt>
      <trkpt lat="43.03426" lon="0.87119">
        <ele>501</ele>
        <time>2021-03-13T16:47:10Z</time>
      </trkpt>
      <trkpt lat="43.03426" lon="0.8712">
        <ele>501</ele>
        <time>2021-03-13T16:47:11Z</time>
      </trkpt>
      <trkpt lat="43.03425" lon="0.87121">
        <ele>501</ele>
        <time>2021-03-13T16:47:12Z</time>
      </trkpt>
      <trkpt lat="43.03425" lon="0.87121">
        <ele>501</ele>
        <time>2021-03-13T16:47:13Z</time>
      </trkpt>
      <trkpt lat="43.03424" lon="0.87122">
        <ele>501</ele>
        <time>2021-03-13T16:47:14Z</time>
      </trkpt>
      <trkpt lat="43.03424" lon="0.87122">
        <ele>501</ele>
        <time>2021-03-13T16:47:15Z</time>
      </trkpt>
      <trkpt lat="43.03423" lon="0.87123">
        <ele>501</ele>
        <time>2021-03-13T16:47:16Z</time>
      </trkpt>
      <trkpt lat="43.03418" lon="0.87129">
        <ele>501</ele>
        <time>2021-03-13T16:47:17Z</time>
      </trkpt>
      <trkpt lat="43.03416" lon="0.87131">
        <ele>501</ele>
        <time>2021-03-13T16:47:18Z</time>
      </trkpt>
      <trkpt lat="43.03415" lon="0.87132">
        <ele>501</ele>
        <time>2021-03-13T16:47:19Z</time>
      </trkpt>
      <trkpt lat="43.03414" lon="0.87134">
        <ele>503</ele>
        <time>2021-03-13T16:47:20Z</time>
      </trkpt>
      <trkpt lat="43.03413" lon="0.87135">
        <ele>503</ele>
        <time>2021-03-13T16:47:21Z</time>
      </trkpt>
      <trkpt lat="43.03412" lon="0.87136">
        <ele>503</ele>
        <time>2021-03-13T16:47:22Z</time>
      </trkpt>
      <trkpt lat="43.03411" lon="0.87136">
        <ele>503</ele>
        <time>2021-03-13T16:47:23Z</time>
      </trkpt>
      <trkpt lat="43.0341" lon="0.87137">
        <ele>503</ele>
        <time>2021-03-13T16:47:24Z</time>
      </trkpt>
      <trkpt lat="43.03409" lon="0.87138">
        <ele>503</ele>
        <time>2021-03-13T16:47:25Z</time>
      </trkpt>
      <trkpt lat="43.03404" lon="0.87144">
        <ele>503</ele>
        <time>2021-03-13T16:47:26Z</time>
      </trkpt>
      <trkpt lat="43.03403" lon="0.87146">
        <ele>503</ele>
        <time>2021-03-13T16:47:27Z</time>
      </trkpt>
      <trkpt lat="43.03402" lon="0.87147">
        <ele>503</ele>
        <time>2021-03-13T16:47:28Z</time>
      </trkpt>
      <trkpt lat="43.03401" lon="0.87149">
        <ele>503</ele>
        <time>2021-03-13T16:47:29Z</time>
      </trkpt>
      <trkpt lat="43.034" lon="0.8715">
        <ele>505</ele>
        <time>2021-03-13T16:47:30Z</time>
      </trkpt>
      <trkpt lat="43.03399" lon="0.87152">
        <ele>505</ele>
        <time>2021-03-13T16:47:31Z</time>
      </trkpt>
      <trkpt lat="43.03398" lon="0.87153">
        <ele>505</ele>
        <time>2021-03-13T16:47:32Z</time>
      </trkpt>
      <trkpt lat="43.03397" lon="0.87155">
        <ele>505</ele>
        <time>2021-03-13T16:47:33Z</time>
      </trkpt>
      <trkpt lat="43.03396" lon="0.87156">
        <ele>505</ele>
        <time>2021-03-13T16:47:34Z</time>
      </trkpt>
      <trkpt lat="43.03394" lon="0.87158">
        <ele>507</ele>
        <time>2021-03-13T16:47:35Z</time>
      </trkpt>
      <trkpt lat="43.03393" lon="0.87159">
        <ele>507</ele>
        <time>2021-03-13T16:47:36Z</time>
      </trkpt>
      <trkpt lat="43.03392" lon="0.8716">
        <ele>507</ele>
        <time>2021-03-13T16:47:37Z</time>
      </trkpt>
      <trkpt lat="43.03392" lon="0.8716">
        <ele>507</ele>
        <time>2021-03-13T16:47:38Z</time>
      </trkpt>
      <trkpt lat="43.03391" lon="0.87161">
        <ele>507</ele>
        <time>2021-03-13T16:47:39Z</time>
      </trkpt>
      <trkpt lat="43.03391" lon="0.87162">
        <ele>509</ele>
        <time>2021-03-13T16:47:40Z</time>
      </trkpt>
      <trkpt lat="43.0339" lon="0.87162">
        <ele>509</ele>
        <time>2021-03-13T16:47:41Z</time>
      </trkpt>
      <trkpt lat="43.0339" lon="0.87163">
        <ele>509</ele>
        <time>2021-03-13T16:47:42Z</time>
      </trkpt>
      <trkpt lat="43.03389" lon="0.87163">
        <ele>509</ele>
        <time>2021-03-13T16:47:43Z</time>
      </trkpt>
      <trkpt lat="43.03389" lon="0.87164">
        <ele>509</ele>
        <time>2021-03-13T16:47:44Z</time>
      </trkpt>
      <trkpt lat="43.03382" lon="0.8717">
        <ele>509</ele>
        <time>2021-03-13T16:47:45Z</time>
      </trkpt>
      <trkpt lat="43.0338" lon="0.87172">
        <ele>509</ele>
        <time>2021-03-13T16:47:46Z</time>
      </trkpt>
      <trkpt lat="43.03378" lon="0.87173">
        <ele>509</ele>
        <time>2021-03-13T16:47:47Z</time>
      </trkpt>
      <trkpt lat="43.03375" lon="0.87175">
        <ele>509</ele>
        <time>2021-03-13T16:47:48Z</time>
      </trkpt>
      <trkpt lat="43.03375" lon="0.87175">
        <ele>509</ele>
        <time>2021-03-13T16:47:49Z</time>
      </trkpt>
      <trkpt lat="43.03374" lon="0.87176">
        <ele>510</ele>
        <time>2021-03-13T16:47:50Z</time>
      </trkpt>
      <trkpt lat="43.03373" lon="0.87177">
        <ele>510</ele>
        <time>2021-03-13T16:47:51Z</time>
      </trkpt>
      <trkpt lat="43.03372" lon="0.87177">
        <ele>510</ele>
        <time>2021-03-13T16:47:52Z</time>
      </trkpt>
      <trkpt lat="43.03371" lon="0.87178">
        <ele>510</ele>
        <time>2021-03-13T16:47:53Z</time>
      </trkpt>
      <trkpt lat="43.03366" lon="0.87182">
        <ele>510</ele>
        <time>2021-03-13T16:47:54Z</time>
      </trkpt>
      <trkpt lat="43.03365" lon="0.87183">
        <ele>510</ele>
        <time>2021-03-13T16:47:55Z</time>
      </trkpt>
      <trkpt lat="43.03364" lon="0.87183">
        <ele>510</ele>
        <time>2021-03-13T16:47:56Z</time>
      </trkpt>
      <trkpt lat="43.03364" lon="0.87184">
        <ele>510</ele>
        <time>2021-03-13T16:47:57Z</time>
      </trkpt>
      <trkpt lat="43.03363" lon="0.87185">
        <ele>510</ele>
        <time>2021-03-13T16:47:58Z</time>
      </trkpt>
      <trkpt lat="43.03362" lon="0.87185">
        <ele>510</ele>
        <time>2021-03-13T16:47:59Z</time>
      </trkpt>
      <trkpt lat="43.03357" lon="0.8719">
        <ele>511</ele>
        <time>2021-03-13T16:48:00Z</time>
      </trkpt>
      <trkpt lat="43.03355" lon="0.8719">
        <ele>511</ele>
        <time>2021-03-13T16:48:01Z</time>
      </trkpt>
      <trkpt lat="43.03354" lon="0.8719">
        <ele>511</ele>
        <time>2021-03-13T16:48:02Z</time>
      </trkpt>
      <trkpt lat="43.03353" lon="0.87191">
        <ele>511</ele>
        <time>2021-03-13T16:48:03Z</time>
      </trkpt>
      <trkpt lat="43.03352" lon="0.87191">
        <ele>511</ele>
        <time>2021-03-13T16:48:04Z</time>
      </trkpt>
      <trkpt lat="43.03343" lon="0.87194">
        <ele>511</ele>
        <time>2021-03-13T16:48:05Z</time>
      </trkpt>
      <trkpt lat="43.0334" lon="0.87196">
        <ele>511</ele>
        <time>2021-03-13T16:48:06Z</time>
      </trkpt>
      <trkpt lat="43.03337" lon="0.87197">
        <ele>511</ele>
        <time>2021-03-13T16:48:07Z</time>
      </trkpt>
      <trkpt lat="43.03335" lon="0.87198">
        <ele>511</ele>
        <time>2021-03-13T16:48:08Z</time>
      </trkpt>
      <trkpt lat="43.03333" lon="0.87199">
        <ele>511</ele>
        <time>2021-03-13T16:48:09Z</time>
      </trkpt>
      <trkpt lat="43.03332" lon="0.872">
        <ele>512</ele>
        <time>2021-03-13T16:48:10Z</time>
      </trkpt>
      <trkpt lat="43.0333" lon="0.87202">
        <ele>512</ele>
        <time>2021-03-13T16:48:11Z</time>
      </trkpt>
      <trkpt lat="43.03328" lon="0.87203">
        <ele>512</ele>
        <time>2021-03-13T16:48:12Z</time>
      </trkpt>
      <trkpt lat="43.03327" lon="0.87203">
        <ele>512</ele>
        <time>2021-03-13T16:48:13Z</time>
      </trkpt>
      <trkpt lat="43.03325" lon="0.87204">
        <ele>512</ele>
        <time>2021-03-13T16:48:14Z</time>
      </trkpt>
      <trkpt lat="43.03323" lon="0.87204">
        <ele>512</ele>
        <time>2021-03-13T16:48:15Z</time>
      </trkpt>
      <trkpt lat="43.03321" lon="0.87205">
        <ele>512</ele>
        <time>2021-03-13T16:48:16Z</time>
      </trkpt>
      <trkpt lat="43.03319" lon="0.87205">
        <ele>512</ele>
        <time>2021-03-13T16:48:17Z</time>
      </trkpt>
      <trkpt lat="43.03319" lon="0.87205">
        <ele>512</ele>
        <time>2021-03-13T16:48:18Z</time>
      </trkpt>
      <trkpt lat="43.03318" lon="0.87205">
        <ele>512</ele>
        <time>2021-03-13T16:48:19Z</time>
      </trkpt>
      <trkpt lat="43.03317" lon="0.87205">
        <ele>514</ele>
        <time>2021-03-13T16:48:20Z</time>
      </trkpt>
      <trkpt lat="43.03316" lon="0.87205">
        <ele>514</ele>
        <time>2021-03-13T16:48:21Z</time>
      </trkpt>
      <trkpt lat="43.03315" lon="0.87205">
        <ele>514</ele>
        <time>2021-03-13T16:48:22Z</time>
      </trkpt>
      <trkpt lat="43.03314" lon="0.87205">
        <ele>514</ele>
        <time>2021-03-13T16:48:23Z</time>
      </trkpt>
      <trkpt lat="43.03308" lon="0.87205">
        <ele>514</ele>
        <time>2021-03-13T16:48:24Z</time>
      </trkpt>
      <trkpt lat="43.03307" lon="0.87205">
        <ele>514</ele>
        <time>2021-03-13T16:48:25Z</time>
      </trkpt>
      <trkpt lat="43.03306" lon="0.87205">
        <ele>514</ele>
        <time>2021-03-13T16:48:26Z</time>
      </trkpt>
      <trkpt lat="43.03305" lon="0.87206">
        <ele>514</ele>
        <time>2021-03-13T16:48:27Z</time>
      </trkpt>
      <trkpt lat="43.03303" lon="0.87206">
        <ele>514</ele>
        <time>2021-03-13T16:48:28Z</time>
      </trkpt>
      <trkpt lat="43.03297" lon="0.87206">
        <ele>514</ele>
        <time>2021-03-13T16:48:29Z</time>
      </trkpt>
      <trkpt lat="43.03296" lon="0.87206">
        <ele>516</ele>
        <time>2021-03-13T16:48:30Z</time>
      </trkpt>
      <trkpt lat="43.03295" lon="0.87207">
        <ele>516</ele>
        <time>2021-03-13T16:48:31Z</time>
      </trkpt>
      <trkpt lat="43.03294" lon="0.87207">
        <ele>516</ele>
        <time>2021-03-13T16:48:32Z</time>
      </trkpt>
      <trkpt lat="43.03293" lon="0.87207">
        <ele>516</ele>
        <time>2021-03-13T16:48:33Z</time>
      </trkpt>
      <trkpt lat="43.03286" lon="0.87209">
        <ele>516</ele>
        <time>2021-03-13T16:48:34Z</time>
      </trkpt>
      <trkpt lat="43.03285" lon="0.87209">
        <ele>519</ele>
        <time>2021-03-13T16:48:35Z</time>
      </trkpt>
      <trkpt lat="43.03284" lon="0.87209">
        <ele>519</ele>
        <time>2021-03-13T16:48:36Z</time>
      </trkpt>
      <trkpt lat="43.03283" lon="0.87209">
        <ele>519</ele>
        <time>2021-03-13T16:48:37Z</time>
      </trkpt>
      <trkpt lat="43.03281" lon="0.87209">
        <ele>519</ele>
        <time>2021-03-13T16:48:38Z</time>
      </trkpt>
      <trkpt lat="43.0328" lon="0.87209">
        <ele>519</ele>
        <time>2021-03-13T16:48:39Z</time>
      </trkpt>
      <trkpt lat="43.03279" lon="0.87209">
        <ele>520</ele>
        <time>2021-03-13T16:48:40Z</time>
      </trkpt>
      <trkpt lat="43.03278" lon="0.87209">
        <ele>520</ele>
        <time>2021-03-13T16:48:41Z</time>
      </trkpt>
      <trkpt lat="43.03277" lon="0.87209">
        <ele>520</ele>
        <time>2021-03-13T16:48:42Z</time>
      </trkpt>
      <trkpt lat="43.03276" lon="0.8721">
        <ele>520</ele>
        <time>2021-03-13T16:48:43Z</time>
      </trkpt>
      <trkpt lat="43.03276" lon="0.8721">
        <ele>520</ele>
        <time>2021-03-13T16:48:44Z</time>
      </trkpt>
      <trkpt lat="43.03275" lon="0.8721">
        <ele>522</ele>
        <time>2021-03-13T16:48:45Z</time>
      </trkpt>
      <trkpt lat="43.03274" lon="0.87211">
        <ele>522</ele>
        <time>2021-03-13T16:48:46Z</time>
      </trkpt>
      <trkpt lat="43.03273" lon="0.87211">
        <ele>522</ele>
        <time>2021-03-13T16:48:47Z</time>
      </trkpt>
      <trkpt lat="43.03268" lon="0.87213">
        <ele>522</ele>
        <time>2021-03-13T16:48:48Z</time>
      </trkpt>
      <trkpt lat="43.03269" lon="0.87213">
        <ele>522</ele>
        <time>2021-03-13T16:48:49Z</time>
      </trkpt>
      <trkpt lat="43.03269" lon="0.87213">
        <ele>523</ele>
        <time>2021-03-13T16:48:50Z</time>
      </trkpt>
      <trkpt lat="43.03269" lon="0.87213">
        <ele>523</ele>
        <time>2021-03-13T16:48:51Z</time>
      </trkpt>
      <trkpt lat="43.0327" lon="0.87213">
        <ele>523</ele>
        <time>2021-03-13T16:48:52Z</time>
      </trkpt>
      <trkpt lat="43.0327" lon="0.87213">
        <ele>523</ele>
        <time>2021-03-13T16:48:53Z</time>
      </trkpt>
      <trkpt lat="43.0327" lon="0.87213">
        <ele>523</ele>
        <time>2021-03-13T16:48:54Z</time>
      </trkpt>
      <trkpt lat="43.03271" lon="0.87213">
        <ele>523</ele>
        <time>2021-03-13T16:48:55Z</time>
      </trkpt>
      <trkpt lat="43.03271" lon="0.87213">
        <ele>523</ele>
        <time>2021-03-13T16:48:56Z</time>
      </trkpt>
      <trkpt lat="43.03271" lon="0.87213">
        <ele>523</ele>
        <time>2021-03-13T16:48:57Z</time>
      </trkpt>
      <trkpt lat="43.03272" lon="0.87213">
        <ele>523</ele>
        <time>2021-03-13T16:48:58Z</time>
      </trkpt>
      <trkpt lat="43.03272" lon="0.87213">
        <ele>523</ele>
        <time>2021-03-13T16:48:59Z</time>
      </trkpt>
      <trkpt lat="43.03272" lon="0.87213">
        <ele>523</ele>
        <time>2021-03-13T16:49:00Z</time>
      </trkpt>
      <trkpt lat="43.03273" lon="0.87213">
        <ele>523</ele>
        <time>2021-03-13T16:49:01Z</time>
      </trkpt>
      <trkpt lat="43.03273" lon="0.87213">
        <ele>523</ele>
        <time>2021-03-13T16:49:02Z</time>
      </trkpt>
      <trkpt lat="43.03273" lon="0.87213">
        <ele>523</ele>
        <time>2021-03-13T16:49:03Z</time>
      </trkpt>
      <trkpt lat="43.03274" lon="0.87213">
        <ele>523</ele>
        <time>2021-03-13T16:49:04Z</time>
      </trkpt>
      <trkpt lat="43.03274" lon="0.87213">
        <ele>523</ele>
        <time>2021-03-13T16:49:05Z</time>
      </trkpt>
      <trkpt lat="43.03274" lon="0.87213">
        <ele>523</ele>
        <time>2021-03-13T16:49:06Z</time>
      </trkpt>
      <trkpt lat="43.03275" lon="0.87213">
        <ele>523</ele>
        <time>2021-03-13T16:49:07Z</time>
      </trkpt>
      <trkpt lat="43.03275" lon="0.87213">
        <ele>523</ele>
        <time>2021-03-13T16:49:08Z</time>
      </trkpt>
      <trkpt lat="43.03275" lon="0.87213">
        <ele>523</ele>
        <time>2021-03-13T16:49:09Z</time>
      </trkpt>
      <trkpt lat="43.03276" lon="0.87213">
        <ele>524</ele>
        <time>2021-03-13T16:49:10Z</time>
      </trkpt>
      <trkpt lat="43.03276" lon="0.87213">
        <ele>524</ele>
        <time>2021-03-13T16:49:11Z</time>
      </trkpt>
      <trkpt lat="43.03276" lon="0.87213">
        <ele>524</ele>
        <time>2021-03-13T16:49:12Z</time>
      </trkpt>
      <trkpt lat="43.03277" lon="0.87213">
        <ele>524</ele>
        <time>2021-03-13T16:49:13Z</time>
      </trkpt>
      <trkpt lat="43.03277" lon="0.87213">
        <ele>524</ele>
        <time>2021-03-13T16:49:14Z</time>
      </trkpt>
      <trkpt lat="43.03277" lon="0.87212">
        <ele>524</ele>
        <time>2021-03-13T16:49:15Z</time>
      </trkpt>
      <trkpt lat="43.03278" lon="0.87212">
        <ele>524</ele>
        <time>2021-03-13T16:49:16Z</time>
      </trkpt>
      <trkpt lat="43.03279" lon="0.87214">
        <ele>524</ele>
        <time>2021-03-13T16:49:17Z</time>
      </trkpt>
      <trkpt lat="43.03281" lon="0.87215">
        <ele>524</ele>
        <time>2021-03-13T16:49:18Z</time>
      </trkpt>
      <trkpt lat="43.03283" lon="0.87217">
        <ele>524</ele>
        <time>2021-03-13T16:49:19Z</time>
      </trkpt>
      <trkpt lat="43.03284" lon="0.87218">
        <ele>525</ele>
        <time>2021-03-13T16:49:20Z</time>
      </trkpt>
      <trkpt lat="43.03286" lon="0.87219">
        <ele>525</ele>
        <time>2021-03-13T16:49:21Z</time>
      </trkpt>
      <trkpt lat="43.03286" lon="0.8722">
        <ele>525</ele>
        <time>2021-03-13T16:49:22Z</time>
      </trkpt>
      <trkpt lat="43.03287" lon="0.87221">
        <ele>525</ele>
        <time>2021-03-13T16:49:23Z</time>
      </trkpt>
      <trkpt lat="43.03288" lon="0.87221">
        <ele>525</ele>
        <time>2021-03-13T16:49:24Z</time>
      </trkpt>
      <trkpt lat="43.03288" lon="0.87222">
        <ele>525</ele>
        <time>2021-03-13T16:49:25Z</time>
      </trkpt>
      <trkpt lat="43.03289" lon="0.87223">
        <ele>525</ele>
        <time>2021-03-13T16:49:26Z</time>
      </trkpt>
      <trkpt lat="43.0329" lon="0.87223">
        <ele>525</ele>
        <time>2021-03-13T16:49:27Z</time>
      </trkpt>
      <trkpt lat="43.0329" lon="0.87224">
        <ele>525</ele>
        <time>2021-03-13T16:49:28Z</time>
      </trkpt>
      <trkpt lat="43.03296" lon="0.87229">
        <ele>525</ele>
        <time>2021-03-13T16:49:29Z</time>
      </trkpt>
      <trkpt lat="43.03296" lon="0.8723">
        <ele>527</ele>
        <time>2021-03-13T16:49:30Z</time>
      </trkpt>
      <trkpt lat="43.03297" lon="0.8723">
        <ele>527</ele>
        <time>2021-03-13T16:49:31Z</time>
      </trkpt>
      <trkpt lat="43.03297" lon="0.87231">
        <ele>527</ele>
        <time>2021-03-13T16:49:32Z</time>
      </trkpt>
      <trkpt lat="43.03298" lon="0.87231">
        <ele>527</ele>
        <time>2021-03-13T16:49:33Z</time>
      </trkpt>
      <trkpt lat="43.03299" lon="0.87232">
        <ele>527</ele>
        <time>2021-03-13T16:49:34Z</time>
      </trkpt>
      <trkpt lat="43.03299" lon="0.87233">
        <ele>527</ele>
        <time>2021-03-13T16:49:35Z</time>
      </trkpt>
      <trkpt lat="43.03305" lon="0.87238">
        <ele>527</ele>
        <time>2021-03-13T16:49:36Z</time>
      </trkpt>
      <trkpt lat="43.03306" lon="0.87239">
        <ele>527</ele>
        <time>2021-03-13T16:49:37Z</time>
      </trkpt>
      <trkpt lat="43.03307" lon="0.8724">
        <ele>527</ele>
        <time>2021-03-13T16:49:38Z</time>
      </trkpt>
      <trkpt lat="43.03308" lon="0.87242">
        <ele>527</ele>
        <time>2021-03-13T16:49:39Z</time>
      </trkpt>
      <trkpt lat="43.03309" lon="0.87243">
        <ele>528</ele>
        <time>2021-03-13T16:49:40Z</time>
      </trkpt>
      <trkpt lat="43.0331" lon="0.87244">
        <ele>528</ele>
        <time>2021-03-13T16:49:41Z</time>
      </trkpt>
      <trkpt lat="43.03312" lon="0.87245">
        <ele>528</ele>
        <time>2021-03-13T16:49:42Z</time>
      </trkpt>
      <trkpt lat="43.03312" lon="0.87246">
        <ele>528</ele>
        <time>2021-03-13T16:49:43Z</time>
      </trkpt>
      <trkpt lat="43.03313" lon="0.87247">
        <ele>528</ele>
        <time>2021-03-13T16:49:44Z</time>
      </trkpt>
      <trkpt lat="43.03314" lon="0.87248">
        <ele>528</ele>
        <time>2021-03-13T16:49:45Z</time>
      </trkpt>
      <trkpt lat="43.03315" lon="0.87248">
        <ele>528</ele>
        <time>2021-03-13T16:49:46Z</time>
      </trkpt>
      <trkpt lat="43.03316" lon="0.87249">
        <ele>528</ele>
        <time>2021-03-13T16:49:47Z</time>
      </trkpt>
      <trkpt lat="43.03321" lon="0.87254">
        <ele>528</ele>
        <time>2021-03-13T16:49:48Z</time>
      </trkpt>
      <trkpt lat="43.03322" lon="0.87254">
        <ele>528</ele>
        <time>2021-03-13T16:49:49Z</time>
      </trkpt>
      <trkpt lat="43.03323" lon="0.87255">
        <ele>529</ele>
        <time>2021-03-13T16:49:50Z</time>
      </trkpt>
      <trkpt lat="43.03323" lon="0.87256">
        <ele>529</ele>
        <time>2021-03-13T16:49:51Z</time>
      </trkpt>
      <trkpt lat="43.03324" lon="0.87256">
        <ele>529</ele>
        <time>2021-03-13T16:49:52Z</time>
      </trkpt>
      <trkpt lat="43.03325" lon="0.87257">
        <ele>529</ele>
        <time>2021-03-13T16:49:53Z</time>
      </trkpt>
      <trkpt lat="43.03331" lon="0.87261">
        <ele>529</ele>
        <time>2021-03-13T16:49:54Z</time>
      </trkpt>
      <trkpt lat="43.03332" lon="0.87262">
        <ele>529</ele>
        <time>2021-03-13T16:49:55Z</time>
      </trkpt>
      <trkpt lat="43.03333" lon="0.87263">
        <ele>529</ele>
        <time>2021-03-13T16:49:56Z</time>
      </trkpt>
      <trkpt lat="43.03334" lon="0.87264">
        <ele>529</ele>
        <time>2021-03-13T16:49:57Z</time>
      </trkpt>
      <trkpt lat="43.03335" lon="0.87264">
        <ele>529</ele>
        <time>2021-03-13T16:49:58Z</time>
      </trkpt>
      <trkpt lat="43.03336" lon="0.87264">
        <ele>529</ele>
        <time>2021-03-13T16:49:59Z</time>
      </trkpt>
      <trkpt lat="43.03337" lon="0.87265">
        <ele>533</ele>
        <time>2021-03-13T16:50:00Z</time>
      </trkpt>
      <trkpt lat="43.03338" lon="0.87265">
        <ele>533</ele>
        <time>2021-03-13T16:50:01Z</time>
      </trkpt>
      <trkpt lat="43.03338" lon="0.87266">
        <ele>533</ele>
        <time>2021-03-13T16:50:02Z</time>
      </trkpt>
      <trkpt lat="43.03339" lon="0.87266">
        <ele>533</ele>
        <time>2021-03-13T16:50:03Z</time>
      </trkpt>
      <trkpt lat="43.03346" lon="0.87269">
        <ele>533</ele>
        <time>2021-03-13T16:50:04Z</time>
      </trkpt>
      <trkpt lat="43.03347" lon="0.87269">
        <ele>533</ele>
        <time>2021-03-13T16:50:05Z</time>
      </trkpt>
      <trkpt lat="43.03348" lon="0.8727">
        <ele>533</ele>
        <time>2021-03-13T16:50:06Z</time>
      </trkpt>
      <trkpt lat="43.03349" lon="0.87271">
        <ele>533</ele>
        <time>2021-03-13T16:50:07Z</time>
      </trkpt>
      <trkpt lat="43.03351" lon="0.87271">
        <ele>533</ele>
        <time>2021-03-13T16:50:08Z</time>
      </trkpt>
      <trkpt lat="43.03352" lon="0.87272">
        <ele>533</ele>
        <time>2021-03-13T16:50:09Z</time>
      </trkpt>
      <trkpt lat="43.03353" lon="0.87272">
        <ele>533</ele>
        <time>2021-03-13T16:50:10Z</time>
      </trkpt>
      <trkpt lat="43.03354" lon="0.87273">
        <ele>533</ele>
        <time>2021-03-13T16:50:11Z</time>
      </trkpt>
      <trkpt lat="43.03355" lon="0.87273">
        <ele>533</ele>
        <time>2021-03-13T16:50:12Z</time>
      </trkpt>
      <trkpt lat="43.03356" lon="0.87274">
        <ele>533</ele>
        <time>2021-03-13T16:50:13Z</time>
      </trkpt>
      <trkpt lat="43.03358" lon="0.87274">
        <ele>533</ele>
        <time>2021-03-13T16:50:14Z</time>
      </trkpt>
      <trkpt lat="43.03359" lon="0.87274">
        <ele>533</ele>
        <time>2021-03-13T16:50:15Z</time>
      </trkpt>
      <trkpt lat="43.0336" lon="0.87274">
        <ele>533</ele>
        <time>2021-03-13T16:50:16Z</time>
      </trkpt>
      <trkpt lat="43.03367" lon="0.87276">
        <ele>533</ele>
        <time>2021-03-13T16:50:17Z</time>
      </trkpt>
      <trkpt lat="43.03368" lon="0.87277">
        <ele>533</ele>
        <time>2021-03-13T16:50:18Z</time>
      </trkpt>
      <trkpt lat="43.03369" lon="0.87277">
        <ele>533</ele>
        <time>2021-03-13T16:50:19Z</time>
      </trkpt>
      <trkpt lat="43.03371" lon="0.87277">
        <ele>534</ele>
        <time>2021-03-13T16:50:20Z</time>
      </trkpt>
      <trkpt lat="43.03378" lon="0.87279">
        <ele>534</ele>
        <time>2021-03-13T16:50:21Z</time>
      </trkpt>
      <trkpt lat="43.03379" lon="0.87279">
        <ele>534</ele>
        <time>2021-03-13T16:50:22Z</time>
      </trkpt>
      <trkpt lat="43.03381" lon="0.8728">
        <ele>534</ele>
        <time>2021-03-13T16:50:23Z</time>
      </trkpt>
      <trkpt lat="43.03383" lon="0.8728">
        <ele>534</ele>
        <time>2021-03-13T16:50:24Z</time>
      </trkpt>
      <trkpt lat="43.03385" lon="0.8728">
        <ele>534</ele>
        <time>2021-03-13T16:50:25Z</time>
      </trkpt>
      <trkpt lat="43.03386" lon="0.87281">
        <ele>534</ele>
        <time>2021-03-13T16:50:26Z</time>
      </trkpt>
      <trkpt lat="43.03388" lon="0.87281">
        <ele>534</ele>
        <time>2021-03-13T16:50:27Z</time>
      </trkpt>
      <trkpt lat="43.03391" lon="0.87282">
        <ele>534</ele>
        <time>2021-03-13T16:50:28Z</time>
      </trkpt>
      <trkpt lat="43.03394" lon="0.87282">
        <ele>534</ele>
        <time>2021-03-13T16:50:29Z</time>
      </trkpt>
      <trkpt lat="43.03398" lon="0.87283">
        <ele>536</ele>
        <time>2021-03-13T16:50:30Z</time>
      </trkpt>
      <trkpt lat="43.03399" lon="0.87283">
        <ele>536</ele>
        <time>2021-03-13T16:50:31Z</time>
      </trkpt>
      <trkpt lat="43.034" lon="0.87283">
        <ele>536</ele>
        <time>2021-03-13T16:50:32Z</time>
      </trkpt>
      <trkpt lat="43.03401" lon="0.87283">
        <ele>536</ele>
        <time>2021-03-13T16:50:33Z</time>
      </trkpt>
      <trkpt lat="43.03402" lon="0.87283">
        <ele>536</ele>
        <time>2021-03-13T16:50:34Z</time>
      </trkpt>
      <trkpt lat="43.03403" lon="0.87283">
        <ele>536</ele>
        <time>2021-03-13T16:50:35Z</time>
      </trkpt>
      <trkpt lat="43.03404" lon="0.87283">
        <ele>536</ele>
        <time>2021-03-13T16:50:36Z</time>
      </trkpt>
      <trkpt lat="43.0341" lon="0.87283">
        <ele>536</ele>
        <time>2021-03-13T16:50:37Z</time>
      </trkpt>
      <trkpt lat="43.03411" lon="0.87283">
        <ele>536</ele>
        <time>2021-03-13T16:50:38Z</time>
      </trkpt>
      <trkpt lat="43.03412" lon="0.87283">
        <ele>536</ele>
        <time>2021-03-13T16:50:39Z</time>
      </trkpt>
      <trkpt lat="43.03413" lon="0.87284">
        <ele>539</ele>
        <time>2021-03-13T16:50:40Z</time>
      </trkpt>
      <trkpt lat="43.03414" lon="0.87284">
        <ele>539</ele>
        <time>2021-03-13T16:50:41Z</time>
      </trkpt>
      <trkpt lat="43.03415" lon="0.87284">
        <ele>539</ele>
        <time>2021-03-13T16:50:42Z</time>
      </trkpt>
      <trkpt lat="43.03422" lon="0.87286">
        <ele>539</ele>
        <time>2021-03-13T16:50:43Z</time>
      </trkpt>
      <trkpt lat="43.03423" lon="0.87286">
        <ele>539</ele>
        <time>2021-03-13T16:50:44Z</time>
      </trkpt>
      <trkpt lat="43.03424" lon="0.87287">
        <ele>542</ele>
        <time>2021-03-13T16:50:45Z</time>
      </trkpt>
      <trkpt lat="43.03426" lon="0.87287">
        <ele>542</ele>
        <time>2021-03-13T16:50:46Z</time>
      </trkpt>
      <trkpt lat="43.03427" lon="0.87288">
        <ele>542</ele>
        <time>2021-03-13T16:50:47Z</time>
      </trkpt>
      <trkpt lat="43.03428" lon="0.87288">
        <ele>542</ele>
        <time>2021-03-13T16:50:48Z</time>
      </trkpt>
      <trkpt lat="43.03429" lon="0.87288">
        <ele>542</ele>
        <time>2021-03-13T16:50:49Z</time>
      </trkpt>
      <trkpt lat="43.0343" lon="0.87289">
        <ele>543</ele>
        <time>2021-03-13T16:50:50Z</time>
      </trkpt>
      <trkpt lat="43.03431" lon="0.87289">
        <ele>543</ele>
        <time>2021-03-13T16:50:51Z</time>
      </trkpt>
      <trkpt lat="43.03432" lon="0.87289">
        <ele>543</ele>
        <time>2021-03-13T16:50:52Z</time>
      </trkpt>
      <trkpt lat="43.03433" lon="0.8729">
        <ele>543</ele>
        <time>2021-03-13T16:50:53Z</time>
      </trkpt>
      <trkpt lat="43.03434" lon="0.8729">
        <ele>543</ele>
        <time>2021-03-13T16:50:54Z</time>
      </trkpt>
      <trkpt lat="43.03435" lon="0.8729">
        <ele>545</ele>
        <time>2021-03-13T16:50:55Z</time>
      </trkpt>
      <trkpt lat="43.03436" lon="0.8729">
        <ele>545</ele>
        <time>2021-03-13T16:50:56Z</time>
      </trkpt>
      <trkpt lat="43.03442" lon="0.87293">
        <ele>545</ele>
        <time>2021-03-13T16:50:57Z</time>
      </trkpt>
      <trkpt lat="43.03444" lon="0.87294">
        <ele>545</ele>
        <time>2021-03-13T16:50:58Z</time>
      </trkpt>
      <trkpt lat="43.03445" lon="0.87295">
        <ele>545</ele>
        <time>2021-03-13T16:50:59Z</time>
      </trkpt>
      <trkpt lat="43.03447" lon="0.87296">
        <ele>546</ele>
        <time>2021-03-13T16:51:00Z</time>
      </trkpt>
      <trkpt lat="43.03449" lon="0.87297">
        <ele>546</ele>
        <time>2021-03-13T16:51:01Z</time>
      </trkpt>
      <trkpt lat="43.0345" lon="0.87298">
        <ele>546</ele>
        <time>2021-03-13T16:51:02Z</time>
      </trkpt>
      <trkpt lat="43.03452" lon="0.87299">
        <ele>546</ele>
        <time>2021-03-13T16:51:03Z</time>
      </trkpt>
      <trkpt lat="43.03454" lon="0.87299">
        <ele>546</ele>
        <time>2021-03-13T16:51:04Z</time>
      </trkpt>
      <trkpt lat="43.03455" lon="0.873">
        <ele>546</ele>
        <time>2021-03-13T16:51:05Z</time>
      </trkpt>
      <trkpt lat="43.03457" lon="0.87301">
        <ele>546</ele>
        <time>2021-03-13T16:51:06Z</time>
      </trkpt>
      <trkpt lat="43.03458" lon="0.87302">
        <ele>546</ele>
        <time>2021-03-13T16:51:07Z</time>
      </trkpt>
      <trkpt lat="43.03458" lon="0.87303">
        <ele>546</ele>
        <time>2021-03-13T16:51:08Z</time>
      </trkpt>
      <trkpt lat="43.03459" lon="0.87304">
        <ele>546</ele>
        <time>2021-03-13T16:51:09Z</time>
      </trkpt>
      <trkpt lat="43.0346" lon="0.87305">
        <ele>548</ele>
        <time>2021-03-13T16:51:10Z</time>
      </trkpt>
      <trkpt lat="43.03461" lon="0.87306">
        <ele>548</ele>
        <time>2021-03-13T16:51:11Z</time>
      </trkpt>
      <trkpt lat="43.03465" lon="0.87314">
        <ele>548</ele>
        <time>2021-03-13T16:51:12Z</time>
      </trkpt>
      <trkpt lat="43.03466" lon="0.87316">
        <ele>548</ele>
        <time>2021-03-13T16:51:13Z</time>
      </trkpt>
      <trkpt lat="43.03467" lon="0.87319">
        <ele>548</ele>
        <time>2021-03-13T16:51:14Z</time>
      </trkpt>
      <trkpt lat="43.03468" lon="0.87321">
        <ele>548</ele>
        <time>2021-03-13T16:51:15Z</time>
      </trkpt>
      <trkpt lat="43.03469" lon="0.87323">
        <ele>548</ele>
        <time>2021-03-13T16:51:16Z</time>
      </trkpt>
      <trkpt lat="43.0347" lon="0.87326">
        <ele>548</ele>
        <time>2021-03-13T16:51:17Z</time>
      </trkpt>
      <trkpt lat="43.03471" lon="0.87328">
        <ele>548</ele>
        <time>2021-03-13T16:51:18Z</time>
      </trkpt>
      <trkpt lat="43.03473" lon="0.8733">
        <ele>548</ele>
        <time>2021-03-13T16:51:19Z</time>
      </trkpt>
      <trkpt lat="43.03474" lon="0.87332">
        <ele>552</ele>
        <time>2021-03-13T16:51:20Z</time>
      </trkpt>
      <trkpt lat="43.03475" lon="0.87334">
        <ele>552</ele>
        <time>2021-03-13T16:51:21Z</time>
      </trkpt>
      <trkpt lat="43.03475" lon="0.87337">
        <ele>552</ele>
        <time>2021-03-13T16:51:22Z</time>
      </trkpt>
      <trkpt lat="43.03476" lon="0.8734">
        <ele>552</ele>
        <time>2021-03-13T16:51:23Z</time>
      </trkpt>
      <trkpt lat="43.03477" lon="0.87342">
        <ele>552</ele>
        <time>2021-03-13T16:51:24Z</time>
      </trkpt>
      <trkpt lat="43.03478" lon="0.87345">
        <ele>553</ele>
        <time>2021-03-13T16:51:25Z</time>
      </trkpt>
      <trkpt lat="43.03478" lon="0.87347">
        <ele>553</ele>
        <time>2021-03-13T16:51:26Z</time>
      </trkpt>
      <trkpt lat="43.03478" lon="0.87349">
        <ele>553</ele>
        <time>2021-03-13T16:51:27Z</time>
      </trkpt>
      <trkpt lat="43.03478" lon="0.87351">
        <ele>553</ele>
        <time>2021-03-13T16:51:28Z</time>
      </trkpt>
      <trkpt lat="43.03478" lon="0.87354">
        <ele>553</ele>
        <time>2021-03-13T16:51:29Z</time>
      </trkpt>
      <trkpt lat="43.03478" lon="0.87356">
        <ele>553</ele>
        <time>2021-03-13T16:51:30Z</time>
      </trkpt>
      <trkpt lat="43.03478" lon="0.87358">
        <ele>553</ele>
        <time>2021-03-13T16:51:31Z</time>
      </trkpt>
      <trkpt lat="43.03478" lon="0.87361">
        <ele>553</ele>
        <time>2021-03-13T16:51:32Z</time>
      </trkpt>
      <trkpt lat="43.03478" lon="0.87363">
        <ele>553</ele>
        <time>2021-03-13T16:51:33Z</time>
      </trkpt>
      <trkpt lat="43.03478" lon="0.87365">
        <ele>553</ele>
        <time>2021-03-13T16:51:34Z</time>
      </trkpt>
      <trkpt lat="43.03478" lon="0.87368">
        <ele>553</ele>
        <time>2021-03-13T16:51:35Z</time>
      </trkpt>
      <trkpt lat="43.03478" lon="0.8737">
        <ele>553</ele>
        <time>2021-03-13T16:51:36Z</time>
      </trkpt>
      <trkpt lat="43.03478" lon="0.87373">
        <ele>553</ele>
        <time>2021-03-13T16:51:37Z</time>
      </trkpt>
      <trkpt lat="43.03478" lon="0.87376">
        <ele>553</ele>
        <time>2021-03-13T16:51:38Z</time>
      </trkpt>
      <trkpt lat="43.03478" lon="0.87378">
        <ele>553</ele>
        <time>2021-03-13T16:51:39Z</time>
      </trkpt>
      <trkpt lat="43.03478" lon="0.87381">
        <ele>554</ele>
        <time>2021-03-13T16:51:40Z</time>
      </trkpt>
      <trkpt lat="43.03477" lon="0.87384">
        <ele>554</ele>
        <time>2021-03-13T16:51:41Z</time>
      </trkpt>
      <trkpt lat="43.03477" lon="0.87386">
        <ele>554</ele>
        <time>2021-03-13T16:51:42Z</time>
      </trkpt>
      <trkpt lat="43.03476" lon="0.87388">
        <ele>554</ele>
        <time>2021-03-13T16:51:43Z</time>
      </trkpt>
      <trkpt lat="43.03476" lon="0.8739">
        <ele>554</ele>
        <time>2021-03-13T16:51:44Z</time>
      </trkpt>
      <trkpt lat="43.03475" lon="0.87392">
        <ele>554</ele>
        <time>2021-03-13T16:51:45Z</time>
      </trkpt>
      <trkpt lat="43.03475" lon="0.87394">
        <ele>554</ele>
        <time>2021-03-13T16:51:46Z</time>
      </trkpt>
      <trkpt lat="43.03474" lon="0.87396">
        <ele>554</ele>
        <time>2021-03-13T16:51:47Z</time>
      </trkpt>
      <trkpt lat="43.03474" lon="0.87398">
        <ele>554</ele>
        <time>2021-03-13T16:51:48Z</time>
      </trkpt>
      <trkpt lat="43.03473" lon="0.874">
        <ele>554</ele>
        <time>2021-03-13T16:51:49Z</time>
      </trkpt>
      <trkpt lat="43.03472" lon="0.87401">
        <ele>554</ele>
        <time>2021-03-13T16:51:50Z</time>
      </trkpt>
      <trkpt lat="43.03471" lon="0.87403">
        <ele>554</ele>
        <time>2021-03-13T16:51:51Z</time>
      </trkpt>
      <trkpt lat="43.0347" lon="0.87405">
        <ele>554</ele>
        <time>2021-03-13T16:51:52Z</time>
      </trkpt>
      <trkpt lat="43.03469" lon="0.87407">
        <ele>554</ele>
        <time>2021-03-13T16:51:53Z</time>
      </trkpt>
      <trkpt lat="43.03468" lon="0.87408">
        <ele>554</ele>
        <time>2021-03-13T16:51:54Z</time>
      </trkpt>
      <trkpt lat="43.03466" lon="0.87409">
        <ele>554</ele>
        <time>2021-03-13T16:51:55Z</time>
      </trkpt>
      <trkpt lat="43.03465" lon="0.87411">
        <ele>554</ele>
        <time>2021-03-13T16:51:56Z</time>
      </trkpt>
      <trkpt lat="43.03464" lon="0.87412">
        <ele>554</ele>
        <time>2021-03-13T16:51:57Z</time>
      </trkpt>
      <trkpt lat="43.03463" lon="0.87413">
        <ele>554</ele>
        <time>2021-03-13T16:51:58Z</time>
      </trkpt>
      <trkpt lat="43.03462" lon="0.87414">
        <ele>554</ele>
        <time>2021-03-13T16:51:59Z</time>
      </trkpt>
      <trkpt lat="43.03461" lon="0.87416">
        <ele>555</ele>
        <time>2021-03-13T16:52:00Z</time>
      </trkpt>
      <trkpt lat="43.0346" lon="0.87417">
        <ele>555</ele>
        <time>2021-03-13T16:52:01Z</time>
      </trkpt>
      <trkpt lat="43.03458" lon="0.87418">
        <ele>555</ele>
        <time>2021-03-13T16:52:02Z</time>
      </trkpt>
      <trkpt lat="43.03457" lon="0.87419">
        <ele>555</ele>
        <time>2021-03-13T16:52:03Z</time>
      </trkpt>
      <trkpt lat="43.03455" lon="0.8742">
        <ele>555</ele>
        <time>2021-03-13T16:52:04Z</time>
      </trkpt>
      <trkpt lat="43.03454" lon="0.87421">
        <ele>555</ele>
        <time>2021-03-13T16:52:05Z</time>
      </trkpt>
      <trkpt lat="43.03453" lon="0.87422">
        <ele>555</ele>
        <time>2021-03-13T16:52:06Z</time>
      </trkpt>
      <trkpt lat="43.03452" lon="0.87422">
        <ele>555</ele>
        <time>2021-03-13T16:52:07Z</time>
      </trkpt>
      <trkpt lat="43.03451" lon="0.87423">
        <ele>555</ele>
        <time>2021-03-13T16:52:08Z</time>
      </trkpt>
      <trkpt lat="43.0345" lon="0.87423">
        <ele>555</ele>
        <time>2021-03-13T16:52:09Z</time>
      </trkpt>
      <trkpt lat="43.03449" lon="0.87424">
        <ele>558</ele>
        <time>2021-03-13T16:52:10Z</time>
      </trkpt>
      <trkpt lat="43.03449" lon="0.87424">
        <ele>558</ele>
        <time>2021-03-13T16:52:11Z</time>
      </trkpt>
      <trkpt lat="43.03442" lon="0.87428">
        <ele>558</ele>
        <time>2021-03-13T16:52:12Z</time>
      </trkpt>
      <trkpt lat="43.03441" lon="0.8743">
        <ele>558</ele>
        <time>2021-03-13T16:52:13Z</time>
      </trkpt>
      <trkpt lat="43.0344" lon="0.87431">
        <ele>558</ele>
        <time>2021-03-13T16:52:14Z</time>
      </trkpt>
      <trkpt lat="43.03439" lon="0.87433">
        <ele>560</ele>
        <time>2021-03-13T16:52:15Z</time>
      </trkpt>
      <trkpt lat="43.03437" lon="0.87434">
        <ele>560</ele>
        <time>2021-03-13T16:52:16Z</time>
      </trkpt>
      <trkpt lat="43.03436" lon="0.87435">
        <ele>560</ele>
        <time>2021-03-13T16:52:17Z</time>
      </trkpt>
      <trkpt lat="43.03435" lon="0.87436">
        <ele>560</ele>
        <time>2021-03-13T16:52:18Z</time>
      </trkpt>
      <trkpt lat="43.03433" lon="0.87437">
        <ele>560</ele>
        <time>2021-03-13T16:52:19Z</time>
      </trkpt>
      <trkpt lat="43.03432" lon="0.87438">
        <ele>561</ele>
        <time>2021-03-13T16:52:20Z</time>
      </trkpt>
      <trkpt lat="43.03431" lon="0.87439">
        <ele>561</ele>
        <time>2021-03-13T16:52:21Z</time>
      </trkpt>
      <trkpt lat="43.0343" lon="0.87441">
        <ele>561</ele>
        <time>2021-03-13T16:52:22Z</time>
      </trkpt>
      <trkpt lat="43.0343" lon="0.87442">
        <ele>561</ele>
        <time>2021-03-13T16:52:23Z</time>
      </trkpt>
      <trkpt lat="43.03429" lon="0.87443">
        <ele>561</ele>
        <time>2021-03-13T16:52:24Z</time>
      </trkpt>
      <trkpt lat="43.03428" lon="0.87444">
        <ele>562</ele>
        <time>2021-03-13T16:52:25Z</time>
      </trkpt>
      <trkpt lat="43.03427" lon="0.87445">
        <ele>562</ele>
        <time>2021-03-13T16:52:26Z</time>
      </trkpt>
      <trkpt lat="43.03427" lon="0.87445">
        <ele>562</ele>
        <time>2021-03-13T16:52:27Z</time>
      </trkpt>
      <trkpt lat="43.03426" lon="0.87446">
        <ele>562</ele>
        <time>2021-03-13T16:52:28Z</time>
      </trkpt>
      <trkpt lat="43.03425" lon="0.87447">
        <ele>562</ele>
        <time>2021-03-13T16:52:29Z</time>
      </trkpt>
      <trkpt lat="43.03425" lon="0.87447">
        <ele>562</ele>
        <time>2021-03-13T16:52:30Z</time>
      </trkpt>
      <trkpt lat="43.03424" lon="0.87448">
        <ele>562</ele>
        <time>2021-03-13T16:52:31Z</time>
      </trkpt>
      <trkpt lat="43.03419" lon="0.87453">
        <ele>562</ele>
        <time>2021-03-13T16:52:32Z</time>
      </trkpt>
      <trkpt lat="43.03418" lon="0.87454">
        <ele>562</ele>
        <time>2021-03-13T16:52:33Z</time>
      </trkpt>
      <trkpt lat="43.03418" lon="0.87455">
        <ele>562</ele>
        <time>2021-03-13T16:52:34Z</time>
      </trkpt>
      <trkpt lat="43.03417" lon="0.87456">
        <ele>562</ele>
        <time>2021-03-13T16:52:35Z</time>
      </trkpt>
      <trkpt lat="43.03417" lon="0.87457">
        <ele>562</ele>
        <time>2021-03-13T16:52:36Z</time>
      </trkpt>
      <trkpt lat="43.03416" lon="0.87458">
        <ele>562</ele>
        <time>2021-03-13T16:52:37Z</time>
      </trkpt>
      <trkpt lat="43.03416" lon="0.87458">
        <ele>562</ele>
        <time>2021-03-13T16:52:38Z</time>
      </trkpt>
      <trkpt lat="43.0341" lon="0.87464">
        <ele>562</ele>
        <time>2021-03-13T16:52:39Z</time>
      </trkpt>
      <trkpt lat="43.03409" lon="0.87465">
        <ele>564</ele>
        <time>2021-03-13T16:52:40Z</time>
      </trkpt>
      <trkpt lat="43.03407" lon="0.87465">
        <ele>564</ele>
        <time>2021-03-13T16:52:41Z</time>
      </trkpt>
      <trkpt lat="43.03405" lon="0.87465">
        <ele>564</ele>
        <time>2021-03-13T16:52:42Z</time>
      </trkpt>
      <trkpt lat="43.03404" lon="0.87465">
        <ele>564</ele>
        <time>2021-03-13T16:52:43Z</time>
      </trkpt>
      <trkpt lat="43.03402" lon="0.87465">
        <ele>564</ele>
        <time>2021-03-13T16:52:44Z</time>
      </trkpt>
      <trkpt lat="43.03402" lon="0.87464">
        <ele>564</ele>
        <time>2021-03-13T16:52:45Z</time>
      </trkpt>
      <trkpt lat="43.03401" lon="0.87464">
        <ele>564</ele>
        <time>2021-03-13T16:52:46Z</time>
      </trkpt>
      <trkpt lat="43.03401" lon="0.87463">
        <ele>564</ele>
        <time>2021-03-13T16:52:47Z</time>
      </trkpt>
      <trkpt lat="43.034" lon="0.87462">
        <ele>564</ele>
        <time>2021-03-13T16:52:48Z</time>
      </trkpt>
      <trkpt lat="43.034" lon="0.87461">
        <ele>564</ele>
        <time>2021-03-13T16:52:49Z</time>
      </trkpt>
      <trkpt lat="43.03399" lon="0.87461">
        <ele>567</ele>
        <time>2021-03-13T16:52:50Z</time>
      </trkpt>
      <trkpt lat="43.03399" lon="0.8746">
        <ele>567</ele>
        <time>2021-03-13T16:52:51Z</time>
      </trkpt>
      <trkpt lat="43.03398" lon="0.87459">
        <ele>567</ele>
        <time>2021-03-13T16:52:52Z</time>
      </trkpt>
      <trkpt lat="43.03394" lon="0.87452">
        <ele>567</ele>
        <time>2021-03-13T16:52:53Z</time>
      </trkpt>
      <trkpt lat="43.03393" lon="0.87451">
        <ele>567</ele>
        <time>2021-03-13T16:52:54Z</time>
      </trkpt>
      <trkpt lat="43.03392" lon="0.8745">
        <ele>569</ele>
        <time>2021-03-13T16:52:55Z</time>
      </trkpt>
      <trkpt lat="43.03391" lon="0.87448">
        <ele>569</ele>
        <time>2021-03-13T16:52:56Z</time>
      </trkpt>
      <trkpt lat="43.03391" lon="0.87447">
        <ele>569</ele>
        <time>2021-03-13T16:52:57Z</time>
      </trkpt>
      <trkpt lat="43.0339" lon="0.87446">
        <ele>569</ele>
        <time>2021-03-13T16:52:58Z</time>
      </trkpt>
      <trkpt lat="43.03389" lon="0.87445">
        <ele>569</ele>
        <time>2021-03-13T16:52:59Z</time>
      </trkpt>
      <trkpt lat="43.03389" lon="0.87445">
        <ele>570</ele>
        <time>2021-03-13T16:53:00Z</time>
      </trkpt>
      <trkpt lat="43.03388" lon="0.87445">
        <ele>570</ele>
        <time>2021-03-13T16:53:01Z</time>
      </trkpt>
      <trkpt lat="43.03388" lon="0.87445">
        <ele>570</ele>
        <time>2021-03-13T16:53:02Z</time>
      </trkpt>
      <trkpt lat="43.03387" lon="0.87445">
        <ele>570</ele>
        <time>2021-03-13T16:53:03Z</time>
      </trkpt>
      <trkpt lat="43.03387" lon="0.87445">
        <ele>570</ele>
        <time>2021-03-13T16:53:04Z</time>
      </trkpt>
      <trkpt lat="43.03387" lon="0.87445">
        <ele>570</ele>
        <time>2021-03-13T16:53:05Z</time>
      </trkpt>
      <trkpt lat="43.03386" lon="0.87445">
        <ele>570</ele>
        <time>2021-03-13T16:53:06Z</time>
      </trkpt>
      <trkpt lat="43.03386" lon="0.87445">
        <ele>570</ele>
        <time>2021-03-13T16:53:07Z</time>
      </trkpt>
      <trkpt lat="43.03385" lon="0.87445">
        <ele>570</ele>
        <time>2021-03-13T16:53:08Z</time>
      </trkpt>
      <trkpt lat="43.03385" lon="0.87445">
        <ele>570</ele>
        <time>2021-03-13T16:53:09Z</time>
      </trkpt>
      <trkpt lat="43.03385" lon="0.87445">
        <ele>570</ele>
        <time>2021-03-13T16:53:10Z</time>
      </trkpt>
      <trkpt lat="43.03384" lon="0.87445">
        <ele>570</ele>
        <time>2021-03-13T16:53:11Z</time>
      </trkpt>
      <trkpt lat="43.03384" lon="0.87445">
        <ele>570</ele>
        <time>2021-03-13T16:53:12Z</time>
      </trkpt>
      <trkpt lat="43.03383" lon="0.87445">
        <ele>570</ele>
        <time>2021-03-13T16:53:13Z</time>
      </trkpt>
      <trkpt lat="43.03383" lon="0.87445">
        <ele>570</ele>
        <time>2021-03-13T16:53:14Z</time>
      </trkpt>
      <trkpt lat="43.03382" lon="0.87445">
        <ele>570</ele>
        <time>2021-03-13T16:53:15Z</time>
      </trkpt>
      <trkpt lat="43.03382" lon="0.87445">
        <ele>570</ele>
        <time>2021-03-13T16:53:16Z</time>
      </trkpt>
      <trkpt lat="43.03382" lon="0.87445">
        <ele>570</ele>
        <time>2021-03-13T16:53:17Z</time>
      </trkpt>
      <trkpt lat="43.03381" lon="0.87445">
        <ele>570</ele>
        <time>2021-03-13T16:53:18Z</time>
      </trkpt>
      <trkpt lat="43.03381" lon="0.87445">
        <ele>570</ele>
        <time>2021-03-13T16:53:19Z</time>
      </trkpt>
      <trkpt lat="43.03381" lon="0.87445">
        <ele>570</ele>
        <time>2021-03-13T16:53:20Z</time>
      </trkpt>
      <trkpt lat="43.03381" lon="0.87445">
        <ele>570</ele>
        <time>2021-03-13T16:53:21Z</time>
      </trkpt>
      <trkpt lat="43.0338" lon="0.87445">
        <ele>570</ele>
        <time>2021-03-13T16:53:22Z</time>
      </trkpt>
      <trkpt lat="43.0338" lon="0.87445">
        <ele>570</ele>
        <time>2021-03-13T16:53:23Z</time>
      </trkpt>
      <trkpt lat="43.0338" lon="0.87445">
        <ele>570</ele>
        <time>2021-03-13T16:53:24Z</time>
      </trkpt>
      <trkpt lat="43.0338" lon="0.87445">
        <ele>570</ele>
        <time>2021-03-13T16:53:25Z</time>
      </trkpt>
      <trkpt lat="43.0338" lon="0.87445">
        <ele>570</ele>
        <time>2021-03-13T16:53:26Z</time>
      </trkpt>
      <trkpt lat="43.03379" lon="0.87444">
        <ele>570</ele>
        <time>2021-03-13T16:53:27Z</time>
      </trkpt>
      <trkpt lat="43.03379" lon="0.87444">
        <ele>570</ele>
        <time>2021-03-13T16:53:28Z</time>
      </trkpt>
      <trkpt lat="43.03379" lon="0.87444">
        <ele>570</ele>
        <time>2021-03-13T16:53:29Z</time>
      </trkpt>
      <trkpt lat="43.03379" lon="0.87444">
        <ele>569</ele>
        <time>2021-03-13T16:53:30Z</time>
      </trkpt>
      <trkpt lat="43.03379" lon="0.87444">
        <ele>569</ele>
        <time>2021-03-13T16:53:31Z</time>
      </trkpt>
      <trkpt lat="43.03378" lon="0.87444">
        <ele>569</ele>
        <time>2021-03-13T16:53:32Z</time>
      </trkpt>
      <trkpt lat="43.03378" lon="0.87444">
        <ele>569</ele>
        <time>2021-03-13T16:53:33Z</time>
      </trkpt>
      <trkpt lat="43.03378" lon="0.87444">
        <ele>569</ele>
        <time>2021-03-13T16:53:34Z</time>
      </trkpt>
      <trkpt lat="43.03378" lon="0.87444">
        <ele>569</ele>
        <time>2021-03-13T16:53:35Z</time>
      </trkpt>
      <trkpt lat="43.03378" lon="0.87444">
        <ele>569</ele>
        <time>2021-03-13T16:53:36Z</time>
      </trkpt>
      <trkpt lat="43.03377" lon="0.87444">
        <ele>569</ele>
        <time>2021-03-13T16:53:37Z</time>
      </trkpt>
      <trkpt lat="43.03377" lon="0.87444">
        <ele>569</ele>
        <time>2021-03-13T16:53:38Z</time>
      </trkpt>
      <trkpt lat="43.03377" lon="0.87444">
        <ele>569</ele>
        <time>2021-03-13T16:53:39Z</time>
      </trkpt>
      <trkpt lat="43.03377" lon="0.87444">
        <ele>568</ele>
        <time>2021-03-13T16:53:40Z</time>
      </trkpt>
      <trkpt lat="43.03376" lon="0.87444">
        <ele>568</ele>
        <time>2021-03-13T16:53:41Z</time>
      </trkpt>
      <trkpt lat="43.03376" lon="0.87444">
        <ele>568</ele>
        <time>2021-03-13T16:53:42Z</time>
      </trkpt>
      <trkpt lat="43.03376" lon="0.87444">
        <ele>568</ele>
        <time>2021-03-13T16:53:43Z</time>
      </trkpt>
      <trkpt lat="43.03376" lon="0.87444">
        <ele>568</ele>
        <time>2021-03-13T16:53:44Z</time>
      </trkpt>
      <trkpt lat="43.03376" lon="0.87444">
        <ele>568</ele>
        <time>2021-03-13T16:53:45Z</time>
      </trkpt>
      <trkpt lat="43.03375" lon="0.87444">
        <ele>568</ele>
        <time>2021-03-13T16:53:46Z</time>
      </trkpt>
      <trkpt lat="43.03375" lon="0.87444">
        <ele>568</ele>
        <time>2021-03-13T16:53:47Z</time>
      </trkpt>
      <trkpt lat="43.03375" lon="0.87443">
        <ele>568</ele>
        <time>2021-03-13T16:53:48Z</time>
      </trkpt>
      <trkpt lat="43.03375" lon="0.87441">
        <ele>568</ele>
        <time>2021-03-13T16:53:49Z</time>
      </trkpt>
      <trkpt lat="43.03375" lon="0.8744">
        <ele>569</ele>
        <time>2021-03-13T16:53:50Z</time>
      </trkpt>
      <trkpt lat="43.03374" lon="0.87439">
        <ele>569</ele>
        <time>2021-03-13T16:53:51Z</time>
      </trkpt>
      <trkpt lat="43.03374" lon="0.87438">
        <ele>569</ele>
        <time>2021-03-13T16:53:52Z</time>
      </trkpt>
      <trkpt lat="43.03374" lon="0.87437">
        <ele>569</ele>
        <time>2021-03-13T16:53:53Z</time>
      </trkpt>
      <trkpt lat="43.03374" lon="0.87435">
        <ele>569</ele>
        <time>2021-03-13T16:53:54Z</time>
      </trkpt>
      <trkpt lat="43.03373" lon="0.87434">
        <ele>569</ele>
        <time>2021-03-13T16:53:55Z</time>
      </trkpt>
      <trkpt lat="43.03373" lon="0.87433">
        <ele>569</ele>
        <time>2021-03-13T16:53:56Z</time>
      </trkpt>
      <trkpt lat="43.03373" lon="0.87432">
        <ele>569</ele>
        <time>2021-03-13T16:53:57Z</time>
      </trkpt>
      <trkpt lat="43.03371" lon="0.87429">
        <ele>569</ele>
        <time>2021-03-13T16:53:58Z</time>
      </trkpt>
      <trkpt lat="43.03369" lon="0.87427">
        <ele>569</ele>
        <time>2021-03-13T16:53:59Z</time>
      </trkpt>
      <trkpt lat="43.03366" lon="0.87425">
        <ele>570</ele>
        <time>2021-03-13T16:54:00Z</time>
      </trkpt>
      <trkpt lat="43.03364" lon="0.87424">
        <ele>570</ele>
        <time>2021-03-13T16:54:01Z</time>
      </trkpt>
      <trkpt lat="43.03362" lon="0.87423">
        <ele>570</ele>
        <time>2021-03-13T16:54:02Z</time>
      </trkpt>
      <trkpt lat="43.0336" lon="0.87422">
        <ele>570</ele>
        <time>2021-03-13T16:54:03Z</time>
      </trkpt>
      <trkpt lat="43.03358" lon="0.87421">
        <ele>570</ele>
        <time>2021-03-13T16:54:04Z</time>
      </trkpt>
      <trkpt lat="43.03357" lon="0.8742">
        <ele>570</ele>
        <time>2021-03-13T16:54:05Z</time>
      </trkpt>
      <trkpt lat="43.03355" lon="0.8742">
        <ele>570</ele>
        <time>2021-03-13T16:54:06Z</time>
      </trkpt>
      <trkpt lat="43.03354" lon="0.8742">
        <ele>570</ele>
        <time>2021-03-13T16:54:07Z</time>
      </trkpt>
      <trkpt lat="43.03352" lon="0.8742">
        <ele>570</ele>
        <time>2021-03-13T16:54:08Z</time>
      </trkpt>
      <trkpt lat="43.03351" lon="0.87419">
        <ele>570</ele>
        <time>2021-03-13T16:54:09Z</time>
      </trkpt>
      <trkpt lat="43.03349" lon="0.87419">
        <ele>572</ele>
        <time>2021-03-13T16:54:10Z</time>
      </trkpt>
      <trkpt lat="43.03348" lon="0.87419">
        <ele>572</ele>
        <time>2021-03-13T16:54:11Z</time>
      </trkpt>
      <trkpt lat="43.03346" lon="0.8742">
        <ele>572</ele>
        <time>2021-03-13T16:54:12Z</time>
      </trkpt>
      <trkpt lat="43.03345" lon="0.8742">
        <ele>572</ele>
        <time>2021-03-13T16:54:13Z</time>
      </trkpt>
      <trkpt lat="43.03344" lon="0.8742">
        <ele>572</ele>
        <time>2021-03-13T16:54:14Z</time>
      </trkpt>
      <trkpt lat="43.03343" lon="0.8742">
        <ele>572</ele>
        <time>2021-03-13T16:54:15Z</time>
      </trkpt>
      <trkpt lat="43.03341" lon="0.87421">
        <ele>572</ele>
        <time>2021-03-13T16:54:16Z</time>
      </trkpt>
      <trkpt lat="43.0334" lon="0.87421">
        <ele>572</ele>
        <time>2021-03-13T16:54:17Z</time>
      </trkpt>
      <trkpt lat="43.03339" lon="0.87421">
        <ele>572</ele>
        <time>2021-03-13T16:54:18Z</time>
      </trkpt>
      <trkpt lat="43.03338" lon="0.87421">
        <ele>572</ele>
        <time>2021-03-13T16:54:19Z</time>
      </trkpt>
      <trkpt lat="43.03336" lon="0.87422">
        <ele>575</ele>
        <time>2021-03-13T16:54:20Z</time>
      </trkpt>
      <trkpt lat="43.03335" lon="0.87422">
        <ele>575</ele>
        <time>2021-03-13T16:54:21Z</time>
      </trkpt>
      <trkpt lat="43.03333" lon="0.87422">
        <ele>575</ele>
        <time>2021-03-13T16:54:22Z</time>
      </trkpt>
      <trkpt lat="43.03327" lon="0.87423">
        <ele>575</ele>
        <time>2021-03-13T16:54:23Z</time>
      </trkpt>
      <trkpt lat="43.03326" lon="0.87424">
        <ele>575</ele>
        <time>2021-03-13T16:54:24Z</time>
      </trkpt>
      <trkpt lat="43.03325" lon="0.87424">
        <ele>578</ele>
        <time>2021-03-13T16:54:25Z</time>
      </trkpt>
      <trkpt lat="43.03323" lon="0.87424">
        <ele>578</ele>
        <time>2021-03-13T16:54:26Z</time>
      </trkpt>
      <trkpt lat="43.03322" lon="0.87424">
        <ele>578</ele>
        <time>2021-03-13T16:54:27Z</time>
      </trkpt>
      <trkpt lat="43.03316" lon="0.87425">
        <ele>578</ele>
        <time>2021-03-13T16:54:28Z</time>
      </trkpt>
      <trkpt lat="43.03315" lon="0.87425">
        <ele>578</ele>
        <time>2021-03-13T16:54:29Z</time>
      </trkpt>
      <trkpt lat="43.03313" lon="0.87425">
        <ele>579</ele>
        <time>2021-03-13T16:54:30Z</time>
      </trkpt>
      <trkpt lat="43.03312" lon="0.87425">
        <ele>579</ele>
        <time>2021-03-13T16:54:31Z</time>
      </trkpt>
      <trkpt lat="43.03311" lon="0.87425">
        <ele>579</ele>
        <time>2021-03-13T16:54:32Z</time>
      </trkpt>
      <trkpt lat="43.03305" lon="0.87424">
        <ele>579</ele>
        <time>2021-03-13T16:54:33Z</time>
      </trkpt>
      <trkpt lat="43.03303" lon="0.87424">
        <ele>579</ele>
        <time>2021-03-13T16:54:34Z</time>
      </trkpt>
      <trkpt lat="43.03302" lon="0.87423">
        <ele>580</ele>
        <time>2021-03-13T16:54:35Z</time>
      </trkpt>
      <trkpt lat="43.03301" lon="0.87423">
        <ele>580</ele>
        <time>2021-03-13T16:54:36Z</time>
      </trkpt>
      <trkpt lat="43.03294" lon="0.87421">
        <ele>580</ele>
        <time>2021-03-13T16:54:37Z</time>
      </trkpt>
      <trkpt lat="43.03293" lon="0.87421">
        <ele>580</ele>
        <time>2021-03-13T16:54:38Z</time>
      </trkpt>
      <trkpt lat="43.03293" lon="0.8742">
        <ele>580</ele>
        <time>2021-03-13T16:54:39Z</time>
      </trkpt>
      <trkpt lat="43.03292" lon="0.87419">
        <ele>580</ele>
        <time>2021-03-13T16:54:40Z</time>
      </trkpt>
      <trkpt lat="43.03291" lon="0.87419">
        <ele>580</ele>
        <time>2021-03-13T16:54:41Z</time>
      </trkpt>
      <trkpt lat="43.0329" lon="0.87418">
        <ele>580</ele>
        <time>2021-03-13T16:54:42Z</time>
      </trkpt>
      <trkpt lat="43.03284" lon="0.87411">
        <ele>580</ele>
        <time>2021-03-13T16:54:43Z</time>
      </trkpt>
      <trkpt lat="43.03282" lon="0.87409">
        <ele>580</ele>
        <time>2021-03-13T16:54:44Z</time>
      </trkpt>
      <trkpt lat="43.03281" lon="0.87407">
        <ele>580</ele>
        <time>2021-03-13T16:54:45Z</time>
      </trkpt>
      <trkpt lat="43.03279" lon="0.87405">
        <ele>580</ele>
        <time>2021-03-13T16:54:46Z</time>
      </trkpt>
      <trkpt lat="43.03278" lon="0.87403">
        <ele>580</ele>
        <time>2021-03-13T16:54:47Z</time>
      </trkpt>
      <trkpt lat="43.03277" lon="0.87401">
        <ele>580</ele>
        <time>2021-03-13T16:54:48Z</time>
      </trkpt>
      <trkpt lat="43.03275" lon="0.874">
        <ele>580</ele>
        <time>2021-03-13T16:54:49Z</time>
      </trkpt>
      <trkpt lat="43.0327" lon="0.87392">
        <ele>582</ele>
        <time>2021-03-13T16:54:50Z</time>
      </trkpt>
      <trkpt lat="43.03267" lon="0.87389">
        <ele>582</ele>
        <time>2021-03-13T16:54:51Z</time>
      </trkpt>
      <trkpt lat="43.03265" lon="0.87386">
        <ele>582</ele>
        <time>2021-03-13T16:54:52Z</time>
      </trkpt>
      <trkpt lat="43.03263" lon="0.87384">
        <ele>582</ele>
        <time>2021-03-13T16:54:53Z</time>
      </trkpt>
      <trkpt lat="43.03261" lon="0.87382">
        <ele>582</ele>
        <time>2021-03-13T16:54:54Z</time>
      </trkpt>
      <trkpt lat="43.03259" lon="0.8738">
        <ele>582</ele>
        <time>2021-03-13T16:54:55Z</time>
      </trkpt>
      <trkpt lat="43.03257" lon="0.87378">
        <ele>582</ele>
        <time>2021-03-13T16:54:56Z</time>
      </trkpt>
      <trkpt lat="43.03255" lon="0.87375">
        <ele>582</ele>
        <time>2021-03-13T16:54:57Z</time>
      </trkpt>
      <trkpt lat="43.03253" lon="0.87373">
        <ele>582</ele>
        <time>2021-03-13T16:54:58Z</time>
      </trkpt>
      <trkpt lat="43.03251" lon="0.8737">
        <ele>582</ele>
        <time>2021-03-13T16:54:59Z</time>
      </trkpt>
      <trkpt lat="43.03248" lon="0.87367">
        <ele>583</ele>
        <time>2021-03-13T16:55:00Z</time>
      </trkpt>
      <trkpt lat="43.03245" lon="0.87365">
        <ele>583</ele>
        <time>2021-03-13T16:55:01Z</time>
      </trkpt>
      <trkpt lat="43.03243" lon="0.87362">
        <ele>583</ele>
        <time>2021-03-13T16:55:02Z</time>
      </trkpt>
      <trkpt lat="43.0324" lon="0.8736">
        <ele>583</ele>
        <time>2021-03-13T16:55:03Z</time>
      </trkpt>
      <trkpt lat="43.03237" lon="0.87358">
        <ele>583</ele>
        <time>2021-03-13T16:55:04Z</time>
      </trkpt>
      <trkpt lat="43.03235" lon="0.87356">
        <ele>583</ele>
        <time>2021-03-13T16:55:05Z</time>
      </trkpt>
      <trkpt lat="43.03232" lon="0.87354">
        <ele>583</ele>
        <time>2021-03-13T16:55:06Z</time>
      </trkpt>
      <trkpt lat="43.0323" lon="0.87352">
        <ele>583</ele>
        <time>2021-03-13T16:55:07Z</time>
      </trkpt>
      <trkpt lat="43.03227" lon="0.8735">
        <ele>583</ele>
        <time>2021-03-13T16:55:08Z</time>
      </trkpt>
      <trkpt lat="43.0322" lon="0.87347">
        <ele>583</ele>
        <time>2021-03-13T16:55:09Z</time>
      </trkpt>
      <trkpt lat="43.03217" lon="0.87346">
        <ele>583</ele>
        <time>2021-03-13T16:55:10Z</time>
      </trkpt>
      <trkpt lat="43.03214" lon="0.87344">
        <ele>583</ele>
        <time>2021-03-13T16:55:11Z</time>
      </trkpt>
      <trkpt lat="43.03211" lon="0.87343">
        <ele>583</ele>
        <time>2021-03-13T16:55:12Z</time>
      </trkpt>
      <trkpt lat="43.03208" lon="0.87341">
        <ele>583</ele>
        <time>2021-03-13T16:55:13Z</time>
      </trkpt>
      <trkpt lat="43.03205" lon="0.8734">
        <ele>583</ele>
        <time>2021-03-13T16:55:14Z</time>
      </trkpt>
      <trkpt lat="43.03203" lon="0.87338">
        <ele>583</ele>
        <time>2021-03-13T16:55:15Z</time>
      </trkpt>
      <trkpt lat="43.032" lon="0.87337">
        <ele>583</ele>
        <time>2021-03-13T16:55:16Z</time>
      </trkpt>
      <trkpt lat="43.03196" lon="0.87336">
        <ele>583</ele>
        <time>2021-03-13T16:55:17Z</time>
      </trkpt>
      <trkpt lat="43.03194" lon="0.87334">
        <ele>583</ele>
        <time>2021-03-13T16:55:18Z</time>
      </trkpt>
      <trkpt lat="43.03191" lon="0.87333">
        <ele>583</ele>
        <time>2021-03-13T16:55:19Z</time>
      </trkpt>
      <trkpt lat="43.03188" lon="0.87331">
        <ele>584</ele>
        <time>2021-03-13T16:55:20Z</time>
      </trkpt>
      <trkpt lat="43.03185" lon="0.8733">
        <ele>584</ele>
        <time>2021-03-13T16:55:21Z</time>
      </trkpt>
      <trkpt lat="43.03182" lon="0.87329">
        <ele>584</ele>
        <time>2021-03-13T16:55:22Z</time>
      </trkpt>
      <trkpt lat="43.03181" lon="0.87329">
        <ele>584</ele>
        <time>2021-03-13T16:55:23Z</time>
      </trkpt>
      <trkpt lat="43.0318" lon="0.87329">
        <ele>584</ele>
        <time>2021-03-13T16:55:24Z</time>
      </trkpt>
      <trkpt lat="43.03178" lon="0.87329">
        <ele>584</ele>
        <time>2021-03-13T16:55:25Z</time>
      </trkpt>
      <trkpt lat="43.03177" lon="0.87329">
        <ele>584</ele>
        <time>2021-03-13T16:55:26Z</time>
      </trkpt>
      <trkpt lat="43.03169" lon="0.87328">
        <ele>584</ele>
        <time>2021-03-13T16:55:27Z</time>
      </trkpt>
      <trkpt lat="43.03167" lon="0.87327">
        <ele>584</ele>
        <time>2021-03-13T16:55:28Z</time>
      </trkpt>
      <trkpt lat="43.03165" lon="0.87327">
        <ele>584</ele>
        <time>2021-03-13T16:55:29Z</time>
      </trkpt>
      <trkpt lat="43.03163" lon="0.87327">
        <ele>586</ele>
        <time>2021-03-13T16:55:30Z</time>
      </trkpt>
      <trkpt lat="43.03161" lon="0.87327">
        <ele>586</ele>
        <time>2021-03-13T16:55:31Z</time>
      </trkpt>
      <trkpt lat="43.03159" lon="0.87327">
        <ele>586</ele>
        <time>2021-03-13T16:55:32Z</time>
      </trkpt>
      <trkpt lat="43.03157" lon="0.87327">
        <ele>586</ele>
        <time>2021-03-13T16:55:33Z</time>
      </trkpt>
      <trkpt lat="43.03155" lon="0.87328">
        <ele>586</ele>
        <time>2021-03-13T16:55:34Z</time>
      </trkpt>
      <trkpt lat="43.03148" lon="0.87329">
        <ele>586</ele>
        <time>2021-03-13T16:55:35Z</time>
      </trkpt>
      <trkpt lat="43.03147" lon="0.8733">
        <ele>586</ele>
        <time>2021-03-13T16:55:36Z</time>
      </trkpt>
      <trkpt lat="43.03146" lon="0.87331">
        <ele>586</ele>
        <time>2021-03-13T16:55:37Z</time>
      </trkpt>
      <trkpt lat="43.03144" lon="0.87331">
        <ele>586</ele>
        <time>2021-03-13T16:55:38Z</time>
      </trkpt>
      <trkpt lat="43.03138" lon="0.87336">
        <ele>586</ele>
        <time>2021-03-13T16:55:39Z</time>
      </trkpt>
      <trkpt lat="43.03137" lon="0.87337">
        <ele>588</ele>
        <time>2021-03-13T16:55:40Z</time>
      </trkpt>
      <trkpt lat="43.03136" lon="0.87338">
        <ele>588</ele>
        <time>2021-03-13T16:55:41Z</time>
      </trkpt>
      <trkpt lat="43.03135" lon="0.87339">
        <ele>588</ele>
        <time>2021-03-13T16:55:42Z</time>
      </trkpt>
      <trkpt lat="43.03129" lon="0.87345">
        <ele>588</ele>
        <time>2021-03-13T16:55:43Z</time>
      </trkpt>
      <trkpt lat="43.03128" lon="0.87345">
        <ele>588</ele>
        <time>2021-03-13T16:55:44Z</time>
      </trkpt>
      <trkpt lat="43.03128" lon="0.87346">
        <ele>588</ele>
        <time>2021-03-13T16:55:45Z</time>
      </trkpt>
      <trkpt lat="43.03127" lon="0.87347">
        <ele>588</ele>
        <time>2021-03-13T16:55:46Z</time>
      </trkpt>
      <trkpt lat="43.03126" lon="0.87348">
        <ele>588</ele>
        <time>2021-03-13T16:55:47Z</time>
      </trkpt>
      <trkpt lat="43.03121" lon="0.87354">
        <ele>588</ele>
        <time>2021-03-13T16:55:48Z</time>
      </trkpt>
      <trkpt lat="43.0312" lon="0.87355">
        <ele>588</ele>
        <time>2021-03-13T16:55:49Z</time>
      </trkpt>
      <trkpt lat="43.0312" lon="0.87356">
        <ele>589</ele>
        <time>2021-03-13T16:55:50Z</time>
      </trkpt>
      <trkpt lat="43.03119" lon="0.87357">
        <ele>589</ele>
        <time>2021-03-13T16:55:51Z</time>
      </trkpt>
      <trkpt lat="43.03118" lon="0.87358">
        <ele>589</ele>
        <time>2021-03-13T16:55:52Z</time>
      </trkpt>
      <trkpt lat="43.03113" lon="0.87365">
        <ele>589</ele>
        <time>2021-03-13T16:55:53Z</time>
      </trkpt>
      <trkpt lat="43.03112" lon="0.87366">
        <ele>589</ele>
        <time>2021-03-13T16:55:54Z</time>
      </trkpt>
      <trkpt lat="43.03111" lon="0.87367">
        <ele>589</ele>
        <time>2021-03-13T16:55:55Z</time>
      </trkpt>
      <trkpt lat="43.0311" lon="0.87368">
        <ele>589</ele>
        <time>2021-03-13T16:55:56Z</time>
      </trkpt>
      <trkpt lat="43.0311" lon="0.87369">
        <ele>589</ele>
        <time>2021-03-13T16:55:57Z</time>
      </trkpt>
      <trkpt lat="43.03109" lon="0.8737">
        <ele>589</ele>
        <time>2021-03-13T16:55:58Z</time>
      </trkpt>
      <trkpt lat="43.03108" lon="0.8737">
        <ele>589</ele>
        <time>2021-03-13T16:55:59Z</time>
      </trkpt>
      <trkpt lat="43.03102" lon="0.87378">
        <ele>595</ele>
        <time>2021-03-13T16:56:00Z</time>
      </trkpt>
      <trkpt lat="43.03101" lon="0.87379">
        <ele>595</ele>
        <time>2021-03-13T16:56:01Z</time>
      </trkpt>
      <trkpt lat="43.031" lon="0.87381">
        <ele>595</ele>
        <time>2021-03-13T16:56:02Z</time>
      </trkpt>
      <trkpt lat="43.03099" lon="0.87382">
        <ele>595</ele>
        <time>2021-03-13T16:56:03Z</time>
      </trkpt>
      <trkpt lat="43.03099" lon="0.87383">
        <ele>596</ele>
        <time>2021-03-13T16:56:04Z</time>
      </trkpt>
      <trkpt lat="43.03094" lon="0.8739">
        <ele>596</ele>
        <time>2021-03-13T16:56:05Z</time>
      </trkpt>
      <trkpt lat="43.03093" lon="0.87391">
        <ele>597</ele>
        <time>2021-03-13T16:56:06Z</time>
      </trkpt>
      <trkpt lat="43.03092" lon="0.87392">
        <ele>597</ele>
        <time>2021-03-13T16:56:07Z</time>
      </trkpt>
      <trkpt lat="43.03091" lon="0.87393">
        <ele>596</ele>
        <time>2021-03-13T16:56:08Z</time>
      </trkpt>
      <trkpt lat="43.03091" lon="0.87394">
        <ele>597</ele>
        <time>2021-03-13T16:56:09Z</time>
      </trkpt>
      <trkpt lat="43.03086" lon="0.874">
        <ele>597</ele>
        <time>2021-03-13T16:56:10Z</time>
      </trkpt>
      <trkpt lat="43.03085" lon="0.87401">
        <ele>597</ele>
        <time>2021-03-13T16:56:11Z</time>
      </trkpt>
      <trkpt lat="43.03084" lon="0.87402">
        <ele>597</ele>
        <time>2021-03-13T16:56:12Z</time>
      </trkpt>
      <trkpt lat="43.03084" lon="0.87403">
        <ele>597</ele>
        <time>2021-03-13T16:56:13Z</time>
      </trkpt>
      <trkpt lat="43.03083" lon="0.87404">
        <ele>597</ele>
        <time>2021-03-13T16:56:14Z</time>
      </trkpt>
      <trkpt lat="43.03078" lon="0.87409">
        <ele>597</ele>
        <time>2021-03-13T16:56:15Z</time>
      </trkpt>
      <trkpt lat="43.03077" lon="0.8741">
        <ele>597</ele>
        <time>2021-03-13T16:56:16Z</time>
      </trkpt>
      <trkpt lat="43.03077" lon="0.87412">
        <ele>597</ele>
        <time>2021-03-13T16:56:17Z</time>
      </trkpt>
      <trkpt lat="43.03076" lon="0.87413">
        <ele>597</ele>
        <time>2021-03-13T16:56:18Z</time>
      </trkpt>
      <trkpt lat="43.03075" lon="0.87414">
        <ele>597</ele>
        <time>2021-03-13T16:56:19Z</time>
      </trkpt>
      <trkpt lat="43.0307" lon="0.8742">
        <ele>598</ele>
        <time>2021-03-13T16:56:20Z</time>
      </trkpt>
      <trkpt lat="43.0307" lon="0.87421">
        <ele>598</ele>
        <time>2021-03-13T16:56:21Z</time>
      </trkpt>
      <trkpt lat="43.03069" lon="0.87423">
        <ele>598</ele>
        <time>2021-03-13T16:56:22Z</time>
      </trkpt>
      <trkpt lat="43.03068" lon="0.87424">
        <ele>598</ele>
        <time>2021-03-13T16:56:23Z</time>
      </trkpt>
      <trkpt lat="43.03067" lon="0.87425">
        <ele>598</ele>
        <time>2021-03-13T16:56:24Z</time>
      </trkpt>
      <trkpt lat="43.03062" lon="0.87433">
        <ele>598</ele>
        <time>2021-03-13T16:56:25Z</time>
      </trkpt>
      <trkpt lat="43.03061" lon="0.87434">
        <ele>598</ele>
        <time>2021-03-13T16:56:26Z</time>
      </trkpt>
      <trkpt lat="43.03059" lon="0.87436">
        <ele>598</ele>
        <time>2021-03-13T16:56:27Z</time>
      </trkpt>
      <trkpt lat="43.03058" lon="0.87437">
        <ele>598</ele>
        <time>2021-03-13T16:56:28Z</time>
      </trkpt>
      <trkpt lat="43.03053" lon="0.87445">
        <ele>598</ele>
        <time>2021-03-13T16:56:29Z</time>
      </trkpt>
      <trkpt lat="43.03052" lon="0.87447">
        <ele>598</ele>
        <time>2021-03-13T16:56:30Z</time>
      </trkpt>
      <trkpt lat="43.0305" lon="0.87448">
        <ele>598</ele>
        <time>2021-03-13T16:56:31Z</time>
      </trkpt>
      <trkpt lat="43.03049" lon="0.87449">
        <ele>598</ele>
        <time>2021-03-13T16:56:32Z</time>
      </trkpt>
      <trkpt lat="43.03043" lon="0.87456">
        <ele>598</ele>
        <time>2021-03-13T16:56:33Z</time>
      </trkpt>
      <trkpt lat="43.03041" lon="0.87457">
        <ele>598</ele>
        <time>2021-03-13T16:56:34Z</time>
      </trkpt>
      <trkpt lat="43.0304" lon="0.87459">
        <ele>598</ele>
        <time>2021-03-13T16:56:35Z</time>
      </trkpt>
      <trkpt lat="43.03033" lon="0.87464">
        <ele>598</ele>
        <time>2021-03-13T16:56:36Z</time>
      </trkpt>
      <trkpt lat="43.03032" lon="0.87465">
        <ele>598</ele>
        <time>2021-03-13T16:56:37Z</time>
      </trkpt>
      <trkpt lat="43.0303" lon="0.87466">
        <ele>598</ele>
        <time>2021-03-13T16:56:38Z</time>
      </trkpt>
      <trkpt lat="43.03023" lon="0.87469">
        <ele>598</ele>
        <time>2021-03-13T16:56:39Z</time>
      </trkpt>
      <trkpt lat="43.03022" lon="0.87471">
        <ele>597</ele>
        <time>2021-03-13T16:56:40Z</time>
      </trkpt>
      <trkpt lat="43.0302" lon="0.87472">
        <ele>597</ele>
        <time>2021-03-13T16:56:41Z</time>
      </trkpt>
      <trkpt lat="43.03015" lon="0.87477">
        <ele>597</ele>
        <time>2021-03-13T16:56:42Z</time>
      </trkpt>
      <trkpt lat="43.03014" lon="0.87478">
        <ele>597</ele>
        <time>2021-03-13T16:56:43Z</time>
      </trkpt>
      <trkpt lat="43.03014" lon="0.87479">
        <ele>597</ele>
        <time>2021-03-13T16:56:44Z</time>
      </trkpt>
      <trkpt lat="43.03013" lon="0.87481">
        <ele>597</ele>
        <time>2021-03-13T16:56:45Z</time>
      </trkpt>
      <trkpt lat="43.03013" lon="0.87482">
        <ele>597</ele>
        <time>2021-03-13T16:56:46Z</time>
      </trkpt>
      <trkpt lat="43.03011" lon="0.8749">
        <ele>597</ele>
        <time>2021-03-13T16:56:47Z</time>
      </trkpt>
      <trkpt lat="43.03011" lon="0.87491">
        <ele>597</ele>
        <time>2021-03-13T16:56:48Z</time>
      </trkpt>
      <trkpt lat="43.0301" lon="0.87492">
        <ele>597</ele>
        <time>2021-03-13T16:56:49Z</time>
      </trkpt>
      <trkpt lat="43.0301" lon="0.87494">
        <ele>598</ele>
        <time>2021-03-13T16:56:50Z</time>
      </trkpt>
      <trkpt lat="43.0301" lon="0.87495">
        <ele>598</ele>
        <time>2021-03-13T16:56:51Z</time>
      </trkpt>
      <trkpt lat="43.03008" lon="0.87505">
        <ele>598</ele>
        <time>2021-03-13T16:56:52Z</time>
      </trkpt>
      <trkpt lat="43.03007" lon="0.87508">
        <ele>598</ele>
        <time>2021-03-13T16:56:53Z</time>
      </trkpt>
      <trkpt lat="43.03007" lon="0.87511">
        <ele>598</ele>
        <time>2021-03-13T16:56:54Z</time>
      </trkpt>
      <trkpt lat="43.03006" lon="0.87513">
        <ele>598</ele>
        <time>2021-03-13T16:56:55Z</time>
      </trkpt>
      <trkpt lat="43.03006" lon="0.87516">
        <ele>598</ele>
        <time>2021-03-13T16:56:56Z</time>
      </trkpt>
      <trkpt lat="43.03006" lon="0.87518">
        <ele>598</ele>
        <time>2021-03-13T16:56:57Z</time>
      </trkpt>
      <trkpt lat="43.03005" lon="0.87519">
        <ele>598</ele>
        <time>2021-03-13T16:56:58Z</time>
      </trkpt>
      <trkpt lat="43.03005" lon="0.87521">
        <ele>598</ele>
        <time>2021-03-13T16:56:59Z</time>
      </trkpt>
      <trkpt lat="43.03005" lon="0.87522">
        <ele>598</ele>
        <time>2021-03-13T16:57:00Z</time>
      </trkpt>
      <trkpt lat="43.03005" lon="0.87523">
        <ele>598</ele>
        <time>2021-03-13T16:57:01Z</time>
      </trkpt>
      <trkpt lat="43.03003" lon="0.87532">
        <ele>598</ele>
        <time>2021-03-13T16:57:02Z</time>
      </trkpt>
      <trkpt lat="43.03002" lon="0.87533">
        <ele>598</ele>
        <time>2021-03-13T16:57:03Z</time>
      </trkpt>
      <trkpt lat="43.03002" lon="0.87535">
        <ele>598</ele>
        <time>2021-03-13T16:57:04Z</time>
      </trkpt>
      <trkpt lat="43.03001" lon="0.87536">
        <ele>598</ele>
        <time>2021-03-13T16:57:05Z</time>
      </trkpt>
      <trkpt lat="43.03001" lon="0.87538">
        <ele>598</ele>
        <time>2021-03-13T16:57:06Z</time>
      </trkpt>
      <trkpt lat="43.02998" lon="0.87545">
        <ele>598</ele>
        <time>2021-03-13T16:57:07Z</time>
      </trkpt>
      <trkpt lat="43.02997" lon="0.87546">
        <ele>598</ele>
        <time>2021-03-13T16:57:08Z</time>
      </trkpt>
      <trkpt lat="43.02997" lon="0.87547">
        <ele>598</ele>
        <time>2021-03-13T16:57:09Z</time>
      </trkpt>
      <trkpt lat="43.02996" lon="0.87547">
        <ele>599</ele>
        <time>2021-03-13T16:57:10Z</time>
      </trkpt>
      <trkpt lat="43.02996" lon="0.87548">
        <ele>599</ele>
        <time>2021-03-13T16:57:11Z</time>
      </trkpt>
      <trkpt lat="43.02996" lon="0.87548">
        <ele>599</ele>
        <time>2021-03-13T16:57:12Z</time>
      </trkpt>
      <trkpt lat="43.02995" lon="0.87549">
        <ele>599</ele>
        <time>2021-03-13T16:57:13Z</time>
      </trkpt>
      <trkpt lat="43.02995" lon="0.87549">
        <ele>599</ele>
        <time>2021-03-13T16:57:14Z</time>
      </trkpt>
      <trkpt lat="43.02994" lon="0.8755">
        <ele>599</ele>
        <time>2021-03-13T16:57:15Z</time>
      </trkpt>
      <trkpt lat="43.0299" lon="0.87557">
        <ele>599</ele>
        <time>2021-03-13T16:57:16Z</time>
      </trkpt>
      <trkpt lat="43.02989" lon="0.87558">
        <ele>599</ele>
        <time>2021-03-13T16:57:17Z</time>
      </trkpt>
      <trkpt lat="43.02988" lon="0.87559">
        <ele>599</ele>
        <time>2021-03-13T16:57:18Z</time>
      </trkpt>
      <trkpt lat="43.02987" lon="0.87561">
        <ele>599</ele>
        <time>2021-03-13T16:57:19Z</time>
      </trkpt>
      <trkpt lat="43.02986" lon="0.87562">
        <ele>600</ele>
        <time>2021-03-13T16:57:20Z</time>
      </trkpt>
      <trkpt lat="43.02985" lon="0.87563">
        <ele>600</ele>
        <time>2021-03-13T16:57:21Z</time>
      </trkpt>
      <trkpt lat="43.02984" lon="0.87565">
        <ele>600</ele>
        <time>2021-03-13T16:57:22Z</time>
      </trkpt>
      <trkpt lat="43.02983" lon="0.87566">
        <ele>600</ele>
        <time>2021-03-13T16:57:23Z</time>
      </trkpt>
      <trkpt lat="43.02983" lon="0.87566">
        <ele>600</ele>
        <time>2021-03-13T16:57:24Z</time>
      </trkpt>
      <trkpt lat="43.02983" lon="0.87567">
        <ele>600</ele>
        <time>2021-03-13T16:57:25Z</time>
      </trkpt>
      <trkpt lat="43.02982" lon="0.87568">
        <ele>600</ele>
        <time>2021-03-13T16:57:26Z</time>
      </trkpt>
      <trkpt lat="43.02982" lon="0.87569">
        <ele>600</ele>
        <time>2021-03-13T16:57:27Z</time>
      </trkpt>
      <trkpt lat="43.02982" lon="0.8757">
        <ele>600</ele>
        <time>2021-03-13T16:57:28Z</time>
      </trkpt>
      <trkpt lat="43.02981" lon="0.8757">
        <ele>600</ele>
        <time>2021-03-13T16:57:29Z</time>
      </trkpt>
      <trkpt lat="43.02981" lon="0.87571">
        <ele>599</ele>
        <time>2021-03-13T16:57:30Z</time>
      </trkpt>
      <trkpt lat="43.02981" lon="0.87572">
        <ele>599</ele>
        <time>2021-03-13T16:57:31Z</time>
      </trkpt>
      <trkpt lat="43.0298" lon="0.87573">
        <ele>599</ele>
        <time>2021-03-13T16:57:32Z</time>
      </trkpt>
      <trkpt lat="43.0298" lon="0.87573">
        <ele>599</ele>
        <time>2021-03-13T16:57:33Z</time>
      </trkpt>
      <trkpt lat="43.0298" lon="0.87574">
        <ele>599</ele>
        <time>2021-03-13T16:57:34Z</time>
      </trkpt>
      <trkpt lat="43.0298" lon="0.87575">
        <ele>599</ele>
        <time>2021-03-13T16:57:35Z</time>
      </trkpt>
      <trkpt lat="43.02979" lon="0.87576">
        <ele>599</ele>
        <time>2021-03-13T16:57:36Z</time>
      </trkpt>
      <trkpt lat="43.02979" lon="0.87577">
        <ele>599</ele>
        <time>2021-03-13T16:57:37Z</time>
      </trkpt>
      <trkpt lat="43.02978" lon="0.87578">
        <ele>599</ele>
        <time>2021-03-13T16:57:38Z</time>
      </trkpt>
      <trkpt lat="43.02978" lon="0.87579">
        <ele>599</ele>
        <time>2021-03-13T16:57:39Z</time>
      </trkpt>
      <trkpt lat="43.02978" lon="0.87581">
        <ele>598</ele>
        <time>2021-03-13T16:57:40Z</time>
      </trkpt>
      <trkpt lat="43.02977" lon="0.87582">
        <ele>598</ele>
        <time>2021-03-13T16:57:41Z</time>
      </trkpt>
      <trkpt lat="43.02977" lon="0.87583">
        <ele>598</ele>
        <time>2021-03-13T16:57:42Z</time>
      </trkpt>
      <trkpt lat="43.02975" lon="0.87592">
        <ele>598</ele>
        <time>2021-03-13T16:57:43Z</time>
      </trkpt>
      <trkpt lat="43.02974" lon="0.87594">
        <ele>598</ele>
        <time>2021-03-13T16:57:44Z</time>
      </trkpt>
      <trkpt lat="43.02974" lon="0.87596">
        <ele>598</ele>
        <time>2021-03-13T16:57:45Z</time>
      </trkpt>
      <trkpt lat="43.02974" lon="0.87598">
        <ele>598</ele>
        <time>2021-03-13T16:57:46Z</time>
      </trkpt>
      <trkpt lat="43.02971" lon="0.87609">
        <ele>598</ele>
        <time>2021-03-13T16:57:47Z</time>
      </trkpt>
      <trkpt lat="43.02969" lon="0.87611">
        <ele>598</ele>
        <time>2021-03-13T16:57:48Z</time>
      </trkpt>
      <trkpt lat="43.02968" lon="0.87613">
        <ele>598</ele>
        <time>2021-03-13T16:57:49Z</time>
      </trkpt>
      <trkpt lat="43.02959" lon="0.87623">
        <ele>597</ele>
        <time>2021-03-13T16:57:50Z</time>
      </trkpt>
      <trkpt lat="43.02955" lon="0.87625">
        <ele>597</ele>
        <time>2021-03-13T16:57:51Z</time>
      </trkpt>
      <trkpt lat="43.02951" lon="0.87628">
        <ele>597</ele>
        <time>2021-03-13T16:57:52Z</time>
      </trkpt>
      <trkpt lat="43.0294" lon="0.87636">
        <ele>597</ele>
        <time>2021-03-13T16:57:53Z</time>
      </trkpt>
      <trkpt lat="43.02937" lon="0.87638">
        <ele>597</ele>
        <time>2021-03-13T16:57:54Z</time>
      </trkpt>
      <trkpt lat="43.02933" lon="0.8764">
        <ele>597</ele>
        <time>2021-03-13T16:57:55Z</time>
      </trkpt>
      <trkpt lat="43.02924" lon="0.87645">
        <ele>597</ele>
        <time>2021-03-13T16:57:56Z</time>
      </trkpt>
      <trkpt lat="43.02921" lon="0.87647">
        <ele>597</ele>
        <time>2021-03-13T16:57:57Z</time>
      </trkpt>
      <trkpt lat="43.02913" lon="0.87652">
        <ele>597</ele>
        <time>2021-03-13T16:57:58Z</time>
      </trkpt>
      <trkpt lat="43.0291" lon="0.87654">
        <ele>597</ele>
        <time>2021-03-13T16:57:59Z</time>
      </trkpt>
      <trkpt lat="43.02902" lon="0.8766">
        <ele>593</ele>
        <time>2021-03-13T16:58:00Z</time>
      </trkpt>
      <trkpt lat="43.02899" lon="0.87662">
        <ele>593</ele>
        <time>2021-03-13T16:58:01Z</time>
      </trkpt>
      <trkpt lat="43.02896" lon="0.87664">
        <ele>593</ele>
        <time>2021-03-13T16:58:02Z</time>
      </trkpt>
      <trkpt lat="43.02892" lon="0.87666">
        <ele>593</ele>
        <time>2021-03-13T16:58:03Z</time>
      </trkpt>
      <trkpt lat="43.02889" lon="0.87668">
        <ele>593</ele>
        <time>2021-03-13T16:58:04Z</time>
      </trkpt>
      <trkpt lat="43.02886" lon="0.8767">
        <ele>591</ele>
        <time>2021-03-13T16:58:05Z</time>
      </trkpt>
      <trkpt lat="43.02876" lon="0.87675">
        <ele>591</ele>
        <time>2021-03-13T16:58:06Z</time>
      </trkpt>
      <trkpt lat="43.02873" lon="0.87676">
        <ele>591</ele>
        <time>2021-03-13T16:58:07Z</time>
      </trkpt>
      <trkpt lat="43.02864" lon="0.87679">
        <ele>591</ele>
        <time>2021-03-13T16:58:08Z</time>
      </trkpt>
      <trkpt lat="43.0286" lon="0.87681">
        <ele>591</ele>
        <time>2021-03-13T16:58:09Z</time>
      </trkpt>
      <trkpt lat="43.02849" lon="0.87686">
        <ele>588</ele>
        <time>2021-03-13T16:58:10Z</time>
      </trkpt>
      <trkpt lat="43.02845" lon="0.87687">
        <ele>588</ele>
        <time>2021-03-13T16:58:11Z</time>
      </trkpt>
      <trkpt lat="43.0283" lon="0.87692">
        <ele>588</ele>
        <time>2021-03-13T16:58:12Z</time>
      </trkpt>
      <trkpt lat="43.02823" lon="0.87694">
        <ele>588</ele>
        <time>2021-03-13T16:58:13Z</time>
      </trkpt>
      <trkpt lat="43.02816" lon="0.87696">
        <ele>588</ele>
        <time>2021-03-13T16:58:14Z</time>
      </trkpt>
      <trkpt lat="43.02807" lon="0.87698">
        <ele>586</ele>
        <time>2021-03-13T16:58:15Z</time>
      </trkpt>
      <trkpt lat="43.02804" lon="0.87698">
        <ele>586</ele>
        <time>2021-03-13T16:58:16Z</time>
      </trkpt>
      <trkpt lat="43.02798" lon="0.87699">
        <ele>586</ele>
        <time>2021-03-13T16:58:17Z</time>
      </trkpt>
      <trkpt lat="43.02795" lon="0.877">
        <ele>586</ele>
        <time>2021-03-13T16:58:18Z</time>
      </trkpt>
      <trkpt lat="43.02792" lon="0.87701">
        <ele>586</ele>
        <time>2021-03-13T16:58:19Z</time>
      </trkpt>
      <trkpt lat="43.02781" lon="0.87704">
        <ele>583</ele>
        <time>2021-03-13T16:58:20Z</time>
      </trkpt>
      <trkpt lat="43.02776" lon="0.87706">
        <ele>582</ele>
        <time>2021-03-13T16:58:21Z</time>
      </trkpt>
      <trkpt lat="43.02771" lon="0.87708">
        <ele>581</ele>
        <time>2021-03-13T16:58:22Z</time>
      </trkpt>
      <trkpt lat="43.02766" lon="0.87709">
        <ele>580</ele>
        <time>2021-03-13T16:58:23Z</time>
      </trkpt>
      <trkpt lat="43.02762" lon="0.87711">
        <ele>579</ele>
        <time>2021-03-13T16:58:24Z</time>
      </trkpt>
      <trkpt lat="43.02759" lon="0.87712">
        <ele>579</ele>
        <time>2021-03-13T16:58:25Z</time>
      </trkpt>
      <trkpt lat="43.02749" lon="0.87716">
        <ele>578</ele>
        <time>2021-03-13T16:58:26Z</time>
      </trkpt>
      <trkpt lat="43.02746" lon="0.87717">
        <ele>577</ele>
        <time>2021-03-13T16:58:27Z</time>
      </trkpt>
      <trkpt lat="43.02738" lon="0.8772">
        <ele>578</ele>
        <time>2021-03-13T16:58:28Z</time>
      </trkpt>
      <trkpt lat="43.02735" lon="0.87721">
        <ele>578</ele>
        <time>2021-03-13T16:58:29Z</time>
      </trkpt>
      <trkpt lat="43.02725" lon="0.87725">
        <ele>576</ele>
        <time>2021-03-13T16:58:30Z</time>
      </trkpt>
      <trkpt lat="43.02722" lon="0.87726">
        <ele>576</ele>
        <time>2021-03-13T16:58:31Z</time>
      </trkpt>
      <trkpt lat="43.02714" lon="0.87731">
        <ele>576</ele>
        <time>2021-03-13T16:58:32Z</time>
      </trkpt>
      <trkpt lat="43.02711" lon="0.87732">
        <ele>575</ele>
        <time>2021-03-13T16:58:33Z</time>
      </trkpt>
      <trkpt lat="43.02709" lon="0.87733">
        <ele>575</ele>
        <time>2021-03-13T16:58:34Z</time>
      </trkpt>
      <trkpt lat="43.02701" lon="0.87736">
        <ele>575</ele>
        <time>2021-03-13T16:58:35Z</time>
      </trkpt>
      <trkpt lat="43.02699" lon="0.87737">
        <ele>575</ele>
        <time>2021-03-13T16:58:36Z</time>
      </trkpt>
      <trkpt lat="43.02697" lon="0.87738">
        <ele>575</ele>
        <time>2021-03-13T16:58:37Z</time>
      </trkpt>
      <trkpt lat="43.02688" lon="0.87741">
        <ele>574</ele>
        <time>2021-03-13T16:58:38Z</time>
      </trkpt>
      <trkpt lat="43.02685" lon="0.87743">
        <ele>574</ele>
        <time>2021-03-13T16:58:39Z</time>
      </trkpt>
      <trkpt lat="43.02678" lon="0.87746">
        <ele>573</ele>
        <time>2021-03-13T16:58:40Z</time>
      </trkpt>
      <trkpt lat="43.02675" lon="0.87748">
        <ele>573</ele>
        <time>2021-03-13T16:58:41Z</time>
      </trkpt>
      <trkpt lat="43.02673" lon="0.87749">
        <ele>573</ele>
        <time>2021-03-13T16:58:42Z</time>
      </trkpt>
      <trkpt lat="43.02665" lon="0.87755">
        <ele>573</ele>
        <time>2021-03-13T16:58:43Z</time>
      </trkpt>
      <trkpt lat="43.02662" lon="0.87757">
        <ele>573</ele>
        <time>2021-03-13T16:58:44Z</time>
      </trkpt>
      <trkpt lat="43.02655" lon="0.87761">
        <ele>571</ele>
        <time>2021-03-13T16:58:45Z</time>
      </trkpt>
      <trkpt lat="43.02653" lon="0.87762">
        <ele>571</ele>
        <time>2021-03-13T16:58:46Z</time>
      </trkpt>
      <trkpt lat="43.02651" lon="0.87764">
        <ele>571</ele>
        <time>2021-03-13T16:58:47Z</time>
      </trkpt>
      <trkpt lat="43.02639" lon="0.8777">
        <ele>571</ele>
        <time>2021-03-13T16:58:48Z</time>
      </trkpt>
      <trkpt lat="43.02634" lon="0.87772">
        <ele>571</ele>
        <time>2021-03-13T16:58:49Z</time>
      </trkpt>
      <trkpt lat="43.02632" lon="0.87773">
        <ele>570</ele>
        <time>2021-03-13T16:58:50Z</time>
      </trkpt>
      <trkpt lat="43.02629" lon="0.87774">
        <ele>570</ele>
        <time>2021-03-13T16:58:51Z</time>
      </trkpt>
      <trkpt lat="43.0262" lon="0.87778">
        <ele>570</ele>
        <time>2021-03-13T16:58:52Z</time>
      </trkpt>
      <trkpt lat="43.02617" lon="0.8778">
        <ele>570</ele>
        <time>2021-03-13T16:58:53Z</time>
      </trkpt>
      <trkpt lat="43.02608" lon="0.87787">
        <ele>570</ele>
        <time>2021-03-13T16:58:54Z</time>
      </trkpt>
      <trkpt lat="43.02604" lon="0.8779">
        <ele>568</ele>
        <time>2021-03-13T16:58:55Z</time>
      </trkpt>
      <trkpt lat="43.02594" lon="0.87798">
        <ele>568</ele>
        <time>2021-03-13T16:58:56Z</time>
      </trkpt>
      <trkpt lat="43.02591" lon="0.87801">
        <ele>568</ele>
        <time>2021-03-13T16:58:57Z</time>
      </trkpt>
      <trkpt lat="43.02581" lon="0.87807">
        <ele>568</ele>
        <time>2021-03-13T16:58:58Z</time>
      </trkpt>
      <trkpt lat="43.02578" lon="0.87809">
        <ele>568</ele>
        <time>2021-03-13T16:58:59Z</time>
      </trkpt>
      <trkpt lat="43.02575" lon="0.87812">
        <ele>563</ele>
        <time>2021-03-13T16:59:00Z</time>
      </trkpt>
      <trkpt lat="43.02562" lon="0.8782">
        <ele>563</ele>
        <time>2021-03-13T16:59:01Z</time>
      </trkpt>
      <trkpt lat="43.02559" lon="0.87822">
        <ele>563</ele>
        <time>2021-03-13T16:59:02Z</time>
      </trkpt>
      <trkpt lat="43.02549" lon="0.87829">
        <ele>563</ele>
        <time>2021-03-13T16:59:03Z</time>
      </trkpt>
      <trkpt lat="43.02545" lon="0.87832">
        <ele>562</ele>
        <time>2021-03-13T16:59:04Z</time>
      </trkpt>
      <trkpt lat="43.02534" lon="0.87839">
        <ele>561</ele>
        <time>2021-03-13T16:59:05Z</time>
      </trkpt>
      <trkpt lat="43.02531" lon="0.87842">
        <ele>560</ele>
        <time>2021-03-13T16:59:06Z</time>
      </trkpt>
      <trkpt lat="43.02522" lon="0.87847">
        <ele>560</ele>
        <time>2021-03-13T16:59:07Z</time>
      </trkpt>
      <trkpt lat="43.02519" lon="0.87849">
        <ele>560</ele>
        <time>2021-03-13T16:59:08Z</time>
      </trkpt>
      <trkpt lat="43.0251" lon="0.87853">
        <ele>559</ele>
        <time>2021-03-13T16:59:09Z</time>
      </trkpt>
      <trkpt lat="43.02507" lon="0.87855">
        <ele>559</ele>
        <time>2021-03-13T16:59:10Z</time>
      </trkpt>
      <trkpt lat="43.02497" lon="0.8786">
        <ele>559</ele>
        <time>2021-03-13T16:59:11Z</time>
      </trkpt>
      <trkpt lat="43.02494" lon="0.87861">
        <ele>559</ele>
        <time>2021-03-13T16:59:12Z</time>
      </trkpt>
      <trkpt lat="43.02484" lon="0.87865">
        <ele>559</ele>
        <time>2021-03-13T16:59:13Z</time>
      </trkpt>
      <trkpt lat="43.02481" lon="0.87866">
        <ele>559</ele>
        <time>2021-03-13T16:59:14Z</time>
      </trkpt>
      <trkpt lat="43.02467" lon="0.87868">
        <ele>556</ele>
        <time>2021-03-13T16:59:15Z</time>
      </trkpt>
      <trkpt lat="43.02459" lon="0.87869">
        <ele>556</ele>
        <time>2021-03-13T16:59:16Z</time>
      </trkpt>
      <trkpt lat="43.02442" lon="0.87871">
        <ele>556</ele>
        <time>2021-03-13T16:59:17Z</time>
      </trkpt>
      <trkpt lat="43.02439" lon="0.8787">
        <ele>556</ele>
        <time>2021-03-13T16:59:18Z</time>
      </trkpt>
      <trkpt lat="43.02435" lon="0.8787">
        <ele>556</ele>
        <time>2021-03-13T16:59:19Z</time>
      </trkpt>
      <trkpt lat="43.02427" lon="0.87868">
        <ele>554</ele>
        <time>2021-03-13T16:59:20Z</time>
      </trkpt>
      <trkpt lat="43.02425" lon="0.87867">
        <ele>554</ele>
        <time>2021-03-13T16:59:21Z</time>
      </trkpt>
      <trkpt lat="43.02423" lon="0.87867">
        <ele>554</ele>
        <time>2021-03-13T16:59:22Z</time>
      </trkpt>
      <trkpt lat="43.0242" lon="0.87868">
        <ele>554</ele>
        <time>2021-03-13T16:59:23Z</time>
      </trkpt>
      <trkpt lat="43.02422" lon="0.87871">
        <ele>554</ele>
        <time>2021-03-13T16:59:24Z</time>
      </trkpt>
      <trkpt lat="43.02424" lon="0.87874">
        <ele>552</ele>
        <time>2021-03-13T16:59:25Z</time>
      </trkpt>
      <trkpt lat="43.02426" lon="0.87876">
        <ele>552</ele>
        <time>2021-03-13T16:59:26Z</time>
      </trkpt>
      <trkpt lat="43.02428" lon="0.87876">
        <ele>552</ele>
        <time>2021-03-13T16:59:27Z</time>
      </trkpt>
      <trkpt lat="43.02431" lon="0.87877">
        <ele>552</ele>
        <time>2021-03-13T16:59:28Z</time>
      </trkpt>
      <trkpt lat="43.0244" lon="0.87878">
        <ele>552</ele>
        <time>2021-03-13T16:59:29Z</time>
      </trkpt>
      <trkpt lat="43.02443" lon="0.87878">
        <ele>551</ele>
        <time>2021-03-13T16:59:30Z</time>
      </trkpt>
      <trkpt lat="43.02453" lon="0.8788">
        <ele>551</ele>
        <time>2021-03-13T16:59:31Z</time>
      </trkpt>
      <trkpt lat="43.02456" lon="0.8788">
        <ele>551</ele>
        <time>2021-03-13T16:59:32Z</time>
      </trkpt>
      <trkpt lat="43.02467" lon="0.87881">
        <ele>551</ele>
        <time>2021-03-13T16:59:33Z</time>
      </trkpt>
      <trkpt lat="43.0247" lon="0.87882">
        <ele>551</ele>
        <time>2021-03-13T16:59:34Z</time>
      </trkpt>
      <trkpt lat="43.02481" lon="0.87882">
        <ele>548</ele>
        <time>2021-03-13T16:59:35Z</time>
      </trkpt>
      <trkpt lat="43.02485" lon="0.87883">
        <ele>548</ele>
        <time>2021-03-13T16:59:36Z</time>
      </trkpt>
      <trkpt lat="43.02497" lon="0.87883">
        <ele>548</ele>
        <time>2021-03-13T16:59:37Z</time>
      </trkpt>
      <trkpt lat="43.025" lon="0.87883">
        <ele>548</ele>
        <time>2021-03-13T16:59:38Z</time>
      </trkpt>
      <trkpt lat="43.02511" lon="0.87883">
        <ele>548</ele>
        <time>2021-03-13T16:59:39Z</time>
      </trkpt>
      <trkpt lat="43.02513" lon="0.87883">
        <ele>543</ele>
        <time>2021-03-13T16:59:40Z</time>
      </trkpt>
      <trkpt lat="43.02522" lon="0.87883">
        <ele>542</ele>
        <time>2021-03-13T16:59:41Z</time>
      </trkpt>
      <trkpt lat="43.02525" lon="0.87883">
        <ele>542</ele>
        <time>2021-03-13T16:59:42Z</time>
      </trkpt>
      <trkpt lat="43.02535" lon="0.87882">
        <ele>541</ele>
        <time>2021-03-13T16:59:43Z</time>
      </trkpt>
      <trkpt lat="43.02538" lon="0.87881">
        <ele>540</ele>
        <time>2021-03-13T16:59:44Z</time>
      </trkpt>
      <trkpt lat="43.02549" lon="0.87879">
        <ele>539</ele>
        <time>2021-03-13T16:59:45Z</time>
      </trkpt>
      <trkpt lat="43.02553" lon="0.87878">
        <ele>539</ele>
        <time>2021-03-13T16:59:46Z</time>
      </trkpt>
      <trkpt lat="43.02556" lon="0.87877">
        <ele>539</ele>
        <time>2021-03-13T16:59:47Z</time>
      </trkpt>
      <trkpt lat="43.02558" lon="0.87876">
        <ele>538</ele>
        <time>2021-03-13T16:59:48Z</time>
      </trkpt>
      <trkpt lat="43.02561" lon="0.87875">
        <ele>536</ele>
        <time>2021-03-13T16:59:49Z</time>
      </trkpt>
      <trkpt lat="43.0257" lon="0.87872">
        <ele>535</ele>
        <time>2021-03-13T16:59:50Z</time>
      </trkpt>
      <trkpt lat="43.02572" lon="0.87872">
        <ele>535</ele>
        <time>2021-03-13T16:59:51Z</time>
      </trkpt>
      <trkpt lat="43.02574" lon="0.87871">
        <ele>535</ele>
        <time>2021-03-13T16:59:52Z</time>
      </trkpt>
      <trkpt lat="43.0258" lon="0.87869">
        <ele>535</ele>
        <time>2021-03-13T16:59:53Z</time>
      </trkpt>
      <trkpt lat="43.02581" lon="0.87869">
        <ele>534</ele>
        <time>2021-03-13T16:59:54Z</time>
      </trkpt>
      <trkpt lat="43.02581" lon="0.87869">
        <ele>535</ele>
        <time>2021-03-13T16:59:55Z</time>
      </trkpt>
      <trkpt lat="43.02582" lon="0.87869">
        <ele>535</ele>
        <time>2021-03-13T16:59:56Z</time>
      </trkpt>
      <trkpt lat="43.02582" lon="0.87868">
        <ele>534</ele>
        <time>2021-03-13T16:59:57Z</time>
      </trkpt>
      <trkpt lat="43.02583" lon="0.87868">
        <ele>534</ele>
        <time>2021-03-13T16:59:58Z</time>
      </trkpt>
      <trkpt lat="43.02583" lon="0.87868">
        <ele>534</ele>
        <time>2021-03-13T16:59:59Z</time>
      </trkpt>
      <trkpt lat="43.02584" lon="0.87868">
        <ele>534</ele>
        <time>2021-03-13T17:00:00Z</time>
      </trkpt>
      <trkpt lat="43.02584" lon="0.87868">
        <ele>534</ele>
        <time>2021-03-13T17:00:01Z</time>
      </trkpt>
      <trkpt lat="43.02585" lon="0.87868">
        <ele>534</ele>
        <time>2021-03-13T17:00:02Z</time>
      </trkpt>
      <trkpt lat="43.02592" lon="0.87866">
        <ele>534</ele>
        <time>2021-03-13T17:00:03Z</time>
      </trkpt>
      <trkpt lat="43.02593" lon="0.87866">
        <ele>534</ele>
        <time>2021-03-13T17:00:04Z</time>
      </trkpt>
      <trkpt lat="43.02595" lon="0.87866">
        <ele>534</ele>
        <time>2021-03-13T17:00:05Z</time>
      </trkpt>
      <trkpt lat="43.02596" lon="0.87866">
        <ele>534</ele>
        <time>2021-03-13T17:00:06Z</time>
      </trkpt>
      <trkpt lat="43.02604" lon="0.87865">
        <ele>534</ele>
        <time>2021-03-13T17:00:07Z</time>
      </trkpt>
      <trkpt lat="43.02606" lon="0.87865">
        <ele>534</ele>
        <time>2021-03-13T17:00:08Z</time>
      </trkpt>
      <trkpt lat="43.02608" lon="0.87865">
        <ele>534</ele>
        <time>2021-03-13T17:00:09Z</time>
      </trkpt>
      <trkpt lat="43.02609" lon="0.87865">
        <ele>532</ele>
        <time>2021-03-13T17:00:10Z</time>
      </trkpt>
      <trkpt lat="43.02618" lon="0.87864">
        <ele>532</ele>
        <time>2021-03-13T17:00:11Z</time>
      </trkpt>
      <trkpt lat="43.0262" lon="0.87864">
        <ele>532</ele>
        <time>2021-03-13T17:00:12Z</time>
      </trkpt>
      <trkpt lat="43.02623" lon="0.87864">
        <ele>532</ele>
        <time>2021-03-13T17:00:13Z</time>
      </trkpt>
      <trkpt lat="43.02631" lon="0.87862">
        <ele>532</ele>
        <time>2021-03-13T17:00:14Z</time>
      </trkpt>
      <trkpt lat="43.02634" lon="0.87862">
        <ele>532</ele>
        <time>2021-03-13T17:00:15Z</time>
      </trkpt>
      <trkpt lat="43.02636" lon="0.87862">
        <ele>532</ele>
        <time>2021-03-13T17:00:16Z</time>
      </trkpt>
      <trkpt lat="43.02646" lon="0.8786">
        <ele>532</ele>
        <time>2021-03-13T17:00:17Z</time>
      </trkpt>
      <trkpt lat="43.02648" lon="0.8786">
        <ele>532</ele>
        <time>2021-03-13T17:00:18Z</time>
      </trkpt>
      <trkpt lat="43.0265" lon="0.87859">
        <ele>532</ele>
        <time>2021-03-13T17:00:19Z</time>
      </trkpt>
      <trkpt lat="43.0266" lon="0.87858">
        <ele>526</ele>
        <time>2021-03-13T17:00:20Z</time>
      </trkpt>
      <trkpt lat="43.02665" lon="0.87857">
        <ele>525</ele>
        <time>2021-03-13T17:00:21Z</time>
      </trkpt>
      <trkpt lat="43.02668" lon="0.87857">
        <ele>524</ele>
        <time>2021-03-13T17:00:22Z</time>
      </trkpt>
      <trkpt lat="43.0267" lon="0.87857">
        <ele>523</ele>
        <time>2021-03-13T17:00:23Z</time>
      </trkpt>
      <trkpt lat="43.02672" lon="0.87857">
        <ele>522</ele>
        <time>2021-03-13T17:00:24Z</time>
      </trkpt>
      <trkpt lat="43.02681" lon="0.87857">
        <ele>523</ele>
        <time>2021-03-13T17:00:25Z</time>
      </trkpt>
      <trkpt lat="43.02683" lon="0.87856">
        <ele>523</ele>
        <time>2021-03-13T17:00:26Z</time>
      </trkpt>
      <trkpt lat="43.02685" lon="0.87855">
        <ele>522</ele>
        <time>2021-03-13T17:00:27Z</time>
      </trkpt>
      <trkpt lat="43.02696" lon="0.87852">
        <ele>521</ele>
        <time>2021-03-13T17:00:28Z</time>
      </trkpt>
      <trkpt lat="43.02699" lon="0.87851">
        <ele>521</ele>
        <time>2021-03-13T17:00:29Z</time>
      </trkpt>
      <trkpt lat="43.02702" lon="0.8785">
        <ele>521</ele>
        <time>2021-03-13T17:00:30Z</time>
      </trkpt>
      <trkpt lat="43.02704" lon="0.87849">
        <ele>521</ele>
        <time>2021-03-13T17:00:31Z</time>
      </trkpt>
      <trkpt lat="43.02706" lon="0.87848">
        <ele>521</ele>
        <time>2021-03-13T17:00:32Z</time>
      </trkpt>
      <trkpt lat="43.02708" lon="0.87847">
        <ele>521</ele>
        <time>2021-03-13T17:00:33Z</time>
      </trkpt>
      <trkpt lat="43.02716" lon="0.87844">
        <ele>521</ele>
        <time>2021-03-13T17:00:34Z</time>
      </trkpt>
      <trkpt lat="43.02718" lon="0.87844">
        <ele>520</ele>
        <time>2021-03-13T17:00:35Z</time>
      </trkpt>
      <trkpt lat="43.0272" lon="0.87843">
        <ele>520</ele>
        <time>2021-03-13T17:00:36Z</time>
      </trkpt>
      <trkpt lat="43.02728" lon="0.87841">
        <ele>520</ele>
        <time>2021-03-13T17:00:37Z</time>
      </trkpt>
      <trkpt lat="43.02729" lon="0.87841">
        <ele>519</ele>
        <time>2021-03-13T17:00:38Z</time>
      </trkpt>
      <trkpt lat="43.0273" lon="0.87841">
        <ele>519</ele>
        <time>2021-03-13T17:00:39Z</time>
      </trkpt>
      <trkpt lat="43.02732" lon="0.87841">
        <ele>518</ele>
        <time>2021-03-13T17:00:40Z</time>
      </trkpt>
      <trkpt lat="43.02736" lon="0.87841">
        <ele>518</ele>
        <time>2021-03-13T17:00:41Z</time>
      </trkpt>
      <trkpt lat="43.02734" lon="0.87843">
        <ele>518</ele>
        <time>2021-03-13T17:00:42Z</time>
      </trkpt>
      <trkpt lat="43.02733" lon="0.87845">
        <ele>518</ele>
        <time>2021-03-13T17:00:43Z</time>
      </trkpt>
      <trkpt lat="43.02732" lon="0.87847">
        <ele>518</ele>
        <time>2021-03-13T17:00:44Z</time>
      </trkpt>
      <trkpt lat="43.02731" lon="0.87848">
        <ele>517</ele>
        <time>2021-03-13T17:00:45Z</time>
      </trkpt>
      <trkpt lat="43.0273" lon="0.8785">
        <ele>517</ele>
        <time>2021-03-13T17:00:46Z</time>
      </trkpt>
      <trkpt lat="43.02728" lon="0.87851">
        <ele>517</ele>
        <time>2021-03-13T17:00:47Z</time>
      </trkpt>
      <trkpt lat="43.02726" lon="0.87851">
        <ele>517</ele>
        <time>2021-03-13T17:00:48Z</time>
      </trkpt>
      <trkpt lat="43.02725" lon="0.87852">
        <ele>517</ele>
        <time>2021-03-13T17:00:49Z</time>
      </trkpt>
      <trkpt lat="43.02718" lon="0.87854">
        <ele>516</ele>
        <time>2021-03-13T17:00:50Z</time>
      </trkpt>
      <trkpt lat="43.02716" lon="0.87855">
        <ele>516</ele>
        <time>2021-03-13T17:00:51Z</time>
      </trkpt>
      <trkpt lat="43.02714" lon="0.87856">
        <ele>516</ele>
        <time>2021-03-13T17:00:52Z</time>
      </trkpt>
      <trkpt lat="43.02703" lon="0.87861">
        <ele>516</ele>
        <time>2021-03-13T17:00:53Z</time>
      </trkpt>
      <trkpt lat="43.02698" lon="0.87864">
        <ele>516</ele>
        <time>2021-03-13T17:00:54Z</time>
      </trkpt>
      <trkpt lat="43.02694" lon="0.87868">
        <ele>514</ele>
        <time>2021-03-13T17:00:55Z</time>
      </trkpt>
      <trkpt lat="43.02689" lon="0.87871">
        <ele>514</ele>
        <time>2021-03-13T17:00:56Z</time>
      </trkpt>
      <trkpt lat="43.02684" lon="0.87874">
        <ele>514</ele>
        <time>2021-03-13T17:00:57Z</time>
      </trkpt>
      <trkpt lat="43.02679" lon="0.87877">
        <ele>514</ele>
        <time>2021-03-13T17:00:58Z</time>
      </trkpt>
      <trkpt lat="43.02679" lon="0.87877">
        <ele>514</ele>
        <time>2021-03-13T17:00:59Z</time>
      </trkpt>
      <trkpt lat="43.02676" lon="0.87878">
        <ele>512</ele>
        <time>2021-03-13T17:01:00Z</time>
      </trkpt>
      <trkpt lat="43.02673" lon="0.87879">
        <ele>512</ele>
        <time>2021-03-13T17:01:01Z</time>
      </trkpt>
      <trkpt lat="43.02669" lon="0.8788">
        <ele>512</ele>
        <time>2021-03-13T17:01:02Z</time>
      </trkpt>
      <trkpt lat="43.02666" lon="0.87883">
        <ele>512</ele>
        <time>2021-03-13T17:01:03Z</time>
      </trkpt>
      <trkpt lat="43.02662" lon="0.87885">
        <ele>512</ele>
        <time>2021-03-13T17:01:04Z</time>
      </trkpt>
      <trkpt lat="43.02659" lon="0.87887">
        <ele>511</ele>
        <time>2021-03-13T17:01:05Z</time>
      </trkpt>
      <trkpt lat="43.02655" lon="0.8789">
        <ele>511</ele>
        <time>2021-03-13T17:01:06Z</time>
      </trkpt>
      <trkpt lat="43.02651" lon="0.87894">
        <ele>511</ele>
        <time>2021-03-13T17:01:07Z</time>
      </trkpt>
      <trkpt lat="43.02648" lon="0.87897">
        <ele>511</ele>
        <time>2021-03-13T17:01:08Z</time>
      </trkpt>
      <trkpt lat="43.02645" lon="0.87899">
        <ele>511</ele>
        <time>2021-03-13T17:01:09Z</time>
      </trkpt>
      <trkpt lat="43.02642" lon="0.87902">
        <ele>509</ele>
        <time>2021-03-13T17:01:10Z</time>
      </trkpt>
      <trkpt lat="43.02639" lon="0.87904">
        <ele>509</ele>
        <time>2021-03-13T17:01:11Z</time>
      </trkpt>
      <trkpt lat="43.02637" lon="0.87906">
        <ele>509</ele>
        <time>2021-03-13T17:01:12Z</time>
      </trkpt>
      <trkpt lat="43.02635" lon="0.87908">
        <ele>509</ele>
        <time>2021-03-13T17:01:13Z</time>
      </trkpt>
      <trkpt lat="43.02632" lon="0.8791">
        <ele>509</ele>
        <time>2021-03-13T17:01:14Z</time>
      </trkpt>
      <trkpt lat="43.0263" lon="0.87912">
        <ele>507</ele>
        <time>2021-03-13T17:01:15Z</time>
      </trkpt>
      <trkpt lat="43.02627" lon="0.87916">
        <ele>507</ele>
        <time>2021-03-13T17:01:16Z</time>
      </trkpt>
      <trkpt lat="43.02623" lon="0.87919">
        <ele>507</ele>
        <time>2021-03-13T17:01:17Z</time>
      </trkpt>
      <trkpt lat="43.0262" lon="0.87923">
        <ele>507</ele>
        <time>2021-03-13T17:01:18Z</time>
      </trkpt>
      <trkpt lat="43.02616" lon="0.87925">
        <ele>507</ele>
        <time>2021-03-13T17:01:19Z</time>
      </trkpt>
      <trkpt lat="43.02613" lon="0.87928">
        <ele>505</ele>
        <time>2021-03-13T17:01:20Z</time>
      </trkpt>
      <trkpt lat="43.02609" lon="0.87931">
        <ele>505</ele>
        <time>2021-03-13T17:01:21Z</time>
      </trkpt>
      <trkpt lat="43.02604" lon="0.87935">
        <ele>505</ele>
        <time>2021-03-13T17:01:22Z</time>
      </trkpt>
      <trkpt lat="43.02599" lon="0.87939">
        <ele>505</ele>
        <time>2021-03-13T17:01:23Z</time>
      </trkpt>
      <trkpt lat="43.02594" lon="0.87943">
        <ele>505</ele>
        <time>2021-03-13T17:01:24Z</time>
      </trkpt>
      <trkpt lat="43.0259" lon="0.87947">
        <ele>504</ele>
        <time>2021-03-13T17:01:25Z</time>
      </trkpt>
      <trkpt lat="43.0259" lon="0.87947">
        <ele>504</ele>
        <time>2021-03-13T17:01:26Z</time>
      </trkpt>
      <trkpt lat="43.02586" lon="0.87949">
        <ele>504</ele>
        <time>2021-03-13T17:01:27Z</time>
      </trkpt>
      <trkpt lat="43.02583" lon="0.8795">
        <ele>504</ele>
        <time>2021-03-13T17:01:28Z</time>
      </trkpt>
      <trkpt lat="43.0258" lon="0.87952">
        <ele>504</ele>
        <time>2021-03-13T17:01:29Z</time>
      </trkpt>
      <trkpt lat="43.02577" lon="0.87954">
        <ele>503</ele>
        <time>2021-03-13T17:01:30Z</time>
      </trkpt>
      <trkpt lat="43.02573" lon="0.87956">
        <ele>503</ele>
        <time>2021-03-13T17:01:31Z</time>
      </trkpt>
      <trkpt lat="43.0257" lon="0.87957">
        <ele>503</ele>
        <time>2021-03-13T17:01:32Z</time>
      </trkpt>
      <trkpt lat="43.02566" lon="0.8796">
        <ele>503</ele>
        <time>2021-03-13T17:01:33Z</time>
      </trkpt>
      <trkpt lat="43.02562" lon="0.87963">
        <ele>503</ele>
        <time>2021-03-13T17:01:34Z</time>
      </trkpt>
      <trkpt lat="43.02558" lon="0.87965">
        <ele>503</ele>
        <time>2021-03-13T17:01:35Z</time>
      </trkpt>
      <trkpt lat="43.02555" lon="0.87967">
        <ele>503</ele>
        <time>2021-03-13T17:01:36Z</time>
      </trkpt>
      <trkpt lat="43.02552" lon="0.87969">
        <ele>503</ele>
        <time>2021-03-13T17:01:37Z</time>
      </trkpt>
      <trkpt lat="43.02548" lon="0.87971">
        <ele>503</ele>
        <time>2021-03-13T17:01:38Z</time>
      </trkpt>
      <trkpt lat="43.02544" lon="0.87973">
        <ele>503</ele>
        <time>2021-03-13T17:01:39Z</time>
      </trkpt>
      <trkpt lat="43.02541" lon="0.87975">
        <ele>502</ele>
        <time>2021-03-13T17:01:40Z</time>
      </trkpt>
      <trkpt lat="43.02537" lon="0.87977">
        <ele>502</ele>
        <time>2021-03-13T17:01:41Z</time>
      </trkpt>
      <trkpt lat="43.02533" lon="0.8798">
        <ele>502</ele>
        <time>2021-03-13T17:01:42Z</time>
      </trkpt>
      <trkpt lat="43.0253" lon="0.87983">
        <ele>502</ele>
        <time>2021-03-13T17:01:43Z</time>
      </trkpt>
      <trkpt lat="43.02526" lon="0.87985">
        <ele>502</ele>
        <time>2021-03-13T17:01:44Z</time>
      </trkpt>
      <trkpt lat="43.02523" lon="0.87989">
        <ele>502</ele>
        <time>2021-03-13T17:01:45Z</time>
      </trkpt>
      <trkpt lat="43.0252" lon="0.87992">
        <ele>502</ele>
        <time>2021-03-13T17:01:46Z</time>
      </trkpt>
      <trkpt lat="43.02517" lon="0.87995">
        <ele>502</ele>
        <time>2021-03-13T17:01:47Z</time>
      </trkpt>
      <trkpt lat="43.02513" lon="0.87999">
        <ele>502</ele>
        <time>2021-03-13T17:01:48Z</time>
      </trkpt>
      <trkpt lat="43.0251" lon="0.88001">
        <ele>502</ele>
        <time>2021-03-13T17:01:49Z</time>
      </trkpt>
      <trkpt lat="43.02507" lon="0.88004">
        <ele>497</ele>
        <time>2021-03-13T17:01:50Z</time>
      </trkpt>
      <trkpt lat="43.02503" lon="0.88007">
        <ele>497</ele>
        <time>2021-03-13T17:01:51Z</time>
      </trkpt>
      <trkpt lat="43.02501" lon="0.8801">
        <ele>497</ele>
        <time>2021-03-13T17:01:52Z</time>
      </trkpt>
      <trkpt lat="43.02499" lon="0.88012">
        <ele>497</ele>
        <time>2021-03-13T17:01:53Z</time>
      </trkpt>
      <trkpt lat="43.02497" lon="0.88014">
        <ele>497</ele>
        <time>2021-03-13T17:01:54Z</time>
      </trkpt>
      <trkpt lat="43.02495" lon="0.88017">
        <ele>493</ele>
        <time>2021-03-13T17:01:55Z</time>
      </trkpt>
      <trkpt lat="43.02489" lon="0.88021">
        <ele>493</ele>
        <time>2021-03-13T17:01:56Z</time>
      </trkpt>
      <trkpt lat="43.02484" lon="0.88025">
        <ele>493</ele>
        <time>2021-03-13T17:01:57Z</time>
      </trkpt>
      <trkpt lat="43.02479" lon="0.88029">
        <ele>493</ele>
        <time>2021-03-13T17:01:58Z</time>
      </trkpt>
      <trkpt lat="43.02475" lon="0.88032">
        <ele>493</ele>
        <time>2021-03-13T17:01:59Z</time>
      </trkpt>
      <trkpt lat="43.02475" lon="0.88032">
        <ele>491</ele>
        <time>2021-03-13T17:02:00Z</time>
      </trkpt>
      <trkpt lat="43.02471" lon="0.88034">
        <ele>491</ele>
        <time>2021-03-13T17:02:01Z</time>
      </trkpt>
      <trkpt lat="43.02468" lon="0.88036">
        <ele>491</ele>
        <time>2021-03-13T17:02:02Z</time>
      </trkpt>
      <trkpt lat="43.02464" lon="0.88039">
        <ele>490</ele>
        <time>2021-03-13T17:02:03Z</time>
      </trkpt>
      <trkpt lat="43.02459" lon="0.88043">
        <ele>490</ele>
        <time>2021-03-13T17:02:04Z</time>
      </trkpt>
      <trkpt lat="43.02454" lon="0.88047">
        <ele>489</ele>
        <time>2021-03-13T17:02:05Z</time>
      </trkpt>
      <trkpt lat="43.02449" lon="0.88051">
        <ele>488</ele>
        <time>2021-03-13T17:02:06Z</time>
      </trkpt>
      <trkpt lat="43.0244" lon="0.88057">
        <ele>487</ele>
        <time>2021-03-13T17:02:07Z</time>
      </trkpt>
      <trkpt lat="43.02438" lon="0.8806">
        <ele>486</ele>
        <time>2021-03-13T17:02:08Z</time>
      </trkpt>
      <trkpt lat="43.0243" lon="0.88066">
        <ele>486</ele>
        <time>2021-03-13T17:02:09Z</time>
      </trkpt>
      <trkpt lat="43.02428" lon="0.88067">
        <ele>485</ele>
        <time>2021-03-13T17:02:10Z</time>
      </trkpt>
      <trkpt lat="43.0242" lon="0.88072">
        <ele>485</ele>
        <time>2021-03-13T17:02:11Z</time>
      </trkpt>
      <trkpt lat="43.02417" lon="0.88073">
        <ele>485</ele>
        <time>2021-03-13T17:02:12Z</time>
      </trkpt>
      <trkpt lat="43.02409" lon="0.88076">
        <ele>485</ele>
        <time>2021-03-13T17:02:13Z</time>
      </trkpt>
      <trkpt lat="43.02405" lon="0.88076">
        <ele>485</ele>
        <time>2021-03-13T17:02:14Z</time>
      </trkpt>
      <trkpt lat="43.02395" lon="0.88077">
        <ele>485</ele>
        <time>2021-03-13T17:02:15Z</time>
      </trkpt>
      <trkpt lat="43.02392" lon="0.88077">
        <ele>484</ele>
        <time>2021-03-13T17:02:16Z</time>
      </trkpt>
      <trkpt lat="43.02382" lon="0.88076">
        <ele>484</ele>
        <time>2021-03-13T17:02:17Z</time>
      </trkpt>
      <trkpt lat="43.0238" lon="0.88074">
        <ele>483</ele>
        <time>2021-03-13T17:02:18Z</time>
      </trkpt>
      <trkpt lat="43.02373" lon="0.88069">
        <ele>483</ele>
        <time>2021-03-13T17:02:19Z</time>
      </trkpt>
      <trkpt lat="43.02371" lon="0.88066">
        <ele>482</ele>
        <time>2021-03-13T17:02:20Z</time>
      </trkpt>
      <trkpt lat="43.02367" lon="0.88062">
        <ele>482</ele>
        <time>2021-03-13T17:02:21Z</time>
      </trkpt>
      <trkpt lat="43.02367" lon="0.88062">
        <ele>482</ele>
        <time>2021-03-13T17:02:22Z</time>
      </trkpt>
      <trkpt lat="43.02357" lon="0.88049">
        <ele>482</ele>
        <time>2021-03-13T17:02:23Z</time>
      </trkpt>
      <trkpt lat="43.02355" lon="0.88046">
        <ele>482</ele>
        <time>2021-03-13T17:02:24Z</time>
      </trkpt>
      <trkpt lat="43.02349" lon="0.88037">
        <ele>480</ele>
        <time>2021-03-13T17:02:25Z</time>
      </trkpt>
      <trkpt lat="43.02347" lon="0.88033">
        <ele>480</ele>
        <time>2021-03-13T17:02:26Z</time>
      </trkpt>
      <trkpt lat="43.02341" lon="0.88024">
        <ele>480</ele>
        <time>2021-03-13T17:02:27Z</time>
      </trkpt>
      <trkpt lat="43.02339" lon="0.88022">
        <ele>480</ele>
        <time>2021-03-13T17:02:28Z</time>
      </trkpt>
      <trkpt lat="43.02335" lon="0.88018">
        <ele>480</ele>
        <time>2021-03-13T17:02:29Z</time>
      </trkpt>
      <trkpt lat="43.02335" lon="0.88018">
        <ele>479</ele>
        <time>2021-03-13T17:02:30Z</time>
      </trkpt>
      <trkpt lat="43.02332" lon="0.88014">
        <ele>479</ele>
        <time>2021-03-13T17:02:31Z</time>
      </trkpt>
      <trkpt lat="43.02328" lon="0.88009">
        <ele>479</ele>
        <time>2021-03-13T17:02:32Z</time>
      </trkpt>
      <trkpt lat="43.02325" lon="0.88005">
        <ele>479</ele>
        <time>2021-03-13T17:02:33Z</time>
      </trkpt>
      <trkpt lat="43.0232" lon="0.88002">
        <ele>479</ele>
        <time>2021-03-13T17:02:34Z</time>
      </trkpt>
      <trkpt lat="43.02315" lon="0.87998">
        <ele>477</ele>
        <time>2021-03-13T17:02:35Z</time>
      </trkpt>
      <trkpt lat="43.0231" lon="0.87995">
        <ele>477</ele>
        <time>2021-03-13T17:02:36Z</time>
      </trkpt>
      <trkpt lat="43.02303" lon="0.87989">
        <ele>477</ele>
        <time>2021-03-13T17:02:37Z</time>
      </trkpt>
      <trkpt lat="43.02301" lon="0.87987">
        <ele>477</ele>
        <time>2021-03-13T17:02:38Z</time>
      </trkpt>
      <trkpt lat="43.02296" lon="0.87984">
        <ele>477</ele>
        <time>2021-03-13T17:02:39Z</time>
      </trkpt>
      <trkpt lat="43.02296" lon="0.87984">
        <ele>473</ele>
        <time>2021-03-13T17:02:40Z</time>
      </trkpt>
      <trkpt lat="43.02293" lon="0.8798">
        <ele>471</ele>
        <time>2021-03-13T17:02:41Z</time>
      </trkpt>
      <trkpt lat="43.02289" lon="0.87977">
        <ele>471</ele>
        <time>2021-03-13T17:02:42Z</time>
      </trkpt>
      <trkpt lat="43.02286" lon="0.87973">
        <ele>470</ele>
        <time>2021-03-13T17:02:43Z</time>
      </trkpt>
      <trkpt lat="43.02282" lon="0.8797">
        <ele>469</ele>
        <time>2021-03-13T17:02:44Z</time>
      </trkpt>
      <trkpt lat="43.02278" lon="0.87967">
        <ele>468</ele>
        <time>2021-03-13T17:02:45Z</time>
      </trkpt>
      <trkpt lat="43.02274" lon="0.87964">
        <ele>468</ele>
        <time>2021-03-13T17:02:46Z</time>
      </trkpt>
      <trkpt lat="43.0227" lon="0.87961">
        <ele>468</ele>
        <time>2021-03-13T17:02:47Z</time>
      </trkpt>
      <trkpt lat="43.02266" lon="0.87959">
        <ele>467</ele>
        <time>2021-03-13T17:02:48Z</time>
      </trkpt>
      <trkpt lat="43.02262" lon="0.87956">
        <ele>466</ele>
        <time>2021-03-13T17:02:49Z</time>
      </trkpt>
      <trkpt lat="43.02258" lon="0.87953">
        <ele>466</ele>
        <time>2021-03-13T17:02:50Z</time>
      </trkpt>
      <trkpt lat="43.02254" lon="0.87951">
        <ele>464</ele>
        <time>2021-03-13T17:02:51Z</time>
      </trkpt>
      <trkpt lat="43.02249" lon="0.87948">
        <ele>464</ele>
        <time>2021-03-13T17:02:52Z</time>
      </trkpt>
      <trkpt lat="43.02245" lon="0.87948">
        <ele>463</ele>
        <time>2021-03-13T17:02:53Z</time>
      </trkpt>
      <trkpt lat="43.02241" lon="0.87948">
        <ele>462</ele>
        <time>2021-03-13T17:02:54Z</time>
      </trkpt>
      <trkpt lat="43.02236" lon="0.87948">
        <ele>462</ele>
        <time>2021-03-13T17:02:55Z</time>
      </trkpt>
      <trkpt lat="43.02232" lon="0.87948">
        <ele>460</ele>
        <time>2021-03-13T17:02:56Z</time>
      </trkpt>
      <trkpt lat="43.02227" lon="0.87948">
        <ele>460</ele>
        <time>2021-03-13T17:02:57Z</time>
      </trkpt>
      <trkpt lat="43.02218" lon="0.8795">
        <ele>460</ele>
        <time>2021-03-13T17:02:58Z</time>
      </trkpt>
      <trkpt lat="43.02214" lon="0.87951">
        <ele>460</ele>
        <time>2021-03-13T17:02:59Z</time>
      </trkpt>
      <trkpt lat="43.02202" lon="0.87955">
        <ele>457</ele>
        <time>2021-03-13T17:03:00Z</time>
      </trkpt>
      <trkpt lat="43.02198" lon="0.87956">
        <ele>457</ele>
        <time>2021-03-13T17:03:01Z</time>
      </trkpt>
      <trkpt lat="43.02187" lon="0.8796">
        <ele>456</ele>
        <time>2021-03-13T17:03:02Z</time>
      </trkpt>
      <trkpt lat="43.02184" lon="0.87961">
        <ele>455</ele>
        <time>2021-03-13T17:03:03Z</time>
      </trkpt>
      <trkpt lat="43.02173" lon="0.87965">
        <ele>454</ele>
        <time>2021-03-13T17:03:04Z</time>
      </trkpt>
      <trkpt lat="43.0217" lon="0.87966">
        <ele>454</ele>
        <time>2021-03-13T17:03:05Z</time>
      </trkpt>
      <trkpt lat="43.02163" lon="0.87968">
        <ele>452</ele>
        <time>2021-03-13T17:03:06Z</time>
      </trkpt>
      <trkpt lat="43.02163" lon="0.87968">
        <ele>451</ele>
        <time>2021-03-13T17:03:07Z</time>
      </trkpt>
      <trkpt lat="43.02159" lon="0.87969">
        <ele>451</ele>
        <time>2021-03-13T17:03:08Z</time>
      </trkpt>
      <trkpt lat="43.02154" lon="0.8797">
        <ele>450</ele>
        <time>2021-03-13T17:03:09Z</time>
      </trkpt>
      <trkpt lat="43.02149" lon="0.87971">
        <ele>449</ele>
        <time>2021-03-13T17:03:10Z</time>
      </trkpt>
      <trkpt lat="43.02144" lon="0.87976">
        <ele>448</ele>
        <time>2021-03-13T17:03:11Z</time>
      </trkpt>
      <trkpt lat="43.02138" lon="0.87981">
        <ele>448</ele>
        <time>2021-03-13T17:03:12Z</time>
      </trkpt>
      <trkpt lat="43.02132" lon="0.87986">
        <ele>448</ele>
        <time>2021-03-13T17:03:13Z</time>
      </trkpt>
      <trkpt lat="43.02128" lon="0.8799">
        <ele>447</ele>
        <time>2021-03-13T17:03:14Z</time>
      </trkpt>
      <trkpt lat="43.02128" lon="0.8799">
        <ele>446</ele>
        <time>2021-03-13T17:03:15Z</time>
      </trkpt>
      <trkpt lat="43.02125" lon="0.87997">
        <ele>445</ele>
        <time>2021-03-13T17:03:16Z</time>
      </trkpt>
      <trkpt lat="43.02123" lon="0.88005">
        <ele>444</ele>
        <time>2021-03-13T17:03:17Z</time>
      </trkpt>
      <trkpt lat="43.0212" lon="0.88012">
        <ele>444</ele>
        <time>2021-03-13T17:03:18Z</time>
      </trkpt>
      <trkpt lat="43.02119" lon="0.88019">
        <ele>444</ele>
        <time>2021-03-13T17:03:19Z</time>
      </trkpt>
      <trkpt lat="43.02119" lon="0.88019">
        <ele>443</ele>
        <time>2021-03-13T17:03:20Z</time>
      </trkpt>
      <trkpt lat="43.02119" lon="0.88023">
        <ele>442</ele>
        <time>2021-03-13T17:03:21Z</time>
      </trkpt>
      <trkpt lat="43.02118" lon="0.88028">
        <ele>442</ele>
        <time>2021-03-13T17:03:22Z</time>
      </trkpt>
      <trkpt lat="43.02117" lon="0.88038">
        <ele>442</ele>
        <time>2021-03-13T17:03:23Z</time>
      </trkpt>
      <trkpt lat="43.02117" lon="0.8804">
        <ele>442</ele>
        <time>2021-03-13T17:03:24Z</time>
      </trkpt>
      <trkpt lat="43.02117" lon="0.88042">
        <ele>442</ele>
        <time>2021-03-13T17:03:25Z</time>
      </trkpt>
      <trkpt lat="43.02117" lon="0.88044">
        <ele>442</ele>
        <time>2021-03-13T17:03:26Z</time>
      </trkpt>
      <trkpt lat="43.02116" lon="0.88057">
        <ele>442</ele>
        <time>2021-03-13T17:03:27Z</time>
      </trkpt>
      <trkpt lat="43.02116" lon="0.88061">
        <ele>442</ele>
        <time>2021-03-13T17:03:28Z</time>
      </trkpt>
      <trkpt lat="43.02115" lon="0.88066">
        <ele>442</ele>
        <time>2021-03-13T17:03:29Z</time>
      </trkpt>
      <trkpt lat="43.02114" lon="0.88069">
        <ele>441</ele>
        <time>2021-03-13T17:03:30Z</time>
      </trkpt>
      <trkpt lat="43.02113" lon="0.88072">
        <ele>441</ele>
        <time>2021-03-13T17:03:31Z</time>
      </trkpt>
      <trkpt lat="43.02113" lon="0.88074">
        <ele>441</ele>
        <time>2021-03-13T17:03:32Z</time>
      </trkpt>
      <trkpt lat="43.02109" lon="0.88086">
        <ele>441</ele>
        <time>2021-03-13T17:03:33Z</time>
      </trkpt>
      <trkpt lat="43.02108" lon="0.88089">
        <ele>441</ele>
        <time>2021-03-13T17:03:34Z</time>
      </trkpt>
      <trkpt lat="43.02104" lon="0.88099">
        <ele>440</ele>
        <time>2021-03-13T17:03:35Z</time>
      </trkpt>
      <trkpt lat="43.02103" lon="0.88103">
        <ele>440</ele>
        <time>2021-03-13T17:03:36Z</time>
      </trkpt>
      <trkpt lat="43.02099" lon="0.88113">
        <ele>440</ele>
        <time>2021-03-13T17:03:37Z</time>
      </trkpt>
      <trkpt lat="43.02098" lon="0.88116">
        <ele>440</ele>
        <time>2021-03-13T17:03:38Z</time>
      </trkpt>
      <trkpt lat="43.02093" lon="0.88129">
        <ele>440</ele>
        <time>2021-03-13T17:03:39Z</time>
      </trkpt>
      <trkpt lat="43.0209" lon="0.88135">
        <ele>437</ele>
        <time>2021-03-13T17:03:40Z</time>
      </trkpt>
      <trkpt lat="43.02089" lon="0.88137">
        <ele>437</ele>
        <time>2021-03-13T17:03:41Z</time>
      </trkpt>
      <trkpt lat="43.02088" lon="0.8814">
        <ele>437</ele>
        <time>2021-03-13T17:03:42Z</time>
      </trkpt>
      <trkpt lat="43.02087" lon="0.88142">
        <ele>437</ele>
        <time>2021-03-13T17:03:43Z</time>
      </trkpt>
      <trkpt lat="43.02084" lon="0.88152">
        <ele>437</ele>
        <time>2021-03-13T17:03:44Z</time>
      </trkpt>
      <trkpt lat="43.02084" lon="0.88154">
        <ele>434</ele>
        <time>2021-03-13T17:03:45Z</time>
      </trkpt>
      <trkpt lat="43.02084" lon="0.88156">
        <ele>434</ele>
        <time>2021-03-13T17:03:46Z</time>
      </trkpt>
      <trkpt lat="43.02084" lon="0.88158">
        <ele>434</ele>
        <time>2021-03-13T17:03:47Z</time>
      </trkpt>
      <trkpt lat="43.02086" lon="0.88167">
        <ele>434</ele>
        <time>2021-03-13T17:03:48Z</time>
      </trkpt>
      <trkpt lat="43.02087" lon="0.88168">
        <ele>434</ele>
        <time>2021-03-13T17:03:49Z</time>
      </trkpt>
      <trkpt lat="43.02089" lon="0.8817">
        <ele>431</ele>
        <time>2021-03-13T17:03:50Z</time>
      </trkpt>
      <trkpt lat="43.02094" lon="0.88179">
        <ele>430</ele>
        <time>2021-03-13T17:03:51Z</time>
      </trkpt>
      <trkpt lat="43.02094" lon="0.88182">
        <ele>430</ele>
        <time>2021-03-13T17:03:52Z</time>
      </trkpt>
      <trkpt lat="43.02095" lon="0.88185">
        <ele>430</ele>
        <time>2021-03-13T17:03:53Z</time>
      </trkpt>
      <trkpt lat="43.02095" lon="0.88198">
        <ele>429</ele>
        <time>2021-03-13T17:03:54Z</time>
      </trkpt>
      <trkpt lat="43.02095" lon="0.88203">
        <ele>429</ele>
        <time>2021-03-13T17:03:55Z</time>
      </trkpt>
      <trkpt lat="43.02093" lon="0.88217">
        <ele>429</ele>
        <time>2021-03-13T17:03:56Z</time>
      </trkpt>
      <trkpt lat="43.02092" lon="0.88221">
        <ele>428</ele>
        <time>2021-03-13T17:03:57Z</time>
      </trkpt>
      <trkpt lat="43.02089" lon="0.88234">
        <ele>427</ele>
        <time>2021-03-13T17:03:58Z</time>
      </trkpt>
      <trkpt lat="43.02088" lon="0.88238">
        <ele>425</ele>
        <time>2021-03-13T17:03:59Z</time>
      </trkpt>
      <trkpt lat="43.02085" lon="0.88249">
        <ele>423</ele>
        <time>2021-03-13T17:04:00Z</time>
      </trkpt>
      <trkpt lat="43.02084" lon="0.88252">
        <ele>423</ele>
        <time>2021-03-13T17:04:01Z</time>
      </trkpt>
      <trkpt lat="43.02084" lon="0.88255">
        <ele>423</ele>
        <time>2021-03-13T17:04:02Z</time>
      </trkpt>
      <trkpt lat="43.02084" lon="0.88265">
        <ele>423</ele>
        <time>2021-03-13T17:04:03Z</time>
      </trkpt>
      <trkpt lat="43.02085" lon="0.88267">
        <ele>423</ele>
        <time>2021-03-13T17:04:04Z</time>
      </trkpt>
      <trkpt lat="43.02086" lon="0.88268">
        <ele>422</ele>
        <time>2021-03-13T17:04:05Z</time>
      </trkpt>
      <trkpt lat="43.02088" lon="0.88269">
        <ele>421</ele>
        <time>2021-03-13T17:04:06Z</time>
      </trkpt>
      <trkpt lat="43.02096" lon="0.88273">
        <ele>421</ele>
        <time>2021-03-13T17:04:07Z</time>
      </trkpt>
      <trkpt lat="43.02099" lon="0.88273">
        <ele>421</ele>
        <time>2021-03-13T17:04:08Z</time>
      </trkpt>
      <trkpt lat="43.02107" lon="0.88271">
        <ele>421</ele>
        <time>2021-03-13T17:04:09Z</time>
      </trkpt>
      <trkpt lat="43.02111" lon="0.8827">
        <ele>421</ele>
        <time>2021-03-13T17:04:10Z</time>
      </trkpt>
      <trkpt lat="43.02121" lon="0.88269">
        <ele>421</ele>
        <time>2021-03-13T17:04:11Z</time>
      </trkpt>
      <trkpt lat="43.02125" lon="0.88268">
        <ele>421</ele>
        <time>2021-03-13T17:04:12Z</time>
      </trkpt>
      <trkpt lat="43.02137" lon="0.88267">
        <ele>421</ele>
        <time>2021-03-13T17:04:13Z</time>
      </trkpt>
      <trkpt lat="43.02141" lon="0.88267">
        <ele>421</ele>
        <time>2021-03-13T17:04:14Z</time>
      </trkpt>
      <trkpt lat="43.02155" lon="0.88267">
        <ele>418</ele>
        <time>2021-03-13T17:04:15Z</time>
      </trkpt>
      <trkpt lat="43.0216" lon="0.88267">
        <ele>418</ele>
        <time>2021-03-13T17:04:16Z</time>
      </trkpt>
      <trkpt lat="43.02174" lon="0.88268">
        <ele>418</ele>
        <time>2021-03-13T17:04:17Z</time>
      </trkpt>
      <trkpt lat="43.02179" lon="0.88269">
        <ele>418</ele>
        <time>2021-03-13T17:04:18Z</time>
      </trkpt>
      <trkpt lat="43.02193" lon="0.88272">
        <ele>418</ele>
        <time>2021-03-13T17:04:19Z</time>
      </trkpt>
      <trkpt lat="43.02197" lon="0.88273">
        <ele>415</ele>
        <time>2021-03-13T17:04:20Z</time>
      </trkpt>
      <trkpt lat="43.0221" lon="0.88276">
        <ele>415</ele>
        <time>2021-03-13T17:04:21Z</time>
      </trkpt>
      <trkpt lat="43.02214" lon="0.88277">
        <ele>415</ele>
        <time>2021-03-13T17:04:22Z</time>
      </trkpt>
      <trkpt lat="43.02224" lon="0.88279">
        <ele>415</ele>
        <time>2021-03-13T17:04:23Z</time>
      </trkpt>
      <trkpt lat="43.02228" lon="0.8828">
        <ele>415</ele>
        <time>2021-03-13T17:04:24Z</time>
      </trkpt>
      <trkpt lat="43.02239" lon="0.88283">
        <ele>415</ele>
        <time>2021-03-13T17:04:25Z</time>
      </trkpt>
      <trkpt lat="43.02244" lon="0.88284">
        <ele>415</ele>
        <time>2021-03-13T17:04:26Z</time>
      </trkpt>
      <trkpt lat="43.02247" lon="0.88284">
        <ele>416</ele>
        <time>2021-03-13T17:04:27Z</time>
      </trkpt>
      <trkpt lat="43.02249" lon="0.88285">
        <ele>416</ele>
        <time>2021-03-13T17:04:28Z</time>
      </trkpt>
      <trkpt lat="43.02251" lon="0.88285">
        <ele>415</ele>
        <time>2021-03-13T17:04:29Z</time>
      </trkpt>
      <trkpt lat="43.0226" lon="0.88287">
        <ele>415</ele>
        <time>2021-03-13T17:04:30Z</time>
      </trkpt>
      <trkpt lat="43.02263" lon="0.88288">
        <ele>415</ele>
        <time>2021-03-13T17:04:31Z</time>
      </trkpt>
      <trkpt lat="43.02265" lon="0.88288">
        <ele>415</ele>
        <time>2021-03-13T17:04:32Z</time>
      </trkpt>
      <trkpt lat="43.02274" lon="0.8829">
        <ele>415</ele>
        <time>2021-03-13T17:04:33Z</time>
      </trkpt>
      <trkpt lat="43.02276" lon="0.88291">
        <ele>415</ele>
        <time>2021-03-13T17:04:34Z</time>
      </trkpt>
      <trkpt lat="43.02278" lon="0.88291">
        <ele>415</ele>
        <time>2021-03-13T17:04:35Z</time>
      </trkpt>
      <trkpt lat="43.02287" lon="0.88293">
        <ele>415</ele>
        <time>2021-03-13T17:04:36Z</time>
      </trkpt>
      <trkpt lat="43.02289" lon="0.88293">
        <ele>415</ele>
        <time>2021-03-13T17:04:37Z</time>
      </trkpt>
      <trkpt lat="43.02291" lon="0.88294">
        <ele>415</ele>
        <time>2021-03-13T17:04:38Z</time>
      </trkpt>
      <trkpt lat="43.023" lon="0.88295">
        <ele>415</ele>
        <time>2021-03-13T17:04:39Z</time>
      </trkpt>
      <trkpt lat="43.02302" lon="0.88295">
        <ele>417</ele>
        <time>2021-03-13T17:04:40Z</time>
      </trkpt>
      <trkpt lat="43.02304" lon="0.88296">
        <ele>417</ele>
        <time>2021-03-13T17:04:41Z</time>
      </trkpt>
      <trkpt lat="43.02312" lon="0.88296">
        <ele>417</ele>
        <time>2021-03-13T17:04:42Z</time>
      </trkpt>
      <trkpt lat="43.02314" lon="0.88297">
        <ele>417</ele>
        <time>2021-03-13T17:04:43Z</time>
      </trkpt>
      <trkpt lat="43.02316" lon="0.88297">
        <ele>417</ele>
        <time>2021-03-13T17:04:44Z</time>
      </trkpt>
      <trkpt lat="43.02324" lon="0.88298">
        <ele>418</ele>
        <time>2021-03-13T17:04:45Z</time>
      </trkpt>
      <trkpt lat="43.02326" lon="0.88298">
        <ele>418</ele>
        <time>2021-03-13T17:04:46Z</time>
      </trkpt>
      <trkpt lat="43.02329" lon="0.88298">
        <ele>418</ele>
        <time>2021-03-13T17:04:47Z</time>
      </trkpt>
      <trkpt lat="43.02337" lon="0.88299">
        <ele>418</ele>
        <time>2021-03-13T17:04:48Z</time>
      </trkpt>
      <trkpt lat="43.02339" lon="0.88299">
        <ele>418</ele>
        <time>2021-03-13T17:04:49Z</time>
      </trkpt>
      <trkpt lat="43.02341" lon="0.883">
        <ele>420</ele>
        <time>2021-03-13T17:04:50Z</time>
      </trkpt>
      <trkpt lat="43.02349" lon="0.883">
        <ele>420</ele>
        <time>2021-03-13T17:04:51Z</time>
      </trkpt>
      <trkpt lat="43.02351" lon="0.88301">
        <ele>420</ele>
        <time>2021-03-13T17:04:52Z</time>
      </trkpt>
      <trkpt lat="43.02353" lon="0.88301">
        <ele>420</ele>
        <time>2021-03-13T17:04:53Z</time>
      </trkpt>
      <trkpt lat="43.02362" lon="0.88301">
        <ele>420</ele>
        <time>2021-03-13T17:04:54Z</time>
      </trkpt>
      <trkpt lat="43.02364" lon="0.88302">
        <ele>423</ele>
        <time>2021-03-13T17:04:55Z</time>
      </trkpt>
      <trkpt lat="43.02366" lon="0.88302">
        <ele>423</ele>
        <time>2021-03-13T17:04:56Z</time>
      </trkpt>
      <trkpt lat="43.02375" lon="0.88303">
        <ele>423</ele>
        <time>2021-03-13T17:04:57Z</time>
      </trkpt>
      <trkpt lat="43.02377" lon="0.88304">
        <ele>423</ele>
        <time>2021-03-13T17:04:58Z</time>
      </trkpt>
      <trkpt lat="43.02379" lon="0.88304">
        <ele>423</ele>
        <time>2021-03-13T17:04:59Z</time>
      </trkpt>
      <trkpt lat="43.02386" lon="0.88305">
        <ele>423</ele>
        <time>2021-03-13T17:05:00Z</time>
      </trkpt>
      <trkpt lat="43.02388" lon="0.88306">
        <ele>423</ele>
        <time>2021-03-13T17:05:01Z</time>
      </trkpt>
      <trkpt lat="43.0239" lon="0.88306">
        <ele>423</ele>
        <time>2021-03-13T17:05:02Z</time>
      </trkpt>
      <trkpt lat="43.02397" lon="0.88308">
        <ele>423</ele>
        <time>2021-03-13T17:05:03Z</time>
      </trkpt>
      <trkpt lat="43.02399" lon="0.88309">
        <ele>423</ele>
        <time>2021-03-13T17:05:04Z</time>
      </trkpt>
      <trkpt lat="43.02401" lon="0.88309">
        <ele>424</ele>
        <time>2021-03-13T17:05:05Z</time>
      </trkpt>
      <trkpt lat="43.0241" lon="0.88312">
        <ele>424</ele>
        <time>2021-03-13T17:05:06Z</time>
      </trkpt>
      <trkpt lat="43.02413" lon="0.88313">
        <ele>424</ele>
        <time>2021-03-13T17:05:07Z</time>
      </trkpt>
      <trkpt lat="43.02416" lon="0.88314">
        <ele>424</ele>
        <time>2021-03-13T17:05:08Z</time>
      </trkpt>
      <trkpt lat="43.02418" lon="0.88315">
        <ele>424</ele>
        <time>2021-03-13T17:05:09Z</time>
      </trkpt>
      <trkpt lat="43.0242" lon="0.88316">
        <ele>426</ele>
        <time>2021-03-13T17:05:10Z</time>
      </trkpt>
      <trkpt lat="43.02422" lon="0.88316">
        <ele>426</ele>
        <time>2021-03-13T17:05:11Z</time>
      </trkpt>
      <trkpt lat="43.02429" lon="0.88319">
        <ele>426</ele>
        <time>2021-03-13T17:05:12Z</time>
      </trkpt>
      <trkpt lat="43.02431" lon="0.8832">
        <ele>426</ele>
        <time>2021-03-13T17:05:13Z</time>
      </trkpt>
      <trkpt lat="43.02433" lon="0.88321">
        <ele>426</ele>
        <time>2021-03-13T17:05:14Z</time>
      </trkpt>
      <trkpt lat="43.02434" lon="0.88322">
        <ele>427</ele>
        <time>2021-03-13T17:05:15Z</time>
      </trkpt>
      <trkpt lat="43.02443" lon="0.88326">
        <ele>427</ele>
        <time>2021-03-13T17:05:16Z</time>
      </trkpt>
      <trkpt lat="43.02445" lon="0.88327">
        <ele>427</ele>
        <time>2021-03-13T17:05:17Z</time>
      </trkpt>
      <trkpt lat="43.02447" lon="0.88328">
        <ele>427</ele>
        <time>2021-03-13T17:05:18Z</time>
      </trkpt>
      <trkpt lat="43.02454" lon="0.88332">
        <ele>427</ele>
        <time>2021-03-13T17:05:19Z</time>
      </trkpt>
      <trkpt lat="43.02456" lon="0.88333">
        <ele>428</ele>
        <time>2021-03-13T17:05:20Z</time>
      </trkpt>
      <trkpt lat="43.02458" lon="0.88334">
        <ele>428</ele>
        <time>2021-03-13T17:05:21Z</time>
      </trkpt>
      <trkpt lat="43.02465" lon="0.88337">
        <ele>428</ele>
        <time>2021-03-13T17:05:22Z</time>
      </trkpt>
      <trkpt lat="43.02467" lon="0.88338">
        <ele>428</ele>
        <time>2021-03-13T17:05:23Z</time>
      </trkpt>
      <trkpt lat="43.02469" lon="0.88339">
        <ele>428</ele>
        <time>2021-03-13T17:05:24Z</time>
      </trkpt>
      <trkpt lat="43.02476" lon="0.88343">
        <ele>428</ele>
        <time>2021-03-13T17:05:25Z</time>
      </trkpt>
      <trkpt lat="43.02478" lon="0.88343">
        <ele>428</ele>
        <time>2021-03-13T17:05:26Z</time>
      </trkpt>
      <trkpt lat="43.0248" lon="0.88344">
        <ele>428</ele>
        <time>2021-03-13T17:05:27Z</time>
      </trkpt>
      <trkpt lat="43.02488" lon="0.88348">
        <ele>428</ele>
        <time>2021-03-13T17:05:28Z</time>
      </trkpt>
      <trkpt lat="43.0249" lon="0.88348">
        <ele>428</ele>
        <time>2021-03-13T17:05:29Z</time>
      </trkpt>
      <trkpt lat="43.02492" lon="0.88349">
        <ele>429</ele>
        <time>2021-03-13T17:05:30Z</time>
      </trkpt>
      <trkpt lat="43.02499" lon="0.88353">
        <ele>429</ele>
        <time>2021-03-13T17:05:31Z</time>
      </trkpt>
      <trkpt lat="43.02501" lon="0.88354">
        <ele>429</ele>
        <time>2021-03-13T17:05:32Z</time>
      </trkpt>
      <trkpt lat="43.02503" lon="0.88355">
        <ele>429</ele>
        <time>2021-03-13T17:05:33Z</time>
      </trkpt>
      <trkpt lat="43.0251" lon="0.8836">
        <ele>429</ele>
        <time>2021-03-13T17:05:34Z</time>
      </trkpt>
      <trkpt lat="43.02512" lon="0.88362">
        <ele>429</ele>
        <time>2021-03-13T17:05:35Z</time>
      </trkpt>
      <trkpt lat="43.02513" lon="0.88364">
        <ele>429</ele>
        <time>2021-03-13T17:05:36Z</time>
      </trkpt>
      <trkpt lat="43.02518" lon="0.88374">
        <ele>429</ele>
        <time>2021-03-13T17:05:37Z</time>
      </trkpt>
      <trkpt lat="43.02519" lon="0.88378">
        <ele>429</ele>
        <time>2021-03-13T17:05:38Z</time>
      </trkpt>
      <trkpt lat="43.02519" lon="0.88383">
        <ele>429</ele>
        <time>2021-03-13T17:05:39Z</time>
      </trkpt>
      <trkpt lat="43.02518" lon="0.88385">
        <ele>430</ele>
        <time>2021-03-13T17:05:40Z</time>
      </trkpt>
      <trkpt lat="43.02518" lon="0.88388">
        <ele>430</ele>
        <time>2021-03-13T17:05:41Z</time>
      </trkpt>
      <trkpt lat="43.02517" lon="0.8839">
        <ele>430</ele>
        <time>2021-03-13T17:05:42Z</time>
      </trkpt>
      <trkpt lat="43.02515" lon="0.88399">
        <ele>430</ele>
        <time>2021-03-13T17:05:43Z</time>
      </trkpt>
      <trkpt lat="43.02515" lon="0.88402">
        <ele>430</ele>
        <time>2021-03-13T17:05:44Z</time>
      </trkpt>
      <trkpt lat="43.02514" lon="0.88405">
        <ele>430</ele>
        <time>2021-03-13T17:05:45Z</time>
      </trkpt>
      <trkpt lat="43.02511" lon="0.88417">
        <ele>430</ele>
        <time>2021-03-13T17:05:46Z</time>
      </trkpt>
      <trkpt lat="43.0251" lon="0.88423">
        <ele>430</ele>
        <time>2021-03-13T17:05:47Z</time>
      </trkpt>
      <trkpt lat="43.02508" lon="0.88427">
        <ele>430</ele>
        <time>2021-03-13T17:05:48Z</time>
      </trkpt>
      <trkpt lat="43.02507" lon="0.88431">
        <ele>430</ele>
        <time>2021-03-13T17:05:49Z</time>
      </trkpt>
      <trkpt lat="43.02505" lon="0.88435">
        <ele>430</ele>
        <time>2021-03-13T17:05:50Z</time>
      </trkpt>
      <trkpt lat="43.02504" lon="0.88439">
        <ele>430</ele>
        <time>2021-03-13T17:05:51Z</time>
      </trkpt>
      <trkpt lat="43.02501" lon="0.88445">
        <ele>430</ele>
        <time>2021-03-13T17:05:52Z</time>
      </trkpt>
      <trkpt lat="43.02498" lon="0.88452">
        <ele>430</ele>
        <time>2021-03-13T17:05:53Z</time>
      </trkpt>
      <trkpt lat="43.02495" lon="0.88459">
        <ele>430</ele>
        <time>2021-03-13T17:05:54Z</time>
      </trkpt>
      <trkpt lat="43.02492" lon="0.88464">
        <ele>430</ele>
        <time>2021-03-13T17:05:55Z</time>
      </trkpt>
      <trkpt lat="43.02492" lon="0.88464">
        <ele>430</ele>
        <time>2021-03-13T17:05:56Z</time>
      </trkpt>
      <trkpt lat="43.0249" lon="0.88469">
        <ele>430</ele>
        <time>2021-03-13T17:05:57Z</time>
      </trkpt>
      <trkpt lat="43.02487" lon="0.88473">
        <ele>430</ele>
        <time>2021-03-13T17:05:58Z</time>
      </trkpt>
      <trkpt lat="43.02485" lon="0.88478">
        <ele>430</ele>
        <time>2021-03-13T17:05:59Z</time>
      </trkpt>
      <trkpt lat="43.02482" lon="0.88483">
        <ele>429</ele>
        <time>2021-03-13T17:06:00Z</time>
      </trkpt>
      <trkpt lat="43.0248" lon="0.88488">
        <ele>429</ele>
        <time>2021-03-13T17:06:01Z</time>
      </trkpt>
      <trkpt lat="43.02478" lon="0.88493">
        <ele>429</ele>
        <time>2021-03-13T17:06:02Z</time>
      </trkpt>
      <trkpt lat="43.02478" lon="0.88499">
        <ele>429</ele>
        <time>2021-03-13T17:06:03Z</time>
      </trkpt>
      <trkpt lat="43.02479" lon="0.88505">
        <ele>429</ele>
        <time>2021-03-13T17:06:04Z</time>
      </trkpt>
      <trkpt lat="43.02479" lon="0.88511">
        <ele>429</ele>
        <time>2021-03-13T17:06:05Z</time>
      </trkpt>
      <trkpt lat="43.0248" lon="0.88516">
        <ele>429</ele>
        <time>2021-03-13T17:06:06Z</time>
      </trkpt>
      <trkpt lat="43.0248" lon="0.88522">
        <ele>429</ele>
        <time>2021-03-13T17:06:07Z</time>
      </trkpt>
      <trkpt lat="43.02481" lon="0.88528">
        <ele>429</ele>
        <time>2021-03-13T17:06:08Z</time>
      </trkpt>
      <trkpt lat="43.0248" lon="0.88533">
        <ele>429</ele>
        <time>2021-03-13T17:06:09Z</time>
      </trkpt>
      <trkpt lat="43.02479" lon="0.88539">
        <ele>429</ele>
        <time>2021-03-13T17:06:10Z</time>
      </trkpt>
      <trkpt lat="43.02477" lon="0.88544">
        <ele>429</ele>
        <time>2021-03-13T17:06:11Z</time>
      </trkpt>
      <trkpt lat="43.02476" lon="0.88549">
        <ele>429</ele>
        <time>2021-03-13T17:06:12Z</time>
      </trkpt>
      <trkpt lat="43.02474" lon="0.88554">
        <ele>429</ele>
        <time>2021-03-13T17:06:13Z</time>
      </trkpt>
      <trkpt lat="43.02472" lon="0.88559">
        <ele>429</ele>
        <time>2021-03-13T17:06:14Z</time>
      </trkpt>
      <trkpt lat="43.02471" lon="0.88565">
        <ele>429</ele>
        <time>2021-03-13T17:06:15Z</time>
      </trkpt>
      <trkpt lat="43.02471" lon="0.88571">
        <ele>429</ele>
        <time>2021-03-13T17:06:16Z</time>
      </trkpt>
      <trkpt lat="43.0247" lon="0.88577">
        <ele>429</ele>
        <time>2021-03-13T17:06:17Z</time>
      </trkpt>
      <trkpt lat="43.02469" lon="0.88583">
        <ele>429</ele>
        <time>2021-03-13T17:06:18Z</time>
      </trkpt>
      <trkpt lat="43.02468" lon="0.88588">
        <ele>429</ele>
        <time>2021-03-13T17:06:19Z</time>
      </trkpt>
      <trkpt lat="43.02467" lon="0.88594">
        <ele>430</ele>
        <time>2021-03-13T17:06:20Z</time>
      </trkpt>
      <trkpt lat="43.02467" lon="0.88599">
        <ele>430</ele>
        <time>2021-03-13T17:06:21Z</time>
      </trkpt>
      <trkpt lat="43.02466" lon="0.88605">
        <ele>430</ele>
        <time>2021-03-13T17:06:22Z</time>
      </trkpt>
      <trkpt lat="43.02465" lon="0.8861">
        <ele>430</ele>
        <time>2021-03-13T17:06:23Z</time>
      </trkpt>
      <trkpt lat="43.02465" lon="0.88616">
        <ele>430</ele>
        <time>2021-03-13T17:06:24Z</time>
      </trkpt>
      <trkpt lat="43.02464" lon="0.88621">
        <ele>430</ele>
        <time>2021-03-13T17:06:25Z</time>
      </trkpt>
      <trkpt lat="43.02463" lon="0.88627">
        <ele>430</ele>
        <time>2021-03-13T17:06:26Z</time>
      </trkpt>
      <trkpt lat="43.02462" lon="0.88632">
        <ele>430</ele>
        <time>2021-03-13T17:06:27Z</time>
      </trkpt>
      <trkpt lat="43.02461" lon="0.88638">
        <ele>430</ele>
        <time>2021-03-13T17:06:28Z</time>
      </trkpt>
      <trkpt lat="43.0246" lon="0.88643">
        <ele>430</ele>
        <time>2021-03-13T17:06:29Z</time>
      </trkpt>
      <trkpt lat="43.02458" lon="0.88648">
        <ele>432</ele>
        <time>2021-03-13T17:06:30Z</time>
      </trkpt>
      <trkpt lat="43.02456" lon="0.88654">
        <ele>432</ele>
        <time>2021-03-13T17:06:31Z</time>
      </trkpt>
      <trkpt lat="43.02454" lon="0.88659">
        <ele>432</ele>
        <time>2021-03-13T17:06:32Z</time>
      </trkpt>
      <trkpt lat="43.02452" lon="0.88664">
        <ele>432</ele>
        <time>2021-03-13T17:06:33Z</time>
      </trkpt>
      <trkpt lat="43.02449" lon="0.88668">
        <ele>432</ele>
        <time>2021-03-13T17:06:34Z</time>
      </trkpt>
      <trkpt lat="43.02447" lon="0.88673">
        <ele>432</ele>
        <time>2021-03-13T17:06:35Z</time>
      </trkpt>
      <trkpt lat="43.02443" lon="0.8868">
        <ele>432</ele>
        <time>2021-03-13T17:06:36Z</time>
      </trkpt>
      <trkpt lat="43.0244" lon="0.88686">
        <ele>432</ele>
        <time>2021-03-13T17:06:37Z</time>
      </trkpt>
      <trkpt lat="43.02436" lon="0.88692">
        <ele>432</ele>
        <time>2021-03-13T17:06:38Z</time>
      </trkpt>
      <trkpt lat="43.02433" lon="0.88698">
        <ele>432</ele>
        <time>2021-03-13T17:06:39Z</time>
      </trkpt>
      <trkpt lat="43.02433" lon="0.88698">
        <ele>433</ele>
        <time>2021-03-13T17:06:40Z</time>
      </trkpt>
      <trkpt lat="43.02422" lon="0.88713">
        <ele>433</ele>
        <time>2021-03-13T17:06:41Z</time>
      </trkpt>
      <trkpt lat="43.02419" lon="0.88716">
        <ele>433</ele>
        <time>2021-03-13T17:06:42Z</time>
      </trkpt>
      <trkpt lat="43.02412" lon="0.88726">
        <ele>433</ele>
        <time>2021-03-13T17:06:43Z</time>
      </trkpt>
      <trkpt lat="43.02409" lon="0.8873">
        <ele>433</ele>
        <time>2021-03-13T17:06:44Z</time>
      </trkpt>
      <trkpt lat="43.02401" lon="0.88742">
        <ele>433</ele>
        <time>2021-03-13T17:06:45Z</time>
      </trkpt>
      <trkpt lat="43.02398" lon="0.88746">
        <ele>433</ele>
        <time>2021-03-13T17:06:46Z</time>
      </trkpt>
      <trkpt lat="43.02389" lon="0.88759">
        <ele>433</ele>
        <time>2021-03-13T17:06:47Z</time>
      </trkpt>
      <trkpt lat="43.02386" lon="0.88764">
        <ele>433</ele>
        <time>2021-03-13T17:06:48Z</time>
      </trkpt>
      <trkpt lat="43.02378" lon="0.88779">
        <ele>433</ele>
        <time>2021-03-13T17:06:49Z</time>
      </trkpt>
      <trkpt lat="43.02375" lon="0.88784">
        <ele>427</ele>
        <time>2021-03-13T17:06:50Z</time>
      </trkpt>
      <trkpt lat="43.02368" lon="0.888">
        <ele>423</ele>
        <time>2021-03-13T17:06:51Z</time>
      </trkpt>
      <trkpt lat="43.02366" lon="0.88805">
        <ele>423</ele>
        <time>2021-03-13T17:06:52Z</time>
      </trkpt>
      <trkpt lat="43.02359" lon="0.88819">
        <ele>423</ele>
        <time>2021-03-13T17:06:53Z</time>
      </trkpt>
      <trkpt lat="43.02357" lon="0.88823">
        <ele>423</ele>
        <time>2021-03-13T17:06:54Z</time>
      </trkpt>
      <trkpt lat="43.0235" lon="0.88836">
        <ele>423</ele>
        <time>2021-03-13T17:06:55Z</time>
      </trkpt>
      <trkpt lat="43.02348" lon="0.8884">
        <ele>423</ele>
        <time>2021-03-13T17:06:56Z</time>
      </trkpt>
      <trkpt lat="43.02343" lon="0.8885">
        <ele>423</ele>
        <time>2021-03-13T17:06:57Z</time>
      </trkpt>
      <trkpt lat="43.02341" lon="0.88853">
        <ele>425</ele>
        <time>2021-03-13T17:06:58Z</time>
      </trkpt>
      <trkpt lat="43.02337" lon="0.88863">
        <ele>425</ele>
        <time>2021-03-13T17:06:59Z</time>
      </trkpt>
      <trkpt lat="43.02335" lon="0.88866">
        <ele>425</ele>
        <time>2021-03-13T17:07:00Z</time>
      </trkpt>
      <trkpt lat="43.02333" lon="0.88871">
        <ele>425</ele>
        <time>2021-03-13T17:07:01Z</time>
      </trkpt>
      <trkpt lat="43.02333" lon="0.88871">
        <ele>425</ele>
        <time>2021-03-13T17:07:02Z</time>
      </trkpt>
      <trkpt lat="43.0233" lon="0.88877">
        <ele>425</ele>
        <time>2021-03-13T17:07:03Z</time>
      </trkpt>
      <trkpt lat="43.02328" lon="0.88882">
        <ele>425</ele>
        <time>2021-03-13T17:07:04Z</time>
      </trkpt>
      <trkpt lat="43.02325" lon="0.88887">
        <ele>425</ele>
        <time>2021-03-13T17:07:05Z</time>
      </trkpt>
      <trkpt lat="43.02323" lon="0.88892">
        <ele>425</ele>
        <time>2021-03-13T17:07:06Z</time>
      </trkpt>
      <trkpt lat="43.0232" lon="0.88898">
        <ele>425</ele>
        <time>2021-03-13T17:07:07Z</time>
      </trkpt>
      <trkpt lat="43.02318" lon="0.88903">
        <ele>425</ele>
        <time>2021-03-13T17:07:08Z</time>
      </trkpt>
      <trkpt lat="43.02316" lon="0.88908">
        <ele>425</ele>
        <time>2021-03-13T17:07:09Z</time>
      </trkpt>
      <trkpt lat="43.02314" lon="0.88912">
        <ele>428</ele>
        <time>2021-03-13T17:07:10Z</time>
      </trkpt>
      <trkpt lat="43.02312" lon="0.88917">
        <ele>428</ele>
        <time>2021-03-13T17:07:11Z</time>
      </trkpt>
      <trkpt lat="43.02309" lon="0.88921">
        <ele>428</ele>
        <time>2021-03-13T17:07:12Z</time>
      </trkpt>
      <trkpt lat="43.02307" lon="0.88924">
        <ele>428</ele>
        <time>2021-03-13T17:07:13Z</time>
      </trkpt>
      <trkpt lat="43.02305" lon="0.88928">
        <ele>428</ele>
        <time>2021-03-13T17:07:14Z</time>
      </trkpt>
      <trkpt lat="43.02302" lon="0.88929">
        <ele>429</ele>
        <time>2021-03-13T17:07:15Z</time>
      </trkpt>
      <trkpt lat="43.02298" lon="0.88929">
        <ele>429</ele>
        <time>2021-03-13T17:07:16Z</time>
      </trkpt>
      <trkpt lat="43.02295" lon="0.8893">
        <ele>429</ele>
        <time>2021-03-13T17:07:17Z</time>
      </trkpt>
      <trkpt lat="43.02289" lon="0.88927">
        <ele>429</ele>
        <time>2021-03-13T17:07:18Z</time>
      </trkpt>
      <trkpt lat="43.02283" lon="0.88925">
        <ele>429</ele>
        <time>2021-03-13T17:07:19Z</time>
      </trkpt>
      <trkpt lat="43.02277" lon="0.88922">
        <ele>428</ele>
        <time>2021-03-13T17:07:20Z</time>
      </trkpt>
      <trkpt lat="43.02268" lon="0.88919">
        <ele>428</ele>
        <time>2021-03-13T17:07:21Z</time>
      </trkpt>
      <trkpt lat="43.02265" lon="0.88917">
        <ele>428</ele>
        <time>2021-03-13T17:07:22Z</time>
      </trkpt>
      <trkpt lat="43.02256" lon="0.88913">
        <ele>428</ele>
        <time>2021-03-13T17:07:23Z</time>
      </trkpt>
      <trkpt lat="43.02252" lon="0.88912">
        <ele>428</ele>
        <time>2021-03-13T17:07:24Z</time>
      </trkpt>
      <trkpt lat="43.02242" lon="0.88908">
        <ele>428</ele>
        <time>2021-03-13T17:07:25Z</time>
      </trkpt>
      <trkpt lat="43.02238" lon="0.88907">
        <ele>428</ele>
        <time>2021-03-13T17:07:26Z</time>
      </trkpt>
      <trkpt lat="43.02227" lon="0.88904">
        <ele>428</ele>
        <time>2021-03-13T17:07:27Z</time>
      </trkpt>
      <trkpt lat="43.02224" lon="0.88903">
        <ele>428</ele>
        <time>2021-03-13T17:07:28Z</time>
      </trkpt>
      <trkpt lat="43.02212" lon="0.889">
        <ele>428</ele>
        <time>2021-03-13T17:07:29Z</time>
      </trkpt>
      <trkpt lat="43.02209" lon="0.88899">
        <ele>425</ele>
        <time>2021-03-13T17:07:30Z</time>
      </trkpt>
      <trkpt lat="43.02197" lon="0.88896">
        <ele>425</ele>
        <time>2021-03-13T17:07:31Z</time>
      </trkpt>
      <trkpt lat="43.02194" lon="0.88896">
        <ele>425</ele>
        <time>2021-03-13T17:07:32Z</time>
      </trkpt>
      <trkpt lat="43.02182" lon="0.88893">
        <ele>425</ele>
        <time>2021-03-13T17:07:33Z</time>
      </trkpt>
      <trkpt lat="43.02179" lon="0.88893">
        <ele>425</ele>
        <time>2021-03-13T17:07:34Z</time>
      </trkpt>
      <trkpt lat="43.02167" lon="0.88891">
        <ele>422</ele>
        <time>2021-03-13T17:07:35Z</time>
      </trkpt>
      <trkpt lat="43.02164" lon="0.88891">
        <ele>422</ele>
        <time>2021-03-13T17:07:36Z</time>
      </trkpt>
      <trkpt lat="43.02157" lon="0.8889">
        <ele>422</ele>
        <time>2021-03-13T17:07:37Z</time>
      </trkpt>
      <trkpt lat="43.02157" lon="0.8889">
        <ele>422</ele>
        <time>2021-03-13T17:07:38Z</time>
      </trkpt>
      <trkpt lat="43.02151" lon="0.88889">
        <ele>422</ele>
        <time>2021-03-13T17:07:39Z</time>
      </trkpt>
      <trkpt lat="43.02146" lon="0.88889">
        <ele>419</ele>
        <time>2021-03-13T17:07:40Z</time>
      </trkpt>
      <trkpt lat="43.02141" lon="0.88888">
        <ele>418</ele>
        <time>2021-03-13T17:07:41Z</time>
      </trkpt>
      <trkpt lat="43.02138" lon="0.88891">
        <ele>417</ele>
        <time>2021-03-13T17:07:42Z</time>
      </trkpt>
      <trkpt lat="43.02135" lon="0.88894">
        <ele>417</ele>
        <time>2021-03-13T17:07:43Z</time>
      </trkpt>
      <trkpt lat="43.02132" lon="0.88896">
        <ele>417</ele>
        <time>2021-03-13T17:07:44Z</time>
      </trkpt>
      <trkpt lat="43.02132" lon="0.88902">
        <ele>418</ele>
        <time>2021-03-13T17:07:45Z</time>
      </trkpt>
      <trkpt lat="43.02132" lon="0.88908">
        <ele>418</ele>
        <time>2021-03-13T17:07:46Z</time>
      </trkpt>
      <trkpt lat="43.02133" lon="0.88914">
        <ele>418</ele>
        <time>2021-03-13T17:07:47Z</time>
      </trkpt>
      <trkpt lat="43.02133" lon="0.88921">
        <ele>418</ele>
        <time>2021-03-13T17:07:48Z</time>
      </trkpt>
      <trkpt lat="43.02133" lon="0.88927">
        <ele>418</ele>
        <time>2021-03-13T17:07:49Z</time>
      </trkpt>
      <trkpt lat="43.02133" lon="0.88933">
        <ele>418</ele>
        <time>2021-03-13T17:07:50Z</time>
      </trkpt>
      <trkpt lat="43.02134" lon="0.88942">
        <ele>418</ele>
        <time>2021-03-13T17:07:51Z</time>
      </trkpt>
      <trkpt lat="43.02134" lon="0.8895">
        <ele>418</ele>
        <time>2021-03-13T17:07:52Z</time>
      </trkpt>
      <trkpt lat="43.02134" lon="0.88958">
        <ele>418</ele>
        <time>2021-03-13T17:07:53Z</time>
      </trkpt>
      <trkpt lat="43.02134" lon="0.88964">
        <ele>418</ele>
        <time>2021-03-13T17:07:54Z</time>
      </trkpt>
      <trkpt lat="43.02134" lon="0.88964">
        <ele>418</ele>
        <time>2021-03-13T17:07:55Z</time>
      </trkpt>
      <trkpt lat="43.02134" lon="0.8897">
        <ele>418</ele>
        <time>2021-03-13T17:07:56Z</time>
      </trkpt>
      <trkpt lat="43.02133" lon="0.88976">
        <ele>418</ele>
        <time>2021-03-13T17:07:57Z</time>
      </trkpt>
      <trkpt lat="43.02133" lon="0.88982">
        <ele>418</ele>
        <time>2021-03-13T17:07:58Z</time>
      </trkpt>
      <trkpt lat="43.02133" lon="0.88988">
        <ele>418</ele>
        <time>2021-03-13T17:07:59Z</time>
      </trkpt>
      <trkpt lat="43.02132" lon="0.88993">
        <ele>418</ele>
        <time>2021-03-13T17:08:00Z</time>
      </trkpt>
      <trkpt lat="43.02132" lon="0.88999">
        <ele>418</ele>
        <time>2021-03-13T17:08:01Z</time>
      </trkpt>
      <trkpt lat="43.02131" lon="0.89005">
        <ele>418</ele>
        <time>2021-03-13T17:08:02Z</time>
      </trkpt>
      <trkpt lat="43.02131" lon="0.89011">
        <ele>418</ele>
        <time>2021-03-13T17:08:03Z</time>
      </trkpt>
      <trkpt lat="43.02131" lon="0.89016">
        <ele>418</ele>
        <time>2021-03-13T17:08:04Z</time>
      </trkpt>
      <trkpt lat="43.02131" lon="0.89022">
        <ele>418</ele>
        <time>2021-03-13T17:08:05Z</time>
      </trkpt>
      <trkpt lat="43.02131" lon="0.89028">
        <ele>418</ele>
        <time>2021-03-13T17:08:06Z</time>
      </trkpt>
      <trkpt lat="43.02131" lon="0.89033">
        <ele>418</ele>
        <time>2021-03-13T17:08:07Z</time>
      </trkpt>
      <trkpt lat="43.02131" lon="0.89039">
        <ele>418</ele>
        <time>2021-03-13T17:08:08Z</time>
      </trkpt>
      <trkpt lat="43.02132" lon="0.89045">
        <ele>418</ele>
        <time>2021-03-13T17:08:09Z</time>
      </trkpt>
      <trkpt lat="43.02132" lon="0.8905">
        <ele>420</ele>
        <time>2021-03-13T17:08:10Z</time>
      </trkpt>
      <trkpt lat="43.02133" lon="0.89057">
        <ele>420</ele>
        <time>2021-03-13T17:08:11Z</time>
      </trkpt>
      <trkpt lat="43.02135" lon="0.89064">
        <ele>420</ele>
        <time>2021-03-13T17:08:12Z</time>
      </trkpt>
      <trkpt lat="43.02136" lon="0.89071">
        <ele>420</ele>
        <time>2021-03-13T17:08:13Z</time>
      </trkpt>
      <trkpt lat="43.02138" lon="0.89076">
        <ele>420</ele>
        <time>2021-03-13T17:08:14Z</time>
      </trkpt>
      <trkpt lat="43.0214" lon="0.89081">
        <ele>420</ele>
        <time>2021-03-13T17:08:15Z</time>
      </trkpt>
      <trkpt lat="43.02142" lon="0.89086">
        <ele>420</ele>
        <time>2021-03-13T17:08:16Z</time>
      </trkpt>
      <trkpt lat="43.02145" lon="0.89092">
        <ele>420</ele>
        <time>2021-03-13T17:08:17Z</time>
      </trkpt>
      <trkpt lat="43.02148" lon="0.89097">
        <ele>420</ele>
        <time>2021-03-13T17:08:18Z</time>
      </trkpt>
      <trkpt lat="43.02151" lon="0.89102">
        <ele>420</ele>
        <time>2021-03-13T17:08:19Z</time>
      </trkpt>
      <trkpt lat="43.02154" lon="0.89107">
        <ele>420</ele>
        <time>2021-03-13T17:08:20Z</time>
      </trkpt>
      <trkpt lat="43.02157" lon="0.89112">
        <ele>420</ele>
        <time>2021-03-13T17:08:21Z</time>
      </trkpt>
      <trkpt lat="43.02161" lon="0.89117">
        <ele>420</ele>
        <time>2021-03-13T17:08:22Z</time>
      </trkpt>
      <trkpt lat="43.02162" lon="0.8912">
        <ele>420</ele>
        <time>2021-03-13T17:08:23Z</time>
      </trkpt>
      <trkpt lat="43.02164" lon="0.89123">
        <ele>420</ele>
        <time>2021-03-13T17:08:24Z</time>
      </trkpt>
      <trkpt lat="43.0217" lon="0.8913">
        <ele>420</ele>
        <time>2021-03-13T17:08:25Z</time>
      </trkpt>
      <trkpt lat="43.02171" lon="0.89133">
        <ele>420</ele>
        <time>2021-03-13T17:08:26Z</time>
      </trkpt>
      <trkpt lat="43.02177" lon="0.89144">
        <ele>420</ele>
        <time>2021-03-13T17:08:27Z</time>
      </trkpt>
      <trkpt lat="43.0218" lon="0.8915">
        <ele>420</ele>
        <time>2021-03-13T17:08:28Z</time>
      </trkpt>
      <trkpt lat="43.02182" lon="0.89156">
        <ele>420</ele>
        <time>2021-03-13T17:08:29Z</time>
      </trkpt>
      <trkpt lat="43.02184" lon="0.89163">
        <ele>420</ele>
        <time>2021-03-13T17:08:30Z</time>
      </trkpt>
      <trkpt lat="43.02185" lon="0.89166">
        <ele>420</ele>
        <time>2021-03-13T17:08:31Z</time>
      </trkpt>
      <trkpt lat="43.02186" lon="0.89169">
        <ele>420</ele>
        <time>2021-03-13T17:08:32Z</time>
      </trkpt>
      <trkpt lat="43.02187" lon="0.89172">
        <ele>420</ele>
        <time>2021-03-13T17:08:33Z</time>
      </trkpt>
      <trkpt lat="43.02189" lon="0.89184">
        <ele>420</ele>
        <time>2021-03-13T17:08:34Z</time>
      </trkpt>
      <trkpt lat="43.02189" lon="0.89187">
        <ele>420</ele>
        <time>2021-03-13T17:08:35Z</time>
      </trkpt>
      <trkpt lat="43.02189" lon="0.8919">
        <ele>420</ele>
        <time>2021-03-13T17:08:36Z</time>
      </trkpt>
      <trkpt lat="43.02188" lon="0.89203">
        <ele>420</ele>
        <time>2021-03-13T17:08:37Z</time>
      </trkpt>
      <trkpt lat="43.02187" lon="0.89207">
        <ele>420</ele>
        <time>2021-03-13T17:08:38Z</time>
      </trkpt>
      <trkpt lat="43.02186" lon="0.89212">
        <ele>420</ele>
        <time>2021-03-13T17:08:39Z</time>
      </trkpt>
      <trkpt lat="43.02186" lon="0.89214">
        <ele>422</ele>
        <time>2021-03-13T17:08:40Z</time>
      </trkpt>
      <trkpt lat="43.02186" lon="0.89216">
        <ele>422</ele>
        <time>2021-03-13T17:08:41Z</time>
      </trkpt>
      <trkpt lat="43.02186" lon="0.89219">
        <ele>422</ele>
        <time>2021-03-13T17:08:42Z</time>
      </trkpt>
      <trkpt lat="43.02185" lon="0.8923">
        <ele>422</ele>
        <time>2021-03-13T17:08:43Z</time>
      </trkpt>
      <trkpt lat="43.02186" lon="0.89235">
        <ele>422</ele>
        <time>2021-03-13T17:08:44Z</time>
      </trkpt>
      <trkpt lat="43.02186" lon="0.8924">
        <ele>422</ele>
        <time>2021-03-13T17:08:45Z</time>
      </trkpt>
      <trkpt lat="43.02185" lon="0.89244">
        <ele>422</ele>
        <time>2021-03-13T17:08:46Z</time>
      </trkpt>
      <trkpt lat="43.02185" lon="0.89249">
        <ele>422</ele>
        <time>2021-03-13T17:08:47Z</time>
      </trkpt>
      <trkpt lat="43.02185" lon="0.89254">
        <ele>422</ele>
        <time>2021-03-13T17:08:48Z</time>
      </trkpt>
      <trkpt lat="43.02185" lon="0.89256">
        <ele>422</ele>
        <time>2021-03-13T17:08:49Z</time>
      </trkpt>
      <trkpt lat="43.02186" lon="0.89258">
        <ele>424</ele>
        <time>2021-03-13T17:08:50Z</time>
      </trkpt>
      <trkpt lat="43.02186" lon="0.8926">
        <ele>424</ele>
        <time>2021-03-13T17:08:51Z</time>
      </trkpt>
      <trkpt lat="43.02187" lon="0.89272">
        <ele>424</ele>
        <time>2021-03-13T17:08:52Z</time>
      </trkpt>
      <trkpt lat="43.02188" lon="0.89277">
        <ele>424</ele>
        <time>2021-03-13T17:08:53Z</time>
      </trkpt>
      <trkpt lat="43.02188" lon="0.89282">
        <ele>424</ele>
        <time>2021-03-13T17:08:54Z</time>
      </trkpt>
      <trkpt lat="43.02189" lon="0.89284">
        <ele>426</ele>
        <time>2021-03-13T17:08:55Z</time>
      </trkpt>
      <trkpt lat="43.02189" lon="0.89286">
        <ele>426</ele>
        <time>2021-03-13T17:08:56Z</time>
      </trkpt>
      <trkpt lat="43.0219" lon="0.89289">
        <ele>426</ele>
        <time>2021-03-13T17:08:57Z</time>
      </trkpt>
      <trkpt lat="43.02191" lon="0.89298">
        <ele>426</ele>
        <time>2021-03-13T17:08:58Z</time>
      </trkpt>
      <trkpt lat="43.02192" lon="0.893">
        <ele>426</ele>
        <time>2021-03-13T17:08:59Z</time>
      </trkpt>
      <trkpt lat="43.02192" lon="0.89302">
        <ele>427</ele>
        <time>2021-03-13T17:09:00Z</time>
      </trkpt>
      <trkpt lat="43.02193" lon="0.89305">
        <ele>427</ele>
        <time>2021-03-13T17:09:01Z</time>
      </trkpt>
      <trkpt lat="43.02195" lon="0.89316">
        <ele>427</ele>
        <time>2021-03-13T17:09:02Z</time>
      </trkpt>
      <trkpt lat="43.02195" lon="0.89318">
        <ele>427</ele>
        <time>2021-03-13T17:09:03Z</time>
      </trkpt>
      <trkpt lat="43.02195" lon="0.8932">
        <ele>427</ele>
        <time>2021-03-13T17:09:04Z</time>
      </trkpt>
      <trkpt lat="43.02196" lon="0.89322">
        <ele>428</ele>
        <time>2021-03-13T17:09:05Z</time>
      </trkpt>
      <trkpt lat="43.02198" lon="0.89336">
        <ele>428</ele>
        <time>2021-03-13T17:09:06Z</time>
      </trkpt>
      <trkpt lat="43.02199" lon="0.8934">
        <ele>428</ele>
        <time>2021-03-13T17:09:07Z</time>
      </trkpt>
      <trkpt lat="43.022" lon="0.89344">
        <ele>428</ele>
        <time>2021-03-13T17:09:08Z</time>
      </trkpt>
      <trkpt lat="43.022" lon="0.89347">
        <ele>428</ele>
        <time>2021-03-13T17:09:09Z</time>
      </trkpt>
      <trkpt lat="43.022" lon="0.89349">
        <ele>429</ele>
        <time>2021-03-13T17:09:10Z</time>
      </trkpt>
      <trkpt lat="43.02201" lon="0.89351">
        <ele>429</ele>
        <time>2021-03-13T17:09:11Z</time>
      </trkpt>
      <trkpt lat="43.02201" lon="0.89353">
        <ele>429</ele>
        <time>2021-03-13T17:09:12Z</time>
      </trkpt>
      <trkpt lat="43.02203" lon="0.89363">
        <ele>429</ele>
        <time>2021-03-13T17:09:13Z</time>
      </trkpt>
      <trkpt lat="43.02204" lon="0.89366">
        <ele>429</ele>
        <time>2021-03-13T17:09:14Z</time>
      </trkpt>
      <trkpt lat="43.02204" lon="0.89368">
        <ele>431</ele>
        <time>2021-03-13T17:09:15Z</time>
      </trkpt>
      <trkpt lat="43.02204" lon="0.8937">
        <ele>431</ele>
        <time>2021-03-13T17:09:16Z</time>
      </trkpt>
      <trkpt lat="43.02206" lon="0.8938">
        <ele>431</ele>
        <time>2021-03-13T17:09:17Z</time>
      </trkpt>
      <trkpt lat="43.02206" lon="0.89382">
        <ele>431</ele>
        <time>2021-03-13T17:09:18Z</time>
      </trkpt>
      <trkpt lat="43.02207" lon="0.89384">
        <ele>431</ele>
        <time>2021-03-13T17:09:19Z</time>
      </trkpt>
      <trkpt lat="43.02207" lon="0.89386">
        <ele>431</ele>
        <time>2021-03-13T17:09:20Z</time>
      </trkpt>
      <trkpt lat="43.02208" lon="0.89397">
        <ele>431</ele>
        <time>2021-03-13T17:09:21Z</time>
      </trkpt>
      <trkpt lat="43.02209" lon="0.89399">
        <ele>431</ele>
        <time>2021-03-13T17:09:22Z</time>
      </trkpt>
      <trkpt lat="43.02209" lon="0.89401">
        <ele>431</ele>
        <time>2021-03-13T17:09:23Z</time>
      </trkpt>
      <trkpt lat="43.02209" lon="0.89404">
        <ele>431</ele>
        <time>2021-03-13T17:09:24Z</time>
      </trkpt>
      <trkpt lat="43.0221" lon="0.89414">
        <ele>431</ele>
        <time>2021-03-13T17:09:25Z</time>
      </trkpt>
      <trkpt lat="43.02211" lon="0.89417">
        <ele>431</ele>
        <time>2021-03-13T17:09:26Z</time>
      </trkpt>
      <trkpt lat="43.02211" lon="0.89419">
        <ele>431</ele>
        <time>2021-03-13T17:09:27Z</time>
      </trkpt>
      <trkpt lat="43.02211" lon="0.89421">
        <ele>431</ele>
        <time>2021-03-13T17:09:28Z</time>
      </trkpt>
      <trkpt lat="43.02212" lon="0.89432">
        <ele>431</ele>
        <time>2021-03-13T17:09:29Z</time>
      </trkpt>
      <trkpt lat="43.02212" lon="0.89434">
        <ele>433</ele>
        <time>2021-03-13T17:09:30Z</time>
      </trkpt>
      <trkpt lat="43.02213" lon="0.89436">
        <ele>433</ele>
        <time>2021-03-13T17:09:31Z</time>
      </trkpt>
      <trkpt lat="43.02213" lon="0.89438">
        <ele>433</ele>
        <time>2021-03-13T17:09:32Z</time>
      </trkpt>
      <trkpt lat="43.02214" lon="0.89449">
        <ele>433</ele>
        <time>2021-03-13T17:09:33Z</time>
      </trkpt>
      <trkpt lat="43.02214" lon="0.8945">
        <ele>433</ele>
        <time>2021-03-13T17:09:34Z</time>
      </trkpt>
      <trkpt lat="43.02214" lon="0.89452">
        <ele>433</ele>
        <time>2021-03-13T17:09:35Z</time>
      </trkpt>
      <trkpt lat="43.02214" lon="0.89454">
        <ele>433</ele>
        <time>2021-03-13T17:09:36Z</time>
      </trkpt>
      <trkpt lat="43.02215" lon="0.89464">
        <ele>433</ele>
        <time>2021-03-13T17:09:37Z</time>
      </trkpt>
      <trkpt lat="43.02216" lon="0.89466">
        <ele>433</ele>
        <time>2021-03-13T17:09:38Z</time>
      </trkpt>
      <trkpt lat="43.02216" lon="0.89467">
        <ele>433</ele>
        <time>2021-03-13T17:09:39Z</time>
      </trkpt>
      <trkpt lat="43.02217" lon="0.89469">
        <ele>436</ele>
        <time>2021-03-13T17:09:40Z</time>
      </trkpt>
      <trkpt lat="43.0222" lon="0.89479">
        <ele>436</ele>
        <time>2021-03-13T17:09:41Z</time>
      </trkpt>
      <trkpt lat="43.02221" lon="0.89482">
        <ele>436</ele>
        <time>2021-03-13T17:09:42Z</time>
      </trkpt>
      <trkpt lat="43.02223" lon="0.89485">
        <ele>436</ele>
        <time>2021-03-13T17:09:43Z</time>
      </trkpt>
      <trkpt lat="43.02224" lon="0.89488">
        <ele>436</ele>
        <time>2021-03-13T17:09:44Z</time>
      </trkpt>
      <trkpt lat="43.02225" lon="0.8949">
        <ele>439</ele>
        <time>2021-03-13T17:09:45Z</time>
      </trkpt>
      <trkpt lat="43.02226" lon="0.89491">
        <ele>439</ele>
        <time>2021-03-13T17:09:46Z</time>
      </trkpt>
      <trkpt lat="43.02227" lon="0.89492">
        <ele>439</ele>
        <time>2021-03-13T17:09:47Z</time>
      </trkpt>
      <trkpt lat="43.02228" lon="0.89494">
        <ele>439</ele>
        <time>2021-03-13T17:09:48Z</time>
      </trkpt>
      <trkpt lat="43.02233" lon="0.895">
        <ele>439</ele>
        <time>2021-03-13T17:09:49Z</time>
      </trkpt>
      <trkpt lat="43.02234" lon="0.89501">
        <ele>441</ele>
        <time>2021-03-13T17:09:50Z</time>
      </trkpt>
      <trkpt lat="43.02236" lon="0.89502">
        <ele>441</ele>
        <time>2021-03-13T17:09:51Z</time>
      </trkpt>
      <trkpt lat="43.02237" lon="0.89503">
        <ele>441</ele>
        <time>2021-03-13T17:09:52Z</time>
      </trkpt>
      <trkpt lat="43.02243" lon="0.89508">
        <ele>441</ele>
        <time>2021-03-13T17:09:53Z</time>
      </trkpt>
      <trkpt lat="43.02245" lon="0.89509">
        <ele>441</ele>
        <time>2021-03-13T17:09:54Z</time>
      </trkpt>
      <trkpt lat="43.02247" lon="0.89509">
        <ele>441</ele>
        <time>2021-03-13T17:09:55Z</time>
      </trkpt>
      <trkpt lat="43.02253" lon="0.89512">
        <ele>441</ele>
        <time>2021-03-13T17:09:56Z</time>
      </trkpt>
      <trkpt lat="43.02256" lon="0.89513">
        <ele>441</ele>
        <time>2021-03-13T17:09:57Z</time>
      </trkpt>
      <trkpt lat="43.02258" lon="0.89513">
        <ele>441</ele>
        <time>2021-03-13T17:09:58Z</time>
      </trkpt>
      <trkpt lat="43.02267" lon="0.89516">
        <ele>441</ele>
        <time>2021-03-13T17:09:59Z</time>
      </trkpt>
      <trkpt lat="43.02269" lon="0.89517">
        <ele>441</ele>
        <time>2021-03-13T17:10:00Z</time>
      </trkpt>
      <trkpt lat="43.02276" lon="0.89522">
        <ele>441</ele>
        <time>2021-03-13T17:10:01Z</time>
      </trkpt>
      <trkpt lat="43.02279" lon="0.89524">
        <ele>441</ele>
        <time>2021-03-13T17:10:02Z</time>
      </trkpt>
      <trkpt lat="43.02285" lon="0.89532">
        <ele>441</ele>
        <time>2021-03-13T17:10:03Z</time>
      </trkpt>
      <trkpt lat="43.02286" lon="0.89535">
        <ele>441</ele>
        <time>2021-03-13T17:10:04Z</time>
      </trkpt>
      <trkpt lat="43.02291" lon="0.89545">
        <ele>441</ele>
        <time>2021-03-13T17:10:05Z</time>
      </trkpt>
      <trkpt lat="43.02293" lon="0.89548">
        <ele>441</ele>
        <time>2021-03-13T17:10:06Z</time>
      </trkpt>
      <trkpt lat="43.02297" lon="0.89558">
        <ele>441</ele>
        <time>2021-03-13T17:10:07Z</time>
      </trkpt>
      <trkpt lat="43.02299" lon="0.89562">
        <ele>441</ele>
        <time>2021-03-13T17:10:08Z</time>
      </trkpt>
      <trkpt lat="43.02302" lon="0.89572">
        <ele>441</ele>
        <time>2021-03-13T17:10:09Z</time>
      </trkpt>
      <trkpt lat="43.02303" lon="0.89575">
        <ele>440</ele>
        <time>2021-03-13T17:10:10Z</time>
      </trkpt>
      <trkpt lat="43.02305" lon="0.89586">
        <ele>440</ele>
        <time>2021-03-13T17:10:11Z</time>
      </trkpt>
      <trkpt lat="43.02306" lon="0.89589">
        <ele>440</ele>
        <time>2021-03-13T17:10:12Z</time>
      </trkpt>
      <trkpt lat="43.02307" lon="0.896">
        <ele>440</ele>
        <time>2021-03-13T17:10:13Z</time>
      </trkpt>
      <trkpt lat="43.02307" lon="0.89604">
        <ele>440</ele>
        <time>2021-03-13T17:10:14Z</time>
      </trkpt>
      <trkpt lat="43.02309" lon="0.89616">
        <ele>440</ele>
        <time>2021-03-13T17:10:15Z</time>
      </trkpt>
      <trkpt lat="43.0231" lon="0.8962">
        <ele>440</ele>
        <time>2021-03-13T17:10:16Z</time>
      </trkpt>
      <trkpt lat="43.02314" lon="0.89632">
        <ele>440</ele>
        <time>2021-03-13T17:10:17Z</time>
      </trkpt>
      <trkpt lat="43.02314" lon="0.89636">
        <ele>440</ele>
        <time>2021-03-13T17:10:18Z</time>
      </trkpt>
      <trkpt lat="43.02316" lon="0.89645">
        <ele>440</ele>
        <time>2021-03-13T17:10:19Z</time>
      </trkpt>
      <trkpt lat="43.02317" lon="0.89647">
        <ele>436</ele>
        <time>2021-03-13T17:10:20Z</time>
      </trkpt>
      <trkpt lat="43.02317" lon="0.89649">
        <ele>436</ele>
        <time>2021-03-13T17:10:21Z</time>
      </trkpt>
      <trkpt lat="43.02318" lon="0.89656">
        <ele>436</ele>
        <time>2021-03-13T17:10:22Z</time>
      </trkpt>
      <trkpt lat="43.0232" lon="0.89656">
        <ele>436</ele>
        <time>2021-03-13T17:10:23Z</time>
      </trkpt>
      <trkpt lat="43.02321" lon="0.89656">
        <ele>436</ele>
        <time>2021-03-13T17:10:24Z</time>
      </trkpt>
      <trkpt lat="43.02322" lon="0.89655">
        <ele>433</ele>
        <time>2021-03-13T17:10:25Z</time>
      </trkpt>
      <trkpt lat="43.0233" lon="0.89653">
        <ele>433</ele>
        <time>2021-03-13T17:10:26Z</time>
      </trkpt>
      <trkpt lat="43.02332" lon="0.89651">
        <ele>433</ele>
        <time>2021-03-13T17:10:27Z</time>
      </trkpt>
      <trkpt lat="43.02334" lon="0.8965">
        <ele>433</ele>
        <time>2021-03-13T17:10:28Z</time>
      </trkpt>
      <trkpt lat="43.02343" lon="0.89645">
        <ele>433</ele>
        <time>2021-03-13T17:10:29Z</time>
      </trkpt>
      <trkpt lat="43.02346" lon="0.89644">
        <ele>432</ele>
        <time>2021-03-13T17:10:30Z</time>
      </trkpt>
      <trkpt lat="43.02355" lon="0.89643">
        <ele>432</ele>
        <time>2021-03-13T17:10:31Z</time>
      </trkpt>
      <trkpt lat="43.02358" lon="0.89643">
        <ele>432</ele>
        <time>2021-03-13T17:10:32Z</time>
      </trkpt>
      <trkpt lat="43.02368" lon="0.89643">
        <ele>432</ele>
        <time>2021-03-13T17:10:33Z</time>
      </trkpt>
      <trkpt lat="43.02371" lon="0.89643">
        <ele>432</ele>
        <time>2021-03-13T17:10:34Z</time>
      </trkpt>
      <trkpt lat="43.02382" lon="0.89642">
        <ele>431</ele>
        <time>2021-03-13T17:10:35Z</time>
      </trkpt>
      <trkpt lat="43.02386" lon="0.89642">
        <ele>431</ele>
        <time>2021-03-13T17:10:36Z</time>
      </trkpt>
      <trkpt lat="43.02397" lon="0.8964">
        <ele>431</ele>
        <time>2021-03-13T17:10:37Z</time>
      </trkpt>
      <trkpt lat="43.024" lon="0.89639">
        <ele>431</ele>
        <time>2021-03-13T17:10:38Z</time>
      </trkpt>
      <trkpt lat="43.02403" lon="0.89638">
        <ele>431</ele>
        <time>2021-03-13T17:10:39Z</time>
      </trkpt>
      <trkpt lat="43.02416" lon="0.89634">
        <ele>430</ele>
        <time>2021-03-13T17:10:40Z</time>
      </trkpt>
      <trkpt lat="43.02419" lon="0.89632">
        <ele>430</ele>
        <time>2021-03-13T17:10:41Z</time>
      </trkpt>
      <trkpt lat="43.02431" lon="0.89628">
        <ele>430</ele>
        <time>2021-03-13T17:10:42Z</time>
      </trkpt>
      <trkpt lat="43.02438" lon="0.89626">
        <ele>430</ele>
        <time>2021-03-13T17:10:43Z</time>
      </trkpt>
      <trkpt lat="43.02444" lon="0.89623">
        <ele>430</ele>
        <time>2021-03-13T17:10:44Z</time>
      </trkpt>
      <trkpt lat="43.02454" lon="0.8962">
        <ele>430</ele>
        <time>2021-03-13T17:10:45Z</time>
      </trkpt>
      <trkpt lat="43.02457" lon="0.89619">
        <ele>430</ele>
        <time>2021-03-13T17:10:46Z</time>
      </trkpt>
      <trkpt lat="43.02468" lon="0.89615">
        <ele>430</ele>
        <time>2021-03-13T17:10:47Z</time>
      </trkpt>
      <trkpt lat="43.02471" lon="0.89614">
        <ele>430</ele>
        <time>2021-03-13T17:10:48Z</time>
      </trkpt>
      <trkpt lat="43.02482" lon="0.89611">
        <ele>430</ele>
        <time>2021-03-13T17:10:49Z</time>
      </trkpt>
      <trkpt lat="43.02485" lon="0.89611">
        <ele>431</ele>
        <time>2021-03-13T17:10:50Z</time>
      </trkpt>
      <trkpt lat="43.02495" lon="0.89611">
        <ele>431</ele>
        <time>2021-03-13T17:10:51Z</time>
      </trkpt>
      <trkpt lat="43.02498" lon="0.89612">
        <ele>431</ele>
        <time>2021-03-13T17:10:52Z</time>
      </trkpt>
      <trkpt lat="43.02507" lon="0.89617">
        <ele>431</ele>
        <time>2021-03-13T17:10:53Z</time>
      </trkpt>
      <trkpt lat="43.02509" lon="0.8962">
        <ele>431</ele>
        <time>2021-03-13T17:10:54Z</time>
      </trkpt>
      <trkpt lat="43.02516" lon="0.89628">
        <ele>431</ele>
        <time>2021-03-13T17:10:55Z</time>
      </trkpt>
      <trkpt lat="43.02517" lon="0.89631">
        <ele>431</ele>
        <time>2021-03-13T17:10:56Z</time>
      </trkpt>
      <trkpt lat="43.0252" lon="0.89637">
        <ele>431</ele>
        <time>2021-03-13T17:10:57Z</time>
      </trkpt>
      <trkpt lat="43.0252" lon="0.89637">
        <ele>431</ele>
        <time>2021-03-13T17:10:58Z</time>
      </trkpt>
      <trkpt lat="43.02522" lon="0.89642">
        <ele>431</ele>
        <time>2021-03-13T17:10:59Z</time>
      </trkpt>
      <trkpt lat="43.02525" lon="0.89647">
        <ele>431</ele>
        <time>2021-03-13T17:11:00Z</time>
      </trkpt>
      <trkpt lat="43.02527" lon="0.89653">
        <ele>431</ele>
        <time>2021-03-13T17:11:01Z</time>
      </trkpt>
      <trkpt lat="43.0253" lon="0.89657">
        <ele>431</ele>
        <time>2021-03-13T17:11:02Z</time>
      </trkpt>
      <trkpt lat="43.02533" lon="0.89661">
        <ele>431</ele>
        <time>2021-03-13T17:11:03Z</time>
      </trkpt>
      <trkpt lat="43.02536" lon="0.89666">
        <ele>431</ele>
        <time>2021-03-13T17:11:04Z</time>
      </trkpt>
      <trkpt lat="43.02539" lon="0.89668">
        <ele>431</ele>
        <time>2021-03-13T17:11:05Z</time>
      </trkpt>
      <trkpt lat="43.02543" lon="0.8967">
        <ele>431</ele>
        <time>2021-03-13T17:11:06Z</time>
      </trkpt>
      <trkpt lat="43.02546" lon="0.89672">
        <ele>431</ele>
        <time>2021-03-13T17:11:07Z</time>
      </trkpt>
      <trkpt lat="43.02549" lon="0.89673">
        <ele>431</ele>
        <time>2021-03-13T17:11:08Z</time>
      </trkpt>
      <trkpt lat="43.02553" lon="0.89674">
        <ele>431</ele>
        <time>2021-03-13T17:11:09Z</time>
      </trkpt>
      <trkpt lat="43.02556" lon="0.89675">
        <ele>435</ele>
        <time>2021-03-13T17:11:10Z</time>
      </trkpt>
      <trkpt lat="43.02559" lon="0.89676">
        <ele>435</ele>
        <time>2021-03-13T17:11:11Z</time>
      </trkpt>
      <trkpt lat="43.02562" lon="0.89678">
        <ele>435</ele>
        <time>2021-03-13T17:11:12Z</time>
      </trkpt>
      <trkpt lat="43.02565" lon="0.89679">
        <ele>435</ele>
        <time>2021-03-13T17:11:13Z</time>
      </trkpt>
      <trkpt lat="43.02568" lon="0.8968">
        <ele>435</ele>
        <time>2021-03-13T17:11:14Z</time>
      </trkpt>
      <trkpt lat="43.02571" lon="0.89682">
        <ele>437</ele>
        <time>2021-03-13T17:11:15Z</time>
      </trkpt>
      <trkpt lat="43.02575" lon="0.89684">
        <ele>437</ele>
        <time>2021-03-13T17:11:16Z</time>
      </trkpt>
      <trkpt lat="43.02578" lon="0.89686">
        <ele>437</ele>
        <time>2021-03-13T17:11:17Z</time>
      </trkpt>
      <trkpt lat="43.02581" lon="0.89687">
        <ele>437</ele>
        <time>2021-03-13T17:11:18Z</time>
      </trkpt>
      <trkpt lat="43.02585" lon="0.89688">
        <ele>437</ele>
        <time>2021-03-13T17:11:19Z</time>
      </trkpt>
      <trkpt lat="43.02588" lon="0.89689">
        <ele>437</ele>
        <time>2021-03-13T17:11:20Z</time>
      </trkpt>
      <trkpt lat="43.02591" lon="0.89689">
        <ele>437</ele>
        <time>2021-03-13T17:11:21Z</time>
      </trkpt>
      <trkpt lat="43.02594" lon="0.89689">
        <ele>437</ele>
        <time>2021-03-13T17:11:22Z</time>
      </trkpt>
      <trkpt lat="43.02598" lon="0.89689">
        <ele>437</ele>
        <time>2021-03-13T17:11:23Z</time>
      </trkpt>
      <trkpt lat="43.02601" lon="0.89689">
        <ele>437</ele>
        <time>2021-03-13T17:11:24Z</time>
      </trkpt>
      <trkpt lat="43.02605" lon="0.89689">
        <ele>437</ele>
        <time>2021-03-13T17:11:25Z</time>
      </trkpt>
      <trkpt lat="43.02609" lon="0.89689">
        <ele>437</ele>
        <time>2021-03-13T17:11:26Z</time>
      </trkpt>
      <trkpt lat="43.02612" lon="0.89689">
        <ele>437</ele>
        <time>2021-03-13T17:11:27Z</time>
      </trkpt>
      <trkpt lat="43.02616" lon="0.89689">
        <ele>437</ele>
        <time>2021-03-13T17:11:28Z</time>
      </trkpt>
      <trkpt lat="43.02619" lon="0.89689">
        <ele>437</ele>
        <time>2021-03-13T17:11:29Z</time>
      </trkpt>
      <trkpt lat="43.02623" lon="0.89689">
        <ele>437</ele>
        <time>2021-03-13T17:11:30Z</time>
      </trkpt>
      <trkpt lat="43.02627" lon="0.8969">
        <ele>437</ele>
        <time>2021-03-13T17:11:31Z</time>
      </trkpt>
      <trkpt lat="43.02631" lon="0.8969">
        <ele>437</ele>
        <time>2021-03-13T17:11:32Z</time>
      </trkpt>
      <trkpt lat="43.02634" lon="0.8969">
        <ele>437</ele>
        <time>2021-03-13T17:11:33Z</time>
      </trkpt>
      <trkpt lat="43.02638" lon="0.8969">
        <ele>437</ele>
        <time>2021-03-13T17:11:34Z</time>
      </trkpt>
      <trkpt lat="43.02642" lon="0.8969">
        <ele>437</ele>
        <time>2021-03-13T17:11:35Z</time>
      </trkpt>
      <trkpt lat="43.02646" lon="0.8969">
        <ele>437</ele>
        <time>2021-03-13T17:11:36Z</time>
      </trkpt>
      <trkpt lat="43.0265" lon="0.89691">
        <ele>437</ele>
        <time>2021-03-13T17:11:37Z</time>
      </trkpt>
      <trkpt lat="43.02654" lon="0.89691">
        <ele>437</ele>
        <time>2021-03-13T17:11:38Z</time>
      </trkpt>
      <trkpt lat="43.02658" lon="0.89692">
        <ele>437</ele>
        <time>2021-03-13T17:11:39Z</time>
      </trkpt>
      <trkpt lat="43.02662" lon="0.89693">
        <ele>436</ele>
        <time>2021-03-13T17:11:40Z</time>
      </trkpt>
      <trkpt lat="43.02666" lon="0.89694">
        <ele>436</ele>
        <time>2021-03-13T17:11:41Z</time>
      </trkpt>
      <trkpt lat="43.0267" lon="0.89696">
        <ele>436</ele>
        <time>2021-03-13T17:11:42Z</time>
      </trkpt>
      <trkpt lat="43.02674" lon="0.89698">
        <ele>436</ele>
        <time>2021-03-13T17:11:43Z</time>
      </trkpt>
      <trkpt lat="43.02678" lon="0.897">
        <ele>436</ele>
        <time>2021-03-13T17:11:44Z</time>
      </trkpt>
      <trkpt lat="43.02683" lon="0.89704">
        <ele>436</ele>
        <time>2021-03-13T17:11:45Z</time>
      </trkpt>
      <trkpt lat="43.02688" lon="0.89709">
        <ele>436</ele>
        <time>2021-03-13T17:11:46Z</time>
      </trkpt>
      <trkpt lat="43.02693" lon="0.89714">
        <ele>436</ele>
        <time>2021-03-13T17:11:47Z</time>
      </trkpt>
      <trkpt lat="43.02696" lon="0.89718">
        <ele>436</ele>
        <time>2021-03-13T17:11:48Z</time>
      </trkpt>
      <trkpt lat="43.02696" lon="0.89718">
        <ele>436</ele>
        <time>2021-03-13T17:11:49Z</time>
      </trkpt>
      <trkpt lat="43.02701" lon="0.89723">
        <ele>436</ele>
        <time>2021-03-13T17:11:50Z</time>
      </trkpt>
      <trkpt lat="43.02707" lon="0.89729">
        <ele>436</ele>
        <time>2021-03-13T17:11:51Z</time>
      </trkpt>
      <trkpt lat="43.02712" lon="0.89735">
        <ele>436</ele>
        <time>2021-03-13T17:11:52Z</time>
      </trkpt>
      <trkpt lat="43.02719" lon="0.89743">
        <ele>436</ele>
        <time>2021-03-13T17:11:53Z</time>
      </trkpt>
      <trkpt lat="43.02722" lon="0.89746">
        <ele>436</ele>
        <time>2021-03-13T17:11:54Z</time>
      </trkpt>
      <trkpt lat="43.02729" lon="0.89754">
        <ele>436</ele>
        <time>2021-03-13T17:11:55Z</time>
      </trkpt>
      <trkpt lat="43.02732" lon="0.89757">
        <ele>436</ele>
        <time>2021-03-13T17:11:56Z</time>
      </trkpt>
      <trkpt lat="43.02739" lon="0.89767">
        <ele>436</ele>
        <time>2021-03-13T17:11:57Z</time>
      </trkpt>
      <trkpt lat="43.02742" lon="0.89771">
        <ele>436</ele>
        <time>2021-03-13T17:11:58Z</time>
      </trkpt>
      <trkpt lat="43.02748" lon="0.89783">
        <ele>436</ele>
        <time>2021-03-13T17:11:59Z</time>
      </trkpt>
      <trkpt lat="43.0275" lon="0.89787">
        <ele>435</ele>
        <time>2021-03-13T17:12:00Z</time>
      </trkpt>
      <trkpt lat="43.02754" lon="0.89801">
        <ele>435</ele>
        <time>2021-03-13T17:12:01Z</time>
      </trkpt>
      <trkpt lat="43.02754" lon="0.89806">
        <ele>435</ele>
        <time>2021-03-13T17:12:02Z</time>
      </trkpt>
      <trkpt lat="43.02756" lon="0.89822">
        <ele>435</ele>
        <time>2021-03-13T17:12:03Z</time>
      </trkpt>
      <trkpt lat="43.02757" lon="0.89827">
        <ele>435</ele>
        <time>2021-03-13T17:12:04Z</time>
      </trkpt>
      <trkpt lat="43.02759" lon="0.89842">
        <ele>435</ele>
        <time>2021-03-13T17:12:05Z</time>
      </trkpt>
      <trkpt lat="43.02759" lon="0.89848">
        <ele>435</ele>
        <time>2021-03-13T17:12:06Z</time>
      </trkpt>
      <trkpt lat="43.02761" lon="0.89863">
        <ele>435</ele>
        <time>2021-03-13T17:12:07Z</time>
      </trkpt>
      <trkpt lat="43.02761" lon="0.89869">
        <ele>435</ele>
        <time>2021-03-13T17:12:08Z</time>
      </trkpt>
      <trkpt lat="43.02763" lon="0.89884">
        <ele>435</ele>
        <time>2021-03-13T17:12:09Z</time>
      </trkpt>
      <trkpt lat="43.02763" lon="0.89889">
        <ele>433</ele>
        <time>2021-03-13T17:12:10Z</time>
      </trkpt>
      <trkpt lat="43.02764" lon="0.89905">
        <ele>433</ele>
        <time>2021-03-13T17:12:11Z</time>
      </trkpt>
      <trkpt lat="43.02764" lon="0.8991">
        <ele>433</ele>
        <time>2021-03-13T17:12:12Z</time>
      </trkpt>
      <trkpt lat="43.02763" lon="0.89926">
        <ele>433</ele>
        <time>2021-03-13T17:12:13Z</time>
      </trkpt>
      <trkpt lat="43.02763" lon="0.89931">
        <ele>433</ele>
        <time>2021-03-13T17:12:14Z</time>
      </trkpt>
      <trkpt lat="43.02762" lon="0.89947">
        <ele>433</ele>
        <time>2021-03-13T17:12:15Z</time>
      </trkpt>
      <trkpt lat="43.02761" lon="0.89952">
        <ele>433</ele>
        <time>2021-03-13T17:12:16Z</time>
      </trkpt>
      <trkpt lat="43.0276" lon="0.89968">
        <ele>433</ele>
        <time>2021-03-13T17:12:17Z</time>
      </trkpt>
      <trkpt lat="43.02759" lon="0.89973">
        <ele>433</ele>
        <time>2021-03-13T17:12:18Z</time>
      </trkpt>
      <trkpt lat="43.02758" lon="0.89989">
        <ele>433</ele>
        <time>2021-03-13T17:12:19Z</time>
      </trkpt>
      <trkpt lat="43.02758" lon="0.89994">
        <ele>428</ele>
        <time>2021-03-13T17:12:20Z</time>
      </trkpt>
      <trkpt lat="43.02756" lon="0.9001">
        <ele>426</ele>
        <time>2021-03-13T17:12:21Z</time>
      </trkpt>
      <trkpt lat="43.02756" lon="0.90015">
        <ele>426</ele>
        <time>2021-03-13T17:12:22Z</time>
      </trkpt>
      <trkpt lat="43.02755" lon="0.9003">
        <ele>425</ele>
        <time>2021-03-13T17:12:23Z</time>
      </trkpt>
      <trkpt lat="43.02754" lon="0.90035">
        <ele>425</ele>
        <time>2021-03-13T17:12:24Z</time>
      </trkpt>
      <trkpt lat="43.02754" lon="0.90051">
        <ele>424</ele>
        <time>2021-03-13T17:12:25Z</time>
      </trkpt>
      <trkpt lat="43.02754" lon="0.90056">
        <ele>423</ele>
        <time>2021-03-13T17:12:26Z</time>
      </trkpt>
      <trkpt lat="43.02757" lon="0.90072">
        <ele>423</ele>
        <time>2021-03-13T17:12:27Z</time>
      </trkpt>
      <trkpt lat="43.02759" lon="0.90078">
        <ele>422</ele>
        <time>2021-03-13T17:12:28Z</time>
      </trkpt>
      <trkpt lat="43.02764" lon="0.90095">
        <ele>420</ele>
        <time>2021-03-13T17:12:29Z</time>
      </trkpt>
      <trkpt lat="43.02766" lon="0.901">
        <ele>419</ele>
        <time>2021-03-13T17:12:30Z</time>
      </trkpt>
      <trkpt lat="43.02771" lon="0.90117">
        <ele>419</ele>
        <time>2021-03-13T17:12:31Z</time>
      </trkpt>
      <trkpt lat="43.02773" lon="0.90122">
        <ele>419</ele>
        <time>2021-03-13T17:12:32Z</time>
      </trkpt>
      <trkpt lat="43.02775" lon="0.90139">
        <ele>419</ele>
        <time>2021-03-13T17:12:33Z</time>
      </trkpt>
      <trkpt lat="43.02776" lon="0.90144">
        <ele>417</ele>
        <time>2021-03-13T17:12:34Z</time>
      </trkpt>
      <trkpt lat="43.02775" lon="0.90162">
        <ele>417</ele>
        <time>2021-03-13T17:12:35Z</time>
      </trkpt>
      <trkpt lat="43.02775" lon="0.90167">
        <ele>417</ele>
        <time>2021-03-13T17:12:36Z</time>
      </trkpt>
      <trkpt lat="43.02773" lon="0.90185">
        <ele>417</ele>
        <time>2021-03-13T17:12:37Z</time>
      </trkpt>
      <trkpt lat="43.02772" lon="0.90191">
        <ele>415</ele>
        <time>2021-03-13T17:12:38Z</time>
      </trkpt>
      <trkpt lat="43.02771" lon="0.90208">
        <ele>414</ele>
        <time>2021-03-13T17:12:39Z</time>
      </trkpt>
      <trkpt lat="43.0277" lon="0.90213">
        <ele>413</ele>
        <time>2021-03-13T17:12:40Z</time>
      </trkpt>
      <trkpt lat="43.02769" lon="0.9023">
        <ele>413</ele>
        <time>2021-03-13T17:12:41Z</time>
      </trkpt>
      <trkpt lat="43.02769" lon="0.90235">
        <ele>413</ele>
        <time>2021-03-13T17:12:42Z</time>
      </trkpt>
      <trkpt lat="43.02768" lon="0.90252">
        <ele>411</ele>
        <time>2021-03-13T17:12:43Z</time>
      </trkpt>
      <trkpt lat="43.02768" lon="0.90257">
        <ele>411</ele>
        <time>2021-03-13T17:12:44Z</time>
      </trkpt>
      <trkpt lat="43.02768" lon="0.90273">
        <ele>411</ele>
        <time>2021-03-13T17:12:45Z</time>
      </trkpt>
      <trkpt lat="43.02768" lon="0.90278">
        <ele>410</ele>
        <time>2021-03-13T17:12:46Z</time>
      </trkpt>
      <trkpt lat="43.02768" lon="0.90294">
        <ele>409</ele>
        <time>2021-03-13T17:12:47Z</time>
      </trkpt>
      <trkpt lat="43.02768" lon="0.90299">
        <ele>408</ele>
        <time>2021-03-13T17:12:48Z</time>
      </trkpt>
      <trkpt lat="43.02768" lon="0.90316">
        <ele>407</ele>
        <time>2021-03-13T17:12:49Z</time>
      </trkpt>
      <trkpt lat="43.02769" lon="0.90321">
        <ele>407</ele>
        <time>2021-03-13T17:12:50Z</time>
      </trkpt>
      <trkpt lat="43.02771" lon="0.90338">
        <ele>406</ele>
        <time>2021-03-13T17:12:51Z</time>
      </trkpt>
      <trkpt lat="43.02773" lon="0.90343">
        <ele>405</ele>
        <time>2021-03-13T17:12:52Z</time>
      </trkpt>
      <trkpt lat="43.02776" lon="0.90359">
        <ele>404</ele>
        <time>2021-03-13T17:12:53Z</time>
      </trkpt>
      <trkpt lat="43.02777" lon="0.90365">
        <ele>404</ele>
        <time>2021-03-13T17:12:54Z</time>
      </trkpt>
      <trkpt lat="43.02779" lon="0.90381">
        <ele>403</ele>
        <time>2021-03-13T17:12:55Z</time>
      </trkpt>
      <trkpt lat="43.02779" lon="0.90386">
        <ele>402</ele>
        <time>2021-03-13T17:12:56Z</time>
      </trkpt>
      <trkpt lat="43.02779" lon="0.90396">
        <ele>401</ele>
        <time>2021-03-13T17:12:57Z</time>
      </trkpt>
      <trkpt lat="43.02778" lon="0.90406">
        <ele>401</ele>
        <time>2021-03-13T17:12:58Z</time>
      </trkpt>
      <trkpt lat="43.02778" lon="0.90406">
        <ele>401</ele>
        <time>2021-03-13T17:12:59Z</time>
      </trkpt>
      <trkpt lat="43.0277" lon="0.90429">
        <ele>399</ele>
        <time>2021-03-13T17:13:00Z</time>
      </trkpt>
      <trkpt lat="43.02768" lon="0.90434">
        <ele>399</ele>
        <time>2021-03-13T17:13:01Z</time>
      </trkpt>
      <trkpt lat="43.02764" lon="0.90448">
        <ele>399</ele>
        <time>2021-03-13T17:13:02Z</time>
      </trkpt>
      <trkpt lat="43.02764" lon="0.90453">
        <ele>398</ele>
        <time>2021-03-13T17:13:03Z</time>
      </trkpt>
      <trkpt lat="43.02763" lon="0.90462">
        <ele>397</ele>
        <time>2021-03-13T17:13:04Z</time>
      </trkpt>
      <trkpt lat="43.02764" lon="0.90467">
        <ele>396</ele>
        <time>2021-03-13T17:13:05Z</time>
      </trkpt>
      <trkpt lat="43.02766" lon="0.90471">
        <ele>394</ele>
        <time>2021-03-13T17:13:06Z</time>
      </trkpt>
      <trkpt lat="43.02773" lon="0.90485">
        <ele>393</ele>
        <time>2021-03-13T17:13:07Z</time>
      </trkpt>
      <trkpt lat="43.02777" lon="0.9049">
        <ele>395</ele>
        <time>2021-03-13T17:13:08Z</time>
      </trkpt>
      <trkpt lat="43.02785" lon="0.905">
        <ele>395</ele>
        <time>2021-03-13T17:13:09Z</time>
      </trkpt>
      <trkpt lat="43.02792" lon="0.90505">
        <ele>393</ele>
        <time>2021-03-13T17:13:10Z</time>
      </trkpt>
      <trkpt lat="43.02799" lon="0.90507">
        <ele>392</ele>
        <time>2021-03-13T17:13:11Z</time>
      </trkpt>
      <trkpt lat="43.02808" lon="0.90508">
        <ele>392</ele>
        <time>2021-03-13T17:13:12Z</time>
      </trkpt>
      <trkpt lat="43.02812" lon="0.90508">
        <ele>392</ele>
        <time>2021-03-13T17:13:13Z</time>
      </trkpt>
      <trkpt lat="43.02816" lon="0.90508">
        <ele>392</ele>
        <time>2021-03-13T17:13:14Z</time>
      </trkpt>
      <trkpt lat="43.02827" lon="0.90507">
        <ele>392</ele>
        <time>2021-03-13T17:13:15Z</time>
      </trkpt>
      <trkpt lat="43.02831" lon="0.90507">
        <ele>391</ele>
        <time>2021-03-13T17:13:16Z</time>
      </trkpt>
      <trkpt lat="43.0284" lon="0.90507">
        <ele>390</ele>
        <time>2021-03-13T17:13:17Z</time>
      </trkpt>
      <trkpt lat="43.02842" lon="0.90508">
        <ele>389</ele>
        <time>2021-03-13T17:13:18Z</time>
      </trkpt>
      <trkpt lat="43.02843" lon="0.90508">
        <ele>388</ele>
        <time>2021-03-13T17:13:19Z</time>
      </trkpt>
      <trkpt lat="43.02846" lon="0.90513">
        <ele>388</ele>
        <time>2021-03-13T17:13:20Z</time>
      </trkpt>
      <trkpt lat="43.02843" lon="0.90516">
        <ele>387</ele>
        <time>2021-03-13T17:13:21Z</time>
      </trkpt>
      <trkpt lat="43.0284" lon="0.90519">
        <ele>387</ele>
        <time>2021-03-13T17:13:22Z</time>
      </trkpt>
      <trkpt lat="43.02838" lon="0.90521">
        <ele>386</ele>
        <time>2021-03-13T17:13:23Z</time>
      </trkpt>
      <trkpt lat="43.02837" lon="0.90524">
        <ele>386</ele>
        <time>2021-03-13T17:13:24Z</time>
      </trkpt>
      <trkpt lat="43.02832" lon="0.90533">
        <ele>386</ele>
        <time>2021-03-13T17:13:25Z</time>
      </trkpt>
      <trkpt lat="43.02832" lon="0.90538">
        <ele>385</ele>
        <time>2021-03-13T17:13:26Z</time>
      </trkpt>
      <trkpt lat="43.02829" lon="0.90552">
        <ele>385</ele>
        <time>2021-03-13T17:13:27Z</time>
      </trkpt>
      <trkpt lat="43.02829" lon="0.90558">
        <ele>384</ele>
        <time>2021-03-13T17:13:28Z</time>
      </trkpt>
      <trkpt lat="43.02828" lon="0.90576">
        <ele>383</ele>
        <time>2021-03-13T17:13:29Z</time>
      </trkpt>
      <trkpt lat="43.02828" lon="0.90582">
        <ele>382</ele>
        <time>2021-03-13T17:13:30Z</time>
      </trkpt>
      <trkpt lat="43.0283" lon="0.90601">
        <ele>381</ele>
        <time>2021-03-13T17:13:31Z</time>
      </trkpt>
      <trkpt lat="43.02832" lon="0.90607">
        <ele>380</ele>
        <time>2021-03-13T17:13:32Z</time>
      </trkpt>
      <trkpt lat="43.02838" lon="0.90624">
        <ele>380</ele>
        <time>2021-03-13T17:13:33Z</time>
      </trkpt>
      <trkpt lat="43.0284" lon="0.9063">
        <ele>379</ele>
        <time>2021-03-13T17:13:34Z</time>
      </trkpt>
      <trkpt lat="43.02847" lon="0.90645">
        <ele>378</ele>
        <time>2021-03-13T17:13:35Z</time>
      </trkpt>
      <trkpt lat="43.02849" lon="0.90649">
        <ele>379</ele>
        <time>2021-03-13T17:13:36Z</time>
      </trkpt>
      <trkpt lat="43.02856" lon="0.90662">
        <ele>380</ele>
        <time>2021-03-13T17:13:37Z</time>
      </trkpt>
      <trkpt lat="43.02857" lon="0.90666">
        <ele>380</ele>
        <time>2021-03-13T17:13:38Z</time>
      </trkpt>
      <trkpt lat="43.02863" lon="0.90677">
        <ele>380</ele>
        <time>2021-03-13T17:13:39Z</time>
      </trkpt>
      <trkpt lat="43.02864" lon="0.90681">
        <ele>380</ele>
        <time>2021-03-13T17:13:40Z</time>
      </trkpt>
      <trkpt lat="43.02869" lon="0.90695">
        <ele>380</ele>
        <time>2021-03-13T17:13:41Z</time>
      </trkpt>
      <trkpt lat="43.02871" lon="0.90701">
        <ele>380</ele>
        <time>2021-03-13T17:13:42Z</time>
      </trkpt>
      <trkpt lat="43.02872" lon="0.90704">
        <ele>380</ele>
        <time>2021-03-13T17:13:43Z</time>
      </trkpt>
      <trkpt lat="43.02873" lon="0.90707">
        <ele>380</ele>
        <time>2021-03-13T17:13:44Z</time>
      </trkpt>
      <trkpt lat="43.02876" lon="0.90717">
        <ele>380</ele>
        <time>2021-03-13T17:13:45Z</time>
      </trkpt>
      <trkpt lat="43.02877" lon="0.9072">
        <ele>380</ele>
        <time>2021-03-13T17:13:46Z</time>
      </trkpt>
      <trkpt lat="43.02878" lon="0.90723">
        <ele>380</ele>
        <time>2021-03-13T17:13:47Z</time>
      </trkpt>
      <trkpt lat="43.02881" lon="0.90736">
        <ele>380</ele>
        <time>2021-03-13T17:13:48Z</time>
      </trkpt>
      <trkpt lat="43.02882" lon="0.90739">
        <ele>380</ele>
        <time>2021-03-13T17:13:49Z</time>
      </trkpt>
      <trkpt lat="43.02883" lon="0.90742">
        <ele>382</ele>
        <time>2021-03-13T17:13:50Z</time>
      </trkpt>
      <trkpt lat="43.02885" lon="0.90755">
        <ele>382</ele>
        <time>2021-03-13T17:13:51Z</time>
      </trkpt>
      <trkpt lat="43.02885" lon="0.90758">
        <ele>382</ele>
        <time>2021-03-13T17:13:52Z</time>
      </trkpt>
      <trkpt lat="43.02885" lon="0.90761">
        <ele>382</ele>
        <time>2021-03-13T17:13:53Z</time>
      </trkpt>
      <trkpt lat="43.02886" lon="0.90774">
        <ele>382</ele>
        <time>2021-03-13T17:13:54Z</time>
      </trkpt>
      <trkpt lat="43.02887" lon="0.90778">
        <ele>382</ele>
        <time>2021-03-13T17:13:55Z</time>
      </trkpt>
      <trkpt lat="43.02887" lon="0.90781">
        <ele>382</ele>
        <time>2021-03-13T17:13:56Z</time>
      </trkpt>
      <trkpt lat="43.02888" lon="0.90794">
        <ele>382</ele>
        <time>2021-03-13T17:13:57Z</time>
      </trkpt>
      <trkpt lat="43.02888" lon="0.90797">
        <ele>382</ele>
        <time>2021-03-13T17:13:58Z</time>
      </trkpt>
      <trkpt lat="43.02888" lon="0.908">
        <ele>382</ele>
        <time>2021-03-13T17:13:59Z</time>
      </trkpt>
      <trkpt lat="43.02891" lon="0.90817">
        <ele>385</ele>
        <time>2021-03-13T17:14:00Z</time>
      </trkpt>
      <trkpt lat="43.02892" lon="0.90824">
        <ele>385</ele>
        <time>2021-03-13T17:14:01Z</time>
      </trkpt>
      <trkpt lat="43.02893" lon="0.9083">
        <ele>385</ele>
        <time>2021-03-13T17:14:02Z</time>
      </trkpt>
      <trkpt lat="43.02895" lon="0.90837">
        <ele>385</ele>
        <time>2021-03-13T17:14:03Z</time>
      </trkpt>
      <trkpt lat="43.02895" lon="0.9084">
        <ele>385</ele>
        <time>2021-03-13T17:14:04Z</time>
      </trkpt>
      <trkpt lat="43.02896" lon="0.90842">
        <ele>385</ele>
        <time>2021-03-13T17:14:05Z</time>
      </trkpt>
      <trkpt lat="43.02897" lon="0.90845">
        <ele>385</ele>
        <time>2021-03-13T17:14:06Z</time>
      </trkpt>
      <trkpt lat="43.029" lon="0.90856">
        <ele>385</ele>
        <time>2021-03-13T17:14:07Z</time>
      </trkpt>
      <trkpt lat="43.02901" lon="0.90859">
        <ele>385</ele>
        <time>2021-03-13T17:14:08Z</time>
      </trkpt>
      <trkpt lat="43.02903" lon="0.90862">
        <ele>385</ele>
        <time>2021-03-13T17:14:09Z</time>
      </trkpt>
      <trkpt lat="43.02907" lon="0.90872">
        <ele>386</ele>
        <time>2021-03-13T17:14:10Z</time>
      </trkpt>
      <trkpt lat="43.02908" lon="0.90874">
        <ele>386</ele>
        <time>2021-03-13T17:14:11Z</time>
      </trkpt>
      <trkpt lat="43.02909" lon="0.90877">
        <ele>386</ele>
        <time>2021-03-13T17:14:12Z</time>
      </trkpt>
      <trkpt lat="43.02913" lon="0.90888">
        <ele>386</ele>
        <time>2021-03-13T17:14:13Z</time>
      </trkpt>
      <trkpt lat="43.02913" lon="0.90891">
        <ele>386</ele>
        <time>2021-03-13T17:14:14Z</time>
      </trkpt>
      <trkpt lat="43.02914" lon="0.90894">
        <ele>386</ele>
        <time>2021-03-13T17:14:15Z</time>
      </trkpt>
      <trkpt lat="43.02915" lon="0.90905">
        <ele>386</ele>
        <time>2021-03-13T17:14:16Z</time>
      </trkpt>
      <trkpt lat="43.02915" lon="0.90908">
        <ele>386</ele>
        <time>2021-03-13T17:14:17Z</time>
      </trkpt>
      <trkpt lat="43.02915" lon="0.90911">
        <ele>386</ele>
        <time>2021-03-13T17:14:18Z</time>
      </trkpt>
      <trkpt lat="43.02916" lon="0.90922">
        <ele>386</ele>
        <time>2021-03-13T17:14:19Z</time>
      </trkpt>
      <trkpt lat="43.02916" lon="0.90925">
        <ele>388</ele>
        <time>2021-03-13T17:14:20Z</time>
      </trkpt>
      <trkpt lat="43.02916" lon="0.90927">
        <ele>388</ele>
        <time>2021-03-13T17:14:21Z</time>
      </trkpt>
      <trkpt lat="43.02915" lon="0.90941">
        <ele>388</ele>
        <time>2021-03-13T17:14:22Z</time>
      </trkpt>
      <trkpt lat="43.02915" lon="0.90947">
        <ele>388</ele>
        <time>2021-03-13T17:14:23Z</time>
      </trkpt>
      <trkpt lat="43.02915" lon="0.90953">
        <ele>388</ele>
        <time>2021-03-13T17:14:24Z</time>
      </trkpt>
      <trkpt lat="43.02915" lon="0.90958">
        <ele>388</ele>
        <time>2021-03-13T17:14:25Z</time>
      </trkpt>
      <trkpt lat="43.02916" lon="0.90964">
        <ele>388</ele>
        <time>2021-03-13T17:14:26Z</time>
      </trkpt>
      <trkpt lat="43.02916" lon="0.9097">
        <ele>388</ele>
        <time>2021-03-13T17:14:27Z</time>
      </trkpt>
      <trkpt lat="43.02916" lon="0.90972">
        <ele>388</ele>
        <time>2021-03-13T17:14:28Z</time>
      </trkpt>
      <trkpt lat="43.02917" lon="0.90975">
        <ele>388</ele>
        <time>2021-03-13T17:14:29Z</time>
      </trkpt>
      <trkpt lat="43.02917" lon="0.90977">
        <ele>388</ele>
        <time>2021-03-13T17:14:30Z</time>
      </trkpt>
      <trkpt lat="43.02918" lon="0.90987">
        <ele>388</ele>
        <time>2021-03-13T17:14:31Z</time>
      </trkpt>
      <trkpt lat="43.02918" lon="0.90988">
        <ele>388</ele>
        <time>2021-03-13T17:14:32Z</time>
      </trkpt>
      <trkpt lat="43.02918" lon="0.9099">
        <ele>388</ele>
        <time>2021-03-13T17:14:33Z</time>
      </trkpt>
      <trkpt lat="43.02919" lon="0.90992">
        <ele>388</ele>
        <time>2021-03-13T17:14:34Z</time>
      </trkpt>
      <trkpt lat="43.02922" lon="0.91003">
        <ele>388</ele>
        <time>2021-03-13T17:14:35Z</time>
      </trkpt>
      <trkpt lat="43.02924" lon="0.91007">
        <ele>388</ele>
        <time>2021-03-13T17:14:36Z</time>
      </trkpt>
      <trkpt lat="43.02926" lon="0.91011">
        <ele>388</ele>
        <time>2021-03-13T17:14:37Z</time>
      </trkpt>
      <trkpt lat="43.02928" lon="0.91013">
        <ele>388</ele>
        <time>2021-03-13T17:14:38Z</time>
      </trkpt>
      <trkpt lat="43.0293" lon="0.91015">
        <ele>388</ele>
        <time>2021-03-13T17:14:39Z</time>
      </trkpt>
      <trkpt lat="43.02931" lon="0.91017">
        <ele>391</ele>
        <time>2021-03-13T17:14:40Z</time>
      </trkpt>
      <trkpt lat="43.02938" lon="0.91026">
        <ele>391</ele>
        <time>2021-03-13T17:14:41Z</time>
      </trkpt>
      <trkpt lat="43.02939" lon="0.91027">
        <ele>391</ele>
        <time>2021-03-13T17:14:42Z</time>
      </trkpt>
      <trkpt lat="43.0294" lon="0.91029">
        <ele>391</ele>
        <time>2021-03-13T17:14:43Z</time>
      </trkpt>
      <trkpt lat="43.02947" lon="0.91038">
        <ele>391</ele>
        <time>2021-03-13T17:14:44Z</time>
      </trkpt>
      <trkpt lat="43.02949" lon="0.91042">
        <ele>392</ele>
        <time>2021-03-13T17:14:45Z</time>
      </trkpt>
      <trkpt lat="43.02951" lon="0.91045">
        <ele>392</ele>
        <time>2021-03-13T17:14:46Z</time>
      </trkpt>
      <trkpt lat="43.02952" lon="0.91047">
        <ele>392</ele>
        <time>2021-03-13T17:14:47Z</time>
      </trkpt>
      <trkpt lat="43.02953" lon="0.91049">
        <ele>392</ele>
        <time>2021-03-13T17:14:48Z</time>
      </trkpt>
      <trkpt lat="43.02955" lon="0.91051">
        <ele>392</ele>
        <time>2021-03-13T17:14:49Z</time>
      </trkpt>
      <trkpt lat="43.02959" lon="0.91059">
        <ele>395</ele>
        <time>2021-03-13T17:14:50Z</time>
      </trkpt>
      <trkpt lat="43.0296" lon="0.91061">
        <ele>395</ele>
        <time>2021-03-13T17:14:51Z</time>
      </trkpt>
      <trkpt lat="43.02961" lon="0.91063">
        <ele>395</ele>
        <time>2021-03-13T17:14:52Z</time>
      </trkpt>
      <trkpt lat="43.02965" lon="0.91071">
        <ele>395</ele>
        <time>2021-03-13T17:14:53Z</time>
      </trkpt>
      <trkpt lat="43.02966" lon="0.91074">
        <ele>395</ele>
        <time>2021-03-13T17:14:54Z</time>
      </trkpt>
      <trkpt lat="43.02966" lon="0.91076">
        <ele>398</ele>
        <time>2021-03-13T17:14:55Z</time>
      </trkpt>
      <trkpt lat="43.0297" lon="0.91085">
        <ele>398</ele>
        <time>2021-03-13T17:14:56Z</time>
      </trkpt>
      <trkpt lat="43.02971" lon="0.91087">
        <ele>398</ele>
        <time>2021-03-13T17:14:57Z</time>
      </trkpt>
      <trkpt lat="43.02972" lon="0.9109">
        <ele>398</ele>
        <time>2021-03-13T17:14:58Z</time>
      </trkpt>
      <trkpt lat="43.02975" lon="0.911">
        <ele>398</ele>
        <time>2021-03-13T17:14:59Z</time>
      </trkpt>
      <trkpt lat="43.02975" lon="0.91102">
        <ele>398</ele>
        <time>2021-03-13T17:15:00Z</time>
      </trkpt>
      <trkpt lat="43.02976" lon="0.91104">
        <ele>398</ele>
        <time>2021-03-13T17:15:01Z</time>
      </trkpt>
      <trkpt lat="43.02978" lon="0.91114">
        <ele>398</ele>
        <time>2021-03-13T17:15:02Z</time>
      </trkpt>
      <trkpt lat="43.02978" lon="0.91116">
        <ele>398</ele>
        <time>2021-03-13T17:15:03Z</time>
      </trkpt>
      <trkpt lat="43.02979" lon="0.91119">
        <ele>398</ele>
        <time>2021-03-13T17:15:04Z</time>
      </trkpt>
      <trkpt lat="43.0298" lon="0.91131">
        <ele>399</ele>
        <time>2021-03-13T17:15:05Z</time>
      </trkpt>
      <trkpt lat="43.02979" lon="0.91135">
        <ele>399</ele>
        <time>2021-03-13T17:15:06Z</time>
      </trkpt>
      <trkpt lat="43.02979" lon="0.9114">
        <ele>399</ele>
        <time>2021-03-13T17:15:07Z</time>
      </trkpt>
      <trkpt lat="43.0298" lon="0.91142">
        <ele>399</ele>
        <time>2021-03-13T17:15:08Z</time>
      </trkpt>
      <trkpt lat="43.0298" lon="0.91144">
        <ele>399</ele>
        <time>2021-03-13T17:15:09Z</time>
      </trkpt>
      <trkpt lat="43.0298" lon="0.91147">
        <ele>400</ele>
        <time>2021-03-13T17:15:10Z</time>
      </trkpt>
      <trkpt lat="43.02982" lon="0.91156">
        <ele>400</ele>
        <time>2021-03-13T17:15:11Z</time>
      </trkpt>
      <trkpt lat="43.02982" lon="0.91158">
        <ele>400</ele>
        <time>2021-03-13T17:15:12Z</time>
      </trkpt>
      <trkpt lat="43.02983" lon="0.91161">
        <ele>400</ele>
        <time>2021-03-13T17:15:13Z</time>
      </trkpt>
      <trkpt lat="43.02985" lon="0.9117">
        <ele>400</ele>
        <time>2021-03-13T17:15:14Z</time>
      </trkpt>
      <trkpt lat="43.02986" lon="0.91172">
        <ele>401</ele>
        <time>2021-03-13T17:15:15Z</time>
      </trkpt>
      <trkpt lat="43.02987" lon="0.91175">
        <ele>401</ele>
        <time>2021-03-13T17:15:16Z</time>
      </trkpt>
      <trkpt lat="43.0299" lon="0.91183">
        <ele>401</ele>
        <time>2021-03-13T17:15:17Z</time>
      </trkpt>
      <trkpt lat="43.02991" lon="0.91186">
        <ele>401</ele>
        <time>2021-03-13T17:15:18Z</time>
      </trkpt>
      <trkpt lat="43.02992" lon="0.91188">
        <ele>401</ele>
        <time>2021-03-13T17:15:19Z</time>
      </trkpt>
      <trkpt lat="43.02996" lon="0.91196">
        <ele>402</ele>
        <time>2021-03-13T17:15:20Z</time>
      </trkpt>
      <trkpt lat="43.02997" lon="0.91198">
        <ele>402</ele>
        <time>2021-03-13T17:15:21Z</time>
      </trkpt>
      <trkpt lat="43.02998" lon="0.91201">
        <ele>402</ele>
        <time>2021-03-13T17:15:22Z</time>
      </trkpt>
      <trkpt lat="43.03001" lon="0.91209">
        <ele>402</ele>
        <time>2021-03-13T17:15:23Z</time>
      </trkpt>
      <trkpt lat="43.03002" lon="0.91211">
        <ele>402</ele>
        <time>2021-03-13T17:15:24Z</time>
      </trkpt>
      <trkpt lat="43.03003" lon="0.91214">
        <ele>402</ele>
        <time>2021-03-13T17:15:25Z</time>
      </trkpt>
      <trkpt lat="43.03007" lon="0.91222">
        <ele>402</ele>
        <time>2021-03-13T17:15:26Z</time>
      </trkpt>
      <trkpt lat="43.03008" lon="0.91225">
        <ele>402</ele>
        <time>2021-03-13T17:15:27Z</time>
      </trkpt>
      <trkpt lat="43.03008" lon="0.91227">
        <ele>402</ele>
        <time>2021-03-13T17:15:28Z</time>
      </trkpt>
      <trkpt lat="43.03011" lon="0.91237">
        <ele>402</ele>
        <time>2021-03-13T17:15:29Z</time>
      </trkpt>
      <trkpt lat="43.03012" lon="0.91239">
        <ele>405</ele>
        <time>2021-03-13T17:15:30Z</time>
      </trkpt>
      <trkpt lat="43.03012" lon="0.91241">
        <ele>405</ele>
        <time>2021-03-13T17:15:31Z</time>
      </trkpt>
      <trkpt lat="43.03014" lon="0.91251">
        <ele>405</ele>
        <time>2021-03-13T17:15:32Z</time>
      </trkpt>
      <trkpt lat="43.03014" lon="0.91254">
        <ele>405</ele>
        <time>2021-03-13T17:15:33Z</time>
      </trkpt>
      <trkpt lat="43.03014" lon="0.91256">
        <ele>405</ele>
        <time>2021-03-13T17:15:34Z</time>
      </trkpt>
      <trkpt lat="43.03015" lon="0.91265">
        <ele>409</ele>
        <time>2021-03-13T17:15:35Z</time>
      </trkpt>
      <trkpt lat="43.03015" lon="0.91268">
        <ele>409</ele>
        <time>2021-03-13T17:15:36Z</time>
      </trkpt>
      <trkpt lat="43.03015" lon="0.9127">
        <ele>409</ele>
        <time>2021-03-13T17:15:37Z</time>
      </trkpt>
      <trkpt lat="43.03015" lon="0.91272">
        <ele>409</ele>
        <time>2021-03-13T17:15:38Z</time>
      </trkpt>
      <trkpt lat="43.03015" lon="0.91284">
        <ele>409</ele>
        <time>2021-03-13T17:15:39Z</time>
      </trkpt>
      <trkpt lat="43.03015" lon="0.91286">
        <ele>410</ele>
        <time>2021-03-13T17:15:40Z</time>
      </trkpt>
      <trkpt lat="43.03015" lon="0.91288">
        <ele>410</ele>
        <time>2021-03-13T17:15:41Z</time>
      </trkpt>
      <trkpt lat="43.03016" lon="0.913">
        <ele>410</ele>
        <time>2021-03-13T17:15:42Z</time>
      </trkpt>
      <trkpt lat="43.03017" lon="0.91304">
        <ele>410</ele>
        <time>2021-03-13T17:15:43Z</time>
      </trkpt>
      <trkpt lat="43.03017" lon="0.91309">
        <ele>410</ele>
        <time>2021-03-13T17:15:44Z</time>
      </trkpt>
      <trkpt lat="43.03018" lon="0.91312">
        <ele>411</ele>
        <time>2021-03-13T17:15:45Z</time>
      </trkpt>
      <trkpt lat="43.03018" lon="0.91314">
        <ele>411</ele>
        <time>2021-03-13T17:15:46Z</time>
      </trkpt>
      <trkpt lat="43.03018" lon="0.91316">
        <ele>411</ele>
        <time>2021-03-13T17:15:47Z</time>
      </trkpt>
      <trkpt lat="43.0302" lon="0.91326">
        <ele>411</ele>
        <time>2021-03-13T17:15:48Z</time>
      </trkpt>
      <trkpt lat="43.03021" lon="0.91328">
        <ele>411</ele>
        <time>2021-03-13T17:15:49Z</time>
      </trkpt>
      <trkpt lat="43.03021" lon="0.9133">
        <ele>413</ele>
        <time>2021-03-13T17:15:50Z</time>
      </trkpt>
      <trkpt lat="43.03021" lon="0.91332">
        <ele>413</ele>
        <time>2021-03-13T17:15:51Z</time>
      </trkpt>
      <trkpt lat="43.03024" lon="0.91343">
        <ele>413</ele>
        <time>2021-03-13T17:15:52Z</time>
      </trkpt>
      <trkpt lat="43.03024" lon="0.91345">
        <ele>413</ele>
        <time>2021-03-13T17:15:53Z</time>
      </trkpt>
      <trkpt lat="43.03024" lon="0.91347">
        <ele>413</ele>
        <time>2021-03-13T17:15:54Z</time>
      </trkpt>
      <trkpt lat="43.03025" lon="0.91349">
        <ele>415</ele>
        <time>2021-03-13T17:15:55Z</time>
      </trkpt>
      <trkpt lat="43.03026" lon="0.9136">
        <ele>415</ele>
        <time>2021-03-13T17:15:56Z</time>
      </trkpt>
      <trkpt lat="43.03027" lon="0.91362">
        <ele>415</ele>
        <time>2021-03-13T17:15:57Z</time>
      </trkpt>
      <trkpt lat="43.03027" lon="0.91365">
        <ele>415</ele>
        <time>2021-03-13T17:15:58Z</time>
      </trkpt>
      <trkpt lat="43.0303" lon="0.91379">
        <ele>415</ele>
        <time>2021-03-13T17:15:59Z</time>
      </trkpt>
      <trkpt lat="43.03031" lon="0.91385">
        <ele>413</ele>
        <time>2021-03-13T17:16:00Z</time>
      </trkpt>
      <trkpt lat="43.03032" lon="0.91389">
        <ele>413</ele>
        <time>2021-03-13T17:16:01Z</time>
      </trkpt>
      <trkpt lat="43.03033" lon="0.91394">
        <ele>413</ele>
        <time>2021-03-13T17:16:02Z</time>
      </trkpt>
      <trkpt lat="43.03036" lon="0.91407">
        <ele>413</ele>
        <time>2021-03-13T17:16:03Z</time>
      </trkpt>
      <trkpt lat="43.03037" lon="0.91412">
        <ele>413</ele>
        <time>2021-03-13T17:16:04Z</time>
      </trkpt>
      <trkpt lat="43.03042" lon="0.91431">
        <ele>413</ele>
        <time>2021-03-13T17:16:05Z</time>
      </trkpt>
      <trkpt lat="43.03045" lon="0.9144">
        <ele>413</ele>
        <time>2021-03-13T17:16:06Z</time>
      </trkpt>
      <trkpt lat="43.03049" lon="0.91458">
        <ele>413</ele>
        <time>2021-03-13T17:16:07Z</time>
      </trkpt>
      <trkpt lat="43.03053" lon="0.91471">
        <ele>413</ele>
        <time>2021-03-13T17:16:08Z</time>
      </trkpt>
      <trkpt lat="43.03053" lon="0.91471">
        <ele>413</ele>
        <time>2021-03-13T17:16:09Z</time>
      </trkpt>
      <trkpt lat="43.03056" lon="0.91484">
        <ele>406</ele>
        <time>2021-03-13T17:16:10Z</time>
      </trkpt>
      <trkpt lat="43.0306" lon="0.91504">
        <ele>403</ele>
        <time>2021-03-13T17:16:11Z</time>
      </trkpt>
      <trkpt lat="43.0306" lon="0.9151">
        <ele>403</ele>
        <time>2021-03-13T17:16:12Z</time>
      </trkpt>
      <trkpt lat="43.03056" lon="0.91532">
        <ele>403</ele>
        <time>2021-03-13T17:16:13Z</time>
      </trkpt>
      <trkpt lat="43.03053" lon="0.91541">
        <ele>403</ele>
        <time>2021-03-13T17:16:14Z</time>
      </trkpt>
      <trkpt lat="43.03047" lon="0.91559">
        <ele>401</ele>
        <time>2021-03-13T17:16:15Z</time>
      </trkpt>
      <trkpt lat="43.03044" lon="0.91564">
        <ele>400</ele>
        <time>2021-03-13T17:16:16Z</time>
      </trkpt>
      <trkpt lat="43.03042" lon="0.9157">
        <ele>400</ele>
        <time>2021-03-13T17:16:17Z</time>
      </trkpt>
      <trkpt lat="43.03035" lon="0.91587">
        <ele>400</ele>
        <time>2021-03-13T17:16:18Z</time>
      </trkpt>
      <trkpt lat="43.03033" lon="0.91593">
        <ele>399</ele>
        <time>2021-03-13T17:16:19Z</time>
      </trkpt>
      <trkpt lat="43.03027" lon="0.91611">
        <ele>399</ele>
        <time>2021-03-13T17:16:20Z</time>
      </trkpt>
      <trkpt lat="43.03025" lon="0.91617">
        <ele>399</ele>
        <time>2021-03-13T17:16:21Z</time>
      </trkpt>
      <trkpt lat="43.0302" lon="0.91635">
        <ele>399</ele>
        <time>2021-03-13T17:16:22Z</time>
      </trkpt>
      <trkpt lat="43.03019" lon="0.91641">
        <ele>398</ele>
        <time>2021-03-13T17:16:23Z</time>
      </trkpt>
      <trkpt lat="43.03016" lon="0.91658">
        <ele>396</ele>
        <time>2021-03-13T17:16:24Z</time>
      </trkpt>
      <trkpt lat="43.03015" lon="0.91664">
        <ele>395</ele>
        <time>2021-03-13T17:16:25Z</time>
      </trkpt>
      <trkpt lat="43.03015" lon="0.9168">
        <ele>394</ele>
        <time>2021-03-13T17:16:26Z</time>
      </trkpt>
      <trkpt lat="43.03016" lon="0.91686">
        <ele>393</ele>
        <time>2021-03-13T17:16:27Z</time>
      </trkpt>
      <trkpt lat="43.0302" lon="0.91702">
        <ele>393</ele>
        <time>2021-03-13T17:16:28Z</time>
      </trkpt>
      <trkpt lat="43.03022" lon="0.91707">
        <ele>392</ele>
        <time>2021-03-13T17:16:29Z</time>
      </trkpt>
      <trkpt lat="43.03027" lon="0.91722">
        <ele>391</ele>
        <time>2021-03-13T17:16:30Z</time>
      </trkpt>
      <trkpt lat="43.03029" lon="0.91727">
        <ele>390</ele>
        <time>2021-03-13T17:16:31Z</time>
      </trkpt>
      <trkpt lat="43.03035" lon="0.91744">
        <ele>390</ele>
        <time>2021-03-13T17:16:32Z</time>
      </trkpt>
      <trkpt lat="43.03036" lon="0.91749">
        <ele>388</ele>
        <time>2021-03-13T17:16:33Z</time>
      </trkpt>
      <trkpt lat="43.0304" lon="0.91766">
        <ele>386</ele>
        <time>2021-03-13T17:16:34Z</time>
      </trkpt>
      <trkpt lat="43.03041" lon="0.91772">
        <ele>384</ele>
        <time>2021-03-13T17:16:35Z</time>
      </trkpt>
      <trkpt lat="43.03043" lon="0.91794">
        <ele>383</ele>
        <time>2021-03-13T17:16:36Z</time>
      </trkpt>
      <trkpt lat="43.03044" lon="0.91804">
        <ele>382</ele>
        <time>2021-03-13T17:16:37Z</time>
      </trkpt>
      <trkpt lat="43.03044" lon="0.91824">
        <ele>381</ele>
        <time>2021-03-13T17:16:38Z</time>
      </trkpt>
      <trkpt lat="43.03043" lon="0.91838">
        <ele>380</ele>
        <time>2021-03-13T17:16:39Z</time>
      </trkpt>
      <trkpt lat="43.03041" lon="0.91851">
        <ele>378</ele>
        <time>2021-03-13T17:16:40Z</time>
      </trkpt>
      <trkpt lat="43.03038" lon="0.91865">
        <ele>377</ele>
        <time>2021-03-13T17:16:41Z</time>
      </trkpt>
      <trkpt lat="43.03036" lon="0.91878">
        <ele>375</ele>
        <time>2021-03-13T17:16:42Z</time>
      </trkpt>
      <trkpt lat="43.03034" lon="0.91884">
        <ele>374</ele>
        <time>2021-03-13T17:16:43Z</time>
      </trkpt>
      <trkpt lat="43.03033" lon="0.9189">
        <ele>374</ele>
        <time>2021-03-13T17:16:44Z</time>
      </trkpt>
      <trkpt lat="43.03029" lon="0.91909">
        <ele>373</ele>
        <time>2021-03-13T17:16:45Z</time>
      </trkpt>
      <trkpt lat="43.03028" lon="0.91915">
        <ele>373</ele>
        <time>2021-03-13T17:16:46Z</time>
      </trkpt>
      <trkpt lat="43.03024" lon="0.91931">
        <ele>371</ele>
        <time>2021-03-13T17:16:47Z</time>
      </trkpt>
      <trkpt lat="43.03023" lon="0.91937">
        <ele>369</ele>
        <time>2021-03-13T17:16:48Z</time>
      </trkpt>
      <trkpt lat="43.03019" lon="0.91952">
        <ele>368</ele>
        <time>2021-03-13T17:16:49Z</time>
      </trkpt>
      <trkpt lat="43.03018" lon="0.91956">
        <ele>367</ele>
        <time>2021-03-13T17:16:50Z</time>
      </trkpt>
      <trkpt lat="43.03015" lon="0.9197">
        <ele>366</ele>
        <time>2021-03-13T17:16:51Z</time>
      </trkpt>
      <trkpt lat="43.03015" lon="0.91974">
        <ele>366</ele>
        <time>2021-03-13T17:16:52Z</time>
      </trkpt>
      <trkpt lat="43.03015" lon="0.91986">
        <ele>365</ele>
        <time>2021-03-13T17:16:53Z</time>
      </trkpt>
      <trkpt lat="43.03016" lon="0.9199">
        <ele>363</ele>
        <time>2021-03-13T17:16:54Z</time>
      </trkpt>
      <trkpt lat="43.0302" lon="0.92003">
        <ele>362</ele>
        <time>2021-03-13T17:16:55Z</time>
      </trkpt>
      <trkpt lat="43.03022" lon="0.92007">
        <ele>363</ele>
        <time>2021-03-13T17:16:56Z</time>
      </trkpt>
      <trkpt lat="43.03028" lon="0.92018">
        <ele>361</ele>
        <time>2021-03-13T17:16:57Z</time>
      </trkpt>
      <trkpt lat="43.0303" lon="0.92022">
        <ele>359</ele>
        <time>2021-03-13T17:16:58Z</time>
      </trkpt>
      <trkpt lat="43.03035" lon="0.92034">
        <ele>359</ele>
        <time>2021-03-13T17:16:59Z</time>
      </trkpt>
      <trkpt lat="43.03037" lon="0.92037">
        <ele>358</ele>
        <time>2021-03-13T17:17:00Z</time>
      </trkpt>
      <trkpt lat="43.03044" lon="0.92046">
        <ele>358</ele>
        <time>2021-03-13T17:17:01Z</time>
      </trkpt>
      <trkpt lat="43.03047" lon="0.92048">
        <ele>357</ele>
        <time>2021-03-13T17:17:02Z</time>
      </trkpt>
      <trkpt lat="43.03057" lon="0.92053">
        <ele>357</ele>
        <time>2021-03-13T17:17:03Z</time>
      </trkpt>
      <trkpt lat="43.03061" lon="0.92054">
        <ele>357</ele>
        <time>2021-03-13T17:17:04Z</time>
      </trkpt>
      <trkpt lat="43.03071" lon="0.92056">
        <ele>357</ele>
        <time>2021-03-13T17:17:05Z</time>
      </trkpt>
      <trkpt lat="43.03075" lon="0.92056">
        <ele>357</ele>
        <time>2021-03-13T17:17:06Z</time>
      </trkpt>
      <trkpt lat="43.03085" lon="0.92055">
        <ele>357</ele>
        <time>2021-03-13T17:17:07Z</time>
      </trkpt>
      <trkpt lat="43.03089" lon="0.92055">
        <ele>357</ele>
        <time>2021-03-13T17:17:08Z</time>
      </trkpt>
      <trkpt lat="43.03098" lon="0.92051">
        <ele>357</ele>
        <time>2021-03-13T17:17:09Z</time>
      </trkpt>
      <trkpt lat="43.03101" lon="0.92049">
        <ele>357</ele>
        <time>2021-03-13T17:17:10Z</time>
      </trkpt>
      <trkpt lat="43.0311" lon="0.92043">
        <ele>357</ele>
        <time>2021-03-13T17:17:11Z</time>
      </trkpt>
      <trkpt lat="43.03113" lon="0.9204">
        <ele>357</ele>
        <time>2021-03-13T17:17:12Z</time>
      </trkpt>
      <trkpt lat="43.03122" lon="0.92032">
        <ele>357</ele>
        <time>2021-03-13T17:17:13Z</time>
      </trkpt>
      <trkpt lat="43.03124" lon="0.92028">
        <ele>357</ele>
        <time>2021-03-13T17:17:14Z</time>
      </trkpt>
      <trkpt lat="43.03131" lon="0.92018">
        <ele>357</ele>
        <time>2021-03-13T17:17:15Z</time>
      </trkpt>
      <trkpt lat="43.03133" lon="0.92015">
        <ele>357</ele>
        <time>2021-03-13T17:17:16Z</time>
      </trkpt>
      <trkpt lat="43.03141" lon="0.92006">
        <ele>357</ele>
        <time>2021-03-13T17:17:17Z</time>
      </trkpt>
      <trkpt lat="43.03143" lon="0.92004">
        <ele>357</ele>
        <time>2021-03-13T17:17:18Z</time>
      </trkpt>
      <trkpt lat="43.03152" lon="0.91999">
        <ele>357</ele>
        <time>2021-03-13T17:17:19Z</time>
      </trkpt>
      <trkpt lat="43.03155" lon="0.91999">
        <ele>358</ele>
        <time>2021-03-13T17:17:20Z</time>
      </trkpt>
      <trkpt lat="43.03165" lon="0.91998">
        <ele>358</ele>
        <time>2021-03-13T17:17:21Z</time>
      </trkpt>
      <trkpt lat="43.03168" lon="0.91998">
        <ele>358</ele>
        <time>2021-03-13T17:17:22Z</time>
      </trkpt>
      <trkpt lat="43.03176" lon="0.92001">
        <ele>358</ele>
        <time>2021-03-13T17:17:23Z</time>
      </trkpt>
      <trkpt lat="43.03178" lon="0.92003">
        <ele>358</ele>
        <time>2021-03-13T17:17:24Z</time>
      </trkpt>
      <trkpt lat="43.03185" lon="0.92009">
        <ele>358</ele>
        <time>2021-03-13T17:17:25Z</time>
      </trkpt>
      <trkpt lat="43.03187" lon="0.92011">
        <ele>358</ele>
        <time>2021-03-13T17:17:26Z</time>
      </trkpt>
      <trkpt lat="43.03193" lon="0.92018">
        <ele>358</ele>
        <time>2021-03-13T17:17:27Z</time>
      </trkpt>
      <trkpt lat="43.03195" lon="0.9202">
        <ele>358</ele>
        <time>2021-03-13T17:17:28Z</time>
      </trkpt>
      <trkpt lat="43.03197" lon="0.92022">
        <ele>358</ele>
        <time>2021-03-13T17:17:29Z</time>
      </trkpt>
      <trkpt lat="43.03205" lon="0.92028">
        <ele>360</ele>
        <time>2021-03-13T17:17:30Z</time>
      </trkpt>
      <trkpt lat="43.03207" lon="0.92029">
        <ele>360</ele>
        <time>2021-03-13T17:17:31Z</time>
      </trkpt>
      <trkpt lat="43.03215" lon="0.9203">
        <ele>360</ele>
        <time>2021-03-13T17:17:32Z</time>
      </trkpt>
      <trkpt lat="43.03217" lon="0.9203">
        <ele>360</ele>
        <time>2021-03-13T17:17:33Z</time>
      </trkpt>
      <trkpt lat="43.03219" lon="0.92029">
        <ele>360</ele>
        <time>2021-03-13T17:17:34Z</time>
      </trkpt>
      <trkpt lat="43.03228" lon="0.92026">
        <ele>360</ele>
        <time>2021-03-13T17:17:35Z</time>
      </trkpt>
      <trkpt lat="43.03231" lon="0.92025">
        <ele>360</ele>
        <time>2021-03-13T17:17:36Z</time>
      </trkpt>
      <trkpt lat="43.03233" lon="0.92024">
        <ele>360</ele>
        <time>2021-03-13T17:17:37Z</time>
      </trkpt>
      <trkpt lat="43.03244" lon="0.92017">
        <ele>360</ele>
        <time>2021-03-13T17:17:38Z</time>
      </trkpt>
      <trkpt lat="43.03249" lon="0.92014">
        <ele>360</ele>
        <time>2021-03-13T17:17:39Z</time>
      </trkpt>
      <trkpt lat="43.03251" lon="0.92012">
        <ele>360</ele>
        <time>2021-03-13T17:17:40Z</time>
      </trkpt>
      <trkpt lat="43.03254" lon="0.9201">
        <ele>360</ele>
        <time>2021-03-13T17:17:41Z</time>
      </trkpt>
      <trkpt lat="43.0326" lon="0.92005">
        <ele>360</ele>
        <time>2021-03-13T17:17:42Z</time>
      </trkpt>
      <trkpt lat="43.03263" lon="0.92003">
        <ele>360</ele>
        <time>2021-03-13T17:17:43Z</time>
      </trkpt>
      <trkpt lat="43.03272" lon="0.91996">
        <ele>360</ele>
        <time>2021-03-13T17:17:44Z</time>
      </trkpt>
      <trkpt lat="43.03277" lon="0.91992">
        <ele>360</ele>
        <time>2021-03-13T17:17:45Z</time>
      </trkpt>
      <trkpt lat="43.03279" lon="0.91991">
        <ele>360</ele>
        <time>2021-03-13T17:17:46Z</time>
      </trkpt>
      <trkpt lat="43.03281" lon="0.9199">
        <ele>360</ele>
        <time>2021-03-13T17:17:47Z</time>
      </trkpt>
      <trkpt lat="43.0329" lon="0.91987">
        <ele>360</ele>
        <time>2021-03-13T17:17:48Z</time>
      </trkpt>
      <trkpt lat="43.03293" lon="0.91987">
        <ele>360</ele>
        <time>2021-03-13T17:17:49Z</time>
      </trkpt>
      <trkpt lat="43.03297" lon="0.91986">
        <ele>362</ele>
        <time>2021-03-13T17:17:50Z</time>
      </trkpt>
      <trkpt lat="43.03309" lon="0.91993">
        <ele>362</ele>
        <time>2021-03-13T17:17:51Z</time>
      </trkpt>
      <trkpt lat="43.03311" lon="0.91995">
        <ele>362</ele>
        <time>2021-03-13T17:17:52Z</time>
      </trkpt>
      <trkpt lat="43.03316" lon="0.92003">
        <ele>362</ele>
        <time>2021-03-13T17:17:53Z</time>
      </trkpt>
      <trkpt lat="43.03318" lon="0.92006">
        <ele>362</ele>
        <time>2021-03-13T17:17:54Z</time>
      </trkpt>
      <trkpt lat="43.03321" lon="0.92012">
        <ele>362</ele>
        <time>2021-03-13T17:17:55Z</time>
      </trkpt>
      <trkpt lat="43.03321" lon="0.92012">
        <ele>362</ele>
        <time>2021-03-13T17:17:56Z</time>
      </trkpt>
      <trkpt lat="43.03327" lon="0.92028">
        <ele>362</ele>
        <time>2021-03-13T17:17:57Z</time>
      </trkpt>
      <trkpt lat="43.03329" lon="0.92031">
        <ele>362</ele>
        <time>2021-03-13T17:17:58Z</time>
      </trkpt>
      <trkpt lat="43.03333" lon="0.92041">
        <ele>362</ele>
        <time>2021-03-13T17:17:59Z</time>
      </trkpt>
      <trkpt lat="43.03334" lon="0.92044">
        <ele>362</ele>
        <time>2021-03-13T17:18:00Z</time>
      </trkpt>
      <trkpt lat="43.03337" lon="0.92054">
        <ele>362</ele>
        <time>2021-03-13T17:18:01Z</time>
      </trkpt>
      <trkpt lat="43.03339" lon="0.92057">
        <ele>362</ele>
        <time>2021-03-13T17:18:02Z</time>
      </trkpt>
      <trkpt lat="43.03341" lon="0.92064">
        <ele>362</ele>
        <time>2021-03-13T17:18:03Z</time>
      </trkpt>
      <trkpt lat="43.03341" lon="0.92064">
        <ele>362</ele>
        <time>2021-03-13T17:18:04Z</time>
      </trkpt>
      <trkpt lat="43.03347" lon="0.9208">
        <ele>362</ele>
        <time>2021-03-13T17:18:05Z</time>
      </trkpt>
      <trkpt lat="43.03348" lon="0.92083">
        <ele>362</ele>
        <time>2021-03-13T17:18:06Z</time>
      </trkpt>
      <trkpt lat="43.03352" lon="0.92093">
        <ele>362</ele>
        <time>2021-03-13T17:18:07Z</time>
      </trkpt>
      <trkpt lat="43.03353" lon="0.92096">
        <ele>362</ele>
        <time>2021-03-13T17:18:08Z</time>
      </trkpt>
      <trkpt lat="43.03357" lon="0.92106">
        <ele>362</ele>
        <time>2021-03-13T17:18:09Z</time>
      </trkpt>
      <trkpt lat="43.03358" lon="0.92109">
        <ele>362</ele>
        <time>2021-03-13T17:18:10Z</time>
      </trkpt>
      <trkpt lat="43.03362" lon="0.92119">
        <ele>362</ele>
        <time>2021-03-13T17:18:11Z</time>
      </trkpt>
      <trkpt lat="43.03364" lon="0.92123">
        <ele>362</ele>
        <time>2021-03-13T17:18:12Z</time>
      </trkpt>
      <trkpt lat="43.03368" lon="0.92133">
        <ele>362</ele>
        <time>2021-03-13T17:18:13Z</time>
      </trkpt>
      <trkpt lat="43.03369" lon="0.92136">
        <ele>362</ele>
        <time>2021-03-13T17:18:14Z</time>
      </trkpt>
      <trkpt lat="43.03373" lon="0.92146">
        <ele>362</ele>
        <time>2021-03-13T17:18:15Z</time>
      </trkpt>
      <trkpt lat="43.03374" lon="0.92149">
        <ele>362</ele>
        <time>2021-03-13T17:18:16Z</time>
      </trkpt>
      <trkpt lat="43.03378" lon="0.92159">
        <ele>362</ele>
        <time>2021-03-13T17:18:17Z</time>
      </trkpt>
      <trkpt lat="43.03379" lon="0.92163">
        <ele>362</ele>
        <time>2021-03-13T17:18:18Z</time>
      </trkpt>
      <trkpt lat="43.03383" lon="0.92173">
        <ele>362</ele>
        <time>2021-03-13T17:18:19Z</time>
      </trkpt>
      <trkpt lat="43.03384" lon="0.92176">
        <ele>363</ele>
        <time>2021-03-13T17:18:20Z</time>
      </trkpt>
      <trkpt lat="43.03388" lon="0.92187">
        <ele>363</ele>
        <time>2021-03-13T17:18:21Z</time>
      </trkpt>
      <trkpt lat="43.0339" lon="0.9219">
        <ele>363</ele>
        <time>2021-03-13T17:18:22Z</time>
      </trkpt>
      <trkpt lat="43.03394" lon="0.922">
        <ele>363</ele>
        <time>2021-03-13T17:18:23Z</time>
      </trkpt>
      <trkpt lat="43.03395" lon="0.92204">
        <ele>363</ele>
        <time>2021-03-13T17:18:24Z</time>
      </trkpt>
      <trkpt lat="43.03399" lon="0.92215">
        <ele>363</ele>
        <time>2021-03-13T17:18:25Z</time>
      </trkpt>
      <trkpt lat="43.034" lon="0.92219">
        <ele>363</ele>
        <time>2021-03-13T17:18:26Z</time>
      </trkpt>
      <trkpt lat="43.03404" lon="0.92231">
        <ele>363</ele>
        <time>2021-03-13T17:18:27Z</time>
      </trkpt>
      <trkpt lat="43.03406" lon="0.92234">
        <ele>363</ele>
        <time>2021-03-13T17:18:28Z</time>
      </trkpt>
      <trkpt lat="43.0341" lon="0.92246">
        <ele>363</ele>
        <time>2021-03-13T17:18:29Z</time>
      </trkpt>
      <trkpt lat="43.03411" lon="0.92249">
        <ele>363</ele>
        <time>2021-03-13T17:18:30Z</time>
      </trkpt>
      <trkpt lat="43.03415" lon="0.9226">
        <ele>363</ele>
        <time>2021-03-13T17:18:31Z</time>
      </trkpt>
      <trkpt lat="43.03416" lon="0.92264">
        <ele>363</ele>
        <time>2021-03-13T17:18:32Z</time>
      </trkpt>
      <trkpt lat="43.03421" lon="0.92275">
        <ele>363</ele>
        <time>2021-03-13T17:18:33Z</time>
      </trkpt>
      <trkpt lat="43.03423" lon="0.92278">
        <ele>363</ele>
        <time>2021-03-13T17:18:34Z</time>
      </trkpt>
      <trkpt lat="43.03428" lon="0.92288">
        <ele>363</ele>
        <time>2021-03-13T17:18:35Z</time>
      </trkpt>
      <trkpt lat="43.0343" lon="0.92291">
        <ele>363</ele>
        <time>2021-03-13T17:18:36Z</time>
      </trkpt>
      <trkpt lat="43.03435" lon="0.92301">
        <ele>363</ele>
        <time>2021-03-13T17:18:37Z</time>
      </trkpt>
      <trkpt lat="43.03437" lon="0.92304">
        <ele>363</ele>
        <time>2021-03-13T17:18:38Z</time>
      </trkpt>
      <trkpt lat="43.03443" lon="0.92313">
        <ele>363</ele>
        <time>2021-03-13T17:18:39Z</time>
      </trkpt>
      <trkpt lat="43.03445" lon="0.92316">
        <ele>363</ele>
        <time>2021-03-13T17:18:40Z</time>
      </trkpt>
      <trkpt lat="43.03451" lon="0.92326">
        <ele>363</ele>
        <time>2021-03-13T17:18:41Z</time>
      </trkpt>
      <trkpt lat="43.03453" lon="0.92329">
        <ele>363</ele>
        <time>2021-03-13T17:18:42Z</time>
      </trkpt>
      <trkpt lat="43.03459" lon="0.92337">
        <ele>363</ele>
        <time>2021-03-13T17:18:43Z</time>
      </trkpt>
      <trkpt lat="43.03461" lon="0.9234">
        <ele>363</ele>
        <time>2021-03-13T17:18:44Z</time>
      </trkpt>
      <trkpt lat="43.03468" lon="0.92348">
        <ele>363</ele>
        <time>2021-03-13T17:18:45Z</time>
      </trkpt>
      <trkpt lat="43.0347" lon="0.9235">
        <ele>363</ele>
        <time>2021-03-13T17:18:46Z</time>
      </trkpt>
      <trkpt lat="43.03477" lon="0.92357">
        <ele>363</ele>
        <time>2021-03-13T17:18:47Z</time>
      </trkpt>
      <trkpt lat="43.03479" lon="0.92358">
        <ele>363</ele>
        <time>2021-03-13T17:18:48Z</time>
      </trkpt>
      <trkpt lat="43.03487" lon="0.92362">
        <ele>363</ele>
        <time>2021-03-13T17:18:49Z</time>
      </trkpt>
      <trkpt lat="43.0349" lon="0.92363">
        <ele>362</ele>
        <time>2021-03-13T17:18:50Z</time>
      </trkpt>
      <trkpt lat="43.03498" lon="0.92364">
        <ele>362</ele>
        <time>2021-03-13T17:18:51Z</time>
      </trkpt>
      <trkpt lat="43.035" lon="0.92364">
        <ele>362</ele>
        <time>2021-03-13T17:18:52Z</time>
      </trkpt>
      <trkpt lat="43.03505" lon="0.92365">
        <ele>362</ele>
        <time>2021-03-13T17:18:53Z</time>
      </trkpt>
      <trkpt lat="43.03505" lon="0.92365">
        <ele>362</ele>
        <time>2021-03-13T17:18:54Z</time>
      </trkpt>
      <trkpt lat="43.03518" lon="0.92365">
        <ele>362</ele>
        <time>2021-03-13T17:18:55Z</time>
      </trkpt>
      <trkpt lat="43.03521" lon="0.92365">
        <ele>362</ele>
        <time>2021-03-13T17:18:56Z</time>
      </trkpt>
      <trkpt lat="43.03525" lon="0.92366">
        <ele>362</ele>
        <time>2021-03-13T17:18:57Z</time>
      </trkpt>
      <trkpt lat="43.03525" lon="0.92366">
        <ele>362</ele>
        <time>2021-03-13T17:18:58Z</time>
      </trkpt>
      <trkpt lat="43.03535" lon="0.92366">
        <ele>362</ele>
        <time>2021-03-13T17:18:59Z</time>
      </trkpt>
      <trkpt lat="43.03535" lon="0.92366">
        <ele>364</ele>
        <time>2021-03-13T17:19:00Z</time>
      </trkpt>
      <trkpt lat="43.03539" lon="0.92367">
        <ele>364</ele>
        <time>2021-03-13T17:19:01Z</time>
      </trkpt>
      <trkpt lat="43.03544" lon="0.92367">
        <ele>364</ele>
        <time>2021-03-13T17:19:02Z</time>
      </trkpt>
      <trkpt lat="43.03548" lon="0.92368">
        <ele>364</ele>
        <time>2021-03-13T17:19:03Z</time>
      </trkpt>
      <trkpt lat="43.03552" lon="0.9237">
        <ele>364</ele>
        <time>2021-03-13T17:19:04Z</time>
      </trkpt>
      <trkpt lat="43.03556" lon="0.92373">
        <ele>364</ele>
        <time>2021-03-13T17:19:05Z</time>
      </trkpt>
      <trkpt lat="43.03561" lon="0.92375">
        <ele>364</ele>
        <time>2021-03-13T17:19:06Z</time>
      </trkpt>
      <trkpt lat="43.03564" lon="0.92379">
        <ele>364</ele>
        <time>2021-03-13T17:19:07Z</time>
      </trkpt>
      <trkpt lat="43.03567" lon="0.92383">
        <ele>364</ele>
        <time>2021-03-13T17:19:08Z</time>
      </trkpt>
      <trkpt lat="43.0357" lon="0.92387">
        <ele>364</ele>
        <time>2021-03-13T17:19:09Z</time>
      </trkpt>
      <trkpt lat="43.03573" lon="0.92392">
        <ele>367</ele>
        <time>2021-03-13T17:19:10Z</time>
      </trkpt>
      <trkpt lat="43.03576" lon="0.92398">
        <ele>367</ele>
        <time>2021-03-13T17:19:11Z</time>
      </trkpt>
      <trkpt lat="43.0358" lon="0.92404">
        <ele>367</ele>
        <time>2021-03-13T17:19:12Z</time>
      </trkpt>
      <trkpt lat="43.03582" lon="0.92408">
        <ele>367</ele>
        <time>2021-03-13T17:19:13Z</time>
      </trkpt>
      <trkpt lat="43.03582" lon="0.92408">
        <ele>367</ele>
        <time>2021-03-13T17:19:14Z</time>
      </trkpt>
      <trkpt lat="43.03587" lon="0.92418">
        <ele>368</ele>
        <time>2021-03-13T17:19:15Z</time>
      </trkpt>
      <trkpt lat="43.03587" lon="0.92418">
        <ele>368</ele>
        <time>2021-03-13T17:19:16Z</time>
      </trkpt>
      <trkpt lat="43.03592" lon="0.92428">
        <ele>368</ele>
        <time>2021-03-13T17:19:17Z</time>
      </trkpt>
      <trkpt lat="43.03592" lon="0.92428">
        <ele>368</ele>
        <time>2021-03-13T17:19:18Z</time>
      </trkpt>
      <trkpt lat="43.03597" lon="0.92438">
        <ele>368</ele>
        <time>2021-03-13T17:19:19Z</time>
      </trkpt>
      <trkpt lat="43.03597" lon="0.92438">
        <ele>368</ele>
        <time>2021-03-13T17:19:20Z</time>
      </trkpt>
      <trkpt lat="43.03599" lon="0.92442">
        <ele>368</ele>
        <time>2021-03-13T17:19:21Z</time>
      </trkpt>
      <trkpt lat="43.03601" lon="0.92446">
        <ele>368</ele>
        <time>2021-03-13T17:19:22Z</time>
      </trkpt>
      <trkpt lat="43.03604" lon="0.92451">
        <ele>368</ele>
        <time>2021-03-13T17:19:23Z</time>
      </trkpt>
      <trkpt lat="43.03606" lon="0.92454">
        <ele>368</ele>
        <time>2021-03-13T17:19:24Z</time>
      </trkpt>
      <trkpt lat="43.03609" lon="0.92457">
        <ele>368</ele>
        <time>2021-03-13T17:19:25Z</time>
      </trkpt>
      <trkpt lat="43.03611" lon="0.92461">
        <ele>368</ele>
        <time>2021-03-13T17:19:26Z</time>
      </trkpt>
      <trkpt lat="43.03614" lon="0.92464">
        <ele>368</ele>
        <time>2021-03-13T17:19:27Z</time>
      </trkpt>
      <trkpt lat="43.03617" lon="0.92466">
        <ele>368</ele>
        <time>2021-03-13T17:19:28Z</time>
      </trkpt>
      <trkpt lat="43.03621" lon="0.92469">
        <ele>368</ele>
        <time>2021-03-13T17:19:29Z</time>
      </trkpt>
      <trkpt lat="43.03624" lon="0.92471">
        <ele>370</ele>
        <time>2021-03-13T17:19:30Z</time>
      </trkpt>
      <trkpt lat="43.03627" lon="0.92473">
        <ele>370</ele>
        <time>2021-03-13T17:19:31Z</time>
      </trkpt>
      <trkpt lat="43.03631" lon="0.92474">
        <ele>370</ele>
        <time>2021-03-13T17:19:32Z</time>
      </trkpt>
    </trkseg>
  </trk>
</gpx>